<?xml version="1.0" encoding="UTF-8" standalone="no" ?>
<gpx xmlns="http://www.topografix.com/GPX/1/1" xmlns:xsi="http://www.w3.org/2001/XMLSchema-instance" xsi:schemaLocation="http://www.topografix.com/GPX/1/1 http://www.topografix.com/GPX/1/1/gpx.xsd" version="1.1" creator="VisuGPX - https://www.visugpx.com">
  <metadata>
    <name>Kilians_Classik2018</name>
    <desc><![CDATA[Parcours trail de la Kilian's Classik 2018, format 24km]]></desc>
  </metadata>
  <trk>
    <name><![CDATA[20180709203522-Yvyfi]]></name>
    <trkseg>
      <trkpt lat="42.51288" lon="2.04169">
        <ele>1837</ele>
        <time>2018-07-07T06:20:08.000Z</time>
      </trkpt>
      <trkpt lat="42.51291" lon="2.04168">
        <ele>1837</ele>
        <time>2018-07-07T06:20:10.000Z</time>
      </trkpt>
      <trkpt lat="42.51293" lon="2.04167">
        <ele>1837</ele>
        <time>2018-07-07T06:20:11.000Z</time>
      </trkpt>
      <trkpt lat="42.51295" lon="2.04166">
        <ele>1841</ele>
        <time>2018-07-07T06:20:12.000Z</time>
      </trkpt>
      <trkpt lat="42.51297" lon="2.04165">
        <ele>1841</ele>
        <time>2018-07-07T06:20:13.000Z</time>
      </trkpt>
      <trkpt lat="42.51299" lon="2.04163">
        <ele>1841</ele>
        <time>2018-07-07T06:20:14.000Z</time>
      </trkpt>
      <trkpt lat="42.51301" lon="2.04162">
        <ele>1841</ele>
        <time>2018-07-07T06:20:15.000Z</time>
      </trkpt>
      <trkpt lat="42.51304" lon="2.04161">
        <ele>1841</ele>
        <time>2018-07-07T06:20:16.000Z</time>
      </trkpt>
      <trkpt lat="42.51307" lon="2.04161">
        <ele>1841</ele>
        <time>2018-07-07T06:20:17.000Z</time>
      </trkpt>
      <trkpt lat="42.51309" lon="2.0416">
        <ele>1841</ele>
        <time>2018-07-07T06:20:18.000Z</time>
      </trkpt>
      <trkpt lat="42.51312" lon="2.04159">
        <ele>1841</ele>
        <time>2018-07-07T06:20:19.000Z</time>
      </trkpt>
      <trkpt lat="42.51315" lon="2.04159">
        <ele>1841</ele>
        <time>2018-07-07T06:20:20.000Z</time>
      </trkpt>
      <trkpt lat="42.51317" lon="2.04158">
        <ele>1841</ele>
        <time>2018-07-07T06:20:21.000Z</time>
      </trkpt>
      <trkpt lat="42.5132" lon="2.04158">
        <ele>1841</ele>
        <time>2018-07-07T06:20:22.000Z</time>
      </trkpt>
      <trkpt lat="42.51322" lon="2.04157">
        <ele>1841</ele>
        <time>2018-07-07T06:20:23.000Z</time>
      </trkpt>
      <trkpt lat="42.51324" lon="2.04157">
        <ele>1841</ele>
        <time>2018-07-07T06:20:24.000Z</time>
      </trkpt>
      <trkpt lat="42.51327" lon="2.04156">
        <ele>1841</ele>
        <time>2018-07-07T06:20:25.000Z</time>
      </trkpt>
      <trkpt lat="42.51329" lon="2.04156">
        <ele>1841</ele>
        <time>2018-07-07T06:20:26.000Z</time>
      </trkpt>
      <trkpt lat="42.51331" lon="2.04155">
        <ele>1841</ele>
        <time>2018-07-07T06:20:27.000Z</time>
      </trkpt>
      <trkpt lat="42.51333" lon="2.04155">
        <ele>1843</ele>
        <time>2018-07-07T06:20:28.000Z</time>
      </trkpt>
      <trkpt lat="42.51336" lon="2.04154">
        <ele>1843</ele>
        <time>2018-07-07T06:20:29.000Z</time>
      </trkpt>
      <trkpt lat="42.51338" lon="2.04153">
        <ele>1843</ele>
        <time>2018-07-07T06:20:30.000Z</time>
      </trkpt>
      <trkpt lat="42.51341" lon="2.04152">
        <ele>1843</ele>
        <time>2018-07-07T06:20:31.000Z</time>
      </trkpt>
      <trkpt lat="42.51343" lon="2.04151">
        <ele>1844</ele>
        <time>2018-07-07T06:20:32.000Z</time>
      </trkpt>
      <trkpt lat="42.51345" lon="2.0415">
        <ele>1844</ele>
        <time>2018-07-07T06:20:33.000Z</time>
      </trkpt>
      <trkpt lat="42.51347" lon="2.04149">
        <ele>1844</ele>
        <time>2018-07-07T06:20:34.000Z</time>
      </trkpt>
      <trkpt lat="42.51349" lon="2.04148">
        <ele>1844</ele>
        <time>2018-07-07T06:20:35.000Z</time>
      </trkpt>
      <trkpt lat="42.51351" lon="2.04147">
        <ele>1844</ele>
        <time>2018-07-07T06:20:36.000Z</time>
      </trkpt>
      <trkpt lat="42.51353" lon="2.04146">
        <ele>1844</ele>
        <time>2018-07-07T06:20:37.000Z</time>
      </trkpt>
      <trkpt lat="42.51355" lon="2.04142">
        <ele>1845</ele>
        <time>2018-07-07T06:20:39.000Z</time>
      </trkpt>
      <trkpt lat="42.51355" lon="2.0414">
        <ele>1845</ele>
        <time>2018-07-07T06:20:40.000Z</time>
      </trkpt>
      <trkpt lat="42.51354" lon="2.04137">
        <ele>1845</ele>
        <time>2018-07-07T06:20:41.000Z</time>
      </trkpt>
      <trkpt lat="42.51354" lon="2.04134">
        <ele>1845</ele>
        <time>2018-07-07T06:20:42.000Z</time>
      </trkpt>
      <trkpt lat="42.51354" lon="2.04131">
        <ele>1845</ele>
        <time>2018-07-07T06:20:43.000Z</time>
      </trkpt>
      <trkpt lat="42.51355" lon="2.04127">
        <ele>1845</ele>
        <time>2018-07-07T06:20:44.000Z</time>
      </trkpt>
      <trkpt lat="42.51356" lon="2.04125">
        <ele>1846</ele>
        <time>2018-07-07T06:20:45.000Z</time>
      </trkpt>
      <trkpt lat="42.51357" lon="2.04122">
        <ele>1846</ele>
        <time>2018-07-07T06:20:46.000Z</time>
      </trkpt>
      <trkpt lat="42.5136" lon="2.04119">
        <ele>1846</ele>
        <time>2018-07-07T06:20:48.000Z</time>
      </trkpt>
      <trkpt lat="42.51363" lon="2.04117">
        <ele>1846</ele>
        <time>2018-07-07T06:20:50.000Z</time>
      </trkpt>
      <trkpt lat="42.51366" lon="2.04114">
        <ele>1846</ele>
        <time>2018-07-07T06:20:52.000Z</time>
      </trkpt>
      <trkpt lat="42.51367" lon="2.04112">
        <ele>1846</ele>
        <time>2018-07-07T06:20:53.000Z</time>
      </trkpt>
      <trkpt lat="42.51369" lon="2.0411">
        <ele>1846</ele>
        <time>2018-07-07T06:20:54.000Z</time>
      </trkpt>
      <trkpt lat="42.51371" lon="2.04109">
        <ele>1846</ele>
        <time>2018-07-07T06:20:55.000Z</time>
      </trkpt>
      <trkpt lat="42.51374" lon="2.04108">
        <ele>1846</ele>
        <time>2018-07-07T06:20:56.000Z</time>
      </trkpt>
      <trkpt lat="42.51376" lon="2.04106">
        <ele>1847</ele>
        <time>2018-07-07T06:20:57.000Z</time>
      </trkpt>
      <trkpt lat="42.51379" lon="2.04105">
        <ele>1847</ele>
        <time>2018-07-07T06:20:58.000Z</time>
      </trkpt>
      <trkpt lat="42.51381" lon="2.04104">
        <ele>1847</ele>
        <time>2018-07-07T06:20:59.000Z</time>
      </trkpt>
      <trkpt lat="42.51384" lon="2.04102">
        <ele>1847</ele>
        <time>2018-07-07T06:21:01.000Z</time>
      </trkpt>
      <trkpt lat="42.51386" lon="2.04101">
        <ele>1847</ele>
        <time>2018-07-07T06:21:02.000Z</time>
      </trkpt>
      <trkpt lat="42.51388" lon="2.041">
        <ele>1847</ele>
        <time>2018-07-07T06:21:03.000Z</time>
      </trkpt>
      <trkpt lat="42.5139" lon="2.041">
        <ele>1847</ele>
        <time>2018-07-07T06:21:04.000Z</time>
      </trkpt>
      <trkpt lat="42.51393" lon="2.04099">
        <ele>1847</ele>
        <time>2018-07-07T06:21:06.000Z</time>
      </trkpt>
      <trkpt lat="42.51395" lon="2.04098">
        <ele>1847</ele>
        <time>2018-07-07T06:21:07.000Z</time>
      </trkpt>
      <trkpt lat="42.51398" lon="2.04096">
        <ele>1848</ele>
        <time>2018-07-07T06:21:09.000Z</time>
      </trkpt>
      <trkpt lat="42.514" lon="2.04095">
        <ele>1848</ele>
        <time>2018-07-07T06:21:10.000Z</time>
      </trkpt>
      <trkpt lat="42.51403" lon="2.04092">
        <ele>1848</ele>
        <time>2018-07-07T06:21:12.000Z</time>
      </trkpt>
      <trkpt lat="42.51404" lon="2.0409">
        <ele>1848</ele>
        <time>2018-07-07T06:21:13.000Z</time>
      </trkpt>
      <trkpt lat="42.51406" lon="2.04089">
        <ele>1849</ele>
        <time>2018-07-07T06:21:14.000Z</time>
      </trkpt>
      <trkpt lat="42.51408" lon="2.04087">
        <ele>1849</ele>
        <time>2018-07-07T06:21:15.000Z</time>
      </trkpt>
      <trkpt lat="42.51409" lon="2.04086">
        <ele>1849</ele>
        <time>2018-07-07T06:21:16.000Z</time>
      </trkpt>
      <trkpt lat="42.51411" lon="2.04084">
        <ele>1849</ele>
        <time>2018-07-07T06:21:17.000Z</time>
      </trkpt>
      <trkpt lat="42.51413" lon="2.04081">
        <ele>1850</ele>
        <time>2018-07-07T06:21:19.000Z</time>
      </trkpt>
      <trkpt lat="42.51414" lon="2.04077">
        <ele>1850</ele>
        <time>2018-07-07T06:21:21.000Z</time>
      </trkpt>
      <trkpt lat="42.51414" lon="2.04072">
        <ele>1850</ele>
        <time>2018-07-07T06:21:23.000Z</time>
      </trkpt>
      <trkpt lat="42.51414" lon="2.04069">
        <ele>1851</ele>
        <time>2018-07-07T06:21:24.000Z</time>
      </trkpt>
      <trkpt lat="42.51414" lon="2.04067">
        <ele>1851</ele>
        <time>2018-07-07T06:21:25.000Z</time>
      </trkpt>
      <trkpt lat="42.51414" lon="2.04064">
        <ele>1851</ele>
        <time>2018-07-07T06:21:26.000Z</time>
      </trkpt>
      <trkpt lat="42.51414" lon="2.04061">
        <ele>1851</ele>
        <time>2018-07-07T06:21:27.000Z</time>
      </trkpt>
      <trkpt lat="42.51414" lon="2.04059">
        <ele>1851</ele>
        <time>2018-07-07T06:21:28.000Z</time>
      </trkpt>
      <trkpt lat="42.51414" lon="2.04056">
        <ele>1851</ele>
        <time>2018-07-07T06:21:29.000Z</time>
      </trkpt>
      <trkpt lat="42.51414" lon="2.04053">
        <ele>1851</ele>
        <time>2018-07-07T06:21:30.000Z</time>
      </trkpt>
      <trkpt lat="42.51414" lon="2.04051">
        <ele>1851</ele>
        <time>2018-07-07T06:21:31.000Z</time>
      </trkpt>
      <trkpt lat="42.51413" lon="2.04046">
        <ele>1852</ele>
        <time>2018-07-07T06:21:33.000Z</time>
      </trkpt>
      <trkpt lat="42.51412" lon="2.04043">
        <ele>1852</ele>
        <time>2018-07-07T06:21:34.000Z</time>
      </trkpt>
      <trkpt lat="42.51411" lon="2.04039">
        <ele>1852</ele>
        <time>2018-07-07T06:21:36.000Z</time>
      </trkpt>
      <trkpt lat="42.5141" lon="2.04037">
        <ele>1852</ele>
        <time>2018-07-07T06:21:37.000Z</time>
      </trkpt>
      <trkpt lat="42.51409" lon="2.04034">
        <ele>1852</ele>
        <time>2018-07-07T06:21:38.000Z</time>
      </trkpt>
      <trkpt lat="42.51408" lon="2.04031">
        <ele>1852</ele>
        <time>2018-07-07T06:21:39.000Z</time>
      </trkpt>
      <trkpt lat="42.51408" lon="2.04028">
        <ele>1852</ele>
        <time>2018-07-07T06:21:40.000Z</time>
      </trkpt>
      <trkpt lat="42.51408" lon="2.04025">
        <ele>1853</ele>
        <time>2018-07-07T06:21:41.000Z</time>
      </trkpt>
      <trkpt lat="42.51407" lon="2.04022">
        <ele>1853</ele>
        <time>2018-07-07T06:21:42.000Z</time>
      </trkpt>
      <trkpt lat="42.51407" lon="2.04019">
        <ele>1853</ele>
        <time>2018-07-07T06:21:43.000Z</time>
      </trkpt>
      <trkpt lat="42.51407" lon="2.04016">
        <ele>1853</ele>
        <time>2018-07-07T06:21:44.000Z</time>
      </trkpt>
      <trkpt lat="42.51406" lon="2.04013">
        <ele>1854</ele>
        <time>2018-07-07T06:21:45.000Z</time>
      </trkpt>
      <trkpt lat="42.51406" lon="2.04009">
        <ele>1854</ele>
        <time>2018-07-07T06:21:46.000Z</time>
      </trkpt>
      <trkpt lat="42.51406" lon="2.04006">
        <ele>1854</ele>
        <time>2018-07-07T06:21:47.000Z</time>
      </trkpt>
      <trkpt lat="42.51406" lon="2.04003">
        <ele>1854</ele>
        <time>2018-07-07T06:21:48.000Z</time>
      </trkpt>
      <trkpt lat="42.51405" lon="2.04">
        <ele>1854</ele>
        <time>2018-07-07T06:21:49.000Z</time>
      </trkpt>
      <trkpt lat="42.51405" lon="2.03997">
        <ele>1855</ele>
        <time>2018-07-07T06:21:50.000Z</time>
      </trkpt>
      <trkpt lat="42.51405" lon="2.03994">
        <ele>1855</ele>
        <time>2018-07-07T06:21:51.000Z</time>
      </trkpt>
      <trkpt lat="42.51404" lon="2.0399">
        <ele>1855</ele>
        <time>2018-07-07T06:21:52.000Z</time>
      </trkpt>
      <trkpt lat="42.51404" lon="2.03987">
        <ele>1855</ele>
        <time>2018-07-07T06:21:53.000Z</time>
      </trkpt>
      <trkpt lat="42.51404" lon="2.03985">
        <ele>1854</ele>
        <time>2018-07-07T06:21:54.000Z</time>
      </trkpt>
      <trkpt lat="42.51404" lon="2.03982">
        <ele>1854</ele>
        <time>2018-07-07T06:21:55.000Z</time>
      </trkpt>
      <trkpt lat="42.51403" lon="2.03979">
        <ele>1854</ele>
        <time>2018-07-07T06:21:56.000Z</time>
      </trkpt>
      <trkpt lat="42.51403" lon="2.03976">
        <ele>1854</ele>
        <time>2018-07-07T06:21:57.000Z</time>
      </trkpt>
      <trkpt lat="42.51403" lon="2.03973">
        <ele>1854</ele>
        <time>2018-07-07T06:21:58.000Z</time>
      </trkpt>
      <trkpt lat="42.51403" lon="2.03971">
        <ele>1854</ele>
        <time>2018-07-07T06:21:59.000Z</time>
      </trkpt>
      <trkpt lat="42.51403" lon="2.03968">
        <ele>1854</ele>
        <time>2018-07-07T06:22:00.000Z</time>
      </trkpt>
      <trkpt lat="42.51403" lon="2.03965">
        <ele>1854</ele>
        <time>2018-07-07T06:22:01.000Z</time>
      </trkpt>
      <trkpt lat="42.51402" lon="2.03962">
        <ele>1854</ele>
        <time>2018-07-07T06:22:02.000Z</time>
      </trkpt>
      <trkpt lat="42.51402" lon="2.03959">
        <ele>1854</ele>
        <time>2018-07-07T06:22:03.000Z</time>
      </trkpt>
      <trkpt lat="42.51401" lon="2.03956">
        <ele>1854</ele>
        <time>2018-07-07T06:22:04.000Z</time>
      </trkpt>
      <trkpt lat="42.51401" lon="2.03953">
        <ele>1854</ele>
        <time>2018-07-07T06:22:05.000Z</time>
      </trkpt>
      <trkpt lat="42.51401" lon="2.0395">
        <ele>1854</ele>
        <time>2018-07-07T06:22:06.000Z</time>
      </trkpt>
      <trkpt lat="42.514" lon="2.03947">
        <ele>1854</ele>
        <time>2018-07-07T06:22:07.000Z</time>
      </trkpt>
      <trkpt lat="42.514" lon="2.03944">
        <ele>1854</ele>
        <time>2018-07-07T06:22:08.000Z</time>
      </trkpt>
      <trkpt lat="42.514" lon="2.03941">
        <ele>1854</ele>
        <time>2018-07-07T06:22:09.000Z</time>
      </trkpt>
      <trkpt lat="42.51399" lon="2.03938">
        <ele>1854</ele>
        <time>2018-07-07T06:22:10.000Z</time>
      </trkpt>
      <trkpt lat="42.51399" lon="2.03934">
        <ele>1854</ele>
        <time>2018-07-07T06:22:11.000Z</time>
      </trkpt>
      <trkpt lat="42.51399" lon="2.03931">
        <ele>1854</ele>
        <time>2018-07-07T06:22:12.000Z</time>
      </trkpt>
      <trkpt lat="42.51399" lon="2.03928">
        <ele>1854</ele>
        <time>2018-07-07T06:22:13.000Z</time>
      </trkpt>
      <trkpt lat="42.51399" lon="2.03925">
        <ele>1854</ele>
        <time>2018-07-07T06:22:14.000Z</time>
      </trkpt>
      <trkpt lat="42.51399" lon="2.03922">
        <ele>1854</ele>
        <time>2018-07-07T06:22:15.000Z</time>
      </trkpt>
      <trkpt lat="42.51398" lon="2.03919">
        <ele>1854</ele>
        <time>2018-07-07T06:22:16.000Z</time>
      </trkpt>
      <trkpt lat="42.51398" lon="2.03916">
        <ele>1854</ele>
        <time>2018-07-07T06:22:17.000Z</time>
      </trkpt>
      <trkpt lat="42.51398" lon="2.03913">
        <ele>1854</ele>
        <time>2018-07-07T06:22:18.000Z</time>
      </trkpt>
      <trkpt lat="42.51397" lon="2.0391">
        <ele>1854</ele>
        <time>2018-07-07T06:22:19.000Z</time>
      </trkpt>
      <trkpt lat="42.51397" lon="2.03907">
        <ele>1854</ele>
        <time>2018-07-07T06:22:20.000Z</time>
      </trkpt>
      <trkpt lat="42.51396" lon="2.03903">
        <ele>1854</ele>
        <time>2018-07-07T06:22:21.000Z</time>
      </trkpt>
      <trkpt lat="42.51396" lon="2.039">
        <ele>1854</ele>
        <time>2018-07-07T06:22:22.000Z</time>
      </trkpt>
      <trkpt lat="42.51396" lon="2.03896">
        <ele>1854</ele>
        <time>2018-07-07T06:22:23.000Z</time>
      </trkpt>
      <trkpt lat="42.51396" lon="2.03893">
        <ele>1853</ele>
        <time>2018-07-07T06:22:24.000Z</time>
      </trkpt>
      <trkpt lat="42.51396" lon="2.03889">
        <ele>1853</ele>
        <time>2018-07-07T06:22:25.000Z</time>
      </trkpt>
      <trkpt lat="42.51396" lon="2.03885">
        <ele>1853</ele>
        <time>2018-07-07T06:22:26.000Z</time>
      </trkpt>
      <trkpt lat="42.51396" lon="2.03882">
        <ele>1853</ele>
        <time>2018-07-07T06:22:27.000Z</time>
      </trkpt>
      <trkpt lat="42.51396" lon="2.03879">
        <ele>1853</ele>
        <time>2018-07-07T06:22:28.000Z</time>
      </trkpt>
      <trkpt lat="42.51396" lon="2.03875">
        <ele>1853</ele>
        <time>2018-07-07T06:22:29.000Z</time>
      </trkpt>
      <trkpt lat="42.51396" lon="2.03872">
        <ele>1853</ele>
        <time>2018-07-07T06:22:30.000Z</time>
      </trkpt>
      <trkpt lat="42.51396" lon="2.03869">
        <ele>1853</ele>
        <time>2018-07-07T06:22:31.000Z</time>
      </trkpt>
      <trkpt lat="42.51397" lon="2.03866">
        <ele>1853</ele>
        <time>2018-07-07T06:22:32.000Z</time>
      </trkpt>
      <trkpt lat="42.51397" lon="2.03862">
        <ele>1853</ele>
        <time>2018-07-07T06:22:33.000Z</time>
      </trkpt>
      <trkpt lat="42.51398" lon="2.03859">
        <ele>1854</ele>
        <time>2018-07-07T06:22:34.000Z</time>
      </trkpt>
      <trkpt lat="42.51399" lon="2.03856">
        <ele>1854</ele>
        <time>2018-07-07T06:22:35.000Z</time>
      </trkpt>
      <trkpt lat="42.51401" lon="2.03852">
        <ele>1854</ele>
        <time>2018-07-07T06:22:36.000Z</time>
      </trkpt>
      <trkpt lat="42.51402" lon="2.0385">
        <ele>1854</ele>
        <time>2018-07-07T06:22:37.000Z</time>
      </trkpt>
      <trkpt lat="42.51403" lon="2.03847">
        <ele>1854</ele>
        <time>2018-07-07T06:22:38.000Z</time>
      </trkpt>
      <trkpt lat="42.51404" lon="2.03844">
        <ele>1854</ele>
        <time>2018-07-07T06:22:39.000Z</time>
      </trkpt>
      <trkpt lat="42.51406" lon="2.03841">
        <ele>1855</ele>
        <time>2018-07-07T06:22:40.000Z</time>
      </trkpt>
      <trkpt lat="42.51407" lon="2.03838">
        <ele>1855</ele>
        <time>2018-07-07T06:22:41.000Z</time>
      </trkpt>
      <trkpt lat="42.51409" lon="2.03836">
        <ele>1855</ele>
        <time>2018-07-07T06:22:42.000Z</time>
      </trkpt>
      <trkpt lat="42.5141" lon="2.03833">
        <ele>1855</ele>
        <time>2018-07-07T06:22:43.000Z</time>
      </trkpt>
      <trkpt lat="42.51412" lon="2.03831">
        <ele>1855</ele>
        <time>2018-07-07T06:22:44.000Z</time>
      </trkpt>
      <trkpt lat="42.51414" lon="2.03829">
        <ele>1855</ele>
        <time>2018-07-07T06:22:45.000Z</time>
      </trkpt>
      <trkpt lat="42.51416" lon="2.03828">
        <ele>1855</ele>
        <time>2018-07-07T06:22:46.000Z</time>
      </trkpt>
      <trkpt lat="42.51419" lon="2.03827">
        <ele>1857</ele>
        <time>2018-07-07T06:22:47.000Z</time>
      </trkpt>
      <trkpt lat="42.51421" lon="2.03826">
        <ele>1858</ele>
        <time>2018-07-07T06:22:48.000Z</time>
      </trkpt>
      <trkpt lat="42.51424" lon="2.03825">
        <ele>1858</ele>
        <time>2018-07-07T06:22:49.000Z</time>
      </trkpt>
      <trkpt lat="42.51426" lon="2.03825">
        <ele>1858</ele>
        <time>2018-07-07T06:22:50.000Z</time>
      </trkpt>
      <trkpt lat="42.51429" lon="2.03824">
        <ele>1859</ele>
        <time>2018-07-07T06:22:51.000Z</time>
      </trkpt>
      <trkpt lat="42.51431" lon="2.03823">
        <ele>1859</ele>
        <time>2018-07-07T06:22:52.000Z</time>
      </trkpt>
      <trkpt lat="42.51433" lon="2.03822">
        <ele>1859</ele>
        <time>2018-07-07T06:22:53.000Z</time>
      </trkpt>
      <trkpt lat="42.51436" lon="2.03821">
        <ele>1859</ele>
        <time>2018-07-07T06:22:54.000Z</time>
      </trkpt>
      <trkpt lat="42.51438" lon="2.0382">
        <ele>1860</ele>
        <time>2018-07-07T06:22:55.000Z</time>
      </trkpt>
      <trkpt lat="42.5144" lon="2.03819">
        <ele>1860</ele>
        <time>2018-07-07T06:22:56.000Z</time>
      </trkpt>
      <trkpt lat="42.51442" lon="2.03818">
        <ele>1860</ele>
        <time>2018-07-07T06:22:57.000Z</time>
      </trkpt>
      <trkpt lat="42.51444" lon="2.03816">
        <ele>1860</ele>
        <time>2018-07-07T06:22:58.000Z</time>
      </trkpt>
      <trkpt lat="42.51446" lon="2.03814">
        <ele>1860</ele>
        <time>2018-07-07T06:22:59.000Z</time>
      </trkpt>
      <trkpt lat="42.51448" lon="2.03813">
        <ele>1861</ele>
        <time>2018-07-07T06:23:00.000Z</time>
      </trkpt>
      <trkpt lat="42.5145" lon="2.03811">
        <ele>1861</ele>
        <time>2018-07-07T06:23:01.000Z</time>
      </trkpt>
      <trkpt lat="42.51452" lon="2.03809">
        <ele>1861</ele>
        <time>2018-07-07T06:23:02.000Z</time>
      </trkpt>
      <trkpt lat="42.51454" lon="2.03808">
        <ele>1861</ele>
        <time>2018-07-07T06:23:03.000Z</time>
      </trkpt>
      <trkpt lat="42.51457" lon="2.03806">
        <ele>1861</ele>
        <time>2018-07-07T06:23:04.000Z</time>
      </trkpt>
      <trkpt lat="42.51459" lon="2.03805">
        <ele>1862</ele>
        <time>2018-07-07T06:23:05.000Z</time>
      </trkpt>
      <trkpt lat="42.51461" lon="2.03804">
        <ele>1862</ele>
        <time>2018-07-07T06:23:06.000Z</time>
      </trkpt>
      <trkpt lat="42.51463" lon="2.03803">
        <ele>1862</ele>
        <time>2018-07-07T06:23:07.000Z</time>
      </trkpt>
      <trkpt lat="42.51466" lon="2.03802">
        <ele>1862</ele>
        <time>2018-07-07T06:23:08.000Z</time>
      </trkpt>
      <trkpt lat="42.51468" lon="2.03801">
        <ele>1862</ele>
        <time>2018-07-07T06:23:09.000Z</time>
      </trkpt>
      <trkpt lat="42.5147" lon="2.038">
        <ele>1862</ele>
        <time>2018-07-07T06:23:10.000Z</time>
      </trkpt>
      <trkpt lat="42.51473" lon="2.03799">
        <ele>1863</ele>
        <time>2018-07-07T06:23:11.000Z</time>
      </trkpt>
      <trkpt lat="42.51475" lon="2.03799">
        <ele>1863</ele>
        <time>2018-07-07T06:23:12.000Z</time>
      </trkpt>
      <trkpt lat="42.51477" lon="2.03798">
        <ele>1863</ele>
        <time>2018-07-07T06:23:13.000Z</time>
      </trkpt>
      <trkpt lat="42.51479" lon="2.03798">
        <ele>1863</ele>
        <time>2018-07-07T06:23:14.000Z</time>
      </trkpt>
      <trkpt lat="42.51481" lon="2.03798">
        <ele>1863</ele>
        <time>2018-07-07T06:23:15.000Z</time>
      </trkpt>
      <trkpt lat="42.51484" lon="2.03798">
        <ele>1863</ele>
        <time>2018-07-07T06:23:16.000Z</time>
      </trkpt>
      <trkpt lat="42.51486" lon="2.03798">
        <ele>1863</ele>
        <time>2018-07-07T06:23:17.000Z</time>
      </trkpt>
      <trkpt lat="42.51487" lon="2.03797">
        <ele>1863</ele>
        <time>2018-07-07T06:23:18.000Z</time>
      </trkpt>
      <trkpt lat="42.5149" lon="2.03795">
        <ele>1863</ele>
        <time>2018-07-07T06:23:20.000Z</time>
      </trkpt>
      <trkpt lat="42.51492" lon="2.03792">
        <ele>1864</ele>
        <time>2018-07-07T06:23:22.000Z</time>
      </trkpt>
      <trkpt lat="42.51494" lon="2.03789">
        <ele>1864</ele>
        <time>2018-07-07T06:23:24.000Z</time>
      </trkpt>
      <trkpt lat="42.51495" lon="2.03787">
        <ele>1864</ele>
        <time>2018-07-07T06:23:26.000Z</time>
      </trkpt>
      <trkpt lat="42.51497" lon="2.03784">
        <ele>1864</ele>
        <time>2018-07-07T06:23:28.000Z</time>
      </trkpt>
      <trkpt lat="42.51498" lon="2.03781">
        <ele>1864</ele>
        <time>2018-07-07T06:23:30.000Z</time>
      </trkpt>
      <trkpt lat="42.515" lon="2.03778">
        <ele>1864</ele>
        <time>2018-07-07T06:23:32.000Z</time>
      </trkpt>
      <trkpt lat="42.51501" lon="2.03774">
        <ele>1873</ele>
        <time>2018-07-07T06:23:34.000Z</time>
      </trkpt>
      <trkpt lat="42.51501" lon="2.03771">
        <ele>1873</ele>
        <time>2018-07-07T06:23:35.000Z</time>
      </trkpt>
      <trkpt lat="42.51502" lon="2.03768">
        <ele>1873</ele>
        <time>2018-07-07T06:23:36.000Z</time>
      </trkpt>
      <trkpt lat="42.51503" lon="2.03764">
        <ele>1872</ele>
        <time>2018-07-07T06:23:38.000Z</time>
      </trkpt>
      <trkpt lat="42.51503" lon="2.03761">
        <ele>1871</ele>
        <time>2018-07-07T06:23:39.000Z</time>
      </trkpt>
      <trkpt lat="42.51504" lon="2.03758">
        <ele>1871</ele>
        <time>2018-07-07T06:23:40.000Z</time>
      </trkpt>
      <trkpt lat="42.51505" lon="2.03756">
        <ele>1871</ele>
        <time>2018-07-07T06:23:41.000Z</time>
      </trkpt>
      <trkpt lat="42.51506" lon="2.03752">
        <ele>1870</ele>
        <time>2018-07-07T06:23:43.000Z</time>
      </trkpt>
      <trkpt lat="42.51508" lon="2.03748">
        <ele>1871</ele>
        <time>2018-07-07T06:23:45.000Z</time>
      </trkpt>
      <trkpt lat="42.51509" lon="2.03745">
        <ele>1872</ele>
        <time>2018-07-07T06:23:47.000Z</time>
      </trkpt>
      <trkpt lat="42.5151" lon="2.0374">
        <ele>1872</ele>
        <time>2018-07-07T06:23:49.000Z</time>
      </trkpt>
      <trkpt lat="42.51511" lon="2.03736">
        <ele>1873</ele>
        <time>2018-07-07T06:23:51.000Z</time>
      </trkpt>
      <trkpt lat="42.51511" lon="2.03733">
        <ele>1873</ele>
        <time>2018-07-07T06:23:52.000Z</time>
      </trkpt>
      <trkpt lat="42.51511" lon="2.0373">
        <ele>1874</ele>
        <time>2018-07-07T06:23:53.000Z</time>
      </trkpt>
      <trkpt lat="42.51511" lon="2.03728">
        <ele>1874</ele>
        <time>2018-07-07T06:23:54.000Z</time>
      </trkpt>
      <trkpt lat="42.51512" lon="2.03723">
        <ele>1874</ele>
        <time>2018-07-07T06:23:56.000Z</time>
      </trkpt>
      <trkpt lat="42.51513" lon="2.03719">
        <ele>1875</ele>
        <time>2018-07-07T06:23:58.000Z</time>
      </trkpt>
      <trkpt lat="42.51513" lon="2.03715">
        <ele>1875</ele>
        <time>2018-07-07T06:24:00.000Z</time>
      </trkpt>
      <trkpt lat="42.51514" lon="2.03711">
        <ele>1875</ele>
        <time>2018-07-07T06:24:02.000Z</time>
      </trkpt>
      <trkpt lat="42.51515" lon="2.03707">
        <ele>1875</ele>
        <time>2018-07-07T06:24:04.000Z</time>
      </trkpt>
      <trkpt lat="42.51516" lon="2.03702">
        <ele>1875</ele>
        <time>2018-07-07T06:24:06.000Z</time>
      </trkpt>
      <trkpt lat="42.51516" lon="2.03698">
        <ele>1875</ele>
        <time>2018-07-07T06:24:08.000Z</time>
      </trkpt>
      <trkpt lat="42.51516" lon="2.03695">
        <ele>1875</ele>
        <time>2018-07-07T06:24:10.000Z</time>
      </trkpt>
      <trkpt lat="42.51517" lon="2.0369">
        <ele>1874</ele>
        <time>2018-07-07T06:24:12.000Z</time>
      </trkpt>
      <trkpt lat="42.51519" lon="2.03686">
        <ele>1874</ele>
        <time>2018-07-07T06:24:14.000Z</time>
      </trkpt>
      <trkpt lat="42.51519" lon="2.03681">
        <ele>1874</ele>
        <time>2018-07-07T06:24:16.000Z</time>
      </trkpt>
      <trkpt lat="42.5152" lon="2.03679">
        <ele>1874</ele>
        <time>2018-07-07T06:24:17.000Z</time>
      </trkpt>
      <trkpt lat="42.51521" lon="2.03676">
        <ele>1874</ele>
        <time>2018-07-07T06:24:18.000Z</time>
      </trkpt>
      <trkpt lat="42.51522" lon="2.03672">
        <ele>1874</ele>
        <time>2018-07-07T06:24:20.000Z</time>
      </trkpt>
      <trkpt lat="42.51523" lon="2.0367">
        <ele>1874</ele>
        <time>2018-07-07T06:24:21.000Z</time>
      </trkpt>
      <trkpt lat="42.51525" lon="2.03666">
        <ele>1874</ele>
        <time>2018-07-07T06:24:23.000Z</time>
      </trkpt>
      <trkpt lat="42.51526" lon="2.03662">
        <ele>1875</ele>
        <time>2018-07-07T06:24:25.000Z</time>
      </trkpt>
      <trkpt lat="42.51528" lon="2.03659">
        <ele>1875</ele>
        <time>2018-07-07T06:24:27.000Z</time>
      </trkpt>
      <trkpt lat="42.5153" lon="2.03656">
        <ele>1876</ele>
        <time>2018-07-07T06:24:29.000Z</time>
      </trkpt>
      <trkpt lat="42.51531" lon="2.03652">
        <ele>1876</ele>
        <time>2018-07-07T06:24:31.000Z</time>
      </trkpt>
      <trkpt lat="42.51533" lon="2.03648">
        <ele>1876</ele>
        <time>2018-07-07T06:24:33.000Z</time>
      </trkpt>
      <trkpt lat="42.51535" lon="2.03645">
        <ele>1877</ele>
        <time>2018-07-07T06:24:35.000Z</time>
      </trkpt>
      <trkpt lat="42.51537" lon="2.03641">
        <ele>1877</ele>
        <time>2018-07-07T06:24:37.000Z</time>
      </trkpt>
      <trkpt lat="42.51539" lon="2.03638">
        <ele>1878</ele>
        <time>2018-07-07T06:24:39.000Z</time>
      </trkpt>
      <trkpt lat="42.5154" lon="2.03635">
        <ele>1878</ele>
        <time>2018-07-07T06:24:41.000Z</time>
      </trkpt>
      <trkpt lat="42.51541" lon="2.03631">
        <ele>1878</ele>
        <time>2018-07-07T06:24:43.000Z</time>
      </trkpt>
      <trkpt lat="42.51542" lon="2.03628">
        <ele>1878</ele>
        <time>2018-07-07T06:24:45.000Z</time>
      </trkpt>
      <trkpt lat="42.51543" lon="2.03625">
        <ele>1878</ele>
        <time>2018-07-07T06:24:48.000Z</time>
      </trkpt>
      <trkpt lat="42.51544" lon="2.03622">
        <ele>1878</ele>
        <time>2018-07-07T06:24:50.000Z</time>
      </trkpt>
      <trkpt lat="42.51544" lon="2.0362">
        <ele>1878</ele>
        <time>2018-07-07T06:24:51.000Z</time>
      </trkpt>
      <trkpt lat="42.51545" lon="2.03617">
        <ele>1878</ele>
        <time>2018-07-07T06:24:52.000Z</time>
      </trkpt>
      <trkpt lat="42.51546" lon="2.03614">
        <ele>1879</ele>
        <time>2018-07-07T06:24:53.000Z</time>
      </trkpt>
      <trkpt lat="42.51547" lon="2.03612">
        <ele>1879</ele>
        <time>2018-07-07T06:24:54.000Z</time>
      </trkpt>
      <trkpt lat="42.51547" lon="2.03609">
        <ele>1879</ele>
        <time>2018-07-07T06:24:55.000Z</time>
      </trkpt>
      <trkpt lat="42.51548" lon="2.03607">
        <ele>1879</ele>
        <time>2018-07-07T06:24:56.000Z</time>
      </trkpt>
      <trkpt lat="42.51548" lon="2.03604">
        <ele>1879</ele>
        <time>2018-07-07T06:24:57.000Z</time>
      </trkpt>
      <trkpt lat="42.51549" lon="2.03601">
        <ele>1879</ele>
        <time>2018-07-07T06:24:58.000Z</time>
      </trkpt>
      <trkpt lat="42.5155" lon="2.03598">
        <ele>1880</ele>
        <time>2018-07-07T06:24:59.000Z</time>
      </trkpt>
      <trkpt lat="42.5155" lon="2.03595">
        <ele>1880</ele>
        <time>2018-07-07T06:25:00.000Z</time>
      </trkpt>
      <trkpt lat="42.51552" lon="2.03593">
        <ele>1880</ele>
        <time>2018-07-07T06:25:01.000Z</time>
      </trkpt>
      <trkpt lat="42.51553" lon="2.03591">
        <ele>1880</ele>
        <time>2018-07-07T06:25:02.000Z</time>
      </trkpt>
      <trkpt lat="42.51554" lon="2.03589">
        <ele>1881</ele>
        <time>2018-07-07T06:25:03.000Z</time>
      </trkpt>
      <trkpt lat="42.51556" lon="2.03588">
        <ele>1881</ele>
        <time>2018-07-07T06:25:04.000Z</time>
      </trkpt>
      <trkpt lat="42.51558" lon="2.03587">
        <ele>1882</ele>
        <time>2018-07-07T06:25:05.000Z</time>
      </trkpt>
      <trkpt lat="42.51561" lon="2.03586">
        <ele>1882</ele>
        <time>2018-07-07T06:25:07.000Z</time>
      </trkpt>
      <trkpt lat="42.51563" lon="2.03587">
        <ele>1883</ele>
        <time>2018-07-07T06:25:08.000Z</time>
      </trkpt>
      <trkpt lat="42.51565" lon="2.0359">
        <ele>1883</ele>
        <time>2018-07-07T06:25:10.000Z</time>
      </trkpt>
      <trkpt lat="42.51568" lon="2.03594">
        <ele>1883</ele>
        <time>2018-07-07T06:25:12.000Z</time>
      </trkpt>
      <trkpt lat="42.51569" lon="2.03596">
        <ele>1883</ele>
        <time>2018-07-07T06:25:13.000Z</time>
      </trkpt>
      <trkpt lat="42.5157" lon="2.03599">
        <ele>1883</ele>
        <time>2018-07-07T06:25:14.000Z</time>
      </trkpt>
      <trkpt lat="42.51571" lon="2.03601">
        <ele>1883</ele>
        <time>2018-07-07T06:25:15.000Z</time>
      </trkpt>
      <trkpt lat="42.51573" lon="2.03604">
        <ele>1883</ele>
        <time>2018-07-07T06:25:17.000Z</time>
      </trkpt>
      <trkpt lat="42.51575" lon="2.03607">
        <ele>1883</ele>
        <time>2018-07-07T06:25:19.000Z</time>
      </trkpt>
      <trkpt lat="42.51577" lon="2.03609">
        <ele>1883</ele>
        <time>2018-07-07T06:25:21.000Z</time>
      </trkpt>
      <trkpt lat="42.51579" lon="2.0361">
        <ele>1883</ele>
        <time>2018-07-07T06:25:23.000Z</time>
      </trkpt>
      <trkpt lat="42.51582" lon="2.0361">
        <ele>1883</ele>
        <time>2018-07-07T06:25:26.000Z</time>
      </trkpt>
      <trkpt lat="42.51584" lon="2.03609">
        <ele>1896</ele>
        <time>2018-07-07T06:25:28.000Z</time>
      </trkpt>
      <trkpt lat="42.51586" lon="2.03609">
        <ele>1896</ele>
        <time>2018-07-07T06:25:30.000Z</time>
      </trkpt>
      <trkpt lat="42.51588" lon="2.03608">
        <ele>1896</ele>
        <time>2018-07-07T06:25:32.000Z</time>
      </trkpt>
      <trkpt lat="42.51589" lon="2.03606">
        <ele>1896</ele>
        <time>2018-07-07T06:25:33.000Z</time>
      </trkpt>
      <trkpt lat="42.51591" lon="2.03604">
        <ele>1896</ele>
        <time>2018-07-07T06:25:34.000Z</time>
      </trkpt>
      <trkpt lat="42.51592" lon="2.03602">
        <ele>1896</ele>
        <time>2018-07-07T06:25:35.000Z</time>
      </trkpt>
      <trkpt lat="42.51594" lon="2.03599">
        <ele>1896</ele>
        <time>2018-07-07T06:25:37.000Z</time>
      </trkpt>
      <trkpt lat="42.51595" lon="2.03596">
        <ele>1896</ele>
        <time>2018-07-07T06:25:38.000Z</time>
      </trkpt>
      <trkpt lat="42.51595" lon="2.03594">
        <ele>1895</ele>
        <time>2018-07-07T06:25:39.000Z</time>
      </trkpt>
      <trkpt lat="42.51596" lon="2.03591">
        <ele>1895</ele>
        <time>2018-07-07T06:25:40.000Z</time>
      </trkpt>
      <trkpt lat="42.51596" lon="2.03589">
        <ele>1895</ele>
        <time>2018-07-07T06:25:41.000Z</time>
      </trkpt>
      <trkpt lat="42.51597" lon="2.03586">
        <ele>1895</ele>
        <time>2018-07-07T06:25:42.000Z</time>
      </trkpt>
      <trkpt lat="42.51599" lon="2.03583">
        <ele>1894</ele>
        <time>2018-07-07T06:25:43.000Z</time>
      </trkpt>
      <trkpt lat="42.516" lon="2.0358">
        <ele>1895</ele>
        <time>2018-07-07T06:25:44.000Z</time>
      </trkpt>
      <trkpt lat="42.51601" lon="2.03578">
        <ele>1895</ele>
        <time>2018-07-07T06:25:45.000Z</time>
      </trkpt>
      <trkpt lat="42.51602" lon="2.03576">
        <ele>1895</ele>
        <time>2018-07-07T06:25:46.000Z</time>
      </trkpt>
      <trkpt lat="42.51603" lon="2.03574">
        <ele>1896</ele>
        <time>2018-07-07T06:25:47.000Z</time>
      </trkpt>
      <trkpt lat="42.51605" lon="2.03572">
        <ele>1896</ele>
        <time>2018-07-07T06:25:48.000Z</time>
      </trkpt>
      <trkpt lat="42.51606" lon="2.0357">
        <ele>1897</ele>
        <time>2018-07-07T06:25:49.000Z</time>
      </trkpt>
      <trkpt lat="42.51608" lon="2.03568">
        <ele>1897</ele>
        <time>2018-07-07T06:25:50.000Z</time>
      </trkpt>
      <trkpt lat="42.51609" lon="2.03566">
        <ele>1897</ele>
        <time>2018-07-07T06:25:51.000Z</time>
      </trkpt>
      <trkpt lat="42.5161" lon="2.03562">
        <ele>1897</ele>
        <time>2018-07-07T06:25:53.000Z</time>
      </trkpt>
      <trkpt lat="42.51612" lon="2.03558">
        <ele>1898</ele>
        <time>2018-07-07T06:25:55.000Z</time>
      </trkpt>
      <trkpt lat="42.51613" lon="2.03556">
        <ele>1898</ele>
        <time>2018-07-07T06:25:56.000Z</time>
      </trkpt>
      <trkpt lat="42.51614" lon="2.03553">
        <ele>1898</ele>
        <time>2018-07-07T06:25:57.000Z</time>
      </trkpt>
      <trkpt lat="42.51615" lon="2.0355">
        <ele>1898</ele>
        <time>2018-07-07T06:25:58.000Z</time>
      </trkpt>
      <trkpt lat="42.51616" lon="2.03545">
        <ele>1898</ele>
        <time>2018-07-07T06:26:00.000Z</time>
      </trkpt>
      <trkpt lat="42.51618" lon="2.03543">
        <ele>1898</ele>
        <time>2018-07-07T06:26:01.000Z</time>
      </trkpt>
      <trkpt lat="42.51619" lon="2.03542">
        <ele>1898</ele>
        <time>2018-07-07T06:26:02.000Z</time>
      </trkpt>
      <trkpt lat="42.51621" lon="2.03538">
        <ele>1899</ele>
        <time>2018-07-07T06:26:04.000Z</time>
      </trkpt>
      <trkpt lat="42.51623" lon="2.03536">
        <ele>1899</ele>
        <time>2018-07-07T06:26:05.000Z</time>
      </trkpt>
      <trkpt lat="42.51624" lon="2.03532">
        <ele>1899</ele>
        <time>2018-07-07T06:26:07.000Z</time>
      </trkpt>
      <trkpt lat="42.51627" lon="2.03529">
        <ele>1899</ele>
        <time>2018-07-07T06:26:09.000Z</time>
      </trkpt>
      <trkpt lat="42.51628" lon="2.03527">
        <ele>1899</ele>
        <time>2018-07-07T06:26:10.000Z</time>
      </trkpt>
      <trkpt lat="42.51631" lon="2.03523">
        <ele>1900</ele>
        <time>2018-07-07T06:26:12.000Z</time>
      </trkpt>
      <trkpt lat="42.51631" lon="2.0352">
        <ele>1900</ele>
        <time>2018-07-07T06:26:13.000Z</time>
      </trkpt>
      <trkpt lat="42.51632" lon="2.03517">
        <ele>1900</ele>
        <time>2018-07-07T06:26:14.000Z</time>
      </trkpt>
      <trkpt lat="42.51633" lon="2.03515">
        <ele>1900</ele>
        <time>2018-07-07T06:26:15.000Z</time>
      </trkpt>
      <trkpt lat="42.51633" lon="2.03512">
        <ele>1900</ele>
        <time>2018-07-07T06:26:16.000Z</time>
      </trkpt>
      <trkpt lat="42.51634" lon="2.03509">
        <ele>1900</ele>
        <time>2018-07-07T06:26:17.000Z</time>
      </trkpt>
      <trkpt lat="42.51635" lon="2.03506">
        <ele>1900</ele>
        <time>2018-07-07T06:26:18.000Z</time>
      </trkpt>
      <trkpt lat="42.51636" lon="2.03504">
        <ele>1901</ele>
        <time>2018-07-07T06:26:19.000Z</time>
      </trkpt>
      <trkpt lat="42.51638" lon="2.03502">
        <ele>1901</ele>
        <time>2018-07-07T06:26:20.000Z</time>
      </trkpt>
      <trkpt lat="42.5164" lon="2.035">
        <ele>1899</ele>
        <time>2018-07-07T06:26:21.000Z</time>
      </trkpt>
      <trkpt lat="42.51641" lon="2.03498">
        <ele>1899</ele>
        <time>2018-07-07T06:26:22.000Z</time>
      </trkpt>
      <trkpt lat="42.51643" lon="2.03496">
        <ele>1900</ele>
        <time>2018-07-07T06:26:23.000Z</time>
      </trkpt>
      <trkpt lat="42.51644" lon="2.03495">
        <ele>1900</ele>
        <time>2018-07-07T06:26:24.000Z</time>
      </trkpt>
      <trkpt lat="42.51646" lon="2.03493">
        <ele>1900</ele>
        <time>2018-07-07T06:26:25.000Z</time>
      </trkpt>
      <trkpt lat="42.51648" lon="2.03491">
        <ele>1900</ele>
        <time>2018-07-07T06:26:26.000Z</time>
      </trkpt>
      <trkpt lat="42.51649" lon="2.03489">
        <ele>1901</ele>
        <time>2018-07-07T06:26:27.000Z</time>
      </trkpt>
      <trkpt lat="42.5165" lon="2.03487">
        <ele>1901</ele>
        <time>2018-07-07T06:26:28.000Z</time>
      </trkpt>
      <trkpt lat="42.51653" lon="2.03484">
        <ele>1901</ele>
        <time>2018-07-07T06:26:30.000Z</time>
      </trkpt>
      <trkpt lat="42.51654" lon="2.03483">
        <ele>1901</ele>
        <time>2018-07-07T06:26:31.000Z</time>
      </trkpt>
      <trkpt lat="42.51657" lon="2.03481">
        <ele>1901</ele>
        <time>2018-07-07T06:26:32.000Z</time>
      </trkpt>
      <trkpt lat="42.51659" lon="2.0348">
        <ele>1901</ele>
        <time>2018-07-07T06:26:33.000Z</time>
      </trkpt>
      <trkpt lat="42.51661" lon="2.03478">
        <ele>1901</ele>
        <time>2018-07-07T06:26:34.000Z</time>
      </trkpt>
      <trkpt lat="42.51663" lon="2.03477">
        <ele>1901</ele>
        <time>2018-07-07T06:26:35.000Z</time>
      </trkpt>
      <trkpt lat="42.51665" lon="2.03475">
        <ele>1901</ele>
        <time>2018-07-07T06:26:36.000Z</time>
      </trkpt>
      <trkpt lat="42.51667" lon="2.03474">
        <ele>1911</ele>
        <time>2018-07-07T06:26:37.000Z</time>
      </trkpt>
      <trkpt lat="42.51669" lon="2.03472">
        <ele>1911</ele>
        <time>2018-07-07T06:26:38.000Z</time>
      </trkpt>
      <trkpt lat="42.5167" lon="2.03469">
        <ele>1911</ele>
        <time>2018-07-07T06:26:39.000Z</time>
      </trkpt>
      <trkpt lat="42.51672" lon="2.03467">
        <ele>1911</ele>
        <time>2018-07-07T06:26:40.000Z</time>
      </trkpt>
      <trkpt lat="42.51673" lon="2.03465">
        <ele>1911</ele>
        <time>2018-07-07T06:26:41.000Z</time>
      </trkpt>
      <trkpt lat="42.51675" lon="2.03461">
        <ele>1911</ele>
        <time>2018-07-07T06:26:43.000Z</time>
      </trkpt>
      <trkpt lat="42.51677" lon="2.03457">
        <ele>1911</ele>
        <time>2018-07-07T06:26:45.000Z</time>
      </trkpt>
      <trkpt lat="42.51678" lon="2.03453">
        <ele>1911</ele>
        <time>2018-07-07T06:26:47.000Z</time>
      </trkpt>
      <trkpt lat="42.51678" lon="2.03449">
        <ele>1910</ele>
        <time>2018-07-07T06:26:49.000Z</time>
      </trkpt>
      <trkpt lat="42.51679" lon="2.03446">
        <ele>1910</ele>
        <time>2018-07-07T06:26:50.000Z</time>
      </trkpt>
      <trkpt lat="42.51679" lon="2.03443">
        <ele>1910</ele>
        <time>2018-07-07T06:26:51.000Z</time>
      </trkpt>
      <trkpt lat="42.51678" lon="2.0344">
        <ele>1909</ele>
        <time>2018-07-07T06:26:52.000Z</time>
      </trkpt>
      <trkpt lat="42.51679" lon="2.03437">
        <ele>1909</ele>
        <time>2018-07-07T06:26:53.000Z</time>
      </trkpt>
      <trkpt lat="42.51679" lon="2.03435">
        <ele>1909</ele>
        <time>2018-07-07T06:26:54.000Z</time>
      </trkpt>
      <trkpt lat="42.5168" lon="2.03432">
        <ele>1908</ele>
        <time>2018-07-07T06:26:55.000Z</time>
      </trkpt>
      <trkpt lat="42.5168" lon="2.03429">
        <ele>1908</ele>
        <time>2018-07-07T06:26:56.000Z</time>
      </trkpt>
      <trkpt lat="42.51681" lon="2.03425">
        <ele>1908</ele>
        <time>2018-07-07T06:26:57.000Z</time>
      </trkpt>
      <trkpt lat="42.51681" lon="2.03423">
        <ele>1908</ele>
        <time>2018-07-07T06:26:58.000Z</time>
      </trkpt>
      <trkpt lat="42.51682" lon="2.0342">
        <ele>1908</ele>
        <time>2018-07-07T06:26:59.000Z</time>
      </trkpt>
      <trkpt lat="42.51683" lon="2.03417">
        <ele>1908</ele>
        <time>2018-07-07T06:27:00.000Z</time>
      </trkpt>
      <trkpt lat="42.51684" lon="2.03415">
        <ele>1907</ele>
        <time>2018-07-07T06:27:01.000Z</time>
      </trkpt>
      <trkpt lat="42.51685" lon="2.03412">
        <ele>1907</ele>
        <time>2018-07-07T06:27:02.000Z</time>
      </trkpt>
      <trkpt lat="42.51686" lon="2.0341">
        <ele>1907</ele>
        <time>2018-07-07T06:27:03.000Z</time>
      </trkpt>
      <trkpt lat="42.51687" lon="2.03406">
        <ele>1908</ele>
        <time>2018-07-07T06:27:04.000Z</time>
      </trkpt>
      <trkpt lat="42.51688" lon="2.03403">
        <ele>1908</ele>
        <time>2018-07-07T06:27:05.000Z</time>
      </trkpt>
      <trkpt lat="42.51689" lon="2.034">
        <ele>1909</ele>
        <time>2018-07-07T06:27:06.000Z</time>
      </trkpt>
      <trkpt lat="42.5169" lon="2.03397">
        <ele>1909</ele>
        <time>2018-07-07T06:27:07.000Z</time>
      </trkpt>
      <trkpt lat="42.51691" lon="2.03395">
        <ele>1909</ele>
        <time>2018-07-07T06:27:08.000Z</time>
      </trkpt>
      <trkpt lat="42.51693" lon="2.03392">
        <ele>1909</ele>
        <time>2018-07-07T06:27:09.000Z</time>
      </trkpt>
      <trkpt lat="42.51694" lon="2.03389">
        <ele>1910</ele>
        <time>2018-07-07T06:27:10.000Z</time>
      </trkpt>
      <trkpt lat="42.51695" lon="2.03387">
        <ele>1910</ele>
        <time>2018-07-07T06:27:11.000Z</time>
      </trkpt>
      <trkpt lat="42.51696" lon="2.03384">
        <ele>1910</ele>
        <time>2018-07-07T06:27:12.000Z</time>
      </trkpt>
      <trkpt lat="42.51697" lon="2.03382">
        <ele>1910</ele>
        <time>2018-07-07T06:27:13.000Z</time>
      </trkpt>
      <trkpt lat="42.51699" lon="2.03378">
        <ele>1910</ele>
        <time>2018-07-07T06:27:15.000Z</time>
      </trkpt>
      <trkpt lat="42.517" lon="2.03375">
        <ele>1910</ele>
        <time>2018-07-07T06:27:16.000Z</time>
      </trkpt>
      <trkpt lat="42.51701" lon="2.03373">
        <ele>1910</ele>
        <time>2018-07-07T06:27:17.000Z</time>
      </trkpt>
      <trkpt lat="42.51702" lon="2.03371">
        <ele>1911</ele>
        <time>2018-07-07T06:27:18.000Z</time>
      </trkpt>
      <trkpt lat="42.51703" lon="2.03368">
        <ele>1911</ele>
        <time>2018-07-07T06:27:19.000Z</time>
      </trkpt>
      <trkpt lat="42.51704" lon="2.03365">
        <ele>1911</ele>
        <time>2018-07-07T06:27:20.000Z</time>
      </trkpt>
      <trkpt lat="42.51706" lon="2.03363">
        <ele>1911</ele>
        <time>2018-07-07T06:27:21.000Z</time>
      </trkpt>
      <trkpt lat="42.51707" lon="2.0336">
        <ele>1911</ele>
        <time>2018-07-07T06:27:22.000Z</time>
      </trkpt>
      <trkpt lat="42.51709" lon="2.03358">
        <ele>1911</ele>
        <time>2018-07-07T06:27:23.000Z</time>
      </trkpt>
      <trkpt lat="42.5171" lon="2.03355">
        <ele>1911</ele>
        <time>2018-07-07T06:27:24.000Z</time>
      </trkpt>
      <trkpt lat="42.51712" lon="2.03353">
        <ele>1912</ele>
        <time>2018-07-07T06:27:25.000Z</time>
      </trkpt>
      <trkpt lat="42.51714" lon="2.03351">
        <ele>1912</ele>
        <time>2018-07-07T06:27:26.000Z</time>
      </trkpt>
      <trkpt lat="42.51715" lon="2.0335">
        <ele>1912</ele>
        <time>2018-07-07T06:27:27.000Z</time>
      </trkpt>
      <trkpt lat="42.51717" lon="2.03348">
        <ele>1912</ele>
        <time>2018-07-07T06:27:28.000Z</time>
      </trkpt>
      <trkpt lat="42.5172" lon="2.03346">
        <ele>1913</ele>
        <time>2018-07-07T06:27:30.000Z</time>
      </trkpt>
      <trkpt lat="42.51722" lon="2.03344">
        <ele>1913</ele>
        <time>2018-07-07T06:27:31.000Z</time>
      </trkpt>
      <trkpt lat="42.51724" lon="2.03343">
        <ele>1914</ele>
        <time>2018-07-07T06:27:32.000Z</time>
      </trkpt>
      <trkpt lat="42.51726" lon="2.03342">
        <ele>1914</ele>
        <time>2018-07-07T06:27:33.000Z</time>
      </trkpt>
      <trkpt lat="42.51728" lon="2.0334">
        <ele>1914</ele>
        <time>2018-07-07T06:27:34.000Z</time>
      </trkpt>
      <trkpt lat="42.5173" lon="2.03339">
        <ele>1915</ele>
        <time>2018-07-07T06:27:35.000Z</time>
      </trkpt>
      <trkpt lat="42.51732" lon="2.03338">
        <ele>1915</ele>
        <time>2018-07-07T06:27:36.000Z</time>
      </trkpt>
      <trkpt lat="42.51734" lon="2.03337">
        <ele>1916</ele>
        <time>2018-07-07T06:27:37.000Z</time>
      </trkpt>
      <trkpt lat="42.51736" lon="2.03336">
        <ele>1916</ele>
        <time>2018-07-07T06:27:38.000Z</time>
      </trkpt>
      <trkpt lat="42.51738" lon="2.03335">
        <ele>1916</ele>
        <time>2018-07-07T06:27:39.000Z</time>
      </trkpt>
      <trkpt lat="42.5174" lon="2.03334">
        <ele>1917</ele>
        <time>2018-07-07T06:27:40.000Z</time>
      </trkpt>
      <trkpt lat="42.51741" lon="2.03333">
        <ele>1918</ele>
        <time>2018-07-07T06:27:41.000Z</time>
      </trkpt>
      <trkpt lat="42.51743" lon="2.03332">
        <ele>1918</ele>
        <time>2018-07-07T06:27:42.000Z</time>
      </trkpt>
      <trkpt lat="42.51745" lon="2.03331">
        <ele>1918</ele>
        <time>2018-07-07T06:27:43.000Z</time>
      </trkpt>
      <trkpt lat="42.51747" lon="2.0333">
        <ele>1919</ele>
        <time>2018-07-07T06:27:44.000Z</time>
      </trkpt>
      <trkpt lat="42.51749" lon="2.03329">
        <ele>1919</ele>
        <time>2018-07-07T06:27:45.000Z</time>
      </trkpt>
      <trkpt lat="42.51751" lon="2.03326">
        <ele>1921</ele>
        <time>2018-07-07T06:27:47.000Z</time>
      </trkpt>
      <trkpt lat="42.51753" lon="2.03323">
        <ele>1922</ele>
        <time>2018-07-07T06:27:49.000Z</time>
      </trkpt>
      <trkpt lat="42.51755" lon="2.03321">
        <ele>1922</ele>
        <time>2018-07-07T06:27:50.000Z</time>
      </trkpt>
      <trkpt lat="42.51756" lon="2.03319">
        <ele>1923</ele>
        <time>2018-07-07T06:27:51.000Z</time>
      </trkpt>
      <trkpt lat="42.51757" lon="2.03316">
        <ele>1923</ele>
        <time>2018-07-07T06:27:52.000Z</time>
      </trkpt>
      <trkpt lat="42.51758" lon="2.03313">
        <ele>1923</ele>
        <time>2018-07-07T06:27:53.000Z</time>
      </trkpt>
      <trkpt lat="42.51759" lon="2.0331">
        <ele>1923</ele>
        <time>2018-07-07T06:27:54.000Z</time>
      </trkpt>
      <trkpt lat="42.51761" lon="2.03308">
        <ele>1923</ele>
        <time>2018-07-07T06:27:55.000Z</time>
      </trkpt>
      <trkpt lat="42.51762" lon="2.03306">
        <ele>1924</ele>
        <time>2018-07-07T06:27:56.000Z</time>
      </trkpt>
      <trkpt lat="42.51764" lon="2.03304">
        <ele>1924</ele>
        <time>2018-07-07T06:27:57.000Z</time>
      </trkpt>
      <trkpt lat="42.51767" lon="2.03302">
        <ele>1924</ele>
        <time>2018-07-07T06:27:58.000Z</time>
      </trkpt>
      <trkpt lat="42.5177" lon="2.03302">
        <ele>1924</ele>
        <time>2018-07-07T06:27:59.000Z</time>
      </trkpt>
      <trkpt lat="42.51772" lon="2.03301">
        <ele>1924</ele>
        <time>2018-07-07T06:28:00.000Z</time>
      </trkpt>
      <trkpt lat="42.51774" lon="2.03301">
        <ele>1924</ele>
        <time>2018-07-07T06:28:01.000Z</time>
      </trkpt>
      <trkpt lat="42.51776" lon="2.03301">
        <ele>1925</ele>
        <time>2018-07-07T06:28:02.000Z</time>
      </trkpt>
      <trkpt lat="42.51779" lon="2.03301">
        <ele>1925</ele>
        <time>2018-07-07T06:28:03.000Z</time>
      </trkpt>
      <trkpt lat="42.51781" lon="2.03301">
        <ele>1925</ele>
        <time>2018-07-07T06:28:04.000Z</time>
      </trkpt>
      <trkpt lat="42.51783" lon="2.03301">
        <ele>1925</ele>
        <time>2018-07-07T06:28:05.000Z</time>
      </trkpt>
      <trkpt lat="42.51785" lon="2.03301">
        <ele>1925</ele>
        <time>2018-07-07T06:28:06.000Z</time>
      </trkpt>
      <trkpt lat="42.51787" lon="2.03301">
        <ele>1925</ele>
        <time>2018-07-07T06:28:07.000Z</time>
      </trkpt>
      <trkpt lat="42.51789" lon="2.03301">
        <ele>1925</ele>
        <time>2018-07-07T06:28:08.000Z</time>
      </trkpt>
      <trkpt lat="42.51792" lon="2.03302">
        <ele>1925</ele>
        <time>2018-07-07T06:28:10.000Z</time>
      </trkpt>
      <trkpt lat="42.51795" lon="2.03303">
        <ele>1926</ele>
        <time>2018-07-07T06:28:12.000Z</time>
      </trkpt>
      <trkpt lat="42.51797" lon="2.03304">
        <ele>1926</ele>
        <time>2018-07-07T06:28:14.000Z</time>
      </trkpt>
      <trkpt lat="42.51799" lon="2.03305">
        <ele>1926</ele>
        <time>2018-07-07T06:28:16.000Z</time>
      </trkpt>
      <trkpt lat="42.51802" lon="2.03306">
        <ele>1926</ele>
        <time>2018-07-07T06:28:18.000Z</time>
      </trkpt>
      <trkpt lat="42.51805" lon="2.03307">
        <ele>1926</ele>
        <time>2018-07-07T06:28:20.000Z</time>
      </trkpt>
      <trkpt lat="42.51807" lon="2.03307">
        <ele>1927</ele>
        <time>2018-07-07T06:28:22.000Z</time>
      </trkpt>
      <trkpt lat="42.51809" lon="2.03307">
        <ele>1927</ele>
        <time>2018-07-07T06:28:24.000Z</time>
      </trkpt>
      <trkpt lat="42.51812" lon="2.03308">
        <ele>1927</ele>
        <time>2018-07-07T06:28:26.000Z</time>
      </trkpt>
      <trkpt lat="42.51815" lon="2.0331">
        <ele>1927</ele>
        <time>2018-07-07T06:28:28.000Z</time>
      </trkpt>
      <trkpt lat="42.51818" lon="2.03311">
        <ele>1927</ele>
        <time>2018-07-07T06:28:30.000Z</time>
      </trkpt>
      <trkpt lat="42.51821" lon="2.03313">
        <ele>1928</ele>
        <time>2018-07-07T06:28:32.000Z</time>
      </trkpt>
      <trkpt lat="42.51824" lon="2.03315">
        <ele>1928</ele>
        <time>2018-07-07T06:28:34.000Z</time>
      </trkpt>
      <trkpt lat="42.51826" lon="2.03316">
        <ele>1928</ele>
        <time>2018-07-07T06:28:35.000Z</time>
      </trkpt>
      <trkpt lat="42.51829" lon="2.03317">
        <ele>1928</ele>
        <time>2018-07-07T06:28:37.000Z</time>
      </trkpt>
      <trkpt lat="42.51831" lon="2.03318">
        <ele>1929</ele>
        <time>2018-07-07T06:28:39.000Z</time>
      </trkpt>
      <trkpt lat="42.51834" lon="2.03319">
        <ele>1933</ele>
        <time>2018-07-07T06:28:41.000Z</time>
      </trkpt>
      <trkpt lat="42.51837" lon="2.0332">
        <ele>1933</ele>
        <time>2018-07-07T06:28:43.000Z</time>
      </trkpt>
      <trkpt lat="42.5184" lon="2.03321">
        <ele>1933</ele>
        <time>2018-07-07T06:28:44.000Z</time>
      </trkpt>
      <trkpt lat="42.51842" lon="2.03322">
        <ele>1933</ele>
        <time>2018-07-07T06:28:45.000Z</time>
      </trkpt>
      <trkpt lat="42.51844" lon="2.03323">
        <ele>1933</ele>
        <time>2018-07-07T06:28:46.000Z</time>
      </trkpt>
      <trkpt lat="42.51846" lon="2.03325">
        <ele>1933</ele>
        <time>2018-07-07T06:28:47.000Z</time>
      </trkpt>
      <trkpt lat="42.51847" lon="2.03327">
        <ele>1933</ele>
        <time>2018-07-07T06:28:48.000Z</time>
      </trkpt>
      <trkpt lat="42.5185" lon="2.0333">
        <ele>1933</ele>
        <time>2018-07-07T06:28:50.000Z</time>
      </trkpt>
      <trkpt lat="42.51851" lon="2.03333">
        <ele>1934</ele>
        <time>2018-07-07T06:28:52.000Z</time>
      </trkpt>
      <trkpt lat="42.51854" lon="2.03335">
        <ele>1937</ele>
        <time>2018-07-07T06:28:54.000Z</time>
      </trkpt>
      <trkpt lat="42.51857" lon="2.03333">
        <ele>1937</ele>
        <time>2018-07-07T06:28:56.000Z</time>
      </trkpt>
      <trkpt lat="42.51859" lon="2.03331">
        <ele>1934</ele>
        <time>2018-07-07T06:28:58.000Z</time>
      </trkpt>
      <trkpt lat="42.51861" lon="2.03329">
        <ele>1935</ele>
        <time>2018-07-07T06:28:59.000Z</time>
      </trkpt>
      <trkpt lat="42.51862" lon="2.03328">
        <ele>1935</ele>
        <time>2018-07-07T06:29:00.000Z</time>
      </trkpt>
      <trkpt lat="42.51864" lon="2.03326">
        <ele>1935</ele>
        <time>2018-07-07T06:29:01.000Z</time>
      </trkpt>
      <trkpt lat="42.51865" lon="2.03324">
        <ele>1935</ele>
        <time>2018-07-07T06:29:02.000Z</time>
      </trkpt>
      <trkpt lat="42.51867" lon="2.03322">
        <ele>1935</ele>
        <time>2018-07-07T06:29:03.000Z</time>
      </trkpt>
      <trkpt lat="42.51868" lon="2.03321">
        <ele>1935</ele>
        <time>2018-07-07T06:29:04.000Z</time>
      </trkpt>
      <trkpt lat="42.5187" lon="2.03319">
        <ele>1935</ele>
        <time>2018-07-07T06:29:05.000Z</time>
      </trkpt>
      <trkpt lat="42.51871" lon="2.03317">
        <ele>1936</ele>
        <time>2018-07-07T06:29:06.000Z</time>
      </trkpt>
      <trkpt lat="42.51873" lon="2.03316">
        <ele>1936</ele>
        <time>2018-07-07T06:29:07.000Z</time>
      </trkpt>
      <trkpt lat="42.51874" lon="2.03314">
        <ele>1936</ele>
        <time>2018-07-07T06:29:08.000Z</time>
      </trkpt>
      <trkpt lat="42.51876" lon="2.03312">
        <ele>1936</ele>
        <time>2018-07-07T06:29:09.000Z</time>
      </trkpt>
      <trkpt lat="42.51878" lon="2.03311">
        <ele>1936</ele>
        <time>2018-07-07T06:29:10.000Z</time>
      </trkpt>
      <trkpt lat="42.5188" lon="2.0331">
        <ele>1936</ele>
        <time>2018-07-07T06:29:11.000Z</time>
      </trkpt>
      <trkpt lat="42.51882" lon="2.03309">
        <ele>1936</ele>
        <time>2018-07-07T06:29:12.000Z</time>
      </trkpt>
      <trkpt lat="42.51884" lon="2.03308">
        <ele>1936</ele>
        <time>2018-07-07T06:29:13.000Z</time>
      </trkpt>
      <trkpt lat="42.51886" lon="2.03308">
        <ele>1937</ele>
        <time>2018-07-07T06:29:14.000Z</time>
      </trkpt>
      <trkpt lat="42.51888" lon="2.03307">
        <ele>1937</ele>
        <time>2018-07-07T06:29:15.000Z</time>
      </trkpt>
      <trkpt lat="42.5189" lon="2.03306">
        <ele>1937</ele>
        <time>2018-07-07T06:29:16.000Z</time>
      </trkpt>
      <trkpt lat="42.51893" lon="2.03305">
        <ele>1937</ele>
        <time>2018-07-07T06:29:18.000Z</time>
      </trkpt>
      <trkpt lat="42.51896" lon="2.03305">
        <ele>1937</ele>
        <time>2018-07-07T06:29:20.000Z</time>
      </trkpt>
      <trkpt lat="42.51898" lon="2.03304">
        <ele>1937</ele>
        <time>2018-07-07T06:29:21.000Z</time>
      </trkpt>
      <trkpt lat="42.51902" lon="2.03304">
        <ele>1938</ele>
        <time>2018-07-07T06:29:23.000Z</time>
      </trkpt>
      <trkpt lat="42.51904" lon="2.03305">
        <ele>1938</ele>
        <time>2018-07-07T06:29:24.000Z</time>
      </trkpt>
      <trkpt lat="42.51906" lon="2.03306">
        <ele>1938</ele>
        <time>2018-07-07T06:29:25.000Z</time>
      </trkpt>
      <trkpt lat="42.51908" lon="2.03307">
        <ele>1938</ele>
        <time>2018-07-07T06:29:26.000Z</time>
      </trkpt>
      <trkpt lat="42.51911" lon="2.03308">
        <ele>1938</ele>
        <time>2018-07-07T06:29:28.000Z</time>
      </trkpt>
      <trkpt lat="42.51913" lon="2.03309">
        <ele>1938</ele>
        <time>2018-07-07T06:29:29.000Z</time>
      </trkpt>
      <trkpt lat="42.51915" lon="2.03309">
        <ele>1939</ele>
        <time>2018-07-07T06:29:30.000Z</time>
      </trkpt>
      <trkpt lat="42.51917" lon="2.0331">
        <ele>1942</ele>
        <time>2018-07-07T06:29:31.000Z</time>
      </trkpt>
      <trkpt lat="42.51919" lon="2.0331">
        <ele>1942</ele>
        <time>2018-07-07T06:29:32.000Z</time>
      </trkpt>
      <trkpt lat="42.51921" lon="2.03311">
        <ele>1942</ele>
        <time>2018-07-07T06:29:33.000Z</time>
      </trkpt>
      <trkpt lat="42.51923" lon="2.03311">
        <ele>1942</ele>
        <time>2018-07-07T06:29:34.000Z</time>
      </trkpt>
      <trkpt lat="42.51925" lon="2.03312">
        <ele>1942</ele>
        <time>2018-07-07T06:29:35.000Z</time>
      </trkpt>
      <trkpt lat="42.51926" lon="2.03313">
        <ele>1942</ele>
        <time>2018-07-07T06:29:36.000Z</time>
      </trkpt>
      <trkpt lat="42.51928" lon="2.03313">
        <ele>1942</ele>
        <time>2018-07-07T06:29:37.000Z</time>
      </trkpt>
      <trkpt lat="42.5193" lon="2.03313">
        <ele>1942</ele>
        <time>2018-07-07T06:29:38.000Z</time>
      </trkpt>
      <trkpt lat="42.51932" lon="2.03314">
        <ele>1942</ele>
        <time>2018-07-07T06:29:39.000Z</time>
      </trkpt>
      <trkpt lat="42.51935" lon="2.03315">
        <ele>1942</ele>
        <time>2018-07-07T06:29:40.000Z</time>
      </trkpt>
      <trkpt lat="42.51937" lon="2.03316">
        <ele>1942</ele>
        <time>2018-07-07T06:29:41.000Z</time>
      </trkpt>
      <trkpt lat="42.51939" lon="2.03316">
        <ele>1942</ele>
        <time>2018-07-07T06:29:42.000Z</time>
      </trkpt>
      <trkpt lat="42.51943" lon="2.03317">
        <ele>1942</ele>
        <time>2018-07-07T06:29:44.000Z</time>
      </trkpt>
      <trkpt lat="42.51944" lon="2.03317">
        <ele>1942</ele>
        <time>2018-07-07T06:29:45.000Z</time>
      </trkpt>
      <trkpt lat="42.51946" lon="2.03318">
        <ele>1942</ele>
        <time>2018-07-07T06:29:46.000Z</time>
      </trkpt>
      <trkpt lat="42.51948" lon="2.03318">
        <ele>1942</ele>
        <time>2018-07-07T06:29:47.000Z</time>
      </trkpt>
      <trkpt lat="42.5195" lon="2.03319">
        <ele>1943</ele>
        <time>2018-07-07T06:29:48.000Z</time>
      </trkpt>
      <trkpt lat="42.51952" lon="2.03319">
        <ele>1943</ele>
        <time>2018-07-07T06:29:49.000Z</time>
      </trkpt>
      <trkpt lat="42.51954" lon="2.0332">
        <ele>1943</ele>
        <time>2018-07-07T06:29:50.000Z</time>
      </trkpt>
      <trkpt lat="42.51956" lon="2.0332">
        <ele>1943</ele>
        <time>2018-07-07T06:29:51.000Z</time>
      </trkpt>
      <trkpt lat="42.51958" lon="2.03321">
        <ele>1943</ele>
        <time>2018-07-07T06:29:52.000Z</time>
      </trkpt>
      <trkpt lat="42.5196" lon="2.03321">
        <ele>1943</ele>
        <time>2018-07-07T06:29:53.000Z</time>
      </trkpt>
      <trkpt lat="42.51963" lon="2.03322">
        <ele>1943</ele>
        <time>2018-07-07T06:29:54.000Z</time>
      </trkpt>
      <trkpt lat="42.51965" lon="2.03323">
        <ele>1943</ele>
        <time>2018-07-07T06:29:55.000Z</time>
      </trkpt>
      <trkpt lat="42.51967" lon="2.03324">
        <ele>1943</ele>
        <time>2018-07-07T06:29:56.000Z</time>
      </trkpt>
      <trkpt lat="42.51969" lon="2.03324">
        <ele>1943</ele>
        <time>2018-07-07T06:29:57.000Z</time>
      </trkpt>
      <trkpt lat="42.51971" lon="2.03325">
        <ele>1943</ele>
        <time>2018-07-07T06:29:58.000Z</time>
      </trkpt>
      <trkpt lat="42.51973" lon="2.03325">
        <ele>1943</ele>
        <time>2018-07-07T06:29:59.000Z</time>
      </trkpt>
      <trkpt lat="42.51975" lon="2.03325">
        <ele>1943</ele>
        <time>2018-07-07T06:30:00.000Z</time>
      </trkpt>
      <trkpt lat="42.51977" lon="2.03325">
        <ele>1943</ele>
        <time>2018-07-07T06:30:01.000Z</time>
      </trkpt>
      <trkpt lat="42.51979" lon="2.03324">
        <ele>1943</ele>
        <time>2018-07-07T06:30:02.000Z</time>
      </trkpt>
      <trkpt lat="42.51981" lon="2.03323">
        <ele>1943</ele>
        <time>2018-07-07T06:30:03.000Z</time>
      </trkpt>
      <trkpt lat="42.51983" lon="2.03322">
        <ele>1943</ele>
        <time>2018-07-07T06:30:04.000Z</time>
      </trkpt>
      <trkpt lat="42.51986" lon="2.03322">
        <ele>1943</ele>
        <time>2018-07-07T06:30:05.000Z</time>
      </trkpt>
      <trkpt lat="42.51988" lon="2.03321">
        <ele>1943</ele>
        <time>2018-07-07T06:30:06.000Z</time>
      </trkpt>
      <trkpt lat="42.5199" lon="2.03319">
        <ele>1943</ele>
        <time>2018-07-07T06:30:07.000Z</time>
      </trkpt>
      <trkpt lat="42.51992" lon="2.03318">
        <ele>1943</ele>
        <time>2018-07-07T06:30:08.000Z</time>
      </trkpt>
      <trkpt lat="42.51994" lon="2.03317">
        <ele>1943</ele>
        <time>2018-07-07T06:30:09.000Z</time>
      </trkpt>
      <trkpt lat="42.51996" lon="2.03315">
        <ele>1943</ele>
        <time>2018-07-07T06:30:10.000Z</time>
      </trkpt>
      <trkpt lat="42.51997" lon="2.03314">
        <ele>1943</ele>
        <time>2018-07-07T06:30:11.000Z</time>
      </trkpt>
      <trkpt lat="42.51999" lon="2.03312">
        <ele>1943</ele>
        <time>2018-07-07T06:30:12.000Z</time>
      </trkpt>
      <trkpt lat="42.52001" lon="2.03311">
        <ele>1945</ele>
        <time>2018-07-07T06:30:13.000Z</time>
      </trkpt>
      <trkpt lat="42.52003" lon="2.03309">
        <ele>1945</ele>
        <time>2018-07-07T06:30:14.000Z</time>
      </trkpt>
      <trkpt lat="42.52006" lon="2.03308">
        <ele>1945</ele>
        <time>2018-07-07T06:30:15.000Z</time>
      </trkpt>
      <trkpt lat="42.52008" lon="2.03306">
        <ele>1945</ele>
        <time>2018-07-07T06:30:16.000Z</time>
      </trkpt>
      <trkpt lat="42.5201" lon="2.03305">
        <ele>1945</ele>
        <time>2018-07-07T06:30:17.000Z</time>
      </trkpt>
      <trkpt lat="42.52012" lon="2.03303">
        <ele>1945</ele>
        <time>2018-07-07T06:30:18.000Z</time>
      </trkpt>
      <trkpt lat="42.52014" lon="2.03301">
        <ele>1945</ele>
        <time>2018-07-07T06:30:19.000Z</time>
      </trkpt>
      <trkpt lat="42.52016" lon="2.033">
        <ele>1945</ele>
        <time>2018-07-07T06:30:20.000Z</time>
      </trkpt>
      <trkpt lat="42.52018" lon="2.03299">
        <ele>1945</ele>
        <time>2018-07-07T06:30:21.000Z</time>
      </trkpt>
      <trkpt lat="42.52019" lon="2.03297">
        <ele>1945</ele>
        <time>2018-07-07T06:30:22.000Z</time>
      </trkpt>
      <trkpt lat="42.52021" lon="2.03295">
        <ele>1946</ele>
        <time>2018-07-07T06:30:23.000Z</time>
      </trkpt>
      <trkpt lat="42.52023" lon="2.03294">
        <ele>1946</ele>
        <time>2018-07-07T06:30:24.000Z</time>
      </trkpt>
      <trkpt lat="42.52025" lon="2.03293">
        <ele>1946</ele>
        <time>2018-07-07T06:30:25.000Z</time>
      </trkpt>
      <trkpt lat="42.52027" lon="2.03291">
        <ele>1946</ele>
        <time>2018-07-07T06:30:26.000Z</time>
      </trkpt>
      <trkpt lat="42.52029" lon="2.0329">
        <ele>1946</ele>
        <time>2018-07-07T06:30:27.000Z</time>
      </trkpt>
      <trkpt lat="42.52031" lon="2.03288">
        <ele>1946</ele>
        <time>2018-07-07T06:30:28.000Z</time>
      </trkpt>
      <trkpt lat="42.52033" lon="2.03287">
        <ele>1946</ele>
        <time>2018-07-07T06:30:29.000Z</time>
      </trkpt>
      <trkpt lat="42.52035" lon="2.03286">
        <ele>1946</ele>
        <time>2018-07-07T06:30:30.000Z</time>
      </trkpt>
      <trkpt lat="42.52037" lon="2.03285">
        <ele>1946</ele>
        <time>2018-07-07T06:30:31.000Z</time>
      </trkpt>
      <trkpt lat="42.52039" lon="2.03284">
        <ele>1946</ele>
        <time>2018-07-07T06:30:32.000Z</time>
      </trkpt>
      <trkpt lat="42.52041" lon="2.03282">
        <ele>1946</ele>
        <time>2018-07-07T06:30:33.000Z</time>
      </trkpt>
      <trkpt lat="42.52043" lon="2.03281">
        <ele>1946</ele>
        <time>2018-07-07T06:30:34.000Z</time>
      </trkpt>
      <trkpt lat="42.52044" lon="2.0328">
        <ele>1946</ele>
        <time>2018-07-07T06:30:35.000Z</time>
      </trkpt>
      <trkpt lat="42.52046" lon="2.03278">
        <ele>1946</ele>
        <time>2018-07-07T06:30:36.000Z</time>
      </trkpt>
      <trkpt lat="42.52047" lon="2.03277">
        <ele>1946</ele>
        <time>2018-07-07T06:30:37.000Z</time>
      </trkpt>
      <trkpt lat="42.52049" lon="2.03275">
        <ele>1947</ele>
        <time>2018-07-07T06:30:38.000Z</time>
      </trkpt>
      <trkpt lat="42.5205" lon="2.03273">
        <ele>1947</ele>
        <time>2018-07-07T06:30:39.000Z</time>
      </trkpt>
      <trkpt lat="42.52051" lon="2.03271">
        <ele>1947</ele>
        <time>2018-07-07T06:30:40.000Z</time>
      </trkpt>
      <trkpt lat="42.52052" lon="2.03268">
        <ele>1947</ele>
        <time>2018-07-07T06:30:41.000Z</time>
      </trkpt>
      <trkpt lat="42.52052" lon="2.03266">
        <ele>1947</ele>
        <time>2018-07-07T06:30:42.000Z</time>
      </trkpt>
      <trkpt lat="42.52052" lon="2.03262">
        <ele>1947</ele>
        <time>2018-07-07T06:30:43.000Z</time>
      </trkpt>
      <trkpt lat="42.52052" lon="2.03259">
        <ele>1947</ele>
        <time>2018-07-07T06:30:44.000Z</time>
      </trkpt>
      <trkpt lat="42.52051" lon="2.03256">
        <ele>1947</ele>
        <time>2018-07-07T06:30:45.000Z</time>
      </trkpt>
      <trkpt lat="42.52051" lon="2.03252">
        <ele>1947</ele>
        <time>2018-07-07T06:30:46.000Z</time>
      </trkpt>
      <trkpt lat="42.52051" lon="2.03249">
        <ele>1950</ele>
        <time>2018-07-07T06:30:47.000Z</time>
      </trkpt>
      <trkpt lat="42.52051" lon="2.03246">
        <ele>1950</ele>
        <time>2018-07-07T06:30:48.000Z</time>
      </trkpt>
      <trkpt lat="42.52051" lon="2.03243">
        <ele>1950</ele>
        <time>2018-07-07T06:30:49.000Z</time>
      </trkpt>
      <trkpt lat="42.52052" lon="2.0324">
        <ele>1950</ele>
        <time>2018-07-07T06:30:50.000Z</time>
      </trkpt>
      <trkpt lat="42.52052" lon="2.03238">
        <ele>1950</ele>
        <time>2018-07-07T06:30:51.000Z</time>
      </trkpt>
      <trkpt lat="42.52053" lon="2.03235">
        <ele>1950</ele>
        <time>2018-07-07T06:30:52.000Z</time>
      </trkpt>
      <trkpt lat="42.52053" lon="2.03232">
        <ele>1950</ele>
        <time>2018-07-07T06:30:53.000Z</time>
      </trkpt>
      <trkpt lat="42.52054" lon="2.0323">
        <ele>1950</ele>
        <time>2018-07-07T06:30:54.000Z</time>
      </trkpt>
      <trkpt lat="42.52055" lon="2.03227">
        <ele>1951</ele>
        <time>2018-07-07T06:30:55.000Z</time>
      </trkpt>
      <trkpt lat="42.52055" lon="2.03225">
        <ele>1951</ele>
        <time>2018-07-07T06:30:56.000Z</time>
      </trkpt>
      <trkpt lat="42.52057" lon="2.0322">
        <ele>1951</ele>
        <time>2018-07-07T06:30:58.000Z</time>
      </trkpt>
      <trkpt lat="42.52057" lon="2.03218">
        <ele>1951</ele>
        <time>2018-07-07T06:30:59.000Z</time>
      </trkpt>
      <trkpt lat="42.52058" lon="2.03214">
        <ele>1951</ele>
        <time>2018-07-07T06:31:01.000Z</time>
      </trkpt>
      <trkpt lat="42.5206" lon="2.0321">
        <ele>1951</ele>
        <time>2018-07-07T06:31:03.000Z</time>
      </trkpt>
      <trkpt lat="42.52062" lon="2.03207">
        <ele>1952</ele>
        <time>2018-07-07T06:31:05.000Z</time>
      </trkpt>
      <trkpt lat="42.52064" lon="2.03204">
        <ele>1952</ele>
        <time>2018-07-07T06:31:07.000Z</time>
      </trkpt>
      <trkpt lat="42.52066" lon="2.03201">
        <ele>1952</ele>
        <time>2018-07-07T06:31:09.000Z</time>
      </trkpt>
      <trkpt lat="42.52067" lon="2.03199">
        <ele>1952</ele>
        <time>2018-07-07T06:31:11.000Z</time>
      </trkpt>
      <trkpt lat="42.52069" lon="2.03198">
        <ele>1953</ele>
        <time>2018-07-07T06:31:13.000Z</time>
      </trkpt>
      <trkpt lat="42.52071" lon="2.03196">
        <ele>1953</ele>
        <time>2018-07-07T06:31:16.000Z</time>
      </trkpt>
      <trkpt lat="42.52073" lon="2.03195">
        <ele>1953</ele>
        <time>2018-07-07T06:31:18.000Z</time>
      </trkpt>
      <trkpt lat="42.52075" lon="2.03193">
        <ele>1953</ele>
        <time>2018-07-07T06:31:20.000Z</time>
      </trkpt>
      <trkpt lat="42.52077" lon="2.03192">
        <ele>1954</ele>
        <time>2018-07-07T06:31:21.000Z</time>
      </trkpt>
      <trkpt lat="42.5208" lon="2.03191">
        <ele>1954</ele>
        <time>2018-07-07T06:31:23.000Z</time>
      </trkpt>
      <trkpt lat="42.52083" lon="2.03189">
        <ele>1954</ele>
        <time>2018-07-07T06:31:25.000Z</time>
      </trkpt>
      <trkpt lat="42.52086" lon="2.03188">
        <ele>1959</ele>
        <time>2018-07-07T06:31:27.000Z</time>
      </trkpt>
      <trkpt lat="42.52088" lon="2.03186">
        <ele>1959</ele>
        <time>2018-07-07T06:31:29.000Z</time>
      </trkpt>
      <trkpt lat="42.5209" lon="2.03183">
        <ele>1959</ele>
        <time>2018-07-07T06:31:31.000Z</time>
      </trkpt>
      <trkpt lat="42.52092" lon="2.03181">
        <ele>1959</ele>
        <time>2018-07-07T06:31:33.000Z</time>
      </trkpt>
      <trkpt lat="42.52094" lon="2.03178">
        <ele>1959</ele>
        <time>2018-07-07T06:31:35.000Z</time>
      </trkpt>
      <trkpt lat="42.52095" lon="2.03174">
        <ele>1959</ele>
        <time>2018-07-07T06:31:37.000Z</time>
      </trkpt>
      <trkpt lat="42.52096" lon="2.03171">
        <ele>1959</ele>
        <time>2018-07-07T06:31:39.000Z</time>
      </trkpt>
      <trkpt lat="42.52098" lon="2.03168">
        <ele>1959</ele>
        <time>2018-07-07T06:31:41.000Z</time>
      </trkpt>
      <trkpt lat="42.52099" lon="2.03166">
        <ele>1962</ele>
        <time>2018-07-07T06:31:42.000Z</time>
      </trkpt>
      <trkpt lat="42.521" lon="2.03162">
        <ele>1962</ele>
        <time>2018-07-07T06:31:44.000Z</time>
      </trkpt>
      <trkpt lat="42.52101" lon="2.03159">
        <ele>1963</ele>
        <time>2018-07-07T06:31:46.000Z</time>
      </trkpt>
      <trkpt lat="42.52104" lon="2.03157">
        <ele>1963</ele>
        <time>2018-07-07T06:31:48.000Z</time>
      </trkpt>
      <trkpt lat="42.52105" lon="2.03154">
        <ele>1963</ele>
        <time>2018-07-07T06:31:50.000Z</time>
      </trkpt>
      <trkpt lat="42.52107" lon="2.03151">
        <ele>1963</ele>
        <time>2018-07-07T06:31:52.000Z</time>
      </trkpt>
      <trkpt lat="42.52109" lon="2.03149">
        <ele>1964</ele>
        <time>2018-07-07T06:31:54.000Z</time>
      </trkpt>
      <trkpt lat="42.52111" lon="2.03146">
        <ele>1964</ele>
        <time>2018-07-07T06:31:56.000Z</time>
      </trkpt>
      <trkpt lat="42.52114" lon="2.03144">
        <ele>1964</ele>
        <time>2018-07-07T06:31:58.000Z</time>
      </trkpt>
      <trkpt lat="42.52116" lon="2.03142">
        <ele>1964</ele>
        <time>2018-07-07T06:32:00.000Z</time>
      </trkpt>
      <trkpt lat="42.52118" lon="2.0314">
        <ele>1965</ele>
        <time>2018-07-07T06:32:02.000Z</time>
      </trkpt>
      <trkpt lat="42.5212" lon="2.03138">
        <ele>1965</ele>
        <time>2018-07-07T06:32:04.000Z</time>
      </trkpt>
      <trkpt lat="42.52123" lon="2.03136">
        <ele>1965</ele>
        <time>2018-07-07T06:32:06.000Z</time>
      </trkpt>
      <trkpt lat="42.52125" lon="2.03134">
        <ele>1965</ele>
        <time>2018-07-07T06:32:08.000Z</time>
      </trkpt>
      <trkpt lat="42.52127" lon="2.03131">
        <ele>1966</ele>
        <time>2018-07-07T06:32:10.000Z</time>
      </trkpt>
      <trkpt lat="42.5213" lon="2.03129">
        <ele>1966</ele>
        <time>2018-07-07T06:32:12.000Z</time>
      </trkpt>
      <trkpt lat="42.52132" lon="2.03127">
        <ele>1966</ele>
        <time>2018-07-07T06:32:14.000Z</time>
      </trkpt>
      <trkpt lat="42.52133" lon="2.03124">
        <ele>1966</ele>
        <time>2018-07-07T06:32:16.000Z</time>
      </trkpt>
      <trkpt lat="42.52136" lon="2.03121">
        <ele>1966</ele>
        <time>2018-07-07T06:32:18.000Z</time>
      </trkpt>
      <trkpt lat="42.52137" lon="2.03118">
        <ele>1967</ele>
        <time>2018-07-07T06:32:20.000Z</time>
      </trkpt>
      <trkpt lat="42.5214" lon="2.03115">
        <ele>1967</ele>
        <time>2018-07-07T06:32:22.000Z</time>
      </trkpt>
      <trkpt lat="42.52142" lon="2.03112">
        <ele>1967</ele>
        <time>2018-07-07T06:32:24.000Z</time>
      </trkpt>
      <trkpt lat="42.52143" lon="2.03109">
        <ele>1967</ele>
        <time>2018-07-07T06:32:26.000Z</time>
      </trkpt>
      <trkpt lat="42.52145" lon="2.03105">
        <ele>1968</ele>
        <time>2018-07-07T06:32:28.000Z</time>
      </trkpt>
      <trkpt lat="42.52146" lon="2.03101">
        <ele>1968</ele>
        <time>2018-07-07T06:32:30.000Z</time>
      </trkpt>
      <trkpt lat="42.52146" lon="2.03097">
        <ele>1968</ele>
        <time>2018-07-07T06:32:32.000Z</time>
      </trkpt>
      <trkpt lat="42.52147" lon="2.03093">
        <ele>1969</ele>
        <time>2018-07-07T06:32:34.000Z</time>
      </trkpt>
      <trkpt lat="42.52147" lon="2.03089">
        <ele>1969</ele>
        <time>2018-07-07T06:32:36.000Z</time>
      </trkpt>
      <trkpt lat="42.52148" lon="2.03084">
        <ele>1969</ele>
        <time>2018-07-07T06:32:38.000Z</time>
      </trkpt>
      <trkpt lat="42.52148" lon="2.03081">
        <ele>1971</ele>
        <time>2018-07-07T06:32:40.000Z</time>
      </trkpt>
      <trkpt lat="42.52148" lon="2.03077">
        <ele>1971</ele>
        <time>2018-07-07T06:32:42.000Z</time>
      </trkpt>
      <trkpt lat="42.52148" lon="2.03073">
        <ele>1971</ele>
        <time>2018-07-07T06:32:44.000Z</time>
      </trkpt>
      <trkpt lat="42.52148" lon="2.0307">
        <ele>1970</ele>
        <time>2018-07-07T06:32:45.000Z</time>
      </trkpt>
      <trkpt lat="42.52147" lon="2.03067">
        <ele>1970</ele>
        <time>2018-07-07T06:32:46.000Z</time>
      </trkpt>
      <trkpt lat="42.52146" lon="2.03064">
        <ele>1970</ele>
        <time>2018-07-07T06:32:47.000Z</time>
      </trkpt>
      <trkpt lat="42.52146" lon="2.03061">
        <ele>1970</ele>
        <time>2018-07-07T06:32:48.000Z</time>
      </trkpt>
      <trkpt lat="42.52145" lon="2.03058">
        <ele>1970</ele>
        <time>2018-07-07T06:32:49.000Z</time>
      </trkpt>
      <trkpt lat="42.52144" lon="2.03055">
        <ele>1970</ele>
        <time>2018-07-07T06:32:50.000Z</time>
      </trkpt>
      <trkpt lat="42.52143" lon="2.03051">
        <ele>1970</ele>
        <time>2018-07-07T06:32:51.000Z</time>
      </trkpt>
      <trkpt lat="42.52142" lon="2.03048">
        <ele>1970</ele>
        <time>2018-07-07T06:32:52.000Z</time>
      </trkpt>
      <trkpt lat="42.52142" lon="2.03045">
        <ele>1970</ele>
        <time>2018-07-07T06:32:53.000Z</time>
      </trkpt>
      <trkpt lat="42.52141" lon="2.03042">
        <ele>1970</ele>
        <time>2018-07-07T06:32:54.000Z</time>
      </trkpt>
      <trkpt lat="42.52141" lon="2.03038">
        <ele>1970</ele>
        <time>2018-07-07T06:32:55.000Z</time>
      </trkpt>
      <trkpt lat="42.52141" lon="2.03035">
        <ele>1970</ele>
        <time>2018-07-07T06:32:56.000Z</time>
      </trkpt>
      <trkpt lat="42.52141" lon="2.03031">
        <ele>1970</ele>
        <time>2018-07-07T06:32:57.000Z</time>
      </trkpt>
      <trkpt lat="42.52141" lon="2.03028">
        <ele>1970</ele>
        <time>2018-07-07T06:32:58.000Z</time>
      </trkpt>
      <trkpt lat="42.5214" lon="2.03024">
        <ele>1970</ele>
        <time>2018-07-07T06:32:59.000Z</time>
      </trkpt>
      <trkpt lat="42.5214" lon="2.03021">
        <ele>1970</ele>
        <time>2018-07-07T06:33:00.000Z</time>
      </trkpt>
      <trkpt lat="42.52139" lon="2.03018">
        <ele>1970</ele>
        <time>2018-07-07T06:33:01.000Z</time>
      </trkpt>
      <trkpt lat="42.52139" lon="2.03014">
        <ele>1971</ele>
        <time>2018-07-07T06:33:02.000Z</time>
      </trkpt>
      <trkpt lat="42.52138" lon="2.03011">
        <ele>1971</ele>
        <time>2018-07-07T06:33:03.000Z</time>
      </trkpt>
      <trkpt lat="42.52137" lon="2.03007">
        <ele>1971</ele>
        <time>2018-07-07T06:33:04.000Z</time>
      </trkpt>
      <trkpt lat="42.52137" lon="2.03004">
        <ele>1971</ele>
        <time>2018-07-07T06:33:05.000Z</time>
      </trkpt>
      <trkpt lat="42.52136" lon="2.03001">
        <ele>1971</ele>
        <time>2018-07-07T06:33:06.000Z</time>
      </trkpt>
      <trkpt lat="42.52136" lon="2.02998">
        <ele>1973</ele>
        <time>2018-07-07T06:33:07.000Z</time>
      </trkpt>
      <trkpt lat="42.52135" lon="2.02994">
        <ele>1973</ele>
        <time>2018-07-07T06:33:08.000Z</time>
      </trkpt>
      <trkpt lat="42.52134" lon="2.02991">
        <ele>1973</ele>
        <time>2018-07-07T06:33:09.000Z</time>
      </trkpt>
      <trkpt lat="42.52133" lon="2.02989">
        <ele>1973</ele>
        <time>2018-07-07T06:33:10.000Z</time>
      </trkpt>
      <trkpt lat="42.52131" lon="2.02986">
        <ele>1973</ele>
        <time>2018-07-07T06:33:11.000Z</time>
      </trkpt>
      <trkpt lat="42.5213" lon="2.02983">
        <ele>1973</ele>
        <time>2018-07-07T06:33:12.000Z</time>
      </trkpt>
      <trkpt lat="42.52129" lon="2.0298">
        <ele>1973</ele>
        <time>2018-07-07T06:33:13.000Z</time>
      </trkpt>
      <trkpt lat="42.52128" lon="2.02977">
        <ele>1973</ele>
        <time>2018-07-07T06:33:14.000Z</time>
      </trkpt>
      <trkpt lat="42.52127" lon="2.02973">
        <ele>1973</ele>
        <time>2018-07-07T06:33:15.000Z</time>
      </trkpt>
      <trkpt lat="42.52126" lon="2.02971">
        <ele>1973</ele>
        <time>2018-07-07T06:33:16.000Z</time>
      </trkpt>
      <trkpt lat="42.52125" lon="2.02968">
        <ele>1973</ele>
        <time>2018-07-07T06:33:17.000Z</time>
      </trkpt>
      <trkpt lat="42.52124" lon="2.02965">
        <ele>1973</ele>
        <time>2018-07-07T06:33:18.000Z</time>
      </trkpt>
      <trkpt lat="42.52123" lon="2.02962">
        <ele>1973</ele>
        <time>2018-07-07T06:33:19.000Z</time>
      </trkpt>
      <trkpt lat="42.52122" lon="2.02959">
        <ele>1973</ele>
        <time>2018-07-07T06:33:20.000Z</time>
      </trkpt>
      <trkpt lat="42.52122" lon="2.02956">
        <ele>1973</ele>
        <time>2018-07-07T06:33:21.000Z</time>
      </trkpt>
      <trkpt lat="42.52121" lon="2.02953">
        <ele>1973</ele>
        <time>2018-07-07T06:33:22.000Z</time>
      </trkpt>
      <trkpt lat="42.5212" lon="2.0295">
        <ele>1973</ele>
        <time>2018-07-07T06:33:23.000Z</time>
      </trkpt>
      <trkpt lat="42.5212" lon="2.02947">
        <ele>1973</ele>
        <time>2018-07-07T06:33:24.000Z</time>
      </trkpt>
      <trkpt lat="42.52119" lon="2.02945">
        <ele>1973</ele>
        <time>2018-07-07T06:33:25.000Z</time>
      </trkpt>
      <trkpt lat="42.52118" lon="2.02942">
        <ele>1973</ele>
        <time>2018-07-07T06:33:26.000Z</time>
      </trkpt>
      <trkpt lat="42.52117" lon="2.0294">
        <ele>1973</ele>
        <time>2018-07-07T06:33:27.000Z</time>
      </trkpt>
      <trkpt lat="42.52117" lon="2.02937">
        <ele>1973</ele>
        <time>2018-07-07T06:33:28.000Z</time>
      </trkpt>
      <trkpt lat="42.52116" lon="2.02934">
        <ele>1973</ele>
        <time>2018-07-07T06:33:29.000Z</time>
      </trkpt>
      <trkpt lat="42.52116" lon="2.02932">
        <ele>1973</ele>
        <time>2018-07-07T06:33:30.000Z</time>
      </trkpt>
      <trkpt lat="42.52115" lon="2.02929">
        <ele>1973</ele>
        <time>2018-07-07T06:33:31.000Z</time>
      </trkpt>
      <trkpt lat="42.52115" lon="2.02926">
        <ele>1973</ele>
        <time>2018-07-07T06:33:32.000Z</time>
      </trkpt>
      <trkpt lat="42.52114" lon="2.02923">
        <ele>1973</ele>
        <time>2018-07-07T06:33:33.000Z</time>
      </trkpt>
      <trkpt lat="42.52113" lon="2.02921">
        <ele>1973</ele>
        <time>2018-07-07T06:33:34.000Z</time>
      </trkpt>
      <trkpt lat="42.52113" lon="2.02919">
        <ele>1973</ele>
        <time>2018-07-07T06:33:35.000Z</time>
      </trkpt>
      <trkpt lat="42.52111" lon="2.02916">
        <ele>1977</ele>
        <time>2018-07-07T06:33:36.000Z</time>
      </trkpt>
      <trkpt lat="42.5211" lon="2.02914">
        <ele>1977</ele>
        <time>2018-07-07T06:33:37.000Z</time>
      </trkpt>
      <trkpt lat="42.52109" lon="2.02912">
        <ele>1977</ele>
        <time>2018-07-07T06:33:38.000Z</time>
      </trkpt>
      <trkpt lat="42.52109" lon="2.02909">
        <ele>1977</ele>
        <time>2018-07-07T06:33:39.000Z</time>
      </trkpt>
      <trkpt lat="42.52108" lon="2.02907">
        <ele>1977</ele>
        <time>2018-07-07T06:33:40.000Z</time>
      </trkpt>
      <trkpt lat="42.52107" lon="2.02904">
        <ele>1977</ele>
        <time>2018-07-07T06:33:41.000Z</time>
      </trkpt>
      <trkpt lat="42.52107" lon="2.02902">
        <ele>1977</ele>
        <time>2018-07-07T06:33:42.000Z</time>
      </trkpt>
      <trkpt lat="42.52106" lon="2.02899">
        <ele>1977</ele>
        <time>2018-07-07T06:33:43.000Z</time>
      </trkpt>
      <trkpt lat="42.52106" lon="2.02896">
        <ele>1977</ele>
        <time>2018-07-07T06:33:44.000Z</time>
      </trkpt>
      <trkpt lat="42.52106" lon="2.02894">
        <ele>1978</ele>
        <time>2018-07-07T06:33:45.000Z</time>
      </trkpt>
      <trkpt lat="42.52106" lon="2.02891">
        <ele>1978</ele>
        <time>2018-07-07T06:33:46.000Z</time>
      </trkpt>
      <trkpt lat="42.52106" lon="2.02888">
        <ele>1978</ele>
        <time>2018-07-07T06:33:47.000Z</time>
      </trkpt>
      <trkpt lat="42.52106" lon="2.02886">
        <ele>1978</ele>
        <time>2018-07-07T06:33:48.000Z</time>
      </trkpt>
      <trkpt lat="42.52105" lon="2.02883">
        <ele>1978</ele>
        <time>2018-07-07T06:33:49.000Z</time>
      </trkpt>
      <trkpt lat="42.52105" lon="2.02881">
        <ele>1978</ele>
        <time>2018-07-07T06:33:50.000Z</time>
      </trkpt>
      <trkpt lat="42.52105" lon="2.02878">
        <ele>1978</ele>
        <time>2018-07-07T06:33:51.000Z</time>
      </trkpt>
      <trkpt lat="42.52104" lon="2.02875">
        <ele>1979</ele>
        <time>2018-07-07T06:33:52.000Z</time>
      </trkpt>
      <trkpt lat="42.52104" lon="2.02872">
        <ele>1979</ele>
        <time>2018-07-07T06:33:53.000Z</time>
      </trkpt>
      <trkpt lat="42.52104" lon="2.02869">
        <ele>1979</ele>
        <time>2018-07-07T06:33:54.000Z</time>
      </trkpt>
      <trkpt lat="42.52104" lon="2.02866">
        <ele>1979</ele>
        <time>2018-07-07T06:33:55.000Z</time>
      </trkpt>
      <trkpt lat="42.52103" lon="2.02863">
        <ele>1979</ele>
        <time>2018-07-07T06:33:56.000Z</time>
      </trkpt>
      <trkpt lat="42.52103" lon="2.02861">
        <ele>1979</ele>
        <time>2018-07-07T06:33:57.000Z</time>
      </trkpt>
      <trkpt lat="42.52103" lon="2.02858">
        <ele>1979</ele>
        <time>2018-07-07T06:33:58.000Z</time>
      </trkpt>
      <trkpt lat="42.52103" lon="2.02856">
        <ele>1979</ele>
        <time>2018-07-07T06:33:59.000Z</time>
      </trkpt>
      <trkpt lat="42.52103" lon="2.02853">
        <ele>1979</ele>
        <time>2018-07-07T06:34:00.000Z</time>
      </trkpt>
      <trkpt lat="42.52103" lon="2.0285">
        <ele>1979</ele>
        <time>2018-07-07T06:34:01.000Z</time>
      </trkpt>
      <trkpt lat="42.52103" lon="2.02848">
        <ele>1979</ele>
        <time>2018-07-07T06:34:02.000Z</time>
      </trkpt>
      <trkpt lat="42.52102" lon="2.02845">
        <ele>1979</ele>
        <time>2018-07-07T06:34:03.000Z</time>
      </trkpt>
      <trkpt lat="42.52102" lon="2.02842">
        <ele>1979</ele>
        <time>2018-07-07T06:34:04.000Z</time>
      </trkpt>
      <trkpt lat="42.52102" lon="2.02839">
        <ele>1979</ele>
        <time>2018-07-07T06:34:05.000Z</time>
      </trkpt>
      <trkpt lat="42.52101" lon="2.02836">
        <ele>1979</ele>
        <time>2018-07-07T06:34:06.000Z</time>
      </trkpt>
      <trkpt lat="42.52101" lon="2.02833">
        <ele>1979</ele>
        <time>2018-07-07T06:34:07.000Z</time>
      </trkpt>
      <trkpt lat="42.52099" lon="2.0283">
        <ele>1980</ele>
        <time>2018-07-07T06:34:09.000Z</time>
      </trkpt>
      <trkpt lat="42.52098" lon="2.02827">
        <ele>1980</ele>
        <time>2018-07-07T06:34:11.000Z</time>
      </trkpt>
      <trkpt lat="42.52097" lon="2.02823">
        <ele>1981</ele>
        <time>2018-07-07T06:34:13.000Z</time>
      </trkpt>
      <trkpt lat="42.52098" lon="2.02818">
        <ele>1981</ele>
        <time>2018-07-07T06:34:15.000Z</time>
      </trkpt>
      <trkpt lat="42.52099" lon="2.02813">
        <ele>1982</ele>
        <time>2018-07-07T06:34:17.000Z</time>
      </trkpt>
      <trkpt lat="42.521" lon="2.02811">
        <ele>1982</ele>
        <time>2018-07-07T06:34:18.000Z</time>
      </trkpt>
      <trkpt lat="42.521" lon="2.02808">
        <ele>1982</ele>
        <time>2018-07-07T06:34:19.000Z</time>
      </trkpt>
      <trkpt lat="42.521" lon="2.02805">
        <ele>1982</ele>
        <time>2018-07-07T06:34:20.000Z</time>
      </trkpt>
      <trkpt lat="42.52101" lon="2.02802">
        <ele>1983</ele>
        <time>2018-07-07T06:34:21.000Z</time>
      </trkpt>
      <trkpt lat="42.52101" lon="2.02799">
        <ele>1983</ele>
        <time>2018-07-07T06:34:22.000Z</time>
      </trkpt>
      <trkpt lat="42.52101" lon="2.02797">
        <ele>1983</ele>
        <time>2018-07-07T06:34:23.000Z</time>
      </trkpt>
      <trkpt lat="42.52102" lon="2.02793">
        <ele>1983</ele>
        <time>2018-07-07T06:34:25.000Z</time>
      </trkpt>
      <trkpt lat="42.52103" lon="2.02789">
        <ele>1983</ele>
        <time>2018-07-07T06:34:27.000Z</time>
      </trkpt>
      <trkpt lat="42.52104" lon="2.02786">
        <ele>1983</ele>
        <time>2018-07-07T06:34:29.000Z</time>
      </trkpt>
      <trkpt lat="42.52104" lon="2.02783">
        <ele>1983</ele>
        <time>2018-07-07T06:34:31.000Z</time>
      </trkpt>
      <trkpt lat="42.52105" lon="2.0278">
        <ele>1983</ele>
        <time>2018-07-07T06:34:33.000Z</time>
      </trkpt>
      <trkpt lat="42.52106" lon="2.02777">
        <ele>1983</ele>
        <time>2018-07-07T06:34:35.000Z</time>
      </trkpt>
      <trkpt lat="42.52106" lon="2.02773">
        <ele>1983</ele>
        <time>2018-07-07T06:34:37.000Z</time>
      </trkpt>
      <trkpt lat="42.52106" lon="2.0277">
        <ele>1983</ele>
        <time>2018-07-07T06:34:39.000Z</time>
      </trkpt>
      <trkpt lat="42.52108" lon="2.02767">
        <ele>1983</ele>
        <time>2018-07-07T06:34:41.000Z</time>
      </trkpt>
      <trkpt lat="42.52109" lon="2.02765">
        <ele>1983</ele>
        <time>2018-07-07T06:34:43.000Z</time>
      </trkpt>
      <trkpt lat="42.5211" lon="2.02762">
        <ele>1983</ele>
        <time>2018-07-07T06:34:45.000Z</time>
      </trkpt>
      <trkpt lat="42.52111" lon="2.02759">
        <ele>1983</ele>
        <time>2018-07-07T06:34:47.000Z</time>
      </trkpt>
      <trkpt lat="42.52113" lon="2.02756">
        <ele>1983</ele>
        <time>2018-07-07T06:34:49.000Z</time>
      </trkpt>
      <trkpt lat="42.52114" lon="2.02754">
        <ele>1984</ele>
        <time>2018-07-07T06:34:51.000Z</time>
      </trkpt>
      <trkpt lat="42.52116" lon="2.02752">
        <ele>1984</ele>
        <time>2018-07-07T06:34:53.000Z</time>
      </trkpt>
      <trkpt lat="42.52117" lon="2.02749">
        <ele>1986</ele>
        <time>2018-07-07T06:34:55.000Z</time>
      </trkpt>
      <trkpt lat="42.52119" lon="2.02747">
        <ele>1986</ele>
        <time>2018-07-07T06:34:57.000Z</time>
      </trkpt>
      <trkpt lat="42.5212" lon="2.02744">
        <ele>1987</ele>
        <time>2018-07-07T06:34:59.000Z</time>
      </trkpt>
      <trkpt lat="42.52122" lon="2.02741">
        <ele>1987</ele>
        <time>2018-07-07T06:35:01.000Z</time>
      </trkpt>
      <trkpt lat="42.52123" lon="2.02737">
        <ele>1987</ele>
        <time>2018-07-07T06:35:03.000Z</time>
      </trkpt>
      <trkpt lat="42.52124" lon="2.02734">
        <ele>1988</ele>
        <time>2018-07-07T06:35:05.000Z</time>
      </trkpt>
      <trkpt lat="42.52126" lon="2.02732">
        <ele>1988</ele>
        <time>2018-07-07T06:35:07.000Z</time>
      </trkpt>
      <trkpt lat="42.52126" lon="2.02729">
        <ele>1988</ele>
        <time>2018-07-07T06:35:09.000Z</time>
      </trkpt>
      <trkpt lat="42.52127" lon="2.02726">
        <ele>1988</ele>
        <time>2018-07-07T06:35:11.000Z</time>
      </trkpt>
      <trkpt lat="42.52127" lon="2.02723">
        <ele>1988</ele>
        <time>2018-07-07T06:35:13.000Z</time>
      </trkpt>
      <trkpt lat="42.52127" lon="2.02719">
        <ele>1988</ele>
        <time>2018-07-07T06:35:15.000Z</time>
      </trkpt>
      <trkpt lat="42.52126" lon="2.02716">
        <ele>1988</ele>
        <time>2018-07-07T06:35:16.000Z</time>
      </trkpt>
      <trkpt lat="42.52126" lon="2.02713">
        <ele>1988</ele>
        <time>2018-07-07T06:35:17.000Z</time>
      </trkpt>
      <trkpt lat="42.52128" lon="2.0271">
        <ele>1989</ele>
        <time>2018-07-07T06:35:19.000Z</time>
      </trkpt>
      <trkpt lat="42.52129" lon="2.02707">
        <ele>1989</ele>
        <time>2018-07-07T06:35:21.000Z</time>
      </trkpt>
      <trkpt lat="42.52131" lon="2.02704">
        <ele>1989</ele>
        <time>2018-07-07T06:35:23.000Z</time>
      </trkpt>
      <trkpt lat="42.52133" lon="2.02701">
        <ele>1989</ele>
        <time>2018-07-07T06:35:25.000Z</time>
      </trkpt>
      <trkpt lat="42.52134" lon="2.02699">
        <ele>1989</ele>
        <time>2018-07-07T06:35:27.000Z</time>
      </trkpt>
      <trkpt lat="42.52136" lon="2.02696">
        <ele>1990</ele>
        <time>2018-07-07T06:35:29.000Z</time>
      </trkpt>
      <trkpt lat="42.52137" lon="2.02694">
        <ele>1990</ele>
        <time>2018-07-07T06:35:31.000Z</time>
      </trkpt>
      <trkpt lat="42.52138" lon="2.02692">
        <ele>1990</ele>
        <time>2018-07-07T06:35:33.000Z</time>
      </trkpt>
      <trkpt lat="42.5214" lon="2.0269">
        <ele>1990</ele>
        <time>2018-07-07T06:35:35.000Z</time>
      </trkpt>
      <trkpt lat="42.52142" lon="2.02688">
        <ele>1991</ele>
        <time>2018-07-07T06:35:37.000Z</time>
      </trkpt>
      <trkpt lat="42.52144" lon="2.02686">
        <ele>1991</ele>
        <time>2018-07-07T06:35:39.000Z</time>
      </trkpt>
      <trkpt lat="42.52145" lon="2.02683">
        <ele>1991</ele>
        <time>2018-07-07T06:35:41.000Z</time>
      </trkpt>
      <trkpt lat="42.52147" lon="2.02681">
        <ele>1992</ele>
        <time>2018-07-07T06:35:43.000Z</time>
      </trkpt>
      <trkpt lat="42.52149" lon="2.02679">
        <ele>1992</ele>
        <time>2018-07-07T06:35:45.000Z</time>
      </trkpt>
      <trkpt lat="42.5215" lon="2.02677">
        <ele>1993</ele>
        <time>2018-07-07T06:35:47.000Z</time>
      </trkpt>
      <trkpt lat="42.52152" lon="2.02674">
        <ele>1993</ele>
        <time>2018-07-07T06:35:49.000Z</time>
      </trkpt>
      <trkpt lat="42.52154" lon="2.02672">
        <ele>1994</ele>
        <time>2018-07-07T06:35:51.000Z</time>
      </trkpt>
      <trkpt lat="42.52156" lon="2.02669">
        <ele>1995</ele>
        <time>2018-07-07T06:35:53.000Z</time>
      </trkpt>
      <trkpt lat="42.52158" lon="2.02667">
        <ele>1997</ele>
        <time>2018-07-07T06:35:55.000Z</time>
      </trkpt>
      <trkpt lat="42.5216" lon="2.02665">
        <ele>1997</ele>
        <time>2018-07-07T06:35:57.000Z</time>
      </trkpt>
      <trkpt lat="42.52163" lon="2.02663">
        <ele>1997</ele>
        <time>2018-07-07T06:35:59.000Z</time>
      </trkpt>
      <trkpt lat="42.52165" lon="2.02662">
        <ele>1997</ele>
        <time>2018-07-07T06:36:01.000Z</time>
      </trkpt>
      <trkpt lat="42.52168" lon="2.0266">
        <ele>2001</ele>
        <time>2018-07-07T06:36:03.000Z</time>
      </trkpt>
      <trkpt lat="42.52169" lon="2.02657">
        <ele>2002</ele>
        <time>2018-07-07T06:36:05.000Z</time>
      </trkpt>
      <trkpt lat="42.5217" lon="2.02654">
        <ele>2003</ele>
        <time>2018-07-07T06:36:07.000Z</time>
      </trkpt>
      <trkpt lat="42.52172" lon="2.02651">
        <ele>2003</ele>
        <time>2018-07-07T06:36:09.000Z</time>
      </trkpt>
      <trkpt lat="42.52174" lon="2.02649">
        <ele>2004</ele>
        <time>2018-07-07T06:36:11.000Z</time>
      </trkpt>
      <trkpt lat="42.52176" lon="2.02647">
        <ele>2005</ele>
        <time>2018-07-07T06:36:13.000Z</time>
      </trkpt>
      <trkpt lat="42.52178" lon="2.02644">
        <ele>2005</ele>
        <time>2018-07-07T06:36:15.000Z</time>
      </trkpt>
      <trkpt lat="42.52179" lon="2.02641">
        <ele>2006</ele>
        <time>2018-07-07T06:36:17.000Z</time>
      </trkpt>
      <trkpt lat="42.5218" lon="2.02638">
        <ele>2006</ele>
        <time>2018-07-07T06:36:19.000Z</time>
      </trkpt>
      <trkpt lat="42.52181" lon="2.02634">
        <ele>2007</ele>
        <time>2018-07-07T06:36:21.000Z</time>
      </trkpt>
      <trkpt lat="42.52182" lon="2.02631">
        <ele>2007</ele>
        <time>2018-07-07T06:36:23.000Z</time>
      </trkpt>
      <trkpt lat="42.52183" lon="2.02628">
        <ele>2007</ele>
        <time>2018-07-07T06:36:25.000Z</time>
      </trkpt>
      <trkpt lat="42.52184" lon="2.02624">
        <ele>2008</ele>
        <time>2018-07-07T06:36:27.000Z</time>
      </trkpt>
      <trkpt lat="42.52185" lon="2.02621">
        <ele>2008</ele>
        <time>2018-07-07T06:36:29.000Z</time>
      </trkpt>
      <trkpt lat="42.52185" lon="2.02618">
        <ele>2008</ele>
        <time>2018-07-07T06:36:31.000Z</time>
      </trkpt>
      <trkpt lat="42.52185" lon="2.02615">
        <ele>2008</ele>
        <time>2018-07-07T06:36:33.000Z</time>
      </trkpt>
      <trkpt lat="42.52186" lon="2.02611">
        <ele>2008</ele>
        <time>2018-07-07T06:36:35.000Z</time>
      </trkpt>
      <trkpt lat="42.52187" lon="2.02608">
        <ele>2008</ele>
        <time>2018-07-07T06:36:37.000Z</time>
      </trkpt>
      <trkpt lat="42.52188" lon="2.02605">
        <ele>2008</ele>
        <time>2018-07-07T06:36:39.000Z</time>
      </trkpt>
      <trkpt lat="42.52188" lon="2.02602">
        <ele>2008</ele>
        <time>2018-07-07T06:36:41.000Z</time>
      </trkpt>
      <trkpt lat="42.52189" lon="2.02598">
        <ele>2008</ele>
        <time>2018-07-07T06:36:43.000Z</time>
      </trkpt>
      <trkpt lat="42.52191" lon="2.02595">
        <ele>2009</ele>
        <time>2018-07-07T06:36:45.000Z</time>
      </trkpt>
      <trkpt lat="42.52191" lon="2.02591">
        <ele>2009</ele>
        <time>2018-07-07T06:36:47.000Z</time>
      </trkpt>
      <trkpt lat="42.52192" lon="2.02587">
        <ele>2009</ele>
        <time>2018-07-07T06:36:49.000Z</time>
      </trkpt>
      <trkpt lat="42.52193" lon="2.02584">
        <ele>2009</ele>
        <time>2018-07-07T06:36:51.000Z</time>
      </trkpt>
      <trkpt lat="42.52194" lon="2.0258">
        <ele>2011</ele>
        <time>2018-07-07T06:36:53.000Z</time>
      </trkpt>
      <trkpt lat="42.52196" lon="2.02577">
        <ele>2011</ele>
        <time>2018-07-07T06:36:55.000Z</time>
      </trkpt>
      <trkpt lat="42.52197" lon="2.02574">
        <ele>2012</ele>
        <time>2018-07-07T06:36:57.000Z</time>
      </trkpt>
      <trkpt lat="42.52198" lon="2.02571">
        <ele>2012</ele>
        <time>2018-07-07T06:36:59.000Z</time>
      </trkpt>
      <trkpt lat="42.522" lon="2.02568">
        <ele>2012</ele>
        <time>2018-07-07T06:37:01.000Z</time>
      </trkpt>
      <trkpt lat="42.52201" lon="2.02564">
        <ele>2012</ele>
        <time>2018-07-07T06:37:03.000Z</time>
      </trkpt>
      <trkpt lat="42.52203" lon="2.02561">
        <ele>2013</ele>
        <time>2018-07-07T06:37:05.000Z</time>
      </trkpt>
      <trkpt lat="42.52205" lon="2.02559">
        <ele>2013</ele>
        <time>2018-07-07T06:37:07.000Z</time>
      </trkpt>
      <trkpt lat="42.52208" lon="2.02558">
        <ele>2013</ele>
        <time>2018-07-07T06:37:09.000Z</time>
      </trkpt>
      <trkpt lat="42.5221" lon="2.02557">
        <ele>2013</ele>
        <time>2018-07-07T06:37:11.000Z</time>
      </trkpt>
      <trkpt lat="42.52213" lon="2.02556">
        <ele>2013</ele>
        <time>2018-07-07T06:37:13.000Z</time>
      </trkpt>
      <trkpt lat="42.52215" lon="2.02555">
        <ele>2013</ele>
        <time>2018-07-07T06:37:15.000Z</time>
      </trkpt>
      <trkpt lat="42.52218" lon="2.02553">
        <ele>2014</ele>
        <time>2018-07-07T06:37:17.000Z</time>
      </trkpt>
      <trkpt lat="42.5222" lon="2.02552">
        <ele>2014</ele>
        <time>2018-07-07T06:37:19.000Z</time>
      </trkpt>
      <trkpt lat="42.52223" lon="2.02551">
        <ele>2014</ele>
        <time>2018-07-07T06:37:21.000Z</time>
      </trkpt>
      <trkpt lat="42.52225" lon="2.0255">
        <ele>2014</ele>
        <time>2018-07-07T06:37:23.000Z</time>
      </trkpt>
      <trkpt lat="42.52228" lon="2.02548">
        <ele>2014</ele>
        <time>2018-07-07T06:37:25.000Z</time>
      </trkpt>
      <trkpt lat="42.52231" lon="2.02546">
        <ele>2014</ele>
        <time>2018-07-07T06:37:27.000Z</time>
      </trkpt>
      <trkpt lat="42.52234" lon="2.02545">
        <ele>2014</ele>
        <time>2018-07-07T06:37:29.000Z</time>
      </trkpt>
      <trkpt lat="42.52237" lon="2.02543">
        <ele>2014</ele>
        <time>2018-07-07T06:37:31.000Z</time>
      </trkpt>
      <trkpt lat="42.5224" lon="2.02542">
        <ele>2014</ele>
        <time>2018-07-07T06:37:33.000Z</time>
      </trkpt>
      <trkpt lat="42.52243" lon="2.02541">
        <ele>2015</ele>
        <time>2018-07-07T06:37:35.000Z</time>
      </trkpt>
      <trkpt lat="42.52245" lon="2.02539">
        <ele>2015</ele>
        <time>2018-07-07T06:37:37.000Z</time>
      </trkpt>
      <trkpt lat="42.52249" lon="2.02538">
        <ele>2015</ele>
        <time>2018-07-07T06:37:39.000Z</time>
      </trkpt>
      <trkpt lat="42.52251" lon="2.02538">
        <ele>2019</ele>
        <time>2018-07-07T06:37:40.000Z</time>
      </trkpt>
      <trkpt lat="42.52252" lon="2.02537">
        <ele>2019</ele>
        <time>2018-07-07T06:37:41.000Z</time>
      </trkpt>
      <trkpt lat="42.52255" lon="2.02536">
        <ele>2019</ele>
        <time>2018-07-07T06:37:42.000Z</time>
      </trkpt>
      <trkpt lat="42.52256" lon="2.02535">
        <ele>2019</ele>
        <time>2018-07-07T06:37:43.000Z</time>
      </trkpt>
      <trkpt lat="42.52258" lon="2.02533">
        <ele>2019</ele>
        <time>2018-07-07T06:37:44.000Z</time>
      </trkpt>
      <trkpt lat="42.5226" lon="2.02531">
        <ele>2019</ele>
        <time>2018-07-07T06:37:45.000Z</time>
      </trkpt>
      <trkpt lat="42.52262" lon="2.0253">
        <ele>2019</ele>
        <time>2018-07-07T06:37:46.000Z</time>
      </trkpt>
      <trkpt lat="42.52264" lon="2.0253">
        <ele>2019</ele>
        <time>2018-07-07T06:37:47.000Z</time>
      </trkpt>
      <trkpt lat="42.52267" lon="2.02529">
        <ele>2019</ele>
        <time>2018-07-07T06:37:48.000Z</time>
      </trkpt>
      <trkpt lat="42.52269" lon="2.02528">
        <ele>2019</ele>
        <time>2018-07-07T06:37:49.000Z</time>
      </trkpt>
      <trkpt lat="42.52271" lon="2.02527">
        <ele>2019</ele>
        <time>2018-07-07T06:37:50.000Z</time>
      </trkpt>
      <trkpt lat="42.52273" lon="2.02527">
        <ele>2019</ele>
        <time>2018-07-07T06:37:51.000Z</time>
      </trkpt>
      <trkpt lat="42.52275" lon="2.02526">
        <ele>2019</ele>
        <time>2018-07-07T06:37:52.000Z</time>
      </trkpt>
      <trkpt lat="42.52277" lon="2.02526">
        <ele>2019</ele>
        <time>2018-07-07T06:37:53.000Z</time>
      </trkpt>
      <trkpt lat="42.52279" lon="2.02526">
        <ele>2019</ele>
        <time>2018-07-07T06:37:54.000Z</time>
      </trkpt>
      <trkpt lat="42.52281" lon="2.02526">
        <ele>2019</ele>
        <time>2018-07-07T06:37:55.000Z</time>
      </trkpt>
      <trkpt lat="42.52284" lon="2.02526">
        <ele>2019</ele>
        <time>2018-07-07T06:37:57.000Z</time>
      </trkpt>
      <trkpt lat="42.52286" lon="2.02527">
        <ele>2020</ele>
        <time>2018-07-07T06:37:58.000Z</time>
      </trkpt>
      <trkpt lat="42.52288" lon="2.02528">
        <ele>2020</ele>
        <time>2018-07-07T06:37:59.000Z</time>
      </trkpt>
      <trkpt lat="42.5229" lon="2.02529">
        <ele>2020</ele>
        <time>2018-07-07T06:38:00.000Z</time>
      </trkpt>
      <trkpt lat="42.52292" lon="2.0253">
        <ele>2020</ele>
        <time>2018-07-07T06:38:01.000Z</time>
      </trkpt>
      <trkpt lat="42.52294" lon="2.02531">
        <ele>2020</ele>
        <time>2018-07-07T06:38:02.000Z</time>
      </trkpt>
      <trkpt lat="42.52297" lon="2.02533">
        <ele>2020</ele>
        <time>2018-07-07T06:38:03.000Z</time>
      </trkpt>
      <trkpt lat="42.52299" lon="2.02534">
        <ele>2020</ele>
        <time>2018-07-07T06:38:04.000Z</time>
      </trkpt>
      <trkpt lat="42.52301" lon="2.02536">
        <ele>2020</ele>
        <time>2018-07-07T06:38:05.000Z</time>
      </trkpt>
      <trkpt lat="42.52303" lon="2.02537">
        <ele>2020</ele>
        <time>2018-07-07T06:38:06.000Z</time>
      </trkpt>
      <trkpt lat="42.52305" lon="2.02538">
        <ele>2020</ele>
        <time>2018-07-07T06:38:07.000Z</time>
      </trkpt>
      <trkpt lat="42.52308" lon="2.02538">
        <ele>2020</ele>
        <time>2018-07-07T06:38:08.000Z</time>
      </trkpt>
      <trkpt lat="42.5231" lon="2.02538">
        <ele>2021</ele>
        <time>2018-07-07T06:38:09.000Z</time>
      </trkpt>
      <trkpt lat="42.52313" lon="2.02539">
        <ele>2021</ele>
        <time>2018-07-07T06:38:10.000Z</time>
      </trkpt>
      <trkpt lat="42.52315" lon="2.0254">
        <ele>2021</ele>
        <time>2018-07-07T06:38:11.000Z</time>
      </trkpt>
      <trkpt lat="42.52317" lon="2.02541">
        <ele>2021</ele>
        <time>2018-07-07T06:38:12.000Z</time>
      </trkpt>
      <trkpt lat="42.5232" lon="2.02542">
        <ele>2021</ele>
        <time>2018-07-07T06:38:13.000Z</time>
      </trkpt>
      <trkpt lat="42.52322" lon="2.02543">
        <ele>2021</ele>
        <time>2018-07-07T06:38:14.000Z</time>
      </trkpt>
      <trkpt lat="42.52324" lon="2.02544">
        <ele>2021</ele>
        <time>2018-07-07T06:38:15.000Z</time>
      </trkpt>
      <trkpt lat="42.52325" lon="2.02544">
        <ele>2021</ele>
        <time>2018-07-07T06:38:16.000Z</time>
      </trkpt>
      <trkpt lat="42.52328" lon="2.02545">
        <ele>2021</ele>
        <time>2018-07-07T06:38:17.000Z</time>
      </trkpt>
      <trkpt lat="42.5233" lon="2.02545">
        <ele>2021</ele>
        <time>2018-07-07T06:38:18.000Z</time>
      </trkpt>
      <trkpt lat="42.52332" lon="2.02545">
        <ele>2021</ele>
        <time>2018-07-07T06:38:19.000Z</time>
      </trkpt>
      <trkpt lat="42.52334" lon="2.02545">
        <ele>2025</ele>
        <time>2018-07-07T06:38:20.000Z</time>
      </trkpt>
      <trkpt lat="42.52336" lon="2.02546">
        <ele>2025</ele>
        <time>2018-07-07T06:38:21.000Z</time>
      </trkpt>
      <trkpt lat="42.52338" lon="2.02545">
        <ele>2025</ele>
        <time>2018-07-07T06:38:22.000Z</time>
      </trkpt>
      <trkpt lat="42.5234" lon="2.02545">
        <ele>2025</ele>
        <time>2018-07-07T06:38:23.000Z</time>
      </trkpt>
      <trkpt lat="42.52342" lon="2.02544">
        <ele>2025</ele>
        <time>2018-07-07T06:38:24.000Z</time>
      </trkpt>
      <trkpt lat="42.52344" lon="2.02543">
        <ele>2025</ele>
        <time>2018-07-07T06:38:25.000Z</time>
      </trkpt>
      <trkpt lat="42.52346" lon="2.02541">
        <ele>2025</ele>
        <time>2018-07-07T06:38:26.000Z</time>
      </trkpt>
      <trkpt lat="42.52347" lon="2.0254">
        <ele>2025</ele>
        <time>2018-07-07T06:38:27.000Z</time>
      </trkpt>
      <trkpt lat="42.52349" lon="2.02538">
        <ele>2025</ele>
        <time>2018-07-07T06:38:28.000Z</time>
      </trkpt>
      <trkpt lat="42.52351" lon="2.02536">
        <ele>2025</ele>
        <time>2018-07-07T06:38:29.000Z</time>
      </trkpt>
      <trkpt lat="42.52353" lon="2.02535">
        <ele>2025</ele>
        <time>2018-07-07T06:38:30.000Z</time>
      </trkpt>
      <trkpt lat="42.52354" lon="2.02533">
        <ele>2025</ele>
        <time>2018-07-07T06:38:31.000Z</time>
      </trkpt>
      <trkpt lat="42.52356" lon="2.02531">
        <ele>2025</ele>
        <time>2018-07-07T06:38:32.000Z</time>
      </trkpt>
      <trkpt lat="42.52358" lon="2.0253">
        <ele>2025</ele>
        <time>2018-07-07T06:38:33.000Z</time>
      </trkpt>
      <trkpt lat="42.5236" lon="2.02529">
        <ele>2026</ele>
        <time>2018-07-07T06:38:34.000Z</time>
      </trkpt>
      <trkpt lat="42.52362" lon="2.02527">
        <ele>2026</ele>
        <time>2018-07-07T06:38:35.000Z</time>
      </trkpt>
      <trkpt lat="42.52364" lon="2.02525">
        <ele>2026</ele>
        <time>2018-07-07T06:38:36.000Z</time>
      </trkpt>
      <trkpt lat="42.52366" lon="2.02524">
        <ele>2026</ele>
        <time>2018-07-07T06:38:37.000Z</time>
      </trkpt>
      <trkpt lat="42.52367" lon="2.02522">
        <ele>2026</ele>
        <time>2018-07-07T06:38:38.000Z</time>
      </trkpt>
      <trkpt lat="42.52369" lon="2.02521">
        <ele>2026</ele>
        <time>2018-07-07T06:38:39.000Z</time>
      </trkpt>
      <trkpt lat="42.52371" lon="2.02519">
        <ele>2026</ele>
        <time>2018-07-07T06:38:40.000Z</time>
      </trkpt>
      <trkpt lat="42.52374" lon="2.02518">
        <ele>2026</ele>
        <time>2018-07-07T06:38:41.000Z</time>
      </trkpt>
      <trkpt lat="42.52375" lon="2.02517">
        <ele>2026</ele>
        <time>2018-07-07T06:38:42.000Z</time>
      </trkpt>
      <trkpt lat="42.52377" lon="2.02515">
        <ele>2026</ele>
        <time>2018-07-07T06:38:43.000Z</time>
      </trkpt>
      <trkpt lat="42.52379" lon="2.02513">
        <ele>2026</ele>
        <time>2018-07-07T06:38:44.000Z</time>
      </trkpt>
      <trkpt lat="42.52381" lon="2.02511">
        <ele>2026</ele>
        <time>2018-07-07T06:38:45.000Z</time>
      </trkpt>
      <trkpt lat="42.52383" lon="2.02509">
        <ele>2027</ele>
        <time>2018-07-07T06:38:46.000Z</time>
      </trkpt>
      <trkpt lat="42.52385" lon="2.02507">
        <ele>2027</ele>
        <time>2018-07-07T06:38:47.000Z</time>
      </trkpt>
      <trkpt lat="42.52386" lon="2.02504">
        <ele>2027</ele>
        <time>2018-07-07T06:38:48.000Z</time>
      </trkpt>
      <trkpt lat="42.52388" lon="2.02502">
        <ele>2027</ele>
        <time>2018-07-07T06:38:49.000Z</time>
      </trkpt>
      <trkpt lat="42.5239" lon="2.02499">
        <ele>2026</ele>
        <time>2018-07-07T06:38:50.000Z</time>
      </trkpt>
      <trkpt lat="42.52391" lon="2.02496">
        <ele>2026</ele>
        <time>2018-07-07T06:38:51.000Z</time>
      </trkpt>
      <trkpt lat="42.52393" lon="2.02494">
        <ele>2026</ele>
        <time>2018-07-07T06:38:52.000Z</time>
      </trkpt>
      <trkpt lat="42.52394" lon="2.02491">
        <ele>2026</ele>
        <time>2018-07-07T06:38:53.000Z</time>
      </trkpt>
      <trkpt lat="42.52396" lon="2.02488">
        <ele>2026</ele>
        <time>2018-07-07T06:38:54.000Z</time>
      </trkpt>
      <trkpt lat="42.52397" lon="2.02485">
        <ele>2026</ele>
        <time>2018-07-07T06:38:55.000Z</time>
      </trkpt>
      <trkpt lat="42.52399" lon="2.02483">
        <ele>2026</ele>
        <time>2018-07-07T06:38:56.000Z</time>
      </trkpt>
      <trkpt lat="42.524" lon="2.0248">
        <ele>2026</ele>
        <time>2018-07-07T06:38:57.000Z</time>
      </trkpt>
      <trkpt lat="42.52402" lon="2.02478">
        <ele>2026</ele>
        <time>2018-07-07T06:38:58.000Z</time>
      </trkpt>
      <trkpt lat="42.52403" lon="2.02475">
        <ele>2026</ele>
        <time>2018-07-07T06:38:59.000Z</time>
      </trkpt>
      <trkpt lat="42.52404" lon="2.02473">
        <ele>2026</ele>
        <time>2018-07-07T06:39:00.000Z</time>
      </trkpt>
      <trkpt lat="42.52406" lon="2.0247">
        <ele>2026</ele>
        <time>2018-07-07T06:39:01.000Z</time>
      </trkpt>
      <trkpt lat="42.52407" lon="2.02467">
        <ele>2026</ele>
        <time>2018-07-07T06:39:02.000Z</time>
      </trkpt>
      <trkpt lat="42.52408" lon="2.02464">
        <ele>2026</ele>
        <time>2018-07-07T06:39:03.000Z</time>
      </trkpt>
      <trkpt lat="42.52409" lon="2.02462">
        <ele>2026</ele>
        <time>2018-07-07T06:39:04.000Z</time>
      </trkpt>
      <trkpt lat="42.52411" lon="2.02459">
        <ele>2026</ele>
        <time>2018-07-07T06:39:05.000Z</time>
      </trkpt>
      <trkpt lat="42.52413" lon="2.02457">
        <ele>2026</ele>
        <time>2018-07-07T06:39:06.000Z</time>
      </trkpt>
      <trkpt lat="42.52414" lon="2.02454">
        <ele>2026</ele>
        <time>2018-07-07T06:39:07.000Z</time>
      </trkpt>
      <trkpt lat="42.52416" lon="2.02452">
        <ele>2026</ele>
        <time>2018-07-07T06:39:08.000Z</time>
      </trkpt>
      <trkpt lat="42.52417" lon="2.02449">
        <ele>2032</ele>
        <time>2018-07-07T06:39:09.000Z</time>
      </trkpt>
      <trkpt lat="42.52418" lon="2.02446">
        <ele>2032</ele>
        <time>2018-07-07T06:39:10.000Z</time>
      </trkpt>
      <trkpt lat="42.5242" lon="2.02444">
        <ele>2032</ele>
        <time>2018-07-07T06:39:11.000Z</time>
      </trkpt>
      <trkpt lat="42.52421" lon="2.02442">
        <ele>2032</ele>
        <time>2018-07-07T06:39:12.000Z</time>
      </trkpt>
      <trkpt lat="42.52423" lon="2.02439">
        <ele>2032</ele>
        <time>2018-07-07T06:39:13.000Z</time>
      </trkpt>
      <trkpt lat="42.52424" lon="2.02438">
        <ele>2032</ele>
        <time>2018-07-07T06:39:14.000Z</time>
      </trkpt>
      <trkpt lat="42.52426" lon="2.02435">
        <ele>2032</ele>
        <time>2018-07-07T06:39:15.000Z</time>
      </trkpt>
      <trkpt lat="42.52427" lon="2.02433">
        <ele>2032</ele>
        <time>2018-07-07T06:39:16.000Z</time>
      </trkpt>
      <trkpt lat="42.52429" lon="2.02432">
        <ele>2031</ele>
        <time>2018-07-07T06:39:17.000Z</time>
      </trkpt>
      <trkpt lat="42.5243" lon="2.0243">
        <ele>2032</ele>
        <time>2018-07-07T06:39:18.000Z</time>
      </trkpt>
      <trkpt lat="42.52432" lon="2.02428">
        <ele>2032</ele>
        <time>2018-07-07T06:39:19.000Z</time>
      </trkpt>
      <trkpt lat="42.52433" lon="2.02426">
        <ele>2032</ele>
        <time>2018-07-07T06:39:20.000Z</time>
      </trkpt>
      <trkpt lat="42.52434" lon="2.02424">
        <ele>2032</ele>
        <time>2018-07-07T06:39:21.000Z</time>
      </trkpt>
      <trkpt lat="42.52436" lon="2.02422">
        <ele>2032</ele>
        <time>2018-07-07T06:39:22.000Z</time>
      </trkpt>
      <trkpt lat="42.52437" lon="2.0242">
        <ele>2032</ele>
        <time>2018-07-07T06:39:23.000Z</time>
      </trkpt>
      <trkpt lat="42.52439" lon="2.02418">
        <ele>2032</ele>
        <time>2018-07-07T06:39:24.000Z</time>
      </trkpt>
      <trkpt lat="42.5244" lon="2.02416">
        <ele>2030</ele>
        <time>2018-07-07T06:39:25.000Z</time>
      </trkpt>
      <trkpt lat="42.52441" lon="2.02414">
        <ele>2031</ele>
        <time>2018-07-07T06:39:26.000Z</time>
      </trkpt>
      <trkpt lat="42.52442" lon="2.02412">
        <ele>2031</ele>
        <time>2018-07-07T06:39:27.000Z</time>
      </trkpt>
      <trkpt lat="42.52443" lon="2.0241">
        <ele>2031</ele>
        <time>2018-07-07T06:39:28.000Z</time>
      </trkpt>
      <trkpt lat="42.52445" lon="2.02408">
        <ele>2031</ele>
        <time>2018-07-07T06:39:29.000Z</time>
      </trkpt>
      <trkpt lat="42.52447" lon="2.02406">
        <ele>2031</ele>
        <time>2018-07-07T06:39:30.000Z</time>
      </trkpt>
      <trkpt lat="42.52448" lon="2.02404">
        <ele>2031</ele>
        <time>2018-07-07T06:39:31.000Z</time>
      </trkpt>
      <trkpt lat="42.5245" lon="2.02402">
        <ele>2031</ele>
        <time>2018-07-07T06:39:32.000Z</time>
      </trkpt>
      <trkpt lat="42.52451" lon="2.024">
        <ele>2031</ele>
        <time>2018-07-07T06:39:33.000Z</time>
      </trkpt>
      <trkpt lat="42.52452" lon="2.02397">
        <ele>2031</ele>
        <time>2018-07-07T06:39:34.000Z</time>
      </trkpt>
      <trkpt lat="42.52453" lon="2.02396">
        <ele>2031</ele>
        <time>2018-07-07T06:39:35.000Z</time>
      </trkpt>
      <trkpt lat="42.52455" lon="2.02394">
        <ele>2031</ele>
        <time>2018-07-07T06:39:36.000Z</time>
      </trkpt>
      <trkpt lat="42.52457" lon="2.02392">
        <ele>2032</ele>
        <time>2018-07-07T06:39:37.000Z</time>
      </trkpt>
      <trkpt lat="42.52459" lon="2.0239">
        <ele>2032</ele>
        <time>2018-07-07T06:39:38.000Z</time>
      </trkpt>
      <trkpt lat="42.52461" lon="2.02389">
        <ele>2032</ele>
        <time>2018-07-07T06:39:39.000Z</time>
      </trkpt>
      <trkpt lat="42.52463" lon="2.02388">
        <ele>2032</ele>
        <time>2018-07-07T06:39:40.000Z</time>
      </trkpt>
      <trkpt lat="42.52465" lon="2.02386">
        <ele>2032</ele>
        <time>2018-07-07T06:39:41.000Z</time>
      </trkpt>
      <trkpt lat="42.52467" lon="2.02385">
        <ele>2032</ele>
        <time>2018-07-07T06:39:42.000Z</time>
      </trkpt>
      <trkpt lat="42.52469" lon="2.02384">
        <ele>2032</ele>
        <time>2018-07-07T06:39:43.000Z</time>
      </trkpt>
      <trkpt lat="42.52472" lon="2.02383">
        <ele>2032</ele>
        <time>2018-07-07T06:39:44.000Z</time>
      </trkpt>
      <trkpt lat="42.52474" lon="2.02383">
        <ele>2032</ele>
        <time>2018-07-07T06:39:45.000Z</time>
      </trkpt>
      <trkpt lat="42.52476" lon="2.02382">
        <ele>2032</ele>
        <time>2018-07-07T06:39:46.000Z</time>
      </trkpt>
      <trkpt lat="42.52478" lon="2.02381">
        <ele>2033</ele>
        <time>2018-07-07T06:39:47.000Z</time>
      </trkpt>
      <trkpt lat="42.5248" lon="2.02381">
        <ele>2033</ele>
        <time>2018-07-07T06:39:48.000Z</time>
      </trkpt>
      <trkpt lat="42.52483" lon="2.0238">
        <ele>2033</ele>
        <time>2018-07-07T06:39:49.000Z</time>
      </trkpt>
      <trkpt lat="42.52485" lon="2.0238">
        <ele>2033</ele>
        <time>2018-07-07T06:39:50.000Z</time>
      </trkpt>
      <trkpt lat="42.52487" lon="2.02379">
        <ele>2033</ele>
        <time>2018-07-07T06:39:51.000Z</time>
      </trkpt>
      <trkpt lat="42.5249" lon="2.02379">
        <ele>2033</ele>
        <time>2018-07-07T06:39:52.000Z</time>
      </trkpt>
      <trkpt lat="42.52492" lon="2.02378">
        <ele>2033</ele>
        <time>2018-07-07T06:39:53.000Z</time>
      </trkpt>
      <trkpt lat="42.52494" lon="2.02378">
        <ele>2033</ele>
        <time>2018-07-07T06:39:54.000Z</time>
      </trkpt>
      <trkpt lat="42.52496" lon="2.02377">
        <ele>2033</ele>
        <time>2018-07-07T06:39:55.000Z</time>
      </trkpt>
      <trkpt lat="42.52499" lon="2.02377">
        <ele>2033</ele>
        <time>2018-07-07T06:39:56.000Z</time>
      </trkpt>
      <trkpt lat="42.52501" lon="2.02377">
        <ele>2037</ele>
        <time>2018-07-07T06:39:57.000Z</time>
      </trkpt>
      <trkpt lat="42.52503" lon="2.02377">
        <ele>2037</ele>
        <time>2018-07-07T06:39:58.000Z</time>
      </trkpt>
      <trkpt lat="42.52506" lon="2.02376">
        <ele>2037</ele>
        <time>2018-07-07T06:39:59.000Z</time>
      </trkpt>
      <trkpt lat="42.52508" lon="2.02376">
        <ele>2037</ele>
        <time>2018-07-07T06:40:00.000Z</time>
      </trkpt>
      <trkpt lat="42.5251" lon="2.02374">
        <ele>2037</ele>
        <time>2018-07-07T06:40:01.000Z</time>
      </trkpt>
      <trkpt lat="42.52511" lon="2.02372">
        <ele>2037</ele>
        <time>2018-07-07T06:40:02.000Z</time>
      </trkpt>
      <trkpt lat="42.52513" lon="2.0237">
        <ele>2037</ele>
        <time>2018-07-07T06:40:03.000Z</time>
      </trkpt>
      <trkpt lat="42.52514" lon="2.02367">
        <ele>2036</ele>
        <time>2018-07-07T06:40:04.000Z</time>
      </trkpt>
      <trkpt lat="42.52515" lon="2.02365">
        <ele>2036</ele>
        <time>2018-07-07T06:40:05.000Z</time>
      </trkpt>
      <trkpt lat="42.52516" lon="2.02363">
        <ele>2036</ele>
        <time>2018-07-07T06:40:06.000Z</time>
      </trkpt>
      <trkpt lat="42.52517" lon="2.0236">
        <ele>2036</ele>
        <time>2018-07-07T06:40:07.000Z</time>
      </trkpt>
      <trkpt lat="42.52519" lon="2.02358">
        <ele>2036</ele>
        <time>2018-07-07T06:40:08.000Z</time>
      </trkpt>
      <trkpt lat="42.5252" lon="2.02355">
        <ele>2036</ele>
        <time>2018-07-07T06:40:09.000Z</time>
      </trkpt>
      <trkpt lat="42.52521" lon="2.02352">
        <ele>2036</ele>
        <time>2018-07-07T06:40:10.000Z</time>
      </trkpt>
      <trkpt lat="42.52521" lon="2.0235">
        <ele>2036</ele>
        <time>2018-07-07T06:40:11.000Z</time>
      </trkpt>
      <trkpt lat="42.52522" lon="2.02347">
        <ele>2036</ele>
        <time>2018-07-07T06:40:12.000Z</time>
      </trkpt>
      <trkpt lat="42.52522" lon="2.02343">
        <ele>2036</ele>
        <time>2018-07-07T06:40:13.000Z</time>
      </trkpt>
      <trkpt lat="42.52521" lon="2.02339">
        <ele>2035</ele>
        <time>2018-07-07T06:40:14.000Z</time>
      </trkpt>
      <trkpt lat="42.52521" lon="2.02335">
        <ele>2035</ele>
        <time>2018-07-07T06:40:15.000Z</time>
      </trkpt>
      <trkpt lat="42.52521" lon="2.02331">
        <ele>2033</ele>
        <time>2018-07-07T06:40:16.000Z</time>
      </trkpt>
      <trkpt lat="42.52521" lon="2.02327">
        <ele>2033</ele>
        <time>2018-07-07T06:40:17.000Z</time>
      </trkpt>
      <trkpt lat="42.52521" lon="2.02323">
        <ele>2033</ele>
        <time>2018-07-07T06:40:18.000Z</time>
      </trkpt>
      <trkpt lat="42.52521" lon="2.02318">
        <ele>2033</ele>
        <time>2018-07-07T06:40:19.000Z</time>
      </trkpt>
      <trkpt lat="42.52521" lon="2.02314">
        <ele>2033</ele>
        <time>2018-07-07T06:40:20.000Z</time>
      </trkpt>
      <trkpt lat="42.5252" lon="2.0231">
        <ele>2033</ele>
        <time>2018-07-07T06:40:21.000Z</time>
      </trkpt>
      <trkpt lat="42.5252" lon="2.02306">
        <ele>2033</ele>
        <time>2018-07-07T06:40:22.000Z</time>
      </trkpt>
      <trkpt lat="42.52519" lon="2.02303">
        <ele>2033</ele>
        <time>2018-07-07T06:40:23.000Z</time>
      </trkpt>
      <trkpt lat="42.52519" lon="2.02299">
        <ele>2033</ele>
        <time>2018-07-07T06:40:24.000Z</time>
      </trkpt>
      <trkpt lat="42.52518" lon="2.02295">
        <ele>2033</ele>
        <time>2018-07-07T06:40:25.000Z</time>
      </trkpt>
      <trkpt lat="42.52518" lon="2.02292">
        <ele>2033</ele>
        <time>2018-07-07T06:40:26.000Z</time>
      </trkpt>
      <trkpt lat="42.52517" lon="2.02288">
        <ele>2032</ele>
        <time>2018-07-07T06:40:27.000Z</time>
      </trkpt>
      <trkpt lat="42.52517" lon="2.02284">
        <ele>2032</ele>
        <time>2018-07-07T06:40:28.000Z</time>
      </trkpt>
      <trkpt lat="42.52516" lon="2.02281">
        <ele>2032</ele>
        <time>2018-07-07T06:40:29.000Z</time>
      </trkpt>
      <trkpt lat="42.52515" lon="2.02277">
        <ele>2032</ele>
        <time>2018-07-07T06:40:30.000Z</time>
      </trkpt>
      <trkpt lat="42.52515" lon="2.02273">
        <ele>2032</ele>
        <time>2018-07-07T06:40:31.000Z</time>
      </trkpt>
      <trkpt lat="42.52514" lon="2.0227">
        <ele>2032</ele>
        <time>2018-07-07T06:40:32.000Z</time>
      </trkpt>
      <trkpt lat="42.52513" lon="2.02266">
        <ele>2032</ele>
        <time>2018-07-07T06:40:33.000Z</time>
      </trkpt>
      <trkpt lat="42.52512" lon="2.02263">
        <ele>2032</ele>
        <time>2018-07-07T06:40:34.000Z</time>
      </trkpt>
      <trkpt lat="42.52511" lon="2.02259">
        <ele>2032</ele>
        <time>2018-07-07T06:40:35.000Z</time>
      </trkpt>
      <trkpt lat="42.5251" lon="2.02256">
        <ele>2032</ele>
        <time>2018-07-07T06:40:36.000Z</time>
      </trkpt>
      <trkpt lat="42.5251" lon="2.02253">
        <ele>2032</ele>
        <time>2018-07-07T06:40:37.000Z</time>
      </trkpt>
      <trkpt lat="42.52509" lon="2.02249">
        <ele>2032</ele>
        <time>2018-07-07T06:40:38.000Z</time>
      </trkpt>
      <trkpt lat="42.52509" lon="2.02246">
        <ele>2032</ele>
        <time>2018-07-07T06:40:39.000Z</time>
      </trkpt>
      <trkpt lat="42.52508" lon="2.02242">
        <ele>2032</ele>
        <time>2018-07-07T06:40:40.000Z</time>
      </trkpt>
      <trkpt lat="42.52508" lon="2.02239">
        <ele>2032</ele>
        <time>2018-07-07T06:40:41.000Z</time>
      </trkpt>
      <trkpt lat="42.52508" lon="2.02235">
        <ele>2032</ele>
        <time>2018-07-07T06:40:42.000Z</time>
      </trkpt>
      <trkpt lat="42.52507" lon="2.02232">
        <ele>2033</ele>
        <time>2018-07-07T06:40:43.000Z</time>
      </trkpt>
      <trkpt lat="42.52507" lon="2.02228">
        <ele>2033</ele>
        <time>2018-07-07T06:40:44.000Z</time>
      </trkpt>
      <trkpt lat="42.52507" lon="2.02225">
        <ele>2033</ele>
        <time>2018-07-07T06:40:45.000Z</time>
      </trkpt>
      <trkpt lat="42.52507" lon="2.02222">
        <ele>2033</ele>
        <time>2018-07-07T06:40:46.000Z</time>
      </trkpt>
      <trkpt lat="42.52507" lon="2.02219">
        <ele>2033</ele>
        <time>2018-07-07T06:40:47.000Z</time>
      </trkpt>
      <trkpt lat="42.52507" lon="2.02216">
        <ele>2033</ele>
        <time>2018-07-07T06:40:48.000Z</time>
      </trkpt>
      <trkpt lat="42.52507" lon="2.02212">
        <ele>2034</ele>
        <time>2018-07-07T06:40:49.000Z</time>
      </trkpt>
      <trkpt lat="42.52507" lon="2.0221">
        <ele>2034</ele>
        <time>2018-07-07T06:40:50.000Z</time>
      </trkpt>
      <trkpt lat="42.52507" lon="2.02207">
        <ele>2034</ele>
        <time>2018-07-07T06:40:51.000Z</time>
      </trkpt>
      <trkpt lat="42.52507" lon="2.02203">
        <ele>2034</ele>
        <time>2018-07-07T06:40:52.000Z</time>
      </trkpt>
      <trkpt lat="42.52507" lon="2.022">
        <ele>2034</ele>
        <time>2018-07-07T06:40:53.000Z</time>
      </trkpt>
      <trkpt lat="42.52507" lon="2.02198">
        <ele>2034</ele>
        <time>2018-07-07T06:40:54.000Z</time>
      </trkpt>
      <trkpt lat="42.52507" lon="2.02195">
        <ele>2035</ele>
        <time>2018-07-07T06:40:55.000Z</time>
      </trkpt>
      <trkpt lat="42.52508" lon="2.02192">
        <ele>2035</ele>
        <time>2018-07-07T06:40:56.000Z</time>
      </trkpt>
      <trkpt lat="42.52509" lon="2.02189">
        <ele>2035</ele>
        <time>2018-07-07T06:40:57.000Z</time>
      </trkpt>
      <trkpt lat="42.5251" lon="2.02187">
        <ele>2035</ele>
        <time>2018-07-07T06:40:58.000Z</time>
      </trkpt>
      <trkpt lat="42.52512" lon="2.02185">
        <ele>2035</ele>
        <time>2018-07-07T06:40:59.000Z</time>
      </trkpt>
      <trkpt lat="42.52514" lon="2.02183">
        <ele>2035</ele>
        <time>2018-07-07T06:41:00.000Z</time>
      </trkpt>
      <trkpt lat="42.52515" lon="2.02181">
        <ele>2035</ele>
        <time>2018-07-07T06:41:01.000Z</time>
      </trkpt>
      <trkpt lat="42.52517" lon="2.02179">
        <ele>2035</ele>
        <time>2018-07-07T06:41:02.000Z</time>
      </trkpt>
      <trkpt lat="42.52519" lon="2.02178">
        <ele>2035</ele>
        <time>2018-07-07T06:41:03.000Z</time>
      </trkpt>
      <trkpt lat="42.52521" lon="2.02176">
        <ele>2035</ele>
        <time>2018-07-07T06:41:04.000Z</time>
      </trkpt>
      <trkpt lat="42.52523" lon="2.02175">
        <ele>2035</ele>
        <time>2018-07-07T06:41:05.000Z</time>
      </trkpt>
      <trkpt lat="42.52525" lon="2.02173">
        <ele>2035</ele>
        <time>2018-07-07T06:41:06.000Z</time>
      </trkpt>
      <trkpt lat="42.52527" lon="2.02171">
        <ele>2035</ele>
        <time>2018-07-07T06:41:07.000Z</time>
      </trkpt>
      <trkpt lat="42.52529" lon="2.0217">
        <ele>2035</ele>
        <time>2018-07-07T06:41:08.000Z</time>
      </trkpt>
      <trkpt lat="42.52531" lon="2.02169">
        <ele>2035</ele>
        <time>2018-07-07T06:41:09.000Z</time>
      </trkpt>
      <trkpt lat="42.52533" lon="2.02167">
        <ele>2035</ele>
        <time>2018-07-07T06:41:10.000Z</time>
      </trkpt>
      <trkpt lat="42.52535" lon="2.02166">
        <ele>2038</ele>
        <time>2018-07-07T06:41:11.000Z</time>
      </trkpt>
      <trkpt lat="42.52537" lon="2.02165">
        <ele>2038</ele>
        <time>2018-07-07T06:41:12.000Z</time>
      </trkpt>
      <trkpt lat="42.52539" lon="2.02164">
        <ele>2038</ele>
        <time>2018-07-07T06:41:13.000Z</time>
      </trkpt>
      <trkpt lat="42.52541" lon="2.02162">
        <ele>2038</ele>
        <time>2018-07-07T06:41:14.000Z</time>
      </trkpt>
      <trkpt lat="42.52543" lon="2.02161">
        <ele>2038</ele>
        <time>2018-07-07T06:41:15.000Z</time>
      </trkpt>
      <trkpt lat="42.52545" lon="2.02159">
        <ele>2038</ele>
        <time>2018-07-07T06:41:16.000Z</time>
      </trkpt>
      <trkpt lat="42.52547" lon="2.02158">
        <ele>2038</ele>
        <time>2018-07-07T06:41:17.000Z</time>
      </trkpt>
      <trkpt lat="42.52549" lon="2.02156">
        <ele>2038</ele>
        <time>2018-07-07T06:41:18.000Z</time>
      </trkpt>
      <trkpt lat="42.52551" lon="2.02154">
        <ele>2038</ele>
        <time>2018-07-07T06:41:19.000Z</time>
      </trkpt>
      <trkpt lat="42.52552" lon="2.02152">
        <ele>2038</ele>
        <time>2018-07-07T06:41:20.000Z</time>
      </trkpt>
      <trkpt lat="42.52554" lon="2.02151">
        <ele>2038</ele>
        <time>2018-07-07T06:41:21.000Z</time>
      </trkpt>
      <trkpt lat="42.52556" lon="2.02149">
        <ele>2038</ele>
        <time>2018-07-07T06:41:22.000Z</time>
      </trkpt>
      <trkpt lat="42.52558" lon="2.02147">
        <ele>2038</ele>
        <time>2018-07-07T06:41:23.000Z</time>
      </trkpt>
      <trkpt lat="42.5256" lon="2.02145">
        <ele>2038</ele>
        <time>2018-07-07T06:41:24.000Z</time>
      </trkpt>
      <trkpt lat="42.52562" lon="2.02144">
        <ele>2038</ele>
        <time>2018-07-07T06:41:25.000Z</time>
      </trkpt>
      <trkpt lat="42.52563" lon="2.02142">
        <ele>2038</ele>
        <time>2018-07-07T06:41:26.000Z</time>
      </trkpt>
      <trkpt lat="42.52565" lon="2.0214">
        <ele>2038</ele>
        <time>2018-07-07T06:41:27.000Z</time>
      </trkpt>
      <trkpt lat="42.52567" lon="2.02138">
        <ele>2038</ele>
        <time>2018-07-07T06:41:28.000Z</time>
      </trkpt>
      <trkpt lat="42.52569" lon="2.02136">
        <ele>2038</ele>
        <time>2018-07-07T06:41:29.000Z</time>
      </trkpt>
      <trkpt lat="42.52571" lon="2.02134">
        <ele>2038</ele>
        <time>2018-07-07T06:41:30.000Z</time>
      </trkpt>
      <trkpt lat="42.52572" lon="2.02132">
        <ele>2039</ele>
        <time>2018-07-07T06:41:31.000Z</time>
      </trkpt>
      <trkpt lat="42.52574" lon="2.02131">
        <ele>2039</ele>
        <time>2018-07-07T06:41:32.000Z</time>
      </trkpt>
      <trkpt lat="42.52576" lon="2.02129">
        <ele>2039</ele>
        <time>2018-07-07T06:41:33.000Z</time>
      </trkpt>
      <trkpt lat="42.52577" lon="2.02127">
        <ele>2039</ele>
        <time>2018-07-07T06:41:34.000Z</time>
      </trkpt>
      <trkpt lat="42.52579" lon="2.02125">
        <ele>2039</ele>
        <time>2018-07-07T06:41:35.000Z</time>
      </trkpt>
      <trkpt lat="42.52581" lon="2.02124">
        <ele>2039</ele>
        <time>2018-07-07T06:41:36.000Z</time>
      </trkpt>
      <trkpt lat="42.52583" lon="2.02122">
        <ele>2039</ele>
        <time>2018-07-07T06:41:37.000Z</time>
      </trkpt>
      <trkpt lat="42.52585" lon="2.0212">
        <ele>2039</ele>
        <time>2018-07-07T06:41:38.000Z</time>
      </trkpt>
      <trkpt lat="42.52587" lon="2.02119">
        <ele>2039</ele>
        <time>2018-07-07T06:41:39.000Z</time>
      </trkpt>
      <trkpt lat="42.52589" lon="2.02117">
        <ele>2039</ele>
        <time>2018-07-07T06:41:40.000Z</time>
      </trkpt>
      <trkpt lat="42.5259" lon="2.02116">
        <ele>2039</ele>
        <time>2018-07-07T06:41:41.000Z</time>
      </trkpt>
      <trkpt lat="42.52592" lon="2.02114">
        <ele>2039</ele>
        <time>2018-07-07T06:41:42.000Z</time>
      </trkpt>
      <trkpt lat="42.52594" lon="2.02113">
        <ele>2039</ele>
        <time>2018-07-07T06:41:43.000Z</time>
      </trkpt>
      <trkpt lat="42.52596" lon="2.02112">
        <ele>2040</ele>
        <time>2018-07-07T06:41:44.000Z</time>
      </trkpt>
      <trkpt lat="42.52598" lon="2.0211">
        <ele>2040</ele>
        <time>2018-07-07T06:41:45.000Z</time>
      </trkpt>
      <trkpt lat="42.526" lon="2.02109">
        <ele>2040</ele>
        <time>2018-07-07T06:41:46.000Z</time>
      </trkpt>
      <trkpt lat="42.52602" lon="2.02107">
        <ele>2040</ele>
        <time>2018-07-07T06:41:47.000Z</time>
      </trkpt>
      <trkpt lat="42.52604" lon="2.02105">
        <ele>2040</ele>
        <time>2018-07-07T06:41:48.000Z</time>
      </trkpt>
      <trkpt lat="42.52606" lon="2.02104">
        <ele>2040</ele>
        <time>2018-07-07T06:41:49.000Z</time>
      </trkpt>
      <trkpt lat="42.52608" lon="2.02102">
        <ele>2040</ele>
        <time>2018-07-07T06:41:50.000Z</time>
      </trkpt>
      <trkpt lat="42.5261" lon="2.021">
        <ele>2040</ele>
        <time>2018-07-07T06:41:51.000Z</time>
      </trkpt>
      <trkpt lat="42.52611" lon="2.02098">
        <ele>2040</ele>
        <time>2018-07-07T06:41:52.000Z</time>
      </trkpt>
      <trkpt lat="42.52613" lon="2.02096">
        <ele>2040</ele>
        <time>2018-07-07T06:41:53.000Z</time>
      </trkpt>
      <trkpt lat="42.52615" lon="2.02094">
        <ele>2040</ele>
        <time>2018-07-07T06:41:54.000Z</time>
      </trkpt>
      <trkpt lat="42.52617" lon="2.02092">
        <ele>2040</ele>
        <time>2018-07-07T06:41:55.000Z</time>
      </trkpt>
      <trkpt lat="42.52619" lon="2.02091">
        <ele>2040</ele>
        <time>2018-07-07T06:41:56.000Z</time>
      </trkpt>
      <trkpt lat="42.5262" lon="2.02089">
        <ele>2040</ele>
        <time>2018-07-07T06:41:57.000Z</time>
      </trkpt>
      <trkpt lat="42.52622" lon="2.02087">
        <ele>2040</ele>
        <time>2018-07-07T06:41:58.000Z</time>
      </trkpt>
      <trkpt lat="42.52623" lon="2.02085">
        <ele>2040</ele>
        <time>2018-07-07T06:41:59.000Z</time>
      </trkpt>
      <trkpt lat="42.52624" lon="2.02083">
        <ele>2043</ele>
        <time>2018-07-07T06:42:00.000Z</time>
      </trkpt>
      <trkpt lat="42.52626" lon="2.02081">
        <ele>2043</ele>
        <time>2018-07-07T06:42:01.000Z</time>
      </trkpt>
      <trkpt lat="42.52627" lon="2.02079">
        <ele>2043</ele>
        <time>2018-07-07T06:42:02.000Z</time>
      </trkpt>
      <trkpt lat="42.52629" lon="2.02077">
        <ele>2043</ele>
        <time>2018-07-07T06:42:03.000Z</time>
      </trkpt>
      <trkpt lat="42.5263" lon="2.02075">
        <ele>2043</ele>
        <time>2018-07-07T06:42:04.000Z</time>
      </trkpt>
      <trkpt lat="42.52632" lon="2.02073">
        <ele>2043</ele>
        <time>2018-07-07T06:42:05.000Z</time>
      </trkpt>
      <trkpt lat="42.52633" lon="2.0207">
        <ele>2043</ele>
        <time>2018-07-07T06:42:06.000Z</time>
      </trkpt>
      <trkpt lat="42.52634" lon="2.02068">
        <ele>2043</ele>
        <time>2018-07-07T06:42:07.000Z</time>
      </trkpt>
      <trkpt lat="42.52636" lon="2.02065">
        <ele>2043</ele>
        <time>2018-07-07T06:42:08.000Z</time>
      </trkpt>
      <trkpt lat="42.52637" lon="2.02063">
        <ele>2043</ele>
        <time>2018-07-07T06:42:09.000Z</time>
      </trkpt>
      <trkpt lat="42.52639" lon="2.0206">
        <ele>2043</ele>
        <time>2018-07-07T06:42:10.000Z</time>
      </trkpt>
      <trkpt lat="42.5264" lon="2.02058">
        <ele>2043</ele>
        <time>2018-07-07T06:42:11.000Z</time>
      </trkpt>
      <trkpt lat="42.52641" lon="2.02055">
        <ele>2043</ele>
        <time>2018-07-07T06:42:12.000Z</time>
      </trkpt>
      <trkpt lat="42.52642" lon="2.02053">
        <ele>2043</ele>
        <time>2018-07-07T06:42:13.000Z</time>
      </trkpt>
      <trkpt lat="42.52644" lon="2.02051">
        <ele>2043</ele>
        <time>2018-07-07T06:42:14.000Z</time>
      </trkpt>
      <trkpt lat="42.52645" lon="2.02049">
        <ele>2043</ele>
        <time>2018-07-07T06:42:15.000Z</time>
      </trkpt>
      <trkpt lat="42.52647" lon="2.02047">
        <ele>2043</ele>
        <time>2018-07-07T06:42:16.000Z</time>
      </trkpt>
      <trkpt lat="42.52648" lon="2.02045">
        <ele>2044</ele>
        <time>2018-07-07T06:42:17.000Z</time>
      </trkpt>
      <trkpt lat="42.5265" lon="2.02043">
        <ele>2044</ele>
        <time>2018-07-07T06:42:18.000Z</time>
      </trkpt>
      <trkpt lat="42.52651" lon="2.02041">
        <ele>2044</ele>
        <time>2018-07-07T06:42:19.000Z</time>
      </trkpt>
      <trkpt lat="42.52652" lon="2.02038">
        <ele>2044</ele>
        <time>2018-07-07T06:42:20.000Z</time>
      </trkpt>
      <trkpt lat="42.52654" lon="2.02036">
        <ele>2044</ele>
        <time>2018-07-07T06:42:21.000Z</time>
      </trkpt>
      <trkpt lat="42.52656" lon="2.02035">
        <ele>2044</ele>
        <time>2018-07-07T06:42:22.000Z</time>
      </trkpt>
      <trkpt lat="42.52658" lon="2.02032">
        <ele>2044</ele>
        <time>2018-07-07T06:42:23.000Z</time>
      </trkpt>
      <trkpt lat="42.52659" lon="2.0203">
        <ele>2044</ele>
        <time>2018-07-07T06:42:24.000Z</time>
      </trkpt>
      <trkpt lat="42.52661" lon="2.02028">
        <ele>2044</ele>
        <time>2018-07-07T06:42:25.000Z</time>
      </trkpt>
      <trkpt lat="42.52663" lon="2.02026">
        <ele>2044</ele>
        <time>2018-07-07T06:42:26.000Z</time>
      </trkpt>
      <trkpt lat="42.52664" lon="2.02024">
        <ele>2044</ele>
        <time>2018-07-07T06:42:27.000Z</time>
      </trkpt>
      <trkpt lat="42.52666" lon="2.02021">
        <ele>2044</ele>
        <time>2018-07-07T06:42:28.000Z</time>
      </trkpt>
      <trkpt lat="42.52668" lon="2.0202">
        <ele>2044</ele>
        <time>2018-07-07T06:42:29.000Z</time>
      </trkpt>
      <trkpt lat="42.5267" lon="2.02018">
        <ele>2044</ele>
        <time>2018-07-07T06:42:30.000Z</time>
      </trkpt>
      <trkpt lat="42.52672" lon="2.02016">
        <ele>2044</ele>
        <time>2018-07-07T06:42:31.000Z</time>
      </trkpt>
      <trkpt lat="42.52674" lon="2.02014">
        <ele>2044</ele>
        <time>2018-07-07T06:42:32.000Z</time>
      </trkpt>
      <trkpt lat="42.52676" lon="2.02011">
        <ele>2044</ele>
        <time>2018-07-07T06:42:33.000Z</time>
      </trkpt>
      <trkpt lat="42.52678" lon="2.02009">
        <ele>2044</ele>
        <time>2018-07-07T06:42:34.000Z</time>
      </trkpt>
      <trkpt lat="42.5268" lon="2.02008">
        <ele>2044</ele>
        <time>2018-07-07T06:42:35.000Z</time>
      </trkpt>
      <trkpt lat="42.52682" lon="2.02006">
        <ele>2044</ele>
        <time>2018-07-07T06:42:36.000Z</time>
      </trkpt>
      <trkpt lat="42.52684" lon="2.02005">
        <ele>2044</ele>
        <time>2018-07-07T06:42:37.000Z</time>
      </trkpt>
      <trkpt lat="42.52686" lon="2.02004">
        <ele>2044</ele>
        <time>2018-07-07T06:42:38.000Z</time>
      </trkpt>
      <trkpt lat="42.52689" lon="2.02003">
        <ele>2044</ele>
        <time>2018-07-07T06:42:39.000Z</time>
      </trkpt>
      <trkpt lat="42.52691" lon="2.02002">
        <ele>2044</ele>
        <time>2018-07-07T06:42:40.000Z</time>
      </trkpt>
      <trkpt lat="42.52694" lon="2.02001">
        <ele>2044</ele>
        <time>2018-07-07T06:42:41.000Z</time>
      </trkpt>
      <trkpt lat="42.52696" lon="2.02001">
        <ele>2044</ele>
        <time>2018-07-07T06:42:42.000Z</time>
      </trkpt>
      <trkpt lat="42.52698" lon="2.02001">
        <ele>2044</ele>
        <time>2018-07-07T06:42:43.000Z</time>
      </trkpt>
      <trkpt lat="42.52701" lon="2.02001">
        <ele>2045</ele>
        <time>2018-07-07T06:42:44.000Z</time>
      </trkpt>
      <trkpt lat="42.52703" lon="2.02002">
        <ele>2045</ele>
        <time>2018-07-07T06:42:45.000Z</time>
      </trkpt>
      <trkpt lat="42.52706" lon="2.02003">
        <ele>2045</ele>
        <time>2018-07-07T06:42:46.000Z</time>
      </trkpt>
      <trkpt lat="42.52708" lon="2.02005">
        <ele>2045</ele>
        <time>2018-07-07T06:42:47.000Z</time>
      </trkpt>
      <trkpt lat="42.5271" lon="2.02006">
        <ele>2045</ele>
        <time>2018-07-07T06:42:48.000Z</time>
      </trkpt>
      <trkpt lat="42.52713" lon="2.02008">
        <ele>2045</ele>
        <time>2018-07-07T06:42:49.000Z</time>
      </trkpt>
      <trkpt lat="42.52715" lon="2.02009">
        <ele>2045</ele>
        <time>2018-07-07T06:42:50.000Z</time>
      </trkpt>
      <trkpt lat="42.52717" lon="2.0201">
        <ele>2045</ele>
        <time>2018-07-07T06:42:51.000Z</time>
      </trkpt>
      <trkpt lat="42.52719" lon="2.02012">
        <ele>2045</ele>
        <time>2018-07-07T06:42:52.000Z</time>
      </trkpt>
      <trkpt lat="42.52721" lon="2.02013">
        <ele>2045</ele>
        <time>2018-07-07T06:42:53.000Z</time>
      </trkpt>
      <trkpt lat="42.52723" lon="2.02015">
        <ele>2045</ele>
        <time>2018-07-07T06:42:54.000Z</time>
      </trkpt>
      <trkpt lat="42.52726" lon="2.02016">
        <ele>2045</ele>
        <time>2018-07-07T06:42:55.000Z</time>
      </trkpt>
      <trkpt lat="42.52728" lon="2.02017">
        <ele>2045</ele>
        <time>2018-07-07T06:42:56.000Z</time>
      </trkpt>
      <trkpt lat="42.52731" lon="2.02018">
        <ele>2045</ele>
        <time>2018-07-07T06:42:57.000Z</time>
      </trkpt>
      <trkpt lat="42.52733" lon="2.02018">
        <ele>2045</ele>
        <time>2018-07-07T06:42:58.000Z</time>
      </trkpt>
      <trkpt lat="42.52736" lon="2.02019">
        <ele>2045</ele>
        <time>2018-07-07T06:42:59.000Z</time>
      </trkpt>
      <trkpt lat="42.52738" lon="2.0202">
        <ele>2045</ele>
        <time>2018-07-07T06:43:00.000Z</time>
      </trkpt>
      <trkpt lat="42.5274" lon="2.02021">
        <ele>2045</ele>
        <time>2018-07-07T06:43:01.000Z</time>
      </trkpt>
      <trkpt lat="42.52742" lon="2.02022">
        <ele>2045</ele>
        <time>2018-07-07T06:43:02.000Z</time>
      </trkpt>
      <trkpt lat="42.52744" lon="2.02023">
        <ele>2045</ele>
        <time>2018-07-07T06:43:03.000Z</time>
      </trkpt>
      <trkpt lat="42.52746" lon="2.02024">
        <ele>2045</ele>
        <time>2018-07-07T06:43:04.000Z</time>
      </trkpt>
      <trkpt lat="42.52749" lon="2.02025">
        <ele>2045</ele>
        <time>2018-07-07T06:43:05.000Z</time>
      </trkpt>
      <trkpt lat="42.52751" lon="2.02026">
        <ele>2047</ele>
        <time>2018-07-07T06:43:06.000Z</time>
      </trkpt>
      <trkpt lat="42.52753" lon="2.02027">
        <ele>2047</ele>
        <time>2018-07-07T06:43:07.000Z</time>
      </trkpt>
      <trkpt lat="42.52755" lon="2.02028">
        <ele>2047</ele>
        <time>2018-07-07T06:43:08.000Z</time>
      </trkpt>
      <trkpt lat="42.52757" lon="2.02029">
        <ele>2047</ele>
        <time>2018-07-07T06:43:09.000Z</time>
      </trkpt>
      <trkpt lat="42.5276" lon="2.0203">
        <ele>2047</ele>
        <time>2018-07-07T06:43:10.000Z</time>
      </trkpt>
      <trkpt lat="42.52762" lon="2.02031">
        <ele>2047</ele>
        <time>2018-07-07T06:43:11.000Z</time>
      </trkpt>
      <trkpt lat="42.52764" lon="2.02031">
        <ele>2047</ele>
        <time>2018-07-07T06:43:12.000Z</time>
      </trkpt>
      <trkpt lat="42.52766" lon="2.02031">
        <ele>2047</ele>
        <time>2018-07-07T06:43:13.000Z</time>
      </trkpt>
      <trkpt lat="42.52768" lon="2.02031">
        <ele>2047</ele>
        <time>2018-07-07T06:43:14.000Z</time>
      </trkpt>
      <trkpt lat="42.52771" lon="2.02032">
        <ele>2047</ele>
        <time>2018-07-07T06:43:15.000Z</time>
      </trkpt>
      <trkpt lat="42.52773" lon="2.02032">
        <ele>2047</ele>
        <time>2018-07-07T06:43:16.000Z</time>
      </trkpt>
      <trkpt lat="42.52776" lon="2.02033">
        <ele>2047</ele>
        <time>2018-07-07T06:43:17.000Z</time>
      </trkpt>
      <trkpt lat="42.52778" lon="2.02034">
        <ele>2047</ele>
        <time>2018-07-07T06:43:18.000Z</time>
      </trkpt>
      <trkpt lat="42.5278" lon="2.02034">
        <ele>2047</ele>
        <time>2018-07-07T06:43:19.000Z</time>
      </trkpt>
      <trkpt lat="42.52782" lon="2.02035">
        <ele>2047</ele>
        <time>2018-07-07T06:43:20.000Z</time>
      </trkpt>
      <trkpt lat="42.52785" lon="2.02036">
        <ele>2047</ele>
        <time>2018-07-07T06:43:21.000Z</time>
      </trkpt>
      <trkpt lat="42.52787" lon="2.02037">
        <ele>2047</ele>
        <time>2018-07-07T06:43:22.000Z</time>
      </trkpt>
      <trkpt lat="42.5279" lon="2.02038">
        <ele>2047</ele>
        <time>2018-07-07T06:43:23.000Z</time>
      </trkpt>
      <trkpt lat="42.52792" lon="2.02039">
        <ele>2047</ele>
        <time>2018-07-07T06:43:24.000Z</time>
      </trkpt>
      <trkpt lat="42.52794" lon="2.0204">
        <ele>2047</ele>
        <time>2018-07-07T06:43:25.000Z</time>
      </trkpt>
      <trkpt lat="42.52797" lon="2.02041">
        <ele>2047</ele>
        <time>2018-07-07T06:43:26.000Z</time>
      </trkpt>
      <trkpt lat="42.52799" lon="2.02043">
        <ele>2047</ele>
        <time>2018-07-07T06:43:27.000Z</time>
      </trkpt>
      <trkpt lat="42.52801" lon="2.02044">
        <ele>2047</ele>
        <time>2018-07-07T06:43:28.000Z</time>
      </trkpt>
      <trkpt lat="42.52804" lon="2.02044">
        <ele>2047</ele>
        <time>2018-07-07T06:43:29.000Z</time>
      </trkpt>
      <trkpt lat="42.52806" lon="2.02045">
        <ele>2047</ele>
        <time>2018-07-07T06:43:30.000Z</time>
      </trkpt>
      <trkpt lat="42.52808" lon="2.02046">
        <ele>2047</ele>
        <time>2018-07-07T06:43:31.000Z</time>
      </trkpt>
      <trkpt lat="42.5281" lon="2.02047">
        <ele>2047</ele>
        <time>2018-07-07T06:43:32.000Z</time>
      </trkpt>
      <trkpt lat="42.52812" lon="2.02048">
        <ele>2047</ele>
        <time>2018-07-07T06:43:33.000Z</time>
      </trkpt>
      <trkpt lat="42.52815" lon="2.0205">
        <ele>2047</ele>
        <time>2018-07-07T06:43:34.000Z</time>
      </trkpt>
      <trkpt lat="42.52817" lon="2.02051">
        <ele>2047</ele>
        <time>2018-07-07T06:43:35.000Z</time>
      </trkpt>
      <trkpt lat="42.52819" lon="2.02052">
        <ele>2047</ele>
        <time>2018-07-07T06:43:36.000Z</time>
      </trkpt>
      <trkpt lat="42.52821" lon="2.02053">
        <ele>2047</ele>
        <time>2018-07-07T06:43:37.000Z</time>
      </trkpt>
      <trkpt lat="42.52823" lon="2.02053">
        <ele>2047</ele>
        <time>2018-07-07T06:43:38.000Z</time>
      </trkpt>
      <trkpt lat="42.52825" lon="2.02053">
        <ele>2047</ele>
        <time>2018-07-07T06:43:39.000Z</time>
      </trkpt>
      <trkpt lat="42.52827" lon="2.02053">
        <ele>2047</ele>
        <time>2018-07-07T06:43:40.000Z</time>
      </trkpt>
      <trkpt lat="42.5283" lon="2.02053">
        <ele>2047</ele>
        <time>2018-07-07T06:43:41.000Z</time>
      </trkpt>
      <trkpt lat="42.52832" lon="2.02052">
        <ele>2047</ele>
        <time>2018-07-07T06:43:42.000Z</time>
      </trkpt>
      <trkpt lat="42.52833" lon="2.02051">
        <ele>2047</ele>
        <time>2018-07-07T06:43:43.000Z</time>
      </trkpt>
      <trkpt lat="42.52836" lon="2.02048">
        <ele>2048</ele>
        <time>2018-07-07T06:43:45.000Z</time>
      </trkpt>
      <trkpt lat="42.52838" lon="2.02045">
        <ele>2048</ele>
        <time>2018-07-07T06:43:47.000Z</time>
      </trkpt>
      <trkpt lat="42.52839" lon="2.02043">
        <ele>2048</ele>
        <time>2018-07-07T06:43:48.000Z</time>
      </trkpt>
      <trkpt lat="42.5284" lon="2.02041">
        <ele>2048</ele>
        <time>2018-07-07T06:43:49.000Z</time>
      </trkpt>
      <trkpt lat="42.52841" lon="2.02039">
        <ele>2048</ele>
        <time>2018-07-07T06:43:50.000Z</time>
      </trkpt>
      <trkpt lat="42.52843" lon="2.02037">
        <ele>2048</ele>
        <time>2018-07-07T06:43:51.000Z</time>
      </trkpt>
      <trkpt lat="42.52844" lon="2.02035">
        <ele>2048</ele>
        <time>2018-07-07T06:43:52.000Z</time>
      </trkpt>
      <trkpt lat="42.52846" lon="2.02033">
        <ele>2048</ele>
        <time>2018-07-07T06:43:53.000Z</time>
      </trkpt>
      <trkpt lat="42.52848" lon="2.02029">
        <ele>2048</ele>
        <time>2018-07-07T06:43:55.000Z</time>
      </trkpt>
      <trkpt lat="42.52849" lon="2.02027">
        <ele>2048</ele>
        <time>2018-07-07T06:43:56.000Z</time>
      </trkpt>
      <trkpt lat="42.52851" lon="2.02025">
        <ele>2048</ele>
        <time>2018-07-07T06:43:57.000Z</time>
      </trkpt>
      <trkpt lat="42.52852" lon="2.02022">
        <ele>2048</ele>
        <time>2018-07-07T06:43:58.000Z</time>
      </trkpt>
      <trkpt lat="42.52854" lon="2.0202">
        <ele>2048</ele>
        <time>2018-07-07T06:43:59.000Z</time>
      </trkpt>
      <trkpt lat="42.52856" lon="2.02019">
        <ele>2048</ele>
        <time>2018-07-07T06:44:00.000Z</time>
      </trkpt>
      <trkpt lat="42.52858" lon="2.02017">
        <ele>2048</ele>
        <time>2018-07-07T06:44:01.000Z</time>
      </trkpt>
      <trkpt lat="42.5286" lon="2.02016">
        <ele>2048</ele>
        <time>2018-07-07T06:44:02.000Z</time>
      </trkpt>
      <trkpt lat="42.52862" lon="2.02014">
        <ele>2048</ele>
        <time>2018-07-07T06:44:03.000Z</time>
      </trkpt>
      <trkpt lat="42.52865" lon="2.02013">
        <ele>2048</ele>
        <time>2018-07-07T06:44:04.000Z</time>
      </trkpt>
      <trkpt lat="42.52867" lon="2.02012">
        <ele>2048</ele>
        <time>2018-07-07T06:44:05.000Z</time>
      </trkpt>
      <trkpt lat="42.52869" lon="2.02011">
        <ele>2048</ele>
        <time>2018-07-07T06:44:06.000Z</time>
      </trkpt>
      <trkpt lat="42.52871" lon="2.0201">
        <ele>2048</ele>
        <time>2018-07-07T06:44:07.000Z</time>
      </trkpt>
      <trkpt lat="42.52874" lon="2.02009">
        <ele>2048</ele>
        <time>2018-07-07T06:44:08.000Z</time>
      </trkpt>
      <trkpt lat="42.52876" lon="2.02008">
        <ele>2048</ele>
        <time>2018-07-07T06:44:09.000Z</time>
      </trkpt>
      <trkpt lat="42.52878" lon="2.02006">
        <ele>2048</ele>
        <time>2018-07-07T06:44:10.000Z</time>
      </trkpt>
      <trkpt lat="42.52881" lon="2.02005">
        <ele>2048</ele>
        <time>2018-07-07T06:44:11.000Z</time>
      </trkpt>
      <trkpt lat="42.52883" lon="2.02003">
        <ele>2048</ele>
        <time>2018-07-07T06:44:12.000Z</time>
      </trkpt>
      <trkpt lat="42.52885" lon="2.02002">
        <ele>2048</ele>
        <time>2018-07-07T06:44:13.000Z</time>
      </trkpt>
      <trkpt lat="42.52887" lon="2.02">
        <ele>2048</ele>
        <time>2018-07-07T06:44:14.000Z</time>
      </trkpt>
      <trkpt lat="42.52889" lon="2.01998">
        <ele>2048</ele>
        <time>2018-07-07T06:44:15.000Z</time>
      </trkpt>
      <trkpt lat="42.52891" lon="2.01996">
        <ele>2048</ele>
        <time>2018-07-07T06:44:16.000Z</time>
      </trkpt>
      <trkpt lat="42.52893" lon="2.01994">
        <ele>2048</ele>
        <time>2018-07-07T06:44:17.000Z</time>
      </trkpt>
      <trkpt lat="42.52895" lon="2.01993">
        <ele>2048</ele>
        <time>2018-07-07T06:44:18.000Z</time>
      </trkpt>
      <trkpt lat="42.52897" lon="2.01991">
        <ele>2048</ele>
        <time>2018-07-07T06:44:19.000Z</time>
      </trkpt>
      <trkpt lat="42.52899" lon="2.0199">
        <ele>2048</ele>
        <time>2018-07-07T06:44:20.000Z</time>
      </trkpt>
      <trkpt lat="42.52901" lon="2.01989">
        <ele>2048</ele>
        <time>2018-07-07T06:44:21.000Z</time>
      </trkpt>
      <trkpt lat="42.52903" lon="2.01988">
        <ele>2048</ele>
        <time>2018-07-07T06:44:22.000Z</time>
      </trkpt>
      <trkpt lat="42.52905" lon="2.01986">
        <ele>2048</ele>
        <time>2018-07-07T06:44:23.000Z</time>
      </trkpt>
      <trkpt lat="42.52907" lon="2.01985">
        <ele>2049</ele>
        <time>2018-07-07T06:44:24.000Z</time>
      </trkpt>
      <trkpt lat="42.52909" lon="2.01983">
        <ele>2049</ele>
        <time>2018-07-07T06:44:25.000Z</time>
      </trkpt>
      <trkpt lat="42.52911" lon="2.01982">
        <ele>2049</ele>
        <time>2018-07-07T06:44:26.000Z</time>
      </trkpt>
      <trkpt lat="42.52913" lon="2.01981">
        <ele>2049</ele>
        <time>2018-07-07T06:44:27.000Z</time>
      </trkpt>
      <trkpt lat="42.52915" lon="2.01979">
        <ele>2048</ele>
        <time>2018-07-07T06:44:28.000Z</time>
      </trkpt>
      <trkpt lat="42.52917" lon="2.01977">
        <ele>2050</ele>
        <time>2018-07-07T06:44:29.000Z</time>
      </trkpt>
      <trkpt lat="42.52919" lon="2.01976">
        <ele>2050</ele>
        <time>2018-07-07T06:44:30.000Z</time>
      </trkpt>
      <trkpt lat="42.52922" lon="2.01974">
        <ele>2050</ele>
        <time>2018-07-07T06:44:31.000Z</time>
      </trkpt>
      <trkpt lat="42.52924" lon="2.01973">
        <ele>2050</ele>
        <time>2018-07-07T06:44:32.000Z</time>
      </trkpt>
      <trkpt lat="42.52926" lon="2.01972">
        <ele>2050</ele>
        <time>2018-07-07T06:44:33.000Z</time>
      </trkpt>
      <trkpt lat="42.52928" lon="2.01971">
        <ele>2050</ele>
        <time>2018-07-07T06:44:34.000Z</time>
      </trkpt>
      <trkpt lat="42.52931" lon="2.0197">
        <ele>2050</ele>
        <time>2018-07-07T06:44:35.000Z</time>
      </trkpt>
      <trkpt lat="42.52933" lon="2.01969">
        <ele>2050</ele>
        <time>2018-07-07T06:44:36.000Z</time>
      </trkpt>
      <trkpt lat="42.52936" lon="2.01967">
        <ele>2050</ele>
        <time>2018-07-07T06:44:37.000Z</time>
      </trkpt>
      <trkpt lat="42.52938" lon="2.01966">
        <ele>2051</ele>
        <time>2018-07-07T06:44:38.000Z</time>
      </trkpt>
      <trkpt lat="42.5294" lon="2.01965">
        <ele>2051</ele>
        <time>2018-07-07T06:44:39.000Z</time>
      </trkpt>
      <trkpt lat="42.52943" lon="2.01963">
        <ele>2051</ele>
        <time>2018-07-07T06:44:40.000Z</time>
      </trkpt>
      <trkpt lat="42.52945" lon="2.01962">
        <ele>2051</ele>
        <time>2018-07-07T06:44:41.000Z</time>
      </trkpt>
      <trkpt lat="42.52948" lon="2.0196">
        <ele>2051</ele>
        <time>2018-07-07T06:44:42.000Z</time>
      </trkpt>
      <trkpt lat="42.5295" lon="2.01959">
        <ele>2051</ele>
        <time>2018-07-07T06:44:43.000Z</time>
      </trkpt>
      <trkpt lat="42.52952" lon="2.01957">
        <ele>2051</ele>
        <time>2018-07-07T06:44:44.000Z</time>
      </trkpt>
      <trkpt lat="42.52954" lon="2.01955">
        <ele>2051</ele>
        <time>2018-07-07T06:44:45.000Z</time>
      </trkpt>
      <trkpt lat="42.52956" lon="2.01953">
        <ele>2051</ele>
        <time>2018-07-07T06:44:46.000Z</time>
      </trkpt>
      <trkpt lat="42.52958" lon="2.0195">
        <ele>2051</ele>
        <time>2018-07-07T06:44:47.000Z</time>
      </trkpt>
      <trkpt lat="42.5296" lon="2.01948">
        <ele>2051</ele>
        <time>2018-07-07T06:44:48.000Z</time>
      </trkpt>
      <trkpt lat="42.52961" lon="2.01945">
        <ele>2051</ele>
        <time>2018-07-07T06:44:49.000Z</time>
      </trkpt>
      <trkpt lat="42.52963" lon="2.01943">
        <ele>2051</ele>
        <time>2018-07-07T06:44:50.000Z</time>
      </trkpt>
      <trkpt lat="42.52965" lon="2.0194">
        <ele>2051</ele>
        <time>2018-07-07T06:44:51.000Z</time>
      </trkpt>
      <trkpt lat="42.52967" lon="2.01938">
        <ele>2051</ele>
        <time>2018-07-07T06:44:52.000Z</time>
      </trkpt>
      <trkpt lat="42.52968" lon="2.01935">
        <ele>2051</ele>
        <time>2018-07-07T06:44:53.000Z</time>
      </trkpt>
      <trkpt lat="42.5297" lon="2.01932">
        <ele>2051</ele>
        <time>2018-07-07T06:44:54.000Z</time>
      </trkpt>
      <trkpt lat="42.52972" lon="2.0193">
        <ele>2051</ele>
        <time>2018-07-07T06:44:55.000Z</time>
      </trkpt>
      <trkpt lat="42.52974" lon="2.01928">
        <ele>2052</ele>
        <time>2018-07-07T06:44:56.000Z</time>
      </trkpt>
      <trkpt lat="42.52976" lon="2.01926">
        <ele>2052</ele>
        <time>2018-07-07T06:44:57.000Z</time>
      </trkpt>
      <trkpt lat="42.52978" lon="2.01925">
        <ele>2052</ele>
        <time>2018-07-07T06:45:01.000Z</time>
      </trkpt>
      <trkpt lat="42.52979" lon="2.01924">
        <ele>2052</ele>
        <time>2018-07-07T06:45:06.000Z</time>
      </trkpt>
      <trkpt lat="42.52981" lon="2.01922">
        <ele>2052</ele>
        <time>2018-07-07T06:45:15.000Z</time>
      </trkpt>
      <trkpt lat="42.52982" lon="2.0192">
        <ele>2052</ele>
        <time>2018-07-07T06:45:17.000Z</time>
      </trkpt>
      <trkpt lat="42.52984" lon="2.01919">
        <ele>2052</ele>
        <time>2018-07-07T06:45:18.000Z</time>
      </trkpt>
      <trkpt lat="42.52986" lon="2.01917">
        <ele>2052</ele>
        <time>2018-07-07T06:45:19.000Z</time>
      </trkpt>
      <trkpt lat="42.52987" lon="2.01915">
        <ele>2052</ele>
        <time>2018-07-07T06:45:20.000Z</time>
      </trkpt>
      <trkpt lat="42.52989" lon="2.01912">
        <ele>2052</ele>
        <time>2018-07-07T06:45:21.000Z</time>
      </trkpt>
      <trkpt lat="42.52991" lon="2.0191">
        <ele>2052</ele>
        <time>2018-07-07T06:45:22.000Z</time>
      </trkpt>
      <trkpt lat="42.52992" lon="2.01908">
        <ele>2052</ele>
        <time>2018-07-07T06:45:23.000Z</time>
      </trkpt>
      <trkpt lat="42.52994" lon="2.01905">
        <ele>2052</ele>
        <time>2018-07-07T06:45:24.000Z</time>
      </trkpt>
      <trkpt lat="42.52995" lon="2.01903">
        <ele>2052</ele>
        <time>2018-07-07T06:45:25.000Z</time>
      </trkpt>
      <trkpt lat="42.52997" lon="2.019">
        <ele>2052</ele>
        <time>2018-07-07T06:45:26.000Z</time>
      </trkpt>
      <trkpt lat="42.52998" lon="2.01898">
        <ele>2052</ele>
        <time>2018-07-07T06:45:27.000Z</time>
      </trkpt>
      <trkpt lat="42.53" lon="2.01895">
        <ele>2052</ele>
        <time>2018-07-07T06:45:28.000Z</time>
      </trkpt>
      <trkpt lat="42.53002" lon="2.01893">
        <ele>2057</ele>
        <time>2018-07-07T06:45:29.000Z</time>
      </trkpt>
      <trkpt lat="42.53003" lon="2.0189">
        <ele>2057</ele>
        <time>2018-07-07T06:45:30.000Z</time>
      </trkpt>
      <trkpt lat="42.53005" lon="2.01889">
        <ele>2057</ele>
        <time>2018-07-07T06:45:31.000Z</time>
      </trkpt>
      <trkpt lat="42.53007" lon="2.01887">
        <ele>2057</ele>
        <time>2018-07-07T06:45:32.000Z</time>
      </trkpt>
      <trkpt lat="42.53009" lon="2.01885">
        <ele>2058</ele>
        <time>2018-07-07T06:45:33.000Z</time>
      </trkpt>
      <trkpt lat="42.53011" lon="2.01883">
        <ele>2058</ele>
        <time>2018-07-07T06:45:34.000Z</time>
      </trkpt>
      <trkpt lat="42.53013" lon="2.01881">
        <ele>2058</ele>
        <time>2018-07-07T06:45:35.000Z</time>
      </trkpt>
      <trkpt lat="42.53015" lon="2.01879">
        <ele>2058</ele>
        <time>2018-07-07T06:45:36.000Z</time>
      </trkpt>
      <trkpt lat="42.53017" lon="2.01877">
        <ele>2058</ele>
        <time>2018-07-07T06:45:37.000Z</time>
      </trkpt>
      <trkpt lat="42.53019" lon="2.01875">
        <ele>2058</ele>
        <time>2018-07-07T06:45:38.000Z</time>
      </trkpt>
      <trkpt lat="42.53021" lon="2.01874">
        <ele>2058</ele>
        <time>2018-07-07T06:45:39.000Z</time>
      </trkpt>
      <trkpt lat="42.53023" lon="2.01873">
        <ele>2059</ele>
        <time>2018-07-07T06:45:40.000Z</time>
      </trkpt>
      <trkpt lat="42.53025" lon="2.01872">
        <ele>2059</ele>
        <time>2018-07-07T06:45:41.000Z</time>
      </trkpt>
      <trkpt lat="42.53027" lon="2.0187">
        <ele>2059</ele>
        <time>2018-07-07T06:45:42.000Z</time>
      </trkpt>
      <trkpt lat="42.53029" lon="2.01869">
        <ele>2059</ele>
        <time>2018-07-07T06:45:43.000Z</time>
      </trkpt>
      <trkpt lat="42.53032" lon="2.01867">
        <ele>2059</ele>
        <time>2018-07-07T06:45:44.000Z</time>
      </trkpt>
      <trkpt lat="42.53034" lon="2.01866">
        <ele>2059</ele>
        <time>2018-07-07T06:45:45.000Z</time>
      </trkpt>
      <trkpt lat="42.53036" lon="2.01864">
        <ele>2060</ele>
        <time>2018-07-07T06:45:46.000Z</time>
      </trkpt>
      <trkpt lat="42.53038" lon="2.01863">
        <ele>2060</ele>
        <time>2018-07-07T06:45:47.000Z</time>
      </trkpt>
      <trkpt lat="42.5304" lon="2.01862">
        <ele>2060</ele>
        <time>2018-07-07T06:45:48.000Z</time>
      </trkpt>
      <trkpt lat="42.53042" lon="2.01861">
        <ele>2060</ele>
        <time>2018-07-07T06:45:49.000Z</time>
      </trkpt>
      <trkpt lat="42.53044" lon="2.01861">
        <ele>2060</ele>
        <time>2018-07-07T06:45:50.000Z</time>
      </trkpt>
      <trkpt lat="42.53046" lon="2.0186">
        <ele>2060</ele>
        <time>2018-07-07T06:45:51.000Z</time>
      </trkpt>
      <trkpt lat="42.53048" lon="2.01859">
        <ele>2061</ele>
        <time>2018-07-07T06:45:52.000Z</time>
      </trkpt>
      <trkpt lat="42.53051" lon="2.01857">
        <ele>2061</ele>
        <time>2018-07-07T06:45:54.000Z</time>
      </trkpt>
      <trkpt lat="42.53053" lon="2.01855">
        <ele>2061</ele>
        <time>2018-07-07T06:45:56.000Z</time>
      </trkpt>
      <trkpt lat="42.53055" lon="2.01853">
        <ele>2061</ele>
        <time>2018-07-07T06:45:58.000Z</time>
      </trkpt>
      <trkpt lat="42.53057" lon="2.0185">
        <ele>2062</ele>
        <time>2018-07-07T06:46:00.000Z</time>
      </trkpt>
      <trkpt lat="42.53059" lon="2.01848">
        <ele>2062</ele>
        <time>2018-07-07T06:46:02.000Z</time>
      </trkpt>
      <trkpt lat="42.5306" lon="2.01845">
        <ele>2062</ele>
        <time>2018-07-07T06:46:04.000Z</time>
      </trkpt>
      <trkpt lat="42.53062" lon="2.01843">
        <ele>2063</ele>
        <time>2018-07-07T06:46:06.000Z</time>
      </trkpt>
      <trkpt lat="42.53063" lon="2.01841">
        <ele>2063</ele>
        <time>2018-07-07T06:46:08.000Z</time>
      </trkpt>
      <trkpt lat="42.53065" lon="2.01838">
        <ele>2064</ele>
        <time>2018-07-07T06:46:10.000Z</time>
      </trkpt>
      <trkpt lat="42.53068" lon="2.01836">
        <ele>2064</ele>
        <time>2018-07-07T06:46:12.000Z</time>
      </trkpt>
      <trkpt lat="42.5307" lon="2.01835">
        <ele>2064</ele>
        <time>2018-07-07T06:46:14.000Z</time>
      </trkpt>
      <trkpt lat="42.53072" lon="2.01833">
        <ele>2067</ele>
        <time>2018-07-07T06:46:16.000Z</time>
      </trkpt>
      <trkpt lat="42.53075" lon="2.01831">
        <ele>2067</ele>
        <time>2018-07-07T06:46:18.000Z</time>
      </trkpt>
      <trkpt lat="42.53077" lon="2.01829">
        <ele>2067</ele>
        <time>2018-07-07T06:46:20.000Z</time>
      </trkpt>
      <trkpt lat="42.53079" lon="2.01827">
        <ele>2067</ele>
        <time>2018-07-07T06:46:22.000Z</time>
      </trkpt>
      <trkpt lat="42.53081" lon="2.01826">
        <ele>2067</ele>
        <time>2018-07-07T06:46:24.000Z</time>
      </trkpt>
      <trkpt lat="42.53083" lon="2.01824">
        <ele>2067</ele>
        <time>2018-07-07T06:46:26.000Z</time>
      </trkpt>
      <trkpt lat="42.53086" lon="2.01823">
        <ele>2070</ele>
        <time>2018-07-07T06:46:28.000Z</time>
      </trkpt>
      <trkpt lat="42.53088" lon="2.01821">
        <ele>2071</ele>
        <time>2018-07-07T06:46:30.000Z</time>
      </trkpt>
      <trkpt lat="42.5309" lon="2.01819">
        <ele>2071</ele>
        <time>2018-07-07T06:46:32.000Z</time>
      </trkpt>
      <trkpt lat="42.53093" lon="2.01818">
        <ele>2071</ele>
        <time>2018-07-07T06:46:34.000Z</time>
      </trkpt>
      <trkpt lat="42.53095" lon="2.01817">
        <ele>2072</ele>
        <time>2018-07-07T06:46:36.000Z</time>
      </trkpt>
      <trkpt lat="42.53097" lon="2.01816">
        <ele>2072</ele>
        <time>2018-07-07T06:46:38.000Z</time>
      </trkpt>
      <trkpt lat="42.53099" lon="2.01814">
        <ele>2072</ele>
        <time>2018-07-07T06:46:40.000Z</time>
      </trkpt>
      <trkpt lat="42.53102" lon="2.01814">
        <ele>2073</ele>
        <time>2018-07-07T06:46:42.000Z</time>
      </trkpt>
      <trkpt lat="42.53104" lon="2.01812">
        <ele>2073</ele>
        <time>2018-07-07T06:46:44.000Z</time>
      </trkpt>
      <trkpt lat="42.53106" lon="2.01811">
        <ele>2073</ele>
        <time>2018-07-07T06:46:46.000Z</time>
      </trkpt>
      <trkpt lat="42.53108" lon="2.01809">
        <ele>2073</ele>
        <time>2018-07-07T06:46:48.000Z</time>
      </trkpt>
      <trkpt lat="42.53111" lon="2.01809">
        <ele>2074</ele>
        <time>2018-07-07T06:46:50.000Z</time>
      </trkpt>
      <trkpt lat="42.53114" lon="2.01808">
        <ele>2074</ele>
        <time>2018-07-07T06:46:52.000Z</time>
      </trkpt>
      <trkpt lat="42.53116" lon="2.01808">
        <ele>2074</ele>
        <time>2018-07-07T06:46:54.000Z</time>
      </trkpt>
      <trkpt lat="42.53118" lon="2.01806">
        <ele>2074</ele>
        <time>2018-07-07T06:46:56.000Z</time>
      </trkpt>
      <trkpt lat="42.53121" lon="2.01805">
        <ele>2074</ele>
        <time>2018-07-07T06:46:58.000Z</time>
      </trkpt>
      <trkpt lat="42.53124" lon="2.01804">
        <ele>2075</ele>
        <time>2018-07-07T06:47:00.000Z</time>
      </trkpt>
      <trkpt lat="42.53126" lon="2.01805">
        <ele>2075</ele>
        <time>2018-07-07T06:47:02.000Z</time>
      </trkpt>
      <trkpt lat="42.53129" lon="2.01805">
        <ele>2075</ele>
        <time>2018-07-07T06:47:04.000Z</time>
      </trkpt>
      <trkpt lat="42.53132" lon="2.01804">
        <ele>2075</ele>
        <time>2018-07-07T06:47:06.000Z</time>
      </trkpt>
      <trkpt lat="42.53135" lon="2.01805">
        <ele>2075</ele>
        <time>2018-07-07T06:47:08.000Z</time>
      </trkpt>
      <trkpt lat="42.53138" lon="2.01805">
        <ele>2075</ele>
        <time>2018-07-07T06:47:10.000Z</time>
      </trkpt>
      <trkpt lat="42.5314" lon="2.01805">
        <ele>2076</ele>
        <time>2018-07-07T06:47:12.000Z</time>
      </trkpt>
      <trkpt lat="42.53143" lon="2.01805">
        <ele>2076</ele>
        <time>2018-07-07T06:47:14.000Z</time>
      </trkpt>
      <trkpt lat="42.53145" lon="2.01805">
        <ele>2076</ele>
        <time>2018-07-07T06:47:16.000Z</time>
      </trkpt>
      <trkpt lat="42.53148" lon="2.01806">
        <ele>2076</ele>
        <time>2018-07-07T06:47:18.000Z</time>
      </trkpt>
      <trkpt lat="42.5315" lon="2.01807">
        <ele>2076</ele>
        <time>2018-07-07T06:47:20.000Z</time>
      </trkpt>
      <trkpt lat="42.53153" lon="2.01808">
        <ele>2076</ele>
        <time>2018-07-07T06:47:22.000Z</time>
      </trkpt>
      <trkpt lat="42.53156" lon="2.01809">
        <ele>2076</ele>
        <time>2018-07-07T06:47:24.000Z</time>
      </trkpt>
      <trkpt lat="42.53159" lon="2.0181">
        <ele>2076</ele>
        <time>2018-07-07T06:47:26.000Z</time>
      </trkpt>
      <trkpt lat="42.53161" lon="2.01812">
        <ele>2077</ele>
        <time>2018-07-07T06:47:28.000Z</time>
      </trkpt>
      <trkpt lat="42.53163" lon="2.01813">
        <ele>2077</ele>
        <time>2018-07-07T06:47:30.000Z</time>
      </trkpt>
      <trkpt lat="42.53165" lon="2.01815">
        <ele>2077</ele>
        <time>2018-07-07T06:47:32.000Z</time>
      </trkpt>
      <trkpt lat="42.53168" lon="2.01815">
        <ele>2082</ele>
        <time>2018-07-07T06:47:34.000Z</time>
      </trkpt>
      <trkpt lat="42.53171" lon="2.01817">
        <ele>2082</ele>
        <time>2018-07-07T06:47:36.000Z</time>
      </trkpt>
      <trkpt lat="42.53174" lon="2.01818">
        <ele>2082</ele>
        <time>2018-07-07T06:47:38.000Z</time>
      </trkpt>
      <trkpt lat="42.53176" lon="2.0182">
        <ele>2082</ele>
        <time>2018-07-07T06:47:40.000Z</time>
      </trkpt>
      <trkpt lat="42.53179" lon="2.01821">
        <ele>2082</ele>
        <time>2018-07-07T06:47:42.000Z</time>
      </trkpt>
      <trkpt lat="42.53182" lon="2.01822">
        <ele>2082</ele>
        <time>2018-07-07T06:47:44.000Z</time>
      </trkpt>
      <trkpt lat="42.53184" lon="2.01823">
        <ele>2083</ele>
        <time>2018-07-07T06:47:46.000Z</time>
      </trkpt>
      <trkpt lat="42.53187" lon="2.01824">
        <ele>2083</ele>
        <time>2018-07-07T06:47:48.000Z</time>
      </trkpt>
      <trkpt lat="42.53189" lon="2.01825">
        <ele>2083</ele>
        <time>2018-07-07T06:47:50.000Z</time>
      </trkpt>
      <trkpt lat="42.53191" lon="2.01826">
        <ele>2083</ele>
        <time>2018-07-07T06:47:52.000Z</time>
      </trkpt>
      <trkpt lat="42.53194" lon="2.01828">
        <ele>2084</ele>
        <time>2018-07-07T06:47:54.000Z</time>
      </trkpt>
      <trkpt lat="42.53196" lon="2.0183">
        <ele>2084</ele>
        <time>2018-07-07T06:47:56.000Z</time>
      </trkpt>
      <trkpt lat="42.53198" lon="2.01833">
        <ele>2084</ele>
        <time>2018-07-07T06:47:58.000Z</time>
      </trkpt>
      <trkpt lat="42.532" lon="2.01836">
        <ele>2082</ele>
        <time>2018-07-07T06:48:00.000Z</time>
      </trkpt>
      <trkpt lat="42.53203" lon="2.01838">
        <ele>2082</ele>
        <time>2018-07-07T06:48:02.000Z</time>
      </trkpt>
      <trkpt lat="42.53205" lon="2.0184">
        <ele>2083</ele>
        <time>2018-07-07T06:48:04.000Z</time>
      </trkpt>
      <trkpt lat="42.53208" lon="2.01843">
        <ele>2083</ele>
        <time>2018-07-07T06:48:06.000Z</time>
      </trkpt>
      <trkpt lat="42.5321" lon="2.01846">
        <ele>2083</ele>
        <time>2018-07-07T06:48:07.000Z</time>
      </trkpt>
      <trkpt lat="42.53212" lon="2.01848">
        <ele>2083</ele>
        <time>2018-07-07T06:48:08.000Z</time>
      </trkpt>
      <trkpt lat="42.53214" lon="2.0185">
        <ele>2083</ele>
        <time>2018-07-07T06:48:09.000Z</time>
      </trkpt>
      <trkpt lat="42.53216" lon="2.01853">
        <ele>2083</ele>
        <time>2018-07-07T06:48:10.000Z</time>
      </trkpt>
      <trkpt lat="42.53218" lon="2.01855">
        <ele>2084</ele>
        <time>2018-07-07T06:48:11.000Z</time>
      </trkpt>
      <trkpt lat="42.5322" lon="2.01857">
        <ele>2084</ele>
        <time>2018-07-07T06:48:12.000Z</time>
      </trkpt>
      <trkpt lat="42.53222" lon="2.01859">
        <ele>2084</ele>
        <time>2018-07-07T06:48:13.000Z</time>
      </trkpt>
      <trkpt lat="42.53224" lon="2.0186">
        <ele>2084</ele>
        <time>2018-07-07T06:48:14.000Z</time>
      </trkpt>
      <trkpt lat="42.53225" lon="2.01861">
        <ele>2084</ele>
        <time>2018-07-07T06:48:15.000Z</time>
      </trkpt>
      <trkpt lat="42.53227" lon="2.01861">
        <ele>2084</ele>
        <time>2018-07-07T06:48:16.000Z</time>
      </trkpt>
      <trkpt lat="42.5323" lon="2.01862">
        <ele>2084</ele>
        <time>2018-07-07T06:48:18.000Z</time>
      </trkpt>
      <trkpt lat="42.53232" lon="2.01863">
        <ele>2084</ele>
        <time>2018-07-07T06:48:20.000Z</time>
      </trkpt>
      <trkpt lat="42.53235" lon="2.01864">
        <ele>2084</ele>
        <time>2018-07-07T06:48:22.000Z</time>
      </trkpt>
      <trkpt lat="42.53237" lon="2.01865">
        <ele>2085</ele>
        <time>2018-07-07T06:48:24.000Z</time>
      </trkpt>
      <trkpt lat="42.53239" lon="2.01865">
        <ele>2085</ele>
        <time>2018-07-07T06:48:26.000Z</time>
      </trkpt>
      <trkpt lat="42.53241" lon="2.01866">
        <ele>2085</ele>
        <time>2018-07-07T06:48:28.000Z</time>
      </trkpt>
      <trkpt lat="42.53244" lon="2.01865">
        <ele>2085</ele>
        <time>2018-07-07T06:48:30.000Z</time>
      </trkpt>
      <trkpt lat="42.53246" lon="2.01866">
        <ele>2085</ele>
        <time>2018-07-07T06:48:32.000Z</time>
      </trkpt>
      <trkpt lat="42.53248" lon="2.01866">
        <ele>2085</ele>
        <time>2018-07-07T06:48:34.000Z</time>
      </trkpt>
      <trkpt lat="42.53251" lon="2.01866">
        <ele>2096</ele>
        <time>2018-07-07T06:48:37.000Z</time>
      </trkpt>
      <trkpt lat="42.53254" lon="2.01867">
        <ele>2096</ele>
        <time>2018-07-07T06:48:40.000Z</time>
      </trkpt>
      <trkpt lat="42.53256" lon="2.01868">
        <ele>2097</ele>
        <time>2018-07-07T06:48:42.000Z</time>
      </trkpt>
      <trkpt lat="42.53258" lon="2.01869">
        <ele>2097</ele>
        <time>2018-07-07T06:48:44.000Z</time>
      </trkpt>
      <trkpt lat="42.53261" lon="2.01869">
        <ele>2097</ele>
        <time>2018-07-07T06:48:46.000Z</time>
      </trkpt>
      <trkpt lat="42.53263" lon="2.0187">
        <ele>2097</ele>
        <time>2018-07-07T06:48:48.000Z</time>
      </trkpt>
      <trkpt lat="42.53265" lon="2.0187">
        <ele>2097</ele>
        <time>2018-07-07T06:48:50.000Z</time>
      </trkpt>
      <trkpt lat="42.53268" lon="2.0187">
        <ele>2098</ele>
        <time>2018-07-07T06:48:53.000Z</time>
      </trkpt>
      <trkpt lat="42.5327" lon="2.01871">
        <ele>2098</ele>
        <time>2018-07-07T06:48:55.000Z</time>
      </trkpt>
      <trkpt lat="42.53272" lon="2.01871">
        <ele>2098</ele>
        <time>2018-07-07T06:48:57.000Z</time>
      </trkpt>
      <trkpt lat="42.53275" lon="2.01871">
        <ele>2099</ele>
        <time>2018-07-07T06:48:59.000Z</time>
      </trkpt>
      <trkpt lat="42.53277" lon="2.01872">
        <ele>2099</ele>
        <time>2018-07-07T06:49:01.000Z</time>
      </trkpt>
      <trkpt lat="42.5328" lon="2.01872">
        <ele>2099</ele>
        <time>2018-07-07T06:49:03.000Z</time>
      </trkpt>
      <trkpt lat="42.53281" lon="2.01872">
        <ele>2100</ele>
        <time>2018-07-07T06:49:05.000Z</time>
      </trkpt>
      <trkpt lat="42.53283" lon="2.01873">
        <ele>2100</ele>
        <time>2018-07-07T06:49:07.000Z</time>
      </trkpt>
      <trkpt lat="42.53285" lon="2.01873">
        <ele>2100</ele>
        <time>2018-07-07T06:49:09.000Z</time>
      </trkpt>
      <trkpt lat="42.53288" lon="2.01873">
        <ele>2100</ele>
        <time>2018-07-07T06:49:11.000Z</time>
      </trkpt>
      <trkpt lat="42.5329" lon="2.01873">
        <ele>2101</ele>
        <time>2018-07-07T06:49:13.000Z</time>
      </trkpt>
      <trkpt lat="42.53292" lon="2.01873">
        <ele>2101</ele>
        <time>2018-07-07T06:49:15.000Z</time>
      </trkpt>
      <trkpt lat="42.53294" lon="2.01873">
        <ele>2101</ele>
        <time>2018-07-07T06:49:18.000Z</time>
      </trkpt>
      <trkpt lat="42.53297" lon="2.01873">
        <ele>2102</ele>
        <time>2018-07-07T06:49:21.000Z</time>
      </trkpt>
      <trkpt lat="42.53299" lon="2.01873">
        <ele>2102</ele>
        <time>2018-07-07T06:49:24.000Z</time>
      </trkpt>
      <trkpt lat="42.53301" lon="2.01872">
        <ele>2102</ele>
        <time>2018-07-07T06:49:26.000Z</time>
      </trkpt>
      <trkpt lat="42.53303" lon="2.01873">
        <ele>2103</ele>
        <time>2018-07-07T06:49:28.000Z</time>
      </trkpt>
      <trkpt lat="42.53306" lon="2.01872">
        <ele>2103</ele>
        <time>2018-07-07T06:49:31.000Z</time>
      </trkpt>
      <trkpt lat="42.53308" lon="2.01873">
        <ele>2103</ele>
        <time>2018-07-07T06:49:33.000Z</time>
      </trkpt>
      <trkpt lat="42.5331" lon="2.01873">
        <ele>2104</ele>
        <time>2018-07-07T06:49:35.000Z</time>
      </trkpt>
      <trkpt lat="42.53312" lon="2.01872">
        <ele>2104</ele>
        <time>2018-07-07T06:49:37.000Z</time>
      </trkpt>
      <trkpt lat="42.53314" lon="2.01873">
        <ele>2104</ele>
        <time>2018-07-07T06:49:40.000Z</time>
      </trkpt>
      <trkpt lat="42.53316" lon="2.01872">
        <ele>2104</ele>
        <time>2018-07-07T06:49:44.000Z</time>
      </trkpt>
      <trkpt lat="42.53318" lon="2.01872">
        <ele>2105</ele>
        <time>2018-07-07T06:49:48.000Z</time>
      </trkpt>
      <trkpt lat="42.53321" lon="2.01872">
        <ele>2105</ele>
        <time>2018-07-07T06:49:51.000Z</time>
      </trkpt>
      <trkpt lat="42.53323" lon="2.01871">
        <ele>2105</ele>
        <time>2018-07-07T06:49:54.000Z</time>
      </trkpt>
      <trkpt lat="42.53325" lon="2.01869">
        <ele>2105</ele>
        <time>2018-07-07T06:49:57.000Z</time>
      </trkpt>
      <trkpt lat="42.53327" lon="2.01869">
        <ele>2106</ele>
        <time>2018-07-07T06:50:00.000Z</time>
      </trkpt>
      <trkpt lat="42.53329" lon="2.01867">
        <ele>2106</ele>
        <time>2018-07-07T06:50:04.000Z</time>
      </trkpt>
      <trkpt lat="42.53332" lon="2.01867">
        <ele>2106</ele>
        <time>2018-07-07T06:50:09.000Z</time>
      </trkpt>
      <trkpt lat="42.53334" lon="2.01868">
        <ele>2125</ele>
        <time>2018-07-07T06:50:11.000Z</time>
      </trkpt>
      <trkpt lat="42.53336" lon="2.01868">
        <ele>2125</ele>
        <time>2018-07-07T06:50:14.000Z</time>
      </trkpt>
      <trkpt lat="42.53338" lon="2.01869">
        <ele>2125</ele>
        <time>2018-07-07T06:50:17.000Z</time>
      </trkpt>
      <trkpt lat="42.5334" lon="2.01868">
        <ele>2126</ele>
        <time>2018-07-07T06:50:22.000Z</time>
      </trkpt>
      <trkpt lat="42.53342" lon="2.01867">
        <ele>2126</ele>
        <time>2018-07-07T06:50:26.000Z</time>
      </trkpt>
      <trkpt lat="42.53345" lon="2.01867">
        <ele>2126</ele>
        <time>2018-07-07T06:50:29.000Z</time>
      </trkpt>
      <trkpt lat="42.53347" lon="2.01866">
        <ele>2127</ele>
        <time>2018-07-07T06:50:33.000Z</time>
      </trkpt>
      <trkpt lat="42.53349" lon="2.01866">
        <ele>2127</ele>
        <time>2018-07-07T06:50:36.000Z</time>
      </trkpt>
      <trkpt lat="42.53351" lon="2.01867">
        <ele>2127</ele>
        <time>2018-07-07T06:50:40.000Z</time>
      </trkpt>
      <trkpt lat="42.53352" lon="2.01866">
        <ele>2128</ele>
        <time>2018-07-07T06:50:43.000Z</time>
      </trkpt>
      <trkpt lat="42.53354" lon="2.01867">
        <ele>2128</ele>
        <time>2018-07-07T06:50:46.000Z</time>
      </trkpt>
      <trkpt lat="42.53356" lon="2.01867">
        <ele>2128</ele>
        <time>2018-07-07T06:50:51.000Z</time>
      </trkpt>
      <trkpt lat="42.53359" lon="2.01867">
        <ele>2129</ele>
        <time>2018-07-07T06:50:55.000Z</time>
      </trkpt>
      <trkpt lat="42.53361" lon="2.01867">
        <ele>2129</ele>
        <time>2018-07-07T06:50:59.000Z</time>
      </trkpt>
      <trkpt lat="42.53363" lon="2.01866">
        <ele>2130</ele>
        <time>2018-07-07T06:51:03.000Z</time>
      </trkpt>
      <trkpt lat="42.53365" lon="2.01866">
        <ele>2130</ele>
        <time>2018-07-07T06:51:06.000Z</time>
      </trkpt>
      <trkpt lat="42.53367" lon="2.01865">
        <ele>2131</ele>
        <time>2018-07-07T06:51:09.000Z</time>
      </trkpt>
      <trkpt lat="42.53368" lon="2.01864">
        <ele>2131</ele>
        <time>2018-07-07T06:51:14.000Z</time>
      </trkpt>
      <trkpt lat="42.5337" lon="2.01863">
        <ele>2131</ele>
        <time>2018-07-07T06:51:16.000Z</time>
      </trkpt>
      <trkpt lat="42.53372" lon="2.01862">
        <ele>2132</ele>
        <time>2018-07-07T06:51:19.000Z</time>
      </trkpt>
      <trkpt lat="42.53374" lon="2.01863">
        <ele>2132</ele>
        <time>2018-07-07T06:51:23.000Z</time>
      </trkpt>
      <trkpt lat="42.53376" lon="2.01863">
        <ele>2133</ele>
        <time>2018-07-07T06:51:26.000Z</time>
      </trkpt>
      <trkpt lat="42.53379" lon="2.01862">
        <ele>2133</ele>
        <time>2018-07-07T06:51:29.000Z</time>
      </trkpt>
      <trkpt lat="42.5338" lon="2.01862">
        <ele>2134</ele>
        <time>2018-07-07T06:51:32.000Z</time>
      </trkpt>
      <trkpt lat="42.53383" lon="2.01862">
        <ele>2135</ele>
        <time>2018-07-07T06:51:35.000Z</time>
      </trkpt>
      <trkpt lat="42.53385" lon="2.01861">
        <ele>2135</ele>
        <time>2018-07-07T06:51:40.000Z</time>
      </trkpt>
      <trkpt lat="42.53387" lon="2.01862">
        <ele>2136</ele>
        <time>2018-07-07T06:51:43.000Z</time>
      </trkpt>
      <trkpt lat="42.53389" lon="2.01863">
        <ele>2136</ele>
        <time>2018-07-07T06:51:47.000Z</time>
      </trkpt>
      <trkpt lat="42.53391" lon="2.01864">
        <ele>2136</ele>
        <time>2018-07-07T06:51:51.000Z</time>
      </trkpt>
      <trkpt lat="42.53393" lon="2.01864">
        <ele>2137</ele>
        <time>2018-07-07T06:51:57.000Z</time>
      </trkpt>
      <trkpt lat="42.53395" lon="2.01865">
        <ele>2137</ele>
        <time>2018-07-07T06:52:00.000Z</time>
      </trkpt>
      <trkpt lat="42.53397" lon="2.01866">
        <ele>2137</ele>
        <time>2018-07-07T06:52:03.000Z</time>
      </trkpt>
      <trkpt lat="42.53399" lon="2.01866">
        <ele>2138</ele>
        <time>2018-07-07T06:52:07.000Z</time>
      </trkpt>
      <trkpt lat="42.53401" lon="2.01865">
        <ele>2138</ele>
        <time>2018-07-07T06:52:11.000Z</time>
      </trkpt>
      <trkpt lat="42.53403" lon="2.01864">
        <ele>2139</ele>
        <time>2018-07-07T06:52:15.000Z</time>
      </trkpt>
      <trkpt lat="42.53405" lon="2.01863">
        <ele>2139</ele>
        <time>2018-07-07T06:52:18.000Z</time>
      </trkpt>
      <trkpt lat="42.53407" lon="2.01863">
        <ele>2140</ele>
        <time>2018-07-07T06:52:21.000Z</time>
      </trkpt>
      <trkpt lat="42.53409" lon="2.01863">
        <ele>2140</ele>
        <time>2018-07-07T06:52:26.000Z</time>
      </trkpt>
      <trkpt lat="42.53411" lon="2.01863">
        <ele>2140</ele>
        <time>2018-07-07T06:52:29.000Z</time>
      </trkpt>
      <trkpt lat="42.53413" lon="2.01862">
        <ele>2141</ele>
        <time>2018-07-07T06:52:33.000Z</time>
      </trkpt>
      <trkpt lat="42.53414" lon="2.0186">
        <ele>2141</ele>
        <time>2018-07-07T06:52:36.000Z</time>
      </trkpt>
      <trkpt lat="42.53416" lon="2.01859">
        <ele>2141</ele>
        <time>2018-07-07T06:52:39.000Z</time>
      </trkpt>
      <trkpt lat="42.53418" lon="2.01858">
        <ele>2162</ele>
        <time>2018-07-07T06:52:43.000Z</time>
      </trkpt>
      <trkpt lat="42.5342" lon="2.01856">
        <ele>2162</ele>
        <time>2018-07-07T06:52:48.000Z</time>
      </trkpt>
      <trkpt lat="42.53422" lon="2.01856">
        <ele>2162</ele>
        <time>2018-07-07T06:52:51.000Z</time>
      </trkpt>
      <trkpt lat="42.53424" lon="2.01855">
        <ele>2162</ele>
        <time>2018-07-07T06:52:54.000Z</time>
      </trkpt>
      <trkpt lat="42.53426" lon="2.01854">
        <ele>2162</ele>
        <time>2018-07-07T06:52:56.000Z</time>
      </trkpt>
      <trkpt lat="42.53427" lon="2.01853">
        <ele>2163</ele>
        <time>2018-07-07T06:52:58.000Z</time>
      </trkpt>
      <trkpt lat="42.53429" lon="2.01853">
        <ele>2163</ele>
        <time>2018-07-07T06:53:01.000Z</time>
      </trkpt>
      <trkpt lat="42.53431" lon="2.01853">
        <ele>2163</ele>
        <time>2018-07-07T06:53:05.000Z</time>
      </trkpt>
      <trkpt lat="42.53434" lon="2.01853">
        <ele>2164</ele>
        <time>2018-07-07T06:53:09.000Z</time>
      </trkpt>
      <trkpt lat="42.53435" lon="2.01852">
        <ele>2164</ele>
        <time>2018-07-07T06:53:16.000Z</time>
      </trkpt>
      <trkpt lat="42.53437" lon="2.01851">
        <ele>2164</ele>
        <time>2018-07-07T06:53:19.000Z</time>
      </trkpt>
      <trkpt lat="42.53439" lon="2.01851">
        <ele>2165</ele>
        <time>2018-07-07T06:53:23.000Z</time>
      </trkpt>
      <trkpt lat="42.53441" lon="2.01851">
        <ele>2166</ele>
        <time>2018-07-07T06:53:28.000Z</time>
      </trkpt>
      <trkpt lat="42.53444" lon="2.01851">
        <ele>2166</ele>
        <time>2018-07-07T06:53:32.000Z</time>
      </trkpt>
      <trkpt lat="42.53445" lon="2.01852">
        <ele>2167</ele>
        <time>2018-07-07T06:53:35.000Z</time>
      </trkpt>
      <trkpt lat="42.53448" lon="2.01852">
        <ele>2167</ele>
        <time>2018-07-07T06:53:39.000Z</time>
      </trkpt>
      <trkpt lat="42.5345" lon="2.01852">
        <ele>2168</ele>
        <time>2018-07-07T06:53:43.000Z</time>
      </trkpt>
      <trkpt lat="42.53452" lon="2.01852">
        <ele>2168</ele>
        <time>2018-07-07T06:53:46.000Z</time>
      </trkpt>
      <trkpt lat="42.53454" lon="2.01851">
        <ele>2169</ele>
        <time>2018-07-07T06:53:50.000Z</time>
      </trkpt>
      <trkpt lat="42.53455" lon="2.0185">
        <ele>2169</ele>
        <time>2018-07-07T06:53:54.000Z</time>
      </trkpt>
      <trkpt lat="42.53457" lon="2.01848">
        <ele>2170</ele>
        <time>2018-07-07T06:53:57.000Z</time>
      </trkpt>
      <trkpt lat="42.53459" lon="2.01849">
        <ele>2170</ele>
        <time>2018-07-07T06:54:00.000Z</time>
      </trkpt>
      <trkpt lat="42.5346" lon="2.01847">
        <ele>2171</ele>
        <time>2018-07-07T06:54:03.000Z</time>
      </trkpt>
      <trkpt lat="42.53463" lon="2.01847">
        <ele>2171</ele>
        <time>2018-07-07T06:54:06.000Z</time>
      </trkpt>
      <trkpt lat="42.53465" lon="2.01847">
        <ele>2172</ele>
        <time>2018-07-07T06:54:10.000Z</time>
      </trkpt>
      <trkpt lat="42.53467" lon="2.01846">
        <ele>2173</ele>
        <time>2018-07-07T06:54:14.000Z</time>
      </trkpt>
      <trkpt lat="42.53469" lon="2.01844">
        <ele>2174</ele>
        <time>2018-07-07T06:54:18.000Z</time>
      </trkpt>
      <trkpt lat="42.5347" lon="2.01843">
        <ele>2174</ele>
        <time>2018-07-07T06:54:23.000Z</time>
      </trkpt>
      <trkpt lat="42.53472" lon="2.01842">
        <ele>2175</ele>
        <time>2018-07-07T06:54:27.000Z</time>
      </trkpt>
      <trkpt lat="42.53474" lon="2.01842">
        <ele>2175</ele>
        <time>2018-07-07T06:54:30.000Z</time>
      </trkpt>
      <trkpt lat="42.53476" lon="2.01841">
        <ele>2176</ele>
        <time>2018-07-07T06:54:34.000Z</time>
      </trkpt>
      <trkpt lat="42.53477" lon="2.01839">
        <ele>2177</ele>
        <time>2018-07-07T06:54:38.000Z</time>
      </trkpt>
      <trkpt lat="42.53479" lon="2.01839">
        <ele>2178</ele>
        <time>2018-07-07T06:54:42.000Z</time>
      </trkpt>
      <trkpt lat="42.53481" lon="2.01837">
        <ele>2178</ele>
        <time>2018-07-07T06:54:47.000Z</time>
      </trkpt>
      <trkpt lat="42.53482" lon="2.01835">
        <ele>2179</ele>
        <time>2018-07-07T06:54:51.000Z</time>
      </trkpt>
      <trkpt lat="42.53484" lon="2.01833">
        <ele>2180</ele>
        <time>2018-07-07T06:54:56.000Z</time>
      </trkpt>
      <trkpt lat="42.53486" lon="2.01832">
        <ele>2183</ele>
        <time>2018-07-07T06:55:00.000Z</time>
      </trkpt>
      <trkpt lat="42.53488" lon="2.0183">
        <ele>2184</ele>
        <time>2018-07-07T06:55:04.000Z</time>
      </trkpt>
      <trkpt lat="42.53489" lon="2.01829">
        <ele>2184</ele>
        <time>2018-07-07T06:55:07.000Z</time>
      </trkpt>
      <trkpt lat="42.5349" lon="2.01827">
        <ele>2184</ele>
        <time>2018-07-07T06:55:10.000Z</time>
      </trkpt>
      <trkpt lat="42.53492" lon="2.01825">
        <ele>2184</ele>
        <time>2018-07-07T06:55:13.000Z</time>
      </trkpt>
      <trkpt lat="42.53494" lon="2.01824">
        <ele>2184</ele>
        <time>2018-07-07T06:55:17.000Z</time>
      </trkpt>
      <trkpt lat="42.53494" lon="2.01821">
        <ele>2184</ele>
        <time>2018-07-07T06:55:21.000Z</time>
      </trkpt>
      <trkpt lat="42.53495" lon="2.01818">
        <ele>2183</ele>
        <time>2018-07-07T06:55:24.000Z</time>
      </trkpt>
      <trkpt lat="42.53495" lon="2.01815">
        <ele>2183</ele>
        <time>2018-07-07T06:55:27.000Z</time>
      </trkpt>
      <trkpt lat="42.53496" lon="2.01812">
        <ele>2182</ele>
        <time>2018-07-07T06:55:30.000Z</time>
      </trkpt>
      <trkpt lat="42.53496" lon="2.01809">
        <ele>2182</ele>
        <time>2018-07-07T06:55:32.000Z</time>
      </trkpt>
      <trkpt lat="42.53497" lon="2.01806">
        <ele>2181</ele>
        <time>2018-07-07T06:55:34.000Z</time>
      </trkpt>
      <trkpt lat="42.53496" lon="2.01803">
        <ele>2181</ele>
        <time>2018-07-07T06:55:37.000Z</time>
      </trkpt>
      <trkpt lat="42.53496" lon="2.018">
        <ele>2181</ele>
        <time>2018-07-07T06:55:39.000Z</time>
      </trkpt>
      <trkpt lat="42.53497" lon="2.01798">
        <ele>2181</ele>
        <time>2018-07-07T06:55:41.000Z</time>
      </trkpt>
      <trkpt lat="42.535" lon="2.01796">
        <ele>2181</ele>
        <time>2018-07-07T06:55:44.000Z</time>
      </trkpt>
      <trkpt lat="42.53502" lon="2.01795">
        <ele>2196</ele>
        <time>2018-07-07T06:55:47.000Z</time>
      </trkpt>
      <trkpt lat="42.53504" lon="2.01794">
        <ele>2196</ele>
        <time>2018-07-07T06:55:49.000Z</time>
      </trkpt>
      <trkpt lat="42.53506" lon="2.01792">
        <ele>2196</ele>
        <time>2018-07-07T06:55:52.000Z</time>
      </trkpt>
      <trkpt lat="42.53508" lon="2.01791">
        <ele>2196</ele>
        <time>2018-07-07T06:55:54.000Z</time>
      </trkpt>
      <trkpt lat="42.53509" lon="2.01789">
        <ele>2196</ele>
        <time>2018-07-07T06:55:56.000Z</time>
      </trkpt>
      <trkpt lat="42.53511" lon="2.01787">
        <ele>2196</ele>
        <time>2018-07-07T06:55:59.000Z</time>
      </trkpt>
      <trkpt lat="42.53512" lon="2.01785">
        <ele>2196</ele>
        <time>2018-07-07T06:56:01.000Z</time>
      </trkpt>
      <trkpt lat="42.53514" lon="2.01783">
        <ele>2196</ele>
        <time>2018-07-07T06:56:04.000Z</time>
      </trkpt>
      <trkpt lat="42.53516" lon="2.01781">
        <ele>2196</ele>
        <time>2018-07-07T06:56:06.000Z</time>
      </trkpt>
      <trkpt lat="42.53518" lon="2.01779">
        <ele>2197</ele>
        <time>2018-07-07T06:56:08.000Z</time>
      </trkpt>
      <trkpt lat="42.53519" lon="2.01777">
        <ele>2197</ele>
        <time>2018-07-07T06:56:10.000Z</time>
      </trkpt>
      <trkpt lat="42.5352" lon="2.01774">
        <ele>2197</ele>
        <time>2018-07-07T06:56:12.000Z</time>
      </trkpt>
      <trkpt lat="42.53522" lon="2.01772">
        <ele>2197</ele>
        <time>2018-07-07T06:56:14.000Z</time>
      </trkpt>
      <trkpt lat="42.53524" lon="2.01771">
        <ele>2197</ele>
        <time>2018-07-07T06:56:16.000Z</time>
      </trkpt>
      <trkpt lat="42.53525" lon="2.01768">
        <ele>2197</ele>
        <time>2018-07-07T06:56:18.000Z</time>
      </trkpt>
      <trkpt lat="42.53527" lon="2.01766">
        <ele>2197</ele>
        <time>2018-07-07T06:56:20.000Z</time>
      </trkpt>
      <trkpt lat="42.53529" lon="2.01763">
        <ele>2197</ele>
        <time>2018-07-07T06:56:22.000Z</time>
      </trkpt>
      <trkpt lat="42.5353" lon="2.01761">
        <ele>2197</ele>
        <time>2018-07-07T06:56:24.000Z</time>
      </trkpt>
      <trkpt lat="42.53531" lon="2.01758">
        <ele>2197</ele>
        <time>2018-07-07T06:56:26.000Z</time>
      </trkpt>
      <trkpt lat="42.53533" lon="2.01756">
        <ele>2198</ele>
        <time>2018-07-07T06:56:28.000Z</time>
      </trkpt>
      <trkpt lat="42.53534" lon="2.01753">
        <ele>2198</ele>
        <time>2018-07-07T06:56:30.000Z</time>
      </trkpt>
      <trkpt lat="42.53535" lon="2.0175">
        <ele>2198</ele>
        <time>2018-07-07T06:56:32.000Z</time>
      </trkpt>
      <trkpt lat="42.53537" lon="2.01747">
        <ele>2201</ele>
        <time>2018-07-07T06:56:34.000Z</time>
      </trkpt>
      <trkpt lat="42.53538" lon="2.01744">
        <ele>2201</ele>
        <time>2018-07-07T06:56:36.000Z</time>
      </trkpt>
      <trkpt lat="42.5354" lon="2.01742">
        <ele>2201</ele>
        <time>2018-07-07T06:56:38.000Z</time>
      </trkpt>
      <trkpt lat="42.53541" lon="2.01739">
        <ele>2201</ele>
        <time>2018-07-07T06:56:40.000Z</time>
      </trkpt>
      <trkpt lat="42.53542" lon="2.01736">
        <ele>2201</ele>
        <time>2018-07-07T06:56:42.000Z</time>
      </trkpt>
      <trkpt lat="42.53543" lon="2.01733">
        <ele>2201</ele>
        <time>2018-07-07T06:56:44.000Z</time>
      </trkpt>
      <trkpt lat="42.53544" lon="2.01729">
        <ele>2202</ele>
        <time>2018-07-07T06:56:46.000Z</time>
      </trkpt>
      <trkpt lat="42.53545" lon="2.01726">
        <ele>2202</ele>
        <time>2018-07-07T06:56:48.000Z</time>
      </trkpt>
      <trkpt lat="42.53546" lon="2.01723">
        <ele>2202</ele>
        <time>2018-07-07T06:56:50.000Z</time>
      </trkpt>
      <trkpt lat="42.53546" lon="2.0172">
        <ele>2202</ele>
        <time>2018-07-07T06:56:52.000Z</time>
      </trkpt>
      <trkpt lat="42.53546" lon="2.01717">
        <ele>2202</ele>
        <time>2018-07-07T06:56:54.000Z</time>
      </trkpt>
      <trkpt lat="42.53546" lon="2.01713">
        <ele>2202</ele>
        <time>2018-07-07T06:56:56.000Z</time>
      </trkpt>
      <trkpt lat="42.53547" lon="2.01709">
        <ele>2202</ele>
        <time>2018-07-07T06:56:58.000Z</time>
      </trkpt>
      <trkpt lat="42.53548" lon="2.01706">
        <ele>2203</ele>
        <time>2018-07-07T06:57:00.000Z</time>
      </trkpt>
      <trkpt lat="42.5355" lon="2.01702">
        <ele>2203</ele>
        <time>2018-07-07T06:57:02.000Z</time>
      </trkpt>
      <trkpt lat="42.5355" lon="2.01699">
        <ele>2203</ele>
        <time>2018-07-07T06:57:04.000Z</time>
      </trkpt>
      <trkpt lat="42.53551" lon="2.01695">
        <ele>2203</ele>
        <time>2018-07-07T06:57:06.000Z</time>
      </trkpt>
      <trkpt lat="42.53551" lon="2.01691">
        <ele>2203</ele>
        <time>2018-07-07T06:57:08.000Z</time>
      </trkpt>
      <trkpt lat="42.53552" lon="2.01687">
        <ele>2203</ele>
        <time>2018-07-07T06:57:10.000Z</time>
      </trkpt>
      <trkpt lat="42.53552" lon="2.01682">
        <ele>2204</ele>
        <time>2018-07-07T06:57:12.000Z</time>
      </trkpt>
      <trkpt lat="42.53552" lon="2.01679">
        <ele>2204</ele>
        <time>2018-07-07T06:57:14.000Z</time>
      </trkpt>
      <trkpt lat="42.53553" lon="2.01675">
        <ele>2204</ele>
        <time>2018-07-07T06:57:16.000Z</time>
      </trkpt>
      <trkpt lat="42.53553" lon="2.01671">
        <ele>2204</ele>
        <time>2018-07-07T06:57:18.000Z</time>
      </trkpt>
      <trkpt lat="42.53553" lon="2.01667">
        <ele>2207</ele>
        <time>2018-07-07T06:57:20.000Z</time>
      </trkpt>
      <trkpt lat="42.53554" lon="2.01663">
        <ele>2207</ele>
        <time>2018-07-07T06:57:22.000Z</time>
      </trkpt>
      <trkpt lat="42.53554" lon="2.01659">
        <ele>2208</ele>
        <time>2018-07-07T06:57:24.000Z</time>
      </trkpt>
      <trkpt lat="42.53554" lon="2.01655">
        <ele>2208</ele>
        <time>2018-07-07T06:57:26.000Z</time>
      </trkpt>
      <trkpt lat="42.53554" lon="2.01651">
        <ele>2208</ele>
        <time>2018-07-07T06:57:28.000Z</time>
      </trkpt>
      <trkpt lat="42.53554" lon="2.01648">
        <ele>2208</ele>
        <time>2018-07-07T06:57:30.000Z</time>
      </trkpt>
      <trkpt lat="42.53554" lon="2.01644">
        <ele>2208</ele>
        <time>2018-07-07T06:57:32.000Z</time>
      </trkpt>
      <trkpt lat="42.53554" lon="2.0164">
        <ele>2208</ele>
        <time>2018-07-07T06:57:34.000Z</time>
      </trkpt>
      <trkpt lat="42.53555" lon="2.01637">
        <ele>2208</ele>
        <time>2018-07-07T06:57:36.000Z</time>
      </trkpt>
      <trkpt lat="42.53556" lon="2.01635">
        <ele>2208</ele>
        <time>2018-07-07T06:57:37.000Z</time>
      </trkpt>
      <trkpt lat="42.53558" lon="2.01633">
        <ele>2208</ele>
        <time>2018-07-07T06:57:38.000Z</time>
      </trkpt>
      <trkpt lat="42.5356" lon="2.01632">
        <ele>2208</ele>
        <time>2018-07-07T06:57:39.000Z</time>
      </trkpt>
      <trkpt lat="42.53562" lon="2.0163">
        <ele>2208</ele>
        <time>2018-07-07T06:57:40.000Z</time>
      </trkpt>
      <trkpt lat="42.53565" lon="2.01629">
        <ele>2208</ele>
        <time>2018-07-07T06:57:41.000Z</time>
      </trkpt>
      <trkpt lat="42.53567" lon="2.01628">
        <ele>2208</ele>
        <time>2018-07-07T06:57:42.000Z</time>
      </trkpt>
      <trkpt lat="42.5357" lon="2.01627">
        <ele>2208</ele>
        <time>2018-07-07T06:57:43.000Z</time>
      </trkpt>
      <trkpt lat="42.53573" lon="2.01626">
        <ele>2208</ele>
        <time>2018-07-07T06:57:44.000Z</time>
      </trkpt>
      <trkpt lat="42.53575" lon="2.01624">
        <ele>2209</ele>
        <time>2018-07-07T06:57:45.000Z</time>
      </trkpt>
      <trkpt lat="42.53578" lon="2.01623">
        <ele>2209</ele>
        <time>2018-07-07T06:57:46.000Z</time>
      </trkpt>
      <trkpt lat="42.53581" lon="2.01623">
        <ele>2209</ele>
        <time>2018-07-07T06:57:47.000Z</time>
      </trkpt>
      <trkpt lat="42.53583" lon="2.01623">
        <ele>2206</ele>
        <time>2018-07-07T06:57:48.000Z</time>
      </trkpt>
      <trkpt lat="42.53586" lon="2.01622">
        <ele>2206</ele>
        <time>2018-07-07T06:57:49.000Z</time>
      </trkpt>
      <trkpt lat="42.53589" lon="2.01622">
        <ele>2206</ele>
        <time>2018-07-07T06:57:50.000Z</time>
      </trkpt>
      <trkpt lat="42.53592" lon="2.01622">
        <ele>2206</ele>
        <time>2018-07-07T06:57:51.000Z</time>
      </trkpt>
      <trkpt lat="42.53594" lon="2.01622">
        <ele>2206</ele>
        <time>2018-07-07T06:57:52.000Z</time>
      </trkpt>
      <trkpt lat="42.53597" lon="2.01621">
        <ele>2206</ele>
        <time>2018-07-07T06:57:53.000Z</time>
      </trkpt>
      <trkpt lat="42.536" lon="2.01621">
        <ele>2206</ele>
        <time>2018-07-07T06:57:54.000Z</time>
      </trkpt>
      <trkpt lat="42.53602" lon="2.01621">
        <ele>2206</ele>
        <time>2018-07-07T06:57:55.000Z</time>
      </trkpt>
      <trkpt lat="42.53605" lon="2.0162">
        <ele>2206</ele>
        <time>2018-07-07T06:57:56.000Z</time>
      </trkpt>
      <trkpt lat="42.53608" lon="2.0162">
        <ele>2206</ele>
        <time>2018-07-07T06:57:57.000Z</time>
      </trkpt>
      <trkpt lat="42.53611" lon="2.0162">
        <ele>2206</ele>
        <time>2018-07-07T06:57:58.000Z</time>
      </trkpt>
      <trkpt lat="42.53613" lon="2.0162">
        <ele>2205</ele>
        <time>2018-07-07T06:57:59.000Z</time>
      </trkpt>
      <trkpt lat="42.53616" lon="2.0162">
        <ele>2205</ele>
        <time>2018-07-07T06:58:00.000Z</time>
      </trkpt>
      <trkpt lat="42.53619" lon="2.01619">
        <ele>2205</ele>
        <time>2018-07-07T06:58:01.000Z</time>
      </trkpt>
      <trkpt lat="42.53622" lon="2.01619">
        <ele>2205</ele>
        <time>2018-07-07T06:58:02.000Z</time>
      </trkpt>
      <trkpt lat="42.53625" lon="2.01619">
        <ele>2205</ele>
        <time>2018-07-07T06:58:03.000Z</time>
      </trkpt>
      <trkpt lat="42.53627" lon="2.01618">
        <ele>2205</ele>
        <time>2018-07-07T06:58:04.000Z</time>
      </trkpt>
      <trkpt lat="42.5363" lon="2.01618">
        <ele>2205</ele>
        <time>2018-07-07T06:58:05.000Z</time>
      </trkpt>
      <trkpt lat="42.53633" lon="2.01617">
        <ele>2204</ele>
        <time>2018-07-07T06:58:06.000Z</time>
      </trkpt>
      <trkpt lat="42.53636" lon="2.01617">
        <ele>2204</ele>
        <time>2018-07-07T06:58:07.000Z</time>
      </trkpt>
      <trkpt lat="42.53638" lon="2.01617">
        <ele>2204</ele>
        <time>2018-07-07T06:58:08.000Z</time>
      </trkpt>
      <trkpt lat="42.53641" lon="2.01616">
        <ele>2204</ele>
        <time>2018-07-07T06:58:09.000Z</time>
      </trkpt>
      <trkpt lat="42.53644" lon="2.01614">
        <ele>2204</ele>
        <time>2018-07-07T06:58:10.000Z</time>
      </trkpt>
      <trkpt lat="42.53647" lon="2.01612">
        <ele>2204</ele>
        <time>2018-07-07T06:58:11.000Z</time>
      </trkpt>
      <trkpt lat="42.5365" lon="2.0161">
        <ele>2203</ele>
        <time>2018-07-07T06:58:12.000Z</time>
      </trkpt>
      <trkpt lat="42.53653" lon="2.01607">
        <ele>2203</ele>
        <time>2018-07-07T06:58:13.000Z</time>
      </trkpt>
      <trkpt lat="42.53655" lon="2.01605">
        <ele>2203</ele>
        <time>2018-07-07T06:58:14.000Z</time>
      </trkpt>
      <trkpt lat="42.53657" lon="2.01602">
        <ele>2203</ele>
        <time>2018-07-07T06:58:15.000Z</time>
      </trkpt>
      <trkpt lat="42.53659" lon="2.016">
        <ele>2202</ele>
        <time>2018-07-07T06:58:16.000Z</time>
      </trkpt>
      <trkpt lat="42.5366" lon="2.01597">
        <ele>2202</ele>
        <time>2018-07-07T06:58:17.000Z</time>
      </trkpt>
      <trkpt lat="42.53662" lon="2.01595">
        <ele>2202</ele>
        <time>2018-07-07T06:58:18.000Z</time>
      </trkpt>
      <trkpt lat="42.53663" lon="2.01592">
        <ele>2202</ele>
        <time>2018-07-07T06:58:19.000Z</time>
      </trkpt>
      <trkpt lat="42.53665" lon="2.01589">
        <ele>2201</ele>
        <time>2018-07-07T06:58:20.000Z</time>
      </trkpt>
      <trkpt lat="42.53667" lon="2.01586">
        <ele>2201</ele>
        <time>2018-07-07T06:58:21.000Z</time>
      </trkpt>
      <trkpt lat="42.53668" lon="2.01583">
        <ele>2200</ele>
        <time>2018-07-07T06:58:22.000Z</time>
      </trkpt>
      <trkpt lat="42.53669" lon="2.01581">
        <ele>2199</ele>
        <time>2018-07-07T06:58:23.000Z</time>
      </trkpt>
      <trkpt lat="42.53671" lon="2.01578">
        <ele>2198</ele>
        <time>2018-07-07T06:58:24.000Z</time>
      </trkpt>
      <trkpt lat="42.53673" lon="2.01576">
        <ele>2198</ele>
        <time>2018-07-07T06:58:25.000Z</time>
      </trkpt>
      <trkpt lat="42.53674" lon="2.01573">
        <ele>2197</ele>
        <time>2018-07-07T06:58:26.000Z</time>
      </trkpt>
      <trkpt lat="42.53676" lon="2.0157">
        <ele>2197</ele>
        <time>2018-07-07T06:58:27.000Z</time>
      </trkpt>
      <trkpt lat="42.53678" lon="2.01568">
        <ele>2196</ele>
        <time>2018-07-07T06:58:28.000Z</time>
      </trkpt>
      <trkpt lat="42.5368" lon="2.01566">
        <ele>2196</ele>
        <time>2018-07-07T06:58:29.000Z</time>
      </trkpt>
      <trkpt lat="42.53682" lon="2.01564">
        <ele>2196</ele>
        <time>2018-07-07T06:58:30.000Z</time>
      </trkpt>
      <trkpt lat="42.53683" lon="2.01561">
        <ele>2195</ele>
        <time>2018-07-07T06:58:31.000Z</time>
      </trkpt>
      <trkpt lat="42.53685" lon="2.01559">
        <ele>2195</ele>
        <time>2018-07-07T06:58:32.000Z</time>
      </trkpt>
      <trkpt lat="42.53687" lon="2.01557">
        <ele>2195</ele>
        <time>2018-07-07T06:58:33.000Z</time>
      </trkpt>
      <trkpt lat="42.53689" lon="2.01554">
        <ele>2195</ele>
        <time>2018-07-07T06:58:34.000Z</time>
      </trkpt>
      <trkpt lat="42.53691" lon="2.01552">
        <ele>2194</ele>
        <time>2018-07-07T06:58:35.000Z</time>
      </trkpt>
      <trkpt lat="42.53693" lon="2.0155">
        <ele>2194</ele>
        <time>2018-07-07T06:58:36.000Z</time>
      </trkpt>
      <trkpt lat="42.53695" lon="2.01548">
        <ele>2194</ele>
        <time>2018-07-07T06:58:37.000Z</time>
      </trkpt>
      <trkpt lat="42.53697" lon="2.01546">
        <ele>2194</ele>
        <time>2018-07-07T06:58:38.000Z</time>
      </trkpt>
      <trkpt lat="42.53699" lon="2.01544">
        <ele>2194</ele>
        <time>2018-07-07T06:58:39.000Z</time>
      </trkpt>
      <trkpt lat="42.53701" lon="2.01542">
        <ele>2193</ele>
        <time>2018-07-07T06:58:40.000Z</time>
      </trkpt>
      <trkpt lat="42.53702" lon="2.0154">
        <ele>2193</ele>
        <time>2018-07-07T06:58:41.000Z</time>
      </trkpt>
      <trkpt lat="42.53704" lon="2.01538">
        <ele>2193</ele>
        <time>2018-07-07T06:58:42.000Z</time>
      </trkpt>
      <trkpt lat="42.53706" lon="2.01536">
        <ele>2193</ele>
        <time>2018-07-07T06:58:43.000Z</time>
      </trkpt>
      <trkpt lat="42.53708" lon="2.01533">
        <ele>2193</ele>
        <time>2018-07-07T06:58:44.000Z</time>
      </trkpt>
      <trkpt lat="42.5371" lon="2.01531">
        <ele>2192</ele>
        <time>2018-07-07T06:58:45.000Z</time>
      </trkpt>
      <trkpt lat="42.53712" lon="2.01529">
        <ele>2192</ele>
        <time>2018-07-07T06:58:46.000Z</time>
      </trkpt>
      <trkpt lat="42.53713" lon="2.01527">
        <ele>2192</ele>
        <time>2018-07-07T06:58:47.000Z</time>
      </trkpt>
      <trkpt lat="42.53716" lon="2.01525">
        <ele>2192</ele>
        <time>2018-07-07T06:58:49.000Z</time>
      </trkpt>
      <trkpt lat="42.53719" lon="2.01521">
        <ele>2191</ele>
        <time>2018-07-07T06:58:51.000Z</time>
      </trkpt>
      <trkpt lat="42.53721" lon="2.0152">
        <ele>2191</ele>
        <time>2018-07-07T06:58:52.000Z</time>
      </trkpt>
      <trkpt lat="42.53722" lon="2.01518">
        <ele>2191</ele>
        <time>2018-07-07T06:58:53.000Z</time>
      </trkpt>
      <trkpt lat="42.53724" lon="2.01516">
        <ele>2190</ele>
        <time>2018-07-07T06:58:54.000Z</time>
      </trkpt>
      <trkpt lat="42.53726" lon="2.01513">
        <ele>2190</ele>
        <time>2018-07-07T06:58:56.000Z</time>
      </trkpt>
      <trkpt lat="42.53727" lon="2.0151">
        <ele>2189</ele>
        <time>2018-07-07T06:58:58.000Z</time>
      </trkpt>
      <trkpt lat="42.5373" lon="2.01506">
        <ele>2189</ele>
        <time>2018-07-07T06:59:00.000Z</time>
      </trkpt>
      <trkpt lat="42.53732" lon="2.01504">
        <ele>2188</ele>
        <time>2018-07-07T06:59:01.000Z</time>
      </trkpt>
      <trkpt lat="42.53734" lon="2.01502">
        <ele>2188</ele>
        <time>2018-07-07T06:59:02.000Z</time>
      </trkpt>
      <trkpt lat="42.53736" lon="2.01499">
        <ele>2186</ele>
        <time>2018-07-07T06:59:03.000Z</time>
      </trkpt>
      <trkpt lat="42.53738" lon="2.01497">
        <ele>2185</ele>
        <time>2018-07-07T06:59:04.000Z</time>
      </trkpt>
      <trkpt lat="42.53741" lon="2.01495">
        <ele>2185</ele>
        <time>2018-07-07T06:59:05.000Z</time>
      </trkpt>
      <trkpt lat="42.53743" lon="2.01493">
        <ele>2185</ele>
        <time>2018-07-07T06:59:06.000Z</time>
      </trkpt>
      <trkpt lat="42.53745" lon="2.0149">
        <ele>2185</ele>
        <time>2018-07-07T06:59:07.000Z</time>
      </trkpt>
      <trkpt lat="42.53748" lon="2.01488">
        <ele>2185</ele>
        <time>2018-07-07T06:59:08.000Z</time>
      </trkpt>
      <trkpt lat="42.5375" lon="2.01486">
        <ele>2185</ele>
        <time>2018-07-07T06:59:09.000Z</time>
      </trkpt>
      <trkpt lat="42.53752" lon="2.01484">
        <ele>2178</ele>
        <time>2018-07-07T06:59:10.000Z</time>
      </trkpt>
      <trkpt lat="42.53754" lon="2.01482">
        <ele>2178</ele>
        <time>2018-07-07T06:59:11.000Z</time>
      </trkpt>
      <trkpt lat="42.53756" lon="2.01479">
        <ele>2177</ele>
        <time>2018-07-07T06:59:12.000Z</time>
      </trkpt>
      <trkpt lat="42.53758" lon="2.01476">
        <ele>2177</ele>
        <time>2018-07-07T06:59:13.000Z</time>
      </trkpt>
      <trkpt lat="42.5376" lon="2.01473">
        <ele>2176</ele>
        <time>2018-07-07T06:59:14.000Z</time>
      </trkpt>
      <trkpt lat="42.53762" lon="2.0147">
        <ele>2176</ele>
        <time>2018-07-07T06:59:15.000Z</time>
      </trkpt>
      <trkpt lat="42.53764" lon="2.01467">
        <ele>2175</ele>
        <time>2018-07-07T06:59:16.000Z</time>
      </trkpt>
      <trkpt lat="42.53767" lon="2.01464">
        <ele>2175</ele>
        <time>2018-07-07T06:59:17.000Z</time>
      </trkpt>
      <trkpt lat="42.53769" lon="2.01462">
        <ele>2175</ele>
        <time>2018-07-07T06:59:18.000Z</time>
      </trkpt>
      <trkpt lat="42.53772" lon="2.0146">
        <ele>2174</ele>
        <time>2018-07-07T06:59:19.000Z</time>
      </trkpt>
      <trkpt lat="42.53774" lon="2.01458">
        <ele>2174</ele>
        <time>2018-07-07T06:59:20.000Z</time>
      </trkpt>
      <trkpt lat="42.53776" lon="2.01456">
        <ele>2174</ele>
        <time>2018-07-07T06:59:21.000Z</time>
      </trkpt>
      <trkpt lat="42.53778" lon="2.01453">
        <ele>2174</ele>
        <time>2018-07-07T06:59:22.000Z</time>
      </trkpt>
      <trkpt lat="42.5378" lon="2.01451">
        <ele>2173</ele>
        <time>2018-07-07T06:59:23.000Z</time>
      </trkpt>
      <trkpt lat="42.53782" lon="2.0145">
        <ele>2173</ele>
        <time>2018-07-07T06:59:24.000Z</time>
      </trkpt>
      <trkpt lat="42.53784" lon="2.01448">
        <ele>2173</ele>
        <time>2018-07-07T06:59:25.000Z</time>
      </trkpt>
      <trkpt lat="42.53785" lon="2.01446">
        <ele>2173</ele>
        <time>2018-07-07T06:59:26.000Z</time>
      </trkpt>
      <trkpt lat="42.53787" lon="2.01444">
        <ele>2172</ele>
        <time>2018-07-07T06:59:27.000Z</time>
      </trkpt>
      <trkpt lat="42.53789" lon="2.01442">
        <ele>2172</ele>
        <time>2018-07-07T06:59:28.000Z</time>
      </trkpt>
      <trkpt lat="42.53791" lon="2.0144">
        <ele>2172</ele>
        <time>2018-07-07T06:59:29.000Z</time>
      </trkpt>
      <trkpt lat="42.53793" lon="2.01437">
        <ele>2171</ele>
        <time>2018-07-07T06:59:30.000Z</time>
      </trkpt>
      <trkpt lat="42.53795" lon="2.01435">
        <ele>2171</ele>
        <time>2018-07-07T06:59:31.000Z</time>
      </trkpt>
      <trkpt lat="42.53796" lon="2.01433">
        <ele>2171</ele>
        <time>2018-07-07T06:59:32.000Z</time>
      </trkpt>
      <trkpt lat="42.53799" lon="2.01431">
        <ele>2170</ele>
        <time>2018-07-07T06:59:33.000Z</time>
      </trkpt>
      <trkpt lat="42.53801" lon="2.01429">
        <ele>2170</ele>
        <time>2018-07-07T06:59:34.000Z</time>
      </trkpt>
      <trkpt lat="42.53803" lon="2.01428">
        <ele>2170</ele>
        <time>2018-07-07T06:59:35.000Z</time>
      </trkpt>
      <trkpt lat="42.53805" lon="2.01426">
        <ele>2169</ele>
        <time>2018-07-07T06:59:36.000Z</time>
      </trkpt>
      <trkpt lat="42.53806" lon="2.01423">
        <ele>2169</ele>
        <time>2018-07-07T06:59:37.000Z</time>
      </trkpt>
      <trkpt lat="42.53808" lon="2.01421">
        <ele>2168</ele>
        <time>2018-07-07T06:59:38.000Z</time>
      </trkpt>
      <trkpt lat="42.53809" lon="2.0142">
        <ele>2168</ele>
        <time>2018-07-07T06:59:39.000Z</time>
      </trkpt>
      <trkpt lat="42.53811" lon="2.01417">
        <ele>2167</ele>
        <time>2018-07-07T06:59:40.000Z</time>
      </trkpt>
      <trkpt lat="42.53813" lon="2.01415">
        <ele>2165</ele>
        <time>2018-07-07T06:59:41.000Z</time>
      </trkpt>
      <trkpt lat="42.53815" lon="2.01414">
        <ele>2164</ele>
        <time>2018-07-07T06:59:42.000Z</time>
      </trkpt>
      <trkpt lat="42.53817" lon="2.01412">
        <ele>2164</ele>
        <time>2018-07-07T06:59:43.000Z</time>
      </trkpt>
      <trkpt lat="42.53819" lon="2.0141">
        <ele>2164</ele>
        <time>2018-07-07T06:59:44.000Z</time>
      </trkpt>
      <trkpt lat="42.53821" lon="2.01408">
        <ele>2164</ele>
        <time>2018-07-07T06:59:45.000Z</time>
      </trkpt>
      <trkpt lat="42.53823" lon="2.01406">
        <ele>2163</ele>
        <time>2018-07-07T06:59:46.000Z</time>
      </trkpt>
      <trkpt lat="42.53825" lon="2.01403">
        <ele>2163</ele>
        <time>2018-07-07T06:59:47.000Z</time>
      </trkpt>
      <trkpt lat="42.53827" lon="2.01401">
        <ele>2164</ele>
        <time>2018-07-07T06:59:48.000Z</time>
      </trkpt>
      <trkpt lat="42.53828" lon="2.01399">
        <ele>2164</ele>
        <time>2018-07-07T06:59:49.000Z</time>
      </trkpt>
      <trkpt lat="42.5383" lon="2.01396">
        <ele>2164</ele>
        <time>2018-07-07T06:59:50.000Z</time>
      </trkpt>
      <trkpt lat="42.53832" lon="2.01394">
        <ele>2164</ele>
        <time>2018-07-07T06:59:51.000Z</time>
      </trkpt>
      <trkpt lat="42.53834" lon="2.01392">
        <ele>2151</ele>
        <time>2018-07-07T06:59:52.000Z</time>
      </trkpt>
      <trkpt lat="42.53836" lon="2.01389">
        <ele>2150</ele>
        <time>2018-07-07T06:59:53.000Z</time>
      </trkpt>
      <trkpt lat="42.53838" lon="2.01387">
        <ele>2150</ele>
        <time>2018-07-07T06:59:54.000Z</time>
      </trkpt>
      <trkpt lat="42.5384" lon="2.01385">
        <ele>2150</ele>
        <time>2018-07-07T06:59:55.000Z</time>
      </trkpt>
      <trkpt lat="42.53842" lon="2.01382">
        <ele>2149</ele>
        <time>2018-07-07T06:59:56.000Z</time>
      </trkpt>
      <trkpt lat="42.53843" lon="2.0138">
        <ele>2149</ele>
        <time>2018-07-07T06:59:57.000Z</time>
      </trkpt>
      <trkpt lat="42.53845" lon="2.01378">
        <ele>2148</ele>
        <time>2018-07-07T06:59:58.000Z</time>
      </trkpt>
      <trkpt lat="42.53848" lon="2.01376">
        <ele>2148</ele>
        <time>2018-07-07T06:59:59.000Z</time>
      </trkpt>
      <trkpt lat="42.53851" lon="2.01374">
        <ele>2148</ele>
        <time>2018-07-07T07:00:00.000Z</time>
      </trkpt>
      <trkpt lat="42.53853" lon="2.01372">
        <ele>2147</ele>
        <time>2018-07-07T07:00:01.000Z</time>
      </trkpt>
      <trkpt lat="42.53857" lon="2.01367">
        <ele>2147</ele>
        <time>2018-07-07T07:00:03.000Z</time>
      </trkpt>
      <trkpt lat="42.53859" lon="2.01364">
        <ele>2147</ele>
        <time>2018-07-07T07:00:04.000Z</time>
      </trkpt>
      <trkpt lat="42.53862" lon="2.01361">
        <ele>2146</ele>
        <time>2018-07-07T07:00:05.000Z</time>
      </trkpt>
      <trkpt lat="42.53864" lon="2.01359">
        <ele>2146</ele>
        <time>2018-07-07T07:00:06.000Z</time>
      </trkpt>
      <trkpt lat="42.53866" lon="2.01357">
        <ele>2146</ele>
        <time>2018-07-07T07:00:07.000Z</time>
      </trkpt>
      <trkpt lat="42.53869" lon="2.01354">
        <ele>2145</ele>
        <time>2018-07-07T07:00:08.000Z</time>
      </trkpt>
      <trkpt lat="42.53871" lon="2.01352">
        <ele>2145</ele>
        <time>2018-07-07T07:00:09.000Z</time>
      </trkpt>
      <trkpt lat="42.53873" lon="2.01349">
        <ele>2144</ele>
        <time>2018-07-07T07:00:10.000Z</time>
      </trkpt>
      <trkpt lat="42.53876" lon="2.01347">
        <ele>2144</ele>
        <time>2018-07-07T07:00:11.000Z</time>
      </trkpt>
      <trkpt lat="42.53878" lon="2.01344">
        <ele>2143</ele>
        <time>2018-07-07T07:00:12.000Z</time>
      </trkpt>
      <trkpt lat="42.5388" lon="2.01342">
        <ele>2143</ele>
        <time>2018-07-07T07:00:13.000Z</time>
      </trkpt>
      <trkpt lat="42.53882" lon="2.0134">
        <ele>2142</ele>
        <time>2018-07-07T07:00:14.000Z</time>
      </trkpt>
      <trkpt lat="42.53885" lon="2.01338">
        <ele>2142</ele>
        <time>2018-07-07T07:00:15.000Z</time>
      </trkpt>
      <trkpt lat="42.53887" lon="2.01336">
        <ele>2141</ele>
        <time>2018-07-07T07:00:16.000Z</time>
      </trkpt>
      <trkpt lat="42.53889" lon="2.01334">
        <ele>2141</ele>
        <time>2018-07-07T07:00:17.000Z</time>
      </trkpt>
      <trkpt lat="42.53891" lon="2.01331">
        <ele>2138</ele>
        <time>2018-07-07T07:00:19.000Z</time>
      </trkpt>
      <trkpt lat="42.53893" lon="2.01327">
        <ele>2138</ele>
        <time>2018-07-07T07:00:21.000Z</time>
      </trkpt>
      <trkpt lat="42.53895" lon="2.01325">
        <ele>2138</ele>
        <time>2018-07-07T07:00:22.000Z</time>
      </trkpt>
      <trkpt lat="42.53897" lon="2.01322">
        <ele>2137</ele>
        <time>2018-07-07T07:00:24.000Z</time>
      </trkpt>
      <trkpt lat="42.53898" lon="2.0132">
        <ele>2137</ele>
        <time>2018-07-07T07:00:25.000Z</time>
      </trkpt>
      <trkpt lat="42.53899" lon="2.01316">
        <ele>2137</ele>
        <time>2018-07-07T07:00:26.000Z</time>
      </trkpt>
      <trkpt lat="42.53897" lon="2.01314">
        <ele>2138</ele>
        <time>2018-07-07T07:00:27.000Z</time>
      </trkpt>
      <trkpt lat="42.53896" lon="2.01311">
        <ele>2138</ele>
        <time>2018-07-07T07:00:28.000Z</time>
      </trkpt>
      <trkpt lat="42.53898" lon="2.01308">
        <ele>2138</ele>
        <time>2018-07-07T07:00:30.000Z</time>
      </trkpt>
      <trkpt lat="42.539" lon="2.01307">
        <ele>2137</ele>
        <time>2018-07-07T07:00:31.000Z</time>
      </trkpt>
      <trkpt lat="42.53903" lon="2.01305">
        <ele>2137</ele>
        <time>2018-07-07T07:00:32.000Z</time>
      </trkpt>
      <trkpt lat="42.53904" lon="2.01303">
        <ele>2137</ele>
        <time>2018-07-07T07:00:33.000Z</time>
      </trkpt>
      <trkpt lat="42.53906" lon="2.01301">
        <ele>2137</ele>
        <time>2018-07-07T07:00:34.000Z</time>
      </trkpt>
      <trkpt lat="42.53908" lon="2.01299">
        <ele>2137</ele>
        <time>2018-07-07T07:00:35.000Z</time>
      </trkpt>
      <trkpt lat="42.5391" lon="2.01297">
        <ele>2137</ele>
        <time>2018-07-07T07:00:36.000Z</time>
      </trkpt>
      <trkpt lat="42.53912" lon="2.01296">
        <ele>2137</ele>
        <time>2018-07-07T07:00:37.000Z</time>
      </trkpt>
      <trkpt lat="42.53914" lon="2.01294">
        <ele>2137</ele>
        <time>2018-07-07T07:00:38.000Z</time>
      </trkpt>
      <trkpt lat="42.53916" lon="2.01293">
        <ele>2136</ele>
        <time>2018-07-07T07:00:39.000Z</time>
      </trkpt>
      <trkpt lat="42.53918" lon="2.01291">
        <ele>2119</ele>
        <time>2018-07-07T07:00:40.000Z</time>
      </trkpt>
      <trkpt lat="42.5392" lon="2.01289">
        <ele>2119</ele>
        <time>2018-07-07T07:00:41.000Z</time>
      </trkpt>
      <trkpt lat="42.53922" lon="2.01288">
        <ele>2119</ele>
        <time>2018-07-07T07:00:42.000Z</time>
      </trkpt>
      <trkpt lat="42.53924" lon="2.01287">
        <ele>2119</ele>
        <time>2018-07-07T07:00:43.000Z</time>
      </trkpt>
      <trkpt lat="42.53926" lon="2.01286">
        <ele>2119</ele>
        <time>2018-07-07T07:00:44.000Z</time>
      </trkpt>
      <trkpt lat="42.53928" lon="2.01285">
        <ele>2118</ele>
        <time>2018-07-07T07:00:46.000Z</time>
      </trkpt>
      <trkpt lat="42.53931" lon="2.01283">
        <ele>2118</ele>
        <time>2018-07-07T07:00:48.000Z</time>
      </trkpt>
      <trkpt lat="42.53933" lon="2.01281">
        <ele>2118</ele>
        <time>2018-07-07T07:00:50.000Z</time>
      </trkpt>
      <trkpt lat="42.53936" lon="2.0128">
        <ele>2117</ele>
        <time>2018-07-07T07:00:52.000Z</time>
      </trkpt>
      <trkpt lat="42.53938" lon="2.01279">
        <ele>2117</ele>
        <time>2018-07-07T07:00:53.000Z</time>
      </trkpt>
      <trkpt lat="42.5394" lon="2.01278">
        <ele>2117</ele>
        <time>2018-07-07T07:00:54.000Z</time>
      </trkpt>
      <trkpt lat="42.53942" lon="2.01276">
        <ele>2117</ele>
        <time>2018-07-07T07:00:56.000Z</time>
      </trkpt>
      <trkpt lat="42.53943" lon="2.01274">
        <ele>2116</ele>
        <time>2018-07-07T07:00:58.000Z</time>
      </trkpt>
      <trkpt lat="42.53946" lon="2.01273">
        <ele>2116</ele>
        <time>2018-07-07T07:01:01.000Z</time>
      </trkpt>
      <trkpt lat="42.53949" lon="2.01271">
        <ele>2115</ele>
        <time>2018-07-07T07:01:03.000Z</time>
      </trkpt>
      <trkpt lat="42.53951" lon="2.01269">
        <ele>2115</ele>
        <time>2018-07-07T07:01:05.000Z</time>
      </trkpt>
      <trkpt lat="42.53954" lon="2.01266">
        <ele>2114</ele>
        <time>2018-07-07T07:01:07.000Z</time>
      </trkpt>
      <trkpt lat="42.53957" lon="2.01264">
        <ele>2113</ele>
        <time>2018-07-07T07:01:09.000Z</time>
      </trkpt>
      <trkpt lat="42.53959" lon="2.01263">
        <ele>2113</ele>
        <time>2018-07-07T07:01:10.000Z</time>
      </trkpt>
      <trkpt lat="42.53961" lon="2.01262">
        <ele>2112</ele>
        <time>2018-07-07T07:01:11.000Z</time>
      </trkpt>
      <trkpt lat="42.53963" lon="2.0126">
        <ele>2112</ele>
        <time>2018-07-07T07:01:12.000Z</time>
      </trkpt>
      <trkpt lat="42.53964" lon="2.01259">
        <ele>2111</ele>
        <time>2018-07-07T07:01:13.000Z</time>
      </trkpt>
      <trkpt lat="42.53966" lon="2.01257">
        <ele>2111</ele>
        <time>2018-07-07T07:01:14.000Z</time>
      </trkpt>
      <trkpt lat="42.53967" lon="2.01256">
        <ele>2110</ele>
        <time>2018-07-07T07:01:15.000Z</time>
      </trkpt>
      <trkpt lat="42.53969" lon="2.01253">
        <ele>2110</ele>
        <time>2018-07-07T07:01:17.000Z</time>
      </trkpt>
      <trkpt lat="42.53972" lon="2.0125">
        <ele>2109</ele>
        <time>2018-07-07T07:01:19.000Z</time>
      </trkpt>
      <trkpt lat="42.53974" lon="2.01249">
        <ele>2106</ele>
        <time>2018-07-07T07:01:20.000Z</time>
      </trkpt>
      <trkpt lat="42.53975" lon="2.01247">
        <ele>2105</ele>
        <time>2018-07-07T07:01:21.000Z</time>
      </trkpt>
      <trkpt lat="42.53977" lon="2.01246">
        <ele>2105</ele>
        <time>2018-07-07T07:01:22.000Z</time>
      </trkpt>
      <trkpt lat="42.53979" lon="2.01245">
        <ele>2105</ele>
        <time>2018-07-07T07:01:23.000Z</time>
      </trkpt>
      <trkpt lat="42.53982" lon="2.01244">
        <ele>2103</ele>
        <time>2018-07-07T07:01:25.000Z</time>
      </trkpt>
      <trkpt lat="42.53984" lon="2.01244">
        <ele>2103</ele>
        <time>2018-07-07T07:01:26.000Z</time>
      </trkpt>
      <trkpt lat="42.53987" lon="2.01243">
        <ele>2102</ele>
        <time>2018-07-07T07:01:27.000Z</time>
      </trkpt>
      <trkpt lat="42.53989" lon="2.01242">
        <ele>2102</ele>
        <time>2018-07-07T07:01:28.000Z</time>
      </trkpt>
      <trkpt lat="42.53998" lon="2.0124">
        <ele>2100</ele>
        <time>2018-07-07T07:01:31.000Z</time>
      </trkpt>
      <trkpt lat="42.54008" lon="2.01238">
        <ele>2090</ele>
        <time>2018-07-07T07:01:34.000Z</time>
      </trkpt>
      <trkpt lat="42.5401" lon="2.01237">
        <ele>2090</ele>
        <time>2018-07-07T07:01:35.000Z</time>
      </trkpt>
      <trkpt lat="42.54013" lon="2.01234">
        <ele>2089</ele>
        <time>2018-07-07T07:01:37.000Z</time>
      </trkpt>
      <trkpt lat="42.54015" lon="2.01233">
        <ele>2088</ele>
        <time>2018-07-07T07:01:38.000Z</time>
      </trkpt>
      <trkpt lat="42.54016" lon="2.01231">
        <ele>2088</ele>
        <time>2018-07-07T07:01:39.000Z</time>
      </trkpt>
      <trkpt lat="42.54019" lon="2.01228">
        <ele>2087</ele>
        <time>2018-07-07T07:01:41.000Z</time>
      </trkpt>
      <trkpt lat="42.54021" lon="2.01224">
        <ele>2086</ele>
        <time>2018-07-07T07:01:43.000Z</time>
      </trkpt>
      <trkpt lat="42.54023" lon="2.01222">
        <ele>2086</ele>
        <time>2018-07-07T07:01:44.000Z</time>
      </trkpt>
      <trkpt lat="42.54024" lon="2.01221">
        <ele>2086</ele>
        <time>2018-07-07T07:01:45.000Z</time>
      </trkpt>
      <trkpt lat="42.54026" lon="2.01219">
        <ele>2085</ele>
        <time>2018-07-07T07:01:46.000Z</time>
      </trkpt>
      <trkpt lat="42.54027" lon="2.01218">
        <ele>2085</ele>
        <time>2018-07-07T07:01:47.000Z</time>
      </trkpt>
      <trkpt lat="42.54029" lon="2.01216">
        <ele>2085</ele>
        <time>2018-07-07T07:01:48.000Z</time>
      </trkpt>
      <trkpt lat="42.54031" lon="2.01214">
        <ele>2085</ele>
        <time>2018-07-07T07:01:49.000Z</time>
      </trkpt>
      <trkpt lat="42.54033" lon="2.01212">
        <ele>2084</ele>
        <time>2018-07-07T07:01:50.000Z</time>
      </trkpt>
      <trkpt lat="42.54035" lon="2.01211">
        <ele>2084</ele>
        <time>2018-07-07T07:01:51.000Z</time>
      </trkpt>
      <trkpt lat="42.54037" lon="2.01209">
        <ele>2084</ele>
        <time>2018-07-07T07:01:52.000Z</time>
      </trkpt>
      <trkpt lat="42.5404" lon="2.01209">
        <ele>2083</ele>
        <time>2018-07-07T07:01:53.000Z</time>
      </trkpt>
      <trkpt lat="42.54042" lon="2.01208">
        <ele>2083</ele>
        <time>2018-07-07T07:01:54.000Z</time>
      </trkpt>
      <trkpt lat="42.54045" lon="2.01208">
        <ele>2083</ele>
        <time>2018-07-07T07:01:55.000Z</time>
      </trkpt>
      <trkpt lat="42.54047" lon="2.01207">
        <ele>2082</ele>
        <time>2018-07-07T07:01:57.000Z</time>
      </trkpt>
      <trkpt lat="42.5405" lon="2.01207">
        <ele>2082</ele>
        <time>2018-07-07T07:01:59.000Z</time>
      </trkpt>
      <trkpt lat="42.54052" lon="2.01206">
        <ele>2082</ele>
        <time>2018-07-07T07:02:00.000Z</time>
      </trkpt>
      <trkpt lat="42.54054" lon="2.01206">
        <ele>2081</ele>
        <time>2018-07-07T07:02:01.000Z</time>
      </trkpt>
      <trkpt lat="42.54056" lon="2.01206">
        <ele>2081</ele>
        <time>2018-07-07T07:02:02.000Z</time>
      </trkpt>
      <trkpt lat="42.54058" lon="2.01206">
        <ele>2081</ele>
        <time>2018-07-07T07:02:03.000Z</time>
      </trkpt>
      <trkpt lat="42.54061" lon="2.01206">
        <ele>2081</ele>
        <time>2018-07-07T07:02:04.000Z</time>
      </trkpt>
      <trkpt lat="42.54063" lon="2.01206">
        <ele>2080</ele>
        <time>2018-07-07T07:02:05.000Z</time>
      </trkpt>
      <trkpt lat="42.54066" lon="2.01205">
        <ele>2080</ele>
        <time>2018-07-07T07:02:07.000Z</time>
      </trkpt>
      <trkpt lat="42.54068" lon="2.01204">
        <ele>2080</ele>
        <time>2018-07-07T07:02:08.000Z</time>
      </trkpt>
      <trkpt lat="42.5407" lon="2.01203">
        <ele>2080</ele>
        <time>2018-07-07T07:02:09.000Z</time>
      </trkpt>
      <trkpt lat="42.54073" lon="2.01202">
        <ele>2079</ele>
        <time>2018-07-07T07:02:10.000Z</time>
      </trkpt>
      <trkpt lat="42.54076" lon="2.01201">
        <ele>2079</ele>
        <time>2018-07-07T07:02:11.000Z</time>
      </trkpt>
      <trkpt lat="42.54079" lon="2.012">
        <ele>2079</ele>
        <time>2018-07-07T07:02:12.000Z</time>
      </trkpt>
      <trkpt lat="42.54081" lon="2.01198">
        <ele>2078</ele>
        <time>2018-07-07T07:02:13.000Z</time>
      </trkpt>
      <trkpt lat="42.54084" lon="2.01196">
        <ele>2067</ele>
        <time>2018-07-07T07:02:14.000Z</time>
      </trkpt>
      <trkpt lat="42.54086" lon="2.01193">
        <ele>2067</ele>
        <time>2018-07-07T07:02:15.000Z</time>
      </trkpt>
      <trkpt lat="42.54086" lon="2.0119">
        <ele>2067</ele>
        <time>2018-07-07T07:02:16.000Z</time>
      </trkpt>
      <trkpt lat="42.54087" lon="2.01188">
        <ele>2067</ele>
        <time>2018-07-07T07:02:17.000Z</time>
      </trkpt>
      <trkpt lat="42.54089" lon="2.01186">
        <ele>2067</ele>
        <time>2018-07-07T07:02:18.000Z</time>
      </trkpt>
      <trkpt lat="42.5409" lon="2.01183">
        <ele>2068</ele>
        <time>2018-07-07T07:02:19.000Z</time>
      </trkpt>
      <trkpt lat="42.54091" lon="2.01178">
        <ele>2068</ele>
        <time>2018-07-07T07:02:21.000Z</time>
      </trkpt>
      <trkpt lat="42.54092" lon="2.01176">
        <ele>2068</ele>
        <time>2018-07-07T07:02:22.000Z</time>
      </trkpt>
      <trkpt lat="42.54092" lon="2.01173">
        <ele>2068</ele>
        <time>2018-07-07T07:02:23.000Z</time>
      </trkpt>
      <trkpt lat="42.54092" lon="2.01169">
        <ele>2068</ele>
        <time>2018-07-07T07:02:25.000Z</time>
      </trkpt>
      <trkpt lat="42.54092" lon="2.01167">
        <ele>2068</ele>
        <time>2018-07-07T07:02:26.000Z</time>
      </trkpt>
      <trkpt lat="42.54093" lon="2.01163">
        <ele>2067</ele>
        <time>2018-07-07T07:02:27.000Z</time>
      </trkpt>
      <trkpt lat="42.54094" lon="2.0116">
        <ele>2066</ele>
        <time>2018-07-07T07:02:28.000Z</time>
      </trkpt>
      <trkpt lat="42.54096" lon="2.01157">
        <ele>2066</ele>
        <time>2018-07-07T07:02:29.000Z</time>
      </trkpt>
      <trkpt lat="42.54097" lon="2.01154">
        <ele>2065</ele>
        <time>2018-07-07T07:02:30.000Z</time>
      </trkpt>
      <trkpt lat="42.54098" lon="2.01151">
        <ele>2065</ele>
        <time>2018-07-07T07:02:31.000Z</time>
      </trkpt>
      <trkpt lat="42.541" lon="2.01148">
        <ele>2064</ele>
        <time>2018-07-07T07:02:32.000Z</time>
      </trkpt>
      <trkpt lat="42.541" lon="2.01145">
        <ele>2064</ele>
        <time>2018-07-07T07:02:33.000Z</time>
      </trkpt>
      <trkpt lat="42.54101" lon="2.01143">
        <ele>2063</ele>
        <time>2018-07-07T07:02:34.000Z</time>
      </trkpt>
      <trkpt lat="42.54102" lon="2.0114">
        <ele>2063</ele>
        <time>2018-07-07T07:02:35.000Z</time>
      </trkpt>
      <trkpt lat="42.54103" lon="2.01137">
        <ele>2063</ele>
        <time>2018-07-07T07:02:36.000Z</time>
      </trkpt>
      <trkpt lat="42.54104" lon="2.01134">
        <ele>2063</ele>
        <time>2018-07-07T07:02:37.000Z</time>
      </trkpt>
      <trkpt lat="42.54105" lon="2.01131">
        <ele>2062</ele>
        <time>2018-07-07T07:02:38.000Z</time>
      </trkpt>
      <trkpt lat="42.54106" lon="2.01127">
        <ele>2062</ele>
        <time>2018-07-07T07:02:39.000Z</time>
      </trkpt>
      <trkpt lat="42.54107" lon="2.01124">
        <ele>2062</ele>
        <time>2018-07-07T07:02:40.000Z</time>
      </trkpt>
      <trkpt lat="42.54108" lon="2.01121">
        <ele>2062</ele>
        <time>2018-07-07T07:02:41.000Z</time>
      </trkpt>
      <trkpt lat="42.54109" lon="2.01117">
        <ele>2062</ele>
        <time>2018-07-07T07:02:42.000Z</time>
      </trkpt>
      <trkpt lat="42.54109" lon="2.01114">
        <ele>2062</ele>
        <time>2018-07-07T07:02:43.000Z</time>
      </trkpt>
      <trkpt lat="42.5411" lon="2.0111">
        <ele>2062</ele>
        <time>2018-07-07T07:02:44.000Z</time>
      </trkpt>
      <trkpt lat="42.54111" lon="2.01107">
        <ele>2061</ele>
        <time>2018-07-07T07:02:45.000Z</time>
      </trkpt>
      <trkpt lat="42.54112" lon="2.01103">
        <ele>2061</ele>
        <time>2018-07-07T07:02:46.000Z</time>
      </trkpt>
      <trkpt lat="42.54114" lon="2.01099">
        <ele>2061</ele>
        <time>2018-07-07T07:02:47.000Z</time>
      </trkpt>
      <trkpt lat="42.54115" lon="2.01095">
        <ele>2061</ele>
        <time>2018-07-07T07:02:48.000Z</time>
      </trkpt>
      <trkpt lat="42.54116" lon="2.01091">
        <ele>2061</ele>
        <time>2018-07-07T07:02:49.000Z</time>
      </trkpt>
      <trkpt lat="42.54117" lon="2.01087">
        <ele>2061</ele>
        <time>2018-07-07T07:02:50.000Z</time>
      </trkpt>
      <trkpt lat="42.54119" lon="2.01083">
        <ele>2058</ele>
        <time>2018-07-07T07:02:51.000Z</time>
      </trkpt>
      <trkpt lat="42.5412" lon="2.01079">
        <ele>2058</ele>
        <time>2018-07-07T07:02:52.000Z</time>
      </trkpt>
      <trkpt lat="42.54121" lon="2.01075">
        <ele>2057</ele>
        <time>2018-07-07T07:02:53.000Z</time>
      </trkpt>
      <trkpt lat="42.54122" lon="2.01071">
        <ele>2057</ele>
        <time>2018-07-07T07:02:54.000Z</time>
      </trkpt>
      <trkpt lat="42.54123" lon="2.01068">
        <ele>2057</ele>
        <time>2018-07-07T07:02:55.000Z</time>
      </trkpt>
      <trkpt lat="42.54125" lon="2.01064">
        <ele>2057</ele>
        <time>2018-07-07T07:02:56.000Z</time>
      </trkpt>
      <trkpt lat="42.54126" lon="2.0106">
        <ele>2056</ele>
        <time>2018-07-07T07:02:57.000Z</time>
      </trkpt>
      <trkpt lat="42.54127" lon="2.01057">
        <ele>2056</ele>
        <time>2018-07-07T07:02:58.000Z</time>
      </trkpt>
      <trkpt lat="42.54128" lon="2.01054">
        <ele>2056</ele>
        <time>2018-07-07T07:02:59.000Z</time>
      </trkpt>
      <trkpt lat="42.5413" lon="2.0105">
        <ele>2056</ele>
        <time>2018-07-07T07:03:00.000Z</time>
      </trkpt>
      <trkpt lat="42.54131" lon="2.01047">
        <ele>2056</ele>
        <time>2018-07-07T07:03:01.000Z</time>
      </trkpt>
      <trkpt lat="42.54132" lon="2.01044">
        <ele>2055</ele>
        <time>2018-07-07T07:03:02.000Z</time>
      </trkpt>
      <trkpt lat="42.54134" lon="2.0104">
        <ele>2055</ele>
        <time>2018-07-07T07:03:03.000Z</time>
      </trkpt>
      <trkpt lat="42.54136" lon="2.01037">
        <ele>2055</ele>
        <time>2018-07-07T07:03:04.000Z</time>
      </trkpt>
      <trkpt lat="42.54138" lon="2.01035">
        <ele>2055</ele>
        <time>2018-07-07T07:03:05.000Z</time>
      </trkpt>
      <trkpt lat="42.5414" lon="2.01031">
        <ele>2054</ele>
        <time>2018-07-07T07:03:06.000Z</time>
      </trkpt>
      <trkpt lat="42.54142" lon="2.01028">
        <ele>2054</ele>
        <time>2018-07-07T07:03:07.000Z</time>
      </trkpt>
      <trkpt lat="42.54144" lon="2.01026">
        <ele>2054</ele>
        <time>2018-07-07T07:03:08.000Z</time>
      </trkpt>
      <trkpt lat="42.54147" lon="2.01023">
        <ele>2053</ele>
        <time>2018-07-07T07:03:09.000Z</time>
      </trkpt>
      <trkpt lat="42.5415" lon="2.01021">
        <ele>2052</ele>
        <time>2018-07-07T07:03:10.000Z</time>
      </trkpt>
      <trkpt lat="42.54153" lon="2.01019">
        <ele>2052</ele>
        <time>2018-07-07T07:03:11.000Z</time>
      </trkpt>
      <trkpt lat="42.54163" lon="2.0101">
        <ele>2049</ele>
        <time>2018-07-07T07:03:15.000Z</time>
      </trkpt>
      <trkpt lat="42.54168" lon="2.01005">
        <ele>2045</ele>
        <time>2018-07-07T07:03:17.000Z</time>
      </trkpt>
      <trkpt lat="42.54175" lon="2.00992">
        <ele>2041</ele>
        <time>2018-07-07T07:03:21.000Z</time>
      </trkpt>
      <trkpt lat="42.54182" lon="2.00985">
        <ele>2039</ele>
        <time>2018-07-07T07:03:24.000Z</time>
      </trkpt>
      <trkpt lat="42.54183" lon="2.00983">
        <ele>2038</ele>
        <time>2018-07-07T07:03:25.000Z</time>
      </trkpt>
      <trkpt lat="42.54185" lon="2.0098">
        <ele>2038</ele>
        <time>2018-07-07T07:03:26.000Z</time>
      </trkpt>
      <trkpt lat="42.54187" lon="2.00978">
        <ele>2037</ele>
        <time>2018-07-07T07:03:27.000Z</time>
      </trkpt>
      <trkpt lat="42.54189" lon="2.00974">
        <ele>2037</ele>
        <time>2018-07-07T07:03:29.000Z</time>
      </trkpt>
      <trkpt lat="42.54191" lon="2.00971">
        <ele>2036</ele>
        <time>2018-07-07T07:03:30.000Z</time>
      </trkpt>
      <trkpt lat="42.54193" lon="2.00967">
        <ele>2036</ele>
        <time>2018-07-07T07:03:31.000Z</time>
      </trkpt>
      <trkpt lat="42.54195" lon="2.00964">
        <ele>2035</ele>
        <time>2018-07-07T07:03:32.000Z</time>
      </trkpt>
      <trkpt lat="42.54196" lon="2.00961">
        <ele>2035</ele>
        <time>2018-07-07T07:03:33.000Z</time>
      </trkpt>
      <trkpt lat="42.54198" lon="2.00958">
        <ele>2034</ele>
        <time>2018-07-07T07:03:34.000Z</time>
      </trkpt>
      <trkpt lat="42.54201" lon="2.00955">
        <ele>2034</ele>
        <time>2018-07-07T07:03:35.000Z</time>
      </trkpt>
      <trkpt lat="42.54203" lon="2.00952">
        <ele>2034</ele>
        <time>2018-07-07T07:03:36.000Z</time>
      </trkpt>
      <trkpt lat="42.54205" lon="2.00948">
        <ele>2033</ele>
        <time>2018-07-07T07:03:37.000Z</time>
      </trkpt>
      <trkpt lat="42.54208" lon="2.00945">
        <ele>2033</ele>
        <time>2018-07-07T07:03:38.000Z</time>
      </trkpt>
      <trkpt lat="42.5421" lon="2.00942">
        <ele>2032</ele>
        <time>2018-07-07T07:03:39.000Z</time>
      </trkpt>
      <trkpt lat="42.54213" lon="2.00939">
        <ele>2032</ele>
        <time>2018-07-07T07:03:40.000Z</time>
      </trkpt>
      <trkpt lat="42.54215" lon="2.00935">
        <ele>2031</ele>
        <time>2018-07-07T07:03:41.000Z</time>
      </trkpt>
      <trkpt lat="42.54217" lon="2.00931">
        <ele>2031</ele>
        <time>2018-07-07T07:03:42.000Z</time>
      </trkpt>
      <trkpt lat="42.5422" lon="2.00928">
        <ele>2030</ele>
        <time>2018-07-07T07:03:43.000Z</time>
      </trkpt>
      <trkpt lat="42.54222" lon="2.00925">
        <ele>2030</ele>
        <time>2018-07-07T07:03:44.000Z</time>
      </trkpt>
      <trkpt lat="42.54224" lon="2.00922">
        <ele>2029</ele>
        <time>2018-07-07T07:03:45.000Z</time>
      </trkpt>
      <trkpt lat="42.54227" lon="2.00919">
        <ele>2028</ele>
        <time>2018-07-07T07:03:46.000Z</time>
      </trkpt>
      <trkpt lat="42.54229" lon="2.00917">
        <ele>2028</ele>
        <time>2018-07-07T07:03:47.000Z</time>
      </trkpt>
      <trkpt lat="42.54231" lon="2.00915">
        <ele>2022</ele>
        <time>2018-07-07T07:03:48.000Z</time>
      </trkpt>
      <trkpt lat="42.54234" lon="2.00913">
        <ele>2021</ele>
        <time>2018-07-07T07:03:49.000Z</time>
      </trkpt>
      <trkpt lat="42.54236" lon="2.0091">
        <ele>2021</ele>
        <time>2018-07-07T07:03:50.000Z</time>
      </trkpt>
      <trkpt lat="42.54238" lon="2.00908">
        <ele>2021</ele>
        <time>2018-07-07T07:03:51.000Z</time>
      </trkpt>
      <trkpt lat="42.5424" lon="2.00905">
        <ele>2021</ele>
        <time>2018-07-07T07:03:52.000Z</time>
      </trkpt>
      <trkpt lat="42.54242" lon="2.00902">
        <ele>2021</ele>
        <time>2018-07-07T07:03:53.000Z</time>
      </trkpt>
      <trkpt lat="42.54244" lon="2.00899">
        <ele>2020</ele>
        <time>2018-07-07T07:03:54.000Z</time>
      </trkpt>
      <trkpt lat="42.54245" lon="2.00895">
        <ele>2020</ele>
        <time>2018-07-07T07:03:55.000Z</time>
      </trkpt>
      <trkpt lat="42.54246" lon="2.00892">
        <ele>2020</ele>
        <time>2018-07-07T07:03:56.000Z</time>
      </trkpt>
      <trkpt lat="42.54248" lon="2.00889">
        <ele>2020</ele>
        <time>2018-07-07T07:03:57.000Z</time>
      </trkpt>
      <trkpt lat="42.54248" lon="2.00886">
        <ele>2019</ele>
        <time>2018-07-07T07:03:58.000Z</time>
      </trkpt>
      <trkpt lat="42.54249" lon="2.00883">
        <ele>2019</ele>
        <time>2018-07-07T07:03:59.000Z</time>
      </trkpt>
      <trkpt lat="42.54249" lon="2.0088">
        <ele>2019</ele>
        <time>2018-07-07T07:04:00.000Z</time>
      </trkpt>
      <trkpt lat="42.5425" lon="2.00877">
        <ele>2018</ele>
        <time>2018-07-07T07:04:01.000Z</time>
      </trkpt>
      <trkpt lat="42.5425" lon="2.00874">
        <ele>2018</ele>
        <time>2018-07-07T07:04:02.000Z</time>
      </trkpt>
      <trkpt lat="42.5425" lon="2.00871">
        <ele>2008</ele>
        <time>2018-07-07T07:04:03.000Z</time>
      </trkpt>
      <trkpt lat="42.54251" lon="2.00868">
        <ele>2008</ele>
        <time>2018-07-07T07:04:04.000Z</time>
      </trkpt>
      <trkpt lat="42.54252" lon="2.00865">
        <ele>2008</ele>
        <time>2018-07-07T07:04:05.000Z</time>
      </trkpt>
      <trkpt lat="42.54253" lon="2.00862">
        <ele>2007</ele>
        <time>2018-07-07T07:04:06.000Z</time>
      </trkpt>
      <trkpt lat="42.54256" lon="2.00859">
        <ele>2007</ele>
        <time>2018-07-07T07:04:07.000Z</time>
      </trkpt>
      <trkpt lat="42.54258" lon="2.00857">
        <ele>2007</ele>
        <time>2018-07-07T07:04:08.000Z</time>
      </trkpt>
      <trkpt lat="42.5426" lon="2.00854">
        <ele>2007</ele>
        <time>2018-07-07T07:04:09.000Z</time>
      </trkpt>
      <trkpt lat="42.54262" lon="2.00851">
        <ele>2006</ele>
        <time>2018-07-07T07:04:10.000Z</time>
      </trkpt>
      <trkpt lat="42.54266" lon="2.00849">
        <ele>2006</ele>
        <time>2018-07-07T07:04:11.000Z</time>
      </trkpt>
      <trkpt lat="42.54268" lon="2.00847">
        <ele>2006</ele>
        <time>2018-07-07T07:04:12.000Z</time>
      </trkpt>
      <trkpt lat="42.5427" lon="2.00845">
        <ele>2006</ele>
        <time>2018-07-07T07:04:13.000Z</time>
      </trkpt>
      <trkpt lat="42.54272" lon="2.00843">
        <ele>2006</ele>
        <time>2018-07-07T07:04:14.000Z</time>
      </trkpt>
      <trkpt lat="42.54275" lon="2.00842">
        <ele>2006</ele>
        <time>2018-07-07T07:04:15.000Z</time>
      </trkpt>
      <trkpt lat="42.54278" lon="2.00841">
        <ele>2005</ele>
        <time>2018-07-07T07:04:16.000Z</time>
      </trkpt>
      <trkpt lat="42.54281" lon="2.00841">
        <ele>2005</ele>
        <time>2018-07-07T07:04:17.000Z</time>
      </trkpt>
      <trkpt lat="42.54284" lon="2.00839">
        <ele>2005</ele>
        <time>2018-07-07T07:04:18.000Z</time>
      </trkpt>
      <trkpt lat="42.54286" lon="2.00838">
        <ele>2005</ele>
        <time>2018-07-07T07:04:19.000Z</time>
      </trkpt>
      <trkpt lat="42.54288" lon="2.00836">
        <ele>2005</ele>
        <time>2018-07-07T07:04:20.000Z</time>
      </trkpt>
      <trkpt lat="42.54289" lon="2.00834">
        <ele>2005</ele>
        <time>2018-07-07T07:04:21.000Z</time>
      </trkpt>
      <trkpt lat="42.54291" lon="2.00832">
        <ele>1993</ele>
        <time>2018-07-07T07:04:22.000Z</time>
      </trkpt>
      <trkpt lat="42.54292" lon="2.0083">
        <ele>1993</ele>
        <time>2018-07-07T07:04:23.000Z</time>
      </trkpt>
      <trkpt lat="42.54294" lon="2.00827">
        <ele>1993</ele>
        <time>2018-07-07T07:04:24.000Z</time>
      </trkpt>
      <trkpt lat="42.54295" lon="2.00825">
        <ele>1993</ele>
        <time>2018-07-07T07:04:25.000Z</time>
      </trkpt>
      <trkpt lat="42.54297" lon="2.00823">
        <ele>1992</ele>
        <time>2018-07-07T07:04:26.000Z</time>
      </trkpt>
      <trkpt lat="42.54299" lon="2.00821">
        <ele>1992</ele>
        <time>2018-07-07T07:04:27.000Z</time>
      </trkpt>
      <trkpt lat="42.54301" lon="2.00818">
        <ele>1992</ele>
        <time>2018-07-07T07:04:28.000Z</time>
      </trkpt>
      <trkpt lat="42.54302" lon="2.00816">
        <ele>1992</ele>
        <time>2018-07-07T07:04:29.000Z</time>
      </trkpt>
      <trkpt lat="42.54304" lon="2.00814">
        <ele>1991</ele>
        <time>2018-07-07T07:04:30.000Z</time>
      </trkpt>
      <trkpt lat="42.54306" lon="2.00811">
        <ele>1991</ele>
        <time>2018-07-07T07:04:32.000Z</time>
      </trkpt>
      <trkpt lat="42.54307" lon="2.00808">
        <ele>1991</ele>
        <time>2018-07-07T07:04:33.000Z</time>
      </trkpt>
      <trkpt lat="42.54309" lon="2.00806">
        <ele>1990</ele>
        <time>2018-07-07T07:04:34.000Z</time>
      </trkpt>
      <trkpt lat="42.54312" lon="2.00803">
        <ele>1990</ele>
        <time>2018-07-07T07:04:36.000Z</time>
      </trkpt>
      <trkpt lat="42.54314" lon="2.00801">
        <ele>1989</ele>
        <time>2018-07-07T07:04:37.000Z</time>
      </trkpt>
      <trkpt lat="42.54317" lon="2.00799">
        <ele>1989</ele>
        <time>2018-07-07T07:04:38.000Z</time>
      </trkpt>
      <trkpt lat="42.54319" lon="2.00798">
        <ele>1989</ele>
        <time>2018-07-07T07:04:39.000Z</time>
      </trkpt>
      <trkpt lat="42.54322" lon="2.00796">
        <ele>1989</ele>
        <time>2018-07-07T07:04:40.000Z</time>
      </trkpt>
      <trkpt lat="42.54324" lon="2.00795">
        <ele>1988</ele>
        <time>2018-07-07T07:04:41.000Z</time>
      </trkpt>
      <trkpt lat="42.54326" lon="2.00794">
        <ele>1988</ele>
        <time>2018-07-07T07:04:42.000Z</time>
      </trkpt>
      <trkpt lat="42.54328" lon="2.00792">
        <ele>1988</ele>
        <time>2018-07-07T07:04:43.000Z</time>
      </trkpt>
      <trkpt lat="42.54329" lon="2.0079">
        <ele>1987</ele>
        <time>2018-07-07T07:04:44.000Z</time>
      </trkpt>
      <trkpt lat="42.5433" lon="2.00785">
        <ele>1986</ele>
        <time>2018-07-07T07:04:46.000Z</time>
      </trkpt>
      <trkpt lat="42.54332" lon="2.00781">
        <ele>1985</ele>
        <time>2018-07-07T07:04:48.000Z</time>
      </trkpt>
      <trkpt lat="42.54333" lon="2.00778">
        <ele>1985</ele>
        <time>2018-07-07T07:04:49.000Z</time>
      </trkpt>
      <trkpt lat="42.54333" lon="2.00775">
        <ele>1984</ele>
        <time>2018-07-07T07:04:50.000Z</time>
      </trkpt>
      <trkpt lat="42.54333" lon="2.00772">
        <ele>1983</ele>
        <time>2018-07-07T07:04:51.000Z</time>
      </trkpt>
      <trkpt lat="42.54333" lon="2.00769">
        <ele>1978</ele>
        <time>2018-07-07T07:04:52.000Z</time>
      </trkpt>
      <trkpt lat="42.54334" lon="2.00766">
        <ele>1978</ele>
        <time>2018-07-07T07:04:53.000Z</time>
      </trkpt>
      <trkpt lat="42.5434" lon="2.00753">
        <ele>1976</ele>
        <time>2018-07-07T07:04:57.000Z</time>
      </trkpt>
      <trkpt lat="42.54347" lon="2.00742">
        <ele>1969</ele>
        <time>2018-07-07T07:05:00.000Z</time>
      </trkpt>
      <trkpt lat="42.54355" lon="2.00735">
        <ele>1967</ele>
        <time>2018-07-07T07:05:04.000Z</time>
      </trkpt>
      <trkpt lat="42.54363" lon="2.0073">
        <ele>1966</ele>
        <time>2018-07-07T07:05:08.000Z</time>
      </trkpt>
      <trkpt lat="42.54373" lon="2.00725">
        <ele>1965</ele>
        <time>2018-07-07T07:05:12.000Z</time>
      </trkpt>
      <trkpt lat="42.54376" lon="2.00725">
        <ele>1965</ele>
        <time>2018-07-07T07:05:13.000Z</time>
      </trkpt>
      <trkpt lat="42.54378" lon="2.00724">
        <ele>1965</ele>
        <time>2018-07-07T07:05:14.000Z</time>
      </trkpt>
      <trkpt lat="42.54381" lon="2.00723">
        <ele>1965</ele>
        <time>2018-07-07T07:05:15.000Z</time>
      </trkpt>
      <trkpt lat="42.54383" lon="2.00722">
        <ele>1965</ele>
        <time>2018-07-07T07:05:16.000Z</time>
      </trkpt>
      <trkpt lat="42.54385" lon="2.0072">
        <ele>1965</ele>
        <time>2018-07-07T07:05:17.000Z</time>
      </trkpt>
      <trkpt lat="42.54386" lon="2.00719">
        <ele>1964</ele>
        <time>2018-07-07T07:05:18.000Z</time>
      </trkpt>
      <trkpt lat="42.54388" lon="2.00718">
        <ele>1964</ele>
        <time>2018-07-07T07:05:19.000Z</time>
      </trkpt>
      <trkpt lat="42.54389" lon="2.00716">
        <ele>1964</ele>
        <time>2018-07-07T07:05:20.000Z</time>
      </trkpt>
      <trkpt lat="42.54391" lon="2.00714">
        <ele>1964</ele>
        <time>2018-07-07T07:05:21.000Z</time>
      </trkpt>
      <trkpt lat="42.54393" lon="2.00713">
        <ele>1964</ele>
        <time>2018-07-07T07:05:22.000Z</time>
      </trkpt>
      <trkpt lat="42.54394" lon="2.00711">
        <ele>1964</ele>
        <time>2018-07-07T07:05:23.000Z</time>
      </trkpt>
      <trkpt lat="42.54395" lon="2.00709">
        <ele>1963</ele>
        <time>2018-07-07T07:05:24.000Z</time>
      </trkpt>
      <trkpt lat="42.54397" lon="2.00706">
        <ele>1963</ele>
        <time>2018-07-07T07:05:25.000Z</time>
      </trkpt>
      <trkpt lat="42.54399" lon="2.00704">
        <ele>1963</ele>
        <time>2018-07-07T07:05:26.000Z</time>
      </trkpt>
      <trkpt lat="42.544" lon="2.00702">
        <ele>1963</ele>
        <time>2018-07-07T07:05:27.000Z</time>
      </trkpt>
      <trkpt lat="42.54402" lon="2.00699">
        <ele>1962</ele>
        <time>2018-07-07T07:05:28.000Z</time>
      </trkpt>
      <trkpt lat="42.54404" lon="2.00696">
        <ele>1962</ele>
        <time>2018-07-07T07:05:29.000Z</time>
      </trkpt>
      <trkpt lat="42.54406" lon="2.00693">
        <ele>1962</ele>
        <time>2018-07-07T07:05:30.000Z</time>
      </trkpt>
      <trkpt lat="42.54408" lon="2.00691">
        <ele>1961</ele>
        <time>2018-07-07T07:05:31.000Z</time>
      </trkpt>
      <trkpt lat="42.5441" lon="2.00688">
        <ele>1961</ele>
        <time>2018-07-07T07:05:32.000Z</time>
      </trkpt>
      <trkpt lat="42.54411" lon="2.00686">
        <ele>1960</ele>
        <time>2018-07-07T07:05:33.000Z</time>
      </trkpt>
      <trkpt lat="42.54413" lon="2.00683">
        <ele>1960</ele>
        <time>2018-07-07T07:05:34.000Z</time>
      </trkpt>
      <trkpt lat="42.54415" lon="2.00681">
        <ele>1960</ele>
        <time>2018-07-07T07:05:35.000Z</time>
      </trkpt>
      <trkpt lat="42.54417" lon="2.00678">
        <ele>1959</ele>
        <time>2018-07-07T07:05:36.000Z</time>
      </trkpt>
      <trkpt lat="42.5442" lon="2.00676">
        <ele>1959</ele>
        <time>2018-07-07T07:05:37.000Z</time>
      </trkpt>
      <trkpt lat="42.54422" lon="2.00674">
        <ele>1959</ele>
        <time>2018-07-07T07:05:38.000Z</time>
      </trkpt>
      <trkpt lat="42.54424" lon="2.00671">
        <ele>1959</ele>
        <time>2018-07-07T07:05:39.000Z</time>
      </trkpt>
      <trkpt lat="42.54426" lon="2.00669">
        <ele>1959</ele>
        <time>2018-07-07T07:05:40.000Z</time>
      </trkpt>
      <trkpt lat="42.54428" lon="2.00667">
        <ele>1959</ele>
        <time>2018-07-07T07:05:41.000Z</time>
      </trkpt>
      <trkpt lat="42.5443" lon="2.00666">
        <ele>1956</ele>
        <time>2018-07-07T07:05:42.000Z</time>
      </trkpt>
      <trkpt lat="42.54432" lon="2.00664">
        <ele>1955</ele>
        <time>2018-07-07T07:05:43.000Z</time>
      </trkpt>
      <trkpt lat="42.54435" lon="2.00662">
        <ele>1955</ele>
        <time>2018-07-07T07:05:44.000Z</time>
      </trkpt>
      <trkpt lat="42.54437" lon="2.0066">
        <ele>1955</ele>
        <time>2018-07-07T07:05:45.000Z</time>
      </trkpt>
      <trkpt lat="42.54439" lon="2.00658">
        <ele>1955</ele>
        <time>2018-07-07T07:05:46.000Z</time>
      </trkpt>
      <trkpt lat="42.54442" lon="2.00656">
        <ele>1955</ele>
        <time>2018-07-07T07:05:47.000Z</time>
      </trkpt>
      <trkpt lat="42.54444" lon="2.00655">
        <ele>1955</ele>
        <time>2018-07-07T07:05:48.000Z</time>
      </trkpt>
      <trkpt lat="42.54447" lon="2.00653">
        <ele>1955</ele>
        <time>2018-07-07T07:05:49.000Z</time>
      </trkpt>
      <trkpt lat="42.54449" lon="2.00651">
        <ele>1955</ele>
        <time>2018-07-07T07:05:50.000Z</time>
      </trkpt>
      <trkpt lat="42.54452" lon="2.0065">
        <ele>1955</ele>
        <time>2018-07-07T07:05:51.000Z</time>
      </trkpt>
      <trkpt lat="42.54454" lon="2.00649">
        <ele>1955</ele>
        <time>2018-07-07T07:05:52.000Z</time>
      </trkpt>
      <trkpt lat="42.54456" lon="2.00647">
        <ele>1955</ele>
        <time>2018-07-07T07:05:53.000Z</time>
      </trkpt>
      <trkpt lat="42.54459" lon="2.00646">
        <ele>1955</ele>
        <time>2018-07-07T07:05:54.000Z</time>
      </trkpt>
      <trkpt lat="42.54461" lon="2.00643">
        <ele>1955</ele>
        <time>2018-07-07T07:05:55.000Z</time>
      </trkpt>
      <trkpt lat="42.54463" lon="2.00641">
        <ele>1955</ele>
        <time>2018-07-07T07:05:56.000Z</time>
      </trkpt>
      <trkpt lat="42.54465" lon="2.00639">
        <ele>1955</ele>
        <time>2018-07-07T07:05:57.000Z</time>
      </trkpt>
      <trkpt lat="42.54466" lon="2.00636">
        <ele>1954</ele>
        <time>2018-07-07T07:05:58.000Z</time>
      </trkpt>
      <trkpt lat="42.54467" lon="2.00632">
        <ele>1954</ele>
        <time>2018-07-07T07:05:59.000Z</time>
      </trkpt>
      <trkpt lat="42.54469" lon="2.0063">
        <ele>1954</ele>
        <time>2018-07-07T07:06:00.000Z</time>
      </trkpt>
      <trkpt lat="42.54472" lon="2.00628">
        <ele>1954</ele>
        <time>2018-07-07T07:06:01.000Z</time>
      </trkpt>
      <trkpt lat="42.54475" lon="2.00627">
        <ele>1954</ele>
        <time>2018-07-07T07:06:02.000Z</time>
      </trkpt>
      <trkpt lat="42.54478" lon="2.00625">
        <ele>1954</ele>
        <time>2018-07-07T07:06:03.000Z</time>
      </trkpt>
      <trkpt lat="42.5448" lon="2.00624">
        <ele>1954</ele>
        <time>2018-07-07T07:06:04.000Z</time>
      </trkpt>
      <trkpt lat="42.54482" lon="2.00622">
        <ele>1954</ele>
        <time>2018-07-07T07:06:05.000Z</time>
      </trkpt>
      <trkpt lat="42.54484" lon="2.0062">
        <ele>1954</ele>
        <time>2018-07-07T07:06:06.000Z</time>
      </trkpt>
      <trkpt lat="42.54487" lon="2.00618">
        <ele>1954</ele>
        <time>2018-07-07T07:06:08.000Z</time>
      </trkpt>
      <trkpt lat="42.5449" lon="2.00618">
        <ele>1954</ele>
        <time>2018-07-07T07:06:11.000Z</time>
      </trkpt>
      <trkpt lat="42.54492" lon="2.00617">
        <ele>1954</ele>
        <time>2018-07-07T07:06:12.000Z</time>
      </trkpt>
      <trkpt lat="42.54494" lon="2.00615">
        <ele>1954</ele>
        <time>2018-07-07T07:06:13.000Z</time>
      </trkpt>
      <trkpt lat="42.54496" lon="2.00614">
        <ele>1954</ele>
        <time>2018-07-07T07:06:14.000Z</time>
      </trkpt>
      <trkpt lat="42.54498" lon="2.00612">
        <ele>1954</ele>
        <time>2018-07-07T07:06:15.000Z</time>
      </trkpt>
      <trkpt lat="42.545" lon="2.0061">
        <ele>1960</ele>
        <time>2018-07-07T07:06:16.000Z</time>
      </trkpt>
      <trkpt lat="42.54502" lon="2.00609">
        <ele>1960</ele>
        <time>2018-07-07T07:06:17.000Z</time>
      </trkpt>
      <trkpt lat="42.54504" lon="2.00608">
        <ele>1960</ele>
        <time>2018-07-07T07:06:18.000Z</time>
      </trkpt>
      <trkpt lat="42.54506" lon="2.00606">
        <ele>1960</ele>
        <time>2018-07-07T07:06:19.000Z</time>
      </trkpt>
      <trkpt lat="42.54507" lon="2.00605">
        <ele>1960</ele>
        <time>2018-07-07T07:06:20.000Z</time>
      </trkpt>
      <trkpt lat="42.54509" lon="2.00603">
        <ele>1960</ele>
        <time>2018-07-07T07:06:21.000Z</time>
      </trkpt>
      <trkpt lat="42.5451" lon="2.00601">
        <ele>1960</ele>
        <time>2018-07-07T07:06:22.000Z</time>
      </trkpt>
      <trkpt lat="42.54512" lon="2.00599">
        <ele>1959</ele>
        <time>2018-07-07T07:06:23.000Z</time>
      </trkpt>
      <trkpt lat="42.54514" lon="2.00598">
        <ele>1959</ele>
        <time>2018-07-07T07:06:24.000Z</time>
      </trkpt>
      <trkpt lat="42.54515" lon="2.00596">
        <ele>1959</ele>
        <time>2018-07-07T07:06:25.000Z</time>
      </trkpt>
      <trkpt lat="42.54516" lon="2.00593">
        <ele>1959</ele>
        <time>2018-07-07T07:06:26.000Z</time>
      </trkpt>
      <trkpt lat="42.54517" lon="2.00591">
        <ele>1959</ele>
        <time>2018-07-07T07:06:27.000Z</time>
      </trkpt>
      <trkpt lat="42.54517" lon="2.00589">
        <ele>1959</ele>
        <time>2018-07-07T07:06:28.000Z</time>
      </trkpt>
      <trkpt lat="42.54518" lon="2.00586">
        <ele>1959</ele>
        <time>2018-07-07T07:06:29.000Z</time>
      </trkpt>
      <trkpt lat="42.5452" lon="2.00584">
        <ele>1959</ele>
        <time>2018-07-07T07:06:30.000Z</time>
      </trkpt>
      <trkpt lat="42.5452" lon="2.00582">
        <ele>1955</ele>
        <time>2018-07-07T07:06:31.000Z</time>
      </trkpt>
      <trkpt lat="42.54521" lon="2.00579">
        <ele>1955</ele>
        <time>2018-07-07T07:06:32.000Z</time>
      </trkpt>
      <trkpt lat="42.54522" lon="2.00576">
        <ele>1955</ele>
        <time>2018-07-07T07:06:33.000Z</time>
      </trkpt>
      <trkpt lat="42.54523" lon="2.00573">
        <ele>1955</ele>
        <time>2018-07-07T07:06:34.000Z</time>
      </trkpt>
      <trkpt lat="42.54525" lon="2.00571">
        <ele>1955</ele>
        <time>2018-07-07T07:06:35.000Z</time>
      </trkpt>
      <trkpt lat="42.54526" lon="2.00569">
        <ele>1955</ele>
        <time>2018-07-07T07:06:36.000Z</time>
      </trkpt>
      <trkpt lat="42.54527" lon="2.00566">
        <ele>1955</ele>
        <time>2018-07-07T07:06:37.000Z</time>
      </trkpt>
      <trkpt lat="42.54528" lon="2.00564">
        <ele>1956</ele>
        <time>2018-07-07T07:06:38.000Z</time>
      </trkpt>
      <trkpt lat="42.54529" lon="2.00561">
        <ele>1956</ele>
        <time>2018-07-07T07:06:39.000Z</time>
      </trkpt>
      <trkpt lat="42.54531" lon="2.00559">
        <ele>1956</ele>
        <time>2018-07-07T07:06:40.000Z</time>
      </trkpt>
      <trkpt lat="42.54532" lon="2.00557">
        <ele>1956</ele>
        <time>2018-07-07T07:06:41.000Z</time>
      </trkpt>
      <trkpt lat="42.54533" lon="2.00555">
        <ele>1956</ele>
        <time>2018-07-07T07:06:42.000Z</time>
      </trkpt>
      <trkpt lat="42.54535" lon="2.00552">
        <ele>1956</ele>
        <time>2018-07-07T07:06:43.000Z</time>
      </trkpt>
      <trkpt lat="42.54536" lon="2.00549">
        <ele>1956</ele>
        <time>2018-07-07T07:06:44.000Z</time>
      </trkpt>
      <trkpt lat="42.54537" lon="2.00547">
        <ele>1956</ele>
        <time>2018-07-07T07:06:45.000Z</time>
      </trkpt>
      <trkpt lat="42.54539" lon="2.00544">
        <ele>1956</ele>
        <time>2018-07-07T07:06:46.000Z</time>
      </trkpt>
      <trkpt lat="42.5454" lon="2.00542">
        <ele>1956</ele>
        <time>2018-07-07T07:06:47.000Z</time>
      </trkpt>
      <trkpt lat="42.54542" lon="2.00539">
        <ele>1956</ele>
        <time>2018-07-07T07:06:48.000Z</time>
      </trkpt>
      <trkpt lat="42.54543" lon="2.00537">
        <ele>1956</ele>
        <time>2018-07-07T07:06:49.000Z</time>
      </trkpt>
      <trkpt lat="42.54544" lon="2.00534">
        <ele>1956</ele>
        <time>2018-07-07T07:06:50.000Z</time>
      </trkpt>
      <trkpt lat="42.54546" lon="2.00532">
        <ele>1955</ele>
        <time>2018-07-07T07:06:51.000Z</time>
      </trkpt>
      <trkpt lat="42.54547" lon="2.0053">
        <ele>1955</ele>
        <time>2018-07-07T07:06:52.000Z</time>
      </trkpt>
      <trkpt lat="42.54548" lon="2.00527">
        <ele>1955</ele>
        <time>2018-07-07T07:06:53.000Z</time>
      </trkpt>
      <trkpt lat="42.5455" lon="2.00524">
        <ele>1955</ele>
        <time>2018-07-07T07:06:54.000Z</time>
      </trkpt>
      <trkpt lat="42.54551" lon="2.00522">
        <ele>1955</ele>
        <time>2018-07-07T07:06:55.000Z</time>
      </trkpt>
      <trkpt lat="42.54552" lon="2.00519">
        <ele>1955</ele>
        <time>2018-07-07T07:06:56.000Z</time>
      </trkpt>
      <trkpt lat="42.54554" lon="2.00517">
        <ele>1955</ele>
        <time>2018-07-07T07:06:57.000Z</time>
      </trkpt>
      <trkpt lat="42.54555" lon="2.00515">
        <ele>1955</ele>
        <time>2018-07-07T07:06:58.000Z</time>
      </trkpt>
      <trkpt lat="42.54557" lon="2.00512">
        <ele>1955</ele>
        <time>2018-07-07T07:06:59.000Z</time>
      </trkpt>
      <trkpt lat="42.54558" lon="2.0051">
        <ele>1955</ele>
        <time>2018-07-07T07:07:00.000Z</time>
      </trkpt>
      <trkpt lat="42.54559" lon="2.00508">
        <ele>1955</ele>
        <time>2018-07-07T07:07:01.000Z</time>
      </trkpt>
      <trkpt lat="42.5456" lon="2.00506">
        <ele>1955</ele>
        <time>2018-07-07T07:07:02.000Z</time>
      </trkpt>
      <trkpt lat="42.54562" lon="2.00504">
        <ele>1955</ele>
        <time>2018-07-07T07:07:03.000Z</time>
      </trkpt>
      <trkpt lat="42.54563" lon="2.00502">
        <ele>1955</ele>
        <time>2018-07-07T07:07:04.000Z</time>
      </trkpt>
      <trkpt lat="42.54564" lon="2.00499">
        <ele>1952</ele>
        <time>2018-07-07T07:07:05.000Z</time>
      </trkpt>
      <trkpt lat="42.54566" lon="2.00497">
        <ele>1952</ele>
        <time>2018-07-07T07:07:06.000Z</time>
      </trkpt>
      <trkpt lat="42.54567" lon="2.00494">
        <ele>1952</ele>
        <time>2018-07-07T07:07:07.000Z</time>
      </trkpt>
      <trkpt lat="42.54568" lon="2.00492">
        <ele>1952</ele>
        <time>2018-07-07T07:07:08.000Z</time>
      </trkpt>
      <trkpt lat="42.54569" lon="2.00489">
        <ele>1952</ele>
        <time>2018-07-07T07:07:09.000Z</time>
      </trkpt>
      <trkpt lat="42.54571" lon="2.00487">
        <ele>1952</ele>
        <time>2018-07-07T07:07:10.000Z</time>
      </trkpt>
      <trkpt lat="42.54572" lon="2.00485">
        <ele>1952</ele>
        <time>2018-07-07T07:07:11.000Z</time>
      </trkpt>
      <trkpt lat="42.54574" lon="2.00483">
        <ele>1952</ele>
        <time>2018-07-07T07:07:12.000Z</time>
      </trkpt>
      <trkpt lat="42.54575" lon="2.0048">
        <ele>1952</ele>
        <time>2018-07-07T07:07:13.000Z</time>
      </trkpt>
      <trkpt lat="42.54576" lon="2.00478">
        <ele>1952</ele>
        <time>2018-07-07T07:07:14.000Z</time>
      </trkpt>
      <trkpt lat="42.54578" lon="2.00475">
        <ele>1952</ele>
        <time>2018-07-07T07:07:15.000Z</time>
      </trkpt>
      <trkpt lat="42.54579" lon="2.00473">
        <ele>1951</ele>
        <time>2018-07-07T07:07:16.000Z</time>
      </trkpt>
      <trkpt lat="42.5458" lon="2.00471">
        <ele>1951</ele>
        <time>2018-07-07T07:07:17.000Z</time>
      </trkpt>
      <trkpt lat="42.54583" lon="2.00467">
        <ele>1951</ele>
        <time>2018-07-07T07:07:19.000Z</time>
      </trkpt>
      <trkpt lat="42.54584" lon="2.00465">
        <ele>1957</ele>
        <time>2018-07-07T07:07:20.000Z</time>
      </trkpt>
      <trkpt lat="42.54585" lon="2.00463">
        <ele>1957</ele>
        <time>2018-07-07T07:07:21.000Z</time>
      </trkpt>
      <trkpt lat="42.54586" lon="2.0046">
        <ele>1957</ele>
        <time>2018-07-07T07:07:22.000Z</time>
      </trkpt>
      <trkpt lat="42.54588" lon="2.00458">
        <ele>1957</ele>
        <time>2018-07-07T07:07:23.000Z</time>
      </trkpt>
      <trkpt lat="42.54589" lon="2.00455">
        <ele>1957</ele>
        <time>2018-07-07T07:07:24.000Z</time>
      </trkpt>
      <trkpt lat="42.54591" lon="2.00453">
        <ele>1957</ele>
        <time>2018-07-07T07:07:25.000Z</time>
      </trkpt>
      <trkpt lat="42.54592" lon="2.0045">
        <ele>1956</ele>
        <time>2018-07-07T07:07:26.000Z</time>
      </trkpt>
      <trkpt lat="42.54593" lon="2.00448">
        <ele>1956</ele>
        <time>2018-07-07T07:07:27.000Z</time>
      </trkpt>
      <trkpt lat="42.54594" lon="2.00445">
        <ele>1956</ele>
        <time>2018-07-07T07:07:28.000Z</time>
      </trkpt>
      <trkpt lat="42.54595" lon="2.00442">
        <ele>1956</ele>
        <time>2018-07-07T07:07:29.000Z</time>
      </trkpt>
      <trkpt lat="42.54595" lon="2.00439">
        <ele>1955</ele>
        <time>2018-07-07T07:07:30.000Z</time>
      </trkpt>
      <trkpt lat="42.54594" lon="2.00435">
        <ele>1955</ele>
        <time>2018-07-07T07:07:32.000Z</time>
      </trkpt>
      <trkpt lat="42.54593" lon="2.00431">
        <ele>1954</ele>
        <time>2018-07-07T07:07:34.000Z</time>
      </trkpt>
      <trkpt lat="42.54592" lon="2.00429">
        <ele>1954</ele>
        <time>2018-07-07T07:07:35.000Z</time>
      </trkpt>
      <trkpt lat="42.54591" lon="2.00426">
        <ele>1953</ele>
        <time>2018-07-07T07:07:36.000Z</time>
      </trkpt>
      <trkpt lat="42.5459" lon="2.00423">
        <ele>1953</ele>
        <time>2018-07-07T07:07:37.000Z</time>
      </trkpt>
      <trkpt lat="42.54589" lon="2.00419">
        <ele>1952</ele>
        <time>2018-07-07T07:07:39.000Z</time>
      </trkpt>
      <trkpt lat="42.54589" lon="2.00415">
        <ele>1951</ele>
        <time>2018-07-07T07:07:41.000Z</time>
      </trkpt>
      <trkpt lat="42.54588" lon="2.00411">
        <ele>1951</ele>
        <time>2018-07-07T07:07:43.000Z</time>
      </trkpt>
      <trkpt lat="42.54587" lon="2.00408">
        <ele>1952</ele>
        <time>2018-07-07T07:07:45.000Z</time>
      </trkpt>
      <trkpt lat="42.54586" lon="2.00406">
        <ele>1952</ele>
        <time>2018-07-07T07:07:47.000Z</time>
      </trkpt>
      <trkpt lat="42.54586" lon="2.00403">
        <ele>1953</ele>
        <time>2018-07-07T07:07:49.000Z</time>
      </trkpt>
      <trkpt lat="42.54586" lon="2.004">
        <ele>1953</ele>
        <time>2018-07-07T07:07:51.000Z</time>
      </trkpt>
      <trkpt lat="42.54586" lon="2.00396">
        <ele>1953</ele>
        <time>2018-07-07T07:07:53.000Z</time>
      </trkpt>
      <trkpt lat="42.54586" lon="2.00393">
        <ele>1954</ele>
        <time>2018-07-07T07:07:55.000Z</time>
      </trkpt>
      <trkpt lat="42.54586" lon="2.0039">
        <ele>1954</ele>
        <time>2018-07-07T07:07:57.000Z</time>
      </trkpt>
      <trkpt lat="42.54586" lon="2.00387">
        <ele>1954</ele>
        <time>2018-07-07T07:07:59.000Z</time>
      </trkpt>
      <trkpt lat="42.54584" lon="2.00385">
        <ele>1954</ele>
        <time>2018-07-07T07:08:01.000Z</time>
      </trkpt>
      <trkpt lat="42.54582" lon="2.00383">
        <ele>1950</ele>
        <time>2018-07-07T07:08:04.000Z</time>
      </trkpt>
      <trkpt lat="42.5458" lon="2.00381">
        <ele>1951</ele>
        <time>2018-07-07T07:08:07.000Z</time>
      </trkpt>
      <trkpt lat="42.54578" lon="2.00378">
        <ele>1951</ele>
        <time>2018-07-07T07:08:10.000Z</time>
      </trkpt>
      <trkpt lat="42.54578" lon="2.00375">
        <ele>1951</ele>
        <time>2018-07-07T07:08:13.000Z</time>
      </trkpt>
      <trkpt lat="42.54578" lon="2.00372">
        <ele>1951</ele>
        <time>2018-07-07T07:08:16.000Z</time>
      </trkpt>
      <trkpt lat="42.54579" lon="2.0037">
        <ele>1951</ele>
        <time>2018-07-07T07:08:18.000Z</time>
      </trkpt>
      <trkpt lat="42.5458" lon="2.00367">
        <ele>1951</ele>
        <time>2018-07-07T07:08:20.000Z</time>
      </trkpt>
      <trkpt lat="42.5458" lon="2.00364">
        <ele>1951</ele>
        <time>2018-07-07T07:08:22.000Z</time>
      </trkpt>
      <trkpt lat="42.5458" lon="2.00362">
        <ele>1952</ele>
        <time>2018-07-07T07:08:24.000Z</time>
      </trkpt>
      <trkpt lat="42.5458" lon="2.00358">
        <ele>1952</ele>
        <time>2018-07-07T07:08:27.000Z</time>
      </trkpt>
      <trkpt lat="42.5458" lon="2.00354">
        <ele>1952</ele>
        <time>2018-07-07T07:08:30.000Z</time>
      </trkpt>
      <trkpt lat="42.5458" lon="2.00351">
        <ele>1953</ele>
        <time>2018-07-07T07:08:33.000Z</time>
      </trkpt>
      <trkpt lat="42.5458" lon="2.00348">
        <ele>1953</ele>
        <time>2018-07-07T07:08:35.000Z</time>
      </trkpt>
      <trkpt lat="42.54579" lon="2.00344">
        <ele>1954</ele>
        <time>2018-07-07T07:08:38.000Z</time>
      </trkpt>
      <trkpt lat="42.54579" lon="2.0034">
        <ele>1954</ele>
        <time>2018-07-07T07:08:40.000Z</time>
      </trkpt>
      <trkpt lat="42.54579" lon="2.00337">
        <ele>1955</ele>
        <time>2018-07-07T07:08:42.000Z</time>
      </trkpt>
      <trkpt lat="42.54578" lon="2.00333">
        <ele>1956</ele>
        <time>2018-07-07T07:08:44.000Z</time>
      </trkpt>
      <trkpt lat="42.54578" lon="2.0033">
        <ele>1956</ele>
        <time>2018-07-07T07:08:46.000Z</time>
      </trkpt>
      <trkpt lat="42.54577" lon="2.00326">
        <ele>1956</ele>
        <time>2018-07-07T07:08:48.000Z</time>
      </trkpt>
      <trkpt lat="42.54577" lon="2.00323">
        <ele>1956</ele>
        <time>2018-07-07T07:08:50.000Z</time>
      </trkpt>
      <trkpt lat="42.54577" lon="2.0032">
        <ele>1956</ele>
        <time>2018-07-07T07:08:52.000Z</time>
      </trkpt>
      <trkpt lat="42.54576" lon="2.00318">
        <ele>1956</ele>
        <time>2018-07-07T07:08:54.000Z</time>
      </trkpt>
      <trkpt lat="42.54575" lon="2.00315">
        <ele>1956</ele>
        <time>2018-07-07T07:08:56.000Z</time>
      </trkpt>
      <trkpt lat="42.54574" lon="2.00312">
        <ele>1956</ele>
        <time>2018-07-07T07:08:58.000Z</time>
      </trkpt>
      <trkpt lat="42.54573" lon="2.00309">
        <ele>1957</ele>
        <time>2018-07-07T07:09:00.000Z</time>
      </trkpt>
      <trkpt lat="42.54573" lon="2.00305">
        <ele>1957</ele>
        <time>2018-07-07T07:09:02.000Z</time>
      </trkpt>
      <trkpt lat="42.54574" lon="2.00301">
        <ele>1957</ele>
        <time>2018-07-07T07:09:04.000Z</time>
      </trkpt>
      <trkpt lat="42.54574" lon="2.00299">
        <ele>1957</ele>
        <time>2018-07-07T07:09:05.000Z</time>
      </trkpt>
      <trkpt lat="42.54574" lon="2.00296">
        <ele>1957</ele>
        <time>2018-07-07T07:09:07.000Z</time>
      </trkpt>
      <trkpt lat="42.54576" lon="2.00295">
        <ele>1957</ele>
        <time>2018-07-07T07:09:09.000Z</time>
      </trkpt>
      <trkpt lat="42.54576" lon="2.00292">
        <ele>1958</ele>
        <time>2018-07-07T07:09:11.000Z</time>
      </trkpt>
      <trkpt lat="42.54576" lon="2.00289">
        <ele>1958</ele>
        <time>2018-07-07T07:09:12.000Z</time>
      </trkpt>
      <trkpt lat="42.54576" lon="2.00287">
        <ele>1958</ele>
        <time>2018-07-07T07:09:13.000Z</time>
      </trkpt>
      <trkpt lat="42.54576" lon="2.00284">
        <ele>1958</ele>
        <time>2018-07-07T07:09:15.000Z</time>
      </trkpt>
      <trkpt lat="42.54575" lon="2.0028">
        <ele>1958</ele>
        <time>2018-07-07T07:09:17.000Z</time>
      </trkpt>
      <trkpt lat="42.54575" lon="2.00277">
        <ele>1959</ele>
        <time>2018-07-07T07:09:19.000Z</time>
      </trkpt>
      <trkpt lat="42.54576" lon="2.00274">
        <ele>1959</ele>
        <time>2018-07-07T07:09:21.000Z</time>
      </trkpt>
      <trkpt lat="42.54576" lon="2.00271">
        <ele>1959</ele>
        <time>2018-07-07T07:09:24.000Z</time>
      </trkpt>
      <trkpt lat="42.54576" lon="2.00268">
        <ele>1960</ele>
        <time>2018-07-07T07:09:27.000Z</time>
      </trkpt>
      <trkpt lat="42.54577" lon="2.00265">
        <ele>1960</ele>
        <time>2018-07-07T07:09:30.000Z</time>
      </trkpt>
      <trkpt lat="42.54578" lon="2.00261">
        <ele>1961</ele>
        <time>2018-07-07T07:09:33.000Z</time>
      </trkpt>
      <trkpt lat="42.54578" lon="2.00259">
        <ele>1961</ele>
        <time>2018-07-07T07:09:35.000Z</time>
      </trkpt>
      <trkpt lat="42.54578" lon="2.00256">
        <ele>1962</ele>
        <time>2018-07-07T07:09:37.000Z</time>
      </trkpt>
      <trkpt lat="42.54578" lon="2.00254">
        <ele>1962</ele>
        <time>2018-07-07T07:09:39.000Z</time>
      </trkpt>
      <trkpt lat="42.54578" lon="2.00251">
        <ele>1962</ele>
        <time>2018-07-07T07:09:41.000Z</time>
      </trkpt>
      <trkpt lat="42.54577" lon="2.00248">
        <ele>1965</ele>
        <time>2018-07-07T07:09:43.000Z</time>
      </trkpt>
      <trkpt lat="42.54577" lon="2.00245">
        <ele>1965</ele>
        <time>2018-07-07T07:09:45.000Z</time>
      </trkpt>
      <trkpt lat="42.54577" lon="2.00242">
        <ele>1965</ele>
        <time>2018-07-07T07:09:47.000Z</time>
      </trkpt>
      <trkpt lat="42.54577" lon="2.00239">
        <ele>1965</ele>
        <time>2018-07-07T07:09:49.000Z</time>
      </trkpt>
      <trkpt lat="42.54577" lon="2.00236">
        <ele>1965</ele>
        <time>2018-07-07T07:09:51.000Z</time>
      </trkpt>
      <trkpt lat="42.54577" lon="2.00233">
        <ele>1966</ele>
        <time>2018-07-07T07:09:53.000Z</time>
      </trkpt>
      <trkpt lat="42.54578" lon="2.0023">
        <ele>1966</ele>
        <time>2018-07-07T07:09:55.000Z</time>
      </trkpt>
      <trkpt lat="42.54579" lon="2.00228">
        <ele>1966</ele>
        <time>2018-07-07T07:09:57.000Z</time>
      </trkpt>
      <trkpt lat="42.54579" lon="2.00225">
        <ele>1966</ele>
        <time>2018-07-07T07:09:59.000Z</time>
      </trkpt>
      <trkpt lat="42.54579" lon="2.00222">
        <ele>1966</ele>
        <time>2018-07-07T07:10:01.000Z</time>
      </trkpt>
      <trkpt lat="42.54579" lon="2.00219">
        <ele>1967</ele>
        <time>2018-07-07T07:10:03.000Z</time>
      </trkpt>
      <trkpt lat="42.54579" lon="2.00216">
        <ele>1967</ele>
        <time>2018-07-07T07:10:05.000Z</time>
      </trkpt>
      <trkpt lat="42.54579" lon="2.00213">
        <ele>1967</ele>
        <time>2018-07-07T07:10:07.000Z</time>
      </trkpt>
      <trkpt lat="42.54578" lon="2.00211">
        <ele>1967</ele>
        <time>2018-07-07T07:10:09.000Z</time>
      </trkpt>
      <trkpt lat="42.54577" lon="2.00208">
        <ele>1968</ele>
        <time>2018-07-07T07:10:11.000Z</time>
      </trkpt>
      <trkpt lat="42.54576" lon="2.00206">
        <ele>1968</ele>
        <time>2018-07-07T07:10:13.000Z</time>
      </trkpt>
      <trkpt lat="42.54575" lon="2.00204">
        <ele>1968</ele>
        <time>2018-07-07T07:10:15.000Z</time>
      </trkpt>
      <trkpt lat="42.54574" lon="2.00201">
        <ele>1968</ele>
        <time>2018-07-07T07:10:17.000Z</time>
      </trkpt>
      <trkpt lat="42.54572" lon="2.00199">
        <ele>1968</ele>
        <time>2018-07-07T07:10:19.000Z</time>
      </trkpt>
      <trkpt lat="42.54571" lon="2.00197">
        <ele>1968</ele>
        <time>2018-07-07T07:10:21.000Z</time>
      </trkpt>
      <trkpt lat="42.5457" lon="2.00195">
        <ele>1969</ele>
        <time>2018-07-07T07:10:23.000Z</time>
      </trkpt>
      <trkpt lat="42.54569" lon="2.00192">
        <ele>1969</ele>
        <time>2018-07-07T07:10:25.000Z</time>
      </trkpt>
      <trkpt lat="42.54568" lon="2.00189">
        <ele>1969</ele>
        <time>2018-07-07T07:10:27.000Z</time>
      </trkpt>
      <trkpt lat="42.54568" lon="2.00185">
        <ele>1969</ele>
        <time>2018-07-07T07:10:29.000Z</time>
      </trkpt>
      <trkpt lat="42.54569" lon="2.00183">
        <ele>1969</ele>
        <time>2018-07-07T07:10:31.000Z</time>
      </trkpt>
      <trkpt lat="42.54569" lon="2.0018">
        <ele>1970</ele>
        <time>2018-07-07T07:10:33.000Z</time>
      </trkpt>
      <trkpt lat="42.5457" lon="2.00177">
        <ele>1970</ele>
        <time>2018-07-07T07:10:35.000Z</time>
      </trkpt>
      <trkpt lat="42.5457" lon="2.00174">
        <ele>1970</ele>
        <time>2018-07-07T07:10:37.000Z</time>
      </trkpt>
      <trkpt lat="42.5457" lon="2.00171">
        <ele>1970</ele>
        <time>2018-07-07T07:10:39.000Z</time>
      </trkpt>
      <trkpt lat="42.5457" lon="2.00168">
        <ele>1970</ele>
        <time>2018-07-07T07:10:41.000Z</time>
      </trkpt>
      <trkpt lat="42.5457" lon="2.00165">
        <ele>1975</ele>
        <time>2018-07-07T07:10:43.000Z</time>
      </trkpt>
      <trkpt lat="42.5457" lon="2.00162">
        <ele>1976</ele>
        <time>2018-07-07T07:10:45.000Z</time>
      </trkpt>
      <trkpt lat="42.54571" lon="2.00159">
        <ele>1976</ele>
        <time>2018-07-07T07:10:47.000Z</time>
      </trkpt>
      <trkpt lat="42.54571" lon="2.00156">
        <ele>1976</ele>
        <time>2018-07-07T07:10:49.000Z</time>
      </trkpt>
      <trkpt lat="42.54572" lon="2.00152">
        <ele>1977</ele>
        <time>2018-07-07T07:10:51.000Z</time>
      </trkpt>
      <trkpt lat="42.54573" lon="2.00149">
        <ele>1977</ele>
        <time>2018-07-07T07:10:53.000Z</time>
      </trkpt>
      <trkpt lat="42.54573" lon="2.00146">
        <ele>1978</ele>
        <time>2018-07-07T07:10:55.000Z</time>
      </trkpt>
      <trkpt lat="42.54574" lon="2.00143">
        <ele>1978</ele>
        <time>2018-07-07T07:10:57.000Z</time>
      </trkpt>
      <trkpt lat="42.54574" lon="2.0014">
        <ele>1978</ele>
        <time>2018-07-07T07:10:59.000Z</time>
      </trkpt>
      <trkpt lat="42.54575" lon="2.00137">
        <ele>1979</ele>
        <time>2018-07-07T07:11:01.000Z</time>
      </trkpt>
      <trkpt lat="42.54575" lon="2.00134">
        <ele>1979</ele>
        <time>2018-07-07T07:11:03.000Z</time>
      </trkpt>
      <trkpt lat="42.54575" lon="2.00131">
        <ele>1980</ele>
        <time>2018-07-07T07:11:05.000Z</time>
      </trkpt>
      <trkpt lat="42.54575" lon="2.00129">
        <ele>1980</ele>
        <time>2018-07-07T07:11:07.000Z</time>
      </trkpt>
      <trkpt lat="42.54576" lon="2.00125">
        <ele>1980</ele>
        <time>2018-07-07T07:11:09.000Z</time>
      </trkpt>
      <trkpt lat="42.54576" lon="2.00123">
        <ele>1981</ele>
        <time>2018-07-07T07:11:11.000Z</time>
      </trkpt>
      <trkpt lat="42.54576" lon="2.00119">
        <ele>1981</ele>
        <time>2018-07-07T07:11:13.000Z</time>
      </trkpt>
      <trkpt lat="42.54576" lon="2.00116">
        <ele>1981</ele>
        <time>2018-07-07T07:11:15.000Z</time>
      </trkpt>
      <trkpt lat="42.54577" lon="2.00113">
        <ele>1982</ele>
        <time>2018-07-07T07:11:17.000Z</time>
      </trkpt>
      <trkpt lat="42.54576" lon="2.0011">
        <ele>1982</ele>
        <time>2018-07-07T07:11:19.000Z</time>
      </trkpt>
      <trkpt lat="42.54576" lon="2.00108">
        <ele>1983</ele>
        <time>2018-07-07T07:11:21.000Z</time>
      </trkpt>
      <trkpt lat="42.54576" lon="2.00105">
        <ele>1983</ele>
        <time>2018-07-07T07:11:23.000Z</time>
      </trkpt>
      <trkpt lat="42.54575" lon="2.00102">
        <ele>1983</ele>
        <time>2018-07-07T07:11:25.000Z</time>
      </trkpt>
      <trkpt lat="42.54575" lon="2.001">
        <ele>1984</ele>
        <time>2018-07-07T07:11:27.000Z</time>
      </trkpt>
      <trkpt lat="42.54575" lon="2.00097">
        <ele>1984</ele>
        <time>2018-07-07T07:11:29.000Z</time>
      </trkpt>
      <trkpt lat="42.54575" lon="2.00094">
        <ele>1984</ele>
        <time>2018-07-07T07:11:31.000Z</time>
      </trkpt>
      <trkpt lat="42.54574" lon="2.00091">
        <ele>1985</ele>
        <time>2018-07-07T07:11:33.000Z</time>
      </trkpt>
      <trkpt lat="42.54574" lon="2.00088">
        <ele>1985</ele>
        <time>2018-07-07T07:11:35.000Z</time>
      </trkpt>
      <trkpt lat="42.54574" lon="2.00085">
        <ele>1985</ele>
        <time>2018-07-07T07:11:38.000Z</time>
      </trkpt>
      <trkpt lat="42.54574" lon="2.00082">
        <ele>1989</ele>
        <time>2018-07-07T07:11:41.000Z</time>
      </trkpt>
      <trkpt lat="42.54573" lon="2.00079">
        <ele>1989</ele>
        <time>2018-07-07T07:11:43.000Z</time>
      </trkpt>
      <trkpt lat="42.54572" lon="2.00076">
        <ele>1990</ele>
        <time>2018-07-07T07:11:46.000Z</time>
      </trkpt>
      <trkpt lat="42.54572" lon="2.00074">
        <ele>1990</ele>
        <time>2018-07-07T07:11:49.000Z</time>
      </trkpt>
      <trkpt lat="42.54571" lon="2.00071">
        <ele>1991</ele>
        <time>2018-07-07T07:11:51.000Z</time>
      </trkpt>
      <trkpt lat="42.5457" lon="2.00068">
        <ele>1991</ele>
        <time>2018-07-07T07:11:53.000Z</time>
      </trkpt>
      <trkpt lat="42.54568" lon="2.00066">
        <ele>1991</ele>
        <time>2018-07-07T07:11:55.000Z</time>
      </trkpt>
      <trkpt lat="42.54567" lon="2.00064">
        <ele>1992</ele>
        <time>2018-07-07T07:11:57.000Z</time>
      </trkpt>
      <trkpt lat="42.54566" lon="2.00061">
        <ele>1992</ele>
        <time>2018-07-07T07:12:00.000Z</time>
      </trkpt>
      <trkpt lat="42.54565" lon="2.00058">
        <ele>1992</ele>
        <time>2018-07-07T07:12:02.000Z</time>
      </trkpt>
      <trkpt lat="42.54564" lon="2.00056">
        <ele>1993</ele>
        <time>2018-07-07T07:12:04.000Z</time>
      </trkpt>
      <trkpt lat="42.54563" lon="2.00053">
        <ele>1993</ele>
        <time>2018-07-07T07:12:06.000Z</time>
      </trkpt>
      <trkpt lat="42.54562" lon="2.00051">
        <ele>1993</ele>
        <time>2018-07-07T07:12:08.000Z</time>
      </trkpt>
      <trkpt lat="42.54562" lon="2.00047">
        <ele>1993</ele>
        <time>2018-07-07T07:12:11.000Z</time>
      </trkpt>
      <trkpt lat="42.54561" lon="2.00043">
        <ele>1994</ele>
        <time>2018-07-07T07:12:14.000Z</time>
      </trkpt>
      <trkpt lat="42.54561" lon="2.00041">
        <ele>1994</ele>
        <time>2018-07-07T07:12:16.000Z</time>
      </trkpt>
      <trkpt lat="42.54561" lon="2.00038">
        <ele>1994</ele>
        <time>2018-07-07T07:12:18.000Z</time>
      </trkpt>
      <trkpt lat="42.54561" lon="2.00035">
        <ele>1994</ele>
        <time>2018-07-07T07:12:20.000Z</time>
      </trkpt>
      <trkpt lat="42.54562" lon="2.00032">
        <ele>1995</ele>
        <time>2018-07-07T07:12:22.000Z</time>
      </trkpt>
      <trkpt lat="42.54562" lon="2.0003">
        <ele>1995</ele>
        <time>2018-07-07T07:12:24.000Z</time>
      </trkpt>
      <trkpt lat="42.54562" lon="2.00027">
        <ele>1995</ele>
        <time>2018-07-07T07:12:27.000Z</time>
      </trkpt>
      <trkpt lat="42.54563" lon="2.00024">
        <ele>1996</ele>
        <time>2018-07-07T07:12:30.000Z</time>
      </trkpt>
      <trkpt lat="42.54562" lon="2.00021">
        <ele>1996</ele>
        <time>2018-07-07T07:12:33.000Z</time>
      </trkpt>
      <trkpt lat="42.54562" lon="2.00017">
        <ele>1996</ele>
        <time>2018-07-07T07:12:36.000Z</time>
      </trkpt>
      <trkpt lat="42.54562" lon="2.00014">
        <ele>1996</ele>
        <time>2018-07-07T07:12:39.000Z</time>
      </trkpt>
      <trkpt lat="42.54562" lon="2.00012">
        <ele>1996</ele>
        <time>2018-07-07T07:12:42.000Z</time>
      </trkpt>
      <trkpt lat="42.54562" lon="2.00008">
        <ele>1997</ele>
        <time>2018-07-07T07:12:45.000Z</time>
      </trkpt>
      <trkpt lat="42.54562" lon="2.00005">
        <ele>1997</ele>
        <time>2018-07-07T07:12:48.000Z</time>
      </trkpt>
      <trkpt lat="42.54562" lon="2.00001">
        <ele>1997</ele>
        <time>2018-07-07T07:12:51.000Z</time>
      </trkpt>
      <trkpt lat="42.54562" lon="1.99999">
        <ele>2005</ele>
        <time>2018-07-07T07:12:53.000Z</time>
      </trkpt>
      <trkpt lat="42.54563" lon="1.99996">
        <ele>2005</ele>
        <time>2018-07-07T07:12:55.000Z</time>
      </trkpt>
      <trkpt lat="42.54563" lon="1.99994">
        <ele>2005</ele>
        <time>2018-07-07T07:12:57.000Z</time>
      </trkpt>
      <trkpt lat="42.54563" lon="1.9999">
        <ele>2005</ele>
        <time>2018-07-07T07:13:00.000Z</time>
      </trkpt>
      <trkpt lat="42.54564" lon="1.99987">
        <ele>2006</ele>
        <time>2018-07-07T07:13:03.000Z</time>
      </trkpt>
      <trkpt lat="42.54563" lon="1.99984">
        <ele>2006</ele>
        <time>2018-07-07T07:13:06.000Z</time>
      </trkpt>
      <trkpt lat="42.54563" lon="1.9998">
        <ele>2007</ele>
        <time>2018-07-07T07:13:09.000Z</time>
      </trkpt>
      <trkpt lat="42.54563" lon="1.99978">
        <ele>2007</ele>
        <time>2018-07-07T07:13:11.000Z</time>
      </trkpt>
      <trkpt lat="42.54563" lon="1.99975">
        <ele>2007</ele>
        <time>2018-07-07T07:13:13.000Z</time>
      </trkpt>
      <trkpt lat="42.54563" lon="1.99972">
        <ele>2008</ele>
        <time>2018-07-07T07:13:16.000Z</time>
      </trkpt>
      <trkpt lat="42.54563" lon="1.9997">
        <ele>2008</ele>
        <time>2018-07-07T07:13:18.000Z</time>
      </trkpt>
      <trkpt lat="42.54563" lon="1.99966">
        <ele>2009</ele>
        <time>2018-07-07T07:13:21.000Z</time>
      </trkpt>
      <trkpt lat="42.54563" lon="1.99963">
        <ele>2009</ele>
        <time>2018-07-07T07:13:24.000Z</time>
      </trkpt>
      <trkpt lat="42.54564" lon="1.9996">
        <ele>2009</ele>
        <time>2018-07-07T07:13:26.000Z</time>
      </trkpt>
      <trkpt lat="42.54565" lon="1.99958">
        <ele>2010</ele>
        <time>2018-07-07T07:13:28.000Z</time>
      </trkpt>
      <trkpt lat="42.54566" lon="1.99955">
        <ele>2010</ele>
        <time>2018-07-07T07:13:30.000Z</time>
      </trkpt>
      <trkpt lat="42.54567" lon="1.99953">
        <ele>2010</ele>
        <time>2018-07-07T07:13:32.000Z</time>
      </trkpt>
      <trkpt lat="42.54568" lon="1.99949">
        <ele>2011</ele>
        <time>2018-07-07T07:13:35.000Z</time>
      </trkpt>
      <trkpt lat="42.54569" lon="1.99947">
        <ele>2011</ele>
        <time>2018-07-07T07:13:37.000Z</time>
      </trkpt>
      <trkpt lat="42.54569" lon="1.99944">
        <ele>2011</ele>
        <time>2018-07-07T07:13:39.000Z</time>
      </trkpt>
      <trkpt lat="42.5457" lon="1.99941">
        <ele>2012</ele>
        <time>2018-07-07T07:13:41.000Z</time>
      </trkpt>
      <trkpt lat="42.54569" lon="1.99939">
        <ele>2012</ele>
        <time>2018-07-07T07:13:43.000Z</time>
      </trkpt>
      <trkpt lat="42.54569" lon="1.99935">
        <ele>2012</ele>
        <time>2018-07-07T07:13:46.000Z</time>
      </trkpt>
      <trkpt lat="42.5457" lon="1.99933">
        <ele>2013</ele>
        <time>2018-07-07T07:13:48.000Z</time>
      </trkpt>
      <trkpt lat="42.5457" lon="1.9993">
        <ele>2013</ele>
        <time>2018-07-07T07:13:51.000Z</time>
      </trkpt>
      <trkpt lat="42.54571" lon="1.99927">
        <ele>2013</ele>
        <time>2018-07-07T07:13:54.000Z</time>
      </trkpt>
      <trkpt lat="42.54571" lon="1.99924">
        <ele>2014</ele>
        <time>2018-07-07T07:13:57.000Z</time>
      </trkpt>
      <trkpt lat="42.54571" lon="1.99921">
        <ele>2014</ele>
        <time>2018-07-07T07:14:00.000Z</time>
      </trkpt>
      <trkpt lat="42.54571" lon="1.99918">
        <ele>2014</ele>
        <time>2018-07-07T07:14:03.000Z</time>
      </trkpt>
      <trkpt lat="42.54572" lon="1.99914">
        <ele>2023</ele>
        <time>2018-07-07T07:14:06.000Z</time>
      </trkpt>
      <trkpt lat="42.54572" lon="1.99912">
        <ele>2023</ele>
        <time>2018-07-07T07:14:08.000Z</time>
      </trkpt>
      <trkpt lat="42.54573" lon="1.9991">
        <ele>2023</ele>
        <time>2018-07-07T07:14:10.000Z</time>
      </trkpt>
      <trkpt lat="42.54575" lon="1.99907">
        <ele>2023</ele>
        <time>2018-07-07T07:14:12.000Z</time>
      </trkpt>
      <trkpt lat="42.54576" lon="1.99905">
        <ele>2024</ele>
        <time>2018-07-07T07:14:14.000Z</time>
      </trkpt>
      <trkpt lat="42.54578" lon="1.99903">
        <ele>2024</ele>
        <time>2018-07-07T07:14:16.000Z</time>
      </trkpt>
      <trkpt lat="42.54581" lon="1.99901">
        <ele>2025</ele>
        <time>2018-07-07T07:14:18.000Z</time>
      </trkpt>
      <trkpt lat="42.54583" lon="1.99899">
        <ele>2025</ele>
        <time>2018-07-07T07:14:20.000Z</time>
      </trkpt>
      <trkpt lat="42.54585" lon="1.99899">
        <ele>2020</ele>
        <time>2018-07-07T07:14:22.000Z</time>
      </trkpt>
      <trkpt lat="42.54587" lon="1.99898">
        <ele>2020</ele>
        <time>2018-07-07T07:14:24.000Z</time>
      </trkpt>
      <trkpt lat="42.54589" lon="1.99899">
        <ele>2020</ele>
        <time>2018-07-07T07:14:26.000Z</time>
      </trkpt>
      <trkpt lat="42.54592" lon="1.99897">
        <ele>2020</ele>
        <time>2018-07-07T07:14:28.000Z</time>
      </trkpt>
      <trkpt lat="42.54593" lon="1.99894">
        <ele>2021</ele>
        <time>2018-07-07T07:14:30.000Z</time>
      </trkpt>
      <trkpt lat="42.54595" lon="1.99892">
        <ele>2021</ele>
        <time>2018-07-07T07:14:32.000Z</time>
      </trkpt>
      <trkpt lat="42.54597" lon="1.99892">
        <ele>2021</ele>
        <time>2018-07-07T07:14:34.000Z</time>
      </trkpt>
      <trkpt lat="42.54599" lon="1.99891">
        <ele>2021</ele>
        <time>2018-07-07T07:14:36.000Z</time>
      </trkpt>
      <trkpt lat="42.546" lon="1.99889">
        <ele>2021</ele>
        <time>2018-07-07T07:14:38.000Z</time>
      </trkpt>
      <trkpt lat="42.54602" lon="1.99887">
        <ele>2022</ele>
        <time>2018-07-07T07:14:40.000Z</time>
      </trkpt>
      <trkpt lat="42.54604" lon="1.99885">
        <ele>2022</ele>
        <time>2018-07-07T07:14:42.000Z</time>
      </trkpt>
      <trkpt lat="42.54607" lon="1.99883">
        <ele>2022</ele>
        <time>2018-07-07T07:14:44.000Z</time>
      </trkpt>
      <trkpt lat="42.54609" lon="1.99881">
        <ele>2022</ele>
        <time>2018-07-07T07:14:46.000Z</time>
      </trkpt>
      <trkpt lat="42.54611" lon="1.99879">
        <ele>2023</ele>
        <time>2018-07-07T07:14:48.000Z</time>
      </trkpt>
      <trkpt lat="42.54613" lon="1.99877">
        <ele>2023</ele>
        <time>2018-07-07T07:14:50.000Z</time>
      </trkpt>
      <trkpt lat="42.54614" lon="1.99874">
        <ele>2023</ele>
        <time>2018-07-07T07:14:52.000Z</time>
      </trkpt>
      <trkpt lat="42.54615" lon="1.99872">
        <ele>2023</ele>
        <time>2018-07-07T07:14:54.000Z</time>
      </trkpt>
      <trkpt lat="42.54616" lon="1.99869">
        <ele>2024</ele>
        <time>2018-07-07T07:14:56.000Z</time>
      </trkpt>
      <trkpt lat="42.54617" lon="1.99866">
        <ele>2024</ele>
        <time>2018-07-07T07:14:58.000Z</time>
      </trkpt>
      <trkpt lat="42.54617" lon="1.99863">
        <ele>2024</ele>
        <time>2018-07-07T07:15:00.000Z</time>
      </trkpt>
      <trkpt lat="42.54618" lon="1.9986">
        <ele>2025</ele>
        <time>2018-07-07T07:15:02.000Z</time>
      </trkpt>
      <trkpt lat="42.54619" lon="1.99858">
        <ele>2025</ele>
        <time>2018-07-07T07:15:04.000Z</time>
      </trkpt>
      <trkpt lat="42.54622" lon="1.99854">
        <ele>2025</ele>
        <time>2018-07-07T07:15:06.000Z</time>
      </trkpt>
      <trkpt lat="42.54623" lon="1.99853">
        <ele>2025</ele>
        <time>2018-07-07T07:15:07.000Z</time>
      </trkpt>
      <trkpt lat="42.54625" lon="1.99852">
        <ele>2025</ele>
        <time>2018-07-07T07:15:08.000Z</time>
      </trkpt>
      <trkpt lat="42.54627" lon="1.9985">
        <ele>2025</ele>
        <time>2018-07-07T07:15:09.000Z</time>
      </trkpt>
      <trkpt lat="42.54629" lon="1.99849">
        <ele>2025</ele>
        <time>2018-07-07T07:15:10.000Z</time>
      </trkpt>
      <trkpt lat="42.5463" lon="1.99848">
        <ele>2025</ele>
        <time>2018-07-07T07:15:11.000Z</time>
      </trkpt>
      <trkpt lat="42.54634" lon="1.99847">
        <ele>2025</ele>
        <time>2018-07-07T07:15:13.000Z</time>
      </trkpt>
      <trkpt lat="42.54635" lon="1.99846">
        <ele>2024</ele>
        <time>2018-07-07T07:15:14.000Z</time>
      </trkpt>
      <trkpt lat="42.54637" lon="1.99845">
        <ele>2024</ele>
        <time>2018-07-07T07:15:15.000Z</time>
      </trkpt>
      <trkpt lat="42.54641" lon="1.99844">
        <ele>2024</ele>
        <time>2018-07-07T07:15:17.000Z</time>
      </trkpt>
      <trkpt lat="42.54643" lon="1.99842">
        <ele>2024</ele>
        <time>2018-07-07T07:15:19.000Z</time>
      </trkpt>
      <trkpt lat="42.54646" lon="1.9984">
        <ele>2024</ele>
        <time>2018-07-07T07:15:21.000Z</time>
      </trkpt>
      <trkpt lat="42.5465" lon="1.99838">
        <ele>2024</ele>
        <time>2018-07-07T07:15:23.000Z</time>
      </trkpt>
      <trkpt lat="42.54651" lon="1.99837">
        <ele>2024</ele>
        <time>2018-07-07T07:15:24.000Z</time>
      </trkpt>
      <trkpt lat="42.54653" lon="1.99836">
        <ele>2024</ele>
        <time>2018-07-07T07:15:25.000Z</time>
      </trkpt>
      <trkpt lat="42.54657" lon="1.99835">
        <ele>2024</ele>
        <time>2018-07-07T07:15:27.000Z</time>
      </trkpt>
      <trkpt lat="42.54659" lon="1.99834">
        <ele>2024</ele>
        <time>2018-07-07T07:15:29.000Z</time>
      </trkpt>
      <trkpt lat="42.54661" lon="1.99832">
        <ele>2029</ele>
        <time>2018-07-07T07:15:31.000Z</time>
      </trkpt>
      <trkpt lat="42.54663" lon="1.9983">
        <ele>2028</ele>
        <time>2018-07-07T07:15:33.000Z</time>
      </trkpt>
      <trkpt lat="42.54665" lon="1.99828">
        <ele>2029</ele>
        <time>2018-07-07T07:15:35.000Z</time>
      </trkpt>
      <trkpt lat="42.54666" lon="1.99826">
        <ele>2030</ele>
        <time>2018-07-07T07:15:37.000Z</time>
      </trkpt>
      <trkpt lat="42.54668" lon="1.99823">
        <ele>2028</ele>
        <time>2018-07-07T07:15:39.000Z</time>
      </trkpt>
      <trkpt lat="42.54668" lon="1.99821">
        <ele>2028</ele>
        <time>2018-07-07T07:15:41.000Z</time>
      </trkpt>
      <trkpt lat="42.5467" lon="1.99819">
        <ele>2029</ele>
        <time>2018-07-07T07:15:43.000Z</time>
      </trkpt>
      <trkpt lat="42.54672" lon="1.99817">
        <ele>2029</ele>
        <time>2018-07-07T07:15:45.000Z</time>
      </trkpt>
      <trkpt lat="42.54673" lon="1.99815">
        <ele>2030</ele>
        <time>2018-07-07T07:15:47.000Z</time>
      </trkpt>
      <trkpt lat="42.54674" lon="1.99813">
        <ele>2030</ele>
        <time>2018-07-07T07:15:49.000Z</time>
      </trkpt>
      <trkpt lat="42.54675" lon="1.99811">
        <ele>2031</ele>
        <time>2018-07-07T07:15:52.000Z</time>
      </trkpt>
      <trkpt lat="42.54676" lon="1.99808">
        <ele>2031</ele>
        <time>2018-07-07T07:15:55.000Z</time>
      </trkpt>
      <trkpt lat="42.54677" lon="1.99804">
        <ele>2032</ele>
        <time>2018-07-07T07:15:58.000Z</time>
      </trkpt>
      <trkpt lat="42.54677" lon="1.99802">
        <ele>2032</ele>
        <time>2018-07-07T07:16:00.000Z</time>
      </trkpt>
      <trkpt lat="42.54678" lon="1.99799">
        <ele>2033</ele>
        <time>2018-07-07T07:16:03.000Z</time>
      </trkpt>
      <trkpt lat="42.54678" lon="1.99796">
        <ele>2034</ele>
        <time>2018-07-07T07:16:06.000Z</time>
      </trkpt>
      <trkpt lat="42.54677" lon="1.99793">
        <ele>2034</ele>
        <time>2018-07-07T07:16:09.000Z</time>
      </trkpt>
      <trkpt lat="42.54676" lon="1.99791">
        <ele>2035</ele>
        <time>2018-07-07T07:16:12.000Z</time>
      </trkpt>
      <trkpt lat="42.54676" lon="1.99788">
        <ele>2035</ele>
        <time>2018-07-07T07:16:15.000Z</time>
      </trkpt>
      <trkpt lat="42.54675" lon="1.99785">
        <ele>2036</ele>
        <time>2018-07-07T07:16:18.000Z</time>
      </trkpt>
      <trkpt lat="42.54675" lon="1.99782">
        <ele>2036</ele>
        <time>2018-07-07T07:16:21.000Z</time>
      </trkpt>
      <trkpt lat="42.54675" lon="1.9978">
        <ele>2037</ele>
        <time>2018-07-07T07:16:24.000Z</time>
      </trkpt>
      <trkpt lat="42.54674" lon="1.99777">
        <ele>2038</ele>
        <time>2018-07-07T07:16:27.000Z</time>
      </trkpt>
      <trkpt lat="42.54673" lon="1.99775">
        <ele>2038</ele>
        <time>2018-07-07T07:16:31.000Z</time>
      </trkpt>
      <trkpt lat="42.54671" lon="1.99772">
        <ele>2039</ele>
        <time>2018-07-07T07:16:35.000Z</time>
      </trkpt>
      <trkpt lat="42.5467" lon="1.9977">
        <ele>2040</ele>
        <time>2018-07-07T07:16:39.000Z</time>
      </trkpt>
      <trkpt lat="42.54669" lon="1.99768">
        <ele>2041</ele>
        <time>2018-07-07T07:16:43.000Z</time>
      </trkpt>
      <trkpt lat="42.54669" lon="1.99765">
        <ele>2041</ele>
        <time>2018-07-07T07:16:48.000Z</time>
      </trkpt>
      <trkpt lat="42.54668" lon="1.99763">
        <ele>2043</ele>
        <time>2018-07-07T07:16:53.000Z</time>
      </trkpt>
      <trkpt lat="42.54667" lon="1.9976">
        <ele>2044</ele>
        <time>2018-07-07T07:16:56.000Z</time>
      </trkpt>
      <trkpt lat="42.54666" lon="1.99758">
        <ele>2048</ele>
        <time>2018-07-07T07:17:01.000Z</time>
      </trkpt>
      <trkpt lat="42.54665" lon="1.99756">
        <ele>2048</ele>
        <time>2018-07-07T07:17:05.000Z</time>
      </trkpt>
      <trkpt lat="42.54664" lon="1.99753">
        <ele>2049</ele>
        <time>2018-07-07T07:17:09.000Z</time>
      </trkpt>
      <trkpt lat="42.54663" lon="1.99751">
        <ele>2049</ele>
        <time>2018-07-07T07:17:13.000Z</time>
      </trkpt>
      <trkpt lat="42.54663" lon="1.99748">
        <ele>2053</ele>
        <time>2018-07-07T07:17:17.000Z</time>
      </trkpt>
      <trkpt lat="42.54663" lon="1.99746">
        <ele>2054</ele>
        <time>2018-07-07T07:17:21.000Z</time>
      </trkpt>
      <trkpt lat="42.54662" lon="1.99743">
        <ele>2056</ele>
        <time>2018-07-07T07:17:24.000Z</time>
      </trkpt>
      <trkpt lat="42.5466" lon="1.99742">
        <ele>2057</ele>
        <time>2018-07-07T07:17:29.000Z</time>
      </trkpt>
      <trkpt lat="42.5466" lon="1.99738">
        <ele>2059</ele>
        <time>2018-07-07T07:17:34.000Z</time>
      </trkpt>
      <trkpt lat="42.54661" lon="1.99735">
        <ele>2060</ele>
        <time>2018-07-07T07:17:38.000Z</time>
      </trkpt>
      <trkpt lat="42.54663" lon="1.99734">
        <ele>2060</ele>
        <time>2018-07-07T07:17:41.000Z</time>
      </trkpt>
      <trkpt lat="42.54664" lon="1.99732">
        <ele>2061</ele>
        <time>2018-07-07T07:17:44.000Z</time>
      </trkpt>
      <trkpt lat="42.54666" lon="1.9973">
        <ele>2062</ele>
        <time>2018-07-07T07:17:47.000Z</time>
      </trkpt>
      <trkpt lat="42.54667" lon="1.99727">
        <ele>2055</ele>
        <time>2018-07-07T07:17:51.000Z</time>
      </trkpt>
      <trkpt lat="42.54667" lon="1.99724">
        <ele>2056</ele>
        <time>2018-07-07T07:17:55.000Z</time>
      </trkpt>
      <trkpt lat="42.54667" lon="1.99721">
        <ele>2065</ele>
        <time>2018-07-07T07:17:59.000Z</time>
      </trkpt>
      <trkpt lat="42.54667" lon="1.99717">
        <ele>2066</ele>
        <time>2018-07-07T07:18:03.000Z</time>
      </trkpt>
      <trkpt lat="42.54667" lon="1.99715">
        <ele>2058</ele>
        <time>2018-07-07T07:18:06.000Z</time>
      </trkpt>
      <trkpt lat="42.54667" lon="1.99711">
        <ele>2059</ele>
        <time>2018-07-07T07:18:09.000Z</time>
      </trkpt>
      <trkpt lat="42.54667" lon="1.99708">
        <ele>2069</ele>
        <time>2018-07-07T07:18:12.000Z</time>
      </trkpt>
      <trkpt lat="42.54666" lon="1.99706">
        <ele>2069</ele>
        <time>2018-07-07T07:18:16.000Z</time>
      </trkpt>
      <trkpt lat="42.54665" lon="1.99703">
        <ele>2070</ele>
        <time>2018-07-07T07:18:19.000Z</time>
      </trkpt>
      <trkpt lat="42.54664" lon="1.99701">
        <ele>2070</ele>
        <time>2018-07-07T07:18:24.000Z</time>
      </trkpt>
      <trkpt lat="42.54662" lon="1.997">
        <ele>2071</ele>
        <time>2018-07-07T07:18:27.000Z</time>
      </trkpt>
      <trkpt lat="42.5466" lon="1.99698">
        <ele>2071</ele>
        <time>2018-07-07T07:18:31.000Z</time>
      </trkpt>
      <trkpt lat="42.54659" lon="1.99696">
        <ele>2071</ele>
        <time>2018-07-07T07:18:35.000Z</time>
      </trkpt>
      <trkpt lat="42.54659" lon="1.99693">
        <ele>2072</ele>
        <time>2018-07-07T07:18:38.000Z</time>
      </trkpt>
      <trkpt lat="42.5466" lon="1.9969">
        <ele>2072</ele>
        <time>2018-07-07T07:18:41.000Z</time>
      </trkpt>
      <trkpt lat="42.5466" lon="1.99687">
        <ele>2073</ele>
        <time>2018-07-07T07:18:45.000Z</time>
      </trkpt>
      <trkpt lat="42.5466" lon="1.99684">
        <ele>2073</ele>
        <time>2018-07-07T07:18:48.000Z</time>
      </trkpt>
      <trkpt lat="42.5466" lon="1.99682">
        <ele>2074</ele>
        <time>2018-07-07T07:18:50.000Z</time>
      </trkpt>
      <trkpt lat="42.54662" lon="1.9968">
        <ele>2074</ele>
        <time>2018-07-07T07:18:52.000Z</time>
      </trkpt>
      <trkpt lat="42.54663" lon="1.99678">
        <ele>2074</ele>
        <time>2018-07-07T07:18:55.000Z</time>
      </trkpt>
      <trkpt lat="42.54664" lon="1.99676">
        <ele>2075</ele>
        <time>2018-07-07T07:18:58.000Z</time>
      </trkpt>
      <trkpt lat="42.54665" lon="1.99673">
        <ele>2075</ele>
        <time>2018-07-07T07:19:01.000Z</time>
      </trkpt>
      <trkpt lat="42.54666" lon="1.9967">
        <ele>2075</ele>
        <time>2018-07-07T07:19:04.000Z</time>
      </trkpt>
      <trkpt lat="42.54667" lon="1.99668">
        <ele>2075</ele>
        <time>2018-07-07T07:19:08.000Z</time>
      </trkpt>
      <trkpt lat="42.54668" lon="1.99666">
        <ele>2077</ele>
        <time>2018-07-07T07:19:11.000Z</time>
      </trkpt>
      <trkpt lat="42.54668" lon="1.99663">
        <ele>2077</ele>
        <time>2018-07-07T07:19:15.000Z</time>
      </trkpt>
      <trkpt lat="42.54667" lon="1.99661">
        <ele>2078</ele>
        <time>2018-07-07T07:19:18.000Z</time>
      </trkpt>
      <trkpt lat="42.54667" lon="1.99658">
        <ele>2082</ele>
        <time>2018-07-07T07:19:22.000Z</time>
      </trkpt>
      <trkpt lat="42.54665" lon="1.99656">
        <ele>2084</ele>
        <time>2018-07-07T07:19:27.000Z</time>
      </trkpt>
      <trkpt lat="42.54663" lon="1.99655">
        <ele>2085</ele>
        <time>2018-07-07T07:19:31.000Z</time>
      </trkpt>
      <trkpt lat="42.54662" lon="1.99652">
        <ele>2086</ele>
        <time>2018-07-07T07:19:35.000Z</time>
      </trkpt>
      <trkpt lat="42.54662" lon="1.9965">
        <ele>2087</ele>
        <time>2018-07-07T07:19:40.000Z</time>
      </trkpt>
      <trkpt lat="42.54662" lon="1.99647">
        <ele>2088</ele>
        <time>2018-07-07T07:19:45.000Z</time>
      </trkpt>
      <trkpt lat="42.54663" lon="1.99644">
        <ele>2089</ele>
        <time>2018-07-07T07:19:49.000Z</time>
      </trkpt>
      <trkpt lat="42.54663" lon="1.99641">
        <ele>2090</ele>
        <time>2018-07-07T07:19:53.000Z</time>
      </trkpt>
      <trkpt lat="42.54662" lon="1.99639">
        <ele>2091</ele>
        <time>2018-07-07T07:19:57.000Z</time>
      </trkpt>
      <trkpt lat="42.54661" lon="1.99636">
        <ele>2092</ele>
        <time>2018-07-07T07:20:02.000Z</time>
      </trkpt>
      <trkpt lat="42.5466" lon="1.99633">
        <ele>2093</ele>
        <time>2018-07-07T07:20:07.000Z</time>
      </trkpt>
      <trkpt lat="42.5466" lon="1.9963">
        <ele>2094</ele>
        <time>2018-07-07T07:20:12.000Z</time>
      </trkpt>
      <trkpt lat="42.54658" lon="1.99628">
        <ele>2095</ele>
        <time>2018-07-07T07:20:19.000Z</time>
      </trkpt>
      <trkpt lat="42.54656" lon="1.99627">
        <ele>2095</ele>
        <time>2018-07-07T07:20:23.000Z</time>
      </trkpt>
      <trkpt lat="42.54655" lon="1.99624">
        <ele>2096</ele>
        <time>2018-07-07T07:20:27.000Z</time>
      </trkpt>
      <trkpt lat="42.54655" lon="1.99622">
        <ele>2096</ele>
        <time>2018-07-07T07:20:31.000Z</time>
      </trkpt>
      <trkpt lat="42.54656" lon="1.99619">
        <ele>2097</ele>
        <time>2018-07-07T07:20:35.000Z</time>
      </trkpt>
      <trkpt lat="42.54655" lon="1.99616">
        <ele>2097</ele>
        <time>2018-07-07T07:20:40.000Z</time>
      </trkpt>
      <trkpt lat="42.54654" lon="1.99615">
        <ele>2098</ele>
        <time>2018-07-07T07:20:43.000Z</time>
      </trkpt>
      <trkpt lat="42.54654" lon="1.99612">
        <ele>2098</ele>
        <time>2018-07-07T07:20:46.000Z</time>
      </trkpt>
      <trkpt lat="42.54654" lon="1.99609">
        <ele>2099</ele>
        <time>2018-07-07T07:20:50.000Z</time>
      </trkpt>
      <trkpt lat="42.54652" lon="1.99607">
        <ele>2099</ele>
        <time>2018-07-07T07:20:55.000Z</time>
      </trkpt>
      <trkpt lat="42.54652" lon="1.99604">
        <ele>2100</ele>
        <time>2018-07-07T07:20:59.000Z</time>
      </trkpt>
      <trkpt lat="42.54653" lon="1.99601">
        <ele>2100</ele>
        <time>2018-07-07T07:21:03.000Z</time>
      </trkpt>
      <trkpt lat="42.54654" lon="1.99599">
        <ele>2101</ele>
        <time>2018-07-07T07:21:06.000Z</time>
      </trkpt>
      <trkpt lat="42.54655" lon="1.99596">
        <ele>2101</ele>
        <time>2018-07-07T07:21:10.000Z</time>
      </trkpt>
      <trkpt lat="42.54656" lon="1.99594">
        <ele>2102</ele>
        <time>2018-07-07T07:21:14.000Z</time>
      </trkpt>
      <trkpt lat="42.54655" lon="1.99591">
        <ele>2102</ele>
        <time>2018-07-07T07:21:19.000Z</time>
      </trkpt>
      <trkpt lat="42.54653" lon="1.99589">
        <ele>2102</ele>
        <time>2018-07-07T07:21:23.000Z</time>
      </trkpt>
      <trkpt lat="42.54652" lon="1.99587">
        <ele>2102</ele>
        <time>2018-07-07T07:21:27.000Z</time>
      </trkpt>
      <trkpt lat="42.54651" lon="1.99584">
        <ele>2102</ele>
        <time>2018-07-07T07:21:30.000Z</time>
      </trkpt>
      <trkpt lat="42.5465" lon="1.99581">
        <ele>2111</ele>
        <time>2018-07-07T07:21:33.000Z</time>
      </trkpt>
      <trkpt lat="42.54651" lon="1.99578">
        <ele>2111</ele>
        <time>2018-07-07T07:21:36.000Z</time>
      </trkpt>
      <trkpt lat="42.54651" lon="1.99576">
        <ele>2111</ele>
        <time>2018-07-07T07:21:40.000Z</time>
      </trkpt>
      <trkpt lat="42.54651" lon="1.99573">
        <ele>2111</ele>
        <time>2018-07-07T07:21:43.000Z</time>
      </trkpt>
      <trkpt lat="42.54651" lon="1.9957">
        <ele>2112</ele>
        <time>2018-07-07T07:21:46.000Z</time>
      </trkpt>
      <trkpt lat="42.54651" lon="1.99567">
        <ele>2112</ele>
        <time>2018-07-07T07:21:49.000Z</time>
      </trkpt>
      <trkpt lat="42.54651" lon="1.99564">
        <ele>2113</ele>
        <time>2018-07-07T07:21:53.000Z</time>
      </trkpt>
      <trkpt lat="42.5465" lon="1.99561">
        <ele>2113</ele>
        <time>2018-07-07T07:21:57.000Z</time>
      </trkpt>
      <trkpt lat="42.54651" lon="1.99559">
        <ele>2113</ele>
        <time>2018-07-07T07:22:01.000Z</time>
      </trkpt>
      <trkpt lat="42.54651" lon="1.99556">
        <ele>2114</ele>
        <time>2018-07-07T07:22:04.000Z</time>
      </trkpt>
      <trkpt lat="42.54653" lon="1.99553">
        <ele>2114</ele>
        <time>2018-07-07T07:22:08.000Z</time>
      </trkpt>
      <trkpt lat="42.54654" lon="1.9955">
        <ele>2114</ele>
        <time>2018-07-07T07:22:11.000Z</time>
      </trkpt>
      <trkpt lat="42.54655" lon="1.99548">
        <ele>2115</ele>
        <time>2018-07-07T07:22:14.000Z</time>
      </trkpt>
      <trkpt lat="42.54655" lon="1.99545">
        <ele>2115</ele>
        <time>2018-07-07T07:22:17.000Z</time>
      </trkpt>
      <trkpt lat="42.54656" lon="1.99543">
        <ele>2115</ele>
        <time>2018-07-07T07:22:20.000Z</time>
      </trkpt>
      <trkpt lat="42.54657" lon="1.9954">
        <ele>2116</ele>
        <time>2018-07-07T07:22:23.000Z</time>
      </trkpt>
      <trkpt lat="42.54657" lon="1.99537">
        <ele>2116</ele>
        <time>2018-07-07T07:22:26.000Z</time>
      </trkpt>
      <trkpt lat="42.54658" lon="1.99534">
        <ele>2116</ele>
        <time>2018-07-07T07:22:29.000Z</time>
      </trkpt>
      <trkpt lat="42.54657" lon="1.99531">
        <ele>2116</ele>
        <time>2018-07-07T07:22:33.000Z</time>
      </trkpt>
      <trkpt lat="42.54656" lon="1.99529">
        <ele>2117</ele>
        <time>2018-07-07T07:22:37.000Z</time>
      </trkpt>
      <trkpt lat="42.54654" lon="1.99527">
        <ele>2117</ele>
        <time>2018-07-07T07:22:40.000Z</time>
      </trkpt>
      <trkpt lat="42.54652" lon="1.99524">
        <ele>2117</ele>
        <time>2018-07-07T07:22:43.000Z</time>
      </trkpt>
      <trkpt lat="42.54651" lon="1.99522">
        <ele>2117</ele>
        <time>2018-07-07T07:22:46.000Z</time>
      </trkpt>
      <trkpt lat="42.54649" lon="1.99519">
        <ele>2118</ele>
        <time>2018-07-07T07:22:49.000Z</time>
      </trkpt>
      <trkpt lat="42.54648" lon="1.99518">
        <ele>2118</ele>
        <time>2018-07-07T07:22:51.000Z</time>
      </trkpt>
      <trkpt lat="42.54646" lon="1.99515">
        <ele>2118</ele>
        <time>2018-07-07T07:22:54.000Z</time>
      </trkpt>
      <trkpt lat="42.54645" lon="1.99513">
        <ele>2118</ele>
        <time>2018-07-07T07:22:57.000Z</time>
      </trkpt>
      <trkpt lat="42.54644" lon="1.9951">
        <ele>2118</ele>
        <time>2018-07-07T07:23:00.000Z</time>
      </trkpt>
      <trkpt lat="42.54643" lon="1.99507">
        <ele>2118</ele>
        <time>2018-07-07T07:23:03.000Z</time>
      </trkpt>
      <trkpt lat="42.54642" lon="1.99505">
        <ele>2118</ele>
        <time>2018-07-07T07:23:06.000Z</time>
      </trkpt>
      <trkpt lat="42.5464" lon="1.99503">
        <ele>2119</ele>
        <time>2018-07-07T07:23:08.000Z</time>
      </trkpt>
      <trkpt lat="42.54639" lon="1.99501">
        <ele>2119</ele>
        <time>2018-07-07T07:23:10.000Z</time>
      </trkpt>
      <trkpt lat="42.54637" lon="1.99499">
        <ele>2124</ele>
        <time>2018-07-07T07:23:12.000Z</time>
      </trkpt>
      <trkpt lat="42.54637" lon="1.99496">
        <ele>2124</ele>
        <time>2018-07-07T07:23:14.000Z</time>
      </trkpt>
      <trkpt lat="42.54635" lon="1.99494">
        <ele>2124</ele>
        <time>2018-07-07T07:23:16.000Z</time>
      </trkpt>
      <trkpt lat="42.54633" lon="1.99491">
        <ele>2124</ele>
        <time>2018-07-07T07:23:18.000Z</time>
      </trkpt>
      <trkpt lat="42.54633" lon="1.99488">
        <ele>2124</ele>
        <time>2018-07-07T07:23:20.000Z</time>
      </trkpt>
      <trkpt lat="42.54631" lon="1.99484">
        <ele>2125</ele>
        <time>2018-07-07T07:23:22.000Z</time>
      </trkpt>
      <trkpt lat="42.5463" lon="1.99482">
        <ele>2125</ele>
        <time>2018-07-07T07:23:23.000Z</time>
      </trkpt>
      <trkpt lat="42.54628" lon="1.99479">
        <ele>2125</ele>
        <time>2018-07-07T07:23:24.000Z</time>
      </trkpt>
      <trkpt lat="42.54628" lon="1.99476">
        <ele>2125</ele>
        <time>2018-07-07T07:23:25.000Z</time>
      </trkpt>
      <trkpt lat="42.54626" lon="1.99474">
        <ele>2125</ele>
        <time>2018-07-07T07:23:26.000Z</time>
      </trkpt>
      <trkpt lat="42.54625" lon="1.99471">
        <ele>2125</ele>
        <time>2018-07-07T07:23:27.000Z</time>
      </trkpt>
      <trkpt lat="42.54624" lon="1.99469">
        <ele>2126</ele>
        <time>2018-07-07T07:23:28.000Z</time>
      </trkpt>
      <trkpt lat="42.54622" lon="1.99467">
        <ele>2126</ele>
        <time>2018-07-07T07:23:29.000Z</time>
      </trkpt>
      <trkpt lat="42.5462" lon="1.99464">
        <ele>2126</ele>
        <time>2018-07-07T07:23:30.000Z</time>
      </trkpt>
      <trkpt lat="42.54619" lon="1.99462">
        <ele>2126</ele>
        <time>2018-07-07T07:23:31.000Z</time>
      </trkpt>
      <trkpt lat="42.54617" lon="1.99461">
        <ele>2126</ele>
        <time>2018-07-07T07:23:32.000Z</time>
      </trkpt>
      <trkpt lat="42.54616" lon="1.99457">
        <ele>2126</ele>
        <time>2018-07-07T07:23:34.000Z</time>
      </trkpt>
      <trkpt lat="42.54614" lon="1.99454">
        <ele>2126</ele>
        <time>2018-07-07T07:23:36.000Z</time>
      </trkpt>
      <trkpt lat="42.54613" lon="1.99452">
        <ele>2127</ele>
        <time>2018-07-07T07:23:38.000Z</time>
      </trkpt>
      <trkpt lat="42.54612" lon="1.99449">
        <ele>2127</ele>
        <time>2018-07-07T07:23:40.000Z</time>
      </trkpt>
      <trkpt lat="42.54611" lon="1.99447">
        <ele>2127</ele>
        <time>2018-07-07T07:23:42.000Z</time>
      </trkpt>
      <trkpt lat="42.54609" lon="1.99444">
        <ele>2127</ele>
        <time>2018-07-07T07:23:44.000Z</time>
      </trkpt>
      <trkpt lat="42.54607" lon="1.99441">
        <ele>2127</ele>
        <time>2018-07-07T07:23:46.000Z</time>
      </trkpt>
      <trkpt lat="42.54606" lon="1.99438">
        <ele>2128</ele>
        <time>2018-07-07T07:23:48.000Z</time>
      </trkpt>
      <trkpt lat="42.54605" lon="1.99435">
        <ele>2128</ele>
        <time>2018-07-07T07:23:50.000Z</time>
      </trkpt>
      <trkpt lat="42.54604" lon="1.99432">
        <ele>2128</ele>
        <time>2018-07-07T07:23:52.000Z</time>
      </trkpt>
      <trkpt lat="42.54603" lon="1.99429">
        <ele>2128</ele>
        <time>2018-07-07T07:23:54.000Z</time>
      </trkpt>
      <trkpt lat="42.54602" lon="1.99427">
        <ele>2128</ele>
        <time>2018-07-07T07:23:56.000Z</time>
      </trkpt>
      <trkpt lat="42.54601" lon="1.99425">
        <ele>2129</ele>
        <time>2018-07-07T07:23:58.000Z</time>
      </trkpt>
      <trkpt lat="42.546" lon="1.99422">
        <ele>2129</ele>
        <time>2018-07-07T07:24:01.000Z</time>
      </trkpt>
      <trkpt lat="42.54599" lon="1.99419">
        <ele>2129</ele>
        <time>2018-07-07T07:24:03.000Z</time>
      </trkpt>
      <trkpt lat="42.54598" lon="1.99416">
        <ele>2130</ele>
        <time>2018-07-07T07:24:06.000Z</time>
      </trkpt>
      <trkpt lat="42.54597" lon="1.99414">
        <ele>2130</ele>
        <time>2018-07-07T07:24:08.000Z</time>
      </trkpt>
      <trkpt lat="42.54596" lon="1.99412">
        <ele>2131</ele>
        <time>2018-07-07T07:24:10.000Z</time>
      </trkpt>
      <trkpt lat="42.54595" lon="1.9941">
        <ele>2131</ele>
        <time>2018-07-07T07:24:12.000Z</time>
      </trkpt>
      <trkpt lat="42.54594" lon="1.99407">
        <ele>2130</ele>
        <time>2018-07-07T07:24:14.000Z</time>
      </trkpt>
      <trkpt lat="42.54593" lon="1.99404">
        <ele>2130</ele>
        <time>2018-07-07T07:24:16.000Z</time>
      </trkpt>
      <trkpt lat="42.54593" lon="1.99401">
        <ele>2130</ele>
        <time>2018-07-07T07:24:18.000Z</time>
      </trkpt>
      <trkpt lat="42.54591" lon="1.99398">
        <ele>2130</ele>
        <time>2018-07-07T07:24:21.000Z</time>
      </trkpt>
      <trkpt lat="42.54589" lon="1.99395">
        <ele>2130</ele>
        <time>2018-07-07T07:24:24.000Z</time>
      </trkpt>
      <trkpt lat="42.54588" lon="1.99393">
        <ele>2130</ele>
        <time>2018-07-07T07:24:27.000Z</time>
      </trkpt>
      <trkpt lat="42.5459" lon="1.9939">
        <ele>2130</ele>
        <time>2018-07-07T07:24:30.000Z</time>
      </trkpt>
      <trkpt lat="42.54589" lon="1.99387">
        <ele>2130</ele>
        <time>2018-07-07T07:24:32.000Z</time>
      </trkpt>
      <trkpt lat="42.54587" lon="1.99384">
        <ele>2130</ele>
        <time>2018-07-07T07:24:34.000Z</time>
      </trkpt>
      <trkpt lat="42.54586" lon="1.99381">
        <ele>2130</ele>
        <time>2018-07-07T07:24:36.000Z</time>
      </trkpt>
      <trkpt lat="42.54585" lon="1.99378">
        <ele>2130</ele>
        <time>2018-07-07T07:24:37.000Z</time>
      </trkpt>
      <trkpt lat="42.54584" lon="1.99376">
        <ele>2130</ele>
        <time>2018-07-07T07:24:38.000Z</time>
      </trkpt>
      <trkpt lat="42.54583" lon="1.99373">
        <ele>2137</ele>
        <time>2018-07-07T07:24:39.000Z</time>
      </trkpt>
      <trkpt lat="42.54581" lon="1.99371">
        <ele>2137</ele>
        <time>2018-07-07T07:24:40.000Z</time>
      </trkpt>
      <trkpt lat="42.5458" lon="1.99369">
        <ele>2137</ele>
        <time>2018-07-07T07:24:41.000Z</time>
      </trkpt>
      <trkpt lat="42.54578" lon="1.99368">
        <ele>2137</ele>
        <time>2018-07-07T07:24:42.000Z</time>
      </trkpt>
      <trkpt lat="42.54576" lon="1.99365">
        <ele>2137</ele>
        <time>2018-07-07T07:24:43.000Z</time>
      </trkpt>
      <trkpt lat="42.54575" lon="1.99363">
        <ele>2137</ele>
        <time>2018-07-07T07:24:44.000Z</time>
      </trkpt>
      <trkpt lat="42.54573" lon="1.99361">
        <ele>2137</ele>
        <time>2018-07-07T07:24:45.000Z</time>
      </trkpt>
      <trkpt lat="42.54572" lon="1.99359">
        <ele>2137</ele>
        <time>2018-07-07T07:24:46.000Z</time>
      </trkpt>
      <trkpt lat="42.54571" lon="1.99356">
        <ele>2137</ele>
        <time>2018-07-07T07:24:47.000Z</time>
      </trkpt>
      <trkpt lat="42.54571" lon="1.99353">
        <ele>2137</ele>
        <time>2018-07-07T07:24:48.000Z</time>
      </trkpt>
      <trkpt lat="42.54571" lon="1.9935">
        <ele>2137</ele>
        <time>2018-07-07T07:24:49.000Z</time>
      </trkpt>
      <trkpt lat="42.54571" lon="1.99348">
        <ele>2137</ele>
        <time>2018-07-07T07:24:50.000Z</time>
      </trkpt>
      <trkpt lat="42.54571" lon="1.99344">
        <ele>2136</ele>
        <time>2018-07-07T07:24:51.000Z</time>
      </trkpt>
      <trkpt lat="42.54571" lon="1.99342">
        <ele>2136</ele>
        <time>2018-07-07T07:24:52.000Z</time>
      </trkpt>
      <trkpt lat="42.54571" lon="1.99339">
        <ele>2136</ele>
        <time>2018-07-07T07:24:53.000Z</time>
      </trkpt>
      <trkpt lat="42.54571" lon="1.99336">
        <ele>2136</ele>
        <time>2018-07-07T07:24:54.000Z</time>
      </trkpt>
      <trkpt lat="42.54571" lon="1.99333">
        <ele>2136</ele>
        <time>2018-07-07T07:24:55.000Z</time>
      </trkpt>
      <trkpt lat="42.54571" lon="1.9933">
        <ele>2136</ele>
        <time>2018-07-07T07:24:56.000Z</time>
      </trkpt>
      <trkpt lat="42.5457" lon="1.99327">
        <ele>2137</ele>
        <time>2018-07-07T07:24:57.000Z</time>
      </trkpt>
      <trkpt lat="42.54569" lon="1.99325">
        <ele>2137</ele>
        <time>2018-07-07T07:24:58.000Z</time>
      </trkpt>
      <trkpt lat="42.54569" lon="1.99321">
        <ele>2137</ele>
        <time>2018-07-07T07:24:59.000Z</time>
      </trkpt>
      <trkpt lat="42.54568" lon="1.99318">
        <ele>2138</ele>
        <time>2018-07-07T07:25:00.000Z</time>
      </trkpt>
      <trkpt lat="42.54567" lon="1.99315">
        <ele>2138</ele>
        <time>2018-07-07T07:25:01.000Z</time>
      </trkpt>
      <trkpt lat="42.54567" lon="1.99312">
        <ele>2138</ele>
        <time>2018-07-07T07:25:02.000Z</time>
      </trkpt>
      <trkpt lat="42.54566" lon="1.99309">
        <ele>2138</ele>
        <time>2018-07-07T07:25:03.000Z</time>
      </trkpt>
      <trkpt lat="42.54566" lon="1.99307">
        <ele>2139</ele>
        <time>2018-07-07T07:25:04.000Z</time>
      </trkpt>
      <trkpt lat="42.54566" lon="1.99304">
        <ele>2139</ele>
        <time>2018-07-07T07:25:05.000Z</time>
      </trkpt>
      <trkpt lat="42.54566" lon="1.99301">
        <ele>2139</ele>
        <time>2018-07-07T07:25:06.000Z</time>
      </trkpt>
      <trkpt lat="42.54565" lon="1.99298">
        <ele>2139</ele>
        <time>2018-07-07T07:25:07.000Z</time>
      </trkpt>
      <trkpt lat="42.54565" lon="1.99296">
        <ele>2139</ele>
        <time>2018-07-07T07:25:08.000Z</time>
      </trkpt>
      <trkpt lat="42.54565" lon="1.99293">
        <ele>2139</ele>
        <time>2018-07-07T07:25:09.000Z</time>
      </trkpt>
      <trkpt lat="42.54565" lon="1.9929">
        <ele>2139</ele>
        <time>2018-07-07T07:25:10.000Z</time>
      </trkpt>
      <trkpt lat="42.54565" lon="1.99287">
        <ele>2139</ele>
        <time>2018-07-07T07:25:11.000Z</time>
      </trkpt>
      <trkpt lat="42.54565" lon="1.99284">
        <ele>2139</ele>
        <time>2018-07-07T07:25:12.000Z</time>
      </trkpt>
      <trkpt lat="42.54566" lon="1.99281">
        <ele>2139</ele>
        <time>2018-07-07T07:25:13.000Z</time>
      </trkpt>
      <trkpt lat="42.54566" lon="1.99279">
        <ele>2139</ele>
        <time>2018-07-07T07:25:14.000Z</time>
      </trkpt>
      <trkpt lat="42.54567" lon="1.99276">
        <ele>2139</ele>
        <time>2018-07-07T07:25:15.000Z</time>
      </trkpt>
      <trkpt lat="42.54567" lon="1.99273">
        <ele>2139</ele>
        <time>2018-07-07T07:25:16.000Z</time>
      </trkpt>
      <trkpt lat="42.54567" lon="1.9927">
        <ele>2138</ele>
        <time>2018-07-07T07:25:17.000Z</time>
      </trkpt>
      <trkpt lat="42.54567" lon="1.99267">
        <ele>2138</ele>
        <time>2018-07-07T07:25:18.000Z</time>
      </trkpt>
      <trkpt lat="42.54566" lon="1.99264">
        <ele>2138</ele>
        <time>2018-07-07T07:25:19.000Z</time>
      </trkpt>
      <trkpt lat="42.54566" lon="1.99262">
        <ele>2138</ele>
        <time>2018-07-07T07:25:20.000Z</time>
      </trkpt>
      <trkpt lat="42.54566" lon="1.99259">
        <ele>2138</ele>
        <time>2018-07-07T07:25:21.000Z</time>
      </trkpt>
      <trkpt lat="42.54566" lon="1.99256">
        <ele>2138</ele>
        <time>2018-07-07T07:25:22.000Z</time>
      </trkpt>
      <trkpt lat="42.54566" lon="1.99254">
        <ele>2138</ele>
        <time>2018-07-07T07:25:23.000Z</time>
      </trkpt>
      <trkpt lat="42.54565" lon="1.99251">
        <ele>2138</ele>
        <time>2018-07-07T07:25:24.000Z</time>
      </trkpt>
      <trkpt lat="42.54565" lon="1.99248">
        <ele>2138</ele>
        <time>2018-07-07T07:25:25.000Z</time>
      </trkpt>
      <trkpt lat="42.54564" lon="1.99244">
        <ele>2138</ele>
        <time>2018-07-07T07:25:27.000Z</time>
      </trkpt>
      <trkpt lat="42.54564" lon="1.99241">
        <ele>2139</ele>
        <time>2018-07-07T07:25:28.000Z</time>
      </trkpt>
      <trkpt lat="42.54563" lon="1.99239">
        <ele>2139</ele>
        <time>2018-07-07T07:25:29.000Z</time>
      </trkpt>
      <trkpt lat="42.54563" lon="1.99236">
        <ele>2139</ele>
        <time>2018-07-07T07:25:30.000Z</time>
      </trkpt>
      <trkpt lat="42.54562" lon="1.99233">
        <ele>2139</ele>
        <time>2018-07-07T07:25:31.000Z</time>
      </trkpt>
      <trkpt lat="42.54561" lon="1.99231">
        <ele>2140</ele>
        <time>2018-07-07T07:25:32.000Z</time>
      </trkpt>
      <trkpt lat="42.5456" lon="1.99229">
        <ele>2140</ele>
        <time>2018-07-07T07:25:33.000Z</time>
      </trkpt>
      <trkpt lat="42.54559" lon="1.99224">
        <ele>2140</ele>
        <time>2018-07-07T07:25:35.000Z</time>
      </trkpt>
      <trkpt lat="42.54559" lon="1.99221">
        <ele>2140</ele>
        <time>2018-07-07T07:25:36.000Z</time>
      </trkpt>
      <trkpt lat="42.54559" lon="1.99217">
        <ele>2140</ele>
        <time>2018-07-07T07:25:38.000Z</time>
      </trkpt>
      <trkpt lat="42.54559" lon="1.99212">
        <ele>2140</ele>
        <time>2018-07-07T07:25:40.000Z</time>
      </trkpt>
      <trkpt lat="42.54559" lon="1.99208">
        <ele>2140</ele>
        <time>2018-07-07T07:25:42.000Z</time>
      </trkpt>
      <trkpt lat="42.5456" lon="1.99203">
        <ele>2140</ele>
        <time>2018-07-07T07:25:44.000Z</time>
      </trkpt>
      <trkpt lat="42.54559" lon="1.99199">
        <ele>2140</ele>
        <time>2018-07-07T07:25:46.000Z</time>
      </trkpt>
      <trkpt lat="42.54559" lon="1.99194">
        <ele>2140</ele>
        <time>2018-07-07T07:25:48.000Z</time>
      </trkpt>
      <trkpt lat="42.5456" lon="1.99191">
        <ele>2140</ele>
        <time>2018-07-07T07:25:49.000Z</time>
      </trkpt>
      <trkpt lat="42.54561" lon="1.99189">
        <ele>2140</ele>
        <time>2018-07-07T07:25:50.000Z</time>
      </trkpt>
      <trkpt lat="42.54562" lon="1.99186">
        <ele>2140</ele>
        <time>2018-07-07T07:25:51.000Z</time>
      </trkpt>
      <trkpt lat="42.54563" lon="1.99182">
        <ele>2139</ele>
        <time>2018-07-07T07:25:53.000Z</time>
      </trkpt>
      <trkpt lat="42.54563" lon="1.99179">
        <ele>2139</ele>
        <time>2018-07-07T07:25:54.000Z</time>
      </trkpt>
      <trkpt lat="42.54563" lon="1.99177">
        <ele>2139</ele>
        <time>2018-07-07T07:25:55.000Z</time>
      </trkpt>
      <trkpt lat="42.54564" lon="1.99172">
        <ele>2139</ele>
        <time>2018-07-07T07:25:57.000Z</time>
      </trkpt>
      <trkpt lat="42.54564" lon="1.9917">
        <ele>2139</ele>
        <time>2018-07-07T07:25:58.000Z</time>
      </trkpt>
      <trkpt lat="42.54564" lon="1.99167">
        <ele>2140</ele>
        <time>2018-07-07T07:25:59.000Z</time>
      </trkpt>
      <trkpt lat="42.54564" lon="1.99164">
        <ele>2140</ele>
        <time>2018-07-07T07:26:00.000Z</time>
      </trkpt>
      <trkpt lat="42.54564" lon="1.99161">
        <ele>2140</ele>
        <time>2018-07-07T07:26:01.000Z</time>
      </trkpt>
      <trkpt lat="42.54564" lon="1.99158">
        <ele>2140</ele>
        <time>2018-07-07T07:26:02.000Z</time>
      </trkpt>
      <trkpt lat="42.54564" lon="1.99154">
        <ele>2140</ele>
        <time>2018-07-07T07:26:04.000Z</time>
      </trkpt>
      <trkpt lat="42.54563" lon="1.9915">
        <ele>2141</ele>
        <time>2018-07-07T07:26:06.000Z</time>
      </trkpt>
      <trkpt lat="42.54562" lon="1.99145">
        <ele>2141</ele>
        <time>2018-07-07T07:26:08.000Z</time>
      </trkpt>
      <trkpt lat="42.54562" lon="1.99142">
        <ele>2141</ele>
        <time>2018-07-07T07:26:09.000Z</time>
      </trkpt>
      <trkpt lat="42.54562" lon="1.99139">
        <ele>2141</ele>
        <time>2018-07-07T07:26:10.000Z</time>
      </trkpt>
      <trkpt lat="42.54562" lon="1.99136">
        <ele>2141</ele>
        <time>2018-07-07T07:26:11.000Z</time>
      </trkpt>
      <trkpt lat="42.54562" lon="1.99133">
        <ele>2141</ele>
        <time>2018-07-07T07:26:12.000Z</time>
      </trkpt>
      <trkpt lat="42.54562" lon="1.9913">
        <ele>2142</ele>
        <time>2018-07-07T07:26:13.000Z</time>
      </trkpt>
      <trkpt lat="42.54562" lon="1.99128">
        <ele>2142</ele>
        <time>2018-07-07T07:26:14.000Z</time>
      </trkpt>
      <trkpt lat="42.54562" lon="1.99125">
        <ele>2142</ele>
        <time>2018-07-07T07:26:15.000Z</time>
      </trkpt>
      <trkpt lat="42.54562" lon="1.99122">
        <ele>2142</ele>
        <time>2018-07-07T07:26:16.000Z</time>
      </trkpt>
      <trkpt lat="42.54562" lon="1.9912">
        <ele>2142</ele>
        <time>2018-07-07T07:26:17.000Z</time>
      </trkpt>
      <trkpt lat="42.54562" lon="1.99117">
        <ele>2142</ele>
        <time>2018-07-07T07:26:18.000Z</time>
      </trkpt>
      <trkpt lat="42.54562" lon="1.99114">
        <ele>2142</ele>
        <time>2018-07-07T07:26:20.000Z</time>
      </trkpt>
      <trkpt lat="42.54563" lon="1.9911">
        <ele>2142</ele>
        <time>2018-07-07T07:26:22.000Z</time>
      </trkpt>
      <trkpt lat="42.54563" lon="1.99107">
        <ele>2142</ele>
        <time>2018-07-07T07:26:24.000Z</time>
      </trkpt>
      <trkpt lat="42.54564" lon="1.99104">
        <ele>2142</ele>
        <time>2018-07-07T07:26:26.000Z</time>
      </trkpt>
      <trkpt lat="42.54564" lon="1.991">
        <ele>2141</ele>
        <time>2018-07-07T07:26:28.000Z</time>
      </trkpt>
      <trkpt lat="42.54565" lon="1.99095">
        <ele>2141</ele>
        <time>2018-07-07T07:26:30.000Z</time>
      </trkpt>
      <trkpt lat="42.54565" lon="1.99092">
        <ele>2141</ele>
        <time>2018-07-07T07:26:31.000Z</time>
      </trkpt>
      <trkpt lat="42.54565" lon="1.9909">
        <ele>2141</ele>
        <time>2018-07-07T07:26:32.000Z</time>
      </trkpt>
      <trkpt lat="42.54565" lon="1.99087">
        <ele>2141</ele>
        <time>2018-07-07T07:26:33.000Z</time>
      </trkpt>
      <trkpt lat="42.54566" lon="1.99084">
        <ele>2141</ele>
        <time>2018-07-07T07:26:34.000Z</time>
      </trkpt>
      <trkpt lat="42.54566" lon="1.99082">
        <ele>2143</ele>
        <time>2018-07-07T07:26:35.000Z</time>
      </trkpt>
      <trkpt lat="42.54567" lon="1.99079">
        <ele>2143</ele>
        <time>2018-07-07T07:26:36.000Z</time>
      </trkpt>
      <trkpt lat="42.54568" lon="1.99076">
        <ele>2143</ele>
        <time>2018-07-07T07:26:37.000Z</time>
      </trkpt>
      <trkpt lat="42.54568" lon="1.99073">
        <ele>2144</ele>
        <time>2018-07-07T07:26:38.000Z</time>
      </trkpt>
      <trkpt lat="42.54568" lon="1.9907">
        <ele>2144</ele>
        <time>2018-07-07T07:26:39.000Z</time>
      </trkpt>
      <trkpt lat="42.54568" lon="1.99066">
        <ele>2144</ele>
        <time>2018-07-07T07:26:40.000Z</time>
      </trkpt>
      <trkpt lat="42.54568" lon="1.99063">
        <ele>2145</ele>
        <time>2018-07-07T07:26:41.000Z</time>
      </trkpt>
      <trkpt lat="42.54567" lon="1.9906">
        <ele>2145</ele>
        <time>2018-07-07T07:26:42.000Z</time>
      </trkpt>
      <trkpt lat="42.54567" lon="1.99057">
        <ele>2145</ele>
        <time>2018-07-07T07:26:43.000Z</time>
      </trkpt>
      <trkpt lat="42.54567" lon="1.99054">
        <ele>2146</ele>
        <time>2018-07-07T07:26:44.000Z</time>
      </trkpt>
      <trkpt lat="42.54567" lon="1.99051">
        <ele>2146</ele>
        <time>2018-07-07T07:26:45.000Z</time>
      </trkpt>
      <trkpt lat="42.54567" lon="1.99048">
        <ele>2146</ele>
        <time>2018-07-07T07:26:46.000Z</time>
      </trkpt>
      <trkpt lat="42.54567" lon="1.99045">
        <ele>2146</ele>
        <time>2018-07-07T07:26:47.000Z</time>
      </trkpt>
      <trkpt lat="42.54567" lon="1.99042">
        <ele>2147</ele>
        <time>2018-07-07T07:26:48.000Z</time>
      </trkpt>
      <trkpt lat="42.54567" lon="1.99039">
        <ele>2147</ele>
        <time>2018-07-07T07:26:49.000Z</time>
      </trkpt>
      <trkpt lat="42.54568" lon="1.99036">
        <ele>2147</ele>
        <time>2018-07-07T07:26:50.000Z</time>
      </trkpt>
      <trkpt lat="42.54568" lon="1.99033">
        <ele>2147</ele>
        <time>2018-07-07T07:26:51.000Z</time>
      </trkpt>
      <trkpt lat="42.54567" lon="1.99031">
        <ele>2147</ele>
        <time>2018-07-07T07:26:52.000Z</time>
      </trkpt>
      <trkpt lat="42.54566" lon="1.99028">
        <ele>2147</ele>
        <time>2018-07-07T07:26:54.000Z</time>
      </trkpt>
      <trkpt lat="42.54565" lon="1.99025">
        <ele>2147</ele>
        <time>2018-07-07T07:26:56.000Z</time>
      </trkpt>
      <trkpt lat="42.54564" lon="1.99023">
        <ele>2147</ele>
        <time>2018-07-07T07:26:58.000Z</time>
      </trkpt>
      <trkpt lat="42.54563" lon="1.9902">
        <ele>2148</ele>
        <time>2018-07-07T07:27:01.000Z</time>
      </trkpt>
      <trkpt lat="42.54562" lon="1.99017">
        <ele>2148</ele>
        <time>2018-07-07T07:27:04.000Z</time>
      </trkpt>
      <trkpt lat="42.54562" lon="1.99014">
        <ele>2148</ele>
        <time>2018-07-07T07:27:06.000Z</time>
      </trkpt>
      <trkpt lat="42.54562" lon="1.99011">
        <ele>2148</ele>
        <time>2018-07-07T07:27:08.000Z</time>
      </trkpt>
      <trkpt lat="42.54561" lon="1.99008">
        <ele>2148</ele>
        <time>2018-07-07T07:27:10.000Z</time>
      </trkpt>
      <trkpt lat="42.54561" lon="1.99005">
        <ele>2148</ele>
        <time>2018-07-07T07:27:11.000Z</time>
      </trkpt>
      <trkpt lat="42.5456" lon="1.99003">
        <ele>2148</ele>
        <time>2018-07-07T07:27:12.000Z</time>
      </trkpt>
      <trkpt lat="42.54561" lon="1.98998">
        <ele>2151</ele>
        <time>2018-07-07T07:27:14.000Z</time>
      </trkpt>
      <trkpt lat="42.54561" lon="1.98996">
        <ele>2151</ele>
        <time>2018-07-07T07:27:15.000Z</time>
      </trkpt>
      <trkpt lat="42.54562" lon="1.98992">
        <ele>2151</ele>
        <time>2018-07-07T07:27:16.000Z</time>
      </trkpt>
      <trkpt lat="42.54562" lon="1.98989">
        <ele>2151</ele>
        <time>2018-07-07T07:27:17.000Z</time>
      </trkpt>
      <trkpt lat="42.54563" lon="1.98985">
        <ele>2151</ele>
        <time>2018-07-07T07:27:19.000Z</time>
      </trkpt>
      <trkpt lat="42.54563" lon="1.98982">
        <ele>2152</ele>
        <time>2018-07-07T07:27:20.000Z</time>
      </trkpt>
      <trkpt lat="42.54563" lon="1.98979">
        <ele>2152</ele>
        <time>2018-07-07T07:27:21.000Z</time>
      </trkpt>
      <trkpt lat="42.54563" lon="1.98975">
        <ele>2152</ele>
        <time>2018-07-07T07:27:23.000Z</time>
      </trkpt>
      <trkpt lat="42.54563" lon="1.98971">
        <ele>2152</ele>
        <time>2018-07-07T07:27:25.000Z</time>
      </trkpt>
      <trkpt lat="42.54563" lon="1.98968">
        <ele>2153</ele>
        <time>2018-07-07T07:27:27.000Z</time>
      </trkpt>
      <trkpt lat="42.54564" lon="1.98966">
        <ele>2153</ele>
        <time>2018-07-07T07:27:29.000Z</time>
      </trkpt>
      <trkpt lat="42.54565" lon="1.98963">
        <ele>2153</ele>
        <time>2018-07-07T07:27:31.000Z</time>
      </trkpt>
      <trkpt lat="42.54567" lon="1.98961">
        <ele>2153</ele>
        <time>2018-07-07T07:27:33.000Z</time>
      </trkpt>
      <trkpt lat="42.54569" lon="1.98959">
        <ele>2153</ele>
        <time>2018-07-07T07:27:35.000Z</time>
      </trkpt>
      <trkpt lat="42.54569" lon="1.98956">
        <ele>2153</ele>
        <time>2018-07-07T07:27:38.000Z</time>
      </trkpt>
      <trkpt lat="42.54569" lon="1.98953">
        <ele>2153</ele>
        <time>2018-07-07T07:27:41.000Z</time>
      </trkpt>
      <trkpt lat="42.54569" lon="1.9895">
        <ele>2153</ele>
        <time>2018-07-07T07:27:44.000Z</time>
      </trkpt>
      <trkpt lat="42.5457" lon="1.98947">
        <ele>2153</ele>
        <time>2018-07-07T07:27:47.000Z</time>
      </trkpt>
      <trkpt lat="42.5457" lon="1.98945">
        <ele>2153</ele>
        <time>2018-07-07T07:27:50.000Z</time>
      </trkpt>
      <trkpt lat="42.54571" lon="1.98942">
        <ele>2153</ele>
        <time>2018-07-07T07:27:54.000Z</time>
      </trkpt>
      <trkpt lat="42.54573" lon="1.9894">
        <ele>2152</ele>
        <time>2018-07-07T07:27:57.000Z</time>
      </trkpt>
      <trkpt lat="42.54574" lon="1.98937">
        <ele>2152</ele>
        <time>2018-07-07T07:27:59.000Z</time>
      </trkpt>
      <trkpt lat="42.54575" lon="1.98934">
        <ele>2152</ele>
        <time>2018-07-07T07:28:01.000Z</time>
      </trkpt>
      <trkpt lat="42.54575" lon="1.98931">
        <ele>2152</ele>
        <time>2018-07-07T07:28:03.000Z</time>
      </trkpt>
      <trkpt lat="42.54576" lon="1.98928">
        <ele>2152</ele>
        <time>2018-07-07T07:28:05.000Z</time>
      </trkpt>
      <trkpt lat="42.54576" lon="1.98925">
        <ele>2151</ele>
        <time>2018-07-07T07:28:07.000Z</time>
      </trkpt>
      <trkpt lat="42.54579" lon="1.98923">
        <ele>2151</ele>
        <time>2018-07-07T07:28:09.000Z</time>
      </trkpt>
      <trkpt lat="42.54581" lon="1.9892">
        <ele>2150</ele>
        <time>2018-07-07T07:28:11.000Z</time>
      </trkpt>
      <trkpt lat="42.54583" lon="1.98918">
        <ele>2149</ele>
        <time>2018-07-07T07:28:12.000Z</time>
      </trkpt>
      <trkpt lat="42.54585" lon="1.98916">
        <ele>2149</ele>
        <time>2018-07-07T07:28:13.000Z</time>
      </trkpt>
      <trkpt lat="42.54586" lon="1.98913">
        <ele>2150</ele>
        <time>2018-07-07T07:28:14.000Z</time>
      </trkpt>
      <trkpt lat="42.54588" lon="1.98911">
        <ele>2150</ele>
        <time>2018-07-07T07:28:15.000Z</time>
      </trkpt>
      <trkpt lat="42.5459" lon="1.98908">
        <ele>2150</ele>
        <time>2018-07-07T07:28:16.000Z</time>
      </trkpt>
      <trkpt lat="42.54591" lon="1.98906">
        <ele>2150</ele>
        <time>2018-07-07T07:28:17.000Z</time>
      </trkpt>
      <trkpt lat="42.54593" lon="1.98903">
        <ele>2151</ele>
        <time>2018-07-07T07:28:18.000Z</time>
      </trkpt>
      <trkpt lat="42.54594" lon="1.98901">
        <ele>2151</ele>
        <time>2018-07-07T07:28:19.000Z</time>
      </trkpt>
      <trkpt lat="42.54595" lon="1.98898">
        <ele>2151</ele>
        <time>2018-07-07T07:28:20.000Z</time>
      </trkpt>
      <trkpt lat="42.54596" lon="1.98895">
        <ele>2151</ele>
        <time>2018-07-07T07:28:21.000Z</time>
      </trkpt>
      <trkpt lat="42.54596" lon="1.98892">
        <ele>2151</ele>
        <time>2018-07-07T07:28:22.000Z</time>
      </trkpt>
      <trkpt lat="42.54597" lon="1.98889">
        <ele>2152</ele>
        <time>2018-07-07T07:28:23.000Z</time>
      </trkpt>
      <trkpt lat="42.54599" lon="1.98885">
        <ele>2152</ele>
        <time>2018-07-07T07:28:25.000Z</time>
      </trkpt>
      <trkpt lat="42.54599" lon="1.98883">
        <ele>2152</ele>
        <time>2018-07-07T07:28:26.000Z</time>
      </trkpt>
      <trkpt lat="42.54601" lon="1.98881">
        <ele>2152</ele>
        <time>2018-07-07T07:28:27.000Z</time>
      </trkpt>
      <trkpt lat="42.54602" lon="1.98879">
        <ele>2152</ele>
        <time>2018-07-07T07:28:28.000Z</time>
      </trkpt>
      <trkpt lat="42.54604" lon="1.98877">
        <ele>2152</ele>
        <time>2018-07-07T07:28:29.000Z</time>
      </trkpt>
      <trkpt lat="42.54605" lon="1.98874">
        <ele>2152</ele>
        <time>2018-07-07T07:28:30.000Z</time>
      </trkpt>
      <trkpt lat="42.54607" lon="1.98872">
        <ele>2152</ele>
        <time>2018-07-07T07:28:31.000Z</time>
      </trkpt>
      <trkpt lat="42.54609" lon="1.9887">
        <ele>2153</ele>
        <time>2018-07-07T07:28:32.000Z</time>
      </trkpt>
      <trkpt lat="42.5461" lon="1.98868">
        <ele>2153</ele>
        <time>2018-07-07T07:28:33.000Z</time>
      </trkpt>
      <trkpt lat="42.54612" lon="1.98866">
        <ele>2153</ele>
        <time>2018-07-07T07:28:34.000Z</time>
      </trkpt>
      <trkpt lat="42.54613" lon="1.98864">
        <ele>2153</ele>
        <time>2018-07-07T07:28:35.000Z</time>
      </trkpt>
      <trkpt lat="42.54615" lon="1.98862">
        <ele>2153</ele>
        <time>2018-07-07T07:28:36.000Z</time>
      </trkpt>
      <trkpt lat="42.54616" lon="1.98859">
        <ele>2153</ele>
        <time>2018-07-07T07:28:37.000Z</time>
      </trkpt>
      <trkpt lat="42.54618" lon="1.98857">
        <ele>2153</ele>
        <time>2018-07-07T07:28:38.000Z</time>
      </trkpt>
      <trkpt lat="42.5462" lon="1.98855">
        <ele>2153</ele>
        <time>2018-07-07T07:28:39.000Z</time>
      </trkpt>
      <trkpt lat="42.54621" lon="1.98852">
        <ele>2153</ele>
        <time>2018-07-07T07:28:40.000Z</time>
      </trkpt>
      <trkpt lat="42.54623" lon="1.9885">
        <ele>2153</ele>
        <time>2018-07-07T07:28:41.000Z</time>
      </trkpt>
      <trkpt lat="42.54624" lon="1.98848">
        <ele>2153</ele>
        <time>2018-07-07T07:28:42.000Z</time>
      </trkpt>
      <trkpt lat="42.54625" lon="1.98846">
        <ele>2153</ele>
        <time>2018-07-07T07:28:43.000Z</time>
      </trkpt>
      <trkpt lat="42.54626" lon="1.98844">
        <ele>2153</ele>
        <time>2018-07-07T07:28:44.000Z</time>
      </trkpt>
      <trkpt lat="42.54626" lon="1.98841">
        <ele>2153</ele>
        <time>2018-07-07T07:28:45.000Z</time>
      </trkpt>
      <trkpt lat="42.54627" lon="1.98838">
        <ele>2153</ele>
        <time>2018-07-07T07:28:46.000Z</time>
      </trkpt>
      <trkpt lat="42.54628" lon="1.98836">
        <ele>2153</ele>
        <time>2018-07-07T07:28:47.000Z</time>
      </trkpt>
      <trkpt lat="42.5463" lon="1.98834">
        <ele>2153</ele>
        <time>2018-07-07T07:28:48.000Z</time>
      </trkpt>
      <trkpt lat="42.54631" lon="1.98832">
        <ele>2155</ele>
        <time>2018-07-07T07:28:49.000Z</time>
      </trkpt>
      <trkpt lat="42.54633" lon="1.9883">
        <ele>2155</ele>
        <time>2018-07-07T07:28:50.000Z</time>
      </trkpt>
      <trkpt lat="42.54634" lon="1.98828">
        <ele>2155</ele>
        <time>2018-07-07T07:28:51.000Z</time>
      </trkpt>
      <trkpt lat="42.54636" lon="1.98826">
        <ele>2155</ele>
        <time>2018-07-07T07:28:52.000Z</time>
      </trkpt>
      <trkpt lat="42.54637" lon="1.98824">
        <ele>2155</ele>
        <time>2018-07-07T07:28:53.000Z</time>
      </trkpt>
      <trkpt lat="42.54638" lon="1.98821">
        <ele>2155</ele>
        <time>2018-07-07T07:28:54.000Z</time>
      </trkpt>
      <trkpt lat="42.5464" lon="1.98819">
        <ele>2155</ele>
        <time>2018-07-07T07:28:55.000Z</time>
      </trkpt>
      <trkpt lat="42.54641" lon="1.98817">
        <ele>2155</ele>
        <time>2018-07-07T07:28:56.000Z</time>
      </trkpt>
      <trkpt lat="42.54643" lon="1.98816">
        <ele>2155</ele>
        <time>2018-07-07T07:28:57.000Z</time>
      </trkpt>
      <trkpt lat="42.54645" lon="1.98813">
        <ele>2155</ele>
        <time>2018-07-07T07:28:58.000Z</time>
      </trkpt>
      <trkpt lat="42.54646" lon="1.98811">
        <ele>2155</ele>
        <time>2018-07-07T07:28:59.000Z</time>
      </trkpt>
      <trkpt lat="42.54648" lon="1.98809">
        <ele>2155</ele>
        <time>2018-07-07T07:29:00.000Z</time>
      </trkpt>
      <trkpt lat="42.54649" lon="1.98807">
        <ele>2155</ele>
        <time>2018-07-07T07:29:01.000Z</time>
      </trkpt>
      <trkpt lat="42.5465" lon="1.98804">
        <ele>2155</ele>
        <time>2018-07-07T07:29:02.000Z</time>
      </trkpt>
      <trkpt lat="42.54651" lon="1.98801">
        <ele>2155</ele>
        <time>2018-07-07T07:29:03.000Z</time>
      </trkpt>
      <trkpt lat="42.54653" lon="1.98799">
        <ele>2155</ele>
        <time>2018-07-07T07:29:04.000Z</time>
      </trkpt>
      <trkpt lat="42.54654" lon="1.98796">
        <ele>2155</ele>
        <time>2018-07-07T07:29:05.000Z</time>
      </trkpt>
      <trkpt lat="42.54655" lon="1.98793">
        <ele>2155</ele>
        <time>2018-07-07T07:29:06.000Z</time>
      </trkpt>
      <trkpt lat="42.54656" lon="1.9879">
        <ele>2155</ele>
        <time>2018-07-07T07:29:07.000Z</time>
      </trkpt>
      <trkpt lat="42.54658" lon="1.98787">
        <ele>2155</ele>
        <time>2018-07-07T07:29:08.000Z</time>
      </trkpt>
      <trkpt lat="42.54659" lon="1.98785">
        <ele>2155</ele>
        <time>2018-07-07T07:29:09.000Z</time>
      </trkpt>
      <trkpt lat="42.5466" lon="1.98782">
        <ele>2155</ele>
        <time>2018-07-07T07:29:10.000Z</time>
      </trkpt>
      <trkpt lat="42.54661" lon="1.98779">
        <ele>2155</ele>
        <time>2018-07-07T07:29:11.000Z</time>
      </trkpt>
      <trkpt lat="42.54662" lon="1.98777">
        <ele>2155</ele>
        <time>2018-07-07T07:29:12.000Z</time>
      </trkpt>
      <trkpt lat="42.54663" lon="1.98774">
        <ele>2155</ele>
        <time>2018-07-07T07:29:13.000Z</time>
      </trkpt>
      <trkpt lat="42.54663" lon="1.98771">
        <ele>2155</ele>
        <time>2018-07-07T07:29:14.000Z</time>
      </trkpt>
      <trkpt lat="42.54664" lon="1.98768">
        <ele>2155</ele>
        <time>2018-07-07T07:29:15.000Z</time>
      </trkpt>
      <trkpt lat="42.54665" lon="1.98766">
        <ele>2155</ele>
        <time>2018-07-07T07:29:16.000Z</time>
      </trkpt>
      <trkpt lat="42.54665" lon="1.98763">
        <ele>2155</ele>
        <time>2018-07-07T07:29:17.000Z</time>
      </trkpt>
      <trkpt lat="42.54665" lon="1.9876">
        <ele>2155</ele>
        <time>2018-07-07T07:29:18.000Z</time>
      </trkpt>
      <trkpt lat="42.54666" lon="1.98757">
        <ele>2154</ele>
        <time>2018-07-07T07:29:19.000Z</time>
      </trkpt>
      <trkpt lat="42.54667" lon="1.98754">
        <ele>2154</ele>
        <time>2018-07-07T07:29:20.000Z</time>
      </trkpt>
      <trkpt lat="42.54668" lon="1.98751">
        <ele>2154</ele>
        <time>2018-07-07T07:29:21.000Z</time>
      </trkpt>
      <trkpt lat="42.54669" lon="1.98748">
        <ele>2154</ele>
        <time>2018-07-07T07:29:22.000Z</time>
      </trkpt>
      <trkpt lat="42.54671" lon="1.98745">
        <ele>2154</ele>
        <time>2018-07-07T07:29:23.000Z</time>
      </trkpt>
      <trkpt lat="42.54672" lon="1.98742">
        <ele>2154</ele>
        <time>2018-07-07T07:29:24.000Z</time>
      </trkpt>
      <trkpt lat="42.54673" lon="1.98739">
        <ele>2155</ele>
        <time>2018-07-07T07:29:25.000Z</time>
      </trkpt>
      <trkpt lat="42.54674" lon="1.98736">
        <ele>2155</ele>
        <time>2018-07-07T07:29:26.000Z</time>
      </trkpt>
      <trkpt lat="42.54675" lon="1.98732">
        <ele>2155</ele>
        <time>2018-07-07T07:29:27.000Z</time>
      </trkpt>
      <trkpt lat="42.54676" lon="1.98729">
        <ele>2155</ele>
        <time>2018-07-07T07:29:28.000Z</time>
      </trkpt>
      <trkpt lat="42.54677" lon="1.98727">
        <ele>2155</ele>
        <time>2018-07-07T07:29:29.000Z</time>
      </trkpt>
      <trkpt lat="42.54679" lon="1.98724">
        <ele>2155</ele>
        <time>2018-07-07T07:29:30.000Z</time>
      </trkpt>
      <trkpt lat="42.5468" lon="1.98722">
        <ele>2155</ele>
        <time>2018-07-07T07:29:31.000Z</time>
      </trkpt>
      <trkpt lat="42.54681" lon="1.98719">
        <ele>2155</ele>
        <time>2018-07-07T07:29:32.000Z</time>
      </trkpt>
      <trkpt lat="42.54682" lon="1.98716">
        <ele>2155</ele>
        <time>2018-07-07T07:29:33.000Z</time>
      </trkpt>
      <trkpt lat="42.54683" lon="1.98713">
        <ele>2155</ele>
        <time>2018-07-07T07:29:34.000Z</time>
      </trkpt>
      <trkpt lat="42.54684" lon="1.9871">
        <ele>2155</ele>
        <time>2018-07-07T07:29:35.000Z</time>
      </trkpt>
      <trkpt lat="42.54685" lon="1.98707">
        <ele>2155</ele>
        <time>2018-07-07T07:29:36.000Z</time>
      </trkpt>
      <trkpt lat="42.54686" lon="1.98705">
        <ele>2155</ele>
        <time>2018-07-07T07:29:37.000Z</time>
      </trkpt>
      <trkpt lat="42.54687" lon="1.98702">
        <ele>2155</ele>
        <time>2018-07-07T07:29:38.000Z</time>
      </trkpt>
      <trkpt lat="42.54688" lon="1.98699">
        <ele>2155</ele>
        <time>2018-07-07T07:29:39.000Z</time>
      </trkpt>
      <trkpt lat="42.54688" lon="1.98696">
        <ele>2155</ele>
        <time>2018-07-07T07:29:40.000Z</time>
      </trkpt>
      <trkpt lat="42.54688" lon="1.98693">
        <ele>2155</ele>
        <time>2018-07-07T07:29:41.000Z</time>
      </trkpt>
      <trkpt lat="42.54688" lon="1.98689">
        <ele>2154</ele>
        <time>2018-07-07T07:29:42.000Z</time>
      </trkpt>
      <trkpt lat="42.54689" lon="1.98686">
        <ele>2154</ele>
        <time>2018-07-07T07:29:43.000Z</time>
      </trkpt>
      <trkpt lat="42.5469" lon="1.98682">
        <ele>2154</ele>
        <time>2018-07-07T07:29:44.000Z</time>
      </trkpt>
      <trkpt lat="42.54691" lon="1.98679">
        <ele>2154</ele>
        <time>2018-07-07T07:29:45.000Z</time>
      </trkpt>
      <trkpt lat="42.54691" lon="1.98677">
        <ele>2154</ele>
        <time>2018-07-07T07:29:46.000Z</time>
      </trkpt>
      <trkpt lat="42.54692" lon="1.98673">
        <ele>2154</ele>
        <time>2018-07-07T07:29:47.000Z</time>
      </trkpt>
      <trkpt lat="42.54693" lon="1.98671">
        <ele>2154</ele>
        <time>2018-07-07T07:29:48.000Z</time>
      </trkpt>
      <trkpt lat="42.54693" lon="1.98668">
        <ele>2154</ele>
        <time>2018-07-07T07:29:49.000Z</time>
      </trkpt>
      <trkpt lat="42.54694" lon="1.98665">
        <ele>2153</ele>
        <time>2018-07-07T07:29:50.000Z</time>
      </trkpt>
      <trkpt lat="42.54695" lon="1.98662">
        <ele>2153</ele>
        <time>2018-07-07T07:29:51.000Z</time>
      </trkpt>
      <trkpt lat="42.54695" lon="1.98659">
        <ele>2153</ele>
        <time>2018-07-07T07:29:52.000Z</time>
      </trkpt>
      <trkpt lat="42.54695" lon="1.98656">
        <ele>2153</ele>
        <time>2018-07-07T07:29:53.000Z</time>
      </trkpt>
      <trkpt lat="42.54696" lon="1.98653">
        <ele>2153</ele>
        <time>2018-07-07T07:29:54.000Z</time>
      </trkpt>
      <trkpt lat="42.54696" lon="1.9865">
        <ele>2153</ele>
        <time>2018-07-07T07:29:55.000Z</time>
      </trkpt>
      <trkpt lat="42.54696" lon="1.98647">
        <ele>2152</ele>
        <time>2018-07-07T07:29:56.000Z</time>
      </trkpt>
      <trkpt lat="42.54696" lon="1.98645">
        <ele>2152</ele>
        <time>2018-07-07T07:29:57.000Z</time>
      </trkpt>
      <trkpt lat="42.54696" lon="1.98642">
        <ele>2152</ele>
        <time>2018-07-07T07:29:58.000Z</time>
      </trkpt>
      <trkpt lat="42.54697" lon="1.98638">
        <ele>2152</ele>
        <time>2018-07-07T07:29:59.000Z</time>
      </trkpt>
      <trkpt lat="42.54698" lon="1.98634">
        <ele>2152</ele>
        <time>2018-07-07T07:30:00.000Z</time>
      </trkpt>
      <trkpt lat="42.54699" lon="1.98631">
        <ele>2152</ele>
        <time>2018-07-07T07:30:01.000Z</time>
      </trkpt>
      <trkpt lat="42.547" lon="1.98628">
        <ele>2152</ele>
        <time>2018-07-07T07:30:02.000Z</time>
      </trkpt>
      <trkpt lat="42.54701" lon="1.98625">
        <ele>2152</ele>
        <time>2018-07-07T07:30:03.000Z</time>
      </trkpt>
      <trkpt lat="42.54701" lon="1.98622">
        <ele>2152</ele>
        <time>2018-07-07T07:30:04.000Z</time>
      </trkpt>
      <trkpt lat="42.54702" lon="1.98618">
        <ele>2152</ele>
        <time>2018-07-07T07:30:05.000Z</time>
      </trkpt>
      <trkpt lat="42.54703" lon="1.98615">
        <ele>2152</ele>
        <time>2018-07-07T07:30:06.000Z</time>
      </trkpt>
      <trkpt lat="42.54705" lon="1.98612">
        <ele>2152</ele>
        <time>2018-07-07T07:30:07.000Z</time>
      </trkpt>
      <trkpt lat="42.54707" lon="1.9861">
        <ele>2152</ele>
        <time>2018-07-07T07:30:08.000Z</time>
      </trkpt>
      <trkpt lat="42.54709" lon="1.98608">
        <ele>2152</ele>
        <time>2018-07-07T07:30:09.000Z</time>
      </trkpt>
      <trkpt lat="42.54711" lon="1.98606">
        <ele>2152</ele>
        <time>2018-07-07T07:30:10.000Z</time>
      </trkpt>
      <trkpt lat="42.54713" lon="1.98605">
        <ele>2152</ele>
        <time>2018-07-07T07:30:11.000Z</time>
      </trkpt>
      <trkpt lat="42.54715" lon="1.98603">
        <ele>2152</ele>
        <time>2018-07-07T07:30:12.000Z</time>
      </trkpt>
      <trkpt lat="42.54718" lon="1.98601">
        <ele>2152</ele>
        <time>2018-07-07T07:30:13.000Z</time>
      </trkpt>
      <trkpt lat="42.5472" lon="1.98599">
        <ele>2152</ele>
        <time>2018-07-07T07:30:14.000Z</time>
      </trkpt>
      <trkpt lat="42.54722" lon="1.98597">
        <ele>2152</ele>
        <time>2018-07-07T07:30:15.000Z</time>
      </trkpt>
      <trkpt lat="42.54724" lon="1.98596">
        <ele>2152</ele>
        <time>2018-07-07T07:30:16.000Z</time>
      </trkpt>
      <trkpt lat="42.54725" lon="1.98594">
        <ele>2152</ele>
        <time>2018-07-07T07:30:17.000Z</time>
      </trkpt>
      <trkpt lat="42.54727" lon="1.98592">
        <ele>2152</ele>
        <time>2018-07-07T07:30:18.000Z</time>
      </trkpt>
      <trkpt lat="42.54729" lon="1.9859">
        <ele>2153</ele>
        <time>2018-07-07T07:30:19.000Z</time>
      </trkpt>
      <trkpt lat="42.54731" lon="1.98589">
        <ele>2153</ele>
        <time>2018-07-07T07:30:20.000Z</time>
      </trkpt>
      <trkpt lat="42.54733" lon="1.98588">
        <ele>2153</ele>
        <time>2018-07-07T07:30:21.000Z</time>
      </trkpt>
      <trkpt lat="42.54735" lon="1.98586">
        <ele>2153</ele>
        <time>2018-07-07T07:30:22.000Z</time>
      </trkpt>
      <trkpt lat="42.54737" lon="1.98585">
        <ele>2153</ele>
        <time>2018-07-07T07:30:23.000Z</time>
      </trkpt>
      <trkpt lat="42.54739" lon="1.98583">
        <ele>2151</ele>
        <time>2018-07-07T07:30:24.000Z</time>
      </trkpt>
      <trkpt lat="42.5474" lon="1.98581">
        <ele>2151</ele>
        <time>2018-07-07T07:30:25.000Z</time>
      </trkpt>
      <trkpt lat="42.54742" lon="1.98579">
        <ele>2151</ele>
        <time>2018-07-07T07:30:26.000Z</time>
      </trkpt>
      <trkpt lat="42.54745" lon="1.98577">
        <ele>2151</ele>
        <time>2018-07-07T07:30:27.000Z</time>
      </trkpt>
      <trkpt lat="42.54747" lon="1.98576">
        <ele>2151</ele>
        <time>2018-07-07T07:30:28.000Z</time>
      </trkpt>
      <trkpt lat="42.54749" lon="1.98574">
        <ele>2151</ele>
        <time>2018-07-07T07:30:29.000Z</time>
      </trkpt>
      <trkpt lat="42.54751" lon="1.98573">
        <ele>2153</ele>
        <time>2018-07-07T07:30:30.000Z</time>
      </trkpt>
      <trkpt lat="42.54753" lon="1.98569">
        <ele>2153</ele>
        <time>2018-07-07T07:30:32.000Z</time>
      </trkpt>
      <trkpt lat="42.54754" lon="1.98566">
        <ele>2153</ele>
        <time>2018-07-07T07:30:33.000Z</time>
      </trkpt>
      <trkpt lat="42.54755" lon="1.98564">
        <ele>2153</ele>
        <time>2018-07-07T07:30:34.000Z</time>
      </trkpt>
      <trkpt lat="42.54757" lon="1.98562">
        <ele>2153</ele>
        <time>2018-07-07T07:30:35.000Z</time>
      </trkpt>
      <trkpt lat="42.54758" lon="1.98559">
        <ele>2153</ele>
        <time>2018-07-07T07:30:36.000Z</time>
      </trkpt>
      <trkpt lat="42.5476" lon="1.98557">
        <ele>2153</ele>
        <time>2018-07-07T07:30:37.000Z</time>
      </trkpt>
      <trkpt lat="42.54761" lon="1.98554">
        <ele>2153</ele>
        <time>2018-07-07T07:30:38.000Z</time>
      </trkpt>
      <trkpt lat="42.54763" lon="1.98552">
        <ele>2153</ele>
        <time>2018-07-07T07:30:39.000Z</time>
      </trkpt>
      <trkpt lat="42.54764" lon="1.9855">
        <ele>2153</ele>
        <time>2018-07-07T07:30:40.000Z</time>
      </trkpt>
      <trkpt lat="42.54766" lon="1.98548">
        <ele>2153</ele>
        <time>2018-07-07T07:30:41.000Z</time>
      </trkpt>
      <trkpt lat="42.54768" lon="1.98547">
        <ele>2153</ele>
        <time>2018-07-07T07:30:42.000Z</time>
      </trkpt>
      <trkpt lat="42.5477" lon="1.98545">
        <ele>2153</ele>
        <time>2018-07-07T07:30:43.000Z</time>
      </trkpt>
      <trkpt lat="42.54772" lon="1.98543">
        <ele>2153</ele>
        <time>2018-07-07T07:30:44.000Z</time>
      </trkpt>
      <trkpt lat="42.54774" lon="1.98541">
        <ele>2153</ele>
        <time>2018-07-07T07:30:45.000Z</time>
      </trkpt>
      <trkpt lat="42.54776" lon="1.98539">
        <ele>2153</ele>
        <time>2018-07-07T07:30:46.000Z</time>
      </trkpt>
      <trkpt lat="42.54778" lon="1.98537">
        <ele>2153</ele>
        <time>2018-07-07T07:30:47.000Z</time>
      </trkpt>
      <trkpt lat="42.54779" lon="1.98534">
        <ele>2152</ele>
        <time>2018-07-07T07:30:48.000Z</time>
      </trkpt>
      <trkpt lat="42.54781" lon="1.98532">
        <ele>2152</ele>
        <time>2018-07-07T07:30:49.000Z</time>
      </trkpt>
      <trkpt lat="42.54782" lon="1.9853">
        <ele>2152</ele>
        <time>2018-07-07T07:30:50.000Z</time>
      </trkpt>
      <trkpt lat="42.54784" lon="1.98528">
        <ele>2152</ele>
        <time>2018-07-07T07:30:51.000Z</time>
      </trkpt>
      <trkpt lat="42.54786" lon="1.98527">
        <ele>2153</ele>
        <time>2018-07-07T07:30:52.000Z</time>
      </trkpt>
      <trkpt lat="42.54788" lon="1.98526">
        <ele>2153</ele>
        <time>2018-07-07T07:30:53.000Z</time>
      </trkpt>
      <trkpt lat="42.5479" lon="1.98524">
        <ele>2153</ele>
        <time>2018-07-07T07:30:54.000Z</time>
      </trkpt>
      <trkpt lat="42.54791" lon="1.98523">
        <ele>2153</ele>
        <time>2018-07-07T07:30:55.000Z</time>
      </trkpt>
      <trkpt lat="42.54793" lon="1.98521">
        <ele>2153</ele>
        <time>2018-07-07T07:30:56.000Z</time>
      </trkpt>
      <trkpt lat="42.54794" lon="1.98519">
        <ele>2153</ele>
        <time>2018-07-07T07:30:57.000Z</time>
      </trkpt>
      <trkpt lat="42.54795" lon="1.98516">
        <ele>2153</ele>
        <time>2018-07-07T07:30:58.000Z</time>
      </trkpt>
      <trkpt lat="42.54797" lon="1.98514">
        <ele>2153</ele>
        <time>2018-07-07T07:30:59.000Z</time>
      </trkpt>
      <trkpt lat="42.54798" lon="1.98512">
        <ele>2153</ele>
        <time>2018-07-07T07:31:00.000Z</time>
      </trkpt>
      <trkpt lat="42.54799" lon="1.9851">
        <ele>2153</ele>
        <time>2018-07-07T07:31:01.000Z</time>
      </trkpt>
      <trkpt lat="42.54801" lon="1.98508">
        <ele>2153</ele>
        <time>2018-07-07T07:31:02.000Z</time>
      </trkpt>
      <trkpt lat="42.54802" lon="1.98505">
        <ele>2153</ele>
        <time>2018-07-07T07:31:03.000Z</time>
      </trkpt>
      <trkpt lat="42.54804" lon="1.98504">
        <ele>2153</ele>
        <time>2018-07-07T07:31:04.000Z</time>
      </trkpt>
      <trkpt lat="42.54806" lon="1.98501">
        <ele>2153</ele>
        <time>2018-07-07T07:31:05.000Z</time>
      </trkpt>
      <trkpt lat="42.54807" lon="1.98499">
        <ele>2150</ele>
        <time>2018-07-07T07:31:06.000Z</time>
      </trkpt>
      <trkpt lat="42.54808" lon="1.98496">
        <ele>2150</ele>
        <time>2018-07-07T07:31:07.000Z</time>
      </trkpt>
      <trkpt lat="42.54809" lon="1.98493">
        <ele>2150</ele>
        <time>2018-07-07T07:31:08.000Z</time>
      </trkpt>
      <trkpt lat="42.5481" lon="1.98491">
        <ele>2150</ele>
        <time>2018-07-07T07:31:09.000Z</time>
      </trkpt>
      <trkpt lat="42.54811" lon="1.98488">
        <ele>2150</ele>
        <time>2018-07-07T07:31:10.000Z</time>
      </trkpt>
      <trkpt lat="42.54813" lon="1.98486">
        <ele>2150</ele>
        <time>2018-07-07T07:31:11.000Z</time>
      </trkpt>
      <trkpt lat="42.54814" lon="1.98484">
        <ele>2150</ele>
        <time>2018-07-07T07:31:12.000Z</time>
      </trkpt>
      <trkpt lat="42.54816" lon="1.98482">
        <ele>2150</ele>
        <time>2018-07-07T07:31:13.000Z</time>
      </trkpt>
      <trkpt lat="42.54817" lon="1.98479">
        <ele>2150</ele>
        <time>2018-07-07T07:31:14.000Z</time>
      </trkpt>
      <trkpt lat="42.54818" lon="1.98477">
        <ele>2150</ele>
        <time>2018-07-07T07:31:15.000Z</time>
      </trkpt>
      <trkpt lat="42.5482" lon="1.98475">
        <ele>2150</ele>
        <time>2018-07-07T07:31:16.000Z</time>
      </trkpt>
      <trkpt lat="42.54821" lon="1.98473">
        <ele>2150</ele>
        <time>2018-07-07T07:31:17.000Z</time>
      </trkpt>
      <trkpt lat="42.54823" lon="1.9847">
        <ele>2150</ele>
        <time>2018-07-07T07:31:18.000Z</time>
      </trkpt>
      <trkpt lat="42.54825" lon="1.98468">
        <ele>2150</ele>
        <time>2018-07-07T07:31:19.000Z</time>
      </trkpt>
      <trkpt lat="42.54826" lon="1.98466">
        <ele>2150</ele>
        <time>2018-07-07T07:31:20.000Z</time>
      </trkpt>
      <trkpt lat="42.54827" lon="1.98464">
        <ele>2149</ele>
        <time>2018-07-07T07:31:21.000Z</time>
      </trkpt>
      <trkpt lat="42.54828" lon="1.98462">
        <ele>2149</ele>
        <time>2018-07-07T07:31:22.000Z</time>
      </trkpt>
      <trkpt lat="42.5483" lon="1.9846">
        <ele>2149</ele>
        <time>2018-07-07T07:31:23.000Z</time>
      </trkpt>
      <trkpt lat="42.54832" lon="1.98457">
        <ele>2149</ele>
        <time>2018-07-07T07:31:24.000Z</time>
      </trkpt>
      <trkpt lat="42.54833" lon="1.98454">
        <ele>2149</ele>
        <time>2018-07-07T07:31:25.000Z</time>
      </trkpt>
      <trkpt lat="42.54834" lon="1.98451">
        <ele>2153</ele>
        <time>2018-07-07T07:31:26.000Z</time>
      </trkpt>
      <trkpt lat="42.54835" lon="1.98448">
        <ele>2152</ele>
        <time>2018-07-07T07:31:27.000Z</time>
      </trkpt>
      <trkpt lat="42.54837" lon="1.98446">
        <ele>2152</ele>
        <time>2018-07-07T07:31:28.000Z</time>
      </trkpt>
      <trkpt lat="42.54838" lon="1.98443">
        <ele>2152</ele>
        <time>2018-07-07T07:31:29.000Z</time>
      </trkpt>
      <trkpt lat="42.54839" lon="1.9844">
        <ele>2152</ele>
        <time>2018-07-07T07:31:30.000Z</time>
      </trkpt>
      <trkpt lat="42.5484" lon="1.98437">
        <ele>2152</ele>
        <time>2018-07-07T07:31:31.000Z</time>
      </trkpt>
      <trkpt lat="42.54841" lon="1.98434">
        <ele>2152</ele>
        <time>2018-07-07T07:31:32.000Z</time>
      </trkpt>
      <trkpt lat="42.54842" lon="1.98431">
        <ele>2152</ele>
        <time>2018-07-07T07:31:33.000Z</time>
      </trkpt>
      <trkpt lat="42.54843" lon="1.98428">
        <ele>2152</ele>
        <time>2018-07-07T07:31:34.000Z</time>
      </trkpt>
      <trkpt lat="42.54844" lon="1.98426">
        <ele>2151</ele>
        <time>2018-07-07T07:31:35.000Z</time>
      </trkpt>
      <trkpt lat="42.54846" lon="1.98423">
        <ele>2151</ele>
        <time>2018-07-07T07:31:36.000Z</time>
      </trkpt>
      <trkpt lat="42.54847" lon="1.9842">
        <ele>2151</ele>
        <time>2018-07-07T07:31:37.000Z</time>
      </trkpt>
      <trkpt lat="42.54848" lon="1.98418">
        <ele>2151</ele>
        <time>2018-07-07T07:31:38.000Z</time>
      </trkpt>
      <trkpt lat="42.54849" lon="1.98415">
        <ele>2150</ele>
        <time>2018-07-07T07:31:39.000Z</time>
      </trkpt>
      <trkpt lat="42.5485" lon="1.98412">
        <ele>2150</ele>
        <time>2018-07-07T07:31:40.000Z</time>
      </trkpt>
      <trkpt lat="42.54851" lon="1.98409">
        <ele>2150</ele>
        <time>2018-07-07T07:31:41.000Z</time>
      </trkpt>
      <trkpt lat="42.54852" lon="1.98406">
        <ele>2150</ele>
        <time>2018-07-07T07:31:42.000Z</time>
      </trkpt>
      <trkpt lat="42.54853" lon="1.98404">
        <ele>2150</ele>
        <time>2018-07-07T07:31:43.000Z</time>
      </trkpt>
      <trkpt lat="42.54854" lon="1.98401">
        <ele>2150</ele>
        <time>2018-07-07T07:31:44.000Z</time>
      </trkpt>
      <trkpt lat="42.54855" lon="1.98398">
        <ele>2150</ele>
        <time>2018-07-07T07:31:45.000Z</time>
      </trkpt>
      <trkpt lat="42.54856" lon="1.98395">
        <ele>2150</ele>
        <time>2018-07-07T07:31:46.000Z</time>
      </trkpt>
      <trkpt lat="42.54857" lon="1.98393">
        <ele>2150</ele>
        <time>2018-07-07T07:31:47.000Z</time>
      </trkpt>
      <trkpt lat="42.54859" lon="1.9839">
        <ele>2150</ele>
        <time>2018-07-07T07:31:48.000Z</time>
      </trkpt>
      <trkpt lat="42.5486" lon="1.98387">
        <ele>2150</ele>
        <time>2018-07-07T07:31:49.000Z</time>
      </trkpt>
      <trkpt lat="42.5486" lon="1.98384">
        <ele>2149</ele>
        <time>2018-07-07T07:31:50.000Z</time>
      </trkpt>
      <trkpt lat="42.54861" lon="1.98381">
        <ele>2149</ele>
        <time>2018-07-07T07:31:51.000Z</time>
      </trkpt>
      <trkpt lat="42.54862" lon="1.98378">
        <ele>2149</ele>
        <time>2018-07-07T07:31:52.000Z</time>
      </trkpt>
      <trkpt lat="42.54863" lon="1.98375">
        <ele>2149</ele>
        <time>2018-07-07T07:31:53.000Z</time>
      </trkpt>
      <trkpt lat="42.54864" lon="1.98372">
        <ele>2149</ele>
        <time>2018-07-07T07:31:54.000Z</time>
      </trkpt>
      <trkpt lat="42.54865" lon="1.98369">
        <ele>2149</ele>
        <time>2018-07-07T07:31:55.000Z</time>
      </trkpt>
      <trkpt lat="42.54867" lon="1.98366">
        <ele>2149</ele>
        <time>2018-07-07T07:31:56.000Z</time>
      </trkpt>
      <trkpt lat="42.54868" lon="1.98363">
        <ele>2149</ele>
        <time>2018-07-07T07:31:57.000Z</time>
      </trkpt>
      <trkpt lat="42.54869" lon="1.9836">
        <ele>2149</ele>
        <time>2018-07-07T07:31:58.000Z</time>
      </trkpt>
      <trkpt lat="42.5487" lon="1.98357">
        <ele>2149</ele>
        <time>2018-07-07T07:31:59.000Z</time>
      </trkpt>
      <trkpt lat="42.54871" lon="1.98354">
        <ele>2149</ele>
        <time>2018-07-07T07:32:00.000Z</time>
      </trkpt>
      <trkpt lat="42.54873" lon="1.98352">
        <ele>2149</ele>
        <time>2018-07-07T07:32:01.000Z</time>
      </trkpt>
      <trkpt lat="42.54874" lon="1.98349">
        <ele>2149</ele>
        <time>2018-07-07T07:32:02.000Z</time>
      </trkpt>
      <trkpt lat="42.54876" lon="1.98347">
        <ele>2149</ele>
        <time>2018-07-07T07:32:03.000Z</time>
      </trkpt>
      <trkpt lat="42.54877" lon="1.98344">
        <ele>2149</ele>
        <time>2018-07-07T07:32:04.000Z</time>
      </trkpt>
      <trkpt lat="42.54878" lon="1.98341">
        <ele>2149</ele>
        <time>2018-07-07T07:32:05.000Z</time>
      </trkpt>
      <trkpt lat="42.54879" lon="1.98338">
        <ele>2149</ele>
        <time>2018-07-07T07:32:06.000Z</time>
      </trkpt>
      <trkpt lat="42.54879" lon="1.98335">
        <ele>2149</ele>
        <time>2018-07-07T07:32:07.000Z</time>
      </trkpt>
      <trkpt lat="42.5488" lon="1.98332">
        <ele>2146</ele>
        <time>2018-07-07T07:32:08.000Z</time>
      </trkpt>
      <trkpt lat="42.5488" lon="1.98329">
        <ele>2146</ele>
        <time>2018-07-07T07:32:09.000Z</time>
      </trkpt>
      <trkpt lat="42.54881" lon="1.98326">
        <ele>2146</ele>
        <time>2018-07-07T07:32:10.000Z</time>
      </trkpt>
      <trkpt lat="42.54881" lon="1.98323">
        <ele>2146</ele>
        <time>2018-07-07T07:32:11.000Z</time>
      </trkpt>
      <trkpt lat="42.54882" lon="1.9832">
        <ele>2146</ele>
        <time>2018-07-07T07:32:12.000Z</time>
      </trkpt>
      <trkpt lat="42.54883" lon="1.98317">
        <ele>2146</ele>
        <time>2018-07-07T07:32:13.000Z</time>
      </trkpt>
      <trkpt lat="42.54885" lon="1.98314">
        <ele>2146</ele>
        <time>2018-07-07T07:32:14.000Z</time>
      </trkpt>
      <trkpt lat="42.54886" lon="1.98311">
        <ele>2146</ele>
        <time>2018-07-07T07:32:15.000Z</time>
      </trkpt>
      <trkpt lat="42.54888" lon="1.98309">
        <ele>2146</ele>
        <time>2018-07-07T07:32:16.000Z</time>
      </trkpt>
      <trkpt lat="42.54891" lon="1.98308">
        <ele>2146</ele>
        <time>2018-07-07T07:32:17.000Z</time>
      </trkpt>
      <trkpt lat="42.54893" lon="1.98306">
        <ele>2146</ele>
        <time>2018-07-07T07:32:18.000Z</time>
      </trkpt>
      <trkpt lat="42.54895" lon="1.98304">
        <ele>2146</ele>
        <time>2018-07-07T07:32:19.000Z</time>
      </trkpt>
      <trkpt lat="42.54896" lon="1.98303">
        <ele>2146</ele>
        <time>2018-07-07T07:32:20.000Z</time>
      </trkpt>
      <trkpt lat="42.54899" lon="1.98301">
        <ele>2146</ele>
        <time>2018-07-07T07:32:21.000Z</time>
      </trkpt>
      <trkpt lat="42.54901" lon="1.983">
        <ele>2146</ele>
        <time>2018-07-07T07:32:22.000Z</time>
      </trkpt>
      <trkpt lat="42.54902" lon="1.98298">
        <ele>2146</ele>
        <time>2018-07-07T07:32:23.000Z</time>
      </trkpt>
      <trkpt lat="42.54904" lon="1.98295">
        <ele>2146</ele>
        <time>2018-07-07T07:32:24.000Z</time>
      </trkpt>
      <trkpt lat="42.54904" lon="1.98293">
        <ele>2146</ele>
        <time>2018-07-07T07:32:25.000Z</time>
      </trkpt>
      <trkpt lat="42.54905" lon="1.9829">
        <ele>2146</ele>
        <time>2018-07-07T07:32:26.000Z</time>
      </trkpt>
      <trkpt lat="42.54906" lon="1.98287">
        <ele>2145</ele>
        <time>2018-07-07T07:32:27.000Z</time>
      </trkpt>
      <trkpt lat="42.54906" lon="1.98283">
        <ele>2145</ele>
        <time>2018-07-07T07:32:28.000Z</time>
      </trkpt>
      <trkpt lat="42.54907" lon="1.9828">
        <ele>2145</ele>
        <time>2018-07-07T07:32:29.000Z</time>
      </trkpt>
      <trkpt lat="42.54908" lon="1.98277">
        <ele>2145</ele>
        <time>2018-07-07T07:32:30.000Z</time>
      </trkpt>
      <trkpt lat="42.5491" lon="1.98275">
        <ele>2145</ele>
        <time>2018-07-07T07:32:31.000Z</time>
      </trkpt>
      <trkpt lat="42.54911" lon="1.98272">
        <ele>2145</ele>
        <time>2018-07-07T07:32:32.000Z</time>
      </trkpt>
      <trkpt lat="42.54913" lon="1.9827">
        <ele>2145</ele>
        <time>2018-07-07T07:32:33.000Z</time>
      </trkpt>
      <trkpt lat="42.54914" lon="1.98267">
        <ele>2145</ele>
        <time>2018-07-07T07:32:34.000Z</time>
      </trkpt>
      <trkpt lat="42.54915" lon="1.98264">
        <ele>2145</ele>
        <time>2018-07-07T07:32:35.000Z</time>
      </trkpt>
      <trkpt lat="42.54916" lon="1.98261">
        <ele>2144</ele>
        <time>2018-07-07T07:32:36.000Z</time>
      </trkpt>
      <trkpt lat="42.54917" lon="1.98258">
        <ele>2144</ele>
        <time>2018-07-07T07:32:37.000Z</time>
      </trkpt>
      <trkpt lat="42.54918" lon="1.98255">
        <ele>2144</ele>
        <time>2018-07-07T07:32:38.000Z</time>
      </trkpt>
      <trkpt lat="42.54919" lon="1.98252">
        <ele>2144</ele>
        <time>2018-07-07T07:32:39.000Z</time>
      </trkpt>
      <trkpt lat="42.5492" lon="1.98249">
        <ele>2143</ele>
        <time>2018-07-07T07:32:40.000Z</time>
      </trkpt>
      <trkpt lat="42.54921" lon="1.98247">
        <ele>2143</ele>
        <time>2018-07-07T07:32:41.000Z</time>
      </trkpt>
      <trkpt lat="42.54923" lon="1.98245">
        <ele>2143</ele>
        <time>2018-07-07T07:32:42.000Z</time>
      </trkpt>
      <trkpt lat="42.54925" lon="1.98243">
        <ele>2143</ele>
        <time>2018-07-07T07:32:43.000Z</time>
      </trkpt>
      <trkpt lat="42.54927" lon="1.98242">
        <ele>2142</ele>
        <time>2018-07-07T07:32:44.000Z</time>
      </trkpt>
      <trkpt lat="42.5493" lon="1.98241">
        <ele>2142</ele>
        <time>2018-07-07T07:32:45.000Z</time>
      </trkpt>
      <trkpt lat="42.54932" lon="1.98241">
        <ele>2142</ele>
        <time>2018-07-07T07:32:46.000Z</time>
      </trkpt>
      <trkpt lat="42.54935" lon="1.98241">
        <ele>2142</ele>
        <time>2018-07-07T07:32:47.000Z</time>
      </trkpt>
      <trkpt lat="42.54937" lon="1.98242">
        <ele>2142</ele>
        <time>2018-07-07T07:32:48.000Z</time>
      </trkpt>
      <trkpt lat="42.54939" lon="1.98242">
        <ele>2141</ele>
        <time>2018-07-07T07:32:49.000Z</time>
      </trkpt>
      <trkpt lat="42.54941" lon="1.98241">
        <ele>2141</ele>
        <time>2018-07-07T07:32:50.000Z</time>
      </trkpt>
      <trkpt lat="42.54943" lon="1.98241">
        <ele>2141</ele>
        <time>2018-07-07T07:32:51.000Z</time>
      </trkpt>
      <trkpt lat="42.54946" lon="1.98241">
        <ele>2141</ele>
        <time>2018-07-07T07:32:52.000Z</time>
      </trkpt>
      <trkpt lat="42.54948" lon="1.98241">
        <ele>2141</ele>
        <time>2018-07-07T07:32:53.000Z</time>
      </trkpt>
      <trkpt lat="42.5495" lon="1.98242">
        <ele>2141</ele>
        <time>2018-07-07T07:32:54.000Z</time>
      </trkpt>
      <trkpt lat="42.54953" lon="1.98242">
        <ele>2141</ele>
        <time>2018-07-07T07:32:55.000Z</time>
      </trkpt>
      <trkpt lat="42.54955" lon="1.98242">
        <ele>2141</ele>
        <time>2018-07-07T07:32:56.000Z</time>
      </trkpt>
      <trkpt lat="42.54957" lon="1.98241">
        <ele>2141</ele>
        <time>2018-07-07T07:32:57.000Z</time>
      </trkpt>
      <trkpt lat="42.5496" lon="1.9824">
        <ele>2140</ele>
        <time>2018-07-07T07:32:58.000Z</time>
      </trkpt>
      <trkpt lat="42.54962" lon="1.9824">
        <ele>2140</ele>
        <time>2018-07-07T07:32:59.000Z</time>
      </trkpt>
      <trkpt lat="42.54964" lon="1.98239">
        <ele>2140</ele>
        <time>2018-07-07T07:33:00.000Z</time>
      </trkpt>
      <trkpt lat="42.54966" lon="1.98239">
        <ele>2140</ele>
        <time>2018-07-07T07:33:01.000Z</time>
      </trkpt>
      <trkpt lat="42.54968" lon="1.98239">
        <ele>2140</ele>
        <time>2018-07-07T07:33:02.000Z</time>
      </trkpt>
      <trkpt lat="42.5497" lon="1.9824">
        <ele>2140</ele>
        <time>2018-07-07T07:33:03.000Z</time>
      </trkpt>
      <trkpt lat="42.54973" lon="1.98242">
        <ele>2140</ele>
        <time>2018-07-07T07:33:04.000Z</time>
      </trkpt>
      <trkpt lat="42.54974" lon="1.98244">
        <ele>2140</ele>
        <time>2018-07-07T07:33:05.000Z</time>
      </trkpt>
      <trkpt lat="42.54977" lon="1.98244">
        <ele>2140</ele>
        <time>2018-07-07T07:33:07.000Z</time>
      </trkpt>
      <trkpt lat="42.54979" lon="1.98243">
        <ele>2140</ele>
        <time>2018-07-07T07:33:08.000Z</time>
      </trkpt>
      <trkpt lat="42.54982" lon="1.98242">
        <ele>2140</ele>
        <time>2018-07-07T07:33:09.000Z</time>
      </trkpt>
      <trkpt lat="42.54984" lon="1.98242">
        <ele>2140</ele>
        <time>2018-07-07T07:33:10.000Z</time>
      </trkpt>
      <trkpt lat="42.54986" lon="1.98242">
        <ele>2140</ele>
        <time>2018-07-07T07:33:11.000Z</time>
      </trkpt>
      <trkpt lat="42.54988" lon="1.98242">
        <ele>2140</ele>
        <time>2018-07-07T07:33:12.000Z</time>
      </trkpt>
      <trkpt lat="42.5499" lon="1.98242">
        <ele>2140</ele>
        <time>2018-07-07T07:33:13.000Z</time>
      </trkpt>
      <trkpt lat="42.54992" lon="1.98241">
        <ele>2140</ele>
        <time>2018-07-07T07:33:14.000Z</time>
      </trkpt>
      <trkpt lat="42.54994" lon="1.98241">
        <ele>2140</ele>
        <time>2018-07-07T07:33:15.000Z</time>
      </trkpt>
      <trkpt lat="42.54997" lon="1.9824">
        <ele>2140</ele>
        <time>2018-07-07T07:33:16.000Z</time>
      </trkpt>
      <trkpt lat="42.54999" lon="1.9824">
        <ele>2140</ele>
        <time>2018-07-07T07:33:17.000Z</time>
      </trkpt>
      <trkpt lat="42.55001" lon="1.98239">
        <ele>2139</ele>
        <time>2018-07-07T07:33:18.000Z</time>
      </trkpt>
      <trkpt lat="42.55003" lon="1.98239">
        <ele>2138</ele>
        <time>2018-07-07T07:33:19.000Z</time>
      </trkpt>
      <trkpt lat="42.55005" lon="1.98238">
        <ele>2138</ele>
        <time>2018-07-07T07:33:20.000Z</time>
      </trkpt>
      <trkpt lat="42.55007" lon="1.98238">
        <ele>2138</ele>
        <time>2018-07-07T07:33:21.000Z</time>
      </trkpt>
      <trkpt lat="42.55009" lon="1.98237">
        <ele>2138</ele>
        <time>2018-07-07T07:33:22.000Z</time>
      </trkpt>
      <trkpt lat="42.55011" lon="1.98237">
        <ele>2138</ele>
        <time>2018-07-07T07:33:23.000Z</time>
      </trkpt>
      <trkpt lat="42.55015" lon="1.98237">
        <ele>2138</ele>
        <time>2018-07-07T07:33:25.000Z</time>
      </trkpt>
      <trkpt lat="42.55017" lon="1.98237">
        <ele>2138</ele>
        <time>2018-07-07T07:33:26.000Z</time>
      </trkpt>
      <trkpt lat="42.55019" lon="1.98237">
        <ele>2137</ele>
        <time>2018-07-07T07:33:27.000Z</time>
      </trkpt>
      <trkpt lat="42.55021" lon="1.98237">
        <ele>2137</ele>
        <time>2018-07-07T07:33:28.000Z</time>
      </trkpt>
      <trkpt lat="42.55023" lon="1.98238">
        <ele>2137</ele>
        <time>2018-07-07T07:33:29.000Z</time>
      </trkpt>
      <trkpt lat="42.55027" lon="1.98238">
        <ele>2137</ele>
        <time>2018-07-07T07:33:31.000Z</time>
      </trkpt>
      <trkpt lat="42.55029" lon="1.98237">
        <ele>2137</ele>
        <time>2018-07-07T07:33:32.000Z</time>
      </trkpt>
      <trkpt lat="42.55031" lon="1.98237">
        <ele>2137</ele>
        <time>2018-07-07T07:33:33.000Z</time>
      </trkpt>
      <trkpt lat="42.55033" lon="1.98238">
        <ele>2137</ele>
        <time>2018-07-07T07:33:34.000Z</time>
      </trkpt>
      <trkpt lat="42.55035" lon="1.98238">
        <ele>2137</ele>
        <time>2018-07-07T07:33:35.000Z</time>
      </trkpt>
      <trkpt lat="42.55037" lon="1.98239">
        <ele>2137</ele>
        <time>2018-07-07T07:33:36.000Z</time>
      </trkpt>
      <trkpt lat="42.5504" lon="1.98239">
        <ele>2137</ele>
        <time>2018-07-07T07:33:37.000Z</time>
      </trkpt>
      <trkpt lat="42.55042" lon="1.98239">
        <ele>2136</ele>
        <time>2018-07-07T07:33:38.000Z</time>
      </trkpt>
      <trkpt lat="42.55044" lon="1.98239">
        <ele>2136</ele>
        <time>2018-07-07T07:33:39.000Z</time>
      </trkpt>
      <trkpt lat="42.55046" lon="1.98238">
        <ele>2136</ele>
        <time>2018-07-07T07:33:40.000Z</time>
      </trkpt>
      <trkpt lat="42.55048" lon="1.98237">
        <ele>2136</ele>
        <time>2018-07-07T07:33:41.000Z</time>
      </trkpt>
      <trkpt lat="42.5505" lon="1.98236">
        <ele>2136</ele>
        <time>2018-07-07T07:33:42.000Z</time>
      </trkpt>
      <trkpt lat="42.55052" lon="1.98235">
        <ele>2136</ele>
        <time>2018-07-07T07:33:43.000Z</time>
      </trkpt>
      <trkpt lat="42.55054" lon="1.98233">
        <ele>2136</ele>
        <time>2018-07-07T07:33:44.000Z</time>
      </trkpt>
      <trkpt lat="42.55056" lon="1.98232">
        <ele>2136</ele>
        <time>2018-07-07T07:33:45.000Z</time>
      </trkpt>
      <trkpt lat="42.55059" lon="1.9823">
        <ele>2136</ele>
        <time>2018-07-07T07:33:47.000Z</time>
      </trkpt>
      <trkpt lat="42.55061" lon="1.98229">
        <ele>2136</ele>
        <time>2018-07-07T07:33:48.000Z</time>
      </trkpt>
      <trkpt lat="42.55063" lon="1.98228">
        <ele>2136</ele>
        <time>2018-07-07T07:33:49.000Z</time>
      </trkpt>
      <trkpt lat="42.55065" lon="1.98228">
        <ele>2136</ele>
        <time>2018-07-07T07:33:50.000Z</time>
      </trkpt>
      <trkpt lat="42.55068" lon="1.98229">
        <ele>2136</ele>
        <time>2018-07-07T07:33:51.000Z</time>
      </trkpt>
      <trkpt lat="42.5507" lon="1.98229">
        <ele>2136</ele>
        <time>2018-07-07T07:33:52.000Z</time>
      </trkpt>
      <trkpt lat="42.55072" lon="1.98229">
        <ele>2136</ele>
        <time>2018-07-07T07:33:53.000Z</time>
      </trkpt>
      <trkpt lat="42.55074" lon="1.98227">
        <ele>2136</ele>
        <time>2018-07-07T07:33:54.000Z</time>
      </trkpt>
      <trkpt lat="42.55076" lon="1.98225">
        <ele>2136</ele>
        <time>2018-07-07T07:33:55.000Z</time>
      </trkpt>
      <trkpt lat="42.55078" lon="1.98224">
        <ele>2136</ele>
        <time>2018-07-07T07:33:56.000Z</time>
      </trkpt>
      <trkpt lat="42.5508" lon="1.98223">
        <ele>2136</ele>
        <time>2018-07-07T07:33:57.000Z</time>
      </trkpt>
      <trkpt lat="42.55082" lon="1.98223">
        <ele>2136</ele>
        <time>2018-07-07T07:33:58.000Z</time>
      </trkpt>
      <trkpt lat="42.55084" lon="1.98223">
        <ele>2135</ele>
        <time>2018-07-07T07:33:59.000Z</time>
      </trkpt>
      <trkpt lat="42.55086" lon="1.98223">
        <ele>2135</ele>
        <time>2018-07-07T07:34:00.000Z</time>
      </trkpt>
      <trkpt lat="42.55089" lon="1.98223">
        <ele>2135</ele>
        <time>2018-07-07T07:34:01.000Z</time>
      </trkpt>
      <trkpt lat="42.55091" lon="1.98223">
        <ele>2135</ele>
        <time>2018-07-07T07:34:02.000Z</time>
      </trkpt>
      <trkpt lat="42.55093" lon="1.98222">
        <ele>2135</ele>
        <time>2018-07-07T07:34:03.000Z</time>
      </trkpt>
      <trkpt lat="42.55095" lon="1.98221">
        <ele>2135</ele>
        <time>2018-07-07T07:34:04.000Z</time>
      </trkpt>
      <trkpt lat="42.55097" lon="1.9822">
        <ele>2135</ele>
        <time>2018-07-07T07:34:05.000Z</time>
      </trkpt>
      <trkpt lat="42.55099" lon="1.9822">
        <ele>2136</ele>
        <time>2018-07-07T07:34:06.000Z</time>
      </trkpt>
      <trkpt lat="42.55101" lon="1.98221">
        <ele>2136</ele>
        <time>2018-07-07T07:34:07.000Z</time>
      </trkpt>
      <trkpt lat="42.55104" lon="1.98221">
        <ele>2136</ele>
        <time>2018-07-07T07:34:09.000Z</time>
      </trkpt>
      <trkpt lat="42.55107" lon="1.98219">
        <ele>2136</ele>
        <time>2018-07-07T07:34:11.000Z</time>
      </trkpt>
      <trkpt lat="42.55108" lon="1.98217">
        <ele>2136</ele>
        <time>2018-07-07T07:34:12.000Z</time>
      </trkpt>
      <trkpt lat="42.55111" lon="1.98215">
        <ele>2136</ele>
        <time>2018-07-07T07:34:14.000Z</time>
      </trkpt>
      <trkpt lat="42.55113" lon="1.98213">
        <ele>2136</ele>
        <time>2018-07-07T07:34:15.000Z</time>
      </trkpt>
      <trkpt lat="42.55114" lon="1.98212">
        <ele>2136</ele>
        <time>2018-07-07T07:34:16.000Z</time>
      </trkpt>
      <trkpt lat="42.55116" lon="1.9821">
        <ele>2136</ele>
        <time>2018-07-07T07:34:17.000Z</time>
      </trkpt>
      <trkpt lat="42.55118" lon="1.98209">
        <ele>2136</ele>
        <time>2018-07-07T07:34:18.000Z</time>
      </trkpt>
      <trkpt lat="42.5512" lon="1.98207">
        <ele>2136</ele>
        <time>2018-07-07T07:34:19.000Z</time>
      </trkpt>
      <trkpt lat="42.55121" lon="1.98206">
        <ele>2136</ele>
        <time>2018-07-07T07:34:20.000Z</time>
      </trkpt>
      <trkpt lat="42.55123" lon="1.98204">
        <ele>2136</ele>
        <time>2018-07-07T07:34:21.000Z</time>
      </trkpt>
      <trkpt lat="42.55125" lon="1.98203">
        <ele>2136</ele>
        <time>2018-07-07T07:34:22.000Z</time>
      </trkpt>
      <trkpt lat="42.55127" lon="1.98202">
        <ele>2136</ele>
        <time>2018-07-07T07:34:23.000Z</time>
      </trkpt>
      <trkpt lat="42.55128" lon="1.982">
        <ele>2136</ele>
        <time>2018-07-07T07:34:24.000Z</time>
      </trkpt>
      <trkpt lat="42.5513" lon="1.98199">
        <ele>2136</ele>
        <time>2018-07-07T07:34:25.000Z</time>
      </trkpt>
      <trkpt lat="42.55132" lon="1.98197">
        <ele>2136</ele>
        <time>2018-07-07T07:34:26.000Z</time>
      </trkpt>
      <trkpt lat="42.55133" lon="1.98195">
        <ele>2136</ele>
        <time>2018-07-07T07:34:27.000Z</time>
      </trkpt>
      <trkpt lat="42.55134" lon="1.98193">
        <ele>2136</ele>
        <time>2018-07-07T07:34:28.000Z</time>
      </trkpt>
      <trkpt lat="42.55135" lon="1.98191">
        <ele>2136</ele>
        <time>2018-07-07T07:34:29.000Z</time>
      </trkpt>
      <trkpt lat="42.55137" lon="1.98189">
        <ele>2136</ele>
        <time>2018-07-07T07:34:30.000Z</time>
      </trkpt>
      <trkpt lat="42.55138" lon="1.98187">
        <ele>2136</ele>
        <time>2018-07-07T07:34:31.000Z</time>
      </trkpt>
      <trkpt lat="42.55139" lon="1.98185">
        <ele>2136</ele>
        <time>2018-07-07T07:34:32.000Z</time>
      </trkpt>
      <trkpt lat="42.55141" lon="1.98184">
        <ele>2136</ele>
        <time>2018-07-07T07:34:33.000Z</time>
      </trkpt>
      <trkpt lat="42.55142" lon="1.98182">
        <ele>2136</ele>
        <time>2018-07-07T07:34:34.000Z</time>
      </trkpt>
      <trkpt lat="42.55144" lon="1.9818">
        <ele>2136</ele>
        <time>2018-07-07T07:34:35.000Z</time>
      </trkpt>
      <trkpt lat="42.55145" lon="1.98179">
        <ele>2136</ele>
        <time>2018-07-07T07:34:36.000Z</time>
      </trkpt>
      <trkpt lat="42.55147" lon="1.98177">
        <ele>2136</ele>
        <time>2018-07-07T07:34:37.000Z</time>
      </trkpt>
      <trkpt lat="42.55149" lon="1.98176">
        <ele>2136</ele>
        <time>2018-07-07T07:34:38.000Z</time>
      </trkpt>
      <trkpt lat="42.55151" lon="1.98175">
        <ele>2136</ele>
        <time>2018-07-07T07:34:39.000Z</time>
      </trkpt>
      <trkpt lat="42.55152" lon="1.98174">
        <ele>2136</ele>
        <time>2018-07-07T07:34:40.000Z</time>
      </trkpt>
      <trkpt lat="42.55154" lon="1.98173">
        <ele>2136</ele>
        <time>2018-07-07T07:34:41.000Z</time>
      </trkpt>
      <trkpt lat="42.55156" lon="1.98172">
        <ele>2137</ele>
        <time>2018-07-07T07:34:42.000Z</time>
      </trkpt>
      <trkpt lat="42.55158" lon="1.9817">
        <ele>2137</ele>
        <time>2018-07-07T07:34:43.000Z</time>
      </trkpt>
      <trkpt lat="42.55159" lon="1.98169">
        <ele>2137</ele>
        <time>2018-07-07T07:34:44.000Z</time>
      </trkpt>
      <trkpt lat="42.55161" lon="1.98167">
        <ele>2137</ele>
        <time>2018-07-07T07:34:45.000Z</time>
      </trkpt>
      <trkpt lat="42.55163" lon="1.98166">
        <ele>2137</ele>
        <time>2018-07-07T07:34:46.000Z</time>
      </trkpt>
      <trkpt lat="42.55165" lon="1.98164">
        <ele>2137</ele>
        <time>2018-07-07T07:34:47.000Z</time>
      </trkpt>
      <trkpt lat="42.55166" lon="1.98162">
        <ele>2137</ele>
        <time>2018-07-07T07:34:48.000Z</time>
      </trkpt>
      <trkpt lat="42.55168" lon="1.9816">
        <ele>2138</ele>
        <time>2018-07-07T07:34:49.000Z</time>
      </trkpt>
      <trkpt lat="42.5517" lon="1.98158">
        <ele>2138</ele>
        <time>2018-07-07T07:34:50.000Z</time>
      </trkpt>
      <trkpt lat="42.55172" lon="1.98156">
        <ele>2138</ele>
        <time>2018-07-07T07:34:51.000Z</time>
      </trkpt>
      <trkpt lat="42.55174" lon="1.98154">
        <ele>2138</ele>
        <time>2018-07-07T07:34:52.000Z</time>
      </trkpt>
      <trkpt lat="42.55176" lon="1.98152">
        <ele>2139</ele>
        <time>2018-07-07T07:34:53.000Z</time>
      </trkpt>
      <trkpt lat="42.55177" lon="1.9815">
        <ele>2139</ele>
        <time>2018-07-07T07:34:54.000Z</time>
      </trkpt>
      <trkpt lat="42.55179" lon="1.98148">
        <ele>2139</ele>
        <time>2018-07-07T07:34:55.000Z</time>
      </trkpt>
      <trkpt lat="42.55181" lon="1.98146">
        <ele>2139</ele>
        <time>2018-07-07T07:34:56.000Z</time>
      </trkpt>
      <trkpt lat="42.55183" lon="1.98144">
        <ele>2139</ele>
        <time>2018-07-07T07:34:57.000Z</time>
      </trkpt>
      <trkpt lat="42.55185" lon="1.98143">
        <ele>2139</ele>
        <time>2018-07-07T07:34:58.000Z</time>
      </trkpt>
      <trkpt lat="42.55187" lon="1.98141">
        <ele>2140</ele>
        <time>2018-07-07T07:34:59.000Z</time>
      </trkpt>
      <trkpt lat="42.55189" lon="1.98139">
        <ele>2140</ele>
        <time>2018-07-07T07:35:00.000Z</time>
      </trkpt>
      <trkpt lat="42.55191" lon="1.98138">
        <ele>2140</ele>
        <time>2018-07-07T07:35:01.000Z</time>
      </trkpt>
      <trkpt lat="42.55193" lon="1.98136">
        <ele>2140</ele>
        <time>2018-07-07T07:35:02.000Z</time>
      </trkpt>
      <trkpt lat="42.55196" lon="1.98134">
        <ele>2140</ele>
        <time>2018-07-07T07:35:04.000Z</time>
      </trkpt>
      <trkpt lat="42.55197" lon="1.98132">
        <ele>2140</ele>
        <time>2018-07-07T07:35:06.000Z</time>
      </trkpt>
      <trkpt lat="42.55199" lon="1.9813">
        <ele>2140</ele>
        <time>2018-07-07T07:35:08.000Z</time>
      </trkpt>
      <trkpt lat="42.55201" lon="1.98127">
        <ele>2140</ele>
        <time>2018-07-07T07:35:10.000Z</time>
      </trkpt>
      <trkpt lat="42.55203" lon="1.98125">
        <ele>2140</ele>
        <time>2018-07-07T07:35:12.000Z</time>
      </trkpt>
      <trkpt lat="42.55205" lon="1.98123">
        <ele>2140</ele>
        <time>2018-07-07T07:35:14.000Z</time>
      </trkpt>
      <trkpt lat="42.55207" lon="1.98121">
        <ele>2141</ele>
        <time>2018-07-07T07:35:16.000Z</time>
      </trkpt>
      <trkpt lat="42.55209" lon="1.98119">
        <ele>2141</ele>
        <time>2018-07-07T07:35:18.000Z</time>
      </trkpt>
      <trkpt lat="42.5521" lon="1.98116">
        <ele>2141</ele>
        <time>2018-07-07T07:35:20.000Z</time>
      </trkpt>
      <trkpt lat="42.55212" lon="1.98114">
        <ele>2141</ele>
        <time>2018-07-07T07:35:22.000Z</time>
      </trkpt>
      <trkpt lat="42.55214" lon="1.98112">
        <ele>2141</ele>
        <time>2018-07-07T07:35:24.000Z</time>
      </trkpt>
      <trkpt lat="42.55216" lon="1.9811">
        <ele>2141</ele>
        <time>2018-07-07T07:35:26.000Z</time>
      </trkpt>
      <trkpt lat="42.55218" lon="1.98108">
        <ele>2141</ele>
        <time>2018-07-07T07:35:28.000Z</time>
      </trkpt>
      <trkpt lat="42.5522" lon="1.98107">
        <ele>2141</ele>
        <time>2018-07-07T07:35:30.000Z</time>
      </trkpt>
      <trkpt lat="42.55222" lon="1.98105">
        <ele>2141</ele>
        <time>2018-07-07T07:35:32.000Z</time>
      </trkpt>
      <trkpt lat="42.55224" lon="1.98103">
        <ele>2142</ele>
        <time>2018-07-07T07:35:34.000Z</time>
      </trkpt>
      <trkpt lat="42.55225" lon="1.98101">
        <ele>2142</ele>
        <time>2018-07-07T07:35:36.000Z</time>
      </trkpt>
      <trkpt lat="42.55227" lon="1.98099">
        <ele>2142</ele>
        <time>2018-07-07T07:35:38.000Z</time>
      </trkpt>
      <trkpt lat="42.55229" lon="1.98098">
        <ele>2142</ele>
        <time>2018-07-07T07:35:40.000Z</time>
      </trkpt>
      <trkpt lat="42.55231" lon="1.98097">
        <ele>2142</ele>
        <time>2018-07-07T07:35:42.000Z</time>
      </trkpt>
      <trkpt lat="42.55233" lon="1.98096">
        <ele>2142</ele>
        <time>2018-07-07T07:35:44.000Z</time>
      </trkpt>
      <trkpt lat="42.55235" lon="1.98094">
        <ele>2143</ele>
        <time>2018-07-07T07:35:46.000Z</time>
      </trkpt>
      <trkpt lat="42.55237" lon="1.98093">
        <ele>2143</ele>
        <time>2018-07-07T07:35:48.000Z</time>
      </trkpt>
      <trkpt lat="42.55239" lon="1.98091">
        <ele>2143</ele>
        <time>2018-07-07T07:35:50.000Z</time>
      </trkpt>
      <trkpt lat="42.55241" lon="1.98089">
        <ele>2143</ele>
        <time>2018-07-07T07:35:52.000Z</time>
      </trkpt>
      <trkpt lat="42.55244" lon="1.98088">
        <ele>2144</ele>
        <time>2018-07-07T07:35:54.000Z</time>
      </trkpt>
      <trkpt lat="42.55246" lon="1.98087">
        <ele>2144</ele>
        <time>2018-07-07T07:35:59.000Z</time>
      </trkpt>
      <trkpt lat="42.55249" lon="1.98085">
        <ele>2145</ele>
        <time>2018-07-07T07:36:01.000Z</time>
      </trkpt>
      <trkpt lat="42.55251" lon="1.98083">
        <ele>2145</ele>
        <time>2018-07-07T07:36:03.000Z</time>
      </trkpt>
      <trkpt lat="42.55253" lon="1.98081">
        <ele>2146</ele>
        <time>2018-07-07T07:36:05.000Z</time>
      </trkpt>
      <trkpt lat="42.55256" lon="1.98079">
        <ele>2146</ele>
        <time>2018-07-07T07:36:07.000Z</time>
      </trkpt>
      <trkpt lat="42.55258" lon="1.98077">
        <ele>2146</ele>
        <time>2018-07-07T07:36:09.000Z</time>
      </trkpt>
      <trkpt lat="42.5526" lon="1.98075">
        <ele>2146</ele>
        <time>2018-07-07T07:36:11.000Z</time>
      </trkpt>
      <trkpt lat="42.55262" lon="1.98073">
        <ele>2147</ele>
        <time>2018-07-07T07:36:13.000Z</time>
      </trkpt>
      <trkpt lat="42.55264" lon="1.98072">
        <ele>2147</ele>
        <time>2018-07-07T07:36:15.000Z</time>
      </trkpt>
      <trkpt lat="42.55267" lon="1.98071">
        <ele>2147</ele>
        <time>2018-07-07T07:36:17.000Z</time>
      </trkpt>
      <trkpt lat="42.55268" lon="1.98069">
        <ele>2147</ele>
        <time>2018-07-07T07:36:19.000Z</time>
      </trkpt>
      <trkpt lat="42.55271" lon="1.98068">
        <ele>2147</ele>
        <time>2018-07-07T07:36:21.000Z</time>
      </trkpt>
      <trkpt lat="42.55273" lon="1.98067">
        <ele>2147</ele>
        <time>2018-07-07T07:36:23.000Z</time>
      </trkpt>
      <trkpt lat="42.55275" lon="1.98065">
        <ele>2147</ele>
        <time>2018-07-07T07:36:25.000Z</time>
      </trkpt>
      <trkpt lat="42.55277" lon="1.98063">
        <ele>2148</ele>
        <time>2018-07-07T07:36:27.000Z</time>
      </trkpt>
      <trkpt lat="42.55278" lon="1.98062">
        <ele>2148</ele>
        <time>2018-07-07T07:36:28.000Z</time>
      </trkpt>
      <trkpt lat="42.5528" lon="1.98061">
        <ele>2148</ele>
        <time>2018-07-07T07:36:29.000Z</time>
      </trkpt>
      <trkpt lat="42.55282" lon="1.9806">
        <ele>2148</ele>
        <time>2018-07-07T07:36:30.000Z</time>
      </trkpt>
      <trkpt lat="42.55284" lon="1.98059">
        <ele>2148</ele>
        <time>2018-07-07T07:36:31.000Z</time>
      </trkpt>
      <trkpt lat="42.55286" lon="1.98058">
        <ele>2148</ele>
        <time>2018-07-07T07:36:32.000Z</time>
      </trkpt>
      <trkpt lat="42.55288" lon="1.98057">
        <ele>2148</ele>
        <time>2018-07-07T07:36:33.000Z</time>
      </trkpt>
      <trkpt lat="42.5529" lon="1.98056">
        <ele>2148</ele>
        <time>2018-07-07T07:36:34.000Z</time>
      </trkpt>
      <trkpt lat="42.55292" lon="1.98055">
        <ele>2148</ele>
        <time>2018-07-07T07:36:35.000Z</time>
      </trkpt>
      <trkpt lat="42.55293" lon="1.98053">
        <ele>2148</ele>
        <time>2018-07-07T07:36:36.000Z</time>
      </trkpt>
      <trkpt lat="42.55295" lon="1.98052">
        <ele>2148</ele>
        <time>2018-07-07T07:36:37.000Z</time>
      </trkpt>
      <trkpt lat="42.55297" lon="1.98051">
        <ele>2148</ele>
        <time>2018-07-07T07:36:38.000Z</time>
      </trkpt>
      <trkpt lat="42.55299" lon="1.9805">
        <ele>2148</ele>
        <time>2018-07-07T07:36:39.000Z</time>
      </trkpt>
      <trkpt lat="42.55301" lon="1.98049">
        <ele>2148</ele>
        <time>2018-07-07T07:36:40.000Z</time>
      </trkpt>
      <trkpt lat="42.55303" lon="1.98048">
        <ele>2148</ele>
        <time>2018-07-07T07:36:41.000Z</time>
      </trkpt>
      <trkpt lat="42.55305" lon="1.98047">
        <ele>2149</ele>
        <time>2018-07-07T07:36:42.000Z</time>
      </trkpt>
      <trkpt lat="42.55307" lon="1.98046">
        <ele>2149</ele>
        <time>2018-07-07T07:36:43.000Z</time>
      </trkpt>
      <trkpt lat="42.55308" lon="1.98045">
        <ele>2149</ele>
        <time>2018-07-07T07:36:44.000Z</time>
      </trkpt>
      <trkpt lat="42.5531" lon="1.98044">
        <ele>2149</ele>
        <time>2018-07-07T07:36:45.000Z</time>
      </trkpt>
      <trkpt lat="42.55312" lon="1.98043">
        <ele>2149</ele>
        <time>2018-07-07T07:36:46.000Z</time>
      </trkpt>
      <trkpt lat="42.55314" lon="1.98042">
        <ele>2149</ele>
        <time>2018-07-07T07:36:47.000Z</time>
      </trkpt>
      <trkpt lat="42.55316" lon="1.98041">
        <ele>2149</ele>
        <time>2018-07-07T07:36:48.000Z</time>
      </trkpt>
      <trkpt lat="42.55318" lon="1.9804">
        <ele>2149</ele>
        <time>2018-07-07T07:36:49.000Z</time>
      </trkpt>
      <trkpt lat="42.5532" lon="1.98039">
        <ele>2149</ele>
        <time>2018-07-07T07:36:50.000Z</time>
      </trkpt>
      <trkpt lat="42.55322" lon="1.98038">
        <ele>2149</ele>
        <time>2018-07-07T07:36:51.000Z</time>
      </trkpt>
      <trkpt lat="42.55324" lon="1.98037">
        <ele>2149</ele>
        <time>2018-07-07T07:36:52.000Z</time>
      </trkpt>
      <trkpt lat="42.55326" lon="1.98036">
        <ele>2149</ele>
        <time>2018-07-07T07:36:53.000Z</time>
      </trkpt>
      <trkpt lat="42.55328" lon="1.98034">
        <ele>2149</ele>
        <time>2018-07-07T07:36:54.000Z</time>
      </trkpt>
      <trkpt lat="42.5533" lon="1.98033">
        <ele>2150</ele>
        <time>2018-07-07T07:36:55.000Z</time>
      </trkpt>
      <trkpt lat="42.55332" lon="1.98032">
        <ele>2150</ele>
        <time>2018-07-07T07:36:56.000Z</time>
      </trkpt>
      <trkpt lat="42.55334" lon="1.98031">
        <ele>2151</ele>
        <time>2018-07-07T07:36:57.000Z</time>
      </trkpt>
      <trkpt lat="42.55336" lon="1.9803">
        <ele>2151</ele>
        <time>2018-07-07T07:36:58.000Z</time>
      </trkpt>
      <trkpt lat="42.55338" lon="1.98029">
        <ele>2151</ele>
        <time>2018-07-07T07:36:59.000Z</time>
      </trkpt>
      <trkpt lat="42.5534" lon="1.98028">
        <ele>2151</ele>
        <time>2018-07-07T07:37:00.000Z</time>
      </trkpt>
      <trkpt lat="42.55343" lon="1.98027">
        <ele>2151</ele>
        <time>2018-07-07T07:37:01.000Z</time>
      </trkpt>
      <trkpt lat="42.55345" lon="1.98026">
        <ele>2151</ele>
        <time>2018-07-07T07:37:02.000Z</time>
      </trkpt>
      <trkpt lat="42.55347" lon="1.98026">
        <ele>2151</ele>
        <time>2018-07-07T07:37:03.000Z</time>
      </trkpt>
      <trkpt lat="42.55349" lon="1.98025">
        <ele>2151</ele>
        <time>2018-07-07T07:37:04.000Z</time>
      </trkpt>
      <trkpt lat="42.55351" lon="1.98024">
        <ele>2151</ele>
        <time>2018-07-07T07:37:05.000Z</time>
      </trkpt>
      <trkpt lat="42.55353" lon="1.98023">
        <ele>2151</ele>
        <time>2018-07-07T07:37:06.000Z</time>
      </trkpt>
      <trkpt lat="42.55355" lon="1.98023">
        <ele>2151</ele>
        <time>2018-07-07T07:37:07.000Z</time>
      </trkpt>
      <trkpt lat="42.55357" lon="1.98022">
        <ele>2151</ele>
        <time>2018-07-07T07:37:08.000Z</time>
      </trkpt>
      <trkpt lat="42.5536" lon="1.98021">
        <ele>2151</ele>
        <time>2018-07-07T07:37:09.000Z</time>
      </trkpt>
      <trkpt lat="42.55362" lon="1.98021">
        <ele>2151</ele>
        <time>2018-07-07T07:37:10.000Z</time>
      </trkpt>
      <trkpt lat="42.55364" lon="1.98021">
        <ele>2151</ele>
        <time>2018-07-07T07:37:11.000Z</time>
      </trkpt>
      <trkpt lat="42.55367" lon="1.9802">
        <ele>2151</ele>
        <time>2018-07-07T07:37:12.000Z</time>
      </trkpt>
      <trkpt lat="42.55369" lon="1.98019">
        <ele>2151</ele>
        <time>2018-07-07T07:37:13.000Z</time>
      </trkpt>
      <trkpt lat="42.55371" lon="1.98017">
        <ele>2151</ele>
        <time>2018-07-07T07:37:14.000Z</time>
      </trkpt>
      <trkpt lat="42.55373" lon="1.98016">
        <ele>2151</ele>
        <time>2018-07-07T07:37:15.000Z</time>
      </trkpt>
      <trkpt lat="42.55375" lon="1.98015">
        <ele>2151</ele>
        <time>2018-07-07T07:37:16.000Z</time>
      </trkpt>
      <trkpt lat="42.55378" lon="1.98014">
        <ele>2151</ele>
        <time>2018-07-07T07:37:17.000Z</time>
      </trkpt>
      <trkpt lat="42.5538" lon="1.98014">
        <ele>2151</ele>
        <time>2018-07-07T07:37:18.000Z</time>
      </trkpt>
      <trkpt lat="42.55382" lon="1.98013">
        <ele>2151</ele>
        <time>2018-07-07T07:37:19.000Z</time>
      </trkpt>
      <trkpt lat="42.55384" lon="1.98012">
        <ele>2152</ele>
        <time>2018-07-07T07:37:20.000Z</time>
      </trkpt>
      <trkpt lat="42.55387" lon="1.98011">
        <ele>2152</ele>
        <time>2018-07-07T07:37:21.000Z</time>
      </trkpt>
      <trkpt lat="42.55389" lon="1.98011">
        <ele>2152</ele>
        <time>2018-07-07T07:37:22.000Z</time>
      </trkpt>
      <trkpt lat="42.55391" lon="1.9801">
        <ele>2152</ele>
        <time>2018-07-07T07:37:23.000Z</time>
      </trkpt>
      <trkpt lat="42.55394" lon="1.98009">
        <ele>2152</ele>
        <time>2018-07-07T07:37:24.000Z</time>
      </trkpt>
      <trkpt lat="42.55396" lon="1.98009">
        <ele>2152</ele>
        <time>2018-07-07T07:37:25.000Z</time>
      </trkpt>
      <trkpt lat="42.55398" lon="1.98008">
        <ele>2152</ele>
        <time>2018-07-07T07:37:26.000Z</time>
      </trkpt>
      <trkpt lat="42.554" lon="1.98007">
        <ele>2152</ele>
        <time>2018-07-07T07:37:27.000Z</time>
      </trkpt>
      <trkpt lat="42.55402" lon="1.98006">
        <ele>2152</ele>
        <time>2018-07-07T07:37:28.000Z</time>
      </trkpt>
      <trkpt lat="42.55405" lon="1.98005">
        <ele>2152</ele>
        <time>2018-07-07T07:37:29.000Z</time>
      </trkpt>
      <trkpt lat="42.55407" lon="1.98004">
        <ele>2152</ele>
        <time>2018-07-07T07:37:30.000Z</time>
      </trkpt>
      <trkpt lat="42.55409" lon="1.98002">
        <ele>2152</ele>
        <time>2018-07-07T07:37:31.000Z</time>
      </trkpt>
      <trkpt lat="42.55411" lon="1.98001">
        <ele>2153</ele>
        <time>2018-07-07T07:37:32.000Z</time>
      </trkpt>
      <trkpt lat="42.55414" lon="1.97999">
        <ele>2153</ele>
        <time>2018-07-07T07:37:33.000Z</time>
      </trkpt>
      <trkpt lat="42.55416" lon="1.97998">
        <ele>2153</ele>
        <time>2018-07-07T07:37:34.000Z</time>
      </trkpt>
      <trkpt lat="42.55418" lon="1.97997">
        <ele>2153</ele>
        <time>2018-07-07T07:37:35.000Z</time>
      </trkpt>
      <trkpt lat="42.5542" lon="1.97995">
        <ele>2153</ele>
        <time>2018-07-07T07:37:36.000Z</time>
      </trkpt>
      <trkpt lat="42.55422" lon="1.97994">
        <ele>2153</ele>
        <time>2018-07-07T07:37:37.000Z</time>
      </trkpt>
      <trkpt lat="42.55424" lon="1.97992">
        <ele>2153</ele>
        <time>2018-07-07T07:37:38.000Z</time>
      </trkpt>
      <trkpt lat="42.55426" lon="1.97991">
        <ele>2153</ele>
        <time>2018-07-07T07:37:39.000Z</time>
      </trkpt>
      <trkpt lat="42.55428" lon="1.9799">
        <ele>2153</ele>
        <time>2018-07-07T07:37:40.000Z</time>
      </trkpt>
      <trkpt lat="42.5543" lon="1.97988">
        <ele>2153</ele>
        <time>2018-07-07T07:37:41.000Z</time>
      </trkpt>
      <trkpt lat="42.55432" lon="1.97987">
        <ele>2153</ele>
        <time>2018-07-07T07:37:42.000Z</time>
      </trkpt>
      <trkpt lat="42.55434" lon="1.97986">
        <ele>2153</ele>
        <time>2018-07-07T07:37:43.000Z</time>
      </trkpt>
      <trkpt lat="42.55436" lon="1.97985">
        <ele>2153</ele>
        <time>2018-07-07T07:37:44.000Z</time>
      </trkpt>
      <trkpt lat="42.55438" lon="1.97983">
        <ele>2153</ele>
        <time>2018-07-07T07:37:45.000Z</time>
      </trkpt>
      <trkpt lat="42.5544" lon="1.97982">
        <ele>2153</ele>
        <time>2018-07-07T07:37:46.000Z</time>
      </trkpt>
      <trkpt lat="42.55442" lon="1.9798">
        <ele>2153</ele>
        <time>2018-07-07T07:37:47.000Z</time>
      </trkpt>
      <trkpt lat="42.55443" lon="1.97978">
        <ele>2153</ele>
        <time>2018-07-07T07:37:48.000Z</time>
      </trkpt>
      <trkpt lat="42.55445" lon="1.97977">
        <ele>2153</ele>
        <time>2018-07-07T07:37:49.000Z</time>
      </trkpt>
      <trkpt lat="42.55447" lon="1.97976">
        <ele>2153</ele>
        <time>2018-07-07T07:37:50.000Z</time>
      </trkpt>
      <trkpt lat="42.55449" lon="1.97974">
        <ele>2153</ele>
        <time>2018-07-07T07:37:51.000Z</time>
      </trkpt>
      <trkpt lat="42.55451" lon="1.97973">
        <ele>2153</ele>
        <time>2018-07-07T07:37:52.000Z</time>
      </trkpt>
      <trkpt lat="42.55453" lon="1.97972">
        <ele>2153</ele>
        <time>2018-07-07T07:37:53.000Z</time>
      </trkpt>
      <trkpt lat="42.55454" lon="1.97971">
        <ele>2153</ele>
        <time>2018-07-07T07:37:54.000Z</time>
      </trkpt>
      <trkpt lat="42.55457" lon="1.9797">
        <ele>2153</ele>
        <time>2018-07-07T07:37:55.000Z</time>
      </trkpt>
      <trkpt lat="42.55459" lon="1.97969">
        <ele>2153</ele>
        <time>2018-07-07T07:37:56.000Z</time>
      </trkpt>
      <trkpt lat="42.55461" lon="1.97968">
        <ele>2153</ele>
        <time>2018-07-07T07:37:57.000Z</time>
      </trkpt>
      <trkpt lat="42.55463" lon="1.97967">
        <ele>2153</ele>
        <time>2018-07-07T07:37:58.000Z</time>
      </trkpt>
      <trkpt lat="42.55465" lon="1.97966">
        <ele>2153</ele>
        <time>2018-07-07T07:37:59.000Z</time>
      </trkpt>
      <trkpt lat="42.55467" lon="1.97964">
        <ele>2153</ele>
        <time>2018-07-07T07:38:00.000Z</time>
      </trkpt>
      <trkpt lat="42.55469" lon="1.97963">
        <ele>2153</ele>
        <time>2018-07-07T07:38:01.000Z</time>
      </trkpt>
      <trkpt lat="42.55471" lon="1.97962">
        <ele>2153</ele>
        <time>2018-07-07T07:38:02.000Z</time>
      </trkpt>
      <trkpt lat="42.55473" lon="1.97961">
        <ele>2153</ele>
        <time>2018-07-07T07:38:03.000Z</time>
      </trkpt>
      <trkpt lat="42.55475" lon="1.9796">
        <ele>2153</ele>
        <time>2018-07-07T07:38:04.000Z</time>
      </trkpt>
      <trkpt lat="42.55477" lon="1.97958">
        <ele>2153</ele>
        <time>2018-07-07T07:38:05.000Z</time>
      </trkpt>
      <trkpt lat="42.55479" lon="1.97957">
        <ele>2153</ele>
        <time>2018-07-07T07:38:06.000Z</time>
      </trkpt>
      <trkpt lat="42.55481" lon="1.97956">
        <ele>2153</ele>
        <time>2018-07-07T07:38:07.000Z</time>
      </trkpt>
      <trkpt lat="42.55483" lon="1.97955">
        <ele>2153</ele>
        <time>2018-07-07T07:38:08.000Z</time>
      </trkpt>
      <trkpt lat="42.55485" lon="1.97953">
        <ele>2153</ele>
        <time>2018-07-07T07:38:09.000Z</time>
      </trkpt>
      <trkpt lat="42.55488" lon="1.97952">
        <ele>2153</ele>
        <time>2018-07-07T07:38:10.000Z</time>
      </trkpt>
      <trkpt lat="42.5549" lon="1.97951">
        <ele>2153</ele>
        <time>2018-07-07T07:38:11.000Z</time>
      </trkpt>
      <trkpt lat="42.55492" lon="1.97949">
        <ele>2153</ele>
        <time>2018-07-07T07:38:12.000Z</time>
      </trkpt>
      <trkpt lat="42.55494" lon="1.97948">
        <ele>2153</ele>
        <time>2018-07-07T07:38:13.000Z</time>
      </trkpt>
      <trkpt lat="42.55496" lon="1.97947">
        <ele>2153</ele>
        <time>2018-07-07T07:38:14.000Z</time>
      </trkpt>
      <trkpt lat="42.55498" lon="1.97945">
        <ele>2154</ele>
        <time>2018-07-07T07:38:15.000Z</time>
      </trkpt>
      <trkpt lat="42.555" lon="1.97943">
        <ele>2154</ele>
        <time>2018-07-07T07:38:16.000Z</time>
      </trkpt>
      <trkpt lat="42.55502" lon="1.97942">
        <ele>2153</ele>
        <time>2018-07-07T07:38:17.000Z</time>
      </trkpt>
      <trkpt lat="42.55504" lon="1.9794">
        <ele>2153</ele>
        <time>2018-07-07T07:38:18.000Z</time>
      </trkpt>
      <trkpt lat="42.55506" lon="1.97938">
        <ele>2154</ele>
        <time>2018-07-07T07:38:19.000Z</time>
      </trkpt>
      <trkpt lat="42.55508" lon="1.97936">
        <ele>2154</ele>
        <time>2018-07-07T07:38:20.000Z</time>
      </trkpt>
      <trkpt lat="42.5551" lon="1.97934">
        <ele>2154</ele>
        <time>2018-07-07T07:38:21.000Z</time>
      </trkpt>
      <trkpt lat="42.55512" lon="1.97933">
        <ele>2154</ele>
        <time>2018-07-07T07:38:22.000Z</time>
      </trkpt>
      <trkpt lat="42.55514" lon="1.97931">
        <ele>2154</ele>
        <time>2018-07-07T07:38:23.000Z</time>
      </trkpt>
      <trkpt lat="42.55516" lon="1.9793">
        <ele>2154</ele>
        <time>2018-07-07T07:38:24.000Z</time>
      </trkpt>
      <trkpt lat="42.55518" lon="1.97928">
        <ele>2154</ele>
        <time>2018-07-07T07:38:25.000Z</time>
      </trkpt>
      <trkpt lat="42.5552" lon="1.97927">
        <ele>2154</ele>
        <time>2018-07-07T07:38:26.000Z</time>
      </trkpt>
      <trkpt lat="42.55522" lon="1.97925">
        <ele>2154</ele>
        <time>2018-07-07T07:38:27.000Z</time>
      </trkpt>
      <trkpt lat="42.55524" lon="1.97924">
        <ele>2153</ele>
        <time>2018-07-07T07:38:28.000Z</time>
      </trkpt>
      <trkpt lat="42.55526" lon="1.97923">
        <ele>2153</ele>
        <time>2018-07-07T07:38:29.000Z</time>
      </trkpt>
      <trkpt lat="42.55529" lon="1.97922">
        <ele>2153</ele>
        <time>2018-07-07T07:38:30.000Z</time>
      </trkpt>
      <trkpt lat="42.55531" lon="1.97921">
        <ele>2153</ele>
        <time>2018-07-07T07:38:31.000Z</time>
      </trkpt>
      <trkpt lat="42.55533" lon="1.9792">
        <ele>2153</ele>
        <time>2018-07-07T07:38:32.000Z</time>
      </trkpt>
      <trkpt lat="42.55536" lon="1.97919">
        <ele>2153</ele>
        <time>2018-07-07T07:38:33.000Z</time>
      </trkpt>
      <trkpt lat="42.55538" lon="1.97917">
        <ele>2153</ele>
        <time>2018-07-07T07:38:34.000Z</time>
      </trkpt>
      <trkpt lat="42.5554" lon="1.97916">
        <ele>2155</ele>
        <time>2018-07-07T07:38:35.000Z</time>
      </trkpt>
      <trkpt lat="42.55542" lon="1.97914">
        <ele>2154</ele>
        <time>2018-07-07T07:38:36.000Z</time>
      </trkpt>
      <trkpt lat="42.55544" lon="1.97913">
        <ele>2154</ele>
        <time>2018-07-07T07:38:37.000Z</time>
      </trkpt>
      <trkpt lat="42.55546" lon="1.97911">
        <ele>2154</ele>
        <time>2018-07-07T07:38:38.000Z</time>
      </trkpt>
      <trkpt lat="42.55548" lon="1.9791">
        <ele>2154</ele>
        <time>2018-07-07T07:38:39.000Z</time>
      </trkpt>
      <trkpt lat="42.5555" lon="1.97908">
        <ele>2154</ele>
        <time>2018-07-07T07:38:40.000Z</time>
      </trkpt>
      <trkpt lat="42.55552" lon="1.97906">
        <ele>2154</ele>
        <time>2018-07-07T07:38:41.000Z</time>
      </trkpt>
      <trkpt lat="42.55554" lon="1.97905">
        <ele>2154</ele>
        <time>2018-07-07T07:38:42.000Z</time>
      </trkpt>
      <trkpt lat="42.55555" lon="1.97903">
        <ele>2154</ele>
        <time>2018-07-07T07:38:43.000Z</time>
      </trkpt>
      <trkpt lat="42.55558" lon="1.97901">
        <ele>2154</ele>
        <time>2018-07-07T07:38:44.000Z</time>
      </trkpt>
      <trkpt lat="42.5556" lon="1.97899">
        <ele>2154</ele>
        <time>2018-07-07T07:38:45.000Z</time>
      </trkpt>
      <trkpt lat="42.55562" lon="1.97898">
        <ele>2154</ele>
        <time>2018-07-07T07:38:46.000Z</time>
      </trkpt>
      <trkpt lat="42.55564" lon="1.97898">
        <ele>2154</ele>
        <time>2018-07-07T07:38:47.000Z</time>
      </trkpt>
      <trkpt lat="42.55567" lon="1.97897">
        <ele>2154</ele>
        <time>2018-07-07T07:38:48.000Z</time>
      </trkpt>
      <trkpt lat="42.55569" lon="1.97896">
        <ele>2154</ele>
        <time>2018-07-07T07:38:49.000Z</time>
      </trkpt>
      <trkpt lat="42.55571" lon="1.97895">
        <ele>2154</ele>
        <time>2018-07-07T07:38:50.000Z</time>
      </trkpt>
      <trkpt lat="42.55574" lon="1.97893">
        <ele>2154</ele>
        <time>2018-07-07T07:38:51.000Z</time>
      </trkpt>
      <trkpt lat="42.55576" lon="1.97891">
        <ele>2154</ele>
        <time>2018-07-07T07:38:52.000Z</time>
      </trkpt>
      <trkpt lat="42.55577" lon="1.97889">
        <ele>2154</ele>
        <time>2018-07-07T07:38:53.000Z</time>
      </trkpt>
      <trkpt lat="42.55579" lon="1.97887">
        <ele>2154</ele>
        <time>2018-07-07T07:38:54.000Z</time>
      </trkpt>
      <trkpt lat="42.55581" lon="1.97884">
        <ele>2154</ele>
        <time>2018-07-07T07:38:55.000Z</time>
      </trkpt>
      <trkpt lat="42.55583" lon="1.97882">
        <ele>2154</ele>
        <time>2018-07-07T07:38:56.000Z</time>
      </trkpt>
      <trkpt lat="42.55585" lon="1.9788">
        <ele>2153</ele>
        <time>2018-07-07T07:38:57.000Z</time>
      </trkpt>
      <trkpt lat="42.55586" lon="1.97878">
        <ele>2153</ele>
        <time>2018-07-07T07:38:58.000Z</time>
      </trkpt>
      <trkpt lat="42.55588" lon="1.97876">
        <ele>2153</ele>
        <time>2018-07-07T07:38:59.000Z</time>
      </trkpt>
      <trkpt lat="42.5559" lon="1.97875">
        <ele>2153</ele>
        <time>2018-07-07T07:39:00.000Z</time>
      </trkpt>
      <trkpt lat="42.55592" lon="1.97873">
        <ele>2153</ele>
        <time>2018-07-07T07:39:01.000Z</time>
      </trkpt>
      <trkpt lat="42.55594" lon="1.97871">
        <ele>2153</ele>
        <time>2018-07-07T07:39:02.000Z</time>
      </trkpt>
      <trkpt lat="42.55595" lon="1.97869">
        <ele>2153</ele>
        <time>2018-07-07T07:39:03.000Z</time>
      </trkpt>
      <trkpt lat="42.55597" lon="1.97867">
        <ele>2153</ele>
        <time>2018-07-07T07:39:04.000Z</time>
      </trkpt>
      <trkpt lat="42.55599" lon="1.97865">
        <ele>2153</ele>
        <time>2018-07-07T07:39:05.000Z</time>
      </trkpt>
      <trkpt lat="42.556" lon="1.97862">
        <ele>2153</ele>
        <time>2018-07-07T07:39:06.000Z</time>
      </trkpt>
      <trkpt lat="42.55602" lon="1.97861">
        <ele>2153</ele>
        <time>2018-07-07T07:39:07.000Z</time>
      </trkpt>
      <trkpt lat="42.55604" lon="1.9786">
        <ele>2153</ele>
        <time>2018-07-07T07:39:08.000Z</time>
      </trkpt>
      <trkpt lat="42.55607" lon="1.97859">
        <ele>2153</ele>
        <time>2018-07-07T07:39:09.000Z</time>
      </trkpt>
      <trkpt lat="42.55609" lon="1.97858">
        <ele>2153</ele>
        <time>2018-07-07T07:39:10.000Z</time>
      </trkpt>
      <trkpt lat="42.55611" lon="1.97857">
        <ele>2153</ele>
        <time>2018-07-07T07:39:11.000Z</time>
      </trkpt>
      <trkpt lat="42.55613" lon="1.97856">
        <ele>2153</ele>
        <time>2018-07-07T07:39:12.000Z</time>
      </trkpt>
      <trkpt lat="42.55615" lon="1.97854">
        <ele>2153</ele>
        <time>2018-07-07T07:39:13.000Z</time>
      </trkpt>
      <trkpt lat="42.55617" lon="1.97852">
        <ele>2153</ele>
        <time>2018-07-07T07:39:14.000Z</time>
      </trkpt>
      <trkpt lat="42.55619" lon="1.97851">
        <ele>2153</ele>
        <time>2018-07-07T07:39:15.000Z</time>
      </trkpt>
      <trkpt lat="42.55621" lon="1.97849">
        <ele>2153</ele>
        <time>2018-07-07T07:39:16.000Z</time>
      </trkpt>
      <trkpt lat="42.55622" lon="1.97848">
        <ele>2153</ele>
        <time>2018-07-07T07:39:17.000Z</time>
      </trkpt>
      <trkpt lat="42.55624" lon="1.97846">
        <ele>2153</ele>
        <time>2018-07-07T07:39:18.000Z</time>
      </trkpt>
      <trkpt lat="42.55626" lon="1.97844">
        <ele>2153</ele>
        <time>2018-07-07T07:39:19.000Z</time>
      </trkpt>
      <trkpt lat="42.55627" lon="1.97842">
        <ele>2153</ele>
        <time>2018-07-07T07:39:20.000Z</time>
      </trkpt>
      <trkpt lat="42.55629" lon="1.9784">
        <ele>2153</ele>
        <time>2018-07-07T07:39:21.000Z</time>
      </trkpt>
      <trkpt lat="42.55631" lon="1.97839">
        <ele>2153</ele>
        <time>2018-07-07T07:39:22.000Z</time>
      </trkpt>
      <trkpt lat="42.55633" lon="1.97837">
        <ele>2153</ele>
        <time>2018-07-07T07:39:23.000Z</time>
      </trkpt>
      <trkpt lat="42.55634" lon="1.97835">
        <ele>2153</ele>
        <time>2018-07-07T07:39:24.000Z</time>
      </trkpt>
      <trkpt lat="42.55636" lon="1.97833">
        <ele>2152</ele>
        <time>2018-07-07T07:39:25.000Z</time>
      </trkpt>
      <trkpt lat="42.55637" lon="1.97831">
        <ele>2152</ele>
        <time>2018-07-07T07:39:26.000Z</time>
      </trkpt>
      <trkpt lat="42.55639" lon="1.97829">
        <ele>2152</ele>
        <time>2018-07-07T07:39:27.000Z</time>
      </trkpt>
      <trkpt lat="42.55641" lon="1.97827">
        <ele>2152</ele>
        <time>2018-07-07T07:39:28.000Z</time>
      </trkpt>
      <trkpt lat="42.55642" lon="1.97825">
        <ele>2152</ele>
        <time>2018-07-07T07:39:29.000Z</time>
      </trkpt>
      <trkpt lat="42.55644" lon="1.97823">
        <ele>2152</ele>
        <time>2018-07-07T07:39:30.000Z</time>
      </trkpt>
      <trkpt lat="42.55645" lon="1.97821">
        <ele>2152</ele>
        <time>2018-07-07T07:39:31.000Z</time>
      </trkpt>
      <trkpt lat="42.55647" lon="1.97819">
        <ele>2152</ele>
        <time>2018-07-07T07:39:32.000Z</time>
      </trkpt>
      <trkpt lat="42.55649" lon="1.97817">
        <ele>2152</ele>
        <time>2018-07-07T07:39:33.000Z</time>
      </trkpt>
      <trkpt lat="42.55651" lon="1.97814">
        <ele>2152</ele>
        <time>2018-07-07T07:39:35.000Z</time>
      </trkpt>
      <trkpt lat="42.55652" lon="1.97811">
        <ele>2152</ele>
        <time>2018-07-07T07:39:36.000Z</time>
      </trkpt>
      <trkpt lat="42.55653" lon="1.97809">
        <ele>2152</ele>
        <time>2018-07-07T07:39:37.000Z</time>
      </trkpt>
      <trkpt lat="42.55655" lon="1.97807">
        <ele>2152</ele>
        <time>2018-07-07T07:39:38.000Z</time>
      </trkpt>
      <trkpt lat="42.55657" lon="1.97806">
        <ele>2152</ele>
        <time>2018-07-07T07:39:39.000Z</time>
      </trkpt>
      <trkpt lat="42.55659" lon="1.97805">
        <ele>2152</ele>
        <time>2018-07-07T07:39:40.000Z</time>
      </trkpt>
      <trkpt lat="42.55661" lon="1.97804">
        <ele>2152</ele>
        <time>2018-07-07T07:39:41.000Z</time>
      </trkpt>
      <trkpt lat="42.55663" lon="1.97803">
        <ele>2152</ele>
        <time>2018-07-07T07:39:42.000Z</time>
      </trkpt>
      <trkpt lat="42.55664" lon="1.97801">
        <ele>2152</ele>
        <time>2018-07-07T07:39:43.000Z</time>
      </trkpt>
      <trkpt lat="42.55666" lon="1.978">
        <ele>2152</ele>
        <time>2018-07-07T07:39:44.000Z</time>
      </trkpt>
      <trkpt lat="42.55668" lon="1.97799">
        <ele>2154</ele>
        <time>2018-07-07T07:39:45.000Z</time>
      </trkpt>
      <trkpt lat="42.55669" lon="1.97798">
        <ele>2154</ele>
        <time>2018-07-07T07:39:46.000Z</time>
      </trkpt>
      <trkpt lat="42.55671" lon="1.97796">
        <ele>2154</ele>
        <time>2018-07-07T07:39:47.000Z</time>
      </trkpt>
      <trkpt lat="42.55672" lon="1.97794">
        <ele>2154</ele>
        <time>2018-07-07T07:39:48.000Z</time>
      </trkpt>
      <trkpt lat="42.55673" lon="1.97792">
        <ele>2154</ele>
        <time>2018-07-07T07:39:49.000Z</time>
      </trkpt>
      <trkpt lat="42.55675" lon="1.9779">
        <ele>2154</ele>
        <time>2018-07-07T07:39:50.000Z</time>
      </trkpt>
      <trkpt lat="42.55676" lon="1.97787">
        <ele>2154</ele>
        <time>2018-07-07T07:39:51.000Z</time>
      </trkpt>
      <trkpt lat="42.55677" lon="1.97785">
        <ele>2154</ele>
        <time>2018-07-07T07:39:52.000Z</time>
      </trkpt>
      <trkpt lat="42.55679" lon="1.97784">
        <ele>2154</ele>
        <time>2018-07-07T07:39:53.000Z</time>
      </trkpt>
      <trkpt lat="42.5568" lon="1.97782">
        <ele>2154</ele>
        <time>2018-07-07T07:39:54.000Z</time>
      </trkpt>
      <trkpt lat="42.55682" lon="1.97781">
        <ele>2155</ele>
        <time>2018-07-07T07:39:55.000Z</time>
      </trkpt>
      <trkpt lat="42.55684" lon="1.9778">
        <ele>2155</ele>
        <time>2018-07-07T07:39:56.000Z</time>
      </trkpt>
      <trkpt lat="42.55685" lon="1.97778">
        <ele>2155</ele>
        <time>2018-07-07T07:39:57.000Z</time>
      </trkpt>
      <trkpt lat="42.55686" lon="1.97776">
        <ele>2155</ele>
        <time>2018-07-07T07:39:58.000Z</time>
      </trkpt>
      <trkpt lat="42.55688" lon="1.97773">
        <ele>2155</ele>
        <time>2018-07-07T07:39:59.000Z</time>
      </trkpt>
      <trkpt lat="42.55689" lon="1.97771">
        <ele>2155</ele>
        <time>2018-07-07T07:40:00.000Z</time>
      </trkpt>
      <trkpt lat="42.55691" lon="1.97769">
        <ele>2155</ele>
        <time>2018-07-07T07:40:01.000Z</time>
      </trkpt>
      <trkpt lat="42.55692" lon="1.97767">
        <ele>2155</ele>
        <time>2018-07-07T07:40:02.000Z</time>
      </trkpt>
      <trkpt lat="42.55693" lon="1.97764">
        <ele>2155</ele>
        <time>2018-07-07T07:40:03.000Z</time>
      </trkpt>
      <trkpt lat="42.55695" lon="1.97762">
        <ele>2155</ele>
        <time>2018-07-07T07:40:04.000Z</time>
      </trkpt>
      <trkpt lat="42.55697" lon="1.9776">
        <ele>2155</ele>
        <time>2018-07-07T07:40:05.000Z</time>
      </trkpt>
      <trkpt lat="42.55698" lon="1.97758">
        <ele>2155</ele>
        <time>2018-07-07T07:40:06.000Z</time>
      </trkpt>
      <trkpt lat="42.557" lon="1.97756">
        <ele>2155</ele>
        <time>2018-07-07T07:40:07.000Z</time>
      </trkpt>
      <trkpt lat="42.55701" lon="1.97754">
        <ele>2155</ele>
        <time>2018-07-07T07:40:08.000Z</time>
      </trkpt>
      <trkpt lat="42.55703" lon="1.97752">
        <ele>2155</ele>
        <time>2018-07-07T07:40:09.000Z</time>
      </trkpt>
      <trkpt lat="42.55704" lon="1.9775">
        <ele>2155</ele>
        <time>2018-07-07T07:40:10.000Z</time>
      </trkpt>
      <trkpt lat="42.55706" lon="1.97748">
        <ele>2155</ele>
        <time>2018-07-07T07:40:11.000Z</time>
      </trkpt>
      <trkpt lat="42.55708" lon="1.97748">
        <ele>2155</ele>
        <time>2018-07-07T07:40:12.000Z</time>
      </trkpt>
      <trkpt lat="42.55711" lon="1.97744">
        <ele>2156</ele>
        <time>2018-07-07T07:40:14.000Z</time>
      </trkpt>
      <trkpt lat="42.55712" lon="1.97742">
        <ele>2156</ele>
        <time>2018-07-07T07:40:15.000Z</time>
      </trkpt>
      <trkpt lat="42.55713" lon="1.97741">
        <ele>2156</ele>
        <time>2018-07-07T07:40:16.000Z</time>
      </trkpt>
      <trkpt lat="42.55716" lon="1.97738">
        <ele>2156</ele>
        <time>2018-07-07T07:40:18.000Z</time>
      </trkpt>
      <trkpt lat="42.55718" lon="1.97734">
        <ele>2156</ele>
        <time>2018-07-07T07:40:20.000Z</time>
      </trkpt>
      <trkpt lat="42.55718" lon="1.97731">
        <ele>2156</ele>
        <time>2018-07-07T07:40:21.000Z</time>
      </trkpt>
      <trkpt lat="42.55719" lon="1.97728">
        <ele>2156</ele>
        <time>2018-07-07T07:40:22.000Z</time>
      </trkpt>
      <trkpt lat="42.5572" lon="1.97725">
        <ele>2156</ele>
        <time>2018-07-07T07:40:23.000Z</time>
      </trkpt>
      <trkpt lat="42.55721" lon="1.97723">
        <ele>2156</ele>
        <time>2018-07-07T07:40:24.000Z</time>
      </trkpt>
      <trkpt lat="42.55722" lon="1.9772">
        <ele>2156</ele>
        <time>2018-07-07T07:40:25.000Z</time>
      </trkpt>
      <trkpt lat="42.55724" lon="1.97717">
        <ele>2156</ele>
        <time>2018-07-07T07:40:27.000Z</time>
      </trkpt>
      <trkpt lat="42.55726" lon="1.97714">
        <ele>2156</ele>
        <time>2018-07-07T07:40:29.000Z</time>
      </trkpt>
      <trkpt lat="42.55727" lon="1.97711">
        <ele>2157</ele>
        <time>2018-07-07T07:40:31.000Z</time>
      </trkpt>
      <trkpt lat="42.55728" lon="1.97707">
        <ele>2157</ele>
        <time>2018-07-07T07:40:33.000Z</time>
      </trkpt>
      <trkpt lat="42.55728" lon="1.97703">
        <ele>2157</ele>
        <time>2018-07-07T07:40:35.000Z</time>
      </trkpt>
      <trkpt lat="42.55729" lon="1.97699">
        <ele>2157</ele>
        <time>2018-07-07T07:40:37.000Z</time>
      </trkpt>
      <trkpt lat="42.5573" lon="1.97696">
        <ele>2157</ele>
        <time>2018-07-07T07:40:39.000Z</time>
      </trkpt>
      <trkpt lat="42.55731" lon="1.97692">
        <ele>2157</ele>
        <time>2018-07-07T07:40:41.000Z</time>
      </trkpt>
      <trkpt lat="42.55731" lon="1.97688">
        <ele>2157</ele>
        <time>2018-07-07T07:40:43.000Z</time>
      </trkpt>
      <trkpt lat="42.55732" lon="1.97685">
        <ele>2157</ele>
        <time>2018-07-07T07:40:45.000Z</time>
      </trkpt>
      <trkpt lat="42.55734" lon="1.97683">
        <ele>2157</ele>
        <time>2018-07-07T07:40:47.000Z</time>
      </trkpt>
      <trkpt lat="42.55735" lon="1.97681">
        <ele>2158</ele>
        <time>2018-07-07T07:40:49.000Z</time>
      </trkpt>
      <trkpt lat="42.55737" lon="1.97679">
        <ele>2158</ele>
        <time>2018-07-07T07:40:51.000Z</time>
      </trkpt>
      <trkpt lat="42.55739" lon="1.97678">
        <ele>2158</ele>
        <time>2018-07-07T07:40:53.000Z</time>
      </trkpt>
      <trkpt lat="42.55741" lon="1.97675">
        <ele>2158</ele>
        <time>2018-07-07T07:40:55.000Z</time>
      </trkpt>
      <trkpt lat="42.55742" lon="1.97673">
        <ele>2159</ele>
        <time>2018-07-07T07:40:57.000Z</time>
      </trkpt>
      <trkpt lat="42.55743" lon="1.97671">
        <ele>2159</ele>
        <time>2018-07-07T07:40:59.000Z</time>
      </trkpt>
      <trkpt lat="42.55744" lon="1.97669">
        <ele>2159</ele>
        <time>2018-07-07T07:41:01.000Z</time>
      </trkpt>
      <trkpt lat="42.55746" lon="1.97666">
        <ele>2160</ele>
        <time>2018-07-07T07:41:03.000Z</time>
      </trkpt>
      <trkpt lat="42.55747" lon="1.97664">
        <ele>2160</ele>
        <time>2018-07-07T07:41:05.000Z</time>
      </trkpt>
      <trkpt lat="42.55748" lon="1.97661">
        <ele>2159</ele>
        <time>2018-07-07T07:41:07.000Z</time>
      </trkpt>
      <trkpt lat="42.5575" lon="1.97658">
        <ele>2159</ele>
        <time>2018-07-07T07:41:09.000Z</time>
      </trkpt>
      <trkpt lat="42.55751" lon="1.97656">
        <ele>2162</ele>
        <time>2018-07-07T07:41:11.000Z</time>
      </trkpt>
      <trkpt lat="42.55752" lon="1.97653">
        <ele>2162</ele>
        <time>2018-07-07T07:41:13.000Z</time>
      </trkpt>
      <trkpt lat="42.55753" lon="1.9765">
        <ele>2162</ele>
        <time>2018-07-07T07:41:15.000Z</time>
      </trkpt>
      <trkpt lat="42.55755" lon="1.97648">
        <ele>2162</ele>
        <time>2018-07-07T07:41:17.000Z</time>
      </trkpt>
      <trkpt lat="42.55757" lon="1.97645">
        <ele>2163</ele>
        <time>2018-07-07T07:41:19.000Z</time>
      </trkpt>
      <trkpt lat="42.55758" lon="1.97642">
        <ele>2163</ele>
        <time>2018-07-07T07:41:21.000Z</time>
      </trkpt>
      <trkpt lat="42.5576" lon="1.97639">
        <ele>2163</ele>
        <time>2018-07-07T07:41:23.000Z</time>
      </trkpt>
      <trkpt lat="42.55762" lon="1.97638">
        <ele>2163</ele>
        <time>2018-07-07T07:41:25.000Z</time>
      </trkpt>
      <trkpt lat="42.55764" lon="1.97636">
        <ele>2163</ele>
        <time>2018-07-07T07:41:27.000Z</time>
      </trkpt>
      <trkpt lat="42.55766" lon="1.97633">
        <ele>2163</ele>
        <time>2018-07-07T07:41:29.000Z</time>
      </trkpt>
      <trkpt lat="42.55766" lon="1.9763">
        <ele>2164</ele>
        <time>2018-07-07T07:41:31.000Z</time>
      </trkpt>
      <trkpt lat="42.55767" lon="1.97627">
        <ele>2164</ele>
        <time>2018-07-07T07:41:33.000Z</time>
      </trkpt>
      <trkpt lat="42.55768" lon="1.97625">
        <ele>2164</ele>
        <time>2018-07-07T07:41:35.000Z</time>
      </trkpt>
      <trkpt lat="42.5577" lon="1.97621">
        <ele>2164</ele>
        <time>2018-07-07T07:41:37.000Z</time>
      </trkpt>
      <trkpt lat="42.55771" lon="1.97618">
        <ele>2164</ele>
        <time>2018-07-07T07:41:39.000Z</time>
      </trkpt>
      <trkpt lat="42.55772" lon="1.97615">
        <ele>2164</ele>
        <time>2018-07-07T07:41:41.000Z</time>
      </trkpt>
      <trkpt lat="42.55773" lon="1.97612">
        <ele>2164</ele>
        <time>2018-07-07T07:41:43.000Z</time>
      </trkpt>
      <trkpt lat="42.55774" lon="1.97609">
        <ele>2164</ele>
        <time>2018-07-07T07:41:45.000Z</time>
      </trkpt>
      <trkpt lat="42.55775" lon="1.97605">
        <ele>2164</ele>
        <time>2018-07-07T07:41:47.000Z</time>
      </trkpt>
      <trkpt lat="42.55776" lon="1.97602">
        <ele>2164</ele>
        <time>2018-07-07T07:41:49.000Z</time>
      </trkpt>
      <trkpt lat="42.55778" lon="1.97599">
        <ele>2164</ele>
        <time>2018-07-07T07:41:51.000Z</time>
      </trkpt>
      <trkpt lat="42.5578" lon="1.97596">
        <ele>2164</ele>
        <time>2018-07-07T07:41:53.000Z</time>
      </trkpt>
      <trkpt lat="42.55783" lon="1.97593">
        <ele>2164</ele>
        <time>2018-07-07T07:41:55.000Z</time>
      </trkpt>
      <trkpt lat="42.55784" lon="1.97591">
        <ele>2164</ele>
        <time>2018-07-07T07:41:56.000Z</time>
      </trkpt>
      <trkpt lat="42.55786" lon="1.97589">
        <ele>2164</ele>
        <time>2018-07-07T07:41:57.000Z</time>
      </trkpt>
      <trkpt lat="42.55787" lon="1.97588">
        <ele>2164</ele>
        <time>2018-07-07T07:41:58.000Z</time>
      </trkpt>
      <trkpt lat="42.55789" lon="1.97586">
        <ele>2164</ele>
        <time>2018-07-07T07:41:59.000Z</time>
      </trkpt>
      <trkpt lat="42.55791" lon="1.97585">
        <ele>2164</ele>
        <time>2018-07-07T07:42:00.000Z</time>
      </trkpt>
      <trkpt lat="42.55793" lon="1.97583">
        <ele>2163</ele>
        <time>2018-07-07T07:42:01.000Z</time>
      </trkpt>
      <trkpt lat="42.55794" lon="1.97581">
        <ele>2163</ele>
        <time>2018-07-07T07:42:02.000Z</time>
      </trkpt>
      <trkpt lat="42.55796" lon="1.9758">
        <ele>2163</ele>
        <time>2018-07-07T07:42:03.000Z</time>
      </trkpt>
      <trkpt lat="42.55797" lon="1.97578">
        <ele>2163</ele>
        <time>2018-07-07T07:42:04.000Z</time>
      </trkpt>
      <trkpt lat="42.55799" lon="1.97576">
        <ele>2163</ele>
        <time>2018-07-07T07:42:05.000Z</time>
      </trkpt>
      <trkpt lat="42.558" lon="1.97574">
        <ele>2163</ele>
        <time>2018-07-07T07:42:06.000Z</time>
      </trkpt>
      <trkpt lat="42.55802" lon="1.97572">
        <ele>2162</ele>
        <time>2018-07-07T07:42:07.000Z</time>
      </trkpt>
      <trkpt lat="42.55803" lon="1.9757">
        <ele>2162</ele>
        <time>2018-07-07T07:42:08.000Z</time>
      </trkpt>
      <trkpt lat="42.55805" lon="1.97568">
        <ele>2162</ele>
        <time>2018-07-07T07:42:09.000Z</time>
      </trkpt>
      <trkpt lat="42.55806" lon="1.97566">
        <ele>2162</ele>
        <time>2018-07-07T07:42:10.000Z</time>
      </trkpt>
      <trkpt lat="42.55808" lon="1.97564">
        <ele>2162</ele>
        <time>2018-07-07T07:42:11.000Z</time>
      </trkpt>
      <trkpt lat="42.55809" lon="1.97562">
        <ele>2162</ele>
        <time>2018-07-07T07:42:12.000Z</time>
      </trkpt>
      <trkpt lat="42.55811" lon="1.97561">
        <ele>2162</ele>
        <time>2018-07-07T07:42:13.000Z</time>
      </trkpt>
      <trkpt lat="42.55813" lon="1.97559">
        <ele>2162</ele>
        <time>2018-07-07T07:42:14.000Z</time>
      </trkpt>
      <trkpt lat="42.55815" lon="1.97557">
        <ele>2162</ele>
        <time>2018-07-07T07:42:15.000Z</time>
      </trkpt>
      <trkpt lat="42.55816" lon="1.97555">
        <ele>2162</ele>
        <time>2018-07-07T07:42:16.000Z</time>
      </trkpt>
      <trkpt lat="42.55818" lon="1.97554">
        <ele>2162</ele>
        <time>2018-07-07T07:42:17.000Z</time>
      </trkpt>
      <trkpt lat="42.5582" lon="1.9755">
        <ele>2162</ele>
        <time>2018-07-07T07:42:19.000Z</time>
      </trkpt>
      <trkpt lat="42.55822" lon="1.97548">
        <ele>2162</ele>
        <time>2018-07-07T07:42:20.000Z</time>
      </trkpt>
      <trkpt lat="42.55823" lon="1.97547">
        <ele>2162</ele>
        <time>2018-07-07T07:42:21.000Z</time>
      </trkpt>
      <trkpt lat="42.55825" lon="1.97544">
        <ele>2162</ele>
        <time>2018-07-07T07:42:22.000Z</time>
      </trkpt>
      <trkpt lat="42.55826" lon="1.97542">
        <ele>2161</ele>
        <time>2018-07-07T07:42:23.000Z</time>
      </trkpt>
      <trkpt lat="42.55827" lon="1.97539">
        <ele>2161</ele>
        <time>2018-07-07T07:42:24.000Z</time>
      </trkpt>
      <trkpt lat="42.55828" lon="1.97535">
        <ele>2161</ele>
        <time>2018-07-07T07:42:26.000Z</time>
      </trkpt>
      <trkpt lat="42.55827" lon="1.97532">
        <ele>2161</ele>
        <time>2018-07-07T07:42:27.000Z</time>
      </trkpt>
      <trkpt lat="42.55828" lon="1.97529">
        <ele>2161</ele>
        <time>2018-07-07T07:42:28.000Z</time>
      </trkpt>
      <trkpt lat="42.55828" lon="1.97527">
        <ele>2161</ele>
        <time>2018-07-07T07:42:29.000Z</time>
      </trkpt>
      <trkpt lat="42.5583" lon="1.97525">
        <ele>2161</ele>
        <time>2018-07-07T07:42:30.000Z</time>
      </trkpt>
      <trkpt lat="42.55831" lon="1.97522">
        <ele>2160</ele>
        <time>2018-07-07T07:42:31.000Z</time>
      </trkpt>
      <trkpt lat="42.55832" lon="1.9752">
        <ele>2160</ele>
        <time>2018-07-07T07:42:32.000Z</time>
      </trkpt>
      <trkpt lat="42.55833" lon="1.97518">
        <ele>2160</ele>
        <time>2018-07-07T07:42:33.000Z</time>
      </trkpt>
      <trkpt lat="42.55835" lon="1.97516">
        <ele>2158</ele>
        <time>2018-07-07T07:42:34.000Z</time>
      </trkpt>
      <trkpt lat="42.55836" lon="1.97514">
        <ele>2158</ele>
        <time>2018-07-07T07:42:35.000Z</time>
      </trkpt>
      <trkpt lat="42.55838" lon="1.97512">
        <ele>2158</ele>
        <time>2018-07-07T07:42:36.000Z</time>
      </trkpt>
      <trkpt lat="42.55839" lon="1.97509">
        <ele>2158</ele>
        <time>2018-07-07T07:42:37.000Z</time>
      </trkpt>
      <trkpt lat="42.5584" lon="1.97507">
        <ele>2158</ele>
        <time>2018-07-07T07:42:38.000Z</time>
      </trkpt>
      <trkpt lat="42.55841" lon="1.97504">
        <ele>2158</ele>
        <time>2018-07-07T07:42:39.000Z</time>
      </trkpt>
      <trkpt lat="42.55842" lon="1.97501">
        <ele>2158</ele>
        <time>2018-07-07T07:42:40.000Z</time>
      </trkpt>
      <trkpt lat="42.55843" lon="1.97499">
        <ele>2156</ele>
        <time>2018-07-07T07:42:41.000Z</time>
      </trkpt>
      <trkpt lat="42.55843" lon="1.97496">
        <ele>2156</ele>
        <time>2018-07-07T07:42:42.000Z</time>
      </trkpt>
      <trkpt lat="42.55845" lon="1.97494">
        <ele>2155</ele>
        <time>2018-07-07T07:42:43.000Z</time>
      </trkpt>
      <trkpt lat="42.55846" lon="1.97491">
        <ele>2155</ele>
        <time>2018-07-07T07:42:44.000Z</time>
      </trkpt>
      <trkpt lat="42.55847" lon="1.97488">
        <ele>2154</ele>
        <time>2018-07-07T07:42:45.000Z</time>
      </trkpt>
      <trkpt lat="42.55848" lon="1.97486">
        <ele>2154</ele>
        <time>2018-07-07T07:42:46.000Z</time>
      </trkpt>
      <trkpt lat="42.5585" lon="1.97483">
        <ele>2154</ele>
        <time>2018-07-07T07:42:47.000Z</time>
      </trkpt>
      <trkpt lat="42.55852" lon="1.97481">
        <ele>2153</ele>
        <time>2018-07-07T07:42:48.000Z</time>
      </trkpt>
      <trkpt lat="42.55854" lon="1.9748">
        <ele>2153</ele>
        <time>2018-07-07T07:42:49.000Z</time>
      </trkpt>
      <trkpt lat="42.55856" lon="1.97478">
        <ele>2153</ele>
        <time>2018-07-07T07:42:50.000Z</time>
      </trkpt>
      <trkpt lat="42.55858" lon="1.97476">
        <ele>2153</ele>
        <time>2018-07-07T07:42:51.000Z</time>
      </trkpt>
      <trkpt lat="42.5586" lon="1.97474">
        <ele>2152</ele>
        <time>2018-07-07T07:42:52.000Z</time>
      </trkpt>
      <trkpt lat="42.55862" lon="1.97473">
        <ele>2152</ele>
        <time>2018-07-07T07:42:53.000Z</time>
      </trkpt>
      <trkpt lat="42.55864" lon="1.97472">
        <ele>2152</ele>
        <time>2018-07-07T07:42:54.000Z</time>
      </trkpt>
      <trkpt lat="42.55866" lon="1.97472">
        <ele>2152</ele>
        <time>2018-07-07T07:42:55.000Z</time>
      </trkpt>
      <trkpt lat="42.55868" lon="1.97471">
        <ele>2152</ele>
        <time>2018-07-07T07:42:56.000Z</time>
      </trkpt>
      <trkpt lat="42.5587" lon="1.97471">
        <ele>2152</ele>
        <time>2018-07-07T07:42:57.000Z</time>
      </trkpt>
      <trkpt lat="42.55871" lon="1.97469">
        <ele>2152</ele>
        <time>2018-07-07T07:42:58.000Z</time>
      </trkpt>
      <trkpt lat="42.55873" lon="1.97468">
        <ele>2151</ele>
        <time>2018-07-07T07:42:59.000Z</time>
      </trkpt>
      <trkpt lat="42.55874" lon="1.97466">
        <ele>2151</ele>
        <time>2018-07-07T07:43:00.000Z</time>
      </trkpt>
      <trkpt lat="42.55876" lon="1.97465">
        <ele>2151</ele>
        <time>2018-07-07T07:43:01.000Z</time>
      </trkpt>
      <trkpt lat="42.55878" lon="1.97463">
        <ele>2151</ele>
        <time>2018-07-07T07:43:02.000Z</time>
      </trkpt>
      <trkpt lat="42.5588" lon="1.97461">
        <ele>2151</ele>
        <time>2018-07-07T07:43:03.000Z</time>
      </trkpt>
      <trkpt lat="42.55882" lon="1.9746">
        <ele>2151</ele>
        <time>2018-07-07T07:43:04.000Z</time>
      </trkpt>
      <trkpt lat="42.55884" lon="1.97459">
        <ele>2151</ele>
        <time>2018-07-07T07:43:05.000Z</time>
      </trkpt>
      <trkpt lat="42.55886" lon="1.97457">
        <ele>2151</ele>
        <time>2018-07-07T07:43:06.000Z</time>
      </trkpt>
      <trkpt lat="42.55888" lon="1.97455">
        <ele>2150</ele>
        <time>2018-07-07T07:43:07.000Z</time>
      </trkpt>
      <trkpt lat="42.5589" lon="1.97453">
        <ele>2150</ele>
        <time>2018-07-07T07:43:08.000Z</time>
      </trkpt>
      <trkpt lat="42.55892" lon="1.97452">
        <ele>2150</ele>
        <time>2018-07-07T07:43:09.000Z</time>
      </trkpt>
      <trkpt lat="42.55894" lon="1.97451">
        <ele>2150</ele>
        <time>2018-07-07T07:43:10.000Z</time>
      </trkpt>
      <trkpt lat="42.55896" lon="1.9745">
        <ele>2150</ele>
        <time>2018-07-07T07:43:11.000Z</time>
      </trkpt>
      <trkpt lat="42.55898" lon="1.97449">
        <ele>2150</ele>
        <time>2018-07-07T07:43:12.000Z</time>
      </trkpt>
      <trkpt lat="42.55901" lon="1.97447">
        <ele>2150</ele>
        <time>2018-07-07T07:43:14.000Z</time>
      </trkpt>
      <trkpt lat="42.55902" lon="1.97445">
        <ele>2149</ele>
        <time>2018-07-07T07:43:15.000Z</time>
      </trkpt>
      <trkpt lat="42.55904" lon="1.97444">
        <ele>2149</ele>
        <time>2018-07-07T07:43:16.000Z</time>
      </trkpt>
      <trkpt lat="42.55906" lon="1.97445">
        <ele>2149</ele>
        <time>2018-07-07T07:43:17.000Z</time>
      </trkpt>
      <trkpt lat="42.55909" lon="1.97446">
        <ele>2149</ele>
        <time>2018-07-07T07:43:18.000Z</time>
      </trkpt>
      <trkpt lat="42.55911" lon="1.97446">
        <ele>2149</ele>
        <time>2018-07-07T07:43:19.000Z</time>
      </trkpt>
      <trkpt lat="42.55914" lon="1.97446">
        <ele>2149</ele>
        <time>2018-07-07T07:43:20.000Z</time>
      </trkpt>
      <trkpt lat="42.55916" lon="1.97445">
        <ele>2149</ele>
        <time>2018-07-07T07:43:21.000Z</time>
      </trkpt>
      <trkpt lat="42.55917" lon="1.97443">
        <ele>2147</ele>
        <time>2018-07-07T07:43:22.000Z</time>
      </trkpt>
      <trkpt lat="42.55919" lon="1.97441">
        <ele>2147</ele>
        <time>2018-07-07T07:43:23.000Z</time>
      </trkpt>
      <trkpt lat="42.55922" lon="1.9744">
        <ele>2147</ele>
        <time>2018-07-07T07:43:24.000Z</time>
      </trkpt>
      <trkpt lat="42.55924" lon="1.9744">
        <ele>2147</ele>
        <time>2018-07-07T07:43:25.000Z</time>
      </trkpt>
      <trkpt lat="42.55927" lon="1.9744">
        <ele>2147</ele>
        <time>2018-07-07T07:43:26.000Z</time>
      </trkpt>
      <trkpt lat="42.55929" lon="1.9744">
        <ele>2147</ele>
        <time>2018-07-07T07:43:27.000Z</time>
      </trkpt>
      <trkpt lat="42.55931" lon="1.9744">
        <ele>2147</ele>
        <time>2018-07-07T07:43:28.000Z</time>
      </trkpt>
      <trkpt lat="42.55933" lon="1.97441">
        <ele>2147</ele>
        <time>2018-07-07T07:43:29.000Z</time>
      </trkpt>
      <trkpt lat="42.55936" lon="1.97441">
        <ele>2147</ele>
        <time>2018-07-07T07:43:31.000Z</time>
      </trkpt>
      <trkpt lat="42.55938" lon="1.97441">
        <ele>2147</ele>
        <time>2018-07-07T07:43:32.000Z</time>
      </trkpt>
      <trkpt lat="42.5594" lon="1.9744">
        <ele>2147</ele>
        <time>2018-07-07T07:43:33.000Z</time>
      </trkpt>
      <trkpt lat="42.55943" lon="1.97441">
        <ele>2147</ele>
        <time>2018-07-07T07:43:35.000Z</time>
      </trkpt>
      <trkpt lat="42.55946" lon="1.97442">
        <ele>2147</ele>
        <time>2018-07-07T07:43:37.000Z</time>
      </trkpt>
      <trkpt lat="42.55948" lon="1.97442">
        <ele>2147</ele>
        <time>2018-07-07T07:43:38.000Z</time>
      </trkpt>
      <trkpt lat="42.55951" lon="1.97441">
        <ele>2147</ele>
        <time>2018-07-07T07:43:40.000Z</time>
      </trkpt>
      <trkpt lat="42.55953" lon="1.9744">
        <ele>2147</ele>
        <time>2018-07-07T07:43:42.000Z</time>
      </trkpt>
      <trkpt lat="42.55956" lon="1.97439">
        <ele>2147</ele>
        <time>2018-07-07T07:43:44.000Z</time>
      </trkpt>
      <trkpt lat="42.55958" lon="1.97436">
        <ele>2147</ele>
        <time>2018-07-07T07:43:46.000Z</time>
      </trkpt>
      <trkpt lat="42.5596" lon="1.97434">
        <ele>2147</ele>
        <time>2018-07-07T07:43:48.000Z</time>
      </trkpt>
      <trkpt lat="42.55963" lon="1.97432">
        <ele>2147</ele>
        <time>2018-07-07T07:43:50.000Z</time>
      </trkpt>
      <trkpt lat="42.55965" lon="1.9743">
        <ele>2147</ele>
        <time>2018-07-07T07:43:52.000Z</time>
      </trkpt>
      <trkpt lat="42.55967" lon="1.97426">
        <ele>2147</ele>
        <time>2018-07-07T07:43:54.000Z</time>
      </trkpt>
      <trkpt lat="42.55967" lon="1.97424">
        <ele>2147</ele>
        <time>2018-07-07T07:43:55.000Z</time>
      </trkpt>
      <trkpt lat="42.55967" lon="1.97421">
        <ele>2147</ele>
        <time>2018-07-07T07:43:56.000Z</time>
      </trkpt>
      <trkpt lat="42.55968" lon="1.97418">
        <ele>2147</ele>
        <time>2018-07-07T07:43:57.000Z</time>
      </trkpt>
      <trkpt lat="42.55968" lon="1.97415">
        <ele>2145</ele>
        <time>2018-07-07T07:43:58.000Z</time>
      </trkpt>
      <trkpt lat="42.55969" lon="1.97412">
        <ele>2145</ele>
        <time>2018-07-07T07:43:59.000Z</time>
      </trkpt>
      <trkpt lat="42.5597" lon="1.9741">
        <ele>2145</ele>
        <time>2018-07-07T07:44:00.000Z</time>
      </trkpt>
      <trkpt lat="42.55971" lon="1.97407">
        <ele>2145</ele>
        <time>2018-07-07T07:44:01.000Z</time>
      </trkpt>
      <trkpt lat="42.55972" lon="1.97404">
        <ele>2145</ele>
        <time>2018-07-07T07:44:02.000Z</time>
      </trkpt>
      <trkpt lat="42.55974" lon="1.97402">
        <ele>2145</ele>
        <time>2018-07-07T07:44:03.000Z</time>
      </trkpt>
      <trkpt lat="42.55975" lon="1.974">
        <ele>2145</ele>
        <time>2018-07-07T07:44:04.000Z</time>
      </trkpt>
      <trkpt lat="42.55976" lon="1.97398">
        <ele>2145</ele>
        <time>2018-07-07T07:44:05.000Z</time>
      </trkpt>
      <trkpt lat="42.55978" lon="1.97396">
        <ele>2145</ele>
        <time>2018-07-07T07:44:06.000Z</time>
      </trkpt>
      <trkpt lat="42.55979" lon="1.97394">
        <ele>2145</ele>
        <time>2018-07-07T07:44:07.000Z</time>
      </trkpt>
      <trkpt lat="42.55981" lon="1.97392">
        <ele>2145</ele>
        <time>2018-07-07T07:44:08.000Z</time>
      </trkpt>
      <trkpt lat="42.55982" lon="1.9739">
        <ele>2145</ele>
        <time>2018-07-07T07:44:09.000Z</time>
      </trkpt>
      <trkpt lat="42.55984" lon="1.97387">
        <ele>2145</ele>
        <time>2018-07-07T07:44:10.000Z</time>
      </trkpt>
      <trkpt lat="42.55985" lon="1.97386">
        <ele>2145</ele>
        <time>2018-07-07T07:44:11.000Z</time>
      </trkpt>
      <trkpt lat="42.55987" lon="1.97384">
        <ele>2145</ele>
        <time>2018-07-07T07:44:12.000Z</time>
      </trkpt>
      <trkpt lat="42.55988" lon="1.97382">
        <ele>2145</ele>
        <time>2018-07-07T07:44:13.000Z</time>
      </trkpt>
      <trkpt lat="42.5599" lon="1.9738">
        <ele>2145</ele>
        <time>2018-07-07T07:44:14.000Z</time>
      </trkpt>
      <trkpt lat="42.55992" lon="1.97379">
        <ele>2145</ele>
        <time>2018-07-07T07:44:15.000Z</time>
      </trkpt>
      <trkpt lat="42.55993" lon="1.97377">
        <ele>2146</ele>
        <time>2018-07-07T07:44:16.000Z</time>
      </trkpt>
      <trkpt lat="42.55995" lon="1.97375">
        <ele>2146</ele>
        <time>2018-07-07T07:44:17.000Z</time>
      </trkpt>
      <trkpt lat="42.55997" lon="1.97374">
        <ele>2146</ele>
        <time>2018-07-07T07:44:18.000Z</time>
      </trkpt>
      <trkpt lat="42.55999" lon="1.97372">
        <ele>2146</ele>
        <time>2018-07-07T07:44:19.000Z</time>
      </trkpt>
      <trkpt lat="42.56" lon="1.97371">
        <ele>2151</ele>
        <time>2018-07-07T07:44:20.000Z</time>
      </trkpt>
      <trkpt lat="42.56002" lon="1.97369">
        <ele>2151</ele>
        <time>2018-07-07T07:44:21.000Z</time>
      </trkpt>
      <trkpt lat="42.56004" lon="1.97368">
        <ele>2151</ele>
        <time>2018-07-07T07:44:22.000Z</time>
      </trkpt>
      <trkpt lat="42.56005" lon="1.97366">
        <ele>2151</ele>
        <time>2018-07-07T07:44:23.000Z</time>
      </trkpt>
      <trkpt lat="42.56007" lon="1.97365">
        <ele>2151</ele>
        <time>2018-07-07T07:44:24.000Z</time>
      </trkpt>
      <trkpt lat="42.56008" lon="1.97363">
        <ele>2151</ele>
        <time>2018-07-07T07:44:25.000Z</time>
      </trkpt>
      <trkpt lat="42.5601" lon="1.97362">
        <ele>2151</ele>
        <time>2018-07-07T07:44:26.000Z</time>
      </trkpt>
      <trkpt lat="42.56011" lon="1.9736">
        <ele>2151</ele>
        <time>2018-07-07T07:44:27.000Z</time>
      </trkpt>
      <trkpt lat="42.56012" lon="1.97358">
        <ele>2151</ele>
        <time>2018-07-07T07:44:28.000Z</time>
      </trkpt>
      <trkpt lat="42.56014" lon="1.97356">
        <ele>2151</ele>
        <time>2018-07-07T07:44:29.000Z</time>
      </trkpt>
      <trkpt lat="42.56015" lon="1.97354">
        <ele>2151</ele>
        <time>2018-07-07T07:44:30.000Z</time>
      </trkpt>
      <trkpt lat="42.56016" lon="1.97352">
        <ele>2151</ele>
        <time>2018-07-07T07:44:31.000Z</time>
      </trkpt>
      <trkpt lat="42.56018" lon="1.97351">
        <ele>2151</ele>
        <time>2018-07-07T07:44:32.000Z</time>
      </trkpt>
      <trkpt lat="42.56021" lon="1.97347">
        <ele>2151</ele>
        <time>2018-07-07T07:44:34.000Z</time>
      </trkpt>
      <trkpt lat="42.56022" lon="1.97346">
        <ele>2151</ele>
        <time>2018-07-07T07:44:35.000Z</time>
      </trkpt>
      <trkpt lat="42.56023" lon="1.97344">
        <ele>2151</ele>
        <time>2018-07-07T07:44:36.000Z</time>
      </trkpt>
      <trkpt lat="42.56025" lon="1.9734">
        <ele>2151</ele>
        <time>2018-07-07T07:44:38.000Z</time>
      </trkpt>
      <trkpt lat="42.56027" lon="1.97337">
        <ele>2152</ele>
        <time>2018-07-07T07:44:40.000Z</time>
      </trkpt>
      <trkpt lat="42.5603" lon="1.97334">
        <ele>2152</ele>
        <time>2018-07-07T07:44:42.000Z</time>
      </trkpt>
      <trkpt lat="42.56032" lon="1.97332">
        <ele>2153</ele>
        <time>2018-07-07T07:44:44.000Z</time>
      </trkpt>
      <trkpt lat="42.56033" lon="1.9733">
        <ele>2153</ele>
        <time>2018-07-07T07:44:46.000Z</time>
      </trkpt>
      <trkpt lat="42.56035" lon="1.97329">
        <ele>2154</ele>
        <time>2018-07-07T07:44:48.000Z</time>
      </trkpt>
      <trkpt lat="42.56037" lon="1.97327">
        <ele>2154</ele>
        <time>2018-07-07T07:44:50.000Z</time>
      </trkpt>
      <trkpt lat="42.56039" lon="1.97326">
        <ele>2154</ele>
        <time>2018-07-07T07:44:52.000Z</time>
      </trkpt>
      <trkpt lat="42.56041" lon="1.97325">
        <ele>2154</ele>
        <time>2018-07-07T07:44:54.000Z</time>
      </trkpt>
      <trkpt lat="42.56042" lon="1.97323">
        <ele>2154</ele>
        <time>2018-07-07T07:44:56.000Z</time>
      </trkpt>
      <trkpt lat="42.56044" lon="1.97321">
        <ele>2155</ele>
        <time>2018-07-07T07:44:58.000Z</time>
      </trkpt>
      <trkpt lat="42.56046" lon="1.97319">
        <ele>2155</ele>
        <time>2018-07-07T07:45:00.000Z</time>
      </trkpt>
      <trkpt lat="42.56048" lon="1.97317">
        <ele>2155</ele>
        <time>2018-07-07T07:45:02.000Z</time>
      </trkpt>
      <trkpt lat="42.5605" lon="1.97316">
        <ele>2155</ele>
        <time>2018-07-07T07:45:04.000Z</time>
      </trkpt>
      <trkpt lat="42.56052" lon="1.97315">
        <ele>2155</ele>
        <time>2018-07-07T07:45:06.000Z</time>
      </trkpt>
      <trkpt lat="42.56054" lon="1.97314">
        <ele>2156</ele>
        <time>2018-07-07T07:45:08.000Z</time>
      </trkpt>
      <trkpt lat="42.56056" lon="1.97313">
        <ele>2156</ele>
        <time>2018-07-07T07:45:10.000Z</time>
      </trkpt>
      <trkpt lat="42.56058" lon="1.97312">
        <ele>2156</ele>
        <time>2018-07-07T07:45:12.000Z</time>
      </trkpt>
      <trkpt lat="42.56061" lon="1.97312">
        <ele>2156</ele>
        <time>2018-07-07T07:45:15.000Z</time>
      </trkpt>
      <trkpt lat="42.56063" lon="1.97311">
        <ele>2156</ele>
        <time>2018-07-07T07:45:18.000Z</time>
      </trkpt>
      <trkpt lat="42.56065" lon="1.97309">
        <ele>2156</ele>
        <time>2018-07-07T07:45:21.000Z</time>
      </trkpt>
      <trkpt lat="42.56067" lon="1.97308">
        <ele>2156</ele>
        <time>2018-07-07T07:45:24.000Z</time>
      </trkpt>
      <trkpt lat="42.56069" lon="1.97307">
        <ele>2157</ele>
        <time>2018-07-07T07:45:27.000Z</time>
      </trkpt>
      <trkpt lat="42.56072" lon="1.97307">
        <ele>2157</ele>
        <time>2018-07-07T07:45:29.000Z</time>
      </trkpt>
      <trkpt lat="42.56073" lon="1.97308">
        <ele>2157</ele>
        <time>2018-07-07T07:45:31.000Z</time>
      </trkpt>
      <trkpt lat="42.56075" lon="1.97307">
        <ele>2157</ele>
        <time>2018-07-07T07:45:34.000Z</time>
      </trkpt>
      <trkpt lat="42.56077" lon="1.97305">
        <ele>2157</ele>
        <time>2018-07-07T07:45:37.000Z</time>
      </trkpt>
      <trkpt lat="42.56079" lon="1.97305">
        <ele>2157</ele>
        <time>2018-07-07T07:45:39.000Z</time>
      </trkpt>
      <trkpt lat="42.56082" lon="1.97304">
        <ele>2157</ele>
        <time>2018-07-07T07:45:41.000Z</time>
      </trkpt>
      <trkpt lat="42.56084" lon="1.97304">
        <ele>2164</ele>
        <time>2018-07-07T07:45:43.000Z</time>
      </trkpt>
      <trkpt lat="42.56086" lon="1.97304">
        <ele>2164</ele>
        <time>2018-07-07T07:45:45.000Z</time>
      </trkpt>
      <trkpt lat="42.56088" lon="1.97304">
        <ele>2164</ele>
        <time>2018-07-07T07:45:47.000Z</time>
      </trkpt>
      <trkpt lat="42.56091" lon="1.97304">
        <ele>2165</ele>
        <time>2018-07-07T07:45:49.000Z</time>
      </trkpt>
      <trkpt lat="42.56093" lon="1.97304">
        <ele>2165</ele>
        <time>2018-07-07T07:45:51.000Z</time>
      </trkpt>
      <trkpt lat="42.56095" lon="1.97304">
        <ele>2165</ele>
        <time>2018-07-07T07:45:53.000Z</time>
      </trkpt>
      <trkpt lat="42.56097" lon="1.97304">
        <ele>2165</ele>
        <time>2018-07-07T07:45:55.000Z</time>
      </trkpt>
      <trkpt lat="42.56098" lon="1.97303">
        <ele>2165</ele>
        <time>2018-07-07T07:45:57.000Z</time>
      </trkpt>
      <trkpt lat="42.561" lon="1.97302">
        <ele>2165</ele>
        <time>2018-07-07T07:45:59.000Z</time>
      </trkpt>
      <trkpt lat="42.56102" lon="1.973">
        <ele>2165</ele>
        <time>2018-07-07T07:46:02.000Z</time>
      </trkpt>
      <trkpt lat="42.56104" lon="1.97299">
        <ele>2166</ele>
        <time>2018-07-07T07:46:04.000Z</time>
      </trkpt>
      <trkpt lat="42.56106" lon="1.97298">
        <ele>2166</ele>
        <time>2018-07-07T07:46:06.000Z</time>
      </trkpt>
      <trkpt lat="42.56108" lon="1.97297">
        <ele>2166</ele>
        <time>2018-07-07T07:46:08.000Z</time>
      </trkpt>
      <trkpt lat="42.56109" lon="1.97296">
        <ele>2166</ele>
        <time>2018-07-07T07:46:10.000Z</time>
      </trkpt>
      <trkpt lat="42.56111" lon="1.97294">
        <ele>2166</ele>
        <time>2018-07-07T07:46:13.000Z</time>
      </trkpt>
      <trkpt lat="42.56113" lon="1.97292">
        <ele>2166</ele>
        <time>2018-07-07T07:46:15.000Z</time>
      </trkpt>
      <trkpt lat="42.56115" lon="1.97291">
        <ele>2166</ele>
        <time>2018-07-07T07:46:17.000Z</time>
      </trkpt>
      <trkpt lat="42.56117" lon="1.9729">
        <ele>2167</ele>
        <time>2018-07-07T07:46:19.000Z</time>
      </trkpt>
      <trkpt lat="42.56119" lon="1.97289">
        <ele>2167</ele>
        <time>2018-07-07T07:46:21.000Z</time>
      </trkpt>
      <trkpt lat="42.56121" lon="1.97287">
        <ele>2167</ele>
        <time>2018-07-07T07:46:24.000Z</time>
      </trkpt>
      <trkpt lat="42.56123" lon="1.97287">
        <ele>2167</ele>
        <time>2018-07-07T07:46:26.000Z</time>
      </trkpt>
      <trkpt lat="42.56126" lon="1.97288">
        <ele>2167</ele>
        <time>2018-07-07T07:46:28.000Z</time>
      </trkpt>
      <trkpt lat="42.56128" lon="1.97289">
        <ele>2167</ele>
        <time>2018-07-07T07:46:30.000Z</time>
      </trkpt>
      <trkpt lat="42.5613" lon="1.97289">
        <ele>2168</ele>
        <time>2018-07-07T07:46:32.000Z</time>
      </trkpt>
      <trkpt lat="42.56132" lon="1.97289">
        <ele>2168</ele>
        <time>2018-07-07T07:46:34.000Z</time>
      </trkpt>
      <trkpt lat="42.56134" lon="1.97288">
        <ele>2168</ele>
        <time>2018-07-07T07:46:36.000Z</time>
      </trkpt>
      <trkpt lat="42.56136" lon="1.97287">
        <ele>2168</ele>
        <time>2018-07-07T07:46:38.000Z</time>
      </trkpt>
      <trkpt lat="42.56138" lon="1.97285">
        <ele>2168</ele>
        <time>2018-07-07T07:46:41.000Z</time>
      </trkpt>
      <trkpt lat="42.5614" lon="1.97282">
        <ele>2168</ele>
        <time>2018-07-07T07:46:43.000Z</time>
      </trkpt>
      <trkpt lat="42.56142" lon="1.9728">
        <ele>2169</ele>
        <time>2018-07-07T07:46:45.000Z</time>
      </trkpt>
      <trkpt lat="42.56144" lon="1.97279">
        <ele>2169</ele>
        <time>2018-07-07T07:46:47.000Z</time>
      </trkpt>
      <trkpt lat="42.56145" lon="1.97276">
        <ele>2169</ele>
        <time>2018-07-07T07:46:49.000Z</time>
      </trkpt>
      <trkpt lat="42.56146" lon="1.97274">
        <ele>2169</ele>
        <time>2018-07-07T07:46:51.000Z</time>
      </trkpt>
      <trkpt lat="42.56148" lon="1.97272">
        <ele>2169</ele>
        <time>2018-07-07T07:46:53.000Z</time>
      </trkpt>
      <trkpt lat="42.5615" lon="1.9727">
        <ele>2170</ele>
        <time>2018-07-07T07:46:55.000Z</time>
      </trkpt>
      <trkpt lat="42.56151" lon="1.97268">
        <ele>2170</ele>
        <time>2018-07-07T07:46:57.000Z</time>
      </trkpt>
      <trkpt lat="42.56153" lon="1.97265">
        <ele>2170</ele>
        <time>2018-07-07T07:46:59.000Z</time>
      </trkpt>
      <trkpt lat="42.56155" lon="1.97263">
        <ele>2171</ele>
        <time>2018-07-07T07:47:01.000Z</time>
      </trkpt>
      <trkpt lat="42.56156" lon="1.97261">
        <ele>2171</ele>
        <time>2018-07-07T07:47:03.000Z</time>
      </trkpt>
      <trkpt lat="42.56159" lon="1.9726">
        <ele>2171</ele>
        <time>2018-07-07T07:47:05.000Z</time>
      </trkpt>
      <trkpt lat="42.56161" lon="1.97258">
        <ele>2172</ele>
        <time>2018-07-07T07:47:07.000Z</time>
      </trkpt>
      <trkpt lat="42.56163" lon="1.97258">
        <ele>2172</ele>
        <time>2018-07-07T07:47:09.000Z</time>
      </trkpt>
      <trkpt lat="42.56165" lon="1.97258">
        <ele>2172</ele>
        <time>2018-07-07T07:47:11.000Z</time>
      </trkpt>
      <trkpt lat="42.56167" lon="1.97258">
        <ele>2175</ele>
        <time>2018-07-07T07:47:13.000Z</time>
      </trkpt>
      <trkpt lat="42.56169" lon="1.97257">
        <ele>2175</ele>
        <time>2018-07-07T07:47:15.000Z</time>
      </trkpt>
      <trkpt lat="42.56171" lon="1.97255">
        <ele>2175</ele>
        <time>2018-07-07T07:47:17.000Z</time>
      </trkpt>
      <trkpt lat="42.56172" lon="1.97253">
        <ele>2175</ele>
        <time>2018-07-07T07:47:19.000Z</time>
      </trkpt>
      <trkpt lat="42.56174" lon="1.97251">
        <ele>2175</ele>
        <time>2018-07-07T07:47:22.000Z</time>
      </trkpt>
      <trkpt lat="42.56177" lon="1.97249">
        <ele>2175</ele>
        <time>2018-07-07T07:47:25.000Z</time>
      </trkpt>
      <trkpt lat="42.56178" lon="1.97246">
        <ele>2176</ele>
        <time>2018-07-07T07:47:27.000Z</time>
      </trkpt>
      <trkpt lat="42.5618" lon="1.97245">
        <ele>2176</ele>
        <time>2018-07-07T07:47:29.000Z</time>
      </trkpt>
      <trkpt lat="42.56182" lon="1.97243">
        <ele>2176</ele>
        <time>2018-07-07T07:47:31.000Z</time>
      </trkpt>
      <trkpt lat="42.56184" lon="1.97241">
        <ele>2176</ele>
        <time>2018-07-07T07:47:33.000Z</time>
      </trkpt>
      <trkpt lat="42.56186" lon="1.97239">
        <ele>2176</ele>
        <time>2018-07-07T07:47:34.000Z</time>
      </trkpt>
      <trkpt lat="42.56188" lon="1.97237">
        <ele>2177</ele>
        <time>2018-07-07T07:47:35.000Z</time>
      </trkpt>
      <trkpt lat="42.5619" lon="1.97236">
        <ele>2177</ele>
        <time>2018-07-07T07:47:36.000Z</time>
      </trkpt>
      <trkpt lat="42.56191" lon="1.97234">
        <ele>2177</ele>
        <time>2018-07-07T07:47:37.000Z</time>
      </trkpt>
      <trkpt lat="42.56193" lon="1.97233">
        <ele>2177</ele>
        <time>2018-07-07T07:47:38.000Z</time>
      </trkpt>
      <trkpt lat="42.56195" lon="1.97231">
        <ele>2177</ele>
        <time>2018-07-07T07:47:39.000Z</time>
      </trkpt>
      <trkpt lat="42.56197" lon="1.9723">
        <ele>2177</ele>
        <time>2018-07-07T07:47:40.000Z</time>
      </trkpt>
      <trkpt lat="42.56198" lon="1.97228">
        <ele>2177</ele>
        <time>2018-07-07T07:47:41.000Z</time>
      </trkpt>
      <trkpt lat="42.562" lon="1.97226">
        <ele>2178</ele>
        <time>2018-07-07T07:47:42.000Z</time>
      </trkpt>
      <trkpt lat="42.56201" lon="1.97225">
        <ele>2178</ele>
        <time>2018-07-07T07:47:43.000Z</time>
      </trkpt>
      <trkpt lat="42.56203" lon="1.97223">
        <ele>2178</ele>
        <time>2018-07-07T07:47:44.000Z</time>
      </trkpt>
      <trkpt lat="42.56205" lon="1.97221">
        <ele>2178</ele>
        <time>2018-07-07T07:47:45.000Z</time>
      </trkpt>
      <trkpt lat="42.56207" lon="1.9722">
        <ele>2178</ele>
        <time>2018-07-07T07:47:46.000Z</time>
      </trkpt>
      <trkpt lat="42.56208" lon="1.97219">
        <ele>2178</ele>
        <time>2018-07-07T07:47:47.000Z</time>
      </trkpt>
      <trkpt lat="42.56212" lon="1.97217">
        <ele>2178</ele>
        <time>2018-07-07T07:47:49.000Z</time>
      </trkpt>
      <trkpt lat="42.56214" lon="1.97216">
        <ele>2178</ele>
        <time>2018-07-07T07:47:50.000Z</time>
      </trkpt>
      <trkpt lat="42.56215" lon="1.97215">
        <ele>2178</ele>
        <time>2018-07-07T07:47:51.000Z</time>
      </trkpt>
      <trkpt lat="42.56217" lon="1.97214">
        <ele>2178</ele>
        <time>2018-07-07T07:47:52.000Z</time>
      </trkpt>
      <trkpt lat="42.56219" lon="1.97213">
        <ele>2178</ele>
        <time>2018-07-07T07:47:53.000Z</time>
      </trkpt>
      <trkpt lat="42.56221" lon="1.97212">
        <ele>2179</ele>
        <time>2018-07-07T07:47:54.000Z</time>
      </trkpt>
      <trkpt lat="42.56222" lon="1.9721">
        <ele>2179</ele>
        <time>2018-07-07T07:47:55.000Z</time>
      </trkpt>
      <trkpt lat="42.56224" lon="1.97208">
        <ele>2179</ele>
        <time>2018-07-07T07:47:56.000Z</time>
      </trkpt>
      <trkpt lat="42.56225" lon="1.97206">
        <ele>2179</ele>
        <time>2018-07-07T07:47:57.000Z</time>
      </trkpt>
      <trkpt lat="42.56227" lon="1.97205">
        <ele>2179</ele>
        <time>2018-07-07T07:47:58.000Z</time>
      </trkpt>
      <trkpt lat="42.56229" lon="1.97203">
        <ele>2179</ele>
        <time>2018-07-07T07:47:59.000Z</time>
      </trkpt>
      <trkpt lat="42.56231" lon="1.97202">
        <ele>2179</ele>
        <time>2018-07-07T07:48:00.000Z</time>
      </trkpt>
      <trkpt lat="42.56233" lon="1.97201">
        <ele>2179</ele>
        <time>2018-07-07T07:48:01.000Z</time>
      </trkpt>
      <trkpt lat="42.56235" lon="1.97201">
        <ele>2179</ele>
        <time>2018-07-07T07:48:02.000Z</time>
      </trkpt>
      <trkpt lat="42.56237" lon="1.97202">
        <ele>2179</ele>
        <time>2018-07-07T07:48:03.000Z</time>
      </trkpt>
      <trkpt lat="42.56239" lon="1.97202">
        <ele>2179</ele>
        <time>2018-07-07T07:48:04.000Z</time>
      </trkpt>
      <trkpt lat="42.56241" lon="1.97202">
        <ele>2179</ele>
        <time>2018-07-07T07:48:05.000Z</time>
      </trkpt>
      <trkpt lat="42.56243" lon="1.97202">
        <ele>2179</ele>
        <time>2018-07-07T07:48:06.000Z</time>
      </trkpt>
      <trkpt lat="42.56245" lon="1.97201">
        <ele>2179</ele>
        <time>2018-07-07T07:48:07.000Z</time>
      </trkpt>
      <trkpt lat="42.56247" lon="1.972">
        <ele>2179</ele>
        <time>2018-07-07T07:48:08.000Z</time>
      </trkpt>
      <trkpt lat="42.56249" lon="1.97199">
        <ele>2179</ele>
        <time>2018-07-07T07:48:09.000Z</time>
      </trkpt>
      <trkpt lat="42.56251" lon="1.97199">
        <ele>2182</ele>
        <time>2018-07-07T07:48:10.000Z</time>
      </trkpt>
      <trkpt lat="42.56253" lon="1.97198">
        <ele>2182</ele>
        <time>2018-07-07T07:48:11.000Z</time>
      </trkpt>
      <trkpt lat="42.56255" lon="1.97197">
        <ele>2182</ele>
        <time>2018-07-07T07:48:12.000Z</time>
      </trkpt>
      <trkpt lat="42.56258" lon="1.97197">
        <ele>2182</ele>
        <time>2018-07-07T07:48:13.000Z</time>
      </trkpt>
      <trkpt lat="42.5626" lon="1.97196">
        <ele>2182</ele>
        <time>2018-07-07T07:48:14.000Z</time>
      </trkpt>
      <trkpt lat="42.56262" lon="1.97195">
        <ele>2183</ele>
        <time>2018-07-07T07:48:15.000Z</time>
      </trkpt>
      <trkpt lat="42.56264" lon="1.97194">
        <ele>2183</ele>
        <time>2018-07-07T07:48:16.000Z</time>
      </trkpt>
      <trkpt lat="42.56266" lon="1.97193">
        <ele>2183</ele>
        <time>2018-07-07T07:48:17.000Z</time>
      </trkpt>
      <trkpt lat="42.56269" lon="1.97192">
        <ele>2183</ele>
        <time>2018-07-07T07:48:18.000Z</time>
      </trkpt>
      <trkpt lat="42.56271" lon="1.97192">
        <ele>2183</ele>
        <time>2018-07-07T07:48:19.000Z</time>
      </trkpt>
      <trkpt lat="42.56273" lon="1.9719">
        <ele>2183</ele>
        <time>2018-07-07T07:48:20.000Z</time>
      </trkpt>
      <trkpt lat="42.56275" lon="1.97189">
        <ele>2183</ele>
        <time>2018-07-07T07:48:21.000Z</time>
      </trkpt>
      <trkpt lat="42.56277" lon="1.97188">
        <ele>2183</ele>
        <time>2018-07-07T07:48:22.000Z</time>
      </trkpt>
      <trkpt lat="42.56279" lon="1.97187">
        <ele>2183</ele>
        <time>2018-07-07T07:48:23.000Z</time>
      </trkpt>
      <trkpt lat="42.56281" lon="1.97185">
        <ele>2183</ele>
        <time>2018-07-07T07:48:24.000Z</time>
      </trkpt>
      <trkpt lat="42.56283" lon="1.97184">
        <ele>2183</ele>
        <time>2018-07-07T07:48:25.000Z</time>
      </trkpt>
      <trkpt lat="42.56285" lon="1.97183">
        <ele>2183</ele>
        <time>2018-07-07T07:48:26.000Z</time>
      </trkpt>
      <trkpt lat="42.56287" lon="1.97182">
        <ele>2183</ele>
        <time>2018-07-07T07:48:27.000Z</time>
      </trkpt>
      <trkpt lat="42.56289" lon="1.97181">
        <ele>2183</ele>
        <time>2018-07-07T07:48:28.000Z</time>
      </trkpt>
      <trkpt lat="42.56291" lon="1.9718">
        <ele>2183</ele>
        <time>2018-07-07T07:48:29.000Z</time>
      </trkpt>
      <trkpt lat="42.56293" lon="1.9718">
        <ele>2183</ele>
        <time>2018-07-07T07:48:30.000Z</time>
      </trkpt>
      <trkpt lat="42.56295" lon="1.9718">
        <ele>2183</ele>
        <time>2018-07-07T07:48:31.000Z</time>
      </trkpt>
      <trkpt lat="42.56297" lon="1.9718">
        <ele>2183</ele>
        <time>2018-07-07T07:48:32.000Z</time>
      </trkpt>
      <trkpt lat="42.56299" lon="1.9718">
        <ele>2183</ele>
        <time>2018-07-07T07:48:33.000Z</time>
      </trkpt>
      <trkpt lat="42.56302" lon="1.97181">
        <ele>2183</ele>
        <time>2018-07-07T07:48:35.000Z</time>
      </trkpt>
      <trkpt lat="42.56304" lon="1.97181">
        <ele>2183</ele>
        <time>2018-07-07T07:48:36.000Z</time>
      </trkpt>
      <trkpt lat="42.56306" lon="1.97182">
        <ele>2183</ele>
        <time>2018-07-07T07:48:37.000Z</time>
      </trkpt>
      <trkpt lat="42.56308" lon="1.97182">
        <ele>2183</ele>
        <time>2018-07-07T07:48:38.000Z</time>
      </trkpt>
      <trkpt lat="42.5631" lon="1.97182">
        <ele>2183</ele>
        <time>2018-07-07T07:48:39.000Z</time>
      </trkpt>
      <trkpt lat="42.56314" lon="1.97181">
        <ele>2184</ele>
        <time>2018-07-07T07:48:41.000Z</time>
      </trkpt>
      <trkpt lat="42.56317" lon="1.97179">
        <ele>2184</ele>
        <time>2018-07-07T07:48:43.000Z</time>
      </trkpt>
      <trkpt lat="42.5632" lon="1.97177">
        <ele>2184</ele>
        <time>2018-07-07T07:48:45.000Z</time>
      </trkpt>
      <trkpt lat="42.56321" lon="1.97175">
        <ele>2184</ele>
        <time>2018-07-07T07:48:46.000Z</time>
      </trkpt>
      <trkpt lat="42.56325" lon="1.97174">
        <ele>2184</ele>
        <time>2018-07-07T07:48:48.000Z</time>
      </trkpt>
      <trkpt lat="42.56327" lon="1.97173">
        <ele>2184</ele>
        <time>2018-07-07T07:48:50.000Z</time>
      </trkpt>
      <trkpt lat="42.5633" lon="1.9717">
        <ele>2184</ele>
        <time>2018-07-07T07:48:52.000Z</time>
      </trkpt>
      <trkpt lat="42.56333" lon="1.97166">
        <ele>2184</ele>
        <time>2018-07-07T07:48:54.000Z</time>
      </trkpt>
      <trkpt lat="42.56334" lon="1.97165">
        <ele>2184</ele>
        <time>2018-07-07T07:48:55.000Z</time>
      </trkpt>
      <trkpt lat="42.56337" lon="1.97165">
        <ele>2184</ele>
        <time>2018-07-07T07:48:57.000Z</time>
      </trkpt>
      <trkpt lat="42.56341" lon="1.97165">
        <ele>2184</ele>
        <time>2018-07-07T07:48:59.000Z</time>
      </trkpt>
      <trkpt lat="42.56343" lon="1.97165">
        <ele>2184</ele>
        <time>2018-07-07T07:49:00.000Z</time>
      </trkpt>
      <trkpt lat="42.56345" lon="1.97164">
        <ele>2183</ele>
        <time>2018-07-07T07:49:01.000Z</time>
      </trkpt>
      <trkpt lat="42.56347" lon="1.97164">
        <ele>2183</ele>
        <time>2018-07-07T07:49:02.000Z</time>
      </trkpt>
      <trkpt lat="42.56349" lon="1.97164">
        <ele>2183</ele>
        <time>2018-07-07T07:49:03.000Z</time>
      </trkpt>
      <trkpt lat="42.56351" lon="1.97164">
        <ele>2183</ele>
        <time>2018-07-07T07:49:04.000Z</time>
      </trkpt>
      <trkpt lat="42.56353" lon="1.97164">
        <ele>2183</ele>
        <time>2018-07-07T07:49:05.000Z</time>
      </trkpt>
      <trkpt lat="42.56355" lon="1.97163">
        <ele>2183</ele>
        <time>2018-07-07T07:49:06.000Z</time>
      </trkpt>
      <trkpt lat="42.56357" lon="1.97162">
        <ele>2183</ele>
        <time>2018-07-07T07:49:07.000Z</time>
      </trkpt>
      <trkpt lat="42.5636" lon="1.97163">
        <ele>2183</ele>
        <time>2018-07-07T07:49:09.000Z</time>
      </trkpt>
      <trkpt lat="42.56363" lon="1.97161">
        <ele>2183</ele>
        <time>2018-07-07T07:49:11.000Z</time>
      </trkpt>
      <trkpt lat="42.56365" lon="1.97159">
        <ele>2183</ele>
        <time>2018-07-07T07:49:12.000Z</time>
      </trkpt>
      <trkpt lat="42.56367" lon="1.97157">
        <ele>2183</ele>
        <time>2018-07-07T07:49:13.000Z</time>
      </trkpt>
      <trkpt lat="42.56368" lon="1.97156">
        <ele>2183</ele>
        <time>2018-07-07T07:49:14.000Z</time>
      </trkpt>
      <trkpt lat="42.5637" lon="1.97155">
        <ele>2183</ele>
        <time>2018-07-07T07:49:15.000Z</time>
      </trkpt>
      <trkpt lat="42.56372" lon="1.97155">
        <ele>2183</ele>
        <time>2018-07-07T07:49:16.000Z</time>
      </trkpt>
      <trkpt lat="42.56374" lon="1.97154">
        <ele>2183</ele>
        <time>2018-07-07T07:49:17.000Z</time>
      </trkpt>
      <trkpt lat="42.56376" lon="1.97153">
        <ele>2183</ele>
        <time>2018-07-07T07:49:18.000Z</time>
      </trkpt>
      <trkpt lat="42.56378" lon="1.97152">
        <ele>2183</ele>
        <time>2018-07-07T07:49:19.000Z</time>
      </trkpt>
      <trkpt lat="42.5638" lon="1.9715">
        <ele>2183</ele>
        <time>2018-07-07T07:49:20.000Z</time>
      </trkpt>
      <trkpt lat="42.56381" lon="1.97148">
        <ele>2183</ele>
        <time>2018-07-07T07:49:21.000Z</time>
      </trkpt>
      <trkpt lat="42.56383" lon="1.97147">
        <ele>2183</ele>
        <time>2018-07-07T07:49:22.000Z</time>
      </trkpt>
      <trkpt lat="42.56385" lon="1.97146">
        <ele>2184</ele>
        <time>2018-07-07T07:49:23.000Z</time>
      </trkpt>
      <trkpt lat="42.56387" lon="1.97146">
        <ele>2184</ele>
        <time>2018-07-07T07:49:24.000Z</time>
      </trkpt>
      <trkpt lat="42.56389" lon="1.97146">
        <ele>2184</ele>
        <time>2018-07-07T07:49:25.000Z</time>
      </trkpt>
      <trkpt lat="42.56391" lon="1.97146">
        <ele>2184</ele>
        <time>2018-07-07T07:49:26.000Z</time>
      </trkpt>
      <trkpt lat="42.56393" lon="1.97145">
        <ele>2184</ele>
        <time>2018-07-07T07:49:27.000Z</time>
      </trkpt>
      <trkpt lat="42.56395" lon="1.97145">
        <ele>2184</ele>
        <time>2018-07-07T07:49:28.000Z</time>
      </trkpt>
      <trkpt lat="42.56397" lon="1.97144">
        <ele>2184</ele>
        <time>2018-07-07T07:49:29.000Z</time>
      </trkpt>
      <trkpt lat="42.56399" lon="1.97143">
        <ele>2184</ele>
        <time>2018-07-07T07:49:30.000Z</time>
      </trkpt>
      <trkpt lat="42.56401" lon="1.97143">
        <ele>2184</ele>
        <time>2018-07-07T07:49:31.000Z</time>
      </trkpt>
      <trkpt lat="42.56403" lon="1.97143">
        <ele>2184</ele>
        <time>2018-07-07T07:49:32.000Z</time>
      </trkpt>
      <trkpt lat="42.56405" lon="1.97142">
        <ele>2184</ele>
        <time>2018-07-07T07:49:33.000Z</time>
      </trkpt>
      <trkpt lat="42.56407" lon="1.97141">
        <ele>2184</ele>
        <time>2018-07-07T07:49:34.000Z</time>
      </trkpt>
      <trkpt lat="42.56409" lon="1.97141">
        <ele>2184</ele>
        <time>2018-07-07T07:49:35.000Z</time>
      </trkpt>
      <trkpt lat="42.56411" lon="1.97139">
        <ele>2184</ele>
        <time>2018-07-07T07:49:37.000Z</time>
      </trkpt>
      <trkpt lat="42.56414" lon="1.97137">
        <ele>2184</ele>
        <time>2018-07-07T07:49:39.000Z</time>
      </trkpt>
      <trkpt lat="42.56416" lon="1.97135">
        <ele>2184</ele>
        <time>2018-07-07T07:49:41.000Z</time>
      </trkpt>
      <trkpt lat="42.56418" lon="1.97133">
        <ele>2187</ele>
        <time>2018-07-07T07:49:43.000Z</time>
      </trkpt>
      <trkpt lat="42.56419" lon="1.9713">
        <ele>2187</ele>
        <time>2018-07-07T07:49:45.000Z</time>
      </trkpt>
      <trkpt lat="42.56421" lon="1.97127">
        <ele>2187</ele>
        <time>2018-07-07T07:49:47.000Z</time>
      </trkpt>
      <trkpt lat="42.56422" lon="1.97124">
        <ele>2186</ele>
        <time>2018-07-07T07:49:49.000Z</time>
      </trkpt>
      <trkpt lat="42.56424" lon="1.97121">
        <ele>2186</ele>
        <time>2018-07-07T07:49:51.000Z</time>
      </trkpt>
      <trkpt lat="42.56426" lon="1.97119">
        <ele>2186</ele>
        <time>2018-07-07T07:49:53.000Z</time>
      </trkpt>
      <trkpt lat="42.56428" lon="1.97117">
        <ele>2186</ele>
        <time>2018-07-07T07:49:55.000Z</time>
      </trkpt>
      <trkpt lat="42.5643" lon="1.97115">
        <ele>2186</ele>
        <time>2018-07-07T07:49:57.000Z</time>
      </trkpt>
      <trkpt lat="42.56432" lon="1.97113">
        <ele>2186</ele>
        <time>2018-07-07T07:49:59.000Z</time>
      </trkpt>
      <trkpt lat="42.56434" lon="1.97111">
        <ele>2186</ele>
        <time>2018-07-07T07:50:01.000Z</time>
      </trkpt>
      <trkpt lat="42.56436" lon="1.97108">
        <ele>2186</ele>
        <time>2018-07-07T07:50:03.000Z</time>
      </trkpt>
      <trkpt lat="42.56438" lon="1.97105">
        <ele>2186</ele>
        <time>2018-07-07T07:50:05.000Z</time>
      </trkpt>
      <trkpt lat="42.5644" lon="1.97103">
        <ele>2186</ele>
        <time>2018-07-07T07:50:07.000Z</time>
      </trkpt>
      <trkpt lat="42.56442" lon="1.971">
        <ele>2186</ele>
        <time>2018-07-07T07:50:09.000Z</time>
      </trkpt>
      <trkpt lat="42.56444" lon="1.97097">
        <ele>2186</ele>
        <time>2018-07-07T07:50:11.000Z</time>
      </trkpt>
      <trkpt lat="42.56446" lon="1.97094">
        <ele>2186</ele>
        <time>2018-07-07T07:50:13.000Z</time>
      </trkpt>
      <trkpt lat="42.56448" lon="1.97092">
        <ele>2186</ele>
        <time>2018-07-07T07:50:15.000Z</time>
      </trkpt>
      <trkpt lat="42.56451" lon="1.9709">
        <ele>2186</ele>
        <time>2018-07-07T07:50:17.000Z</time>
      </trkpt>
      <trkpt lat="42.56453" lon="1.97088">
        <ele>2186</ele>
        <time>2018-07-07T07:50:19.000Z</time>
      </trkpt>
      <trkpt lat="42.56455" lon="1.97087">
        <ele>2186</ele>
        <time>2018-07-07T07:50:21.000Z</time>
      </trkpt>
      <trkpt lat="42.56457" lon="1.97085">
        <ele>2187</ele>
        <time>2018-07-07T07:50:23.000Z</time>
      </trkpt>
      <trkpt lat="42.56459" lon="1.97084">
        <ele>2187</ele>
        <time>2018-07-07T07:50:25.000Z</time>
      </trkpt>
      <trkpt lat="42.56462" lon="1.97081">
        <ele>2185</ele>
        <time>2018-07-07T07:50:27.000Z</time>
      </trkpt>
      <trkpt lat="42.56465" lon="1.97079">
        <ele>2185</ele>
        <time>2018-07-07T07:50:29.000Z</time>
      </trkpt>
      <trkpt lat="42.56467" lon="1.97078">
        <ele>2185</ele>
        <time>2018-07-07T07:50:31.000Z</time>
      </trkpt>
      <trkpt lat="42.56469" lon="1.97076">
        <ele>2186</ele>
        <time>2018-07-07T07:50:33.000Z</time>
      </trkpt>
      <trkpt lat="42.56471" lon="1.97074">
        <ele>2186</ele>
        <time>2018-07-07T07:50:35.000Z</time>
      </trkpt>
      <trkpt lat="42.56473" lon="1.97073">
        <ele>2186</ele>
        <time>2018-07-07T07:50:37.000Z</time>
      </trkpt>
      <trkpt lat="42.56475" lon="1.97071">
        <ele>2186</ele>
        <time>2018-07-07T07:50:39.000Z</time>
      </trkpt>
      <trkpt lat="42.56477" lon="1.9707">
        <ele>2186</ele>
        <time>2018-07-07T07:50:41.000Z</time>
      </trkpt>
      <trkpt lat="42.56479" lon="1.97069">
        <ele>2186</ele>
        <time>2018-07-07T07:50:43.000Z</time>
      </trkpt>
      <trkpt lat="42.56481" lon="1.97068">
        <ele>2186</ele>
        <time>2018-07-07T07:50:45.000Z</time>
      </trkpt>
      <trkpt lat="42.56484" lon="1.97067">
        <ele>2186</ele>
        <time>2018-07-07T07:50:47.000Z</time>
      </trkpt>
      <trkpt lat="42.56485" lon="1.97066">
        <ele>2186</ele>
        <time>2018-07-07T07:50:49.000Z</time>
      </trkpt>
      <trkpt lat="42.56487" lon="1.97064">
        <ele>2186</ele>
        <time>2018-07-07T07:50:51.000Z</time>
      </trkpt>
      <trkpt lat="42.56489" lon="1.97063">
        <ele>2186</ele>
        <time>2018-07-07T07:50:53.000Z</time>
      </trkpt>
      <trkpt lat="42.56491" lon="1.97062">
        <ele>2186</ele>
        <time>2018-07-07T07:50:55.000Z</time>
      </trkpt>
      <trkpt lat="42.56492" lon="1.97061">
        <ele>2186</ele>
        <time>2018-07-07T07:50:57.000Z</time>
      </trkpt>
      <trkpt lat="42.56494" lon="1.97059">
        <ele>2186</ele>
        <time>2018-07-07T07:50:59.000Z</time>
      </trkpt>
      <trkpt lat="42.56497" lon="1.97057">
        <ele>2186</ele>
        <time>2018-07-07T07:51:01.000Z</time>
      </trkpt>
      <trkpt lat="42.56499" lon="1.97056">
        <ele>2186</ele>
        <time>2018-07-07T07:51:03.000Z</time>
      </trkpt>
      <trkpt lat="42.56501" lon="1.97056">
        <ele>2190</ele>
        <time>2018-07-07T07:51:05.000Z</time>
      </trkpt>
      <trkpt lat="42.56503" lon="1.97055">
        <ele>2190</ele>
        <time>2018-07-07T07:51:07.000Z</time>
      </trkpt>
      <trkpt lat="42.56506" lon="1.97053">
        <ele>2190</ele>
        <time>2018-07-07T07:51:09.000Z</time>
      </trkpt>
      <trkpt lat="42.56508" lon="1.97052">
        <ele>2190</ele>
        <time>2018-07-07T07:51:11.000Z</time>
      </trkpt>
      <trkpt lat="42.5651" lon="1.9705">
        <ele>2190</ele>
        <time>2018-07-07T07:51:13.000Z</time>
      </trkpt>
      <trkpt lat="42.56512" lon="1.97049">
        <ele>2190</ele>
        <time>2018-07-07T07:51:15.000Z</time>
      </trkpt>
      <trkpt lat="42.56514" lon="1.97048">
        <ele>2190</ele>
        <time>2018-07-07T07:51:17.000Z</time>
      </trkpt>
      <trkpt lat="42.56517" lon="1.97046">
        <ele>2190</ele>
        <time>2018-07-07T07:51:19.000Z</time>
      </trkpt>
      <trkpt lat="42.56519" lon="1.97044">
        <ele>2190</ele>
        <time>2018-07-07T07:51:21.000Z</time>
      </trkpt>
      <trkpt lat="42.56522" lon="1.97043">
        <ele>2191</ele>
        <time>2018-07-07T07:51:23.000Z</time>
      </trkpt>
      <trkpt lat="42.56523" lon="1.97042">
        <ele>2191</ele>
        <time>2018-07-07T07:51:24.000Z</time>
      </trkpt>
      <trkpt lat="42.56525" lon="1.97042">
        <ele>2191</ele>
        <time>2018-07-07T07:51:25.000Z</time>
      </trkpt>
      <trkpt lat="42.56527" lon="1.97041">
        <ele>2191</ele>
        <time>2018-07-07T07:51:26.000Z</time>
      </trkpt>
      <trkpt lat="42.56529" lon="1.97041">
        <ele>2191</ele>
        <time>2018-07-07T07:51:27.000Z</time>
      </trkpt>
      <trkpt lat="42.56532" lon="1.9704">
        <ele>2191</ele>
        <time>2018-07-07T07:51:29.000Z</time>
      </trkpt>
      <trkpt lat="42.56536" lon="1.9704">
        <ele>2191</ele>
        <time>2018-07-07T07:51:31.000Z</time>
      </trkpt>
      <trkpt lat="42.5654" lon="1.97038">
        <ele>2191</ele>
        <time>2018-07-07T07:51:33.000Z</time>
      </trkpt>
      <trkpt lat="42.56541" lon="1.97038">
        <ele>2191</ele>
        <time>2018-07-07T07:51:34.000Z</time>
      </trkpt>
      <trkpt lat="42.56545" lon="1.97037">
        <ele>2191</ele>
        <time>2018-07-07T07:51:36.000Z</time>
      </trkpt>
      <trkpt lat="42.56546" lon="1.97036">
        <ele>2191</ele>
        <time>2018-07-07T07:51:37.000Z</time>
      </trkpt>
      <trkpt lat="42.56548" lon="1.97035">
        <ele>2191</ele>
        <time>2018-07-07T07:51:38.000Z</time>
      </trkpt>
      <trkpt lat="42.5655" lon="1.97035">
        <ele>2192</ele>
        <time>2018-07-07T07:51:39.000Z</time>
      </trkpt>
      <trkpt lat="42.56552" lon="1.97034">
        <ele>2192</ele>
        <time>2018-07-07T07:51:40.000Z</time>
      </trkpt>
      <trkpt lat="42.56553" lon="1.97033">
        <ele>2192</ele>
        <time>2018-07-07T07:51:41.000Z</time>
      </trkpt>
      <trkpt lat="42.56557" lon="1.97032">
        <ele>2192</ele>
        <time>2018-07-07T07:51:43.000Z</time>
      </trkpt>
      <trkpt lat="42.56559" lon="1.97031">
        <ele>2192</ele>
        <time>2018-07-07T07:51:44.000Z</time>
      </trkpt>
      <trkpt lat="42.56562" lon="1.9703">
        <ele>2192</ele>
        <time>2018-07-07T07:51:46.000Z</time>
      </trkpt>
      <trkpt lat="42.56565" lon="1.97028">
        <ele>2192</ele>
        <time>2018-07-07T07:51:48.000Z</time>
      </trkpt>
      <trkpt lat="42.56567" lon="1.97027">
        <ele>2192</ele>
        <time>2018-07-07T07:51:49.000Z</time>
      </trkpt>
      <trkpt lat="42.56569" lon="1.97026">
        <ele>2192</ele>
        <time>2018-07-07T07:51:50.000Z</time>
      </trkpt>
      <trkpt lat="42.56571" lon="1.97025">
        <ele>2192</ele>
        <time>2018-07-07T07:51:51.000Z</time>
      </trkpt>
      <trkpt lat="42.56573" lon="1.97024">
        <ele>2192</ele>
        <time>2018-07-07T07:51:52.000Z</time>
      </trkpt>
      <trkpt lat="42.56575" lon="1.97024">
        <ele>2192</ele>
        <time>2018-07-07T07:51:53.000Z</time>
      </trkpt>
      <trkpt lat="42.56577" lon="1.97023">
        <ele>2193</ele>
        <time>2018-07-07T07:51:54.000Z</time>
      </trkpt>
      <trkpt lat="42.56579" lon="1.97023">
        <ele>2193</ele>
        <time>2018-07-07T07:51:55.000Z</time>
      </trkpt>
      <trkpt lat="42.56581" lon="1.97022">
        <ele>2193</ele>
        <time>2018-07-07T07:51:56.000Z</time>
      </trkpt>
      <trkpt lat="42.56582" lon="1.97021">
        <ele>2193</ele>
        <time>2018-07-07T07:51:57.000Z</time>
      </trkpt>
      <trkpt lat="42.56584" lon="1.9702">
        <ele>2195</ele>
        <time>2018-07-07T07:51:58.000Z</time>
      </trkpt>
      <trkpt lat="42.56586" lon="1.97019">
        <ele>2195</ele>
        <time>2018-07-07T07:51:59.000Z</time>
      </trkpt>
      <trkpt lat="42.56588" lon="1.97018">
        <ele>2195</ele>
        <time>2018-07-07T07:52:00.000Z</time>
      </trkpt>
      <trkpt lat="42.5659" lon="1.97017">
        <ele>2195</ele>
        <time>2018-07-07T07:52:01.000Z</time>
      </trkpt>
      <trkpt lat="42.56592" lon="1.97016">
        <ele>2195</ele>
        <time>2018-07-07T07:52:02.000Z</time>
      </trkpt>
      <trkpt lat="42.56594" lon="1.97016">
        <ele>2195</ele>
        <time>2018-07-07T07:52:03.000Z</time>
      </trkpt>
      <trkpt lat="42.56596" lon="1.97015">
        <ele>2195</ele>
        <time>2018-07-07T07:52:04.000Z</time>
      </trkpt>
      <trkpt lat="42.56597" lon="1.97014">
        <ele>2196</ele>
        <time>2018-07-07T07:52:05.000Z</time>
      </trkpt>
      <trkpt lat="42.56599" lon="1.97013">
        <ele>2196</ele>
        <time>2018-07-07T07:52:06.000Z</time>
      </trkpt>
      <trkpt lat="42.56601" lon="1.97012">
        <ele>2196</ele>
        <time>2018-07-07T07:52:07.000Z</time>
      </trkpt>
      <trkpt lat="42.56603" lon="1.97011">
        <ele>2196</ele>
        <time>2018-07-07T07:52:08.000Z</time>
      </trkpt>
      <trkpt lat="42.56606" lon="1.9701">
        <ele>2196</ele>
        <time>2018-07-07T07:52:10.000Z</time>
      </trkpt>
      <trkpt lat="42.56608" lon="1.97009">
        <ele>2196</ele>
        <time>2018-07-07T07:52:11.000Z</time>
      </trkpt>
      <trkpt lat="42.5661" lon="1.97009">
        <ele>2196</ele>
        <time>2018-07-07T07:52:12.000Z</time>
      </trkpt>
      <trkpt lat="42.56612" lon="1.97009">
        <ele>2196</ele>
        <time>2018-07-07T07:52:13.000Z</time>
      </trkpt>
      <trkpt lat="42.56614" lon="1.97008">
        <ele>2196</ele>
        <time>2018-07-07T07:52:14.000Z</time>
      </trkpt>
      <trkpt lat="42.56616" lon="1.97007">
        <ele>2196</ele>
        <time>2018-07-07T07:52:15.000Z</time>
      </trkpt>
      <trkpt lat="42.56618" lon="1.97007">
        <ele>2196</ele>
        <time>2018-07-07T07:52:16.000Z</time>
      </trkpt>
      <trkpt lat="42.5662" lon="1.97005">
        <ele>2196</ele>
        <time>2018-07-07T07:52:17.000Z</time>
      </trkpt>
      <trkpt lat="42.56622" lon="1.97004">
        <ele>2197</ele>
        <time>2018-07-07T07:52:18.000Z</time>
      </trkpt>
      <trkpt lat="42.56623" lon="1.97003">
        <ele>2197</ele>
        <time>2018-07-07T07:52:19.000Z</time>
      </trkpt>
      <trkpt lat="42.56625" lon="1.97003">
        <ele>2197</ele>
        <time>2018-07-07T07:52:20.000Z</time>
      </trkpt>
      <trkpt lat="42.56627" lon="1.97001">
        <ele>2197</ele>
        <time>2018-07-07T07:52:21.000Z</time>
      </trkpt>
      <trkpt lat="42.56629" lon="1.97">
        <ele>2197</ele>
        <time>2018-07-07T07:52:22.000Z</time>
      </trkpt>
      <trkpt lat="42.56631" lon="1.96999">
        <ele>2197</ele>
        <time>2018-07-07T07:52:23.000Z</time>
      </trkpt>
      <trkpt lat="42.56633" lon="1.96999">
        <ele>2197</ele>
        <time>2018-07-07T07:52:24.000Z</time>
      </trkpt>
      <trkpt lat="42.56635" lon="1.96998">
        <ele>2197</ele>
        <time>2018-07-07T07:52:25.000Z</time>
      </trkpt>
      <trkpt lat="42.56637" lon="1.96997">
        <ele>2197</ele>
        <time>2018-07-07T07:52:26.000Z</time>
      </trkpt>
      <trkpt lat="42.56639" lon="1.96996">
        <ele>2197</ele>
        <time>2018-07-07T07:52:27.000Z</time>
      </trkpt>
      <trkpt lat="42.56641" lon="1.96996">
        <ele>2197</ele>
        <time>2018-07-07T07:52:28.000Z</time>
      </trkpt>
      <trkpt lat="42.56643" lon="1.96995">
        <ele>2197</ele>
        <time>2018-07-07T07:52:29.000Z</time>
      </trkpt>
      <trkpt lat="42.56644" lon="1.96994">
        <ele>2197</ele>
        <time>2018-07-07T07:52:30.000Z</time>
      </trkpt>
      <trkpt lat="42.56646" lon="1.96993">
        <ele>2197</ele>
        <time>2018-07-07T07:52:31.000Z</time>
      </trkpt>
      <trkpt lat="42.56648" lon="1.96991">
        <ele>2197</ele>
        <time>2018-07-07T07:52:32.000Z</time>
      </trkpt>
      <trkpt lat="42.5665" lon="1.9699">
        <ele>2198</ele>
        <time>2018-07-07T07:52:33.000Z</time>
      </trkpt>
      <trkpt lat="42.56652" lon="1.96989">
        <ele>2198</ele>
        <time>2018-07-07T07:52:34.000Z</time>
      </trkpt>
      <trkpt lat="42.56654" lon="1.96988">
        <ele>2198</ele>
        <time>2018-07-07T07:52:35.000Z</time>
      </trkpt>
      <trkpt lat="42.56656" lon="1.96987">
        <ele>2198</ele>
        <time>2018-07-07T07:52:36.000Z</time>
      </trkpt>
      <trkpt lat="42.56658" lon="1.96986">
        <ele>2198</ele>
        <time>2018-07-07T07:52:37.000Z</time>
      </trkpt>
      <trkpt lat="42.5666" lon="1.96985">
        <ele>2198</ele>
        <time>2018-07-07T07:52:38.000Z</time>
      </trkpt>
      <trkpt lat="42.56662" lon="1.96984">
        <ele>2198</ele>
        <time>2018-07-07T07:52:39.000Z</time>
      </trkpt>
      <trkpt lat="42.56664" lon="1.96983">
        <ele>2198</ele>
        <time>2018-07-07T07:52:40.000Z</time>
      </trkpt>
      <trkpt lat="42.56666" lon="1.96982">
        <ele>2198</ele>
        <time>2018-07-07T07:52:41.000Z</time>
      </trkpt>
      <trkpt lat="42.56668" lon="1.96981">
        <ele>2199</ele>
        <time>2018-07-07T07:52:42.000Z</time>
      </trkpt>
      <trkpt lat="42.5667" lon="1.9698">
        <ele>2199</ele>
        <time>2018-07-07T07:52:43.000Z</time>
      </trkpt>
      <trkpt lat="42.56672" lon="1.96978">
        <ele>2199</ele>
        <time>2018-07-07T07:52:44.000Z</time>
      </trkpt>
      <trkpt lat="42.56674" lon="1.96977">
        <ele>2199</ele>
        <time>2018-07-07T07:52:45.000Z</time>
      </trkpt>
      <trkpt lat="42.56676" lon="1.96976">
        <ele>2199</ele>
        <time>2018-07-07T07:52:46.000Z</time>
      </trkpt>
      <trkpt lat="42.56678" lon="1.96975">
        <ele>2199</ele>
        <time>2018-07-07T07:52:47.000Z</time>
      </trkpt>
      <trkpt lat="42.5668" lon="1.96974">
        <ele>2199</ele>
        <time>2018-07-07T07:52:48.000Z</time>
      </trkpt>
      <trkpt lat="42.56682" lon="1.96973">
        <ele>2199</ele>
        <time>2018-07-07T07:52:49.000Z</time>
      </trkpt>
      <trkpt lat="42.56684" lon="1.96972">
        <ele>2199</ele>
        <time>2018-07-07T07:52:50.000Z</time>
      </trkpt>
      <trkpt lat="42.56686" lon="1.96971">
        <ele>2199</ele>
        <time>2018-07-07T07:52:51.000Z</time>
      </trkpt>
      <trkpt lat="42.56688" lon="1.9697">
        <ele>2199</ele>
        <time>2018-07-07T07:52:52.000Z</time>
      </trkpt>
      <trkpt lat="42.5669" lon="1.96968">
        <ele>2199</ele>
        <time>2018-07-07T07:52:53.000Z</time>
      </trkpt>
      <trkpt lat="42.56693" lon="1.96967">
        <ele>2199</ele>
        <time>2018-07-07T07:52:54.000Z</time>
      </trkpt>
      <trkpt lat="42.56695" lon="1.96966">
        <ele>2199</ele>
        <time>2018-07-07T07:52:55.000Z</time>
      </trkpt>
      <trkpt lat="42.56697" lon="1.96965">
        <ele>2199</ele>
        <time>2018-07-07T07:52:56.000Z</time>
      </trkpt>
      <trkpt lat="42.56699" lon="1.96964">
        <ele>2199</ele>
        <time>2018-07-07T07:52:57.000Z</time>
      </trkpt>
      <trkpt lat="42.56701" lon="1.96963">
        <ele>2199</ele>
        <time>2018-07-07T07:52:58.000Z</time>
      </trkpt>
      <trkpt lat="42.56703" lon="1.96961">
        <ele>2199</ele>
        <time>2018-07-07T07:52:59.000Z</time>
      </trkpt>
      <trkpt lat="42.56706" lon="1.9696">
        <ele>2199</ele>
        <time>2018-07-07T07:53:00.000Z</time>
      </trkpt>
      <trkpt lat="42.56708" lon="1.96959">
        <ele>2199</ele>
        <time>2018-07-07T07:53:01.000Z</time>
      </trkpt>
      <trkpt lat="42.5671" lon="1.96957">
        <ele>2199</ele>
        <time>2018-07-07T07:53:02.000Z</time>
      </trkpt>
      <trkpt lat="42.56712" lon="1.96956">
        <ele>2199</ele>
        <time>2018-07-07T07:53:03.000Z</time>
      </trkpt>
      <trkpt lat="42.56714" lon="1.96954">
        <ele>2199</ele>
        <time>2018-07-07T07:53:04.000Z</time>
      </trkpt>
      <trkpt lat="42.56716" lon="1.96952">
        <ele>2199</ele>
        <time>2018-07-07T07:53:05.000Z</time>
      </trkpt>
      <trkpt lat="42.56718" lon="1.96951">
        <ele>2199</ele>
        <time>2018-07-07T07:53:06.000Z</time>
      </trkpt>
      <trkpt lat="42.5672" lon="1.96949">
        <ele>2199</ele>
        <time>2018-07-07T07:53:07.000Z</time>
      </trkpt>
      <trkpt lat="42.56722" lon="1.96948">
        <ele>2199</ele>
        <time>2018-07-07T07:53:08.000Z</time>
      </trkpt>
      <trkpt lat="42.56724" lon="1.96946">
        <ele>2199</ele>
        <time>2018-07-07T07:53:09.000Z</time>
      </trkpt>
      <trkpt lat="42.56726" lon="1.96944">
        <ele>2199</ele>
        <time>2018-07-07T07:53:10.000Z</time>
      </trkpt>
      <trkpt lat="42.56728" lon="1.96942">
        <ele>2199</ele>
        <time>2018-07-07T07:53:11.000Z</time>
      </trkpt>
      <trkpt lat="42.56729" lon="1.96939">
        <ele>2199</ele>
        <time>2018-07-07T07:53:12.000Z</time>
      </trkpt>
      <trkpt lat="42.56731" lon="1.96937">
        <ele>2199</ele>
        <time>2018-07-07T07:53:13.000Z</time>
      </trkpt>
      <trkpt lat="42.56733" lon="1.96936">
        <ele>2199</ele>
        <time>2018-07-07T07:53:14.000Z</time>
      </trkpt>
      <trkpt lat="42.56736" lon="1.96935">
        <ele>2199</ele>
        <time>2018-07-07T07:53:15.000Z</time>
      </trkpt>
      <trkpt lat="42.56738" lon="1.96934">
        <ele>2199</ele>
        <time>2018-07-07T07:53:16.000Z</time>
      </trkpt>
      <trkpt lat="42.5674" lon="1.96932">
        <ele>2199</ele>
        <time>2018-07-07T07:53:17.000Z</time>
      </trkpt>
      <trkpt lat="42.56742" lon="1.96931">
        <ele>2199</ele>
        <time>2018-07-07T07:53:18.000Z</time>
      </trkpt>
      <trkpt lat="42.56744" lon="1.96929">
        <ele>2199</ele>
        <time>2018-07-07T07:53:19.000Z</time>
      </trkpt>
      <trkpt lat="42.56746" lon="1.96928">
        <ele>2199</ele>
        <time>2018-07-07T07:53:20.000Z</time>
      </trkpt>
      <trkpt lat="42.56748" lon="1.96926">
        <ele>2198</ele>
        <time>2018-07-07T07:53:21.000Z</time>
      </trkpt>
      <trkpt lat="42.5675" lon="1.96925">
        <ele>2199</ele>
        <time>2018-07-07T07:53:22.000Z</time>
      </trkpt>
      <trkpt lat="42.56752" lon="1.96924">
        <ele>2199</ele>
        <time>2018-07-07T07:53:23.000Z</time>
      </trkpt>
      <trkpt lat="42.56755" lon="1.96923">
        <ele>2199</ele>
        <time>2018-07-07T07:53:24.000Z</time>
      </trkpt>
      <trkpt lat="42.56757" lon="1.96921">
        <ele>2199</ele>
        <time>2018-07-07T07:53:25.000Z</time>
      </trkpt>
      <trkpt lat="42.56759" lon="1.9692">
        <ele>2199</ele>
        <time>2018-07-07T07:53:26.000Z</time>
      </trkpt>
      <trkpt lat="42.56761" lon="1.96919">
        <ele>2199</ele>
        <time>2018-07-07T07:53:27.000Z</time>
      </trkpt>
      <trkpt lat="42.56763" lon="1.96918">
        <ele>2199</ele>
        <time>2018-07-07T07:53:28.000Z</time>
      </trkpt>
      <trkpt lat="42.56766" lon="1.96916">
        <ele>2197</ele>
        <time>2018-07-07T07:53:29.000Z</time>
      </trkpt>
      <trkpt lat="42.56768" lon="1.96915">
        <ele>2197</ele>
        <time>2018-07-07T07:53:30.000Z</time>
      </trkpt>
      <trkpt lat="42.5677" lon="1.96913">
        <ele>2197</ele>
        <time>2018-07-07T07:53:31.000Z</time>
      </trkpt>
      <trkpt lat="42.56772" lon="1.96912">
        <ele>2197</ele>
        <time>2018-07-07T07:53:32.000Z</time>
      </trkpt>
      <trkpt lat="42.56775" lon="1.96911">
        <ele>2196</ele>
        <time>2018-07-07T07:53:33.000Z</time>
      </trkpt>
      <trkpt lat="42.56777" lon="1.9691">
        <ele>2196</ele>
        <time>2018-07-07T07:53:34.000Z</time>
      </trkpt>
      <trkpt lat="42.56779" lon="1.96909">
        <ele>2196</ele>
        <time>2018-07-07T07:53:35.000Z</time>
      </trkpt>
      <trkpt lat="42.56781" lon="1.96907">
        <ele>2196</ele>
        <time>2018-07-07T07:53:36.000Z</time>
      </trkpt>
      <trkpt lat="42.56783" lon="1.96906">
        <ele>2196</ele>
        <time>2018-07-07T07:53:37.000Z</time>
      </trkpt>
      <trkpt lat="42.56786" lon="1.96905">
        <ele>2196</ele>
        <time>2018-07-07T07:53:38.000Z</time>
      </trkpt>
      <trkpt lat="42.56788" lon="1.96903">
        <ele>2196</ele>
        <time>2018-07-07T07:53:39.000Z</time>
      </trkpt>
      <trkpt lat="42.5679" lon="1.96902">
        <ele>2196</ele>
        <time>2018-07-07T07:53:40.000Z</time>
      </trkpt>
      <trkpt lat="42.56792" lon="1.96901">
        <ele>2196</ele>
        <time>2018-07-07T07:53:41.000Z</time>
      </trkpt>
      <trkpt lat="42.56794" lon="1.96899">
        <ele>2196</ele>
        <time>2018-07-07T07:53:42.000Z</time>
      </trkpt>
      <trkpt lat="42.56796" lon="1.96898">
        <ele>2196</ele>
        <time>2018-07-07T07:53:43.000Z</time>
      </trkpt>
      <trkpt lat="42.56799" lon="1.96897">
        <ele>2196</ele>
        <time>2018-07-07T07:53:44.000Z</time>
      </trkpt>
      <trkpt lat="42.56801" lon="1.96896">
        <ele>2196</ele>
        <time>2018-07-07T07:53:45.000Z</time>
      </trkpt>
      <trkpt lat="42.56803" lon="1.96895">
        <ele>2196</ele>
        <time>2018-07-07T07:53:46.000Z</time>
      </trkpt>
      <trkpt lat="42.56805" lon="1.96894">
        <ele>2196</ele>
        <time>2018-07-07T07:53:47.000Z</time>
      </trkpt>
      <trkpt lat="42.56808" lon="1.96893">
        <ele>2196</ele>
        <time>2018-07-07T07:53:48.000Z</time>
      </trkpt>
      <trkpt lat="42.5681" lon="1.96893">
        <ele>2196</ele>
        <time>2018-07-07T07:53:49.000Z</time>
      </trkpt>
      <trkpt lat="42.56813" lon="1.96892">
        <ele>2196</ele>
        <time>2018-07-07T07:53:50.000Z</time>
      </trkpt>
      <trkpt lat="42.56815" lon="1.96891">
        <ele>2196</ele>
        <time>2018-07-07T07:53:51.000Z</time>
      </trkpt>
      <trkpt lat="42.56818" lon="1.9689">
        <ele>2196</ele>
        <time>2018-07-07T07:53:52.000Z</time>
      </trkpt>
      <trkpt lat="42.5682" lon="1.96888">
        <ele>2196</ele>
        <time>2018-07-07T07:53:53.000Z</time>
      </trkpt>
      <trkpt lat="42.56822" lon="1.96886">
        <ele>2196</ele>
        <time>2018-07-07T07:53:54.000Z</time>
      </trkpt>
      <trkpt lat="42.56824" lon="1.96885">
        <ele>2196</ele>
        <time>2018-07-07T07:53:55.000Z</time>
      </trkpt>
      <trkpt lat="42.56827" lon="1.96883">
        <ele>2195</ele>
        <time>2018-07-07T07:53:56.000Z</time>
      </trkpt>
      <trkpt lat="42.56829" lon="1.96881">
        <ele>2195</ele>
        <time>2018-07-07T07:53:57.000Z</time>
      </trkpt>
      <trkpt lat="42.56831" lon="1.9688">
        <ele>2195</ele>
        <time>2018-07-07T07:53:58.000Z</time>
      </trkpt>
      <trkpt lat="42.56833" lon="1.96878">
        <ele>2195</ele>
        <time>2018-07-07T07:53:59.000Z</time>
      </trkpt>
      <trkpt lat="42.56836" lon="1.96877">
        <ele>2195</ele>
        <time>2018-07-07T07:54:00.000Z</time>
      </trkpt>
      <trkpt lat="42.56838" lon="1.96875">
        <ele>2195</ele>
        <time>2018-07-07T07:54:01.000Z</time>
      </trkpt>
      <trkpt lat="42.5684" lon="1.96874">
        <ele>2195</ele>
        <time>2018-07-07T07:54:02.000Z</time>
      </trkpt>
      <trkpt lat="42.56843" lon="1.96873">
        <ele>2195</ele>
        <time>2018-07-07T07:54:03.000Z</time>
      </trkpt>
      <trkpt lat="42.56846" lon="1.96872">
        <ele>2195</ele>
        <time>2018-07-07T07:54:04.000Z</time>
      </trkpt>
      <trkpt lat="42.56848" lon="1.96872">
        <ele>2195</ele>
        <time>2018-07-07T07:54:05.000Z</time>
      </trkpt>
      <trkpt lat="42.5685" lon="1.96871">
        <ele>2195</ele>
        <time>2018-07-07T07:54:06.000Z</time>
      </trkpt>
      <trkpt lat="42.56853" lon="1.96872">
        <ele>2195</ele>
        <time>2018-07-07T07:54:07.000Z</time>
      </trkpt>
      <trkpt lat="42.56855" lon="1.96872">
        <ele>2195</ele>
        <time>2018-07-07T07:54:08.000Z</time>
      </trkpt>
      <trkpt lat="42.56858" lon="1.96872">
        <ele>2195</ele>
        <time>2018-07-07T07:54:09.000Z</time>
      </trkpt>
      <trkpt lat="42.5686" lon="1.96871">
        <ele>2195</ele>
        <time>2018-07-07T07:54:10.000Z</time>
      </trkpt>
      <trkpt lat="42.56863" lon="1.96871">
        <ele>2195</ele>
        <time>2018-07-07T07:54:11.000Z</time>
      </trkpt>
      <trkpt lat="42.56865" lon="1.96871">
        <ele>2195</ele>
        <time>2018-07-07T07:54:12.000Z</time>
      </trkpt>
      <trkpt lat="42.56867" lon="1.96872">
        <ele>2195</ele>
        <time>2018-07-07T07:54:13.000Z</time>
      </trkpt>
      <trkpt lat="42.5687" lon="1.96874">
        <ele>2195</ele>
        <time>2018-07-07T07:54:14.000Z</time>
      </trkpt>
      <trkpt lat="42.56872" lon="1.96874">
        <ele>2195</ele>
        <time>2018-07-07T07:54:15.000Z</time>
      </trkpt>
      <trkpt lat="42.56874" lon="1.96874">
        <ele>2195</ele>
        <time>2018-07-07T07:54:16.000Z</time>
      </trkpt>
      <trkpt lat="42.56877" lon="1.96873">
        <ele>2195</ele>
        <time>2018-07-07T07:54:17.000Z</time>
      </trkpt>
      <trkpt lat="42.56879" lon="1.96872">
        <ele>2195</ele>
        <time>2018-07-07T07:54:18.000Z</time>
      </trkpt>
      <trkpt lat="42.56882" lon="1.96871">
        <ele>2195</ele>
        <time>2018-07-07T07:54:19.000Z</time>
      </trkpt>
      <trkpt lat="42.56885" lon="1.9687">
        <ele>2195</ele>
        <time>2018-07-07T07:54:20.000Z</time>
      </trkpt>
      <trkpt lat="42.56887" lon="1.96869">
        <ele>2195</ele>
        <time>2018-07-07T07:54:21.000Z</time>
      </trkpt>
      <trkpt lat="42.56889" lon="1.96869">
        <ele>2195</ele>
        <time>2018-07-07T07:54:22.000Z</time>
      </trkpt>
      <trkpt lat="42.56892" lon="1.96868">
        <ele>2195</ele>
        <time>2018-07-07T07:54:24.000Z</time>
      </trkpt>
      <trkpt lat="42.56894" lon="1.96869">
        <ele>2195</ele>
        <time>2018-07-07T07:54:26.000Z</time>
      </trkpt>
      <trkpt lat="42.56897" lon="1.96869">
        <ele>2195</ele>
        <time>2018-07-07T07:54:29.000Z</time>
      </trkpt>
      <trkpt lat="42.56899" lon="1.9687">
        <ele>2195</ele>
        <time>2018-07-07T07:54:31.000Z</time>
      </trkpt>
      <trkpt lat="42.56901" lon="1.96871">
        <ele>2195</ele>
        <time>2018-07-07T07:54:33.000Z</time>
      </trkpt>
      <trkpt lat="42.56903" lon="1.96872">
        <ele>2195</ele>
        <time>2018-07-07T07:54:35.000Z</time>
      </trkpt>
      <trkpt lat="42.56905" lon="1.96874">
        <ele>2195</ele>
        <time>2018-07-07T07:54:37.000Z</time>
      </trkpt>
      <trkpt lat="42.56906" lon="1.96875">
        <ele>2195</ele>
        <time>2018-07-07T07:54:39.000Z</time>
      </trkpt>
      <trkpt lat="42.56908" lon="1.96874">
        <ele>2195</ele>
        <time>2018-07-07T07:54:41.000Z</time>
      </trkpt>
      <trkpt lat="42.56911" lon="1.96874">
        <ele>2195</ele>
        <time>2018-07-07T07:54:44.000Z</time>
      </trkpt>
      <trkpt lat="42.56913" lon="1.96877">
        <ele>2195</ele>
        <time>2018-07-07T07:54:48.000Z</time>
      </trkpt>
      <trkpt lat="42.56914" lon="1.96878">
        <ele>2195</ele>
        <time>2018-07-07T07:54:51.000Z</time>
      </trkpt>
      <trkpt lat="42.56917" lon="1.96879">
        <ele>2198</ele>
        <time>2018-07-07T07:54:54.000Z</time>
      </trkpt>
      <trkpt lat="42.56919" lon="1.96878">
        <ele>2198</ele>
        <time>2018-07-07T07:54:57.000Z</time>
      </trkpt>
      <trkpt lat="42.56921" lon="1.96879">
        <ele>2198</ele>
        <time>2018-07-07T07:54:59.000Z</time>
      </trkpt>
      <trkpt lat="42.56923" lon="1.9688">
        <ele>2198</ele>
        <time>2018-07-07T07:55:01.000Z</time>
      </trkpt>
      <trkpt lat="42.56926" lon="1.9688">
        <ele>2198</ele>
        <time>2018-07-07T07:55:04.000Z</time>
      </trkpt>
      <trkpt lat="42.56928" lon="1.96878">
        <ele>2198</ele>
        <time>2018-07-07T07:55:06.000Z</time>
      </trkpt>
      <trkpt lat="42.5693" lon="1.96877">
        <ele>2198</ele>
        <time>2018-07-07T07:55:07.000Z</time>
      </trkpt>
      <trkpt lat="42.56932" lon="1.96876">
        <ele>2198</ele>
        <time>2018-07-07T07:55:08.000Z</time>
      </trkpt>
      <trkpt lat="42.56934" lon="1.96875">
        <ele>2198</ele>
        <time>2018-07-07T07:55:09.000Z</time>
      </trkpt>
      <trkpt lat="42.56936" lon="1.96874">
        <ele>2198</ele>
        <time>2018-07-07T07:55:10.000Z</time>
      </trkpt>
      <trkpt lat="42.56938" lon="1.96873">
        <ele>2198</ele>
        <time>2018-07-07T07:55:11.000Z</time>
      </trkpt>
      <trkpt lat="42.5694" lon="1.96873">
        <ele>2198</ele>
        <time>2018-07-07T07:55:12.000Z</time>
      </trkpt>
      <trkpt lat="42.56942" lon="1.96873">
        <ele>2198</ele>
        <time>2018-07-07T07:55:13.000Z</time>
      </trkpt>
      <trkpt lat="42.56944" lon="1.96872">
        <ele>2198</ele>
        <time>2018-07-07T07:55:14.000Z</time>
      </trkpt>
      <trkpt lat="42.56946" lon="1.96872">
        <ele>2198</ele>
        <time>2018-07-07T07:55:15.000Z</time>
      </trkpt>
      <trkpt lat="42.56949" lon="1.96871">
        <ele>2198</ele>
        <time>2018-07-07T07:55:16.000Z</time>
      </trkpt>
      <trkpt lat="42.56951" lon="1.9687">
        <ele>2198</ele>
        <time>2018-07-07T07:55:17.000Z</time>
      </trkpt>
      <trkpt lat="42.56952" lon="1.9687">
        <ele>2198</ele>
        <time>2018-07-07T07:55:18.000Z</time>
      </trkpt>
      <trkpt lat="42.56954" lon="1.96869">
        <ele>2198</ele>
        <time>2018-07-07T07:55:19.000Z</time>
      </trkpt>
      <trkpt lat="42.56956" lon="1.96868">
        <ele>2198</ele>
        <time>2018-07-07T07:55:20.000Z</time>
      </trkpt>
      <trkpt lat="42.5696" lon="1.96866">
        <ele>2198</ele>
        <time>2018-07-07T07:55:22.000Z</time>
      </trkpt>
      <trkpt lat="42.56963" lon="1.96865">
        <ele>2198</ele>
        <time>2018-07-07T07:55:24.000Z</time>
      </trkpt>
      <trkpt lat="42.56965" lon="1.96865">
        <ele>2198</ele>
        <time>2018-07-07T07:55:25.000Z</time>
      </trkpt>
      <trkpt lat="42.56968" lon="1.96865">
        <ele>2198</ele>
        <time>2018-07-07T07:55:27.000Z</time>
      </trkpt>
      <trkpt lat="42.56971" lon="1.96863">
        <ele>2198</ele>
        <time>2018-07-07T07:55:29.000Z</time>
      </trkpt>
      <trkpt lat="42.56974" lon="1.96863">
        <ele>2198</ele>
        <time>2018-07-07T07:55:31.000Z</time>
      </trkpt>
      <trkpt lat="42.56977" lon="1.96863">
        <ele>2198</ele>
        <time>2018-07-07T07:55:33.000Z</time>
      </trkpt>
      <trkpt lat="42.56979" lon="1.96862">
        <ele>2198</ele>
        <time>2018-07-07T07:55:35.000Z</time>
      </trkpt>
      <trkpt lat="42.56983" lon="1.9686">
        <ele>2198</ele>
        <time>2018-07-07T07:55:37.000Z</time>
      </trkpt>
      <trkpt lat="42.56984" lon="1.96858">
        <ele>2198</ele>
        <time>2018-07-07T07:55:38.000Z</time>
      </trkpt>
      <trkpt lat="42.56985" lon="1.96856">
        <ele>2198</ele>
        <time>2018-07-07T07:55:39.000Z</time>
      </trkpt>
      <trkpt lat="42.56987" lon="1.96855">
        <ele>2197</ele>
        <time>2018-07-07T07:55:40.000Z</time>
      </trkpt>
      <trkpt lat="42.5699" lon="1.96852">
        <ele>2197</ele>
        <time>2018-07-07T07:55:42.000Z</time>
      </trkpt>
      <trkpt lat="42.56991" lon="1.9685">
        <ele>2197</ele>
        <time>2018-07-07T07:55:43.000Z</time>
      </trkpt>
      <trkpt lat="42.56993" lon="1.96848">
        <ele>2197</ele>
        <time>2018-07-07T07:55:44.000Z</time>
      </trkpt>
      <trkpt lat="42.56995" lon="1.96847">
        <ele>2196</ele>
        <time>2018-07-07T07:55:45.000Z</time>
      </trkpt>
      <trkpt lat="42.56998" lon="1.96846">
        <ele>2196</ele>
        <time>2018-07-07T07:55:47.000Z</time>
      </trkpt>
      <trkpt lat="42.57" lon="1.96845">
        <ele>2196</ele>
        <time>2018-07-07T07:55:48.000Z</time>
      </trkpt>
      <trkpt lat="42.57002" lon="1.96843">
        <ele>2198</ele>
        <time>2018-07-07T07:55:50.000Z</time>
      </trkpt>
      <trkpt lat="42.57004" lon="1.9684">
        <ele>2197</ele>
        <time>2018-07-07T07:55:52.000Z</time>
      </trkpt>
      <trkpt lat="42.57007" lon="1.96838">
        <ele>2198</ele>
        <time>2018-07-07T07:55:54.000Z</time>
      </trkpt>
      <trkpt lat="42.5701" lon="1.96837">
        <ele>2198</ele>
        <time>2018-07-07T07:55:56.000Z</time>
      </trkpt>
      <trkpt lat="42.57011" lon="1.96835">
        <ele>2198</ele>
        <time>2018-07-07T07:55:58.000Z</time>
      </trkpt>
      <trkpt lat="42.57014" lon="1.96831">
        <ele>2195</ele>
        <time>2018-07-07T07:56:00.000Z</time>
      </trkpt>
      <trkpt lat="42.57017" lon="1.9683">
        <ele>2195</ele>
        <time>2018-07-07T07:56:01.000Z</time>
      </trkpt>
      <trkpt lat="42.57018" lon="1.9683">
        <ele>2195</ele>
        <time>2018-07-07T07:56:02.000Z</time>
      </trkpt>
      <trkpt lat="42.57022" lon="1.9683">
        <ele>2195</ele>
        <time>2018-07-07T07:56:04.000Z</time>
      </trkpt>
      <trkpt lat="42.57025" lon="1.96828">
        <ele>2195</ele>
        <time>2018-07-07T07:56:06.000Z</time>
      </trkpt>
      <trkpt lat="42.57028" lon="1.96828">
        <ele>2196</ele>
        <time>2018-07-07T07:56:08.000Z</time>
      </trkpt>
      <trkpt lat="42.5703" lon="1.96828">
        <ele>2196</ele>
        <time>2018-07-07T07:56:09.000Z</time>
      </trkpt>
      <trkpt lat="42.57032" lon="1.96828">
        <ele>2196</ele>
        <time>2018-07-07T07:56:10.000Z</time>
      </trkpt>
      <trkpt lat="42.57035" lon="1.96827">
        <ele>2196</ele>
        <time>2018-07-07T07:56:12.000Z</time>
      </trkpt>
      <trkpt lat="42.57038" lon="1.96827">
        <ele>2196</ele>
        <time>2018-07-07T07:56:15.000Z</time>
      </trkpt>
      <trkpt lat="42.5704" lon="1.96827">
        <ele>2196</ele>
        <time>2018-07-07T07:56:17.000Z</time>
      </trkpt>
      <trkpt lat="42.57042" lon="1.96827">
        <ele>2197</ele>
        <time>2018-07-07T07:56:19.000Z</time>
      </trkpt>
      <trkpt lat="42.57044" lon="1.96826">
        <ele>2197</ele>
        <time>2018-07-07T07:56:21.000Z</time>
      </trkpt>
      <trkpt lat="42.57046" lon="1.96825">
        <ele>2197</ele>
        <time>2018-07-07T07:56:23.000Z</time>
      </trkpt>
      <trkpt lat="42.57048" lon="1.96825">
        <ele>2197</ele>
        <time>2018-07-07T07:56:25.000Z</time>
      </trkpt>
      <trkpt lat="42.5705" lon="1.96825">
        <ele>2197</ele>
        <time>2018-07-07T07:56:27.000Z</time>
      </trkpt>
      <trkpt lat="42.57052" lon="1.96825">
        <ele>2197</ele>
        <time>2018-07-07T07:56:29.000Z</time>
      </trkpt>
      <trkpt lat="42.57054" lon="1.96825">
        <ele>2198</ele>
        <time>2018-07-07T07:56:31.000Z</time>
      </trkpt>
      <trkpt lat="42.57056" lon="1.96826">
        <ele>2198</ele>
        <time>2018-07-07T07:56:33.000Z</time>
      </trkpt>
      <trkpt lat="42.57058" lon="1.96826">
        <ele>2198</ele>
        <time>2018-07-07T07:56:35.000Z</time>
      </trkpt>
      <trkpt lat="42.5706" lon="1.96825">
        <ele>2198</ele>
        <time>2018-07-07T07:56:37.000Z</time>
      </trkpt>
      <trkpt lat="42.57062" lon="1.96824">
        <ele>2198</ele>
        <time>2018-07-07T07:56:39.000Z</time>
      </trkpt>
      <trkpt lat="42.57064" lon="1.96823">
        <ele>2198</ele>
        <time>2018-07-07T07:56:41.000Z</time>
      </trkpt>
      <trkpt lat="42.57066" lon="1.96821">
        <ele>2199</ele>
        <time>2018-07-07T07:56:43.000Z</time>
      </trkpt>
      <trkpt lat="42.57068" lon="1.9682">
        <ele>2199</ele>
        <time>2018-07-07T07:56:45.000Z</time>
      </trkpt>
      <trkpt lat="42.5707" lon="1.96818">
        <ele>2199</ele>
        <time>2018-07-07T07:56:47.000Z</time>
      </trkpt>
      <trkpt lat="42.57073" lon="1.96817">
        <ele>2199</ele>
        <time>2018-07-07T07:56:49.000Z</time>
      </trkpt>
      <trkpt lat="42.57075" lon="1.96817">
        <ele>2199</ele>
        <time>2018-07-07T07:56:51.000Z</time>
      </trkpt>
      <trkpt lat="42.57077" lon="1.96816">
        <ele>2199</ele>
        <time>2018-07-07T07:56:53.000Z</time>
      </trkpt>
      <trkpt lat="42.57079" lon="1.96816">
        <ele>2199</ele>
        <time>2018-07-07T07:56:55.000Z</time>
      </trkpt>
      <trkpt lat="42.57081" lon="1.96816">
        <ele>2199</ele>
        <time>2018-07-07T07:56:57.000Z</time>
      </trkpt>
      <trkpt lat="42.57083" lon="1.96818">
        <ele>2200</ele>
        <time>2018-07-07T07:56:59.000Z</time>
      </trkpt>
      <trkpt lat="42.57085" lon="1.96818">
        <ele>2204</ele>
        <time>2018-07-07T07:57:02.000Z</time>
      </trkpt>
      <trkpt lat="42.57087" lon="1.96817">
        <ele>2204</ele>
        <time>2018-07-07T07:57:04.000Z</time>
      </trkpt>
      <trkpt lat="42.5709" lon="1.96816">
        <ele>2205</ele>
        <time>2018-07-07T07:57:06.000Z</time>
      </trkpt>
      <trkpt lat="42.57092" lon="1.96818">
        <ele>2205</ele>
        <time>2018-07-07T07:57:09.000Z</time>
      </trkpt>
      <trkpt lat="42.57094" lon="1.96816">
        <ele>2205</ele>
        <time>2018-07-07T07:57:11.000Z</time>
      </trkpt>
      <trkpt lat="42.57096" lon="1.96815">
        <ele>2205</ele>
        <time>2018-07-07T07:57:13.000Z</time>
      </trkpt>
      <trkpt lat="42.57098" lon="1.96814">
        <ele>2205</ele>
        <time>2018-07-07T07:57:15.000Z</time>
      </trkpt>
      <trkpt lat="42.571" lon="1.96814">
        <ele>2205</ele>
        <time>2018-07-07T07:57:17.000Z</time>
      </trkpt>
      <trkpt lat="42.57102" lon="1.96815">
        <ele>2205</ele>
        <time>2018-07-07T07:57:19.000Z</time>
      </trkpt>
      <trkpt lat="42.57104" lon="1.96815">
        <ele>2206</ele>
        <time>2018-07-07T07:57:21.000Z</time>
      </trkpt>
      <trkpt lat="42.57106" lon="1.96817">
        <ele>2206</ele>
        <time>2018-07-07T07:57:23.000Z</time>
      </trkpt>
      <trkpt lat="42.57107" lon="1.96819">
        <ele>2206</ele>
        <time>2018-07-07T07:57:25.000Z</time>
      </trkpt>
      <trkpt lat="42.57109" lon="1.96822">
        <ele>2206</ele>
        <time>2018-07-07T07:57:28.000Z</time>
      </trkpt>
      <trkpt lat="42.57111" lon="1.96824">
        <ele>2206</ele>
        <time>2018-07-07T07:57:31.000Z</time>
      </trkpt>
      <trkpt lat="42.57113" lon="1.96825">
        <ele>2206</ele>
        <time>2018-07-07T07:57:34.000Z</time>
      </trkpt>
      <trkpt lat="42.57115" lon="1.96827">
        <ele>2206</ele>
        <time>2018-07-07T07:57:36.000Z</time>
      </trkpt>
      <trkpt lat="42.57117" lon="1.96827">
        <ele>2207</ele>
        <time>2018-07-07T07:57:39.000Z</time>
      </trkpt>
      <trkpt lat="42.57118" lon="1.96828">
        <ele>2207</ele>
        <time>2018-07-07T07:57:42.000Z</time>
      </trkpt>
      <trkpt lat="42.57121" lon="1.96831">
        <ele>2207</ele>
        <time>2018-07-07T07:57:45.000Z</time>
      </trkpt>
      <trkpt lat="42.57123" lon="1.96831">
        <ele>2207</ele>
        <time>2018-07-07T07:57:48.000Z</time>
      </trkpt>
      <trkpt lat="42.57126" lon="1.9683">
        <ele>2207</ele>
        <time>2018-07-07T07:57:51.000Z</time>
      </trkpt>
      <trkpt lat="42.57128" lon="1.9683">
        <ele>2208</ele>
        <time>2018-07-07T07:57:53.000Z</time>
      </trkpt>
      <trkpt lat="42.5713" lon="1.96831">
        <ele>2208</ele>
        <time>2018-07-07T07:57:55.000Z</time>
      </trkpt>
      <trkpt lat="42.57132" lon="1.9683">
        <ele>2208</ele>
        <time>2018-07-07T07:57:57.000Z</time>
      </trkpt>
      <trkpt lat="42.57134" lon="1.96828">
        <ele>2208</ele>
        <time>2018-07-07T07:57:59.000Z</time>
      </trkpt>
      <trkpt lat="42.57137" lon="1.96827">
        <ele>2209</ele>
        <time>2018-07-07T07:58:01.000Z</time>
      </trkpt>
      <trkpt lat="42.57139" lon="1.96827">
        <ele>2209</ele>
        <time>2018-07-07T07:58:03.000Z</time>
      </trkpt>
      <trkpt lat="42.57141" lon="1.96826">
        <ele>2209</ele>
        <time>2018-07-07T07:58:05.000Z</time>
      </trkpt>
      <trkpt lat="42.57144" lon="1.96826">
        <ele>2209</ele>
        <time>2018-07-07T07:58:07.000Z</time>
      </trkpt>
      <trkpt lat="42.57146" lon="1.96826">
        <ele>2210</ele>
        <time>2018-07-07T07:58:09.000Z</time>
      </trkpt>
      <trkpt lat="42.57148" lon="1.96827">
        <ele>2210</ele>
        <time>2018-07-07T07:58:11.000Z</time>
      </trkpt>
      <trkpt lat="42.5715" lon="1.96827">
        <ele>2210</ele>
        <time>2018-07-07T07:58:13.000Z</time>
      </trkpt>
      <trkpt lat="42.57153" lon="1.96825">
        <ele>2210</ele>
        <time>2018-07-07T07:58:16.000Z</time>
      </trkpt>
      <trkpt lat="42.57155" lon="1.96823">
        <ele>2210</ele>
        <time>2018-07-07T07:58:18.000Z</time>
      </trkpt>
      <trkpt lat="42.57159" lon="1.96822">
        <ele>2211</ele>
        <time>2018-07-07T07:58:20.000Z</time>
      </trkpt>
      <trkpt lat="42.57161" lon="1.96821">
        <ele>2211</ele>
        <time>2018-07-07T07:58:22.000Z</time>
      </trkpt>
      <trkpt lat="42.57163" lon="1.96821">
        <ele>2211</ele>
        <time>2018-07-07T07:58:25.000Z</time>
      </trkpt>
      <trkpt lat="42.57166" lon="1.96821">
        <ele>2211</ele>
        <time>2018-07-07T07:58:28.000Z</time>
      </trkpt>
      <trkpt lat="42.57168" lon="1.9682">
        <ele>2215</ele>
        <time>2018-07-07T07:58:30.000Z</time>
      </trkpt>
      <trkpt lat="42.57171" lon="1.96818">
        <ele>2215</ele>
        <time>2018-07-07T07:58:32.000Z</time>
      </trkpt>
      <trkpt lat="42.57173" lon="1.96817">
        <ele>2215</ele>
        <time>2018-07-07T07:58:33.000Z</time>
      </trkpt>
      <trkpt lat="42.57175" lon="1.96817">
        <ele>2215</ele>
        <time>2018-07-07T07:58:34.000Z</time>
      </trkpt>
      <trkpt lat="42.57178" lon="1.96816">
        <ele>2215</ele>
        <time>2018-07-07T07:58:36.000Z</time>
      </trkpt>
      <trkpt lat="42.57181" lon="1.96814">
        <ele>2216</ele>
        <time>2018-07-07T07:58:38.000Z</time>
      </trkpt>
      <trkpt lat="42.57185" lon="1.96812">
        <ele>2216</ele>
        <time>2018-07-07T07:58:40.000Z</time>
      </trkpt>
      <trkpt lat="42.57186" lon="1.96812">
        <ele>2216</ele>
        <time>2018-07-07T07:58:41.000Z</time>
      </trkpt>
      <trkpt lat="42.57189" lon="1.96811">
        <ele>2216</ele>
        <time>2018-07-07T07:58:42.000Z</time>
      </trkpt>
      <trkpt lat="42.5719" lon="1.96808">
        <ele>2216</ele>
        <time>2018-07-07T07:58:43.000Z</time>
      </trkpt>
      <trkpt lat="42.57192" lon="1.96807">
        <ele>2216</ele>
        <time>2018-07-07T07:58:44.000Z</time>
      </trkpt>
      <trkpt lat="42.57194" lon="1.96805">
        <ele>2216</ele>
        <time>2018-07-07T07:58:45.000Z</time>
      </trkpt>
      <trkpt lat="42.57197" lon="1.96804">
        <ele>2217</ele>
        <time>2018-07-07T07:58:47.000Z</time>
      </trkpt>
      <trkpt lat="42.572" lon="1.96804">
        <ele>2217</ele>
        <time>2018-07-07T07:58:49.000Z</time>
      </trkpt>
      <trkpt lat="42.57203" lon="1.96806">
        <ele>2217</ele>
        <time>2018-07-07T07:58:51.000Z</time>
      </trkpt>
      <trkpt lat="42.57206" lon="1.96806">
        <ele>2217</ele>
        <time>2018-07-07T07:58:53.000Z</time>
      </trkpt>
      <trkpt lat="42.57209" lon="1.96808">
        <ele>2217</ele>
        <time>2018-07-07T07:58:55.000Z</time>
      </trkpt>
      <trkpt lat="42.57211" lon="1.96809">
        <ele>2217</ele>
        <time>2018-07-07T07:58:56.000Z</time>
      </trkpt>
      <trkpt lat="42.57213" lon="1.9681">
        <ele>2217</ele>
        <time>2018-07-07T07:58:57.000Z</time>
      </trkpt>
      <trkpt lat="42.57216" lon="1.96812">
        <ele>2217</ele>
        <time>2018-07-07T07:58:59.000Z</time>
      </trkpt>
      <trkpt lat="42.57218" lon="1.96813">
        <ele>2217</ele>
        <time>2018-07-07T07:59:01.000Z</time>
      </trkpt>
      <trkpt lat="42.57221" lon="1.96814">
        <ele>2217</ele>
        <time>2018-07-07T07:59:03.000Z</time>
      </trkpt>
      <trkpt lat="42.57222" lon="1.96816">
        <ele>2217</ele>
        <time>2018-07-07T07:59:05.000Z</time>
      </trkpt>
      <trkpt lat="42.57224" lon="1.96816">
        <ele>2218</ele>
        <time>2018-07-07T07:59:07.000Z</time>
      </trkpt>
      <trkpt lat="42.57226" lon="1.96816">
        <ele>2218</ele>
        <time>2018-07-07T07:59:09.000Z</time>
      </trkpt>
      <trkpt lat="42.57229" lon="1.96815">
        <ele>2218</ele>
        <time>2018-07-07T07:59:11.000Z</time>
      </trkpt>
      <trkpt lat="42.57231" lon="1.96816">
        <ele>2218</ele>
        <time>2018-07-07T07:59:13.000Z</time>
      </trkpt>
      <trkpt lat="42.57233" lon="1.96816">
        <ele>2218</ele>
        <time>2018-07-07T07:59:15.000Z</time>
      </trkpt>
      <trkpt lat="42.57235" lon="1.96816">
        <ele>2218</ele>
        <time>2018-07-07T07:59:17.000Z</time>
      </trkpt>
      <trkpt lat="42.57237" lon="1.96816">
        <ele>2218</ele>
        <time>2018-07-07T07:59:19.000Z</time>
      </trkpt>
      <trkpt lat="42.5724" lon="1.96815">
        <ele>2218</ele>
        <time>2018-07-07T07:59:21.000Z</time>
      </trkpt>
      <trkpt lat="42.57242" lon="1.96816">
        <ele>2218</ele>
        <time>2018-07-07T07:59:23.000Z</time>
      </trkpt>
      <trkpt lat="42.57244" lon="1.96818">
        <ele>2218</ele>
        <time>2018-07-07T07:59:25.000Z</time>
      </trkpt>
      <trkpt lat="42.57245" lon="1.9682">
        <ele>2218</ele>
        <time>2018-07-07T07:59:27.000Z</time>
      </trkpt>
      <trkpt lat="42.57246" lon="1.96822">
        <ele>2218</ele>
        <time>2018-07-07T07:59:29.000Z</time>
      </trkpt>
      <trkpt lat="42.57247" lon="1.96824">
        <ele>2218</ele>
        <time>2018-07-07T07:59:31.000Z</time>
      </trkpt>
      <trkpt lat="42.57249" lon="1.96826">
        <ele>2219</ele>
        <time>2018-07-07T07:59:33.000Z</time>
      </trkpt>
      <trkpt lat="42.5725" lon="1.96828">
        <ele>2220</ele>
        <time>2018-07-07T07:59:35.000Z</time>
      </trkpt>
      <trkpt lat="42.57252" lon="1.96829">
        <ele>2220</ele>
        <time>2018-07-07T07:59:37.000Z</time>
      </trkpt>
      <trkpt lat="42.57254" lon="1.96831">
        <ele>2220</ele>
        <time>2018-07-07T07:59:39.000Z</time>
      </trkpt>
      <trkpt lat="42.57256" lon="1.96832">
        <ele>2221</ele>
        <time>2018-07-07T07:59:41.000Z</time>
      </trkpt>
      <trkpt lat="42.57257" lon="1.96833">
        <ele>2221</ele>
        <time>2018-07-07T07:59:43.000Z</time>
      </trkpt>
      <trkpt lat="42.57259" lon="1.96835">
        <ele>2222</ele>
        <time>2018-07-07T07:59:46.000Z</time>
      </trkpt>
      <trkpt lat="42.57261" lon="1.96836">
        <ele>2223</ele>
        <time>2018-07-07T07:59:48.000Z</time>
      </trkpt>
      <trkpt lat="42.57264" lon="1.96836">
        <ele>2223</ele>
        <time>2018-07-07T07:59:50.000Z</time>
      </trkpt>
      <trkpt lat="42.57266" lon="1.96837">
        <ele>2224</ele>
        <time>2018-07-07T07:59:52.000Z</time>
      </trkpt>
      <trkpt lat="42.57268" lon="1.96838">
        <ele>2224</ele>
        <time>2018-07-07T07:59:54.000Z</time>
      </trkpt>
      <trkpt lat="42.57271" lon="1.96839">
        <ele>2225</ele>
        <time>2018-07-07T07:59:56.000Z</time>
      </trkpt>
      <trkpt lat="42.57273" lon="1.9684">
        <ele>2225</ele>
        <time>2018-07-07T07:59:59.000Z</time>
      </trkpt>
      <trkpt lat="42.57275" lon="1.96842">
        <ele>2225</ele>
        <time>2018-07-07T08:00:01.000Z</time>
      </trkpt>
      <trkpt lat="42.57277" lon="1.96844">
        <ele>2226</ele>
        <time>2018-07-07T08:00:03.000Z</time>
      </trkpt>
      <trkpt lat="42.57279" lon="1.96847">
        <ele>2226</ele>
        <time>2018-07-07T08:00:05.000Z</time>
      </trkpt>
      <trkpt lat="42.57281" lon="1.96848">
        <ele>2226</ele>
        <time>2018-07-07T08:00:08.000Z</time>
      </trkpt>
      <trkpt lat="42.57283" lon="1.9685">
        <ele>2227</ele>
        <time>2018-07-07T08:00:11.000Z</time>
      </trkpt>
      <trkpt lat="42.57284" lon="1.96853">
        <ele>2227</ele>
        <time>2018-07-07T08:00:13.000Z</time>
      </trkpt>
      <trkpt lat="42.57286" lon="1.96855">
        <ele>2227</ele>
        <time>2018-07-07T08:00:16.000Z</time>
      </trkpt>
      <trkpt lat="42.57287" lon="1.96857">
        <ele>2227</ele>
        <time>2018-07-07T08:00:18.000Z</time>
      </trkpt>
      <trkpt lat="42.57289" lon="1.96859">
        <ele>2228</ele>
        <time>2018-07-07T08:00:20.000Z</time>
      </trkpt>
      <trkpt lat="42.57291" lon="1.96862">
        <ele>2228</ele>
        <time>2018-07-07T08:00:22.000Z</time>
      </trkpt>
      <trkpt lat="42.57292" lon="1.96866">
        <ele>2228</ele>
        <time>2018-07-07T08:00:24.000Z</time>
      </trkpt>
      <trkpt lat="42.57294" lon="1.96868">
        <ele>2228</ele>
        <time>2018-07-07T08:00:26.000Z</time>
      </trkpt>
      <trkpt lat="42.57295" lon="1.96871">
        <ele>2228</ele>
        <time>2018-07-07T08:00:28.000Z</time>
      </trkpt>
      <trkpt lat="42.57297" lon="1.96872">
        <ele>2229</ele>
        <time>2018-07-07T08:00:30.000Z</time>
      </trkpt>
      <trkpt lat="42.57299" lon="1.96875">
        <ele>2229</ele>
        <time>2018-07-07T08:00:33.000Z</time>
      </trkpt>
      <trkpt lat="42.57301" lon="1.96878">
        <ele>2229</ele>
        <time>2018-07-07T08:00:34.000Z</time>
      </trkpt>
      <trkpt lat="42.57303" lon="1.96881">
        <ele>2229</ele>
        <time>2018-07-07T08:00:35.000Z</time>
      </trkpt>
      <trkpt lat="42.57304" lon="1.96884">
        <ele>2229</ele>
        <time>2018-07-07T08:00:36.000Z</time>
      </trkpt>
      <trkpt lat="42.57304" lon="1.96889">
        <ele>2230</ele>
        <time>2018-07-07T08:00:37.000Z</time>
      </trkpt>
      <trkpt lat="42.57304" lon="1.96892">
        <ele>2230</ele>
        <time>2018-07-07T08:00:38.000Z</time>
      </trkpt>
      <trkpt lat="42.57304" lon="1.96895">
        <ele>2230</ele>
        <time>2018-07-07T08:00:39.000Z</time>
      </trkpt>
      <trkpt lat="42.57303" lon="1.96899">
        <ele>2230</ele>
        <time>2018-07-07T08:00:40.000Z</time>
      </trkpt>
      <trkpt lat="42.57303" lon="1.96902">
        <ele>2230</ele>
        <time>2018-07-07T08:00:41.000Z</time>
      </trkpt>
      <trkpt lat="42.57304" lon="1.96905">
        <ele>2230</ele>
        <time>2018-07-07T08:00:42.000Z</time>
      </trkpt>
      <trkpt lat="42.57304" lon="1.96908">
        <ele>2230</ele>
        <time>2018-07-07T08:00:43.000Z</time>
      </trkpt>
      <trkpt lat="42.57304" lon="1.96912">
        <ele>2230</ele>
        <time>2018-07-07T08:00:44.000Z</time>
      </trkpt>
      <trkpt lat="42.57304" lon="1.96915">
        <ele>2230</ele>
        <time>2018-07-07T08:00:45.000Z</time>
      </trkpt>
      <trkpt lat="42.57303" lon="1.96918">
        <ele>2233</ele>
        <time>2018-07-07T08:00:46.000Z</time>
      </trkpt>
      <trkpt lat="42.57303" lon="1.96921">
        <ele>2233</ele>
        <time>2018-07-07T08:00:47.000Z</time>
      </trkpt>
      <trkpt lat="42.57303" lon="1.96924">
        <ele>2233</ele>
        <time>2018-07-07T08:00:48.000Z</time>
      </trkpt>
      <trkpt lat="42.57303" lon="1.96927">
        <ele>2233</ele>
        <time>2018-07-07T08:00:49.000Z</time>
      </trkpt>
      <trkpt lat="42.57302" lon="1.9693">
        <ele>2233</ele>
        <time>2018-07-07T08:00:50.000Z</time>
      </trkpt>
      <trkpt lat="42.573" lon="1.96933">
        <ele>2233</ele>
        <time>2018-07-07T08:00:52.000Z</time>
      </trkpt>
      <trkpt lat="42.57299" lon="1.96936">
        <ele>2233</ele>
        <time>2018-07-07T08:00:54.000Z</time>
      </trkpt>
      <trkpt lat="42.57299" lon="1.96939">
        <ele>2233</ele>
        <time>2018-07-07T08:00:56.000Z</time>
      </trkpt>
      <trkpt lat="42.57299" lon="1.96943">
        <ele>2233</ele>
        <time>2018-07-07T08:00:58.000Z</time>
      </trkpt>
      <trkpt lat="42.57299" lon="1.96946">
        <ele>2233</ele>
        <time>2018-07-07T08:01:00.000Z</time>
      </trkpt>
      <trkpt lat="42.57299" lon="1.96949">
        <ele>2233</ele>
        <time>2018-07-07T08:01:02.000Z</time>
      </trkpt>
      <trkpt lat="42.57298" lon="1.96951">
        <ele>2233</ele>
        <time>2018-07-07T08:01:04.000Z</time>
      </trkpt>
      <trkpt lat="42.57298" lon="1.96955">
        <ele>2233</ele>
        <time>2018-07-07T08:01:06.000Z</time>
      </trkpt>
      <trkpt lat="42.57298" lon="1.96958">
        <ele>2233</ele>
        <time>2018-07-07T08:01:08.000Z</time>
      </trkpt>
      <trkpt lat="42.57296" lon="1.96962">
        <ele>2233</ele>
        <time>2018-07-07T08:01:10.000Z</time>
      </trkpt>
      <trkpt lat="42.57295" lon="1.96965">
        <ele>2233</ele>
        <time>2018-07-07T08:01:11.000Z</time>
      </trkpt>
      <trkpt lat="42.57295" lon="1.96969">
        <ele>2233</ele>
        <time>2018-07-07T08:01:12.000Z</time>
      </trkpt>
      <trkpt lat="42.57294" lon="1.96972">
        <ele>2233</ele>
        <time>2018-07-07T08:01:13.000Z</time>
      </trkpt>
      <trkpt lat="42.57293" lon="1.96976">
        <ele>2233</ele>
        <time>2018-07-07T08:01:14.000Z</time>
      </trkpt>
      <trkpt lat="42.57293" lon="1.9698">
        <ele>2233</ele>
        <time>2018-07-07T08:01:15.000Z</time>
      </trkpt>
      <trkpt lat="42.57292" lon="1.96983">
        <ele>2233</ele>
        <time>2018-07-07T08:01:16.000Z</time>
      </trkpt>
      <trkpt lat="42.57291" lon="1.96986">
        <ele>2233</ele>
        <time>2018-07-07T08:01:17.000Z</time>
      </trkpt>
      <trkpt lat="42.5729" lon="1.9699">
        <ele>2233</ele>
        <time>2018-07-07T08:01:18.000Z</time>
      </trkpt>
      <trkpt lat="42.57289" lon="1.96993">
        <ele>2233</ele>
        <time>2018-07-07T08:01:19.000Z</time>
      </trkpt>
      <trkpt lat="42.57288" lon="1.96996">
        <ele>2233</ele>
        <time>2018-07-07T08:01:20.000Z</time>
      </trkpt>
      <trkpt lat="42.57287" lon="1.97">
        <ele>2233</ele>
        <time>2018-07-07T08:01:21.000Z</time>
      </trkpt>
      <trkpt lat="42.57286" lon="1.97003">
        <ele>2233</ele>
        <time>2018-07-07T08:01:22.000Z</time>
      </trkpt>
      <trkpt lat="42.57286" lon="1.97006">
        <ele>2233</ele>
        <time>2018-07-07T08:01:23.000Z</time>
      </trkpt>
      <trkpt lat="42.57285" lon="1.97009">
        <ele>2233</ele>
        <time>2018-07-07T08:01:24.000Z</time>
      </trkpt>
      <trkpt lat="42.57285" lon="1.97013">
        <ele>2233</ele>
        <time>2018-07-07T08:01:25.000Z</time>
      </trkpt>
      <trkpt lat="42.57285" lon="1.97016">
        <ele>2233</ele>
        <time>2018-07-07T08:01:26.000Z</time>
      </trkpt>
      <trkpt lat="42.57286" lon="1.9702">
        <ele>2233</ele>
        <time>2018-07-07T08:01:27.000Z</time>
      </trkpt>
      <trkpt lat="42.57287" lon="1.97023">
        <ele>2233</ele>
        <time>2018-07-07T08:01:28.000Z</time>
      </trkpt>
      <trkpt lat="42.57288" lon="1.97027">
        <ele>2233</ele>
        <time>2018-07-07T08:01:29.000Z</time>
      </trkpt>
      <trkpt lat="42.5729" lon="1.9703">
        <ele>2233</ele>
        <time>2018-07-07T08:01:30.000Z</time>
      </trkpt>
      <trkpt lat="42.57291" lon="1.97032">
        <ele>2233</ele>
        <time>2018-07-07T08:01:31.000Z</time>
      </trkpt>
      <trkpt lat="42.57292" lon="1.97034">
        <ele>2233</ele>
        <time>2018-07-07T08:01:32.000Z</time>
      </trkpt>
      <trkpt lat="42.57293" lon="1.97036">
        <ele>2233</ele>
        <time>2018-07-07T08:01:33.000Z</time>
      </trkpt>
      <trkpt lat="42.57294" lon="1.97039">
        <ele>2233</ele>
        <time>2018-07-07T08:01:34.000Z</time>
      </trkpt>
      <trkpt lat="42.57295" lon="1.97042">
        <ele>2233</ele>
        <time>2018-07-07T08:01:35.000Z</time>
      </trkpt>
      <trkpt lat="42.57296" lon="1.97044">
        <ele>2233</ele>
        <time>2018-07-07T08:01:36.000Z</time>
      </trkpt>
      <trkpt lat="42.57297" lon="1.97046">
        <ele>2233</ele>
        <time>2018-07-07T08:01:37.000Z</time>
      </trkpt>
      <trkpt lat="42.57297" lon="1.97049">
        <ele>2233</ele>
        <time>2018-07-07T08:01:38.000Z</time>
      </trkpt>
      <trkpt lat="42.57298" lon="1.97052">
        <ele>2233</ele>
        <time>2018-07-07T08:01:39.000Z</time>
      </trkpt>
      <trkpt lat="42.57298" lon="1.97054">
        <ele>2233</ele>
        <time>2018-07-07T08:01:40.000Z</time>
      </trkpt>
      <trkpt lat="42.57299" lon="1.97058">
        <ele>2233</ele>
        <time>2018-07-07T08:01:41.000Z</time>
      </trkpt>
      <trkpt lat="42.57298" lon="1.97061">
        <ele>2233</ele>
        <time>2018-07-07T08:01:42.000Z</time>
      </trkpt>
      <trkpt lat="42.57298" lon="1.97064">
        <ele>2232</ele>
        <time>2018-07-07T08:01:44.000Z</time>
      </trkpt>
      <trkpt lat="42.57299" lon="1.97067">
        <ele>2232</ele>
        <time>2018-07-07T08:01:46.000Z</time>
      </trkpt>
      <trkpt lat="42.573" lon="1.97069">
        <ele>2232</ele>
        <time>2018-07-07T08:01:49.000Z</time>
      </trkpt>
      <trkpt lat="42.57302" lon="1.97072">
        <ele>2232</ele>
        <time>2018-07-07T08:01:54.000Z</time>
      </trkpt>
      <trkpt lat="42.57304" lon="1.97076">
        <ele>2232</ele>
        <time>2018-07-07T08:01:56.000Z</time>
      </trkpt>
      <trkpt lat="42.57304" lon="1.9708">
        <ele>2232</ele>
        <time>2018-07-07T08:01:58.000Z</time>
      </trkpt>
      <trkpt lat="42.57305" lon="1.97084">
        <ele>2233</ele>
        <time>2018-07-07T08:02:00.000Z</time>
      </trkpt>
      <trkpt lat="42.57305" lon="1.97087">
        <ele>2233</ele>
        <time>2018-07-07T08:02:03.000Z</time>
      </trkpt>
      <trkpt lat="42.57307" lon="1.97089">
        <ele>2233</ele>
        <time>2018-07-07T08:02:04.000Z</time>
      </trkpt>
      <trkpt lat="42.57308" lon="1.97092">
        <ele>2233</ele>
        <time>2018-07-07T08:02:06.000Z</time>
      </trkpt>
      <trkpt lat="42.57307" lon="1.97097">
        <ele>2233</ele>
        <time>2018-07-07T08:02:08.000Z</time>
      </trkpt>
      <trkpt lat="42.57308" lon="1.97099">
        <ele>2233</ele>
        <time>2018-07-07T08:02:09.000Z</time>
      </trkpt>
      <trkpt lat="42.57308" lon="1.97102">
        <ele>2233</ele>
        <time>2018-07-07T08:02:10.000Z</time>
      </trkpt>
      <trkpt lat="42.57309" lon="1.97104">
        <ele>2233</ele>
        <time>2018-07-07T08:02:11.000Z</time>
      </trkpt>
      <trkpt lat="42.57309" lon="1.97108">
        <ele>2233</ele>
        <time>2018-07-07T08:02:13.000Z</time>
      </trkpt>
      <trkpt lat="42.57312" lon="1.97108">
        <ele>2233</ele>
        <time>2018-07-07T08:02:15.000Z</time>
      </trkpt>
      <trkpt lat="42.57314" lon="1.97109">
        <ele>2233</ele>
        <time>2018-07-07T08:02:17.000Z</time>
      </trkpt>
      <trkpt lat="42.57316" lon="1.97113">
        <ele>2233</ele>
        <time>2018-07-07T08:02:19.000Z</time>
      </trkpt>
      <trkpt lat="42.57317" lon="1.97115">
        <ele>2233</ele>
        <time>2018-07-07T08:02:20.000Z</time>
      </trkpt>
      <trkpt lat="42.57318" lon="1.97119">
        <ele>2233</ele>
        <time>2018-07-07T08:02:22.000Z</time>
      </trkpt>
      <trkpt lat="42.5732" lon="1.97121">
        <ele>2233</ele>
        <time>2018-07-07T08:02:23.000Z</time>
      </trkpt>
      <trkpt lat="42.57322" lon="1.97126">
        <ele>2233</ele>
        <time>2018-07-07T08:02:25.000Z</time>
      </trkpt>
      <trkpt lat="42.57323" lon="1.97128">
        <ele>2233</ele>
        <time>2018-07-07T08:02:26.000Z</time>
      </trkpt>
      <trkpt lat="42.57324" lon="1.97132">
        <ele>2233</ele>
        <time>2018-07-07T08:02:28.000Z</time>
      </trkpt>
      <trkpt lat="42.57326" lon="1.97134">
        <ele>2233</ele>
        <time>2018-07-07T08:02:30.000Z</time>
      </trkpt>
      <trkpt lat="42.57329" lon="1.97136">
        <ele>2233</ele>
        <time>2018-07-07T08:02:32.000Z</time>
      </trkpt>
      <trkpt lat="42.57331" lon="1.97137">
        <ele>2233</ele>
        <time>2018-07-07T08:02:33.000Z</time>
      </trkpt>
      <trkpt lat="42.57333" lon="1.97141">
        <ele>2233</ele>
        <time>2018-07-07T08:02:35.000Z</time>
      </trkpt>
      <trkpt lat="42.57335" lon="1.97143">
        <ele>2233</ele>
        <time>2018-07-07T08:02:36.000Z</time>
      </trkpt>
      <trkpt lat="42.57337" lon="1.97146">
        <ele>2233</ele>
        <time>2018-07-07T08:02:38.000Z</time>
      </trkpt>
      <trkpt lat="42.57339" lon="1.97147">
        <ele>2233</ele>
        <time>2018-07-07T08:02:39.000Z</time>
      </trkpt>
      <trkpt lat="42.57341" lon="1.97149">
        <ele>2233</ele>
        <time>2018-07-07T08:02:41.000Z</time>
      </trkpt>
      <trkpt lat="42.57343" lon="1.97152">
        <ele>2233</ele>
        <time>2018-07-07T08:02:43.000Z</time>
      </trkpt>
      <trkpt lat="42.57345" lon="1.97153">
        <ele>2233</ele>
        <time>2018-07-07T08:02:44.000Z</time>
      </trkpt>
      <trkpt lat="42.57346" lon="1.97155">
        <ele>2233</ele>
        <time>2018-07-07T08:02:45.000Z</time>
      </trkpt>
      <trkpt lat="42.57347" lon="1.9716">
        <ele>2233</ele>
        <time>2018-07-07T08:02:47.000Z</time>
      </trkpt>
      <trkpt lat="42.57349" lon="1.97164">
        <ele>2233</ele>
        <time>2018-07-07T08:02:49.000Z</time>
      </trkpt>
      <trkpt lat="42.5735" lon="1.97168">
        <ele>2234</ele>
        <time>2018-07-07T08:02:51.000Z</time>
      </trkpt>
      <trkpt lat="42.57351" lon="1.97172">
        <ele>2234</ele>
        <time>2018-07-07T08:02:53.000Z</time>
      </trkpt>
      <trkpt lat="42.57353" lon="1.97175">
        <ele>2235</ele>
        <time>2018-07-07T08:02:55.000Z</time>
      </trkpt>
      <trkpt lat="42.57354" lon="1.97177">
        <ele>2235</ele>
        <time>2018-07-07T08:02:57.000Z</time>
      </trkpt>
      <trkpt lat="42.57354" lon="1.9718">
        <ele>2235</ele>
        <time>2018-07-07T08:02:59.000Z</time>
      </trkpt>
      <trkpt lat="42.57355" lon="1.97184">
        <ele>2235</ele>
        <time>2018-07-07T08:03:01.000Z</time>
      </trkpt>
      <trkpt lat="42.57355" lon="1.97187">
        <ele>2235</ele>
        <time>2018-07-07T08:03:03.000Z</time>
      </trkpt>
      <trkpt lat="42.57354" lon="1.97189">
        <ele>2236</ele>
        <time>2018-07-07T08:03:05.000Z</time>
      </trkpt>
      <trkpt lat="42.57355" lon="1.97192">
        <ele>2236</ele>
        <time>2018-07-07T08:03:07.000Z</time>
      </trkpt>
      <trkpt lat="42.57355" lon="1.97194">
        <ele>2236</ele>
        <time>2018-07-07T08:03:09.000Z</time>
      </trkpt>
      <trkpt lat="42.57357" lon="1.97197">
        <ele>2236</ele>
        <time>2018-07-07T08:03:13.000Z</time>
      </trkpt>
      <trkpt lat="42.57358" lon="1.97199">
        <ele>2236</ele>
        <time>2018-07-07T08:03:15.000Z</time>
      </trkpt>
      <trkpt lat="42.5736" lon="1.972">
        <ele>2236</ele>
        <time>2018-07-07T08:03:18.000Z</time>
      </trkpt>
      <trkpt lat="42.57361" lon="1.97203">
        <ele>2237</ele>
        <time>2018-07-07T08:03:20.000Z</time>
      </trkpt>
      <trkpt lat="42.57361" lon="1.97206">
        <ele>2237</ele>
        <time>2018-07-07T08:03:22.000Z</time>
      </trkpt>
      <trkpt lat="42.57362" lon="1.97208">
        <ele>2237</ele>
        <time>2018-07-07T08:03:24.000Z</time>
      </trkpt>
      <trkpt lat="42.57363" lon="1.9721">
        <ele>2237</ele>
        <time>2018-07-07T08:03:26.000Z</time>
      </trkpt>
      <trkpt lat="42.57365" lon="1.97213">
        <ele>2237</ele>
        <time>2018-07-07T08:03:28.000Z</time>
      </trkpt>
      <trkpt lat="42.57366" lon="1.97215">
        <ele>2237</ele>
        <time>2018-07-07T08:03:30.000Z</time>
      </trkpt>
      <trkpt lat="42.57367" lon="1.97218">
        <ele>2237</ele>
        <time>2018-07-07T08:03:33.000Z</time>
      </trkpt>
      <trkpt lat="42.57366" lon="1.97221">
        <ele>2238</ele>
        <time>2018-07-07T08:03:35.000Z</time>
      </trkpt>
      <trkpt lat="42.57367" lon="1.97223">
        <ele>2238</ele>
        <time>2018-07-07T08:03:38.000Z</time>
      </trkpt>
      <trkpt lat="42.57367" lon="1.97226">
        <ele>2238</ele>
        <time>2018-07-07T08:03:41.000Z</time>
      </trkpt>
      <trkpt lat="42.57368" lon="1.9723">
        <ele>2238</ele>
        <time>2018-07-07T08:03:44.000Z</time>
      </trkpt>
      <trkpt lat="42.57368" lon="1.97233">
        <ele>2238</ele>
        <time>2018-07-07T08:03:46.000Z</time>
      </trkpt>
      <trkpt lat="42.57369" lon="1.97236">
        <ele>2238</ele>
        <time>2018-07-07T08:03:48.000Z</time>
      </trkpt>
      <trkpt lat="42.5737" lon="1.9724">
        <ele>2238</ele>
        <time>2018-07-07T08:03:50.000Z</time>
      </trkpt>
      <trkpt lat="42.57371" lon="1.97243">
        <ele>2238</ele>
        <time>2018-07-07T08:03:52.000Z</time>
      </trkpt>
      <trkpt lat="42.57372" lon="1.97247">
        <ele>2238</ele>
        <time>2018-07-07T08:03:54.000Z</time>
      </trkpt>
      <trkpt lat="42.57373" lon="1.97251">
        <ele>2241</ele>
        <time>2018-07-07T08:03:56.000Z</time>
      </trkpt>
      <trkpt lat="42.57374" lon="1.97255">
        <ele>2241</ele>
        <time>2018-07-07T08:03:58.000Z</time>
      </trkpt>
      <trkpt lat="42.57375" lon="1.97259">
        <ele>2241</ele>
        <time>2018-07-07T08:04:00.000Z</time>
      </trkpt>
      <trkpt lat="42.57377" lon="1.97262">
        <ele>2241</ele>
        <time>2018-07-07T08:04:02.000Z</time>
      </trkpt>
      <trkpt lat="42.57377" lon="1.97266">
        <ele>2241</ele>
        <time>2018-07-07T08:04:04.000Z</time>
      </trkpt>
      <trkpt lat="42.57377" lon="1.9727">
        <ele>2241</ele>
        <time>2018-07-07T08:04:06.000Z</time>
      </trkpt>
      <trkpt lat="42.57377" lon="1.97273">
        <ele>2241</ele>
        <time>2018-07-07T08:04:08.000Z</time>
      </trkpt>
      <trkpt lat="42.57377" lon="1.97277">
        <ele>2241</ele>
        <time>2018-07-07T08:04:10.000Z</time>
      </trkpt>
      <trkpt lat="42.57377" lon="1.97281">
        <ele>2241</ele>
        <time>2018-07-07T08:04:12.000Z</time>
      </trkpt>
      <trkpt lat="42.57379" lon="1.97283">
        <ele>2241</ele>
        <time>2018-07-07T08:04:14.000Z</time>
      </trkpt>
      <trkpt lat="42.57381" lon="1.97285">
        <ele>2241</ele>
        <time>2018-07-07T08:04:16.000Z</time>
      </trkpt>
      <trkpt lat="42.57382" lon="1.97288">
        <ele>2241</ele>
        <time>2018-07-07T08:04:18.000Z</time>
      </trkpt>
      <trkpt lat="42.57383" lon="1.97291">
        <ele>2241</ele>
        <time>2018-07-07T08:04:20.000Z</time>
      </trkpt>
      <trkpt lat="42.57383" lon="1.97295">
        <ele>2241</ele>
        <time>2018-07-07T08:04:22.000Z</time>
      </trkpt>
      <trkpt lat="42.57383" lon="1.97299">
        <ele>2241</ele>
        <time>2018-07-07T08:04:24.000Z</time>
      </trkpt>
      <trkpt lat="42.57383" lon="1.97302">
        <ele>2241</ele>
        <time>2018-07-07T08:04:26.000Z</time>
      </trkpt>
      <trkpt lat="42.57384" lon="1.97306">
        <ele>2241</ele>
        <time>2018-07-07T08:04:28.000Z</time>
      </trkpt>
      <trkpt lat="42.57385" lon="1.97309">
        <ele>2241</ele>
        <time>2018-07-07T08:04:30.000Z</time>
      </trkpt>
      <trkpt lat="42.57386" lon="1.97313">
        <ele>2241</ele>
        <time>2018-07-07T08:04:32.000Z</time>
      </trkpt>
      <trkpt lat="42.57387" lon="1.97317">
        <ele>2241</ele>
        <time>2018-07-07T08:04:34.000Z</time>
      </trkpt>
      <trkpt lat="42.57388" lon="1.9732">
        <ele>2241</ele>
        <time>2018-07-07T08:04:36.000Z</time>
      </trkpt>
      <trkpt lat="42.57388" lon="1.97324">
        <ele>2241</ele>
        <time>2018-07-07T08:04:38.000Z</time>
      </trkpt>
      <trkpt lat="42.57388" lon="1.97327">
        <ele>2241</ele>
        <time>2018-07-07T08:04:40.000Z</time>
      </trkpt>
      <trkpt lat="42.57388" lon="1.9733">
        <ele>2241</ele>
        <time>2018-07-07T08:04:42.000Z</time>
      </trkpt>
      <trkpt lat="42.57389" lon="1.97334">
        <ele>2242</ele>
        <time>2018-07-07T08:04:44.000Z</time>
      </trkpt>
      <trkpt lat="42.57388" lon="1.97337">
        <ele>2242</ele>
        <time>2018-07-07T08:04:46.000Z</time>
      </trkpt>
      <trkpt lat="42.57389" lon="1.9734">
        <ele>2242</ele>
        <time>2018-07-07T08:04:48.000Z</time>
      </trkpt>
      <trkpt lat="42.57389" lon="1.97344">
        <ele>2242</ele>
        <time>2018-07-07T08:04:50.000Z</time>
      </trkpt>
      <trkpt lat="42.57389" lon="1.97347">
        <ele>2242</ele>
        <time>2018-07-07T08:04:52.000Z</time>
      </trkpt>
      <trkpt lat="42.5739" lon="1.97351">
        <ele>2242</ele>
        <time>2018-07-07T08:04:54.000Z</time>
      </trkpt>
      <trkpt lat="42.57391" lon="1.97356">
        <ele>2242</ele>
        <time>2018-07-07T08:04:56.000Z</time>
      </trkpt>
      <trkpt lat="42.57391" lon="1.97359">
        <ele>2242</ele>
        <time>2018-07-07T08:04:58.000Z</time>
      </trkpt>
      <trkpt lat="42.57389" lon="1.97363">
        <ele>2242</ele>
        <time>2018-07-07T08:05:00.000Z</time>
      </trkpt>
      <trkpt lat="42.57388" lon="1.97367">
        <ele>2242</ele>
        <time>2018-07-07T08:05:02.000Z</time>
      </trkpt>
      <trkpt lat="42.57387" lon="1.97371">
        <ele>2242</ele>
        <time>2018-07-07T08:05:04.000Z</time>
      </trkpt>
      <trkpt lat="42.57386" lon="1.97374">
        <ele>2242</ele>
        <time>2018-07-07T08:05:05.000Z</time>
      </trkpt>
      <trkpt lat="42.57385" lon="1.97377">
        <ele>2242</ele>
        <time>2018-07-07T08:05:06.000Z</time>
      </trkpt>
      <trkpt lat="42.57384" lon="1.9738">
        <ele>2243</ele>
        <time>2018-07-07T08:05:07.000Z</time>
      </trkpt>
      <trkpt lat="42.57383" lon="1.97383">
        <ele>2243</ele>
        <time>2018-07-07T08:05:08.000Z</time>
      </trkpt>
      <trkpt lat="42.57382" lon="1.97386">
        <ele>2243</ele>
        <time>2018-07-07T08:05:09.000Z</time>
      </trkpt>
      <trkpt lat="42.57381" lon="1.97389">
        <ele>2243</ele>
        <time>2018-07-07T08:05:10.000Z</time>
      </trkpt>
      <trkpt lat="42.5738" lon="1.97392">
        <ele>2243</ele>
        <time>2018-07-07T08:05:11.000Z</time>
      </trkpt>
      <trkpt lat="42.57379" lon="1.97394">
        <ele>2243</ele>
        <time>2018-07-07T08:05:12.000Z</time>
      </trkpt>
      <trkpt lat="42.57378" lon="1.97397">
        <ele>2243</ele>
        <time>2018-07-07T08:05:13.000Z</time>
      </trkpt>
      <trkpt lat="42.57377" lon="1.97399">
        <ele>2243</ele>
        <time>2018-07-07T08:05:14.000Z</time>
      </trkpt>
      <trkpt lat="42.57376" lon="1.97402">
        <ele>2243</ele>
        <time>2018-07-07T08:05:15.000Z</time>
      </trkpt>
      <trkpt lat="42.57376" lon="1.97405">
        <ele>2243</ele>
        <time>2018-07-07T08:05:16.000Z</time>
      </trkpt>
      <trkpt lat="42.57375" lon="1.97407">
        <ele>2243</ele>
        <time>2018-07-07T08:05:17.000Z</time>
      </trkpt>
      <trkpt lat="42.57374" lon="1.97411">
        <ele>2243</ele>
        <time>2018-07-07T08:05:19.000Z</time>
      </trkpt>
      <trkpt lat="42.57373" lon="1.97415">
        <ele>2243</ele>
        <time>2018-07-07T08:05:21.000Z</time>
      </trkpt>
      <trkpt lat="42.57372" lon="1.97417">
        <ele>2243</ele>
        <time>2018-07-07T08:05:23.000Z</time>
      </trkpt>
      <trkpt lat="42.57371" lon="1.97419">
        <ele>2243</ele>
        <time>2018-07-07T08:05:25.000Z</time>
      </trkpt>
      <trkpt lat="42.5737" lon="1.97422">
        <ele>2243</ele>
        <time>2018-07-07T08:05:29.000Z</time>
      </trkpt>
      <trkpt lat="42.57369" lon="1.97424">
        <ele>2243</ele>
        <time>2018-07-07T08:05:47.000Z</time>
      </trkpt>
      <trkpt lat="42.57369" lon="1.97427">
        <ele>2243</ele>
        <time>2018-07-07T08:06:16.000Z</time>
      </trkpt>
      <trkpt lat="42.57368" lon="1.97429">
        <ele>2243</ele>
        <time>2018-07-07T08:06:47.000Z</time>
      </trkpt>
      <trkpt lat="42.57366" lon="1.97431">
        <ele>2243</ele>
        <time>2018-07-07T08:06:49.000Z</time>
      </trkpt>
      <trkpt lat="42.57365" lon="1.97434">
        <ele>2243</ele>
        <time>2018-07-07T08:06:51.000Z</time>
      </trkpt>
      <trkpt lat="42.57364" lon="1.97439">
        <ele>2243</ele>
        <time>2018-07-07T08:06:53.000Z</time>
      </trkpt>
      <trkpt lat="42.57363" lon="1.97442">
        <ele>2243</ele>
        <time>2018-07-07T08:06:54.000Z</time>
      </trkpt>
      <trkpt lat="42.57361" lon="1.97445">
        <ele>2243</ele>
        <time>2018-07-07T08:06:55.000Z</time>
      </trkpt>
      <trkpt lat="42.5736" lon="1.97448">
        <ele>2243</ele>
        <time>2018-07-07T08:06:56.000Z</time>
      </trkpt>
      <trkpt lat="42.57359" lon="1.97451">
        <ele>2243</ele>
        <time>2018-07-07T08:06:57.000Z</time>
      </trkpt>
      <trkpt lat="42.57358" lon="1.97454">
        <ele>2243</ele>
        <time>2018-07-07T08:06:58.000Z</time>
      </trkpt>
      <trkpt lat="42.57357" lon="1.97457">
        <ele>2243</ele>
        <time>2018-07-07T08:06:59.000Z</time>
      </trkpt>
      <trkpt lat="42.57355" lon="1.9746">
        <ele>2243</ele>
        <time>2018-07-07T08:07:00.000Z</time>
      </trkpt>
      <trkpt lat="42.57354" lon="1.97463">
        <ele>2243</ele>
        <time>2018-07-07T08:07:01.000Z</time>
      </trkpt>
      <trkpt lat="42.57352" lon="1.97466">
        <ele>2243</ele>
        <time>2018-07-07T08:07:02.000Z</time>
      </trkpt>
      <trkpt lat="42.57351" lon="1.97469">
        <ele>2243</ele>
        <time>2018-07-07T08:07:03.000Z</time>
      </trkpt>
      <trkpt lat="42.5735" lon="1.97473">
        <ele>2243</ele>
        <time>2018-07-07T08:07:04.000Z</time>
      </trkpt>
      <trkpt lat="42.57349" lon="1.97476">
        <ele>2243</ele>
        <time>2018-07-07T08:07:05.000Z</time>
      </trkpt>
      <trkpt lat="42.57347" lon="1.97479">
        <ele>2243</ele>
        <time>2018-07-07T08:07:06.000Z</time>
      </trkpt>
      <trkpt lat="42.57346" lon="1.97482">
        <ele>2243</ele>
        <time>2018-07-07T08:07:07.000Z</time>
      </trkpt>
      <trkpt lat="42.57344" lon="1.97485">
        <ele>2243</ele>
        <time>2018-07-07T08:07:08.000Z</time>
      </trkpt>
      <trkpt lat="42.57342" lon="1.97488">
        <ele>2242</ele>
        <time>2018-07-07T08:07:09.000Z</time>
      </trkpt>
      <trkpt lat="42.5734" lon="1.9749">
        <ele>2242</ele>
        <time>2018-07-07T08:07:10.000Z</time>
      </trkpt>
      <trkpt lat="42.57338" lon="1.97493">
        <ele>2242</ele>
        <time>2018-07-07T08:07:11.000Z</time>
      </trkpt>
      <trkpt lat="42.57336" lon="1.97495">
        <ele>2242</ele>
        <time>2018-07-07T08:07:12.000Z</time>
      </trkpt>
      <trkpt lat="42.57334" lon="1.97498">
        <ele>2242</ele>
        <time>2018-07-07T08:07:13.000Z</time>
      </trkpt>
      <trkpt lat="42.57331" lon="1.975">
        <ele>2242</ele>
        <time>2018-07-07T08:07:14.000Z</time>
      </trkpt>
      <trkpt lat="42.57329" lon="1.97502">
        <ele>2242</ele>
        <time>2018-07-07T08:07:15.000Z</time>
      </trkpt>
      <trkpt lat="42.57327" lon="1.97505">
        <ele>2242</ele>
        <time>2018-07-07T08:07:16.000Z</time>
      </trkpt>
      <trkpt lat="42.57325" lon="1.97508">
        <ele>2242</ele>
        <time>2018-07-07T08:07:17.000Z</time>
      </trkpt>
      <trkpt lat="42.57324" lon="1.9751">
        <ele>2242</ele>
        <time>2018-07-07T08:07:18.000Z</time>
      </trkpt>
      <trkpt lat="42.57322" lon="1.97513">
        <ele>2242</ele>
        <time>2018-07-07T08:07:19.000Z</time>
      </trkpt>
      <trkpt lat="42.5732" lon="1.97515">
        <ele>2242</ele>
        <time>2018-07-07T08:07:20.000Z</time>
      </trkpt>
      <trkpt lat="42.57319" lon="1.97517">
        <ele>2242</ele>
        <time>2018-07-07T08:07:21.000Z</time>
      </trkpt>
      <trkpt lat="42.57317" lon="1.97519">
        <ele>2242</ele>
        <time>2018-07-07T08:07:22.000Z</time>
      </trkpt>
      <trkpt lat="42.57316" lon="1.97523">
        <ele>2242</ele>
        <time>2018-07-07T08:07:24.000Z</time>
      </trkpt>
      <trkpt lat="42.57315" lon="1.97527">
        <ele>2242</ele>
        <time>2018-07-07T08:07:26.000Z</time>
      </trkpt>
      <trkpt lat="42.57314" lon="1.97531">
        <ele>2242</ele>
        <time>2018-07-07T08:07:28.000Z</time>
      </trkpt>
      <trkpt lat="42.57313" lon="1.97535">
        <ele>2242</ele>
        <time>2018-07-07T08:07:30.000Z</time>
      </trkpt>
      <trkpt lat="42.57312" lon="1.97538">
        <ele>2242</ele>
        <time>2018-07-07T08:07:31.000Z</time>
      </trkpt>
      <trkpt lat="42.5731" lon="1.9754">
        <ele>2242</ele>
        <time>2018-07-07T08:07:32.000Z</time>
      </trkpt>
      <trkpt lat="42.57309" lon="1.97543">
        <ele>2242</ele>
        <time>2018-07-07T08:07:33.000Z</time>
      </trkpt>
      <trkpt lat="42.57307" lon="1.97545">
        <ele>2242</ele>
        <time>2018-07-07T08:07:34.000Z</time>
      </trkpt>
      <trkpt lat="42.57306" lon="1.97548">
        <ele>2242</ele>
        <time>2018-07-07T08:07:35.000Z</time>
      </trkpt>
      <trkpt lat="42.57305" lon="1.97551">
        <ele>2241</ele>
        <time>2018-07-07T08:07:36.000Z</time>
      </trkpt>
      <trkpt lat="42.57303" lon="1.97553">
        <ele>2241</ele>
        <time>2018-07-07T08:07:37.000Z</time>
      </trkpt>
      <trkpt lat="42.57302" lon="1.97555">
        <ele>2241</ele>
        <time>2018-07-07T08:07:38.000Z</time>
      </trkpt>
      <trkpt lat="42.573" lon="1.97559">
        <ele>2241</ele>
        <time>2018-07-07T08:07:40.000Z</time>
      </trkpt>
      <trkpt lat="42.57298" lon="1.97562">
        <ele>2241</ele>
        <time>2018-07-07T08:07:42.000Z</time>
      </trkpt>
      <trkpt lat="42.57297" lon="1.97566">
        <ele>2241</ele>
        <time>2018-07-07T08:07:44.000Z</time>
      </trkpt>
      <trkpt lat="42.57296" lon="1.97568">
        <ele>2241</ele>
        <time>2018-07-07T08:07:45.000Z</time>
      </trkpt>
      <trkpt lat="42.57294" lon="1.97571">
        <ele>2241</ele>
        <time>2018-07-07T08:07:47.000Z</time>
      </trkpt>
      <trkpt lat="42.57293" lon="1.97573">
        <ele>2241</ele>
        <time>2018-07-07T08:07:49.000Z</time>
      </trkpt>
      <trkpt lat="42.57291" lon="1.97575">
        <ele>2241</ele>
        <time>2018-07-07T08:07:51.000Z</time>
      </trkpt>
      <trkpt lat="42.57289" lon="1.97579">
        <ele>2241</ele>
        <time>2018-07-07T08:07:53.000Z</time>
      </trkpt>
      <trkpt lat="42.57288" lon="1.97581">
        <ele>2241</ele>
        <time>2018-07-07T08:07:55.000Z</time>
      </trkpt>
      <trkpt lat="42.57287" lon="1.97584">
        <ele>2238</ele>
        <time>2018-07-07T08:07:57.000Z</time>
      </trkpt>
      <trkpt lat="42.57286" lon="1.97587">
        <ele>2238</ele>
        <time>2018-07-07T08:07:59.000Z</time>
      </trkpt>
      <trkpt lat="42.57284" lon="1.97591">
        <ele>2238</ele>
        <time>2018-07-07T08:08:01.000Z</time>
      </trkpt>
      <trkpt lat="42.57283" lon="1.97592">
        <ele>2238</ele>
        <time>2018-07-07T08:08:03.000Z</time>
      </trkpt>
      <trkpt lat="42.57281" lon="1.97595">
        <ele>2238</ele>
        <time>2018-07-07T08:08:05.000Z</time>
      </trkpt>
      <trkpt lat="42.57279" lon="1.97596">
        <ele>2238</ele>
        <time>2018-07-07T08:08:07.000Z</time>
      </trkpt>
      <trkpt lat="42.57278" lon="1.97598">
        <ele>2238</ele>
        <time>2018-07-07T08:08:09.000Z</time>
      </trkpt>
      <trkpt lat="42.57276" lon="1.97601">
        <ele>2238</ele>
        <time>2018-07-07T08:08:11.000Z</time>
      </trkpt>
      <trkpt lat="42.57275" lon="1.97604">
        <ele>2238</ele>
        <time>2018-07-07T08:08:13.000Z</time>
      </trkpt>
      <trkpt lat="42.57273" lon="1.97606">
        <ele>2238</ele>
        <time>2018-07-07T08:08:15.000Z</time>
      </trkpt>
      <trkpt lat="42.57272" lon="1.97609">
        <ele>2238</ele>
        <time>2018-07-07T08:08:17.000Z</time>
      </trkpt>
      <trkpt lat="42.57273" lon="1.97613">
        <ele>2238</ele>
        <time>2018-07-07T08:08:20.000Z</time>
      </trkpt>
      <trkpt lat="42.57272" lon="1.97618">
        <ele>2238</ele>
        <time>2018-07-07T08:08:22.000Z</time>
      </trkpt>
      <trkpt lat="42.57271" lon="1.97622">
        <ele>2238</ele>
        <time>2018-07-07T08:08:24.000Z</time>
      </trkpt>
      <trkpt lat="42.5727" lon="1.97625">
        <ele>2237</ele>
        <time>2018-07-07T08:08:25.000Z</time>
      </trkpt>
      <trkpt lat="42.57268" lon="1.97628">
        <ele>2237</ele>
        <time>2018-07-07T08:08:26.000Z</time>
      </trkpt>
      <trkpt lat="42.57267" lon="1.9763">
        <ele>2237</ele>
        <time>2018-07-07T08:08:27.000Z</time>
      </trkpt>
      <trkpt lat="42.57265" lon="1.97633">
        <ele>2237</ele>
        <time>2018-07-07T08:08:28.000Z</time>
      </trkpt>
      <trkpt lat="42.57263" lon="1.97635">
        <ele>2237</ele>
        <time>2018-07-07T08:08:29.000Z</time>
      </trkpt>
      <trkpt lat="42.57262" lon="1.97638">
        <ele>2237</ele>
        <time>2018-07-07T08:08:30.000Z</time>
      </trkpt>
      <trkpt lat="42.57261" lon="1.9764">
        <ele>2236</ele>
        <time>2018-07-07T08:08:31.000Z</time>
      </trkpt>
      <trkpt lat="42.5726" lon="1.97644">
        <ele>2236</ele>
        <time>2018-07-07T08:08:33.000Z</time>
      </trkpt>
      <trkpt lat="42.57259" lon="1.97647">
        <ele>2236</ele>
        <time>2018-07-07T08:08:35.000Z</time>
      </trkpt>
      <trkpt lat="42.57258" lon="1.9765">
        <ele>2235</ele>
        <time>2018-07-07T08:08:37.000Z</time>
      </trkpt>
      <trkpt lat="42.57257" lon="1.97655">
        <ele>2235</ele>
        <time>2018-07-07T08:08:39.000Z</time>
      </trkpt>
      <trkpt lat="42.57257" lon="1.97658">
        <ele>2234</ele>
        <time>2018-07-07T08:08:41.000Z</time>
      </trkpt>
      <trkpt lat="42.57256" lon="1.9766">
        <ele>2234</ele>
        <time>2018-07-07T08:08:47.000Z</time>
      </trkpt>
      <trkpt lat="42.57256" lon="1.97664">
        <ele>2233</ele>
        <time>2018-07-07T08:08:50.000Z</time>
      </trkpt>
      <trkpt lat="42.57255" lon="1.97667">
        <ele>2233</ele>
        <time>2018-07-07T08:08:51.000Z</time>
      </trkpt>
      <trkpt lat="42.57254" lon="1.9767">
        <ele>2233</ele>
        <time>2018-07-07T08:08:52.000Z</time>
      </trkpt>
      <trkpt lat="42.57252" lon="1.97672">
        <ele>2233</ele>
        <time>2018-07-07T08:08:53.000Z</time>
      </trkpt>
      <trkpt lat="42.5725" lon="1.97673">
        <ele>2234</ele>
        <time>2018-07-07T08:08:54.000Z</time>
      </trkpt>
      <trkpt lat="42.57248" lon="1.97675">
        <ele>2231</ele>
        <time>2018-07-07T08:08:55.000Z</time>
      </trkpt>
      <trkpt lat="42.57247" lon="1.97676">
        <ele>2231</ele>
        <time>2018-07-07T08:08:56.000Z</time>
      </trkpt>
      <trkpt lat="42.57245" lon="1.97678">
        <ele>2231</ele>
        <time>2018-07-07T08:08:57.000Z</time>
      </trkpt>
      <trkpt lat="42.57243" lon="1.9768">
        <ele>2231</ele>
        <time>2018-07-07T08:08:58.000Z</time>
      </trkpt>
      <trkpt lat="42.57242" lon="1.97682">
        <ele>2230</ele>
        <time>2018-07-07T08:08:59.000Z</time>
      </trkpt>
      <trkpt lat="42.57241" lon="1.97685">
        <ele>2230</ele>
        <time>2018-07-07T08:09:00.000Z</time>
      </trkpt>
      <trkpt lat="42.57239" lon="1.97687">
        <ele>2230</ele>
        <time>2018-07-07T08:09:01.000Z</time>
      </trkpt>
      <trkpt lat="42.57238" lon="1.97689">
        <ele>2230</ele>
        <time>2018-07-07T08:09:02.000Z</time>
      </trkpt>
      <trkpt lat="42.57236" lon="1.97693">
        <ele>2230</ele>
        <time>2018-07-07T08:09:04.000Z</time>
      </trkpt>
      <trkpt lat="42.57235" lon="1.97695">
        <ele>2230</ele>
        <time>2018-07-07T08:09:06.000Z</time>
      </trkpt>
      <trkpt lat="42.57235" lon="1.97698">
        <ele>2229</ele>
        <time>2018-07-07T08:09:09.000Z</time>
      </trkpt>
      <trkpt lat="42.57235" lon="1.97701">
        <ele>2229</ele>
        <time>2018-07-07T08:09:11.000Z</time>
      </trkpt>
      <trkpt lat="42.57235" lon="1.97705">
        <ele>2229</ele>
        <time>2018-07-07T08:09:13.000Z</time>
      </trkpt>
      <trkpt lat="42.57234" lon="1.97708">
        <ele>2229</ele>
        <time>2018-07-07T08:09:15.000Z</time>
      </trkpt>
      <trkpt lat="42.57232" lon="1.9771">
        <ele>2229</ele>
        <time>2018-07-07T08:09:17.000Z</time>
      </trkpt>
      <trkpt lat="42.57231" lon="1.97714">
        <ele>2229</ele>
        <time>2018-07-07T08:09:19.000Z</time>
      </trkpt>
      <trkpt lat="42.57229" lon="1.97717">
        <ele>2229</ele>
        <time>2018-07-07T08:09:21.000Z</time>
      </trkpt>
      <trkpt lat="42.57226" lon="1.97718">
        <ele>2228</ele>
        <time>2018-07-07T08:09:23.000Z</time>
      </trkpt>
      <trkpt lat="42.57223" lon="1.97719">
        <ele>2228</ele>
        <time>2018-07-07T08:09:25.000Z</time>
      </trkpt>
      <trkpt lat="42.57221" lon="1.97723">
        <ele>2228</ele>
        <time>2018-07-07T08:09:27.000Z</time>
      </trkpt>
      <trkpt lat="42.5722" lon="1.97727">
        <ele>2228</ele>
        <time>2018-07-07T08:09:29.000Z</time>
      </trkpt>
      <trkpt lat="42.57218" lon="1.97729">
        <ele>2228</ele>
        <time>2018-07-07T08:09:30.000Z</time>
      </trkpt>
      <trkpt lat="42.57217" lon="1.97732">
        <ele>2228</ele>
        <time>2018-07-07T08:09:31.000Z</time>
      </trkpt>
      <trkpt lat="42.57216" lon="1.97734">
        <ele>2228</ele>
        <time>2018-07-07T08:09:32.000Z</time>
      </trkpt>
      <trkpt lat="42.57214" lon="1.97737">
        <ele>2228</ele>
        <time>2018-07-07T08:09:33.000Z</time>
      </trkpt>
      <trkpt lat="42.57212" lon="1.9774">
        <ele>2227</ele>
        <time>2018-07-07T08:09:34.000Z</time>
      </trkpt>
      <trkpt lat="42.5721" lon="1.97742">
        <ele>2227</ele>
        <time>2018-07-07T08:09:35.000Z</time>
      </trkpt>
      <trkpt lat="42.57208" lon="1.97745">
        <ele>2227</ele>
        <time>2018-07-07T08:09:36.000Z</time>
      </trkpt>
      <trkpt lat="42.57206" lon="1.97748">
        <ele>2227</ele>
        <time>2018-07-07T08:09:37.000Z</time>
      </trkpt>
      <trkpt lat="42.57204" lon="1.9775">
        <ele>2227</ele>
        <time>2018-07-07T08:09:38.000Z</time>
      </trkpt>
      <trkpt lat="42.57202" lon="1.97751">
        <ele>2225</ele>
        <time>2018-07-07T08:09:39.000Z</time>
      </trkpt>
      <trkpt lat="42.572" lon="1.97753">
        <ele>2225</ele>
        <time>2018-07-07T08:09:40.000Z</time>
      </trkpt>
      <trkpt lat="42.57198" lon="1.97755">
        <ele>2225</ele>
        <time>2018-07-07T08:09:41.000Z</time>
      </trkpt>
      <trkpt lat="42.57196" lon="1.97757">
        <ele>2225</ele>
        <time>2018-07-07T08:09:42.000Z</time>
      </trkpt>
      <trkpt lat="42.57194" lon="1.97759">
        <ele>2225</ele>
        <time>2018-07-07T08:09:43.000Z</time>
      </trkpt>
      <trkpt lat="42.57193" lon="1.97762">
        <ele>2225</ele>
        <time>2018-07-07T08:09:44.000Z</time>
      </trkpt>
      <trkpt lat="42.57191" lon="1.97764">
        <ele>2225</ele>
        <time>2018-07-07T08:09:45.000Z</time>
      </trkpt>
      <trkpt lat="42.5719" lon="1.97766">
        <ele>2225</ele>
        <time>2018-07-07T08:09:46.000Z</time>
      </trkpt>
      <trkpt lat="42.57188" lon="1.97768">
        <ele>2225</ele>
        <time>2018-07-07T08:09:47.000Z</time>
      </trkpt>
      <trkpt lat="42.57186" lon="1.97772">
        <ele>2225</ele>
        <time>2018-07-07T08:09:49.000Z</time>
      </trkpt>
      <trkpt lat="42.57185" lon="1.97774">
        <ele>2225</ele>
        <time>2018-07-07T08:09:50.000Z</time>
      </trkpt>
      <trkpt lat="42.57184" lon="1.97776">
        <ele>2225</ele>
        <time>2018-07-07T08:09:51.000Z</time>
      </trkpt>
      <trkpt lat="42.57182" lon="1.97777">
        <ele>2224</ele>
        <time>2018-07-07T08:09:52.000Z</time>
      </trkpt>
      <trkpt lat="42.57181" lon="1.97779">
        <ele>2224</ele>
        <time>2018-07-07T08:09:53.000Z</time>
      </trkpt>
      <trkpt lat="42.57179" lon="1.97781">
        <ele>2224</ele>
        <time>2018-07-07T08:09:54.000Z</time>
      </trkpt>
      <trkpt lat="42.57178" lon="1.97783">
        <ele>2224</ele>
        <time>2018-07-07T08:09:55.000Z</time>
      </trkpt>
      <trkpt lat="42.57177" lon="1.97785">
        <ele>2224</ele>
        <time>2018-07-07T08:09:56.000Z</time>
      </trkpt>
      <trkpt lat="42.57175" lon="1.97789">
        <ele>2224</ele>
        <time>2018-07-07T08:09:58.000Z</time>
      </trkpt>
      <trkpt lat="42.57172" lon="1.97792">
        <ele>2224</ele>
        <time>2018-07-07T08:10:00.000Z</time>
      </trkpt>
      <trkpt lat="42.57171" lon="1.97794">
        <ele>2224</ele>
        <time>2018-07-07T08:10:01.000Z</time>
      </trkpt>
      <trkpt lat="42.57169" lon="1.97797">
        <ele>2223</ele>
        <time>2018-07-07T08:10:02.000Z</time>
      </trkpt>
      <trkpt lat="42.57168" lon="1.97799">
        <ele>2223</ele>
        <time>2018-07-07T08:10:03.000Z</time>
      </trkpt>
      <trkpt lat="42.57167" lon="1.97801">
        <ele>2223</ele>
        <time>2018-07-07T08:10:04.000Z</time>
      </trkpt>
      <trkpt lat="42.57166" lon="1.97803">
        <ele>2214</ele>
        <time>2018-07-07T08:10:05.000Z</time>
      </trkpt>
      <trkpt lat="42.57165" lon="1.97806">
        <ele>2214</ele>
        <time>2018-07-07T08:10:06.000Z</time>
      </trkpt>
      <trkpt lat="42.57164" lon="1.97808">
        <ele>2214</ele>
        <time>2018-07-07T08:10:07.000Z</time>
      </trkpt>
      <trkpt lat="42.57163" lon="1.9781">
        <ele>2214</ele>
        <time>2018-07-07T08:10:08.000Z</time>
      </trkpt>
      <trkpt lat="42.57161" lon="1.97815">
        <ele>2214</ele>
        <time>2018-07-07T08:10:10.000Z</time>
      </trkpt>
      <trkpt lat="42.5716" lon="1.97818">
        <ele>2214</ele>
        <time>2018-07-07T08:10:12.000Z</time>
      </trkpt>
      <trkpt lat="42.57159" lon="1.97823">
        <ele>2214</ele>
        <time>2018-07-07T08:10:14.000Z</time>
      </trkpt>
      <trkpt lat="42.57157" lon="1.97825">
        <ele>2214</ele>
        <time>2018-07-07T08:10:15.000Z</time>
      </trkpt>
      <trkpt lat="42.57157" lon="1.97827">
        <ele>2214</ele>
        <time>2018-07-07T08:10:16.000Z</time>
      </trkpt>
      <trkpt lat="42.57156" lon="1.97829">
        <ele>2214</ele>
        <time>2018-07-07T08:10:17.000Z</time>
      </trkpt>
      <trkpt lat="42.57154" lon="1.97832">
        <ele>2214</ele>
        <time>2018-07-07T08:10:18.000Z</time>
      </trkpt>
      <trkpt lat="42.57153" lon="1.97835">
        <ele>2213</ele>
        <time>2018-07-07T08:10:19.000Z</time>
      </trkpt>
      <trkpt lat="42.57151" lon="1.97837">
        <ele>2213</ele>
        <time>2018-07-07T08:10:20.000Z</time>
      </trkpt>
      <trkpt lat="42.57149" lon="1.97839">
        <ele>2212</ele>
        <time>2018-07-07T08:10:21.000Z</time>
      </trkpt>
      <trkpt lat="42.57147" lon="1.9784">
        <ele>2212</ele>
        <time>2018-07-07T08:10:22.000Z</time>
      </trkpt>
      <trkpt lat="42.57146" lon="1.97842">
        <ele>2212</ele>
        <time>2018-07-07T08:10:23.000Z</time>
      </trkpt>
      <trkpt lat="42.57144" lon="1.97844">
        <ele>2211</ele>
        <time>2018-07-07T08:10:24.000Z</time>
      </trkpt>
      <trkpt lat="42.57143" lon="1.97846">
        <ele>2211</ele>
        <time>2018-07-07T08:10:25.000Z</time>
      </trkpt>
      <trkpt lat="42.57141" lon="1.97849">
        <ele>2211</ele>
        <time>2018-07-07T08:10:26.000Z</time>
      </trkpt>
      <trkpt lat="42.5714" lon="1.97852">
        <ele>2210</ele>
        <time>2018-07-07T08:10:27.000Z</time>
      </trkpt>
      <trkpt lat="42.57138" lon="1.97854">
        <ele>2210</ele>
        <time>2018-07-07T08:10:28.000Z</time>
      </trkpt>
      <trkpt lat="42.57137" lon="1.97857">
        <ele>2210</ele>
        <time>2018-07-07T08:10:29.000Z</time>
      </trkpt>
      <trkpt lat="42.57136" lon="1.97859">
        <ele>2210</ele>
        <time>2018-07-07T08:10:30.000Z</time>
      </trkpt>
      <trkpt lat="42.57135" lon="1.97862">
        <ele>2210</ele>
        <time>2018-07-07T08:10:32.000Z</time>
      </trkpt>
      <trkpt lat="42.57133" lon="1.97866">
        <ele>2210</ele>
        <time>2018-07-07T08:10:34.000Z</time>
      </trkpt>
      <trkpt lat="42.57131" lon="1.97867">
        <ele>2209</ele>
        <time>2018-07-07T08:10:35.000Z</time>
      </trkpt>
      <trkpt lat="42.57129" lon="1.97869">
        <ele>2209</ele>
        <time>2018-07-07T08:10:37.000Z</time>
      </trkpt>
      <trkpt lat="42.57126" lon="1.97871">
        <ele>2209</ele>
        <time>2018-07-07T08:10:39.000Z</time>
      </trkpt>
      <trkpt lat="42.57124" lon="1.97872">
        <ele>2208</ele>
        <time>2018-07-07T08:10:40.000Z</time>
      </trkpt>
      <trkpt lat="42.5712" lon="1.97873">
        <ele>2208</ele>
        <time>2018-07-07T08:10:42.000Z</time>
      </trkpt>
      <trkpt lat="42.57118" lon="1.97874">
        <ele>2208</ele>
        <time>2018-07-07T08:10:43.000Z</time>
      </trkpt>
      <trkpt lat="42.57116" lon="1.97874">
        <ele>2207</ele>
        <time>2018-07-07T08:10:44.000Z</time>
      </trkpt>
      <trkpt lat="42.57114" lon="1.97873">
        <ele>2207</ele>
        <time>2018-07-07T08:10:45.000Z</time>
      </trkpt>
      <trkpt lat="42.57112" lon="1.97873">
        <ele>2207</ele>
        <time>2018-07-07T08:10:46.000Z</time>
      </trkpt>
      <trkpt lat="42.5711" lon="1.97873">
        <ele>2207</ele>
        <time>2018-07-07T08:10:47.000Z</time>
      </trkpt>
      <trkpt lat="42.57107" lon="1.97874">
        <ele>2206</ele>
        <time>2018-07-07T08:10:48.000Z</time>
      </trkpt>
      <trkpt lat="42.57105" lon="1.97874">
        <ele>2206</ele>
        <time>2018-07-07T08:10:50.000Z</time>
      </trkpt>
      <trkpt lat="42.57101" lon="1.97875">
        <ele>2206</ele>
        <time>2018-07-07T08:10:52.000Z</time>
      </trkpt>
      <trkpt lat="42.57098" lon="1.97876">
        <ele>2205</ele>
        <time>2018-07-07T08:10:54.000Z</time>
      </trkpt>
      <trkpt lat="42.57097" lon="1.97877">
        <ele>2205</ele>
        <time>2018-07-07T08:10:56.000Z</time>
      </trkpt>
      <trkpt lat="42.57095" lon="1.97878">
        <ele>2205</ele>
        <time>2018-07-07T08:10:58.000Z</time>
      </trkpt>
      <trkpt lat="42.57094" lon="1.9788">
        <ele>2205</ele>
        <time>2018-07-07T08:11:00.000Z</time>
      </trkpt>
      <trkpt lat="42.57093" lon="1.97883">
        <ele>2204</ele>
        <time>2018-07-07T08:11:02.000Z</time>
      </trkpt>
      <trkpt lat="42.57091" lon="1.97884">
        <ele>2204</ele>
        <time>2018-07-07T08:11:04.000Z</time>
      </trkpt>
      <trkpt lat="42.57089" lon="1.97885">
        <ele>2204</ele>
        <time>2018-07-07T08:11:05.000Z</time>
      </trkpt>
      <trkpt lat="42.57087" lon="1.97885">
        <ele>2203</ele>
        <time>2018-07-07T08:11:06.000Z</time>
      </trkpt>
      <trkpt lat="42.57085" lon="1.97886">
        <ele>2203</ele>
        <time>2018-07-07T08:11:08.000Z</time>
      </trkpt>
      <trkpt lat="42.57083" lon="1.97889">
        <ele>2193</ele>
        <time>2018-07-07T08:11:11.000Z</time>
      </trkpt>
      <trkpt lat="42.57081" lon="1.97891">
        <ele>2193</ele>
        <time>2018-07-07T08:11:13.000Z</time>
      </trkpt>
      <trkpt lat="42.5708" lon="1.97893">
        <ele>2193</ele>
        <time>2018-07-07T08:11:15.000Z</time>
      </trkpt>
      <trkpt lat="42.5708" lon="1.97896">
        <ele>2192</ele>
        <time>2018-07-07T08:11:17.000Z</time>
      </trkpt>
      <trkpt lat="42.57078" lon="1.97898">
        <ele>2192</ele>
        <time>2018-07-07T08:11:19.000Z</time>
      </trkpt>
      <trkpt lat="42.57075" lon="1.97899">
        <ele>2192</ele>
        <time>2018-07-07T08:11:21.000Z</time>
      </trkpt>
      <trkpt lat="42.57073" lon="1.97901">
        <ele>2192</ele>
        <time>2018-07-07T08:11:23.000Z</time>
      </trkpt>
      <trkpt lat="42.57071" lon="1.97903">
        <ele>2192</ele>
        <time>2018-07-07T08:11:25.000Z</time>
      </trkpt>
      <trkpt lat="42.5707" lon="1.97906">
        <ele>2192</ele>
        <time>2018-07-07T08:11:29.000Z</time>
      </trkpt>
      <trkpt lat="42.57067" lon="1.97909">
        <ele>2192</ele>
        <time>2018-07-07T08:11:31.000Z</time>
      </trkpt>
      <trkpt lat="42.57066" lon="1.9791">
        <ele>2192</ele>
        <time>2018-07-07T08:11:32.000Z</time>
      </trkpt>
      <trkpt lat="42.57064" lon="1.97911">
        <ele>2192</ele>
        <time>2018-07-07T08:11:33.000Z</time>
      </trkpt>
      <trkpt lat="42.57062" lon="1.97912">
        <ele>2192</ele>
        <time>2018-07-07T08:11:34.000Z</time>
      </trkpt>
      <trkpt lat="42.57059" lon="1.97913">
        <ele>2191</ele>
        <time>2018-07-07T08:11:35.000Z</time>
      </trkpt>
      <trkpt lat="42.57057" lon="1.97914">
        <ele>2191</ele>
        <time>2018-07-07T08:11:36.000Z</time>
      </trkpt>
      <trkpt lat="42.57055" lon="1.97915">
        <ele>2191</ele>
        <time>2018-07-07T08:11:37.000Z</time>
      </trkpt>
      <trkpt lat="42.57053" lon="1.97917">
        <ele>2190</ele>
        <time>2018-07-07T08:11:38.000Z</time>
      </trkpt>
      <trkpt lat="42.57051" lon="1.97918">
        <ele>2189</ele>
        <time>2018-07-07T08:11:39.000Z</time>
      </trkpt>
      <trkpt lat="42.57048" lon="1.9792">
        <ele>2189</ele>
        <time>2018-07-07T08:11:40.000Z</time>
      </trkpt>
      <trkpt lat="42.57045" lon="1.97921">
        <ele>2189</ele>
        <time>2018-07-07T08:11:41.000Z</time>
      </trkpt>
      <trkpt lat="42.57043" lon="1.97921">
        <ele>2189</ele>
        <time>2018-07-07T08:11:42.000Z</time>
      </trkpt>
      <trkpt lat="42.57041" lon="1.97922">
        <ele>2189</ele>
        <time>2018-07-07T08:11:43.000Z</time>
      </trkpt>
      <trkpt lat="42.57039" lon="1.97923">
        <ele>2188</ele>
        <time>2018-07-07T08:11:44.000Z</time>
      </trkpt>
      <trkpt lat="42.57036" lon="1.97925">
        <ele>2188</ele>
        <time>2018-07-07T08:11:45.000Z</time>
      </trkpt>
      <trkpt lat="42.57034" lon="1.97928">
        <ele>2188</ele>
        <time>2018-07-07T08:11:46.000Z</time>
      </trkpt>
      <trkpt lat="42.57032" lon="1.9793">
        <ele>2188</ele>
        <time>2018-07-07T08:11:47.000Z</time>
      </trkpt>
      <trkpt lat="42.5703" lon="1.97933">
        <ele>2188</ele>
        <time>2018-07-07T08:11:48.000Z</time>
      </trkpt>
      <trkpt lat="42.57029" lon="1.97936">
        <ele>2188</ele>
        <time>2018-07-07T08:11:49.000Z</time>
      </trkpt>
      <trkpt lat="42.57027" lon="1.97939">
        <ele>2188</ele>
        <time>2018-07-07T08:11:50.000Z</time>
      </trkpt>
      <trkpt lat="42.57025" lon="1.97941">
        <ele>2188</ele>
        <time>2018-07-07T08:11:51.000Z</time>
      </trkpt>
      <trkpt lat="42.57024" lon="1.97945">
        <ele>2188</ele>
        <time>2018-07-07T08:11:53.000Z</time>
      </trkpt>
      <trkpt lat="42.57026" lon="1.97946">
        <ele>2188</ele>
        <time>2018-07-07T08:11:55.000Z</time>
      </trkpt>
      <trkpt lat="42.57024" lon="1.97949">
        <ele>2188</ele>
        <time>2018-07-07T08:11:57.000Z</time>
      </trkpt>
      <trkpt lat="42.57022" lon="1.9795">
        <ele>2187</ele>
        <time>2018-07-07T08:11:58.000Z</time>
      </trkpt>
      <trkpt lat="42.57021" lon="1.97951">
        <ele>2187</ele>
        <time>2018-07-07T08:11:59.000Z</time>
      </trkpt>
      <trkpt lat="42.57019" lon="1.97952">
        <ele>2187</ele>
        <time>2018-07-07T08:12:00.000Z</time>
      </trkpt>
      <trkpt lat="42.57017" lon="1.97953">
        <ele>2187</ele>
        <time>2018-07-07T08:12:01.000Z</time>
      </trkpt>
      <trkpt lat="42.57013" lon="1.97954">
        <ele>2187</ele>
        <time>2018-07-07T08:12:03.000Z</time>
      </trkpt>
      <trkpt lat="42.57012" lon="1.97955">
        <ele>2187</ele>
        <time>2018-07-07T08:12:04.000Z</time>
      </trkpt>
      <trkpt lat="42.5701" lon="1.97956">
        <ele>2187</ele>
        <time>2018-07-07T08:12:05.000Z</time>
      </trkpt>
      <trkpt lat="42.57007" lon="1.97956">
        <ele>2187</ele>
        <time>2018-07-07T08:12:06.000Z</time>
      </trkpt>
      <trkpt lat="42.57005" lon="1.97955">
        <ele>2187</ele>
        <time>2018-07-07T08:12:07.000Z</time>
      </trkpt>
      <trkpt lat="42.57003" lon="1.97953">
        <ele>2187</ele>
        <time>2018-07-07T08:12:08.000Z</time>
      </trkpt>
      <trkpt lat="42.57002" lon="1.97951">
        <ele>2187</ele>
        <time>2018-07-07T08:12:09.000Z</time>
      </trkpt>
      <trkpt lat="42.57001" lon="1.97948">
        <ele>2187</ele>
        <time>2018-07-07T08:12:10.000Z</time>
      </trkpt>
      <trkpt lat="42.56999" lon="1.97945">
        <ele>2184</ele>
        <time>2018-07-07T08:12:12.000Z</time>
      </trkpt>
      <trkpt lat="42.56998" lon="1.97942">
        <ele>2184</ele>
        <time>2018-07-07T08:12:14.000Z</time>
      </trkpt>
      <trkpt lat="42.56997" lon="1.97941">
        <ele>2184</ele>
        <time>2018-07-07T08:12:16.000Z</time>
      </trkpt>
      <trkpt lat="42.56994" lon="1.97942">
        <ele>2184</ele>
        <time>2018-07-07T08:12:18.000Z</time>
      </trkpt>
      <trkpt lat="42.56992" lon="1.97942">
        <ele>2184</ele>
        <time>2018-07-07T08:12:19.000Z</time>
      </trkpt>
      <trkpt lat="42.5699" lon="1.97941">
        <ele>2184</ele>
        <time>2018-07-07T08:12:20.000Z</time>
      </trkpt>
      <trkpt lat="42.56988" lon="1.97939">
        <ele>2184</ele>
        <time>2018-07-07T08:12:21.000Z</time>
      </trkpt>
      <trkpt lat="42.56987" lon="1.97937">
        <ele>2184</ele>
        <time>2018-07-07T08:12:22.000Z</time>
      </trkpt>
      <trkpt lat="42.56985" lon="1.97936">
        <ele>2184</ele>
        <time>2018-07-07T08:12:23.000Z</time>
      </trkpt>
      <trkpt lat="42.56982" lon="1.97934">
        <ele>2184</ele>
        <time>2018-07-07T08:12:25.000Z</time>
      </trkpt>
      <trkpt lat="42.5698" lon="1.97934">
        <ele>2184</ele>
        <time>2018-07-07T08:12:27.000Z</time>
      </trkpt>
      <trkpt lat="42.56978" lon="1.97934">
        <ele>2184</ele>
        <time>2018-07-07T08:12:30.000Z</time>
      </trkpt>
      <trkpt lat="42.56975" lon="1.97936">
        <ele>2184</ele>
        <time>2018-07-07T08:12:33.000Z</time>
      </trkpt>
      <trkpt lat="42.56973" lon="1.97938">
        <ele>2184</ele>
        <time>2018-07-07T08:12:35.000Z</time>
      </trkpt>
      <trkpt lat="42.56971" lon="1.9794">
        <ele>2184</ele>
        <time>2018-07-07T08:12:36.000Z</time>
      </trkpt>
      <trkpt lat="42.5697" lon="1.97942">
        <ele>2184</ele>
        <time>2018-07-07T08:12:37.000Z</time>
      </trkpt>
      <trkpt lat="42.56968" lon="1.97944">
        <ele>2184</ele>
        <time>2018-07-07T08:12:39.000Z</time>
      </trkpt>
      <trkpt lat="42.56966" lon="1.97946">
        <ele>2184</ele>
        <time>2018-07-07T08:12:40.000Z</time>
      </trkpt>
      <trkpt lat="42.56965" lon="1.97949">
        <ele>2184</ele>
        <time>2018-07-07T08:12:42.000Z</time>
      </trkpt>
      <trkpt lat="42.56964" lon="1.97954">
        <ele>2184</ele>
        <time>2018-07-07T08:12:44.000Z</time>
      </trkpt>
      <trkpt lat="42.56963" lon="1.97957">
        <ele>2184</ele>
        <time>2018-07-07T08:12:45.000Z</time>
      </trkpt>
      <trkpt lat="42.56961" lon="1.9796">
        <ele>2184</ele>
        <time>2018-07-07T08:12:46.000Z</time>
      </trkpt>
      <trkpt lat="42.5696" lon="1.97962">
        <ele>2184</ele>
        <time>2018-07-07T08:12:47.000Z</time>
      </trkpt>
      <trkpt lat="42.56958" lon="1.97965">
        <ele>2184</ele>
        <time>2018-07-07T08:12:48.000Z</time>
      </trkpt>
      <trkpt lat="42.56957" lon="1.97967">
        <ele>2184</ele>
        <time>2018-07-07T08:12:49.000Z</time>
      </trkpt>
      <trkpt lat="42.56955" lon="1.9797">
        <ele>2184</ele>
        <time>2018-07-07T08:12:50.000Z</time>
      </trkpt>
      <trkpt lat="42.56952" lon="1.97971">
        <ele>2184</ele>
        <time>2018-07-07T08:12:51.000Z</time>
      </trkpt>
      <trkpt lat="42.56951" lon="1.97973">
        <ele>2184</ele>
        <time>2018-07-07T08:12:52.000Z</time>
      </trkpt>
      <trkpt lat="42.56949" lon="1.97976">
        <ele>2184</ele>
        <time>2018-07-07T08:12:54.000Z</time>
      </trkpt>
      <trkpt lat="42.56946" lon="1.97978">
        <ele>2184</ele>
        <time>2018-07-07T08:12:56.000Z</time>
      </trkpt>
      <trkpt lat="42.56944" lon="1.97982">
        <ele>2184</ele>
        <time>2018-07-07T08:12:58.000Z</time>
      </trkpt>
      <trkpt lat="42.56943" lon="1.97985">
        <ele>2184</ele>
        <time>2018-07-07T08:13:00.000Z</time>
      </trkpt>
      <trkpt lat="42.56942" lon="1.97989">
        <ele>2184</ele>
        <time>2018-07-07T08:13:02.000Z</time>
      </trkpt>
      <trkpt lat="42.5694" lon="1.97993">
        <ele>2184</ele>
        <time>2018-07-07T08:13:04.000Z</time>
      </trkpt>
      <trkpt lat="42.5694" lon="1.97996">
        <ele>2184</ele>
        <time>2018-07-07T08:13:05.000Z</time>
      </trkpt>
      <trkpt lat="42.56939" lon="1.97998">
        <ele>2184</ele>
        <time>2018-07-07T08:13:06.000Z</time>
      </trkpt>
      <trkpt lat="42.56936" lon="1.98">
        <ele>2184</ele>
        <time>2018-07-07T08:13:07.000Z</time>
      </trkpt>
      <trkpt lat="42.56934" lon="1.98002">
        <ele>2184</ele>
        <time>2018-07-07T08:13:08.000Z</time>
      </trkpt>
      <trkpt lat="42.56932" lon="1.98004">
        <ele>2184</ele>
        <time>2018-07-07T08:13:09.000Z</time>
      </trkpt>
      <trkpt lat="42.56931" lon="1.98007">
        <ele>2184</ele>
        <time>2018-07-07T08:13:10.000Z</time>
      </trkpt>
      <trkpt lat="42.5693" lon="1.98009">
        <ele>2184</ele>
        <time>2018-07-07T08:13:11.000Z</time>
      </trkpt>
      <trkpt lat="42.56929" lon="1.98013">
        <ele>2184</ele>
        <time>2018-07-07T08:13:12.000Z</time>
      </trkpt>
      <trkpt lat="42.56928" lon="1.98016">
        <ele>2184</ele>
        <time>2018-07-07T08:13:13.000Z</time>
      </trkpt>
      <trkpt lat="42.56926" lon="1.98019">
        <ele>2184</ele>
        <time>2018-07-07T08:13:14.000Z</time>
      </trkpt>
      <trkpt lat="42.56924" lon="1.98022">
        <ele>2184</ele>
        <time>2018-07-07T08:13:15.000Z</time>
      </trkpt>
      <trkpt lat="42.56921" lon="1.98025">
        <ele>2184</ele>
        <time>2018-07-07T08:13:16.000Z</time>
      </trkpt>
      <trkpt lat="42.56918" lon="1.98028">
        <ele>2184</ele>
        <time>2018-07-07T08:13:17.000Z</time>
      </trkpt>
      <trkpt lat="42.56916" lon="1.98031">
        <ele>2183</ele>
        <time>2018-07-07T08:13:18.000Z</time>
      </trkpt>
      <trkpt lat="42.56913" lon="1.98033">
        <ele>2183</ele>
        <time>2018-07-07T08:13:19.000Z</time>
      </trkpt>
      <trkpt lat="42.56912" lon="1.98035">
        <ele>2183</ele>
        <time>2018-07-07T08:13:20.000Z</time>
      </trkpt>
      <trkpt lat="42.5691" lon="1.98037">
        <ele>2183</ele>
        <time>2018-07-07T08:13:21.000Z</time>
      </trkpt>
      <trkpt lat="42.56908" lon="1.9804">
        <ele>2183</ele>
        <time>2018-07-07T08:13:22.000Z</time>
      </trkpt>
      <trkpt lat="42.56906" lon="1.98042">
        <ele>2182</ele>
        <time>2018-07-07T08:13:23.000Z</time>
      </trkpt>
      <trkpt lat="42.56905" lon="1.98044">
        <ele>2182</ele>
        <time>2018-07-07T08:13:24.000Z</time>
      </trkpt>
      <trkpt lat="42.56904" lon="1.98046">
        <ele>2182</ele>
        <time>2018-07-07T08:13:25.000Z</time>
      </trkpt>
      <trkpt lat="42.56902" lon="1.98049">
        <ele>2182</ele>
        <time>2018-07-07T08:13:26.000Z</time>
      </trkpt>
      <trkpt lat="42.56901" lon="1.98051">
        <ele>2182</ele>
        <time>2018-07-07T08:13:27.000Z</time>
      </trkpt>
      <trkpt lat="42.56899" lon="1.98053">
        <ele>2182</ele>
        <time>2018-07-07T08:13:28.000Z</time>
      </trkpt>
      <trkpt lat="42.56897" lon="1.98055">
        <ele>2182</ele>
        <time>2018-07-07T08:13:29.000Z</time>
      </trkpt>
      <trkpt lat="42.56895" lon="1.98057">
        <ele>2182</ele>
        <time>2018-07-07T08:13:30.000Z</time>
      </trkpt>
      <trkpt lat="42.56892" lon="1.98059">
        <ele>2182</ele>
        <time>2018-07-07T08:13:31.000Z</time>
      </trkpt>
      <trkpt lat="42.5689" lon="1.9806">
        <ele>2182</ele>
        <time>2018-07-07T08:13:32.000Z</time>
      </trkpt>
      <trkpt lat="42.56888" lon="1.98061">
        <ele>2182</ele>
        <time>2018-07-07T08:13:33.000Z</time>
      </trkpt>
      <trkpt lat="42.56886" lon="1.98063">
        <ele>2182</ele>
        <time>2018-07-07T08:13:34.000Z</time>
      </trkpt>
      <trkpt lat="42.56883" lon="1.98065">
        <ele>2182</ele>
        <time>2018-07-07T08:13:35.000Z</time>
      </trkpt>
      <trkpt lat="42.56881" lon="1.98066">
        <ele>2182</ele>
        <time>2018-07-07T08:13:36.000Z</time>
      </trkpt>
      <trkpt lat="42.56879" lon="1.98067">
        <ele>2182</ele>
        <time>2018-07-07T08:13:37.000Z</time>
      </trkpt>
      <trkpt lat="42.56877" lon="1.98067">
        <ele>2182</ele>
        <time>2018-07-07T08:13:38.000Z</time>
      </trkpt>
      <trkpt lat="42.56875" lon="1.98067">
        <ele>2182</ele>
        <time>2018-07-07T08:13:39.000Z</time>
      </trkpt>
      <trkpt lat="42.56873" lon="1.98068">
        <ele>2182</ele>
        <time>2018-07-07T08:13:40.000Z</time>
      </trkpt>
      <trkpt lat="42.56872" lon="1.98068">
        <ele>2182</ele>
        <time>2018-07-07T08:13:41.000Z</time>
      </trkpt>
      <trkpt lat="42.5687" lon="1.9807">
        <ele>2181</ele>
        <time>2018-07-07T08:13:42.000Z</time>
      </trkpt>
      <trkpt lat="42.56867" lon="1.98072">
        <ele>2181</ele>
        <time>2018-07-07T08:13:43.000Z</time>
      </trkpt>
      <trkpt lat="42.56865" lon="1.98073">
        <ele>2181</ele>
        <time>2018-07-07T08:13:44.000Z</time>
      </trkpt>
      <trkpt lat="42.56862" lon="1.98075">
        <ele>2181</ele>
        <time>2018-07-07T08:13:45.000Z</time>
      </trkpt>
      <trkpt lat="42.56859" lon="1.98075">
        <ele>2181</ele>
        <time>2018-07-07T08:13:46.000Z</time>
      </trkpt>
      <trkpt lat="42.56857" lon="1.98076">
        <ele>2181</ele>
        <time>2018-07-07T08:13:47.000Z</time>
      </trkpt>
      <trkpt lat="42.56855" lon="1.98077">
        <ele>2181</ele>
        <time>2018-07-07T08:13:48.000Z</time>
      </trkpt>
      <trkpt lat="42.56853" lon="1.98078">
        <ele>2181</ele>
        <time>2018-07-07T08:13:49.000Z</time>
      </trkpt>
      <trkpt lat="42.56851" lon="1.98079">
        <ele>2181</ele>
        <time>2018-07-07T08:13:50.000Z</time>
      </trkpt>
      <trkpt lat="42.56849" lon="1.98079">
        <ele>2180</ele>
        <time>2018-07-07T08:13:51.000Z</time>
      </trkpt>
      <trkpt lat="42.56845" lon="1.9808">
        <ele>2180</ele>
        <time>2018-07-07T08:13:53.000Z</time>
      </trkpt>
      <trkpt lat="42.56843" lon="1.98081">
        <ele>2180</ele>
        <time>2018-07-07T08:13:54.000Z</time>
      </trkpt>
      <trkpt lat="42.56841" lon="1.98081">
        <ele>2180</ele>
        <time>2018-07-07T08:13:55.000Z</time>
      </trkpt>
      <trkpt lat="42.56839" lon="1.98082">
        <ele>2180</ele>
        <time>2018-07-07T08:13:56.000Z</time>
      </trkpt>
      <trkpt lat="42.56837" lon="1.98083">
        <ele>2179</ele>
        <time>2018-07-07T08:13:57.000Z</time>
      </trkpt>
      <trkpt lat="42.56834" lon="1.98084">
        <ele>2179</ele>
        <time>2018-07-07T08:13:58.000Z</time>
      </trkpt>
      <trkpt lat="42.56832" lon="1.98087">
        <ele>2179</ele>
        <time>2018-07-07T08:13:59.000Z</time>
      </trkpt>
      <trkpt lat="42.5683" lon="1.98089">
        <ele>2179</ele>
        <time>2018-07-07T08:14:00.000Z</time>
      </trkpt>
      <trkpt lat="42.56828" lon="1.98092">
        <ele>2179</ele>
        <time>2018-07-07T08:14:01.000Z</time>
      </trkpt>
      <trkpt lat="42.56827" lon="1.98093">
        <ele>2179</ele>
        <time>2018-07-07T08:14:02.000Z</time>
      </trkpt>
      <trkpt lat="42.56826" lon="1.98096">
        <ele>2180</ele>
        <time>2018-07-07T08:14:03.000Z</time>
      </trkpt>
      <trkpt lat="42.56825" lon="1.98099">
        <ele>2180</ele>
        <time>2018-07-07T08:14:04.000Z</time>
      </trkpt>
      <trkpt lat="42.56824" lon="1.98101">
        <ele>2180</ele>
        <time>2018-07-07T08:14:05.000Z</time>
      </trkpt>
      <trkpt lat="42.56822" lon="1.98104">
        <ele>2180</ele>
        <time>2018-07-07T08:14:06.000Z</time>
      </trkpt>
      <trkpt lat="42.56821" lon="1.98106">
        <ele>2180</ele>
        <time>2018-07-07T08:14:07.000Z</time>
      </trkpt>
      <trkpt lat="42.5682" lon="1.98108">
        <ele>2180</ele>
        <time>2018-07-07T08:14:08.000Z</time>
      </trkpt>
      <trkpt lat="42.56819" lon="1.98111">
        <ele>2180</ele>
        <time>2018-07-07T08:14:09.000Z</time>
      </trkpt>
      <trkpt lat="42.56818" lon="1.98113">
        <ele>2180</ele>
        <time>2018-07-07T08:14:10.000Z</time>
      </trkpt>
      <trkpt lat="42.56817" lon="1.98116">
        <ele>2180</ele>
        <time>2018-07-07T08:14:11.000Z</time>
      </trkpt>
      <trkpt lat="42.56815" lon="1.98118">
        <ele>2180</ele>
        <time>2018-07-07T08:14:12.000Z</time>
      </trkpt>
      <trkpt lat="42.56813" lon="1.98121">
        <ele>2180</ele>
        <time>2018-07-07T08:14:13.000Z</time>
      </trkpt>
      <trkpt lat="42.5681" lon="1.98123">
        <ele>2180</ele>
        <time>2018-07-07T08:14:14.000Z</time>
      </trkpt>
      <trkpt lat="42.56807" lon="1.98126">
        <ele>2180</ele>
        <time>2018-07-07T08:14:15.000Z</time>
      </trkpt>
      <trkpt lat="42.56804" lon="1.98127">
        <ele>2180</ele>
        <time>2018-07-07T08:14:16.000Z</time>
      </trkpt>
      <trkpt lat="42.56801" lon="1.98129">
        <ele>2180</ele>
        <time>2018-07-07T08:14:17.000Z</time>
      </trkpt>
      <trkpt lat="42.56798" lon="1.98131">
        <ele>2180</ele>
        <time>2018-07-07T08:14:18.000Z</time>
      </trkpt>
      <trkpt lat="42.56795" lon="1.98133">
        <ele>2180</ele>
        <time>2018-07-07T08:14:19.000Z</time>
      </trkpt>
      <trkpt lat="42.56793" lon="1.98135">
        <ele>2180</ele>
        <time>2018-07-07T08:14:20.000Z</time>
      </trkpt>
      <trkpt lat="42.56791" lon="1.98137">
        <ele>2180</ele>
        <time>2018-07-07T08:14:21.000Z</time>
      </trkpt>
      <trkpt lat="42.56788" lon="1.98139">
        <ele>2180</ele>
        <time>2018-07-07T08:14:22.000Z</time>
      </trkpt>
      <trkpt lat="42.56786" lon="1.98141">
        <ele>2180</ele>
        <time>2018-07-07T08:14:23.000Z</time>
      </trkpt>
      <trkpt lat="42.56785" lon="1.98144">
        <ele>2181</ele>
        <time>2018-07-07T08:14:24.000Z</time>
      </trkpt>
      <trkpt lat="42.56783" lon="1.98147">
        <ele>2181</ele>
        <time>2018-07-07T08:14:25.000Z</time>
      </trkpt>
      <trkpt lat="42.56782" lon="1.98149">
        <ele>2181</ele>
        <time>2018-07-07T08:14:26.000Z</time>
      </trkpt>
      <trkpt lat="42.5678" lon="1.98152">
        <ele>2181</ele>
        <time>2018-07-07T08:14:27.000Z</time>
      </trkpt>
      <trkpt lat="42.56779" lon="1.98155">
        <ele>2181</ele>
        <time>2018-07-07T08:14:28.000Z</time>
      </trkpt>
      <trkpt lat="42.56777" lon="1.98157">
        <ele>2181</ele>
        <time>2018-07-07T08:14:29.000Z</time>
      </trkpt>
      <trkpt lat="42.56776" lon="1.98159">
        <ele>2181</ele>
        <time>2018-07-07T08:14:30.000Z</time>
      </trkpt>
      <trkpt lat="42.56774" lon="1.98162">
        <ele>2181</ele>
        <time>2018-07-07T08:14:31.000Z</time>
      </trkpt>
      <trkpt lat="42.56772" lon="1.98163">
        <ele>2181</ele>
        <time>2018-07-07T08:14:32.000Z</time>
      </trkpt>
      <trkpt lat="42.56771" lon="1.98165">
        <ele>2181</ele>
        <time>2018-07-07T08:14:33.000Z</time>
      </trkpt>
      <trkpt lat="42.56769" lon="1.98167">
        <ele>2181</ele>
        <time>2018-07-07T08:14:34.000Z</time>
      </trkpt>
      <trkpt lat="42.56768" lon="1.98171">
        <ele>2181</ele>
        <time>2018-07-07T08:14:36.000Z</time>
      </trkpt>
      <trkpt lat="42.56765" lon="1.98174">
        <ele>2181</ele>
        <time>2018-07-07T08:14:38.000Z</time>
      </trkpt>
      <trkpt lat="42.56763" lon="1.98176">
        <ele>2181</ele>
        <time>2018-07-07T08:14:39.000Z</time>
      </trkpt>
      <trkpt lat="42.56761" lon="1.98177">
        <ele>2181</ele>
        <time>2018-07-07T08:14:40.000Z</time>
      </trkpt>
      <trkpt lat="42.56759" lon="1.98179">
        <ele>2181</ele>
        <time>2018-07-07T08:14:42.000Z</time>
      </trkpt>
      <trkpt lat="42.56758" lon="1.98182">
        <ele>2181</ele>
        <time>2018-07-07T08:14:43.000Z</time>
      </trkpt>
      <trkpt lat="42.56757" lon="1.98185">
        <ele>2181</ele>
        <time>2018-07-07T08:14:44.000Z</time>
      </trkpt>
      <trkpt lat="42.56757" lon="1.98187">
        <ele>2181</ele>
        <time>2018-07-07T08:14:45.000Z</time>
      </trkpt>
      <trkpt lat="42.56757" lon="1.9819">
        <ele>2181</ele>
        <time>2018-07-07T08:14:46.000Z</time>
      </trkpt>
      <trkpt lat="42.56757" lon="1.98193">
        <ele>2181</ele>
        <time>2018-07-07T08:14:47.000Z</time>
      </trkpt>
      <trkpt lat="42.56757" lon="1.98196">
        <ele>2181</ele>
        <time>2018-07-07T08:14:48.000Z</time>
      </trkpt>
      <trkpt lat="42.56757" lon="1.98199">
        <ele>2180</ele>
        <time>2018-07-07T08:14:49.000Z</time>
      </trkpt>
      <trkpt lat="42.56756" lon="1.98201">
        <ele>2180</ele>
        <time>2018-07-07T08:14:50.000Z</time>
      </trkpt>
      <trkpt lat="42.56755" lon="1.98204">
        <ele>2180</ele>
        <time>2018-07-07T08:14:51.000Z</time>
      </trkpt>
      <trkpt lat="42.56753" lon="1.98206">
        <ele>2180</ele>
        <time>2018-07-07T08:14:52.000Z</time>
      </trkpt>
      <trkpt lat="42.56752" lon="1.98209">
        <ele>2180</ele>
        <time>2018-07-07T08:14:53.000Z</time>
      </trkpt>
      <trkpt lat="42.56752" lon="1.98211">
        <ele>2180</ele>
        <time>2018-07-07T08:14:54.000Z</time>
      </trkpt>
      <trkpt lat="42.56751" lon="1.98213">
        <ele>2180</ele>
        <time>2018-07-07T08:14:55.000Z</time>
      </trkpt>
      <trkpt lat="42.5675" lon="1.98215">
        <ele>2180</ele>
        <time>2018-07-07T08:14:56.000Z</time>
      </trkpt>
      <trkpt lat="42.56749" lon="1.98217">
        <ele>2176</ele>
        <time>2018-07-07T08:14:57.000Z</time>
      </trkpt>
      <trkpt lat="42.56747" lon="1.98219">
        <ele>2176</ele>
        <time>2018-07-07T08:14:58.000Z</time>
      </trkpt>
      <trkpt lat="42.56745" lon="1.9822">
        <ele>2176</ele>
        <time>2018-07-07T08:14:59.000Z</time>
      </trkpt>
      <trkpt lat="42.56744" lon="1.98222">
        <ele>2176</ele>
        <time>2018-07-07T08:15:00.000Z</time>
      </trkpt>
      <trkpt lat="42.56742" lon="1.98223">
        <ele>2176</ele>
        <time>2018-07-07T08:15:01.000Z</time>
      </trkpt>
      <trkpt lat="42.5674" lon="1.98225">
        <ele>2176</ele>
        <time>2018-07-07T08:15:02.000Z</time>
      </trkpt>
      <trkpt lat="42.56738" lon="1.98226">
        <ele>2176</ele>
        <time>2018-07-07T08:15:03.000Z</time>
      </trkpt>
      <trkpt lat="42.56736" lon="1.98227">
        <ele>2176</ele>
        <time>2018-07-07T08:15:04.000Z</time>
      </trkpt>
      <trkpt lat="42.56733" lon="1.98227">
        <ele>2175</ele>
        <time>2018-07-07T08:15:05.000Z</time>
      </trkpt>
      <trkpt lat="42.56731" lon="1.98229">
        <ele>2175</ele>
        <time>2018-07-07T08:15:06.000Z</time>
      </trkpt>
      <trkpt lat="42.56729" lon="1.9823">
        <ele>2175</ele>
        <time>2018-07-07T08:15:07.000Z</time>
      </trkpt>
      <trkpt lat="42.56727" lon="1.98231">
        <ele>2175</ele>
        <time>2018-07-07T08:15:08.000Z</time>
      </trkpt>
      <trkpt lat="42.56725" lon="1.98232">
        <ele>2175</ele>
        <time>2018-07-07T08:15:09.000Z</time>
      </trkpt>
      <trkpt lat="42.56723" lon="1.98233">
        <ele>2175</ele>
        <time>2018-07-07T08:15:10.000Z</time>
      </trkpt>
      <trkpt lat="42.5672" lon="1.98233">
        <ele>2174</ele>
        <time>2018-07-07T08:15:12.000Z</time>
      </trkpt>
      <trkpt lat="42.56717" lon="1.98235">
        <ele>2174</ele>
        <time>2018-07-07T08:15:14.000Z</time>
      </trkpt>
      <trkpt lat="42.56715" lon="1.98236">
        <ele>2174</ele>
        <time>2018-07-07T08:15:15.000Z</time>
      </trkpt>
      <trkpt lat="42.56712" lon="1.98237">
        <ele>2174</ele>
        <time>2018-07-07T08:15:16.000Z</time>
      </trkpt>
      <trkpt lat="42.5671" lon="1.98237">
        <ele>2173</ele>
        <time>2018-07-07T08:15:17.000Z</time>
      </trkpt>
      <trkpt lat="42.56707" lon="1.98238">
        <ele>2173</ele>
        <time>2018-07-07T08:15:19.000Z</time>
      </trkpt>
      <trkpt lat="42.56705" lon="1.9824">
        <ele>2173</ele>
        <time>2018-07-07T08:15:21.000Z</time>
      </trkpt>
      <trkpt lat="42.56702" lon="1.98241">
        <ele>2172</ele>
        <time>2018-07-07T08:15:23.000Z</time>
      </trkpt>
      <trkpt lat="42.56699" lon="1.98242">
        <ele>2172</ele>
        <time>2018-07-07T08:15:26.000Z</time>
      </trkpt>
      <trkpt lat="42.56697" lon="1.98243">
        <ele>2172</ele>
        <time>2018-07-07T08:15:28.000Z</time>
      </trkpt>
      <trkpt lat="42.56695" lon="1.98242">
        <ele>2171</ele>
        <time>2018-07-07T08:15:30.000Z</time>
      </trkpt>
      <trkpt lat="42.56692" lon="1.9824">
        <ele>2171</ele>
        <time>2018-07-07T08:15:32.000Z</time>
      </trkpt>
      <trkpt lat="42.5669" lon="1.98241">
        <ele>2171</ele>
        <time>2018-07-07T08:15:34.000Z</time>
      </trkpt>
      <trkpt lat="42.56687" lon="1.98243">
        <ele>2170</ele>
        <time>2018-07-07T08:15:36.000Z</time>
      </trkpt>
      <trkpt lat="42.56685" lon="1.98245">
        <ele>2170</ele>
        <time>2018-07-07T08:15:38.000Z</time>
      </trkpt>
      <trkpt lat="42.56685" lon="1.98247">
        <ele>2169</ele>
        <time>2018-07-07T08:15:40.000Z</time>
      </trkpt>
      <trkpt lat="42.56683" lon="1.9825">
        <ele>2169</ele>
        <time>2018-07-07T08:15:42.000Z</time>
      </trkpt>
      <trkpt lat="42.56681" lon="1.98252">
        <ele>2165</ele>
        <time>2018-07-07T08:15:44.000Z</time>
      </trkpt>
      <trkpt lat="42.56679" lon="1.98253">
        <ele>2165</ele>
        <time>2018-07-07T08:15:45.000Z</time>
      </trkpt>
      <trkpt lat="42.56676" lon="1.98256">
        <ele>2165</ele>
        <time>2018-07-07T08:15:47.000Z</time>
      </trkpt>
      <trkpt lat="42.56673" lon="1.98258">
        <ele>2164</ele>
        <time>2018-07-07T08:15:49.000Z</time>
      </trkpt>
      <trkpt lat="42.56671" lon="1.9826">
        <ele>2164</ele>
        <time>2018-07-07T08:15:51.000Z</time>
      </trkpt>
      <trkpt lat="42.56669" lon="1.98262">
        <ele>2164</ele>
        <time>2018-07-07T08:15:53.000Z</time>
      </trkpt>
      <trkpt lat="42.56669" lon="1.98264">
        <ele>2165</ele>
        <time>2018-07-07T08:15:55.000Z</time>
      </trkpt>
      <trkpt lat="42.56666" lon="1.98266">
        <ele>2160</ele>
        <time>2018-07-07T08:15:57.000Z</time>
      </trkpt>
      <trkpt lat="42.56664" lon="1.98267">
        <ele>2160</ele>
        <time>2018-07-07T08:15:58.000Z</time>
      </trkpt>
      <trkpt lat="42.56662" lon="1.98267">
        <ele>2159</ele>
        <time>2018-07-07T08:15:59.000Z</time>
      </trkpt>
      <trkpt lat="42.56659" lon="1.98267">
        <ele>2159</ele>
        <time>2018-07-07T08:16:00.000Z</time>
      </trkpt>
      <trkpt lat="42.56657" lon="1.98266">
        <ele>2159</ele>
        <time>2018-07-07T08:16:01.000Z</time>
      </trkpt>
      <trkpt lat="42.56655" lon="1.98266">
        <ele>2159</ele>
        <time>2018-07-07T08:16:02.000Z</time>
      </trkpt>
      <trkpt lat="42.56652" lon="1.98265">
        <ele>2159</ele>
        <time>2018-07-07T08:16:04.000Z</time>
      </trkpt>
      <trkpt lat="42.5665" lon="1.98264">
        <ele>2159</ele>
        <time>2018-07-07T08:16:06.000Z</time>
      </trkpt>
      <trkpt lat="42.56647" lon="1.98264">
        <ele>2159</ele>
        <time>2018-07-07T08:16:08.000Z</time>
      </trkpt>
      <trkpt lat="42.56645" lon="1.98264">
        <ele>2158</ele>
        <time>2018-07-07T08:16:10.000Z</time>
      </trkpt>
      <trkpt lat="42.56643" lon="1.98265">
        <ele>2158</ele>
        <time>2018-07-07T08:16:12.000Z</time>
      </trkpt>
      <trkpt lat="42.56642" lon="1.98268">
        <ele>2158</ele>
        <time>2018-07-07T08:16:15.000Z</time>
      </trkpt>
      <trkpt lat="42.56639" lon="1.9827">
        <ele>2158</ele>
        <time>2018-07-07T08:16:17.000Z</time>
      </trkpt>
      <trkpt lat="42.56637" lon="1.9827">
        <ele>2157</ele>
        <time>2018-07-07T08:16:18.000Z</time>
      </trkpt>
      <trkpt lat="42.56635" lon="1.9827">
        <ele>2157</ele>
        <time>2018-07-07T08:16:19.000Z</time>
      </trkpt>
      <trkpt lat="42.56633" lon="1.9827">
        <ele>2157</ele>
        <time>2018-07-07T08:16:20.000Z</time>
      </trkpt>
      <trkpt lat="42.56631" lon="1.98271">
        <ele>2157</ele>
        <time>2018-07-07T08:16:21.000Z</time>
      </trkpt>
      <trkpt lat="42.56628" lon="1.98271">
        <ele>2157</ele>
        <time>2018-07-07T08:16:22.000Z</time>
      </trkpt>
      <trkpt lat="42.56625" lon="1.98272">
        <ele>2157</ele>
        <time>2018-07-07T08:16:24.000Z</time>
      </trkpt>
      <trkpt lat="42.56623" lon="1.98273">
        <ele>2156</ele>
        <time>2018-07-07T08:16:25.000Z</time>
      </trkpt>
      <trkpt lat="42.5662" lon="1.98272">
        <ele>2156</ele>
        <time>2018-07-07T08:16:26.000Z</time>
      </trkpt>
      <trkpt lat="42.56618" lon="1.98272">
        <ele>2156</ele>
        <time>2018-07-07T08:16:27.000Z</time>
      </trkpt>
      <trkpt lat="42.56615" lon="1.98273">
        <ele>2156</ele>
        <time>2018-07-07T08:16:29.000Z</time>
      </trkpt>
      <trkpt lat="42.56613" lon="1.98275">
        <ele>2156</ele>
        <time>2018-07-07T08:16:31.000Z</time>
      </trkpt>
      <trkpt lat="42.56611" lon="1.98277">
        <ele>2156</ele>
        <time>2018-07-07T08:16:32.000Z</time>
      </trkpt>
      <trkpt lat="42.56609" lon="1.98277">
        <ele>2156</ele>
        <time>2018-07-07T08:16:33.000Z</time>
      </trkpt>
      <trkpt lat="42.56606" lon="1.98278">
        <ele>2156</ele>
        <time>2018-07-07T08:16:34.000Z</time>
      </trkpt>
      <trkpt lat="42.56604" lon="1.98279">
        <ele>2155</ele>
        <time>2018-07-07T08:16:35.000Z</time>
      </trkpt>
      <trkpt lat="42.56601" lon="1.98279">
        <ele>2155</ele>
        <time>2018-07-07T08:16:36.000Z</time>
      </trkpt>
      <trkpt lat="42.56599" lon="1.98278">
        <ele>2155</ele>
        <time>2018-07-07T08:16:37.000Z</time>
      </trkpt>
      <trkpt lat="42.56597" lon="1.98277">
        <ele>2155</ele>
        <time>2018-07-07T08:16:38.000Z</time>
      </trkpt>
      <trkpt lat="42.56593" lon="1.98278">
        <ele>2155</ele>
        <time>2018-07-07T08:16:40.000Z</time>
      </trkpt>
      <trkpt lat="42.56591" lon="1.98278">
        <ele>2155</ele>
        <time>2018-07-07T08:16:41.000Z</time>
      </trkpt>
      <trkpt lat="42.56589" lon="1.98277">
        <ele>2155</ele>
        <time>2018-07-07T08:16:42.000Z</time>
      </trkpt>
      <trkpt lat="42.56587" lon="1.98276">
        <ele>2155</ele>
        <time>2018-07-07T08:16:43.000Z</time>
      </trkpt>
      <trkpt lat="42.56585" lon="1.98276">
        <ele>2155</ele>
        <time>2018-07-07T08:16:44.000Z</time>
      </trkpt>
      <trkpt lat="42.56582" lon="1.98276">
        <ele>2155</ele>
        <time>2018-07-07T08:16:46.000Z</time>
      </trkpt>
      <trkpt lat="42.56579" lon="1.98278">
        <ele>2155</ele>
        <time>2018-07-07T08:16:48.000Z</time>
      </trkpt>
      <trkpt lat="42.56576" lon="1.98282">
        <ele>2154</ele>
        <time>2018-07-07T08:16:50.000Z</time>
      </trkpt>
      <trkpt lat="42.56575" lon="1.98284">
        <ele>2154</ele>
        <time>2018-07-07T08:16:51.000Z</time>
      </trkpt>
      <trkpt lat="42.56574" lon="1.98287">
        <ele>2154</ele>
        <time>2018-07-07T08:16:52.000Z</time>
      </trkpt>
      <trkpt lat="42.56572" lon="1.98289">
        <ele>2154</ele>
        <time>2018-07-07T08:16:53.000Z</time>
      </trkpt>
      <trkpt lat="42.5657" lon="1.98291">
        <ele>2154</ele>
        <time>2018-07-07T08:16:54.000Z</time>
      </trkpt>
      <trkpt lat="42.56568" lon="1.98293">
        <ele>2154</ele>
        <time>2018-07-07T08:16:55.000Z</time>
      </trkpt>
      <trkpt lat="42.56566" lon="1.98295">
        <ele>2154</ele>
        <time>2018-07-07T08:16:56.000Z</time>
      </trkpt>
      <trkpt lat="42.56564" lon="1.98297">
        <ele>2154</ele>
        <time>2018-07-07T08:16:57.000Z</time>
      </trkpt>
      <trkpt lat="42.56562" lon="1.98299">
        <ele>2153</ele>
        <time>2018-07-07T08:16:58.000Z</time>
      </trkpt>
      <trkpt lat="42.5656" lon="1.983">
        <ele>2153</ele>
        <time>2018-07-07T08:16:59.000Z</time>
      </trkpt>
      <trkpt lat="42.56558" lon="1.98302">
        <ele>2153</ele>
        <time>2018-07-07T08:17:00.000Z</time>
      </trkpt>
      <trkpt lat="42.56557" lon="1.98304">
        <ele>2153</ele>
        <time>2018-07-07T08:17:01.000Z</time>
      </trkpt>
      <trkpt lat="42.56556" lon="1.98306">
        <ele>2153</ele>
        <time>2018-07-07T08:17:02.000Z</time>
      </trkpt>
      <trkpt lat="42.56555" lon="1.98308">
        <ele>2153</ele>
        <time>2018-07-07T08:17:03.000Z</time>
      </trkpt>
      <trkpt lat="42.56553" lon="1.9831">
        <ele>2153</ele>
        <time>2018-07-07T08:17:04.000Z</time>
      </trkpt>
      <trkpt lat="42.56551" lon="1.98313">
        <ele>2153</ele>
        <time>2018-07-07T08:17:06.000Z</time>
      </trkpt>
      <trkpt lat="42.5655" lon="1.98316">
        <ele>2153</ele>
        <time>2018-07-07T08:17:08.000Z</time>
      </trkpt>
      <trkpt lat="42.56549" lon="1.98318">
        <ele>2153</ele>
        <time>2018-07-07T08:17:10.000Z</time>
      </trkpt>
      <trkpt lat="42.56547" lon="1.98322">
        <ele>2153</ele>
        <time>2018-07-07T08:17:12.000Z</time>
      </trkpt>
      <trkpt lat="42.56546" lon="1.98326">
        <ele>2153</ele>
        <time>2018-07-07T08:17:14.000Z</time>
      </trkpt>
      <trkpt lat="42.56546" lon="1.98328">
        <ele>2153</ele>
        <time>2018-07-07T08:17:15.000Z</time>
      </trkpt>
      <trkpt lat="42.56545" lon="1.9833">
        <ele>2153</ele>
        <time>2018-07-07T08:17:16.000Z</time>
      </trkpt>
      <trkpt lat="42.56542" lon="1.98333">
        <ele>2153</ele>
        <time>2018-07-07T08:17:18.000Z</time>
      </trkpt>
      <trkpt lat="42.56539" lon="1.98336">
        <ele>2149</ele>
        <time>2018-07-07T08:17:20.000Z</time>
      </trkpt>
      <trkpt lat="42.56538" lon="1.98339">
        <ele>2149</ele>
        <time>2018-07-07T08:17:21.000Z</time>
      </trkpt>
      <trkpt lat="42.56536" lon="1.98342">
        <ele>2149</ele>
        <time>2018-07-07T08:17:22.000Z</time>
      </trkpt>
      <trkpt lat="42.56535" lon="1.98344">
        <ele>2149</ele>
        <time>2018-07-07T08:17:23.000Z</time>
      </trkpt>
      <trkpt lat="42.56533" lon="1.98347">
        <ele>2149</ele>
        <time>2018-07-07T08:17:24.000Z</time>
      </trkpt>
      <trkpt lat="42.56532" lon="1.9835">
        <ele>2149</ele>
        <time>2018-07-07T08:17:25.000Z</time>
      </trkpt>
      <trkpt lat="42.5653" lon="1.98352">
        <ele>2149</ele>
        <time>2018-07-07T08:17:26.000Z</time>
      </trkpt>
      <trkpt lat="42.5653" lon="1.98355">
        <ele>2149</ele>
        <time>2018-07-07T08:17:27.000Z</time>
      </trkpt>
      <trkpt lat="42.56529" lon="1.98358">
        <ele>2149</ele>
        <time>2018-07-07T08:17:28.000Z</time>
      </trkpt>
      <trkpt lat="42.56529" lon="1.9836">
        <ele>2149</ele>
        <time>2018-07-07T08:17:29.000Z</time>
      </trkpt>
      <trkpt lat="42.56527" lon="1.98364">
        <ele>2149</ele>
        <time>2018-07-07T08:17:31.000Z</time>
      </trkpt>
      <trkpt lat="42.56526" lon="1.98366">
        <ele>2149</ele>
        <time>2018-07-07T08:17:32.000Z</time>
      </trkpt>
      <trkpt lat="42.56525" lon="1.98369">
        <ele>2149</ele>
        <time>2018-07-07T08:17:33.000Z</time>
      </trkpt>
      <trkpt lat="42.56523" lon="1.98371">
        <ele>2149</ele>
        <time>2018-07-07T08:17:34.000Z</time>
      </trkpt>
      <trkpt lat="42.56522" lon="1.98373">
        <ele>2149</ele>
        <time>2018-07-07T08:17:35.000Z</time>
      </trkpt>
      <trkpt lat="42.56519" lon="1.98374">
        <ele>2149</ele>
        <time>2018-07-07T08:17:36.000Z</time>
      </trkpt>
      <trkpt lat="42.56518" lon="1.98376">
        <ele>2149</ele>
        <time>2018-07-07T08:17:37.000Z</time>
      </trkpt>
      <trkpt lat="42.56516" lon="1.98377">
        <ele>2149</ele>
        <time>2018-07-07T08:17:38.000Z</time>
      </trkpt>
      <trkpt lat="42.56514" lon="1.98379">
        <ele>2149</ele>
        <time>2018-07-07T08:17:39.000Z</time>
      </trkpt>
      <trkpt lat="42.56512" lon="1.98382">
        <ele>2149</ele>
        <time>2018-07-07T08:17:41.000Z</time>
      </trkpt>
      <trkpt lat="42.56511" lon="1.98384">
        <ele>2149</ele>
        <time>2018-07-07T08:17:42.000Z</time>
      </trkpt>
      <trkpt lat="42.56509" lon="1.98387">
        <ele>2149</ele>
        <time>2018-07-07T08:17:43.000Z</time>
      </trkpt>
      <trkpt lat="42.56508" lon="1.98389">
        <ele>2149</ele>
        <time>2018-07-07T08:17:44.000Z</time>
      </trkpt>
      <trkpt lat="42.56505" lon="1.98392">
        <ele>2149</ele>
        <time>2018-07-07T08:17:46.000Z</time>
      </trkpt>
      <trkpt lat="42.56504" lon="1.98394">
        <ele>2149</ele>
        <time>2018-07-07T08:17:47.000Z</time>
      </trkpt>
      <trkpt lat="42.56501" lon="1.98398">
        <ele>2149</ele>
        <time>2018-07-07T08:17:49.000Z</time>
      </trkpt>
      <trkpt lat="42.565" lon="1.98401">
        <ele>2150</ele>
        <time>2018-07-07T08:17:50.000Z</time>
      </trkpt>
      <trkpt lat="42.56499" lon="1.98404">
        <ele>2151</ele>
        <time>2018-07-07T08:17:51.000Z</time>
      </trkpt>
      <trkpt lat="42.56497" lon="1.98407">
        <ele>2151</ele>
        <time>2018-07-07T08:17:52.000Z</time>
      </trkpt>
      <trkpt lat="42.56496" lon="1.98409">
        <ele>2151</ele>
        <time>2018-07-07T08:17:53.000Z</time>
      </trkpt>
      <trkpt lat="42.56494" lon="1.98412">
        <ele>2151</ele>
        <time>2018-07-07T08:17:54.000Z</time>
      </trkpt>
      <trkpt lat="42.56492" lon="1.98414">
        <ele>2151</ele>
        <time>2018-07-07T08:17:55.000Z</time>
      </trkpt>
      <trkpt lat="42.5649" lon="1.98416">
        <ele>2151</ele>
        <time>2018-07-07T08:17:56.000Z</time>
      </trkpt>
      <trkpt lat="42.56489" lon="1.98419">
        <ele>2150</ele>
        <time>2018-07-07T08:17:57.000Z</time>
      </trkpt>
      <trkpt lat="42.56487" lon="1.98421">
        <ele>2150</ele>
        <time>2018-07-07T08:17:58.000Z</time>
      </trkpt>
      <trkpt lat="42.56486" lon="1.98423">
        <ele>2150</ele>
        <time>2018-07-07T08:17:59.000Z</time>
      </trkpt>
      <trkpt lat="42.56485" lon="1.98425">
        <ele>2150</ele>
        <time>2018-07-07T08:18:00.000Z</time>
      </trkpt>
      <trkpt lat="42.56483" lon="1.98428">
        <ele>2150</ele>
        <time>2018-07-07T08:18:01.000Z</time>
      </trkpt>
      <trkpt lat="42.56482" lon="1.9843">
        <ele>2150</ele>
        <time>2018-07-07T08:18:02.000Z</time>
      </trkpt>
      <trkpt lat="42.56482" lon="1.98433">
        <ele>2150</ele>
        <time>2018-07-07T08:18:03.000Z</time>
      </trkpt>
      <trkpt lat="42.56481" lon="1.98436">
        <ele>2150</ele>
        <time>2018-07-07T08:18:04.000Z</time>
      </trkpt>
      <trkpt lat="42.56482" lon="1.98439">
        <ele>2150</ele>
        <time>2018-07-07T08:18:05.000Z</time>
      </trkpt>
      <trkpt lat="42.56482" lon="1.98441">
        <ele>2150</ele>
        <time>2018-07-07T08:18:06.000Z</time>
      </trkpt>
      <trkpt lat="42.56483" lon="1.98444">
        <ele>2150</ele>
        <time>2018-07-07T08:18:07.000Z</time>
      </trkpt>
      <trkpt lat="42.56483" lon="1.98447">
        <ele>2150</ele>
        <time>2018-07-07T08:18:08.000Z</time>
      </trkpt>
      <trkpt lat="42.56482" lon="1.98451">
        <ele>2150</ele>
        <time>2018-07-07T08:18:09.000Z</time>
      </trkpt>
      <trkpt lat="42.56482" lon="1.98454">
        <ele>2150</ele>
        <time>2018-07-07T08:18:10.000Z</time>
      </trkpt>
      <trkpt lat="42.56481" lon="1.98457">
        <ele>2150</ele>
        <time>2018-07-07T08:18:11.000Z</time>
      </trkpt>
      <trkpt lat="42.56481" lon="1.98461">
        <ele>2150</ele>
        <time>2018-07-07T08:18:12.000Z</time>
      </trkpt>
      <trkpt lat="42.56481" lon="1.98464">
        <ele>2150</ele>
        <time>2018-07-07T08:18:13.000Z</time>
      </trkpt>
      <trkpt lat="42.5648" lon="1.98467">
        <ele>2150</ele>
        <time>2018-07-07T08:18:14.000Z</time>
      </trkpt>
      <trkpt lat="42.56479" lon="1.98469">
        <ele>2150</ele>
        <time>2018-07-07T08:18:15.000Z</time>
      </trkpt>
      <trkpt lat="42.56478" lon="1.98474">
        <ele>2149</ele>
        <time>2018-07-07T08:18:17.000Z</time>
      </trkpt>
      <trkpt lat="42.56476" lon="1.98477">
        <ele>2149</ele>
        <time>2018-07-07T08:18:18.000Z</time>
      </trkpt>
      <trkpt lat="42.56475" lon="1.98479">
        <ele>2149</ele>
        <time>2018-07-07T08:18:19.000Z</time>
      </trkpt>
      <trkpt lat="42.56474" lon="1.98482">
        <ele>2149</ele>
        <time>2018-07-07T08:18:20.000Z</time>
      </trkpt>
      <trkpt lat="42.56474" lon="1.98486">
        <ele>2149</ele>
        <time>2018-07-07T08:18:21.000Z</time>
      </trkpt>
      <trkpt lat="42.56472" lon="1.98489">
        <ele>2149</ele>
        <time>2018-07-07T08:18:22.000Z</time>
      </trkpt>
      <trkpt lat="42.56471" lon="1.98493">
        <ele>2149</ele>
        <time>2018-07-07T08:18:23.000Z</time>
      </trkpt>
      <trkpt lat="42.56468" lon="1.98495">
        <ele>2149</ele>
        <time>2018-07-07T08:18:24.000Z</time>
      </trkpt>
      <trkpt lat="42.56466" lon="1.98497">
        <ele>2149</ele>
        <time>2018-07-07T08:18:25.000Z</time>
      </trkpt>
      <trkpt lat="42.56464" lon="1.98498">
        <ele>2149</ele>
        <time>2018-07-07T08:18:26.000Z</time>
      </trkpt>
      <trkpt lat="42.56462" lon="1.98499">
        <ele>2149</ele>
        <time>2018-07-07T08:18:27.000Z</time>
      </trkpt>
      <trkpt lat="42.56461" lon="1.98501">
        <ele>2146</ele>
        <time>2018-07-07T08:18:28.000Z</time>
      </trkpt>
      <trkpt lat="42.56459" lon="1.98502">
        <ele>2146</ele>
        <time>2018-07-07T08:18:29.000Z</time>
      </trkpt>
      <trkpt lat="42.56457" lon="1.98504">
        <ele>2146</ele>
        <time>2018-07-07T08:18:30.000Z</time>
      </trkpt>
      <trkpt lat="42.56455" lon="1.98505">
        <ele>2146</ele>
        <time>2018-07-07T08:18:31.000Z</time>
      </trkpt>
      <trkpt lat="42.56453" lon="1.98507">
        <ele>2146</ele>
        <time>2018-07-07T08:18:32.000Z</time>
      </trkpt>
      <trkpt lat="42.56451" lon="1.98509">
        <ele>2146</ele>
        <time>2018-07-07T08:18:33.000Z</time>
      </trkpt>
      <trkpt lat="42.56449" lon="1.98511">
        <ele>2146</ele>
        <time>2018-07-07T08:18:34.000Z</time>
      </trkpt>
      <trkpt lat="42.56447" lon="1.98513">
        <ele>2146</ele>
        <time>2018-07-07T08:18:35.000Z</time>
      </trkpt>
      <trkpt lat="42.56446" lon="1.98515">
        <ele>2146</ele>
        <time>2018-07-07T08:18:36.000Z</time>
      </trkpt>
      <trkpt lat="42.56445" lon="1.98518">
        <ele>2145</ele>
        <time>2018-07-07T08:18:37.000Z</time>
      </trkpt>
      <trkpt lat="42.56443" lon="1.98521">
        <ele>2145</ele>
        <time>2018-07-07T08:18:38.000Z</time>
      </trkpt>
      <trkpt lat="42.56442" lon="1.98525">
        <ele>2145</ele>
        <time>2018-07-07T08:18:39.000Z</time>
      </trkpt>
      <trkpt lat="42.56442" lon="1.98528">
        <ele>2145</ele>
        <time>2018-07-07T08:18:40.000Z</time>
      </trkpt>
      <trkpt lat="42.56441" lon="1.98531">
        <ele>2145</ele>
        <time>2018-07-07T08:18:41.000Z</time>
      </trkpt>
      <trkpt lat="42.56441" lon="1.98534">
        <ele>2145</ele>
        <time>2018-07-07T08:18:42.000Z</time>
      </trkpt>
      <trkpt lat="42.56441" lon="1.98537">
        <ele>2145</ele>
        <time>2018-07-07T08:18:43.000Z</time>
      </trkpt>
      <trkpt lat="42.56441" lon="1.9854">
        <ele>2144</ele>
        <time>2018-07-07T08:18:44.000Z</time>
      </trkpt>
      <trkpt lat="42.56441" lon="1.98544">
        <ele>2144</ele>
        <time>2018-07-07T08:18:45.000Z</time>
      </trkpt>
      <trkpt lat="42.5644" lon="1.98547">
        <ele>2144</ele>
        <time>2018-07-07T08:18:46.000Z</time>
      </trkpt>
      <trkpt lat="42.56439" lon="1.98549">
        <ele>2144</ele>
        <time>2018-07-07T08:18:47.000Z</time>
      </trkpt>
      <trkpt lat="42.56438" lon="1.98553">
        <ele>2144</ele>
        <time>2018-07-07T08:18:48.000Z</time>
      </trkpt>
      <trkpt lat="42.56436" lon="1.98557">
        <ele>2143</ele>
        <time>2018-07-07T08:18:49.000Z</time>
      </trkpt>
      <trkpt lat="42.56435" lon="1.9856">
        <ele>2143</ele>
        <time>2018-07-07T08:18:50.000Z</time>
      </trkpt>
      <trkpt lat="42.56433" lon="1.98562">
        <ele>2143</ele>
        <time>2018-07-07T08:18:51.000Z</time>
      </trkpt>
      <trkpt lat="42.56431" lon="1.98564">
        <ele>2143</ele>
        <time>2018-07-07T08:18:52.000Z</time>
      </trkpt>
      <trkpt lat="42.56429" lon="1.98566">
        <ele>2142</ele>
        <time>2018-07-07T08:18:53.000Z</time>
      </trkpt>
      <trkpt lat="42.56427" lon="1.98567">
        <ele>2142</ele>
        <time>2018-07-07T08:18:54.000Z</time>
      </trkpt>
      <trkpt lat="42.56425" lon="1.98568">
        <ele>2142</ele>
        <time>2018-07-07T08:18:55.000Z</time>
      </trkpt>
      <trkpt lat="42.56422" lon="1.9857">
        <ele>2142</ele>
        <time>2018-07-07T08:18:56.000Z</time>
      </trkpt>
      <trkpt lat="42.5642" lon="1.98572">
        <ele>2141</ele>
        <time>2018-07-07T08:18:57.000Z</time>
      </trkpt>
      <trkpt lat="42.56418" lon="1.98574">
        <ele>2141</ele>
        <time>2018-07-07T08:18:58.000Z</time>
      </trkpt>
      <trkpt lat="42.56415" lon="1.98576">
        <ele>2141</ele>
        <time>2018-07-07T08:18:59.000Z</time>
      </trkpt>
      <trkpt lat="42.56413" lon="1.98578">
        <ele>2140</ele>
        <time>2018-07-07T08:19:00.000Z</time>
      </trkpt>
      <trkpt lat="42.56412" lon="1.98579">
        <ele>2140</ele>
        <time>2018-07-07T08:19:01.000Z</time>
      </trkpt>
      <trkpt lat="42.5641" lon="1.98581">
        <ele>2141</ele>
        <time>2018-07-07T08:19:03.000Z</time>
      </trkpt>
      <trkpt lat="42.56408" lon="1.98581">
        <ele>2141</ele>
        <time>2018-07-07T08:19:05.000Z</time>
      </trkpt>
      <trkpt lat="42.56406" lon="1.98581">
        <ele>2141</ele>
        <time>2018-07-07T08:19:07.000Z</time>
      </trkpt>
      <trkpt lat="42.56404" lon="1.98582">
        <ele>2141</ele>
        <time>2018-07-07T08:19:09.000Z</time>
      </trkpt>
      <trkpt lat="42.56401" lon="1.98584">
        <ele>2138</ele>
        <time>2018-07-07T08:19:11.000Z</time>
      </trkpt>
      <trkpt lat="42.56399" lon="1.98586">
        <ele>2138</ele>
        <time>2018-07-07T08:19:13.000Z</time>
      </trkpt>
      <trkpt lat="42.56397" lon="1.98588">
        <ele>2138</ele>
        <time>2018-07-07T08:19:15.000Z</time>
      </trkpt>
      <trkpt lat="42.56395" lon="1.9859">
        <ele>2138</ele>
        <time>2018-07-07T08:19:17.000Z</time>
      </trkpt>
      <trkpt lat="42.56393" lon="1.98592">
        <ele>2138</ele>
        <time>2018-07-07T08:19:19.000Z</time>
      </trkpt>
      <trkpt lat="42.5639" lon="1.98593">
        <ele>2138</ele>
        <time>2018-07-07T08:19:21.000Z</time>
      </trkpt>
      <trkpt lat="42.56388" lon="1.98595">
        <ele>2137</ele>
        <time>2018-07-07T08:19:23.000Z</time>
      </trkpt>
      <trkpt lat="42.56386" lon="1.98596">
        <ele>2137</ele>
        <time>2018-07-07T08:19:24.000Z</time>
      </trkpt>
      <trkpt lat="42.56383" lon="1.98598">
        <ele>2137</ele>
        <time>2018-07-07T08:19:26.000Z</time>
      </trkpt>
      <trkpt lat="42.56381" lon="1.98598">
        <ele>2137</ele>
        <time>2018-07-07T08:19:27.000Z</time>
      </trkpt>
      <trkpt lat="42.56378" lon="1.98599">
        <ele>2137</ele>
        <time>2018-07-07T08:19:29.000Z</time>
      </trkpt>
      <trkpt lat="42.56375" lon="1.98602">
        <ele>2137</ele>
        <time>2018-07-07T08:19:31.000Z</time>
      </trkpt>
      <trkpt lat="42.56374" lon="1.98604">
        <ele>2137</ele>
        <time>2018-07-07T08:19:33.000Z</time>
      </trkpt>
      <trkpt lat="42.56373" lon="1.98607">
        <ele>2137</ele>
        <time>2018-07-07T08:19:35.000Z</time>
      </trkpt>
      <trkpt lat="42.56373" lon="1.9861">
        <ele>2137</ele>
        <time>2018-07-07T08:19:37.000Z</time>
      </trkpt>
      <trkpt lat="42.56372" lon="1.98613">
        <ele>2137</ele>
        <time>2018-07-07T08:19:38.000Z</time>
      </trkpt>
      <trkpt lat="42.5637" lon="1.98615">
        <ele>2137</ele>
        <time>2018-07-07T08:19:39.000Z</time>
      </trkpt>
      <trkpt lat="42.56369" lon="1.98617">
        <ele>2137</ele>
        <time>2018-07-07T08:19:40.000Z</time>
      </trkpt>
      <trkpt lat="42.56367" lon="1.98618">
        <ele>2137</ele>
        <time>2018-07-07T08:19:41.000Z</time>
      </trkpt>
      <trkpt lat="42.56365" lon="1.98619">
        <ele>2137</ele>
        <time>2018-07-07T08:19:42.000Z</time>
      </trkpt>
      <trkpt lat="42.56362" lon="1.9862">
        <ele>2137</ele>
        <time>2018-07-07T08:19:44.000Z</time>
      </trkpt>
      <trkpt lat="42.5636" lon="1.98624">
        <ele>2136</ele>
        <time>2018-07-07T08:19:46.000Z</time>
      </trkpt>
      <trkpt lat="42.56359" lon="1.98625">
        <ele>2136</ele>
        <time>2018-07-07T08:19:47.000Z</time>
      </trkpt>
      <trkpt lat="42.56357" lon="1.98627">
        <ele>2136</ele>
        <time>2018-07-07T08:19:48.000Z</time>
      </trkpt>
      <trkpt lat="42.56355" lon="1.98629">
        <ele>2136</ele>
        <time>2018-07-07T08:19:49.000Z</time>
      </trkpt>
      <trkpt lat="42.56354" lon="1.98631">
        <ele>2136</ele>
        <time>2018-07-07T08:19:50.000Z</time>
      </trkpt>
      <trkpt lat="42.56352" lon="1.98633">
        <ele>2135</ele>
        <time>2018-07-07T08:19:51.000Z</time>
      </trkpt>
      <trkpt lat="42.5635" lon="1.98636">
        <ele>2135</ele>
        <time>2018-07-07T08:19:52.000Z</time>
      </trkpt>
      <trkpt lat="42.56347" lon="1.98636">
        <ele>2135</ele>
        <time>2018-07-07T08:19:53.000Z</time>
      </trkpt>
      <trkpt lat="42.56345" lon="1.98637">
        <ele>2135</ele>
        <time>2018-07-07T08:19:54.000Z</time>
      </trkpt>
      <trkpt lat="42.56343" lon="1.98638">
        <ele>2135</ele>
        <time>2018-07-07T08:19:55.000Z</time>
      </trkpt>
      <trkpt lat="42.56341" lon="1.98639">
        <ele>2135</ele>
        <time>2018-07-07T08:19:56.000Z</time>
      </trkpt>
      <trkpt lat="42.5634" lon="1.98641">
        <ele>2134</ele>
        <time>2018-07-07T08:19:57.000Z</time>
      </trkpt>
      <trkpt lat="42.56339" lon="1.98643">
        <ele>2134</ele>
        <time>2018-07-07T08:19:58.000Z</time>
      </trkpt>
      <trkpt lat="42.56338" lon="1.98647">
        <ele>2134</ele>
        <time>2018-07-07T08:20:00.000Z</time>
      </trkpt>
      <trkpt lat="42.56337" lon="1.98652">
        <ele>2133</ele>
        <time>2018-07-07T08:20:02.000Z</time>
      </trkpt>
      <trkpt lat="42.56337" lon="1.98656">
        <ele>2132</ele>
        <time>2018-07-07T08:20:04.000Z</time>
      </trkpt>
      <trkpt lat="42.56339" lon="1.98659">
        <ele>2132</ele>
        <time>2018-07-07T08:20:06.000Z</time>
      </trkpt>
      <trkpt lat="42.5634" lon="1.98663">
        <ele>2132</ele>
        <time>2018-07-07T08:20:08.000Z</time>
      </trkpt>
      <trkpt lat="42.56339" lon="1.98666">
        <ele>2131</ele>
        <time>2018-07-07T08:20:10.000Z</time>
      </trkpt>
      <trkpt lat="42.56337" lon="1.98668">
        <ele>2129</ele>
        <time>2018-07-07T08:20:12.000Z</time>
      </trkpt>
      <trkpt lat="42.56335" lon="1.98671">
        <ele>2129</ele>
        <time>2018-07-07T08:20:14.000Z</time>
      </trkpt>
      <trkpt lat="42.56333" lon="1.98674">
        <ele>2129</ele>
        <time>2018-07-07T08:20:16.000Z</time>
      </trkpt>
      <trkpt lat="42.56331" lon="1.98677">
        <ele>2129</ele>
        <time>2018-07-07T08:20:18.000Z</time>
      </trkpt>
      <trkpt lat="42.56329" lon="1.9868">
        <ele>2129</ele>
        <time>2018-07-07T08:20:20.000Z</time>
      </trkpt>
      <trkpt lat="42.56327" lon="1.98684">
        <ele>2128</ele>
        <time>2018-07-07T08:20:22.000Z</time>
      </trkpt>
      <trkpt lat="42.56326" lon="1.98686">
        <ele>2128</ele>
        <time>2018-07-07T08:20:24.000Z</time>
      </trkpt>
      <trkpt lat="42.56324" lon="1.98688">
        <ele>2128</ele>
        <time>2018-07-07T08:20:26.000Z</time>
      </trkpt>
      <trkpt lat="42.56323" lon="1.9869">
        <ele>2128</ele>
        <time>2018-07-07T08:20:28.000Z</time>
      </trkpt>
      <trkpt lat="42.56323" lon="1.98692">
        <ele>2128</ele>
        <time>2018-07-07T08:20:30.000Z</time>
      </trkpt>
      <trkpt lat="42.56322" lon="1.98695">
        <ele>2127</ele>
        <time>2018-07-07T08:20:32.000Z</time>
      </trkpt>
      <trkpt lat="42.5632" lon="1.98698">
        <ele>2127</ele>
        <time>2018-07-07T08:20:34.000Z</time>
      </trkpt>
      <trkpt lat="42.56318" lon="1.987">
        <ele>2127</ele>
        <time>2018-07-07T08:20:36.000Z</time>
      </trkpt>
      <trkpt lat="42.56316" lon="1.98704">
        <ele>2127</ele>
        <time>2018-07-07T08:20:38.000Z</time>
      </trkpt>
      <trkpt lat="42.56315" lon="1.98706">
        <ele>2126</ele>
        <time>2018-07-07T08:20:39.000Z</time>
      </trkpt>
      <trkpt lat="42.56314" lon="1.98708">
        <ele>2126</ele>
        <time>2018-07-07T08:20:40.000Z</time>
      </trkpt>
      <trkpt lat="42.56311" lon="1.9871">
        <ele>2126</ele>
        <time>2018-07-07T08:20:42.000Z</time>
      </trkpt>
      <trkpt lat="42.56308" lon="1.98714">
        <ele>2126</ele>
        <time>2018-07-07T08:20:44.000Z</time>
      </trkpt>
      <trkpt lat="42.56306" lon="1.98716">
        <ele>2126</ele>
        <time>2018-07-07T08:20:45.000Z</time>
      </trkpt>
      <trkpt lat="42.56305" lon="1.98717">
        <ele>2126</ele>
        <time>2018-07-07T08:20:46.000Z</time>
      </trkpt>
      <trkpt lat="42.56302" lon="1.9872">
        <ele>2126</ele>
        <time>2018-07-07T08:20:48.000Z</time>
      </trkpt>
      <trkpt lat="42.563" lon="1.9872">
        <ele>2126</ele>
        <time>2018-07-07T08:20:49.000Z</time>
      </trkpt>
      <trkpt lat="42.56297" lon="1.98721">
        <ele>2126</ele>
        <time>2018-07-07T08:20:50.000Z</time>
      </trkpt>
      <trkpt lat="42.56295" lon="1.98722">
        <ele>2126</ele>
        <time>2018-07-07T08:20:51.000Z</time>
      </trkpt>
      <trkpt lat="42.56293" lon="1.98722">
        <ele>2126</ele>
        <time>2018-07-07T08:20:52.000Z</time>
      </trkpt>
      <trkpt lat="42.56291" lon="1.98722">
        <ele>2126</ele>
        <time>2018-07-07T08:20:53.000Z</time>
      </trkpt>
      <trkpt lat="42.56289" lon="1.98722">
        <ele>2126</ele>
        <time>2018-07-07T08:20:54.000Z</time>
      </trkpt>
      <trkpt lat="42.56287" lon="1.98722">
        <ele>2126</ele>
        <time>2018-07-07T08:20:55.000Z</time>
      </trkpt>
      <trkpt lat="42.56285" lon="1.98722">
        <ele>2126</ele>
        <time>2018-07-07T08:20:56.000Z</time>
      </trkpt>
      <trkpt lat="42.56283" lon="1.98723">
        <ele>2126</ele>
        <time>2018-07-07T08:20:57.000Z</time>
      </trkpt>
      <trkpt lat="42.56282" lon="1.98724">
        <ele>2126</ele>
        <time>2018-07-07T08:20:58.000Z</time>
      </trkpt>
      <trkpt lat="42.5628" lon="1.98725">
        <ele>2126</ele>
        <time>2018-07-07T08:20:59.000Z</time>
      </trkpt>
      <trkpt lat="42.56278" lon="1.98727">
        <ele>2126</ele>
        <time>2018-07-07T08:21:00.000Z</time>
      </trkpt>
      <trkpt lat="42.56276" lon="1.98729">
        <ele>2125</ele>
        <time>2018-07-07T08:21:01.000Z</time>
      </trkpt>
      <trkpt lat="42.56274" lon="1.9873">
        <ele>2125</ele>
        <time>2018-07-07T08:21:02.000Z</time>
      </trkpt>
      <trkpt lat="42.56272" lon="1.98733">
        <ele>2125</ele>
        <time>2018-07-07T08:21:04.000Z</time>
      </trkpt>
      <trkpt lat="42.5627" lon="1.98735">
        <ele>2125</ele>
        <time>2018-07-07T08:21:05.000Z</time>
      </trkpt>
      <trkpt lat="42.56268" lon="1.98737">
        <ele>2124</ele>
        <time>2018-07-07T08:21:07.000Z</time>
      </trkpt>
      <trkpt lat="42.56266" lon="1.98741">
        <ele>2124</ele>
        <time>2018-07-07T08:21:09.000Z</time>
      </trkpt>
      <trkpt lat="42.56265" lon="1.98744">
        <ele>2124</ele>
        <time>2018-07-07T08:21:11.000Z</time>
      </trkpt>
      <trkpt lat="42.56263" lon="1.98746">
        <ele>2123</ele>
        <time>2018-07-07T08:21:13.000Z</time>
      </trkpt>
      <trkpt lat="42.56263" lon="1.98749">
        <ele>2123</ele>
        <time>2018-07-07T08:21:15.000Z</time>
      </trkpt>
      <trkpt lat="42.56263" lon="1.98752">
        <ele>2118</ele>
        <time>2018-07-07T08:21:17.000Z</time>
      </trkpt>
      <trkpt lat="42.56263" lon="1.98757">
        <ele>2118</ele>
        <time>2018-07-07T08:21:19.000Z</time>
      </trkpt>
      <trkpt lat="42.56262" lon="1.98761">
        <ele>2118</ele>
        <time>2018-07-07T08:21:21.000Z</time>
      </trkpt>
      <trkpt lat="42.56261" lon="1.98763">
        <ele>2118</ele>
        <time>2018-07-07T08:21:23.000Z</time>
      </trkpt>
      <trkpt lat="42.56259" lon="1.98766">
        <ele>2117</ele>
        <time>2018-07-07T08:21:25.000Z</time>
      </trkpt>
      <trkpt lat="42.5626" lon="1.98769">
        <ele>2117</ele>
        <time>2018-07-07T08:21:27.000Z</time>
      </trkpt>
      <trkpt lat="42.5626" lon="1.98773">
        <ele>2117</ele>
        <time>2018-07-07T08:21:30.000Z</time>
      </trkpt>
      <trkpt lat="42.56259" lon="1.98776">
        <ele>2116</ele>
        <time>2018-07-07T08:21:32.000Z</time>
      </trkpt>
      <trkpt lat="42.56258" lon="1.9878">
        <ele>2116</ele>
        <time>2018-07-07T08:21:34.000Z</time>
      </trkpt>
      <trkpt lat="42.56256" lon="1.98782">
        <ele>2116</ele>
        <time>2018-07-07T08:21:36.000Z</time>
      </trkpt>
      <trkpt lat="42.56254" lon="1.98786">
        <ele>2115</ele>
        <time>2018-07-07T08:21:38.000Z</time>
      </trkpt>
      <trkpt lat="42.56251" lon="1.98788">
        <ele>2115</ele>
        <time>2018-07-07T08:21:40.000Z</time>
      </trkpt>
      <trkpt lat="42.56249" lon="1.98793">
        <ele>2116</ele>
        <time>2018-07-07T08:21:42.000Z</time>
      </trkpt>
      <trkpt lat="42.56247" lon="1.98794">
        <ele>2116</ele>
        <time>2018-07-07T08:21:43.000Z</time>
      </trkpt>
      <trkpt lat="42.56244" lon="1.98795">
        <ele>2116</ele>
        <time>2018-07-07T08:21:44.000Z</time>
      </trkpt>
      <trkpt lat="42.56242" lon="1.98795">
        <ele>2116</ele>
        <time>2018-07-07T08:21:45.000Z</time>
      </trkpt>
      <trkpt lat="42.56239" lon="1.98797">
        <ele>2115</ele>
        <time>2018-07-07T08:21:47.000Z</time>
      </trkpt>
      <trkpt lat="42.56238" lon="1.98798">
        <ele>2115</ele>
        <time>2018-07-07T08:21:48.000Z</time>
      </trkpt>
      <trkpt lat="42.56236" lon="1.988">
        <ele>2115</ele>
        <time>2018-07-07T08:21:49.000Z</time>
      </trkpt>
      <trkpt lat="42.56234" lon="1.98801">
        <ele>2115</ele>
        <time>2018-07-07T08:21:50.000Z</time>
      </trkpt>
      <trkpt lat="42.56232" lon="1.98802">
        <ele>2115</ele>
        <time>2018-07-07T08:21:51.000Z</time>
      </trkpt>
      <trkpt lat="42.5623" lon="1.98803">
        <ele>2115</ele>
        <time>2018-07-07T08:21:52.000Z</time>
      </trkpt>
      <trkpt lat="42.56228" lon="1.98804">
        <ele>2115</ele>
        <time>2018-07-07T08:21:53.000Z</time>
      </trkpt>
      <trkpt lat="42.56226" lon="1.98805">
        <ele>2115</ele>
        <time>2018-07-07T08:21:54.000Z</time>
      </trkpt>
      <trkpt lat="42.56224" lon="1.98807">
        <ele>2115</ele>
        <time>2018-07-07T08:21:55.000Z</time>
      </trkpt>
      <trkpt lat="42.56222" lon="1.98808">
        <ele>2115</ele>
        <time>2018-07-07T08:21:56.000Z</time>
      </trkpt>
      <trkpt lat="42.56221" lon="1.98809">
        <ele>2115</ele>
        <time>2018-07-07T08:21:57.000Z</time>
      </trkpt>
      <trkpt lat="42.56219" lon="1.98811">
        <ele>2115</ele>
        <time>2018-07-07T08:21:58.000Z</time>
      </trkpt>
      <trkpt lat="42.56217" lon="1.98812">
        <ele>2115</ele>
        <time>2018-07-07T08:21:59.000Z</time>
      </trkpt>
      <trkpt lat="42.56214" lon="1.98814">
        <ele>2115</ele>
        <time>2018-07-07T08:22:01.000Z</time>
      </trkpt>
      <trkpt lat="42.56211" lon="1.98815">
        <ele>2115</ele>
        <time>2018-07-07T08:22:03.000Z</time>
      </trkpt>
      <trkpt lat="42.5621" lon="1.98816">
        <ele>2115</ele>
        <time>2018-07-07T08:22:04.000Z</time>
      </trkpt>
      <trkpt lat="42.56207" lon="1.98819">
        <ele>2115</ele>
        <time>2018-07-07T08:22:06.000Z</time>
      </trkpt>
      <trkpt lat="42.56205" lon="1.9882">
        <ele>2114</ele>
        <time>2018-07-07T08:22:07.000Z</time>
      </trkpt>
      <trkpt lat="42.56203" lon="1.98821">
        <ele>2114</ele>
        <time>2018-07-07T08:22:08.000Z</time>
      </trkpt>
      <trkpt lat="42.562" lon="1.98824">
        <ele>2114</ele>
        <time>2018-07-07T08:22:10.000Z</time>
      </trkpt>
      <trkpt lat="42.56199" lon="1.98826">
        <ele>2114</ele>
        <time>2018-07-07T08:22:11.000Z</time>
      </trkpt>
      <trkpt lat="42.56197" lon="1.98829">
        <ele>2114</ele>
        <time>2018-07-07T08:22:13.000Z</time>
      </trkpt>
      <trkpt lat="42.56196" lon="1.98831">
        <ele>2114</ele>
        <time>2018-07-07T08:22:15.000Z</time>
      </trkpt>
      <trkpt lat="42.56196" lon="1.98834">
        <ele>2108</ele>
        <time>2018-07-07T08:22:17.000Z</time>
      </trkpt>
      <trkpt lat="42.56195" lon="1.98837">
        <ele>2108</ele>
        <time>2018-07-07T08:22:19.000Z</time>
      </trkpt>
      <trkpt lat="42.56194" lon="1.9884">
        <ele>2108</ele>
        <time>2018-07-07T08:22:21.000Z</time>
      </trkpt>
      <trkpt lat="42.56192" lon="1.98841">
        <ele>2108</ele>
        <time>2018-07-07T08:22:23.000Z</time>
      </trkpt>
      <trkpt lat="42.5619" lon="1.98841">
        <ele>2108</ele>
        <time>2018-07-07T08:22:25.000Z</time>
      </trkpt>
      <trkpt lat="42.5619" lon="1.98844">
        <ele>2108</ele>
        <time>2018-07-07T08:22:28.000Z</time>
      </trkpt>
      <trkpt lat="42.56189" lon="1.98847">
        <ele>2108</ele>
        <time>2018-07-07T08:22:31.000Z</time>
      </trkpt>
      <trkpt lat="42.56186" lon="1.98847">
        <ele>2108</ele>
        <time>2018-07-07T08:22:33.000Z</time>
      </trkpt>
      <trkpt lat="42.56184" lon="1.98849">
        <ele>2108</ele>
        <time>2018-07-07T08:22:36.000Z</time>
      </trkpt>
      <trkpt lat="42.56182" lon="1.98851">
        <ele>2108</ele>
        <time>2018-07-07T08:22:38.000Z</time>
      </trkpt>
      <trkpt lat="42.56181" lon="1.98853">
        <ele>2108</ele>
        <time>2018-07-07T08:22:41.000Z</time>
      </trkpt>
      <trkpt lat="42.56179" lon="1.98855">
        <ele>2107</ele>
        <time>2018-07-07T08:22:44.000Z</time>
      </trkpt>
      <trkpt lat="42.56178" lon="1.98858">
        <ele>2107</ele>
        <time>2018-07-07T08:22:47.000Z</time>
      </trkpt>
      <trkpt lat="42.56177" lon="1.98861">
        <ele>2107</ele>
        <time>2018-07-07T08:22:49.000Z</time>
      </trkpt>
      <trkpt lat="42.56176" lon="1.98863">
        <ele>2107</ele>
        <time>2018-07-07T08:22:51.000Z</time>
      </trkpt>
      <trkpt lat="42.56174" lon="1.98865">
        <ele>2107</ele>
        <time>2018-07-07T08:22:54.000Z</time>
      </trkpt>
      <trkpt lat="42.56173" lon="1.98867">
        <ele>2107</ele>
        <time>2018-07-07T08:22:56.000Z</time>
      </trkpt>
      <trkpt lat="42.56171" lon="1.98868">
        <ele>2106</ele>
        <time>2018-07-07T08:22:58.000Z</time>
      </trkpt>
      <trkpt lat="42.56168" lon="1.9887">
        <ele>2106</ele>
        <time>2018-07-07T08:23:01.000Z</time>
      </trkpt>
      <trkpt lat="42.56167" lon="1.98872">
        <ele>2106</ele>
        <time>2018-07-07T08:23:03.000Z</time>
      </trkpt>
      <trkpt lat="42.56166" lon="1.98876">
        <ele>2110</ele>
        <time>2018-07-07T08:23:05.000Z</time>
      </trkpt>
      <trkpt lat="42.56165" lon="1.9888">
        <ele>2110</ele>
        <time>2018-07-07T08:23:07.000Z</time>
      </trkpt>
      <trkpt lat="42.56162" lon="1.98883">
        <ele>2109</ele>
        <time>2018-07-07T08:23:09.000Z</time>
      </trkpt>
      <trkpt lat="42.5616" lon="1.98886">
        <ele>2109</ele>
        <time>2018-07-07T08:23:11.000Z</time>
      </trkpt>
      <trkpt lat="42.56159" lon="1.98888">
        <ele>2109</ele>
        <time>2018-07-07T08:23:12.000Z</time>
      </trkpt>
      <trkpt lat="42.56156" lon="1.98889">
        <ele>2109</ele>
        <time>2018-07-07T08:23:14.000Z</time>
      </trkpt>
      <trkpt lat="42.56154" lon="1.98893">
        <ele>2108</ele>
        <time>2018-07-07T08:23:17.000Z</time>
      </trkpt>
      <trkpt lat="42.56154" lon="1.98895">
        <ele>2108</ele>
        <time>2018-07-07T08:23:18.000Z</time>
      </trkpt>
      <trkpt lat="42.56152" lon="1.98899">
        <ele>2108</ele>
        <time>2018-07-07T08:23:20.000Z</time>
      </trkpt>
      <trkpt lat="42.56149" lon="1.98903">
        <ele>2108</ele>
        <time>2018-07-07T08:23:22.000Z</time>
      </trkpt>
      <trkpt lat="42.56148" lon="1.98905">
        <ele>2108</ele>
        <time>2018-07-07T08:23:23.000Z</time>
      </trkpt>
      <trkpt lat="42.56145" lon="1.98906">
        <ele>2108</ele>
        <time>2018-07-07T08:23:24.000Z</time>
      </trkpt>
      <trkpt lat="42.56143" lon="1.98907">
        <ele>2108</ele>
        <time>2018-07-07T08:23:25.000Z</time>
      </trkpt>
      <trkpt lat="42.56141" lon="1.98909">
        <ele>2108</ele>
        <time>2018-07-07T08:23:26.000Z</time>
      </trkpt>
      <trkpt lat="42.56139" lon="1.98911">
        <ele>2109</ele>
        <time>2018-07-07T08:23:27.000Z</time>
      </trkpt>
      <trkpt lat="42.56136" lon="1.98913">
        <ele>2109</ele>
        <time>2018-07-07T08:23:28.000Z</time>
      </trkpt>
      <trkpt lat="42.56135" lon="1.98914">
        <ele>2109</ele>
        <time>2018-07-07T08:23:29.000Z</time>
      </trkpt>
      <trkpt lat="42.56133" lon="1.98917">
        <ele>2102</ele>
        <time>2018-07-07T08:23:30.000Z</time>
      </trkpt>
      <trkpt lat="42.56132" lon="1.9892">
        <ele>2102</ele>
        <time>2018-07-07T08:23:31.000Z</time>
      </trkpt>
      <trkpt lat="42.5613" lon="1.98922">
        <ele>2102</ele>
        <time>2018-07-07T08:23:32.000Z</time>
      </trkpt>
      <trkpt lat="42.56128" lon="1.98924">
        <ele>2102</ele>
        <time>2018-07-07T08:23:33.000Z</time>
      </trkpt>
      <trkpt lat="42.56127" lon="1.98926">
        <ele>2103</ele>
        <time>2018-07-07T08:23:35.000Z</time>
      </trkpt>
      <trkpt lat="42.56125" lon="1.98929">
        <ele>2103</ele>
        <time>2018-07-07T08:23:37.000Z</time>
      </trkpt>
      <trkpt lat="42.56123" lon="1.98932">
        <ele>2103</ele>
        <time>2018-07-07T08:23:39.000Z</time>
      </trkpt>
      <trkpt lat="42.5612" lon="1.98935">
        <ele>2103</ele>
        <time>2018-07-07T08:23:41.000Z</time>
      </trkpt>
      <trkpt lat="42.56119" lon="1.98938">
        <ele>2103</ele>
        <time>2018-07-07T08:23:43.000Z</time>
      </trkpt>
      <trkpt lat="42.56118" lon="1.9894">
        <ele>2102</ele>
        <time>2018-07-07T08:23:45.000Z</time>
      </trkpt>
      <trkpt lat="42.56119" lon="1.98945">
        <ele>2102</ele>
        <time>2018-07-07T08:23:47.000Z</time>
      </trkpt>
      <trkpt lat="42.56119" lon="1.98947">
        <ele>2102</ele>
        <time>2018-07-07T08:23:48.000Z</time>
      </trkpt>
      <trkpt lat="42.56119" lon="1.98951">
        <ele>2102</ele>
        <time>2018-07-07T08:23:50.000Z</time>
      </trkpt>
      <trkpt lat="42.56118" lon="1.98953">
        <ele>2102</ele>
        <time>2018-07-07T08:23:52.000Z</time>
      </trkpt>
      <trkpt lat="42.56118" lon="1.98956">
        <ele>2102</ele>
        <time>2018-07-07T08:23:53.000Z</time>
      </trkpt>
      <trkpt lat="42.56116" lon="1.98959">
        <ele>2101</ele>
        <time>2018-07-07T08:23:55.000Z</time>
      </trkpt>
      <trkpt lat="42.56113" lon="1.98961">
        <ele>2101</ele>
        <time>2018-07-07T08:23:57.000Z</time>
      </trkpt>
      <trkpt lat="42.5611" lon="1.98961">
        <ele>2101</ele>
        <time>2018-07-07T08:23:58.000Z</time>
      </trkpt>
      <trkpt lat="42.56108" lon="1.98962">
        <ele>2101</ele>
        <time>2018-07-07T08:23:59.000Z</time>
      </trkpt>
      <trkpt lat="42.56106" lon="1.98965">
        <ele>2101</ele>
        <time>2018-07-07T08:24:01.000Z</time>
      </trkpt>
      <trkpt lat="42.56105" lon="1.98967">
        <ele>2101</ele>
        <time>2018-07-07T08:24:02.000Z</time>
      </trkpt>
      <trkpt lat="42.56104" lon="1.9897">
        <ele>2100</ele>
        <time>2018-07-07T08:24:03.000Z</time>
      </trkpt>
      <trkpt lat="42.56103" lon="1.98972">
        <ele>2100</ele>
        <time>2018-07-07T08:24:04.000Z</time>
      </trkpt>
      <trkpt lat="42.56102" lon="1.98974">
        <ele>2100</ele>
        <time>2018-07-07T08:24:05.000Z</time>
      </trkpt>
      <trkpt lat="42.561" lon="1.98976">
        <ele>2099</ele>
        <time>2018-07-07T08:24:06.000Z</time>
      </trkpt>
      <trkpt lat="42.56099" lon="1.98978">
        <ele>2099</ele>
        <time>2018-07-07T08:24:07.000Z</time>
      </trkpt>
      <trkpt lat="42.56098" lon="1.98981">
        <ele>2098</ele>
        <time>2018-07-07T08:24:08.000Z</time>
      </trkpt>
      <trkpt lat="42.56097" lon="1.98984">
        <ele>2098</ele>
        <time>2018-07-07T08:24:09.000Z</time>
      </trkpt>
      <trkpt lat="42.56095" lon="1.98986">
        <ele>2097</ele>
        <time>2018-07-07T08:24:10.000Z</time>
      </trkpt>
      <trkpt lat="42.56094" lon="1.98989">
        <ele>2097</ele>
        <time>2018-07-07T08:24:11.000Z</time>
      </trkpt>
      <trkpt lat="42.56092" lon="1.98991">
        <ele>2096</ele>
        <time>2018-07-07T08:24:12.000Z</time>
      </trkpt>
      <trkpt lat="42.56092" lon="1.98994">
        <ele>2096</ele>
        <time>2018-07-07T08:24:13.000Z</time>
      </trkpt>
      <trkpt lat="42.56091" lon="1.98996">
        <ele>2095</ele>
        <time>2018-07-07T08:24:14.000Z</time>
      </trkpt>
      <trkpt lat="42.5609" lon="1.98998">
        <ele>2094</ele>
        <time>2018-07-07T08:24:15.000Z</time>
      </trkpt>
      <trkpt lat="42.56088" lon="1.99002">
        <ele>2094</ele>
        <time>2018-07-07T08:24:17.000Z</time>
      </trkpt>
      <trkpt lat="42.56087" lon="1.99004">
        <ele>2094</ele>
        <time>2018-07-07T08:24:18.000Z</time>
      </trkpt>
      <trkpt lat="42.56086" lon="1.99007">
        <ele>2095</ele>
        <time>2018-07-07T08:24:19.000Z</time>
      </trkpt>
      <trkpt lat="42.56085" lon="1.99009">
        <ele>2095</ele>
        <time>2018-07-07T08:24:20.000Z</time>
      </trkpt>
      <trkpt lat="42.56083" lon="1.99013">
        <ele>2094</ele>
        <time>2018-07-07T08:24:22.000Z</time>
      </trkpt>
      <trkpt lat="42.56082" lon="1.99016">
        <ele>2095</ele>
        <time>2018-07-07T08:24:23.000Z</time>
      </trkpt>
      <trkpt lat="42.5608" lon="1.99017">
        <ele>2095</ele>
        <time>2018-07-07T08:24:24.000Z</time>
      </trkpt>
      <trkpt lat="42.56078" lon="1.99019">
        <ele>2095</ele>
        <time>2018-07-07T08:24:25.000Z</time>
      </trkpt>
      <trkpt lat="42.56075" lon="1.99021">
        <ele>2095</ele>
        <time>2018-07-07T08:24:27.000Z</time>
      </trkpt>
      <trkpt lat="42.56073" lon="1.99022">
        <ele>2096</ele>
        <time>2018-07-07T08:24:28.000Z</time>
      </trkpt>
      <trkpt lat="42.56071" lon="1.99022">
        <ele>2096</ele>
        <time>2018-07-07T08:24:29.000Z</time>
      </trkpt>
      <trkpt lat="42.56068" lon="1.99024">
        <ele>2096</ele>
        <time>2018-07-07T08:24:31.000Z</time>
      </trkpt>
      <trkpt lat="42.56066" lon="1.99025">
        <ele>2096</ele>
        <time>2018-07-07T08:24:32.000Z</time>
      </trkpt>
      <trkpt lat="42.56064" lon="1.99027">
        <ele>2096</ele>
        <time>2018-07-07T08:24:33.000Z</time>
      </trkpt>
      <trkpt lat="42.56062" lon="1.99029">
        <ele>2096</ele>
        <time>2018-07-07T08:24:34.000Z</time>
      </trkpt>
      <trkpt lat="42.56059" lon="1.99031">
        <ele>2097</ele>
        <time>2018-07-07T08:24:35.000Z</time>
      </trkpt>
      <trkpt lat="42.56057" lon="1.99034">
        <ele>2097</ele>
        <time>2018-07-07T08:24:36.000Z</time>
      </trkpt>
      <trkpt lat="42.56055" lon="1.99037">
        <ele>2097</ele>
        <time>2018-07-07T08:24:37.000Z</time>
      </trkpt>
      <trkpt lat="42.56052" lon="1.99039">
        <ele>2097</ele>
        <time>2018-07-07T08:24:38.000Z</time>
      </trkpt>
      <trkpt lat="42.5605" lon="1.99042">
        <ele>2097</ele>
        <time>2018-07-07T08:24:39.000Z</time>
      </trkpt>
      <trkpt lat="42.56048" lon="1.99044">
        <ele>2097</ele>
        <time>2018-07-07T08:24:40.000Z</time>
      </trkpt>
      <trkpt lat="42.56047" lon="1.99046">
        <ele>2097</ele>
        <time>2018-07-07T08:24:41.000Z</time>
      </trkpt>
      <trkpt lat="42.56044" lon="1.9905">
        <ele>2096</ele>
        <time>2018-07-07T08:24:43.000Z</time>
      </trkpt>
      <trkpt lat="42.56044" lon="1.99053">
        <ele>2096</ele>
        <time>2018-07-07T08:24:44.000Z</time>
      </trkpt>
      <trkpt lat="42.56043" lon="1.99057">
        <ele>2096</ele>
        <time>2018-07-07T08:24:45.000Z</time>
      </trkpt>
      <trkpt lat="42.56042" lon="1.99059">
        <ele>2096</ele>
        <time>2018-07-07T08:24:46.000Z</time>
      </trkpt>
      <trkpt lat="42.5604" lon="1.99061">
        <ele>2096</ele>
        <time>2018-07-07T08:24:47.000Z</time>
      </trkpt>
      <trkpt lat="42.56038" lon="1.99065">
        <ele>2095</ele>
        <time>2018-07-07T08:24:49.000Z</time>
      </trkpt>
      <trkpt lat="42.56036" lon="1.99067">
        <ele>2095</ele>
        <time>2018-07-07T08:24:50.000Z</time>
      </trkpt>
      <trkpt lat="42.56034" lon="1.99069">
        <ele>2095</ele>
        <time>2018-07-07T08:24:51.000Z</time>
      </trkpt>
      <trkpt lat="42.56032" lon="1.9907">
        <ele>2095</ele>
        <time>2018-07-07T08:24:52.000Z</time>
      </trkpt>
      <trkpt lat="42.56031" lon="1.99073">
        <ele>2094</ele>
        <time>2018-07-07T08:24:54.000Z</time>
      </trkpt>
      <trkpt lat="42.5603" lon="1.99076">
        <ele>2094</ele>
        <time>2018-07-07T08:24:56.000Z</time>
      </trkpt>
      <trkpt lat="42.5603" lon="1.99079">
        <ele>2094</ele>
        <time>2018-07-07T08:24:58.000Z</time>
      </trkpt>
      <trkpt lat="42.56029" lon="1.99082">
        <ele>2093</ele>
        <time>2018-07-07T08:25:00.000Z</time>
      </trkpt>
      <trkpt lat="42.56028" lon="1.99084">
        <ele>2089</ele>
        <time>2018-07-07T08:25:02.000Z</time>
      </trkpt>
      <trkpt lat="42.56027" lon="1.99087">
        <ele>2089</ele>
        <time>2018-07-07T08:25:04.000Z</time>
      </trkpt>
      <trkpt lat="42.56025" lon="1.99089">
        <ele>2089</ele>
        <time>2018-07-07T08:25:06.000Z</time>
      </trkpt>
      <trkpt lat="42.56024" lon="1.99093">
        <ele>2089</ele>
        <time>2018-07-07T08:25:08.000Z</time>
      </trkpt>
      <trkpt lat="42.56024" lon="1.99096">
        <ele>2089</ele>
        <time>2018-07-07T08:25:10.000Z</time>
      </trkpt>
      <trkpt lat="42.56024" lon="1.99099">
        <ele>2089</ele>
        <time>2018-07-07T08:25:12.000Z</time>
      </trkpt>
      <trkpt lat="42.56024" lon="1.99103">
        <ele>2089</ele>
        <time>2018-07-07T08:25:14.000Z</time>
      </trkpt>
      <trkpt lat="42.56025" lon="1.99108">
        <ele>2089</ele>
        <time>2018-07-07T08:25:16.000Z</time>
      </trkpt>
      <trkpt lat="42.56025" lon="1.99111">
        <ele>2089</ele>
        <time>2018-07-07T08:25:17.000Z</time>
      </trkpt>
      <trkpt lat="42.56024" lon="1.99113">
        <ele>2089</ele>
        <time>2018-07-07T08:25:18.000Z</time>
      </trkpt>
      <trkpt lat="42.56024" lon="1.99116">
        <ele>2089</ele>
        <time>2018-07-07T08:25:20.000Z</time>
      </trkpt>
      <trkpt lat="42.56023" lon="1.99121">
        <ele>2089</ele>
        <time>2018-07-07T08:25:22.000Z</time>
      </trkpt>
      <trkpt lat="42.56023" lon="1.99124">
        <ele>2089</ele>
        <time>2018-07-07T08:25:23.000Z</time>
      </trkpt>
      <trkpt lat="42.56022" lon="1.99128">
        <ele>2088</ele>
        <time>2018-07-07T08:25:25.000Z</time>
      </trkpt>
      <trkpt lat="42.56022" lon="1.99133">
        <ele>2088</ele>
        <time>2018-07-07T08:25:27.000Z</time>
      </trkpt>
      <trkpt lat="42.56022" lon="1.99136">
        <ele>2088</ele>
        <time>2018-07-07T08:25:28.000Z</time>
      </trkpt>
      <trkpt lat="42.56021" lon="1.99138">
        <ele>2087</ele>
        <time>2018-07-07T08:25:29.000Z</time>
      </trkpt>
      <trkpt lat="42.5602" lon="1.99141">
        <ele>2087</ele>
        <time>2018-07-07T08:25:30.000Z</time>
      </trkpt>
      <trkpt lat="42.5602" lon="1.99144">
        <ele>2087</ele>
        <time>2018-07-07T08:25:31.000Z</time>
      </trkpt>
      <trkpt lat="42.5602" lon="1.99146">
        <ele>2087</ele>
        <time>2018-07-07T08:25:32.000Z</time>
      </trkpt>
      <trkpt lat="42.56019" lon="1.99149">
        <ele>2086</ele>
        <time>2018-07-07T08:25:33.000Z</time>
      </trkpt>
      <trkpt lat="42.56019" lon="1.99151">
        <ele>2086</ele>
        <time>2018-07-07T08:25:34.000Z</time>
      </trkpt>
      <trkpt lat="42.56017" lon="1.99153">
        <ele>2085</ele>
        <time>2018-07-07T08:25:35.000Z</time>
      </trkpt>
      <trkpt lat="42.56015" lon="1.99156">
        <ele>2084</ele>
        <time>2018-07-07T08:25:37.000Z</time>
      </trkpt>
      <trkpt lat="42.56014" lon="1.99158">
        <ele>2084</ele>
        <time>2018-07-07T08:25:38.000Z</time>
      </trkpt>
      <trkpt lat="42.56013" lon="1.99161">
        <ele>2083</ele>
        <time>2018-07-07T08:25:39.000Z</time>
      </trkpt>
      <trkpt lat="42.56011" lon="1.99163">
        <ele>2082</ele>
        <time>2018-07-07T08:25:40.000Z</time>
      </trkpt>
      <trkpt lat="42.56011" lon="1.99166">
        <ele>2082</ele>
        <time>2018-07-07T08:25:41.000Z</time>
      </trkpt>
      <trkpt lat="42.5601" lon="1.99168">
        <ele>2081</ele>
        <time>2018-07-07T08:25:42.000Z</time>
      </trkpt>
      <trkpt lat="42.56011" lon="1.99171">
        <ele>2081</ele>
        <time>2018-07-07T08:25:43.000Z</time>
      </trkpt>
      <trkpt lat="42.56011" lon="1.99175">
        <ele>2082</ele>
        <time>2018-07-07T08:25:45.000Z</time>
      </trkpt>
      <trkpt lat="42.5601" lon="1.99177">
        <ele>2082</ele>
        <time>2018-07-07T08:25:46.000Z</time>
      </trkpt>
      <trkpt lat="42.5601" lon="1.9918">
        <ele>2082</ele>
        <time>2018-07-07T08:25:47.000Z</time>
      </trkpt>
      <trkpt lat="42.56009" lon="1.99183">
        <ele>2082</ele>
        <time>2018-07-07T08:25:48.000Z</time>
      </trkpt>
      <trkpt lat="42.56008" lon="1.99185">
        <ele>2083</ele>
        <time>2018-07-07T08:25:49.000Z</time>
      </trkpt>
      <trkpt lat="42.56008" lon="1.9919">
        <ele>2083</ele>
        <time>2018-07-07T08:25:51.000Z</time>
      </trkpt>
      <trkpt lat="42.56009" lon="1.99194">
        <ele>2083</ele>
        <time>2018-07-07T08:25:53.000Z</time>
      </trkpt>
      <trkpt lat="42.56008" lon="1.99209">
        <ele>2084</ele>
        <time>2018-07-07T08:25:58.000Z</time>
      </trkpt>
      <trkpt lat="42.56006" lon="1.99212">
        <ele>2083</ele>
        <time>2018-07-07T08:25:59.000Z</time>
      </trkpt>
      <trkpt lat="42.56005" lon="1.99214">
        <ele>2083</ele>
        <time>2018-07-07T08:26:00.000Z</time>
      </trkpt>
      <trkpt lat="42.56" lon="1.99227">
        <ele>2081</ele>
        <time>2018-07-07T08:26:04.000Z</time>
      </trkpt>
      <trkpt lat="42.55999" lon="1.99231">
        <ele>2070</ele>
        <time>2018-07-07T08:26:05.000Z</time>
      </trkpt>
      <trkpt lat="42.55998" lon="1.99235">
        <ele>2071</ele>
        <time>2018-07-07T08:26:06.000Z</time>
      </trkpt>
      <trkpt lat="42.55998" lon="1.99238">
        <ele>2071</ele>
        <time>2018-07-07T08:26:07.000Z</time>
      </trkpt>
      <trkpt lat="42.55998" lon="1.99241">
        <ele>2071</ele>
        <time>2018-07-07T08:26:08.000Z</time>
      </trkpt>
      <trkpt lat="42.55998" lon="1.99245">
        <ele>2072</ele>
        <time>2018-07-07T08:26:10.000Z</time>
      </trkpt>
      <trkpt lat="42.55998" lon="1.99249">
        <ele>2073</ele>
        <time>2018-07-07T08:26:12.000Z</time>
      </trkpt>
      <trkpt lat="42.55999" lon="1.99254">
        <ele>2072</ele>
        <time>2018-07-07T08:26:14.000Z</time>
      </trkpt>
      <trkpt lat="42.55999" lon="1.99258">
        <ele>2070</ele>
        <time>2018-07-07T08:26:16.000Z</time>
      </trkpt>
      <trkpt lat="42.56" lon="1.99262">
        <ele>2078</ele>
        <time>2018-07-07T08:26:18.000Z</time>
      </trkpt>
      <trkpt lat="42.56" lon="1.99267">
        <ele>2079</ele>
        <time>2018-07-07T08:26:20.000Z</time>
      </trkpt>
      <trkpt lat="42.56" lon="1.99272">
        <ele>2067</ele>
        <time>2018-07-07T08:26:22.000Z</time>
      </trkpt>
      <trkpt lat="42.56" lon="1.99274">
        <ele>2066</ele>
        <time>2018-07-07T08:26:23.000Z</time>
      </trkpt>
      <trkpt lat="42.55999" lon="1.99278">
        <ele>2066</ele>
        <time>2018-07-07T08:26:25.000Z</time>
      </trkpt>
      <trkpt lat="42.55998" lon="1.99282">
        <ele>2065</ele>
        <time>2018-07-07T08:26:27.000Z</time>
      </trkpt>
      <trkpt lat="42.55999" lon="1.99286">
        <ele>2065</ele>
        <time>2018-07-07T08:26:29.000Z</time>
      </trkpt>
      <trkpt lat="42.55999" lon="1.9929">
        <ele>2065</ele>
        <time>2018-07-07T08:26:31.000Z</time>
      </trkpt>
      <trkpt lat="42.55999" lon="1.99294">
        <ele>2065</ele>
        <time>2018-07-07T08:26:33.000Z</time>
      </trkpt>
      <trkpt lat="42.56" lon="1.99298">
        <ele>2065</ele>
        <time>2018-07-07T08:26:35.000Z</time>
      </trkpt>
      <trkpt lat="42.56001" lon="1.993">
        <ele>2081</ele>
        <time>2018-07-07T08:26:37.000Z</time>
      </trkpt>
      <trkpt lat="42.56" lon="1.99304">
        <ele>2081</ele>
        <time>2018-07-07T08:26:39.000Z</time>
      </trkpt>
      <trkpt lat="42.56" lon="1.99308">
        <ele>2080</ele>
        <time>2018-07-07T08:26:41.000Z</time>
      </trkpt>
      <trkpt lat="42.56001" lon="1.99312">
        <ele>2080</ele>
        <time>2018-07-07T08:26:43.000Z</time>
      </trkpt>
      <trkpt lat="42.56001" lon="1.99315">
        <ele>2079</ele>
        <time>2018-07-07T08:26:45.000Z</time>
      </trkpt>
      <trkpt lat="42.56001" lon="1.99319">
        <ele>2078</ele>
        <time>2018-07-07T08:26:47.000Z</time>
      </trkpt>
      <trkpt lat="42.56001" lon="1.99323">
        <ele>2077</ele>
        <time>2018-07-07T08:26:49.000Z</time>
      </trkpt>
      <trkpt lat="42.56002" lon="1.99326">
        <ele>2076</ele>
        <time>2018-07-07T08:26:50.000Z</time>
      </trkpt>
      <trkpt lat="42.56003" lon="1.99328">
        <ele>2076</ele>
        <time>2018-07-07T08:26:51.000Z</time>
      </trkpt>
      <trkpt lat="42.56003" lon="1.99331">
        <ele>2075</ele>
        <time>2018-07-07T08:26:52.000Z</time>
      </trkpt>
      <trkpt lat="42.56003" lon="1.99333">
        <ele>2075</ele>
        <time>2018-07-07T08:26:53.000Z</time>
      </trkpt>
      <trkpt lat="42.56004" lon="1.99336">
        <ele>2074</ele>
        <time>2018-07-07T08:26:54.000Z</time>
      </trkpt>
      <trkpt lat="42.56004" lon="1.99338">
        <ele>2075</ele>
        <time>2018-07-07T08:26:55.000Z</time>
      </trkpt>
      <trkpt lat="42.56004" lon="1.99341">
        <ele>2075</ele>
        <time>2018-07-07T08:26:56.000Z</time>
      </trkpt>
      <trkpt lat="42.56005" lon="1.99344">
        <ele>2076</ele>
        <time>2018-07-07T08:26:57.000Z</time>
      </trkpt>
      <trkpt lat="42.56005" lon="1.99346">
        <ele>2076</ele>
        <time>2018-07-07T08:26:58.000Z</time>
      </trkpt>
      <trkpt lat="42.56006" lon="1.99351">
        <ele>2076</ele>
        <time>2018-07-07T08:27:00.000Z</time>
      </trkpt>
      <trkpt lat="42.56007" lon="1.99354">
        <ele>2077</ele>
        <time>2018-07-07T08:27:01.000Z</time>
      </trkpt>
      <trkpt lat="42.56008" lon="1.99356">
        <ele>2077</ele>
        <time>2018-07-07T08:27:02.000Z</time>
      </trkpt>
      <trkpt lat="42.56009" lon="1.9936">
        <ele>2077</ele>
        <time>2018-07-07T08:27:04.000Z</time>
      </trkpt>
      <trkpt lat="42.5601" lon="1.99363">
        <ele>2077</ele>
        <time>2018-07-07T08:27:05.000Z</time>
      </trkpt>
      <trkpt lat="42.5601" lon="1.99365">
        <ele>2077</ele>
        <time>2018-07-07T08:27:06.000Z</time>
      </trkpt>
      <trkpt lat="42.56011" lon="1.99368">
        <ele>2077</ele>
        <time>2018-07-07T08:27:07.000Z</time>
      </trkpt>
      <trkpt lat="42.56012" lon="1.99371">
        <ele>2077</ele>
        <time>2018-07-07T08:27:08.000Z</time>
      </trkpt>
      <trkpt lat="42.56012" lon="1.99376">
        <ele>2076</ele>
        <time>2018-07-07T08:27:10.000Z</time>
      </trkpt>
      <trkpt lat="42.56013" lon="1.99379">
        <ele>2076</ele>
        <time>2018-07-07T08:27:12.000Z</time>
      </trkpt>
      <trkpt lat="42.56013" lon="1.99382">
        <ele>2075</ele>
        <time>2018-07-07T08:27:14.000Z</time>
      </trkpt>
      <trkpt lat="42.56013" lon="1.99386">
        <ele>2075</ele>
        <time>2018-07-07T08:27:17.000Z</time>
      </trkpt>
      <trkpt lat="42.56013" lon="1.99389">
        <ele>2074</ele>
        <time>2018-07-07T08:27:20.000Z</time>
      </trkpt>
      <trkpt lat="42.56013" lon="1.99392">
        <ele>2074</ele>
        <time>2018-07-07T08:27:23.000Z</time>
      </trkpt>
      <trkpt lat="42.56015" lon="1.99394">
        <ele>2074</ele>
        <time>2018-07-07T08:27:26.000Z</time>
      </trkpt>
      <trkpt lat="42.56016" lon="1.99397">
        <ele>2073</ele>
        <time>2018-07-07T08:27:28.000Z</time>
      </trkpt>
      <trkpt lat="42.56017" lon="1.994">
        <ele>2073</ele>
        <time>2018-07-07T08:27:31.000Z</time>
      </trkpt>
      <trkpt lat="42.56015" lon="1.99402">
        <ele>2072</ele>
        <time>2018-07-07T08:27:34.000Z</time>
      </trkpt>
      <trkpt lat="42.56015" lon="1.99404">
        <ele>2071</ele>
        <time>2018-07-07T08:27:38.000Z</time>
      </trkpt>
      <trkpt lat="42.56016" lon="1.99407">
        <ele>2071</ele>
        <time>2018-07-07T08:27:41.000Z</time>
      </trkpt>
      <trkpt lat="42.56016" lon="1.9941">
        <ele>2070</ele>
        <time>2018-07-07T08:27:49.000Z</time>
      </trkpt>
      <trkpt lat="42.56017" lon="1.99412">
        <ele>2071</ele>
        <time>2018-07-07T08:27:54.000Z</time>
      </trkpt>
      <trkpt lat="42.56018" lon="1.99414">
        <ele>2071</ele>
        <time>2018-07-07T08:27:56.000Z</time>
      </trkpt>
      <trkpt lat="42.5602" lon="1.99416">
        <ele>2072</ele>
        <time>2018-07-07T08:27:58.000Z</time>
      </trkpt>
      <trkpt lat="42.56022" lon="1.99418">
        <ele>2066</ele>
        <time>2018-07-07T08:28:00.000Z</time>
      </trkpt>
      <trkpt lat="42.56023" lon="1.99421">
        <ele>2066</ele>
        <time>2018-07-07T08:28:02.000Z</time>
      </trkpt>
      <trkpt lat="42.56024" lon="1.99423">
        <ele>2066</ele>
        <time>2018-07-07T08:28:04.000Z</time>
      </trkpt>
      <trkpt lat="42.56026" lon="1.99425">
        <ele>2067</ele>
        <time>2018-07-07T08:28:07.000Z</time>
      </trkpt>
      <trkpt lat="42.56028" lon="1.99428">
        <ele>2067</ele>
        <time>2018-07-07T08:28:09.000Z</time>
      </trkpt>
      <trkpt lat="42.56029" lon="1.99431">
        <ele>2067</ele>
        <time>2018-07-07T08:28:10.000Z</time>
      </trkpt>
      <trkpt lat="42.5603" lon="1.99434">
        <ele>2067</ele>
        <time>2018-07-07T08:28:11.000Z</time>
      </trkpt>
      <trkpt lat="42.56031" lon="1.99438">
        <ele>2067</ele>
        <time>2018-07-07T08:28:13.000Z</time>
      </trkpt>
      <trkpt lat="42.56032" lon="1.9944">
        <ele>2068</ele>
        <time>2018-07-07T08:28:15.000Z</time>
      </trkpt>
      <trkpt lat="42.56033" lon="1.99442">
        <ele>2068</ele>
        <time>2018-07-07T08:28:18.000Z</time>
      </trkpt>
      <trkpt lat="42.56033" lon="1.99445">
        <ele>2068</ele>
        <time>2018-07-07T08:28:23.000Z</time>
      </trkpt>
      <trkpt lat="42.56032" lon="1.99448">
        <ele>2067</ele>
        <time>2018-07-07T08:28:26.000Z</time>
      </trkpt>
      <trkpt lat="42.5603" lon="1.99449">
        <ele>2067</ele>
        <time>2018-07-07T08:28:28.000Z</time>
      </trkpt>
      <trkpt lat="42.56028" lon="1.99451">
        <ele>2066</ele>
        <time>2018-07-07T08:28:30.000Z</time>
      </trkpt>
      <trkpt lat="42.56028" lon="1.99455">
        <ele>2066</ele>
        <time>2018-07-07T08:28:33.000Z</time>
      </trkpt>
      <trkpt lat="42.56029" lon="1.99458">
        <ele>2066</ele>
        <time>2018-07-07T08:28:35.000Z</time>
      </trkpt>
      <trkpt lat="42.5603" lon="1.9946">
        <ele>2066</ele>
        <time>2018-07-07T08:28:38.000Z</time>
      </trkpt>
      <trkpt lat="42.5603" lon="1.99462">
        <ele>2066</ele>
        <time>2018-07-07T08:28:41.000Z</time>
      </trkpt>
      <trkpt lat="42.5603" lon="1.99465">
        <ele>2065</ele>
        <time>2018-07-07T08:28:43.000Z</time>
      </trkpt>
      <trkpt lat="42.56029" lon="1.99469">
        <ele>2065</ele>
        <time>2018-07-07T08:28:45.000Z</time>
      </trkpt>
      <trkpt lat="42.56028" lon="1.99473">
        <ele>2064</ele>
        <time>2018-07-07T08:28:47.000Z</time>
      </trkpt>
      <trkpt lat="42.56029" lon="1.99477">
        <ele>2064</ele>
        <time>2018-07-07T08:28:49.000Z</time>
      </trkpt>
      <trkpt lat="42.5603" lon="1.9948">
        <ele>2064</ele>
        <time>2018-07-07T08:28:50.000Z</time>
      </trkpt>
      <trkpt lat="42.5603" lon="1.99483">
        <ele>2063</ele>
        <time>2018-07-07T08:28:51.000Z</time>
      </trkpt>
      <trkpt lat="42.56031" lon="1.99485">
        <ele>2063</ele>
        <time>2018-07-07T08:28:52.000Z</time>
      </trkpt>
      <trkpt lat="42.56031" lon="1.99488">
        <ele>2063</ele>
        <time>2018-07-07T08:28:53.000Z</time>
      </trkpt>
      <trkpt lat="42.56032" lon="1.99492">
        <ele>2063</ele>
        <time>2018-07-07T08:28:55.000Z</time>
      </trkpt>
      <trkpt lat="42.56031" lon="1.99496">
        <ele>2062</ele>
        <time>2018-07-07T08:28:57.000Z</time>
      </trkpt>
      <trkpt lat="42.5603" lon="1.99498">
        <ele>2062</ele>
        <time>2018-07-07T08:28:58.000Z</time>
      </trkpt>
      <trkpt lat="42.56028" lon="1.99501">
        <ele>2054</ele>
        <time>2018-07-07T08:29:00.000Z</time>
      </trkpt>
      <trkpt lat="42.56027" lon="1.99504">
        <ele>2054</ele>
        <time>2018-07-07T08:29:02.000Z</time>
      </trkpt>
      <trkpt lat="42.56025" lon="1.99508">
        <ele>2053</ele>
        <time>2018-07-07T08:29:04.000Z</time>
      </trkpt>
      <trkpt lat="42.56022" lon="1.99511">
        <ele>2053</ele>
        <time>2018-07-07T08:29:06.000Z</time>
      </trkpt>
      <trkpt lat="42.5602" lon="1.99513">
        <ele>2053</ele>
        <time>2018-07-07T08:29:08.000Z</time>
      </trkpt>
      <trkpt lat="42.56019" lon="1.99515">
        <ele>2052</ele>
        <time>2018-07-07T08:29:09.000Z</time>
      </trkpt>
      <trkpt lat="42.56017" lon="1.99519">
        <ele>2052</ele>
        <time>2018-07-07T08:29:11.000Z</time>
      </trkpt>
      <trkpt lat="42.56016" lon="1.99523">
        <ele>2052</ele>
        <time>2018-07-07T08:29:13.000Z</time>
      </trkpt>
      <trkpt lat="42.56016" lon="1.99526">
        <ele>2052</ele>
        <time>2018-07-07T08:29:14.000Z</time>
      </trkpt>
      <trkpt lat="42.56016" lon="1.99529">
        <ele>2052</ele>
        <time>2018-07-07T08:29:15.000Z</time>
      </trkpt>
      <trkpt lat="42.56015" lon="1.99533">
        <ele>2052</ele>
        <time>2018-07-07T08:29:17.000Z</time>
      </trkpt>
      <trkpt lat="42.56013" lon="1.99537">
        <ele>2052</ele>
        <time>2018-07-07T08:29:19.000Z</time>
      </trkpt>
      <trkpt lat="42.56012" lon="1.9954">
        <ele>2052</ele>
        <time>2018-07-07T08:29:20.000Z</time>
      </trkpt>
      <trkpt lat="42.56011" lon="1.99543">
        <ele>2051</ele>
        <time>2018-07-07T08:29:21.000Z</time>
      </trkpt>
      <trkpt lat="42.56011" lon="1.99546">
        <ele>2051</ele>
        <time>2018-07-07T08:29:22.000Z</time>
      </trkpt>
      <trkpt lat="42.5601" lon="1.99549">
        <ele>2051</ele>
        <time>2018-07-07T08:29:23.000Z</time>
      </trkpt>
      <trkpt lat="42.5601" lon="1.99552">
        <ele>2050</ele>
        <time>2018-07-07T08:29:24.000Z</time>
      </trkpt>
      <trkpt lat="42.5601" lon="1.99555">
        <ele>2050</ele>
        <time>2018-07-07T08:29:25.000Z</time>
      </trkpt>
      <trkpt lat="42.5601" lon="1.99558">
        <ele>2049</ele>
        <time>2018-07-07T08:29:26.000Z</time>
      </trkpt>
      <trkpt lat="42.5601" lon="1.99561">
        <ele>2049</ele>
        <time>2018-07-07T08:29:27.000Z</time>
      </trkpt>
      <trkpt lat="42.5601" lon="1.99563">
        <ele>2048</ele>
        <time>2018-07-07T08:29:28.000Z</time>
      </trkpt>
      <trkpt lat="42.5601" lon="1.99568">
        <ele>2047</ele>
        <time>2018-07-07T08:29:30.000Z</time>
      </trkpt>
      <trkpt lat="42.56009" lon="1.99572">
        <ele>2046</ele>
        <time>2018-07-07T08:29:32.000Z</time>
      </trkpt>
      <trkpt lat="42.56008" lon="1.99574">
        <ele>2045</ele>
        <time>2018-07-07T08:29:33.000Z</time>
      </trkpt>
      <trkpt lat="42.56007" lon="1.99576">
        <ele>2044</ele>
        <time>2018-07-07T08:29:34.000Z</time>
      </trkpt>
      <trkpt lat="42.56006" lon="1.9958">
        <ele>2043</ele>
        <time>2018-07-07T08:29:36.000Z</time>
      </trkpt>
      <trkpt lat="42.56005" lon="1.99585">
        <ele>2040</ele>
        <time>2018-07-07T08:29:38.000Z</time>
      </trkpt>
      <trkpt lat="42.56004" lon="1.99587">
        <ele>2040</ele>
        <time>2018-07-07T08:29:39.000Z</time>
      </trkpt>
      <trkpt lat="42.56003" lon="1.9959">
        <ele>2041</ele>
        <time>2018-07-07T08:29:40.000Z</time>
      </trkpt>
      <trkpt lat="42.56003" lon="1.99592">
        <ele>2041</ele>
        <time>2018-07-07T08:29:41.000Z</time>
      </trkpt>
      <trkpt lat="42.56002" lon="1.99595">
        <ele>2042</ele>
        <time>2018-07-07T08:29:42.000Z</time>
      </trkpt>
      <trkpt lat="42.56002" lon="1.99598">
        <ele>2042</ele>
        <time>2018-07-07T08:29:43.000Z</time>
      </trkpt>
      <trkpt lat="42.56001" lon="1.99601">
        <ele>2042</ele>
        <time>2018-07-07T08:29:44.000Z</time>
      </trkpt>
      <trkpt lat="42.56" lon="1.99603">
        <ele>2042</ele>
        <time>2018-07-07T08:29:45.000Z</time>
      </trkpt>
      <trkpt lat="42.56" lon="1.99606">
        <ele>2042</ele>
        <time>2018-07-07T08:29:46.000Z</time>
      </trkpt>
      <trkpt lat="42.56" lon="1.99609">
        <ele>2034</ele>
        <time>2018-07-07T08:29:47.000Z</time>
      </trkpt>
      <trkpt lat="42.55999" lon="1.99612">
        <ele>2033</ele>
        <time>2018-07-07T08:29:48.000Z</time>
      </trkpt>
      <trkpt lat="42.55999" lon="1.99615">
        <ele>2033</ele>
        <time>2018-07-07T08:29:49.000Z</time>
      </trkpt>
      <trkpt lat="42.55999" lon="1.99618">
        <ele>2033</ele>
        <time>2018-07-07T08:29:50.000Z</time>
      </trkpt>
      <trkpt lat="42.55999" lon="1.99621">
        <ele>2033</ele>
        <time>2018-07-07T08:29:51.000Z</time>
      </trkpt>
      <trkpt lat="42.55998" lon="1.99624">
        <ele>2033</ele>
        <time>2018-07-07T08:29:52.000Z</time>
      </trkpt>
      <trkpt lat="42.55997" lon="1.99627">
        <ele>2033</ele>
        <time>2018-07-07T08:29:53.000Z</time>
      </trkpt>
      <trkpt lat="42.55997" lon="1.9963">
        <ele>2033</ele>
        <time>2018-07-07T08:29:54.000Z</time>
      </trkpt>
      <trkpt lat="42.55995" lon="1.99633">
        <ele>2033</ele>
        <time>2018-07-07T08:29:55.000Z</time>
      </trkpt>
      <trkpt lat="42.55994" lon="1.99635">
        <ele>2033</ele>
        <time>2018-07-07T08:29:56.000Z</time>
      </trkpt>
      <trkpt lat="42.55992" lon="1.99638">
        <ele>2033</ele>
        <time>2018-07-07T08:29:57.000Z</time>
      </trkpt>
      <trkpt lat="42.55991" lon="1.99641">
        <ele>2033</ele>
        <time>2018-07-07T08:29:58.000Z</time>
      </trkpt>
      <trkpt lat="42.5599" lon="1.99645">
        <ele>2033</ele>
        <time>2018-07-07T08:29:59.000Z</time>
      </trkpt>
      <trkpt lat="42.5599" lon="1.99648">
        <ele>2033</ele>
        <time>2018-07-07T08:30:00.000Z</time>
      </trkpt>
      <trkpt lat="42.55988" lon="1.99651">
        <ele>2033</ele>
        <time>2018-07-07T08:30:01.000Z</time>
      </trkpt>
      <trkpt lat="42.55987" lon="1.99654">
        <ele>2034</ele>
        <time>2018-07-07T08:30:02.000Z</time>
      </trkpt>
      <trkpt lat="42.55985" lon="1.99657">
        <ele>2034</ele>
        <time>2018-07-07T08:30:03.000Z</time>
      </trkpt>
      <trkpt lat="42.55984" lon="1.9966">
        <ele>2034</ele>
        <time>2018-07-07T08:30:04.000Z</time>
      </trkpt>
      <trkpt lat="42.55983" lon="1.99663">
        <ele>2034</ele>
        <time>2018-07-07T08:30:05.000Z</time>
      </trkpt>
      <trkpt lat="42.55982" lon="1.99666">
        <ele>2033</ele>
        <time>2018-07-07T08:30:06.000Z</time>
      </trkpt>
      <trkpt lat="42.55981" lon="1.99669">
        <ele>2032</ele>
        <time>2018-07-07T08:30:07.000Z</time>
      </trkpt>
      <trkpt lat="42.5598" lon="1.99672">
        <ele>2032</ele>
        <time>2018-07-07T08:30:08.000Z</time>
      </trkpt>
      <trkpt lat="42.55979" lon="1.99675">
        <ele>2031</ele>
        <time>2018-07-07T08:30:09.000Z</time>
      </trkpt>
      <trkpt lat="42.55978" lon="1.99678">
        <ele>2031</ele>
        <time>2018-07-07T08:30:10.000Z</time>
      </trkpt>
      <trkpt lat="42.55977" lon="1.99681">
        <ele>2031</ele>
        <time>2018-07-07T08:30:11.000Z</time>
      </trkpt>
      <trkpt lat="42.55977" lon="1.99685">
        <ele>2030</ele>
        <time>2018-07-07T08:30:12.000Z</time>
      </trkpt>
      <trkpt lat="42.55977" lon="1.99688">
        <ele>2030</ele>
        <time>2018-07-07T08:30:13.000Z</time>
      </trkpt>
      <trkpt lat="42.55977" lon="1.99692">
        <ele>2030</ele>
        <time>2018-07-07T08:30:14.000Z</time>
      </trkpt>
      <trkpt lat="42.55977" lon="1.99695">
        <ele>2030</ele>
        <time>2018-07-07T08:30:15.000Z</time>
      </trkpt>
      <trkpt lat="42.55978" lon="1.99698">
        <ele>2029</ele>
        <time>2018-07-07T08:30:16.000Z</time>
      </trkpt>
      <trkpt lat="42.55979" lon="1.99702">
        <ele>2029</ele>
        <time>2018-07-07T08:30:17.000Z</time>
      </trkpt>
      <trkpt lat="42.5598" lon="1.99705">
        <ele>2029</ele>
        <time>2018-07-07T08:30:18.000Z</time>
      </trkpt>
      <trkpt lat="42.55981" lon="1.99708">
        <ele>2029</ele>
        <time>2018-07-07T08:30:19.000Z</time>
      </trkpt>
      <trkpt lat="42.55982" lon="1.99711">
        <ele>2029</ele>
        <time>2018-07-07T08:30:20.000Z</time>
      </trkpt>
      <trkpt lat="42.55983" lon="1.99714">
        <ele>2029</ele>
        <time>2018-07-07T08:30:21.000Z</time>
      </trkpt>
      <trkpt lat="42.55984" lon="1.99717">
        <ele>2029</ele>
        <time>2018-07-07T08:30:22.000Z</time>
      </trkpt>
      <trkpt lat="42.55986" lon="1.9972">
        <ele>2029</ele>
        <time>2018-07-07T08:30:23.000Z</time>
      </trkpt>
      <trkpt lat="42.55986" lon="1.99723">
        <ele>2029</ele>
        <time>2018-07-07T08:30:24.000Z</time>
      </trkpt>
      <trkpt lat="42.55987" lon="1.99727">
        <ele>2029</ele>
        <time>2018-07-07T08:30:25.000Z</time>
      </trkpt>
      <trkpt lat="42.55988" lon="1.99731">
        <ele>2029</ele>
        <time>2018-07-07T08:30:26.000Z</time>
      </trkpt>
      <trkpt lat="42.55989" lon="1.99734">
        <ele>2029</ele>
        <time>2018-07-07T08:30:27.000Z</time>
      </trkpt>
      <trkpt lat="42.55989" lon="1.99737">
        <ele>2029</ele>
        <time>2018-07-07T08:30:28.000Z</time>
      </trkpt>
      <trkpt lat="42.5599" lon="1.99741">
        <ele>2029</ele>
        <time>2018-07-07T08:30:29.000Z</time>
      </trkpt>
      <trkpt lat="42.5599" lon="1.99745">
        <ele>2029</ele>
        <time>2018-07-07T08:30:30.000Z</time>
      </trkpt>
      <trkpt lat="42.55991" lon="1.99748">
        <ele>2029</ele>
        <time>2018-07-07T08:30:31.000Z</time>
      </trkpt>
      <trkpt lat="42.5599" lon="1.99752">
        <ele>2027</ele>
        <time>2018-07-07T08:30:32.000Z</time>
      </trkpt>
      <trkpt lat="42.5599" lon="1.99755">
        <ele>2027</ele>
        <time>2018-07-07T08:30:33.000Z</time>
      </trkpt>
      <trkpt lat="42.55991" lon="1.99758">
        <ele>2026</ele>
        <time>2018-07-07T08:30:35.000Z</time>
      </trkpt>
      <trkpt lat="42.55993" lon="1.99761">
        <ele>2026</ele>
        <time>2018-07-07T08:30:37.000Z</time>
      </trkpt>
      <trkpt lat="42.55994" lon="1.99763">
        <ele>2026</ele>
        <time>2018-07-07T08:30:38.000Z</time>
      </trkpt>
      <trkpt lat="42.55994" lon="1.99766">
        <ele>2026</ele>
        <time>2018-07-07T08:30:39.000Z</time>
      </trkpt>
      <trkpt lat="42.55995" lon="1.99769">
        <ele>2025</ele>
        <time>2018-07-07T08:30:40.000Z</time>
      </trkpt>
      <trkpt lat="42.55994" lon="1.99773">
        <ele>2025</ele>
        <time>2018-07-07T08:30:41.000Z</time>
      </trkpt>
      <trkpt lat="42.55993" lon="1.99775">
        <ele>2025</ele>
        <time>2018-07-07T08:30:42.000Z</time>
      </trkpt>
      <trkpt lat="42.55993" lon="1.99777">
        <ele>2024</ele>
        <time>2018-07-07T08:30:43.000Z</time>
      </trkpt>
      <trkpt lat="42.55992" lon="1.9978">
        <ele>2024</ele>
        <time>2018-07-07T08:30:44.000Z</time>
      </trkpt>
      <trkpt lat="42.55991" lon="1.99783">
        <ele>2024</ele>
        <time>2018-07-07T08:30:45.000Z</time>
      </trkpt>
      <trkpt lat="42.5599" lon="1.99787">
        <ele>2024</ele>
        <time>2018-07-07T08:30:46.000Z</time>
      </trkpt>
      <trkpt lat="42.55989" lon="1.99789">
        <ele>2023</ele>
        <time>2018-07-07T08:30:47.000Z</time>
      </trkpt>
      <trkpt lat="42.55987" lon="1.99792">
        <ele>2023</ele>
        <time>2018-07-07T08:30:48.000Z</time>
      </trkpt>
      <trkpt lat="42.55987" lon="1.99795">
        <ele>2023</ele>
        <time>2018-07-07T08:30:49.000Z</time>
      </trkpt>
      <trkpt lat="42.55987" lon="1.99799">
        <ele>2023</ele>
        <time>2018-07-07T08:30:50.000Z</time>
      </trkpt>
      <trkpt lat="42.55986" lon="1.99802">
        <ele>2023</ele>
        <time>2018-07-07T08:30:51.000Z</time>
      </trkpt>
      <trkpt lat="42.55986" lon="1.99804">
        <ele>2023</ele>
        <time>2018-07-07T08:30:52.000Z</time>
      </trkpt>
      <trkpt lat="42.55985" lon="1.99809">
        <ele>2022</ele>
        <time>2018-07-07T08:30:54.000Z</time>
      </trkpt>
      <trkpt lat="42.55985" lon="1.99812">
        <ele>2022</ele>
        <time>2018-07-07T08:30:55.000Z</time>
      </trkpt>
      <trkpt lat="42.55984" lon="1.99815">
        <ele>2022</ele>
        <time>2018-07-07T08:30:56.000Z</time>
      </trkpt>
      <trkpt lat="42.55983" lon="1.99818">
        <ele>2022</ele>
        <time>2018-07-07T08:30:57.000Z</time>
      </trkpt>
      <trkpt lat="42.55983" lon="1.9982">
        <ele>2022</ele>
        <time>2018-07-07T08:30:58.000Z</time>
      </trkpt>
      <trkpt lat="42.55983" lon="1.99823">
        <ele>2022</ele>
        <time>2018-07-07T08:30:59.000Z</time>
      </trkpt>
      <trkpt lat="42.55983" lon="1.99827">
        <ele>2022</ele>
        <time>2018-07-07T08:31:00.000Z</time>
      </trkpt>
      <trkpt lat="42.55982" lon="1.9983">
        <ele>2022</ele>
        <time>2018-07-07T08:31:01.000Z</time>
      </trkpt>
      <trkpt lat="42.55981" lon="1.99834">
        <ele>2019</ele>
        <time>2018-07-07T08:31:02.000Z</time>
      </trkpt>
      <trkpt lat="42.5598" lon="1.99837">
        <ele>2019</ele>
        <time>2018-07-07T08:31:03.000Z</time>
      </trkpt>
      <trkpt lat="42.5598" lon="1.99841">
        <ele>2019</ele>
        <time>2018-07-07T08:31:04.000Z</time>
      </trkpt>
      <trkpt lat="42.55979" lon="1.99844">
        <ele>2019</ele>
        <time>2018-07-07T08:31:05.000Z</time>
      </trkpt>
      <trkpt lat="42.55978" lon="1.99847">
        <ele>2019</ele>
        <time>2018-07-07T08:31:06.000Z</time>
      </trkpt>
      <trkpt lat="42.55978" lon="1.99849">
        <ele>2019</ele>
        <time>2018-07-07T08:31:07.000Z</time>
      </trkpt>
      <trkpt lat="42.55978" lon="1.99853">
        <ele>2019</ele>
        <time>2018-07-07T08:31:08.000Z</time>
      </trkpt>
      <trkpt lat="42.55978" lon="1.99856">
        <ele>2019</ele>
        <time>2018-07-07T08:31:09.000Z</time>
      </trkpt>
      <trkpt lat="42.55977" lon="1.9986">
        <ele>2018</ele>
        <time>2018-07-07T08:31:10.000Z</time>
      </trkpt>
      <trkpt lat="42.55975" lon="1.99863">
        <ele>2018</ele>
        <time>2018-07-07T08:31:11.000Z</time>
      </trkpt>
      <trkpt lat="42.55973" lon="1.99866">
        <ele>2018</ele>
        <time>2018-07-07T08:31:12.000Z</time>
      </trkpt>
      <trkpt lat="42.55971" lon="1.99869">
        <ele>2018</ele>
        <time>2018-07-07T08:31:13.000Z</time>
      </trkpt>
      <trkpt lat="42.55969" lon="1.99871">
        <ele>2018</ele>
        <time>2018-07-07T08:31:14.000Z</time>
      </trkpt>
      <trkpt lat="42.55966" lon="1.99874">
        <ele>2018</ele>
        <time>2018-07-07T08:31:15.000Z</time>
      </trkpt>
      <trkpt lat="42.55964" lon="1.99876">
        <ele>2018</ele>
        <time>2018-07-07T08:31:16.000Z</time>
      </trkpt>
      <trkpt lat="42.55962" lon="1.99879">
        <ele>2018</ele>
        <time>2018-07-07T08:31:17.000Z</time>
      </trkpt>
      <trkpt lat="42.5596" lon="1.99882">
        <ele>2018</ele>
        <time>2018-07-07T08:31:18.000Z</time>
      </trkpt>
      <trkpt lat="42.55958" lon="1.99884">
        <ele>2018</ele>
        <time>2018-07-07T08:31:19.000Z</time>
      </trkpt>
      <trkpt lat="42.55956" lon="1.99887">
        <ele>2017</ele>
        <time>2018-07-07T08:31:20.000Z</time>
      </trkpt>
      <trkpt lat="42.55954" lon="1.99889">
        <ele>2017</ele>
        <time>2018-07-07T08:31:21.000Z</time>
      </trkpt>
      <trkpt lat="42.55952" lon="1.99892">
        <ele>2017</ele>
        <time>2018-07-07T08:31:22.000Z</time>
      </trkpt>
      <trkpt lat="42.55949" lon="1.99895">
        <ele>2017</ele>
        <time>2018-07-07T08:31:23.000Z</time>
      </trkpt>
      <trkpt lat="42.55947" lon="1.99897">
        <ele>2017</ele>
        <time>2018-07-07T08:31:24.000Z</time>
      </trkpt>
      <trkpt lat="42.55945" lon="1.99901">
        <ele>2017</ele>
        <time>2018-07-07T08:31:25.000Z</time>
      </trkpt>
      <trkpt lat="42.55943" lon="1.99904">
        <ele>2017</ele>
        <time>2018-07-07T08:31:26.000Z</time>
      </trkpt>
      <trkpt lat="42.55941" lon="1.99907">
        <ele>2017</ele>
        <time>2018-07-07T08:31:27.000Z</time>
      </trkpt>
      <trkpt lat="42.55939" lon="1.9991">
        <ele>2017</ele>
        <time>2018-07-07T08:31:28.000Z</time>
      </trkpt>
      <trkpt lat="42.55937" lon="1.99914">
        <ele>2017</ele>
        <time>2018-07-07T08:31:29.000Z</time>
      </trkpt>
      <trkpt lat="42.55935" lon="1.99916">
        <ele>2017</ele>
        <time>2018-07-07T08:31:30.000Z</time>
      </trkpt>
      <trkpt lat="42.55933" lon="1.99919">
        <ele>2014</ele>
        <time>2018-07-07T08:31:31.000Z</time>
      </trkpt>
      <trkpt lat="42.55931" lon="1.99921">
        <ele>2014</ele>
        <time>2018-07-07T08:31:32.000Z</time>
      </trkpt>
      <trkpt lat="42.55929" lon="1.99923">
        <ele>2014</ele>
        <time>2018-07-07T08:31:33.000Z</time>
      </trkpt>
      <trkpt lat="42.55926" lon="1.99925">
        <ele>2014</ele>
        <time>2018-07-07T08:31:34.000Z</time>
      </trkpt>
      <trkpt lat="42.55924" lon="1.99927">
        <ele>2014</ele>
        <time>2018-07-07T08:31:35.000Z</time>
      </trkpt>
      <trkpt lat="42.55922" lon="1.9993">
        <ele>2014</ele>
        <time>2018-07-07T08:31:36.000Z</time>
      </trkpt>
      <trkpt lat="42.5592" lon="1.99932">
        <ele>2014</ele>
        <time>2018-07-07T08:31:37.000Z</time>
      </trkpt>
      <trkpt lat="42.55918" lon="1.99934">
        <ele>2014</ele>
        <time>2018-07-07T08:31:38.000Z</time>
      </trkpt>
      <trkpt lat="42.55916" lon="1.99936">
        <ele>2014</ele>
        <time>2018-07-07T08:31:39.000Z</time>
      </trkpt>
      <trkpt lat="42.55913" lon="1.99938">
        <ele>2013</ele>
        <time>2018-07-07T08:31:40.000Z</time>
      </trkpt>
      <trkpt lat="42.55911" lon="1.9994">
        <ele>2013</ele>
        <time>2018-07-07T08:31:41.000Z</time>
      </trkpt>
      <trkpt lat="42.55908" lon="1.99941">
        <ele>2013</ele>
        <time>2018-07-07T08:31:42.000Z</time>
      </trkpt>
      <trkpt lat="42.55905" lon="1.99943">
        <ele>2013</ele>
        <time>2018-07-07T08:31:43.000Z</time>
      </trkpt>
      <trkpt lat="42.55903" lon="1.99944">
        <ele>2013</ele>
        <time>2018-07-07T08:31:44.000Z</time>
      </trkpt>
      <trkpt lat="42.559" lon="1.99946">
        <ele>2013</ele>
        <time>2018-07-07T08:31:45.000Z</time>
      </trkpt>
      <trkpt lat="42.55897" lon="1.99948">
        <ele>2012</ele>
        <time>2018-07-07T08:31:46.000Z</time>
      </trkpt>
      <trkpt lat="42.55895" lon="1.99949">
        <ele>2012</ele>
        <time>2018-07-07T08:31:47.000Z</time>
      </trkpt>
      <trkpt lat="42.55892" lon="1.99951">
        <ele>2012</ele>
        <time>2018-07-07T08:31:48.000Z</time>
      </trkpt>
      <trkpt lat="42.5589" lon="1.99953">
        <ele>2012</ele>
        <time>2018-07-07T08:31:49.000Z</time>
      </trkpt>
      <trkpt lat="42.55887" lon="1.99955">
        <ele>2012</ele>
        <time>2018-07-07T08:31:50.000Z</time>
      </trkpt>
      <trkpt lat="42.55885" lon="1.99957">
        <ele>2012</ele>
        <time>2018-07-07T08:31:51.000Z</time>
      </trkpt>
      <trkpt lat="42.55882" lon="1.99959">
        <ele>2012</ele>
        <time>2018-07-07T08:31:52.000Z</time>
      </trkpt>
      <trkpt lat="42.55879" lon="1.99961">
        <ele>2012</ele>
        <time>2018-07-07T08:31:53.000Z</time>
      </trkpt>
      <trkpt lat="42.55877" lon="1.99963">
        <ele>2012</ele>
        <time>2018-07-07T08:31:54.000Z</time>
      </trkpt>
      <trkpt lat="42.55874" lon="1.99964">
        <ele>2012</ele>
        <time>2018-07-07T08:31:55.000Z</time>
      </trkpt>
      <trkpt lat="42.55871" lon="1.99966">
        <ele>2012</ele>
        <time>2018-07-07T08:31:56.000Z</time>
      </trkpt>
      <trkpt lat="42.55868" lon="1.99968">
        <ele>2012</ele>
        <time>2018-07-07T08:31:57.000Z</time>
      </trkpt>
      <trkpt lat="42.55865" lon="1.99969">
        <ele>2011</ele>
        <time>2018-07-07T08:31:58.000Z</time>
      </trkpt>
      <trkpt lat="42.55862" lon="1.9997">
        <ele>2011</ele>
        <time>2018-07-07T08:31:59.000Z</time>
      </trkpt>
      <trkpt lat="42.55859" lon="1.99971">
        <ele>2011</ele>
        <time>2018-07-07T08:32:00.000Z</time>
      </trkpt>
      <trkpt lat="42.55856" lon="1.99973">
        <ele>2011</ele>
        <time>2018-07-07T08:32:01.000Z</time>
      </trkpt>
      <trkpt lat="42.55853" lon="1.99974">
        <ele>2011</ele>
        <time>2018-07-07T08:32:02.000Z</time>
      </trkpt>
      <trkpt lat="42.55851" lon="1.99975">
        <ele>2011</ele>
        <time>2018-07-07T08:32:03.000Z</time>
      </trkpt>
      <trkpt lat="42.55848" lon="1.99977">
        <ele>2011</ele>
        <time>2018-07-07T08:32:04.000Z</time>
      </trkpt>
      <trkpt lat="42.55845" lon="1.99978">
        <ele>2011</ele>
        <time>2018-07-07T08:32:05.000Z</time>
      </trkpt>
      <trkpt lat="42.55842" lon="1.99979">
        <ele>2011</ele>
        <time>2018-07-07T08:32:06.000Z</time>
      </trkpt>
      <trkpt lat="42.55839" lon="1.9998">
        <ele>2011</ele>
        <time>2018-07-07T08:32:07.000Z</time>
      </trkpt>
      <trkpt lat="42.55837" lon="1.99981">
        <ele>2011</ele>
        <time>2018-07-07T08:32:08.000Z</time>
      </trkpt>
      <trkpt lat="42.55834" lon="1.99983">
        <ele>2011</ele>
        <time>2018-07-07T08:32:09.000Z</time>
      </trkpt>
      <trkpt lat="42.55831" lon="1.99984">
        <ele>2010</ele>
        <time>2018-07-07T08:32:10.000Z</time>
      </trkpt>
      <trkpt lat="42.55829" lon="1.99985">
        <ele>2010</ele>
        <time>2018-07-07T08:32:11.000Z</time>
      </trkpt>
      <trkpt lat="42.55826" lon="1.99986">
        <ele>2010</ele>
        <time>2018-07-07T08:32:12.000Z</time>
      </trkpt>
      <trkpt lat="42.55823" lon="1.99988">
        <ele>2010</ele>
        <time>2018-07-07T08:32:13.000Z</time>
      </trkpt>
      <trkpt lat="42.55821" lon="1.99989">
        <ele>2010</ele>
        <time>2018-07-07T08:32:14.000Z</time>
      </trkpt>
      <trkpt lat="42.55818" lon="1.99991">
        <ele>2010</ele>
        <time>2018-07-07T08:32:15.000Z</time>
      </trkpt>
      <trkpt lat="42.55816" lon="1.99992">
        <ele>2010</ele>
        <time>2018-07-07T08:32:16.000Z</time>
      </trkpt>
      <trkpt lat="42.55813" lon="1.99993">
        <ele>2010</ele>
        <time>2018-07-07T08:32:17.000Z</time>
      </trkpt>
      <trkpt lat="42.55811" lon="1.99994">
        <ele>2010</ele>
        <time>2018-07-07T08:32:18.000Z</time>
      </trkpt>
      <trkpt lat="42.55809" lon="1.99996">
        <ele>2010</ele>
        <time>2018-07-07T08:32:19.000Z</time>
      </trkpt>
      <trkpt lat="42.55806" lon="1.99997">
        <ele>2010</ele>
        <time>2018-07-07T08:32:20.000Z</time>
      </trkpt>
      <trkpt lat="42.55804" lon="1.99999">
        <ele>2010</ele>
        <time>2018-07-07T08:32:21.000Z</time>
      </trkpt>
      <trkpt lat="42.55802" lon="2.00001">
        <ele>2008</ele>
        <time>2018-07-07T08:32:22.000Z</time>
      </trkpt>
      <trkpt lat="42.558" lon="2.00003">
        <ele>2008</ele>
        <time>2018-07-07T08:32:23.000Z</time>
      </trkpt>
      <trkpt lat="42.55798" lon="2.00005">
        <ele>2007</ele>
        <time>2018-07-07T08:32:24.000Z</time>
      </trkpt>
      <trkpt lat="42.55796" lon="2.00007">
        <ele>2007</ele>
        <time>2018-07-07T08:32:25.000Z</time>
      </trkpt>
      <trkpt lat="42.55793" lon="2.00009">
        <ele>2007</ele>
        <time>2018-07-07T08:32:26.000Z</time>
      </trkpt>
      <trkpt lat="42.55791" lon="2.00011">
        <ele>2007</ele>
        <time>2018-07-07T08:32:27.000Z</time>
      </trkpt>
      <trkpt lat="42.55789" lon="2.00013">
        <ele>2007</ele>
        <time>2018-07-07T08:32:28.000Z</time>
      </trkpt>
      <trkpt lat="42.55787" lon="2.00014">
        <ele>2007</ele>
        <time>2018-07-07T08:32:29.000Z</time>
      </trkpt>
      <trkpt lat="42.55785" lon="2.00015">
        <ele>2007</ele>
        <time>2018-07-07T08:32:30.000Z</time>
      </trkpt>
      <trkpt lat="42.55782" lon="2.00016">
        <ele>2007</ele>
        <time>2018-07-07T08:32:31.000Z</time>
      </trkpt>
      <trkpt lat="42.5578" lon="2.00017">
        <ele>2007</ele>
        <time>2018-07-07T08:32:32.000Z</time>
      </trkpt>
      <trkpt lat="42.55777" lon="2.00017">
        <ele>2007</ele>
        <time>2018-07-07T08:32:33.000Z</time>
      </trkpt>
      <trkpt lat="42.55775" lon="2.00019">
        <ele>2007</ele>
        <time>2018-07-07T08:32:34.000Z</time>
      </trkpt>
      <trkpt lat="42.55772" lon="2.0002">
        <ele>2007</ele>
        <time>2018-07-07T08:32:35.000Z</time>
      </trkpt>
      <trkpt lat="42.55769" lon="2.00021">
        <ele>2007</ele>
        <time>2018-07-07T08:32:36.000Z</time>
      </trkpt>
      <trkpt lat="42.55767" lon="2.00022">
        <ele>2007</ele>
        <time>2018-07-07T08:32:37.000Z</time>
      </trkpt>
      <trkpt lat="42.55764" lon="2.00023">
        <ele>2007</ele>
        <time>2018-07-07T08:32:38.000Z</time>
      </trkpt>
      <trkpt lat="42.55762" lon="2.00024">
        <ele>2007</ele>
        <time>2018-07-07T08:32:39.000Z</time>
      </trkpt>
      <trkpt lat="42.55759" lon="2.00025">
        <ele>2006</ele>
        <time>2018-07-07T08:32:40.000Z</time>
      </trkpt>
      <trkpt lat="42.55756" lon="2.00026">
        <ele>2006</ele>
        <time>2018-07-07T08:32:41.000Z</time>
      </trkpt>
      <trkpt lat="42.55754" lon="2.00026">
        <ele>2006</ele>
        <time>2018-07-07T08:32:42.000Z</time>
      </trkpt>
      <trkpt lat="42.55751" lon="2.00027">
        <ele>2006</ele>
        <time>2018-07-07T08:32:43.000Z</time>
      </trkpt>
      <trkpt lat="42.55749" lon="2.00027">
        <ele>2004</ele>
        <time>2018-07-07T08:32:44.000Z</time>
      </trkpt>
      <trkpt lat="42.55746" lon="2.00028">
        <ele>2004</ele>
        <time>2018-07-07T08:32:45.000Z</time>
      </trkpt>
      <trkpt lat="42.55744" lon="2.00029">
        <ele>2004</ele>
        <time>2018-07-07T08:32:46.000Z</time>
      </trkpt>
      <trkpt lat="42.55741" lon="2.0003">
        <ele>2004</ele>
        <time>2018-07-07T08:32:47.000Z</time>
      </trkpt>
      <trkpt lat="42.55739" lon="2.00031">
        <ele>2004</ele>
        <time>2018-07-07T08:32:48.000Z</time>
      </trkpt>
      <trkpt lat="42.55737" lon="2.00032">
        <ele>2004</ele>
        <time>2018-07-07T08:32:49.000Z</time>
      </trkpt>
      <trkpt lat="42.55734" lon="2.00033">
        <ele>2003</ele>
        <time>2018-07-07T08:32:50.000Z</time>
      </trkpt>
      <trkpt lat="42.55732" lon="2.00035">
        <ele>2003</ele>
        <time>2018-07-07T08:32:51.000Z</time>
      </trkpt>
      <trkpt lat="42.55729" lon="2.00036">
        <ele>2003</ele>
        <time>2018-07-07T08:32:52.000Z</time>
      </trkpt>
      <trkpt lat="42.55727" lon="2.00037">
        <ele>2003</ele>
        <time>2018-07-07T08:32:53.000Z</time>
      </trkpt>
      <trkpt lat="42.55724" lon="2.00038">
        <ele>2003</ele>
        <time>2018-07-07T08:32:54.000Z</time>
      </trkpt>
      <trkpt lat="42.55722" lon="2.00039">
        <ele>2003</ele>
        <time>2018-07-07T08:32:55.000Z</time>
      </trkpt>
      <trkpt lat="42.55719" lon="2.0004">
        <ele>2003</ele>
        <time>2018-07-07T08:32:56.000Z</time>
      </trkpt>
      <trkpt lat="42.55716" lon="2.00041">
        <ele>2003</ele>
        <time>2018-07-07T08:32:57.000Z</time>
      </trkpt>
      <trkpt lat="42.55714" lon="2.00042">
        <ele>2002</ele>
        <time>2018-07-07T08:32:58.000Z</time>
      </trkpt>
      <trkpt lat="42.55711" lon="2.00043">
        <ele>2002</ele>
        <time>2018-07-07T08:32:59.000Z</time>
      </trkpt>
      <trkpt lat="42.55708" lon="2.00043">
        <ele>2002</ele>
        <time>2018-07-07T08:33:00.000Z</time>
      </trkpt>
      <trkpt lat="42.55706" lon="2.00044">
        <ele>2002</ele>
        <time>2018-07-07T08:33:01.000Z</time>
      </trkpt>
      <trkpt lat="42.55703" lon="2.00044">
        <ele>2002</ele>
        <time>2018-07-07T08:33:02.000Z</time>
      </trkpt>
      <trkpt lat="42.55701" lon="2.00044">
        <ele>2002</ele>
        <time>2018-07-07T08:33:03.000Z</time>
      </trkpt>
      <trkpt lat="42.55698" lon="2.00045">
        <ele>2002</ele>
        <time>2018-07-07T08:33:04.000Z</time>
      </trkpt>
      <trkpt lat="42.55696" lon="2.00046">
        <ele>2002</ele>
        <time>2018-07-07T08:33:05.000Z</time>
      </trkpt>
      <trkpt lat="42.55693" lon="2.00046">
        <ele>2002</ele>
        <time>2018-07-07T08:33:06.000Z</time>
      </trkpt>
      <trkpt lat="42.5569" lon="2.00047">
        <ele>2002</ele>
        <time>2018-07-07T08:33:07.000Z</time>
      </trkpt>
      <trkpt lat="42.55688" lon="2.00047">
        <ele>2002</ele>
        <time>2018-07-07T08:33:08.000Z</time>
      </trkpt>
      <trkpt lat="42.55685" lon="2.00047">
        <ele>2001</ele>
        <time>2018-07-07T08:33:09.000Z</time>
      </trkpt>
      <trkpt lat="42.55683" lon="2.00047">
        <ele>2001</ele>
        <time>2018-07-07T08:33:10.000Z</time>
      </trkpt>
      <trkpt lat="42.55681" lon="2.00048">
        <ele>2001</ele>
        <time>2018-07-07T08:33:11.000Z</time>
      </trkpt>
      <trkpt lat="42.55678" lon="2.00048">
        <ele>2001</ele>
        <time>2018-07-07T08:33:12.000Z</time>
      </trkpt>
      <trkpt lat="42.55675" lon="2.00049">
        <ele>2001</ele>
        <time>2018-07-07T08:33:13.000Z</time>
      </trkpt>
      <trkpt lat="42.55673" lon="2.0005">
        <ele>2001</ele>
        <time>2018-07-07T08:33:14.000Z</time>
      </trkpt>
      <trkpt lat="42.55671" lon="2.00051">
        <ele>2001</ele>
        <time>2018-07-07T08:33:15.000Z</time>
      </trkpt>
      <trkpt lat="42.55668" lon="2.00052">
        <ele>2001</ele>
        <time>2018-07-07T08:33:16.000Z</time>
      </trkpt>
      <trkpt lat="42.55666" lon="2.00052">
        <ele>1998</ele>
        <time>2018-07-07T08:33:17.000Z</time>
      </trkpt>
      <trkpt lat="42.55664" lon="2.00053">
        <ele>1998</ele>
        <time>2018-07-07T08:33:18.000Z</time>
      </trkpt>
      <trkpt lat="42.55661" lon="2.00053">
        <ele>1998</ele>
        <time>2018-07-07T08:33:19.000Z</time>
      </trkpt>
      <trkpt lat="42.55659" lon="2.00054">
        <ele>1998</ele>
        <time>2018-07-07T08:33:20.000Z</time>
      </trkpt>
      <trkpt lat="42.55656" lon="2.00055">
        <ele>1998</ele>
        <time>2018-07-07T08:33:21.000Z</time>
      </trkpt>
      <trkpt lat="42.55653" lon="2.00056">
        <ele>1998</ele>
        <time>2018-07-07T08:33:22.000Z</time>
      </trkpt>
      <trkpt lat="42.5565" lon="2.00058">
        <ele>1998</ele>
        <time>2018-07-07T08:33:23.000Z</time>
      </trkpt>
      <trkpt lat="42.55648" lon="2.00059">
        <ele>1997</ele>
        <time>2018-07-07T08:33:24.000Z</time>
      </trkpt>
      <trkpt lat="42.55645" lon="2.0006">
        <ele>1997</ele>
        <time>2018-07-07T08:33:25.000Z</time>
      </trkpt>
      <trkpt lat="42.55643" lon="2.00061">
        <ele>1997</ele>
        <time>2018-07-07T08:33:26.000Z</time>
      </trkpt>
      <trkpt lat="42.5564" lon="2.00062">
        <ele>1997</ele>
        <time>2018-07-07T08:33:27.000Z</time>
      </trkpt>
      <trkpt lat="42.55638" lon="2.00063">
        <ele>1997</ele>
        <time>2018-07-07T08:33:28.000Z</time>
      </trkpt>
      <trkpt lat="42.55635" lon="2.00065">
        <ele>1997</ele>
        <time>2018-07-07T08:33:29.000Z</time>
      </trkpt>
      <trkpt lat="42.55633" lon="2.00066">
        <ele>1997</ele>
        <time>2018-07-07T08:33:30.000Z</time>
      </trkpt>
      <trkpt lat="42.5563" lon="2.00067">
        <ele>1997</ele>
        <time>2018-07-07T08:33:31.000Z</time>
      </trkpt>
      <trkpt lat="42.55627" lon="2.00068">
        <ele>1997</ele>
        <time>2018-07-07T08:33:32.000Z</time>
      </trkpt>
      <trkpt lat="42.55624" lon="2.00069">
        <ele>1997</ele>
        <time>2018-07-07T08:33:33.000Z</time>
      </trkpt>
      <trkpt lat="42.55622" lon="2.0007">
        <ele>1997</ele>
        <time>2018-07-07T08:33:34.000Z</time>
      </trkpt>
      <trkpt lat="42.55619" lon="2.00071">
        <ele>1996</ele>
        <time>2018-07-07T08:33:35.000Z</time>
      </trkpt>
      <trkpt lat="42.55616" lon="2.00072">
        <ele>1996</ele>
        <time>2018-07-07T08:33:36.000Z</time>
      </trkpt>
      <trkpt lat="42.55614" lon="2.00073">
        <ele>1996</ele>
        <time>2018-07-07T08:33:37.000Z</time>
      </trkpt>
      <trkpt lat="42.55611" lon="2.00074">
        <ele>1996</ele>
        <time>2018-07-07T08:33:38.000Z</time>
      </trkpt>
      <trkpt lat="42.55609" lon="2.00075">
        <ele>1996</ele>
        <time>2018-07-07T08:33:39.000Z</time>
      </trkpt>
      <trkpt lat="42.55606" lon="2.00076">
        <ele>1996</ele>
        <time>2018-07-07T08:33:40.000Z</time>
      </trkpt>
      <trkpt lat="42.55604" lon="2.00078">
        <ele>1996</ele>
        <time>2018-07-07T08:33:41.000Z</time>
      </trkpt>
      <trkpt lat="42.55601" lon="2.00079">
        <ele>1995</ele>
        <time>2018-07-07T08:33:42.000Z</time>
      </trkpt>
      <trkpt lat="42.55599" lon="2.00079">
        <ele>1995</ele>
        <time>2018-07-07T08:33:43.000Z</time>
      </trkpt>
      <trkpt lat="42.55597" lon="2.0008">
        <ele>1995</ele>
        <time>2018-07-07T08:33:44.000Z</time>
      </trkpt>
      <trkpt lat="42.55594" lon="2.00081">
        <ele>1995</ele>
        <time>2018-07-07T08:33:45.000Z</time>
      </trkpt>
      <trkpt lat="42.55592" lon="2.00082">
        <ele>1995</ele>
        <time>2018-07-07T08:33:46.000Z</time>
      </trkpt>
      <trkpt lat="42.5559" lon="2.00082">
        <ele>1995</ele>
        <time>2018-07-07T08:33:47.000Z</time>
      </trkpt>
      <trkpt lat="42.55587" lon="2.00083">
        <ele>1994</ele>
        <time>2018-07-07T08:33:48.000Z</time>
      </trkpt>
      <trkpt lat="42.55585" lon="2.00084">
        <ele>1994</ele>
        <time>2018-07-07T08:33:49.000Z</time>
      </trkpt>
      <trkpt lat="42.55582" lon="2.00085">
        <ele>1994</ele>
        <time>2018-07-07T08:33:50.000Z</time>
      </trkpt>
      <trkpt lat="42.5558" lon="2.00086">
        <ele>1993</ele>
        <time>2018-07-07T08:33:51.000Z</time>
      </trkpt>
      <trkpt lat="42.55577" lon="2.00087">
        <ele>1993</ele>
        <time>2018-07-07T08:33:52.000Z</time>
      </trkpt>
      <trkpt lat="42.55575" lon="2.00088">
        <ele>1993</ele>
        <time>2018-07-07T08:33:53.000Z</time>
      </trkpt>
      <trkpt lat="42.55572" lon="2.00089">
        <ele>1993</ele>
        <time>2018-07-07T08:33:54.000Z</time>
      </trkpt>
      <trkpt lat="42.5557" lon="2.0009">
        <ele>1992</ele>
        <time>2018-07-07T08:33:55.000Z</time>
      </trkpt>
      <trkpt lat="42.55567" lon="2.00091">
        <ele>1992</ele>
        <time>2018-07-07T08:33:56.000Z</time>
      </trkpt>
      <trkpt lat="42.55565" lon="2.00092">
        <ele>1992</ele>
        <time>2018-07-07T08:33:57.000Z</time>
      </trkpt>
      <trkpt lat="42.55562" lon="2.00092">
        <ele>1992</ele>
        <time>2018-07-07T08:33:58.000Z</time>
      </trkpt>
      <trkpt lat="42.55559" lon="2.00093">
        <ele>1992</ele>
        <time>2018-07-07T08:33:59.000Z</time>
      </trkpt>
      <trkpt lat="42.55557" lon="2.00093">
        <ele>1991</ele>
        <time>2018-07-07T08:34:00.000Z</time>
      </trkpt>
      <trkpt lat="42.55554" lon="2.00094">
        <ele>1991</ele>
        <time>2018-07-07T08:34:01.000Z</time>
      </trkpt>
      <trkpt lat="42.55552" lon="2.00094">
        <ele>1991</ele>
        <time>2018-07-07T08:34:02.000Z</time>
      </trkpt>
      <trkpt lat="42.55549" lon="2.00094">
        <ele>1991</ele>
        <time>2018-07-07T08:34:03.000Z</time>
      </trkpt>
      <trkpt lat="42.55546" lon="2.00094">
        <ele>1991</ele>
        <time>2018-07-07T08:34:04.000Z</time>
      </trkpt>
      <trkpt lat="42.55544" lon="2.00094">
        <ele>1991</ele>
        <time>2018-07-07T08:34:05.000Z</time>
      </trkpt>
      <trkpt lat="42.55541" lon="2.00094">
        <ele>1990</ele>
        <time>2018-07-07T08:34:06.000Z</time>
      </trkpt>
      <trkpt lat="42.55538" lon="2.00094">
        <ele>1990</ele>
        <time>2018-07-07T08:34:07.000Z</time>
      </trkpt>
      <trkpt lat="42.55536" lon="2.00095">
        <ele>1990</ele>
        <time>2018-07-07T08:34:08.000Z</time>
      </trkpt>
      <trkpt lat="42.55534" lon="2.00096">
        <ele>1990</ele>
        <time>2018-07-07T08:34:09.000Z</time>
      </trkpt>
      <trkpt lat="42.55532" lon="2.00097">
        <ele>1990</ele>
        <time>2018-07-07T08:34:10.000Z</time>
      </trkpt>
      <trkpt lat="42.55529" lon="2.00099">
        <ele>1990</ele>
        <time>2018-07-07T08:34:11.000Z</time>
      </trkpt>
      <trkpt lat="42.55526" lon="2.001">
        <ele>1990</ele>
        <time>2018-07-07T08:34:12.000Z</time>
      </trkpt>
      <trkpt lat="42.55524" lon="2.00101">
        <ele>1990</ele>
        <time>2018-07-07T08:34:13.000Z</time>
      </trkpt>
      <trkpt lat="42.55521" lon="2.00102">
        <ele>1990</ele>
        <time>2018-07-07T08:34:14.000Z</time>
      </trkpt>
      <trkpt lat="42.55519" lon="2.00103">
        <ele>1989</ele>
        <time>2018-07-07T08:34:15.000Z</time>
      </trkpt>
      <trkpt lat="42.55516" lon="2.00104">
        <ele>1989</ele>
        <time>2018-07-07T08:34:16.000Z</time>
      </trkpt>
      <trkpt lat="42.55513" lon="2.00106">
        <ele>1989</ele>
        <time>2018-07-07T08:34:17.000Z</time>
      </trkpt>
      <trkpt lat="42.55511" lon="2.00107">
        <ele>1989</ele>
        <time>2018-07-07T08:34:18.000Z</time>
      </trkpt>
      <trkpt lat="42.55508" lon="2.00109">
        <ele>1989</ele>
        <time>2018-07-07T08:34:19.000Z</time>
      </trkpt>
      <trkpt lat="42.55506" lon="2.00111">
        <ele>1989</ele>
        <time>2018-07-07T08:34:20.000Z</time>
      </trkpt>
      <trkpt lat="42.55504" lon="2.00112">
        <ele>1989</ele>
        <time>2018-07-07T08:34:21.000Z</time>
      </trkpt>
      <trkpt lat="42.55501" lon="2.00113">
        <ele>1989</ele>
        <time>2018-07-07T08:34:22.000Z</time>
      </trkpt>
      <trkpt lat="42.55498" lon="2.00114">
        <ele>1988</ele>
        <time>2018-07-07T08:34:23.000Z</time>
      </trkpt>
      <trkpt lat="42.55496" lon="2.00115">
        <ele>1988</ele>
        <time>2018-07-07T08:34:24.000Z</time>
      </trkpt>
      <trkpt lat="42.55493" lon="2.00116">
        <ele>1988</ele>
        <time>2018-07-07T08:34:25.000Z</time>
      </trkpt>
      <trkpt lat="42.5549" lon="2.00117">
        <ele>1988</ele>
        <time>2018-07-07T08:34:26.000Z</time>
      </trkpt>
      <trkpt lat="42.55488" lon="2.00118">
        <ele>1988</ele>
        <time>2018-07-07T08:34:27.000Z</time>
      </trkpt>
      <trkpt lat="42.55485" lon="2.00119">
        <ele>1988</ele>
        <time>2018-07-07T08:34:28.000Z</time>
      </trkpt>
      <trkpt lat="42.55483" lon="2.00119">
        <ele>1988</ele>
        <time>2018-07-07T08:34:29.000Z</time>
      </trkpt>
      <trkpt lat="42.5548" lon="2.0012">
        <ele>1988</ele>
        <time>2018-07-07T08:34:30.000Z</time>
      </trkpt>
      <trkpt lat="42.55477" lon="2.00121">
        <ele>1988</ele>
        <time>2018-07-07T08:34:31.000Z</time>
      </trkpt>
      <trkpt lat="42.55475" lon="2.00123">
        <ele>1988</ele>
        <time>2018-07-07T08:34:32.000Z</time>
      </trkpt>
      <trkpt lat="42.55472" lon="2.00124">
        <ele>1988</ele>
        <time>2018-07-07T08:34:33.000Z</time>
      </trkpt>
      <trkpt lat="42.55469" lon="2.00125">
        <ele>1988</ele>
        <time>2018-07-07T08:34:34.000Z</time>
      </trkpt>
      <trkpt lat="42.55467" lon="2.00126">
        <ele>1988</ele>
        <time>2018-07-07T08:34:35.000Z</time>
      </trkpt>
      <trkpt lat="42.55464" lon="2.00127">
        <ele>1988</ele>
        <time>2018-07-07T08:34:36.000Z</time>
      </trkpt>
      <trkpt lat="42.55461" lon="2.00128">
        <ele>1988</ele>
        <time>2018-07-07T08:34:37.000Z</time>
      </trkpt>
      <trkpt lat="42.55459" lon="2.00129">
        <ele>1988</ele>
        <time>2018-07-07T08:34:38.000Z</time>
      </trkpt>
      <trkpt lat="42.55456" lon="2.0013">
        <ele>1988</ele>
        <time>2018-07-07T08:34:39.000Z</time>
      </trkpt>
      <trkpt lat="42.55453" lon="2.00131">
        <ele>1988</ele>
        <time>2018-07-07T08:34:40.000Z</time>
      </trkpt>
      <trkpt lat="42.55451" lon="2.00132">
        <ele>1988</ele>
        <time>2018-07-07T08:34:41.000Z</time>
      </trkpt>
      <trkpt lat="42.55448" lon="2.00133">
        <ele>1988</ele>
        <time>2018-07-07T08:34:42.000Z</time>
      </trkpt>
      <trkpt lat="42.55445" lon="2.00134">
        <ele>1988</ele>
        <time>2018-07-07T08:34:43.000Z</time>
      </trkpt>
      <trkpt lat="42.55443" lon="2.00134">
        <ele>1988</ele>
        <time>2018-07-07T08:34:44.000Z</time>
      </trkpt>
      <trkpt lat="42.5544" lon="2.00135">
        <ele>1988</ele>
        <time>2018-07-07T08:34:45.000Z</time>
      </trkpt>
      <trkpt lat="42.55437" lon="2.00135">
        <ele>1988</ele>
        <time>2018-07-07T08:34:46.000Z</time>
      </trkpt>
      <trkpt lat="42.55435" lon="2.00136">
        <ele>1988</ele>
        <time>2018-07-07T08:34:47.000Z</time>
      </trkpt>
      <trkpt lat="42.55432" lon="2.00137">
        <ele>1988</ele>
        <time>2018-07-07T08:34:48.000Z</time>
      </trkpt>
      <trkpt lat="42.55429" lon="2.00137">
        <ele>1988</ele>
        <time>2018-07-07T08:34:49.000Z</time>
      </trkpt>
      <trkpt lat="42.55427" lon="2.00138">
        <ele>1988</ele>
        <time>2018-07-07T08:34:50.000Z</time>
      </trkpt>
      <trkpt lat="42.55424" lon="2.00138">
        <ele>1988</ele>
        <time>2018-07-07T08:34:51.000Z</time>
      </trkpt>
      <trkpt lat="42.55422" lon="2.00139">
        <ele>1988</ele>
        <time>2018-07-07T08:34:52.000Z</time>
      </trkpt>
      <trkpt lat="42.55419" lon="2.00139">
        <ele>1988</ele>
        <time>2018-07-07T08:34:53.000Z</time>
      </trkpt>
      <trkpt lat="42.55416" lon="2.00141">
        <ele>1987</ele>
        <time>2018-07-07T08:34:54.000Z</time>
      </trkpt>
      <trkpt lat="42.55414" lon="2.00141">
        <ele>1987</ele>
        <time>2018-07-07T08:34:55.000Z</time>
      </trkpt>
      <trkpt lat="42.55411" lon="2.00142">
        <ele>1987</ele>
        <time>2018-07-07T08:34:56.000Z</time>
      </trkpt>
      <trkpt lat="42.55409" lon="2.00142">
        <ele>1987</ele>
        <time>2018-07-07T08:34:57.000Z</time>
      </trkpt>
      <trkpt lat="42.55406" lon="2.00143">
        <ele>1987</ele>
        <time>2018-07-07T08:34:58.000Z</time>
      </trkpt>
      <trkpt lat="42.55404" lon="2.00143">
        <ele>1986</ele>
        <time>2018-07-07T08:34:59.000Z</time>
      </trkpt>
      <trkpt lat="42.55401" lon="2.00143">
        <ele>1986</ele>
        <time>2018-07-07T08:35:00.000Z</time>
      </trkpt>
      <trkpt lat="42.55398" lon="2.00143">
        <ele>1986</ele>
        <time>2018-07-07T08:35:01.000Z</time>
      </trkpt>
      <trkpt lat="42.55396" lon="2.00144">
        <ele>1986</ele>
        <time>2018-07-07T08:35:02.000Z</time>
      </trkpt>
      <trkpt lat="42.55393" lon="2.00144">
        <ele>1986</ele>
        <time>2018-07-07T08:35:03.000Z</time>
      </trkpt>
      <trkpt lat="42.55391" lon="2.00145">
        <ele>1986</ele>
        <time>2018-07-07T08:35:04.000Z</time>
      </trkpt>
      <trkpt lat="42.55388" lon="2.00145">
        <ele>1986</ele>
        <time>2018-07-07T08:35:05.000Z</time>
      </trkpt>
      <trkpt lat="42.55385" lon="2.00145">
        <ele>1986</ele>
        <time>2018-07-07T08:35:06.000Z</time>
      </trkpt>
      <trkpt lat="42.55383" lon="2.00145">
        <ele>1986</ele>
        <time>2018-07-07T08:35:07.000Z</time>
      </trkpt>
      <trkpt lat="42.5538" lon="2.00145">
        <ele>1986</ele>
        <time>2018-07-07T08:35:08.000Z</time>
      </trkpt>
      <trkpt lat="42.55378" lon="2.00145">
        <ele>1986</ele>
        <time>2018-07-07T08:35:09.000Z</time>
      </trkpt>
      <trkpt lat="42.55375" lon="2.00145">
        <ele>1986</ele>
        <time>2018-07-07T08:35:10.000Z</time>
      </trkpt>
      <trkpt lat="42.55372" lon="2.00145">
        <ele>1986</ele>
        <time>2018-07-07T08:35:11.000Z</time>
      </trkpt>
      <trkpt lat="42.55369" lon="2.00146">
        <ele>1986</ele>
        <time>2018-07-07T08:35:12.000Z</time>
      </trkpt>
      <trkpt lat="42.55367" lon="2.00146">
        <ele>1986</ele>
        <time>2018-07-07T08:35:13.000Z</time>
      </trkpt>
      <trkpt lat="42.55364" lon="2.00146">
        <ele>1986</ele>
        <time>2018-07-07T08:35:14.000Z</time>
      </trkpt>
      <trkpt lat="42.55362" lon="2.00147">
        <ele>1986</ele>
        <time>2018-07-07T08:35:15.000Z</time>
      </trkpt>
      <trkpt lat="42.55359" lon="2.00148">
        <ele>1986</ele>
        <time>2018-07-07T08:35:16.000Z</time>
      </trkpt>
      <trkpt lat="42.55357" lon="2.00149">
        <ele>1986</ele>
        <time>2018-07-07T08:35:17.000Z</time>
      </trkpt>
      <trkpt lat="42.55355" lon="2.0015">
        <ele>1986</ele>
        <time>2018-07-07T08:35:18.000Z</time>
      </trkpt>
      <trkpt lat="42.55352" lon="2.0015">
        <ele>1986</ele>
        <time>2018-07-07T08:35:19.000Z</time>
      </trkpt>
      <trkpt lat="42.5535" lon="2.00151">
        <ele>1986</ele>
        <time>2018-07-07T08:35:20.000Z</time>
      </trkpt>
      <trkpt lat="42.55347" lon="2.00151">
        <ele>1986</ele>
        <time>2018-07-07T08:35:21.000Z</time>
      </trkpt>
      <trkpt lat="42.55345" lon="2.00152">
        <ele>1986</ele>
        <time>2018-07-07T08:35:22.000Z</time>
      </trkpt>
      <trkpt lat="42.55342" lon="2.00153">
        <ele>1986</ele>
        <time>2018-07-07T08:35:23.000Z</time>
      </trkpt>
      <trkpt lat="42.5534" lon="2.00154">
        <ele>1986</ele>
        <time>2018-07-07T08:35:24.000Z</time>
      </trkpt>
      <trkpt lat="42.55337" lon="2.00155">
        <ele>1986</ele>
        <time>2018-07-07T08:35:25.000Z</time>
      </trkpt>
      <trkpt lat="42.55335" lon="2.00156">
        <ele>1986</ele>
        <time>2018-07-07T08:35:26.000Z</time>
      </trkpt>
      <trkpt lat="42.55332" lon="2.00156">
        <ele>1985</ele>
        <time>2018-07-07T08:35:27.000Z</time>
      </trkpt>
      <trkpt lat="42.55329" lon="2.00157">
        <ele>1985</ele>
        <time>2018-07-07T08:35:28.000Z</time>
      </trkpt>
      <trkpt lat="42.55327" lon="2.00157">
        <ele>1985</ele>
        <time>2018-07-07T08:35:29.000Z</time>
      </trkpt>
      <trkpt lat="42.55324" lon="2.00157">
        <ele>1985</ele>
        <time>2018-07-07T08:35:30.000Z</time>
      </trkpt>
      <trkpt lat="42.55321" lon="2.00157">
        <ele>1985</ele>
        <time>2018-07-07T08:35:31.000Z</time>
      </trkpt>
      <trkpt lat="42.55319" lon="2.00158">
        <ele>1985</ele>
        <time>2018-07-07T08:35:32.000Z</time>
      </trkpt>
      <trkpt lat="42.55316" lon="2.00158">
        <ele>1985</ele>
        <time>2018-07-07T08:35:33.000Z</time>
      </trkpt>
      <trkpt lat="42.55313" lon="2.00159">
        <ele>1985</ele>
        <time>2018-07-07T08:35:34.000Z</time>
      </trkpt>
      <trkpt lat="42.55311" lon="2.0016">
        <ele>1985</ele>
        <time>2018-07-07T08:35:35.000Z</time>
      </trkpt>
      <trkpt lat="42.55309" lon="2.00162">
        <ele>1985</ele>
        <time>2018-07-07T08:35:36.000Z</time>
      </trkpt>
      <trkpt lat="42.55307" lon="2.00163">
        <ele>1985</ele>
        <time>2018-07-07T08:35:37.000Z</time>
      </trkpt>
      <trkpt lat="42.55304" lon="2.00164">
        <ele>1985</ele>
        <time>2018-07-07T08:35:38.000Z</time>
      </trkpt>
      <trkpt lat="42.55302" lon="2.00166">
        <ele>1984</ele>
        <time>2018-07-07T08:35:39.000Z</time>
      </trkpt>
      <trkpt lat="42.55299" lon="2.00167">
        <ele>1985</ele>
        <time>2018-07-07T08:35:40.000Z</time>
      </trkpt>
      <trkpt lat="42.55297" lon="2.00168">
        <ele>1985</ele>
        <time>2018-07-07T08:35:41.000Z</time>
      </trkpt>
      <trkpt lat="42.55295" lon="2.0017">
        <ele>1985</ele>
        <time>2018-07-07T08:35:42.000Z</time>
      </trkpt>
      <trkpt lat="42.55292" lon="2.00171">
        <ele>1985</ele>
        <time>2018-07-07T08:35:43.000Z</time>
      </trkpt>
      <trkpt lat="42.5529" lon="2.00172">
        <ele>1985</ele>
        <time>2018-07-07T08:35:44.000Z</time>
      </trkpt>
      <trkpt lat="42.55287" lon="2.00174">
        <ele>1985</ele>
        <time>2018-07-07T08:35:45.000Z</time>
      </trkpt>
      <trkpt lat="42.55285" lon="2.00176">
        <ele>1985</ele>
        <time>2018-07-07T08:35:46.000Z</time>
      </trkpt>
      <trkpt lat="42.55283" lon="2.00178">
        <ele>1985</ele>
        <time>2018-07-07T08:35:47.000Z</time>
      </trkpt>
      <trkpt lat="42.55281" lon="2.00179">
        <ele>1985</ele>
        <time>2018-07-07T08:35:48.000Z</time>
      </trkpt>
      <trkpt lat="42.55278" lon="2.00181">
        <ele>1985</ele>
        <time>2018-07-07T08:35:49.000Z</time>
      </trkpt>
      <trkpt lat="42.55275" lon="2.00182">
        <ele>1985</ele>
        <time>2018-07-07T08:35:50.000Z</time>
      </trkpt>
      <trkpt lat="42.55273" lon="2.00183">
        <ele>1985</ele>
        <time>2018-07-07T08:35:51.000Z</time>
      </trkpt>
      <trkpt lat="42.5527" lon="2.00183">
        <ele>1985</ele>
        <time>2018-07-07T08:35:52.000Z</time>
      </trkpt>
      <trkpt lat="42.55267" lon="2.00184">
        <ele>1985</ele>
        <time>2018-07-07T08:35:53.000Z</time>
      </trkpt>
      <trkpt lat="42.55265" lon="2.00186">
        <ele>1985</ele>
        <time>2018-07-07T08:35:54.000Z</time>
      </trkpt>
      <trkpt lat="42.55262" lon="2.00187">
        <ele>1985</ele>
        <time>2018-07-07T08:35:55.000Z</time>
      </trkpt>
      <trkpt lat="42.5526" lon="2.00189">
        <ele>1985</ele>
        <time>2018-07-07T08:35:56.000Z</time>
      </trkpt>
      <trkpt lat="42.55258" lon="2.00191">
        <ele>1985</ele>
        <time>2018-07-07T08:35:57.000Z</time>
      </trkpt>
      <trkpt lat="42.55256" lon="2.00192">
        <ele>1985</ele>
        <time>2018-07-07T08:35:58.000Z</time>
      </trkpt>
      <trkpt lat="42.55253" lon="2.00195">
        <ele>1985</ele>
        <time>2018-07-07T08:35:59.000Z</time>
      </trkpt>
      <trkpt lat="42.5525" lon="2.00197">
        <ele>1985</ele>
        <time>2018-07-07T08:36:00.000Z</time>
      </trkpt>
      <trkpt lat="42.55247" lon="2.00198">
        <ele>1983</ele>
        <time>2018-07-07T08:36:01.000Z</time>
      </trkpt>
      <trkpt lat="42.55245" lon="2.00199">
        <ele>1983</ele>
        <time>2018-07-07T08:36:02.000Z</time>
      </trkpt>
      <trkpt lat="42.55242" lon="2.002">
        <ele>1983</ele>
        <time>2018-07-07T08:36:03.000Z</time>
      </trkpt>
      <trkpt lat="42.55239" lon="2.00201">
        <ele>1983</ele>
        <time>2018-07-07T08:36:04.000Z</time>
      </trkpt>
      <trkpt lat="42.55237" lon="2.00203">
        <ele>1983</ele>
        <time>2018-07-07T08:36:05.000Z</time>
      </trkpt>
      <trkpt lat="42.55234" lon="2.00204">
        <ele>1983</ele>
        <time>2018-07-07T08:36:06.000Z</time>
      </trkpt>
      <trkpt lat="42.55232" lon="2.00205">
        <ele>1983</ele>
        <time>2018-07-07T08:36:07.000Z</time>
      </trkpt>
      <trkpt lat="42.55229" lon="2.00206">
        <ele>1983</ele>
        <time>2018-07-07T08:36:08.000Z</time>
      </trkpt>
      <trkpt lat="42.55226" lon="2.00207">
        <ele>1983</ele>
        <time>2018-07-07T08:36:09.000Z</time>
      </trkpt>
      <trkpt lat="42.55223" lon="2.00208">
        <ele>1983</ele>
        <time>2018-07-07T08:36:10.000Z</time>
      </trkpt>
      <trkpt lat="42.5522" lon="2.00209">
        <ele>1983</ele>
        <time>2018-07-07T08:36:11.000Z</time>
      </trkpt>
      <trkpt lat="42.55218" lon="2.00209">
        <ele>1983</ele>
        <time>2018-07-07T08:36:12.000Z</time>
      </trkpt>
      <trkpt lat="42.55215" lon="2.0021">
        <ele>1983</ele>
        <time>2018-07-07T08:36:13.000Z</time>
      </trkpt>
      <trkpt lat="42.55212" lon="2.0021">
        <ele>1983</ele>
        <time>2018-07-07T08:36:14.000Z</time>
      </trkpt>
      <trkpt lat="42.55209" lon="2.00211">
        <ele>1983</ele>
        <time>2018-07-07T08:36:15.000Z</time>
      </trkpt>
      <trkpt lat="42.55207" lon="2.00211">
        <ele>1983</ele>
        <time>2018-07-07T08:36:16.000Z</time>
      </trkpt>
      <trkpt lat="42.55204" lon="2.00211">
        <ele>1983</ele>
        <time>2018-07-07T08:36:17.000Z</time>
      </trkpt>
      <trkpt lat="42.55202" lon="2.00212">
        <ele>1983</ele>
        <time>2018-07-07T08:36:18.000Z</time>
      </trkpt>
      <trkpt lat="42.55199" lon="2.00212">
        <ele>1983</ele>
        <time>2018-07-07T08:36:19.000Z</time>
      </trkpt>
      <trkpt lat="42.55196" lon="2.00212">
        <ele>1983</ele>
        <time>2018-07-07T08:36:20.000Z</time>
      </trkpt>
      <trkpt lat="42.55194" lon="2.00212">
        <ele>1983</ele>
        <time>2018-07-07T08:36:21.000Z</time>
      </trkpt>
      <trkpt lat="42.55191" lon="2.00212">
        <ele>1983</ele>
        <time>2018-07-07T08:36:22.000Z</time>
      </trkpt>
      <trkpt lat="42.55188" lon="2.00212">
        <ele>1982</ele>
        <time>2018-07-07T08:36:23.000Z</time>
      </trkpt>
      <trkpt lat="42.55186" lon="2.00212">
        <ele>1982</ele>
        <time>2018-07-07T08:36:24.000Z</time>
      </trkpt>
      <trkpt lat="42.55183" lon="2.00211">
        <ele>1982</ele>
        <time>2018-07-07T08:36:25.000Z</time>
      </trkpt>
      <trkpt lat="42.5518" lon="2.00211">
        <ele>1982</ele>
        <time>2018-07-07T08:36:26.000Z</time>
      </trkpt>
      <trkpt lat="42.55177" lon="2.00211">
        <ele>1982</ele>
        <time>2018-07-07T08:36:27.000Z</time>
      </trkpt>
      <trkpt lat="42.55174" lon="2.00211">
        <ele>1982</ele>
        <time>2018-07-07T08:36:28.000Z</time>
      </trkpt>
      <trkpt lat="42.55171" lon="2.0021">
        <ele>1982</ele>
        <time>2018-07-07T08:36:29.000Z</time>
      </trkpt>
      <trkpt lat="42.55168" lon="2.0021">
        <ele>1982</ele>
        <time>2018-07-07T08:36:30.000Z</time>
      </trkpt>
      <trkpt lat="42.55166" lon="2.00209">
        <ele>1981</ele>
        <time>2018-07-07T08:36:31.000Z</time>
      </trkpt>
      <trkpt lat="42.55163" lon="2.00208">
        <ele>1981</ele>
        <time>2018-07-07T08:36:32.000Z</time>
      </trkpt>
      <trkpt lat="42.5516" lon="2.00208">
        <ele>1981</ele>
        <time>2018-07-07T08:36:33.000Z</time>
      </trkpt>
      <trkpt lat="42.55157" lon="2.00208">
        <ele>1981</ele>
        <time>2018-07-07T08:36:34.000Z</time>
      </trkpt>
      <trkpt lat="42.55154" lon="2.00208">
        <ele>1981</ele>
        <time>2018-07-07T08:36:35.000Z</time>
      </trkpt>
      <trkpt lat="42.55151" lon="2.00208">
        <ele>1981</ele>
        <time>2018-07-07T08:36:36.000Z</time>
      </trkpt>
      <trkpt lat="42.55149" lon="2.00208">
        <ele>1981</ele>
        <time>2018-07-07T08:36:37.000Z</time>
      </trkpt>
      <trkpt lat="42.55146" lon="2.00208">
        <ele>1981</ele>
        <time>2018-07-07T08:36:38.000Z</time>
      </trkpt>
      <trkpt lat="42.55143" lon="2.00208">
        <ele>1981</ele>
        <time>2018-07-07T08:36:39.000Z</time>
      </trkpt>
      <trkpt lat="42.5514" lon="2.00208">
        <ele>1980</ele>
        <time>2018-07-07T08:36:40.000Z</time>
      </trkpt>
      <trkpt lat="42.55137" lon="2.00208">
        <ele>1980</ele>
        <time>2018-07-07T08:36:41.000Z</time>
      </trkpt>
      <trkpt lat="42.55135" lon="2.00209">
        <ele>1980</ele>
        <time>2018-07-07T08:36:42.000Z</time>
      </trkpt>
      <trkpt lat="42.55132" lon="2.00209">
        <ele>1980</ele>
        <time>2018-07-07T08:36:43.000Z</time>
      </trkpt>
      <trkpt lat="42.55129" lon="2.0021">
        <ele>1980</ele>
        <time>2018-07-07T08:36:44.000Z</time>
      </trkpt>
      <trkpt lat="42.55126" lon="2.0021">
        <ele>1980</ele>
        <time>2018-07-07T08:36:45.000Z</time>
      </trkpt>
      <trkpt lat="42.55124" lon="2.00211">
        <ele>1980</ele>
        <time>2018-07-07T08:36:46.000Z</time>
      </trkpt>
      <trkpt lat="42.55121" lon="2.00211">
        <ele>1980</ele>
        <time>2018-07-07T08:36:47.000Z</time>
      </trkpt>
      <trkpt lat="42.55118" lon="2.00212">
        <ele>1980</ele>
        <time>2018-07-07T08:36:48.000Z</time>
      </trkpt>
      <trkpt lat="42.55116" lon="2.00212">
        <ele>1980</ele>
        <time>2018-07-07T08:36:49.000Z</time>
      </trkpt>
      <trkpt lat="42.55113" lon="2.00212">
        <ele>1980</ele>
        <time>2018-07-07T08:36:50.000Z</time>
      </trkpt>
      <trkpt lat="42.5511" lon="2.00213">
        <ele>1980</ele>
        <time>2018-07-07T08:36:51.000Z</time>
      </trkpt>
      <trkpt lat="42.55107" lon="2.00213">
        <ele>1980</ele>
        <time>2018-07-07T08:36:52.000Z</time>
      </trkpt>
      <trkpt lat="42.55105" lon="2.00214">
        <ele>1980</ele>
        <time>2018-07-07T08:36:53.000Z</time>
      </trkpt>
      <trkpt lat="42.55102" lon="2.00214">
        <ele>1980</ele>
        <time>2018-07-07T08:36:54.000Z</time>
      </trkpt>
      <trkpt lat="42.55099" lon="2.00215">
        <ele>1980</ele>
        <time>2018-07-07T08:36:55.000Z</time>
      </trkpt>
      <trkpt lat="42.55096" lon="2.00215">
        <ele>1980</ele>
        <time>2018-07-07T08:36:56.000Z</time>
      </trkpt>
      <trkpt lat="42.55093" lon="2.00215">
        <ele>1980</ele>
        <time>2018-07-07T08:36:57.000Z</time>
      </trkpt>
      <trkpt lat="42.55091" lon="2.00215">
        <ele>1980</ele>
        <time>2018-07-07T08:36:58.000Z</time>
      </trkpt>
      <trkpt lat="42.55088" lon="2.00216">
        <ele>1980</ele>
        <time>2018-07-07T08:36:59.000Z</time>
      </trkpt>
      <trkpt lat="42.55085" lon="2.00216">
        <ele>1980</ele>
        <time>2018-07-07T08:37:00.000Z</time>
      </trkpt>
      <trkpt lat="42.55082" lon="2.00216">
        <ele>1978</ele>
        <time>2018-07-07T08:37:01.000Z</time>
      </trkpt>
      <trkpt lat="42.5508" lon="2.00217">
        <ele>1978</ele>
        <time>2018-07-07T08:37:02.000Z</time>
      </trkpt>
      <trkpt lat="42.55077" lon="2.00217">
        <ele>1978</ele>
        <time>2018-07-07T08:37:03.000Z</time>
      </trkpt>
      <trkpt lat="42.55074" lon="2.00217">
        <ele>1978</ele>
        <time>2018-07-07T08:37:04.000Z</time>
      </trkpt>
      <trkpt lat="42.55071" lon="2.00218">
        <ele>1978</ele>
        <time>2018-07-07T08:37:05.000Z</time>
      </trkpt>
      <trkpt lat="42.55068" lon="2.00218">
        <ele>1978</ele>
        <time>2018-07-07T08:37:06.000Z</time>
      </trkpt>
      <trkpt lat="42.55066" lon="2.00219">
        <ele>1978</ele>
        <time>2018-07-07T08:37:07.000Z</time>
      </trkpt>
      <trkpt lat="42.55063" lon="2.00219">
        <ele>1978</ele>
        <time>2018-07-07T08:37:08.000Z</time>
      </trkpt>
      <trkpt lat="42.55061" lon="2.00219">
        <ele>1978</ele>
        <time>2018-07-07T08:37:09.000Z</time>
      </trkpt>
      <trkpt lat="42.55058" lon="2.0022">
        <ele>1978</ele>
        <time>2018-07-07T08:37:10.000Z</time>
      </trkpt>
      <trkpt lat="42.55056" lon="2.00221">
        <ele>1978</ele>
        <time>2018-07-07T08:37:11.000Z</time>
      </trkpt>
      <trkpt lat="42.55054" lon="2.00221">
        <ele>1978</ele>
        <time>2018-07-07T08:37:12.000Z</time>
      </trkpt>
      <trkpt lat="42.55051" lon="2.00221">
        <ele>1978</ele>
        <time>2018-07-07T08:37:13.000Z</time>
      </trkpt>
      <trkpt lat="42.55048" lon="2.00222">
        <ele>1978</ele>
        <time>2018-07-07T08:37:14.000Z</time>
      </trkpt>
      <trkpt lat="42.55045" lon="2.00223">
        <ele>1978</ele>
        <time>2018-07-07T08:37:15.000Z</time>
      </trkpt>
      <trkpt lat="42.55043" lon="2.00223">
        <ele>1978</ele>
        <time>2018-07-07T08:37:16.000Z</time>
      </trkpt>
      <trkpt lat="42.5504" lon="2.00224">
        <ele>1978</ele>
        <time>2018-07-07T08:37:17.000Z</time>
      </trkpt>
      <trkpt lat="42.55038" lon="2.00224">
        <ele>1978</ele>
        <time>2018-07-07T08:37:18.000Z</time>
      </trkpt>
      <trkpt lat="42.55035" lon="2.00224">
        <ele>1978</ele>
        <time>2018-07-07T08:37:19.000Z</time>
      </trkpt>
      <trkpt lat="42.55032" lon="2.00224">
        <ele>1978</ele>
        <time>2018-07-07T08:37:20.000Z</time>
      </trkpt>
      <trkpt lat="42.55029" lon="2.00224">
        <ele>1978</ele>
        <time>2018-07-07T08:37:21.000Z</time>
      </trkpt>
      <trkpt lat="42.55027" lon="2.00225">
        <ele>1978</ele>
        <time>2018-07-07T08:37:22.000Z</time>
      </trkpt>
      <trkpt lat="42.55024" lon="2.00226">
        <ele>1978</ele>
        <time>2018-07-07T08:37:23.000Z</time>
      </trkpt>
      <trkpt lat="42.55022" lon="2.00227">
        <ele>1978</ele>
        <time>2018-07-07T08:37:24.000Z</time>
      </trkpt>
      <trkpt lat="42.55019" lon="2.00228">
        <ele>1977</ele>
        <time>2018-07-07T08:37:25.000Z</time>
      </trkpt>
      <trkpt lat="42.55017" lon="2.00229">
        <ele>1977</ele>
        <time>2018-07-07T08:37:26.000Z</time>
      </trkpt>
      <trkpt lat="42.55015" lon="2.0023">
        <ele>1977</ele>
        <time>2018-07-07T08:37:27.000Z</time>
      </trkpt>
      <trkpt lat="42.55013" lon="2.00232">
        <ele>1977</ele>
        <time>2018-07-07T08:37:28.000Z</time>
      </trkpt>
      <trkpt lat="42.5501" lon="2.00234">
        <ele>1977</ele>
        <time>2018-07-07T08:37:29.000Z</time>
      </trkpt>
      <trkpt lat="42.55008" lon="2.00236">
        <ele>1977</ele>
        <time>2018-07-07T08:37:30.000Z</time>
      </trkpt>
      <trkpt lat="42.55005" lon="2.00237">
        <ele>1977</ele>
        <time>2018-07-07T08:37:31.000Z</time>
      </trkpt>
      <trkpt lat="42.55003" lon="2.00239">
        <ele>1977</ele>
        <time>2018-07-07T08:37:32.000Z</time>
      </trkpt>
      <trkpt lat="42.55001" lon="2.0024">
        <ele>1977</ele>
        <time>2018-07-07T08:37:33.000Z</time>
      </trkpt>
      <trkpt lat="42.54998" lon="2.00242">
        <ele>1977</ele>
        <time>2018-07-07T08:37:34.000Z</time>
      </trkpt>
      <trkpt lat="42.54996" lon="2.00244">
        <ele>1977</ele>
        <time>2018-07-07T08:37:35.000Z</time>
      </trkpt>
      <trkpt lat="42.54994" lon="2.00246">
        <ele>1977</ele>
        <time>2018-07-07T08:37:36.000Z</time>
      </trkpt>
      <trkpt lat="42.54992" lon="2.00248">
        <ele>1977</ele>
        <time>2018-07-07T08:37:37.000Z</time>
      </trkpt>
      <trkpt lat="42.5499" lon="2.0025">
        <ele>1976</ele>
        <time>2018-07-07T08:37:38.000Z</time>
      </trkpt>
      <trkpt lat="42.54988" lon="2.00252">
        <ele>1977</ele>
        <time>2018-07-07T08:37:39.000Z</time>
      </trkpt>
      <trkpt lat="42.54986" lon="2.00253">
        <ele>1977</ele>
        <time>2018-07-07T08:37:40.000Z</time>
      </trkpt>
      <trkpt lat="42.54984" lon="2.00255">
        <ele>1977</ele>
        <time>2018-07-07T08:37:41.000Z</time>
      </trkpt>
      <trkpt lat="42.54982" lon="2.00257">
        <ele>1977</ele>
        <time>2018-07-07T08:37:42.000Z</time>
      </trkpt>
      <trkpt lat="42.54979" lon="2.00259">
        <ele>1977</ele>
        <time>2018-07-07T08:37:43.000Z</time>
      </trkpt>
      <trkpt lat="42.54977" lon="2.0026">
        <ele>1977</ele>
        <time>2018-07-07T08:37:44.000Z</time>
      </trkpt>
      <trkpt lat="42.54975" lon="2.00262">
        <ele>1977</ele>
        <time>2018-07-07T08:37:45.000Z</time>
      </trkpt>
      <trkpt lat="42.54972" lon="2.00263">
        <ele>1977</ele>
        <time>2018-07-07T08:37:46.000Z</time>
      </trkpt>
      <trkpt lat="42.5497" lon="2.00264">
        <ele>1977</ele>
        <time>2018-07-07T08:37:47.000Z</time>
      </trkpt>
      <trkpt lat="42.54968" lon="2.00265">
        <ele>1977</ele>
        <time>2018-07-07T08:37:48.000Z</time>
      </trkpt>
      <trkpt lat="42.54966" lon="2.00267">
        <ele>1977</ele>
        <time>2018-07-07T08:37:49.000Z</time>
      </trkpt>
      <trkpt lat="42.54964" lon="2.00268">
        <ele>1977</ele>
        <time>2018-07-07T08:37:50.000Z</time>
      </trkpt>
      <trkpt lat="42.54961" lon="2.00269">
        <ele>1977</ele>
        <time>2018-07-07T08:37:51.000Z</time>
      </trkpt>
      <trkpt lat="42.54959" lon="2.00269">
        <ele>1977</ele>
        <time>2018-07-07T08:37:52.000Z</time>
      </trkpt>
      <trkpt lat="42.54956" lon="2.0027">
        <ele>1977</ele>
        <time>2018-07-07T08:37:53.000Z</time>
      </trkpt>
      <trkpt lat="42.54954" lon="2.0027">
        <ele>1977</ele>
        <time>2018-07-07T08:37:54.000Z</time>
      </trkpt>
      <trkpt lat="42.54951" lon="2.00271">
        <ele>1977</ele>
        <time>2018-07-07T08:37:55.000Z</time>
      </trkpt>
      <trkpt lat="42.54948" lon="2.00272">
        <ele>1977</ele>
        <time>2018-07-07T08:37:56.000Z</time>
      </trkpt>
      <trkpt lat="42.54946" lon="2.00272">
        <ele>1976</ele>
        <time>2018-07-07T08:37:57.000Z</time>
      </trkpt>
      <trkpt lat="42.54943" lon="2.00273">
        <ele>1976</ele>
        <time>2018-07-07T08:37:58.000Z</time>
      </trkpt>
      <trkpt lat="42.54941" lon="2.00273">
        <ele>1976</ele>
        <time>2018-07-07T08:37:59.000Z</time>
      </trkpt>
      <trkpt lat="42.54938" lon="2.00274">
        <ele>1976</ele>
        <time>2018-07-07T08:38:00.000Z</time>
      </trkpt>
      <trkpt lat="42.54936" lon="2.00275">
        <ele>1976</ele>
        <time>2018-07-07T08:38:01.000Z</time>
      </trkpt>
      <trkpt lat="42.54934" lon="2.00275">
        <ele>1976</ele>
        <time>2018-07-07T08:38:02.000Z</time>
      </trkpt>
      <trkpt lat="42.54931" lon="2.00276">
        <ele>1976</ele>
        <time>2018-07-07T08:38:03.000Z</time>
      </trkpt>
      <trkpt lat="42.54929" lon="2.00276">
        <ele>1976</ele>
        <time>2018-07-07T08:38:04.000Z</time>
      </trkpt>
      <trkpt lat="42.54927" lon="2.00277">
        <ele>1976</ele>
        <time>2018-07-07T08:38:05.000Z</time>
      </trkpt>
      <trkpt lat="42.54924" lon="2.00278">
        <ele>1976</ele>
        <time>2018-07-07T08:38:06.000Z</time>
      </trkpt>
      <trkpt lat="42.54922" lon="2.00278">
        <ele>1976</ele>
        <time>2018-07-07T08:38:07.000Z</time>
      </trkpt>
      <trkpt lat="42.5492" lon="2.00279">
        <ele>1976</ele>
        <time>2018-07-07T08:38:08.000Z</time>
      </trkpt>
      <trkpt lat="42.54917" lon="2.00279">
        <ele>1976</ele>
        <time>2018-07-07T08:38:09.000Z</time>
      </trkpt>
      <trkpt lat="42.54915" lon="2.0028">
        <ele>1973</ele>
        <time>2018-07-07T08:38:10.000Z</time>
      </trkpt>
      <trkpt lat="42.54912" lon="2.0028">
        <ele>1973</ele>
        <time>2018-07-07T08:38:11.000Z</time>
      </trkpt>
      <trkpt lat="42.5491" lon="2.00281">
        <ele>1973</ele>
        <time>2018-07-07T08:38:12.000Z</time>
      </trkpt>
      <trkpt lat="42.54907" lon="2.00282">
        <ele>1973</ele>
        <time>2018-07-07T08:38:13.000Z</time>
      </trkpt>
      <trkpt lat="42.54905" lon="2.00283">
        <ele>1973</ele>
        <time>2018-07-07T08:38:14.000Z</time>
      </trkpt>
      <trkpt lat="42.54902" lon="2.00284">
        <ele>1973</ele>
        <time>2018-07-07T08:38:15.000Z</time>
      </trkpt>
      <trkpt lat="42.54899" lon="2.00285">
        <ele>1973</ele>
        <time>2018-07-07T08:38:16.000Z</time>
      </trkpt>
      <trkpt lat="42.54896" lon="2.00286">
        <ele>1973</ele>
        <time>2018-07-07T08:38:17.000Z</time>
      </trkpt>
      <trkpt lat="42.54894" lon="2.00286">
        <ele>1973</ele>
        <time>2018-07-07T08:38:18.000Z</time>
      </trkpt>
      <trkpt lat="42.54891" lon="2.00287">
        <ele>1973</ele>
        <time>2018-07-07T08:38:19.000Z</time>
      </trkpt>
      <trkpt lat="42.54888" lon="2.00288">
        <ele>1973</ele>
        <time>2018-07-07T08:38:20.000Z</time>
      </trkpt>
      <trkpt lat="42.54885" lon="2.00288">
        <ele>1973</ele>
        <time>2018-07-07T08:38:21.000Z</time>
      </trkpt>
      <trkpt lat="42.54883" lon="2.00289">
        <ele>1972</ele>
        <time>2018-07-07T08:38:22.000Z</time>
      </trkpt>
      <trkpt lat="42.5488" lon="2.00289">
        <ele>1972</ele>
        <time>2018-07-07T08:38:23.000Z</time>
      </trkpt>
      <trkpt lat="42.54877" lon="2.0029">
        <ele>1972</ele>
        <time>2018-07-07T08:38:24.000Z</time>
      </trkpt>
      <trkpt lat="42.54875" lon="2.00291">
        <ele>1972</ele>
        <time>2018-07-07T08:38:25.000Z</time>
      </trkpt>
      <trkpt lat="42.54873" lon="2.00292">
        <ele>1972</ele>
        <time>2018-07-07T08:38:26.000Z</time>
      </trkpt>
      <trkpt lat="42.5487" lon="2.00292">
        <ele>1972</ele>
        <time>2018-07-07T08:38:27.000Z</time>
      </trkpt>
      <trkpt lat="42.54867" lon="2.00293">
        <ele>1972</ele>
        <time>2018-07-07T08:38:28.000Z</time>
      </trkpt>
      <trkpt lat="42.54864" lon="2.00293">
        <ele>1972</ele>
        <time>2018-07-07T08:38:29.000Z</time>
      </trkpt>
      <trkpt lat="42.54862" lon="2.00294">
        <ele>1972</ele>
        <time>2018-07-07T08:38:30.000Z</time>
      </trkpt>
      <trkpt lat="42.54859" lon="2.00294">
        <ele>1972</ele>
        <time>2018-07-07T08:38:31.000Z</time>
      </trkpt>
      <trkpt lat="42.54857" lon="2.00295">
        <ele>1972</ele>
        <time>2018-07-07T08:38:32.000Z</time>
      </trkpt>
      <trkpt lat="42.54854" lon="2.00295">
        <ele>1972</ele>
        <time>2018-07-07T08:38:33.000Z</time>
      </trkpt>
      <trkpt lat="42.54851" lon="2.00296">
        <ele>1972</ele>
        <time>2018-07-07T08:38:34.000Z</time>
      </trkpt>
      <trkpt lat="42.54849" lon="2.00297">
        <ele>1972</ele>
        <time>2018-07-07T08:38:35.000Z</time>
      </trkpt>
      <trkpt lat="42.54846" lon="2.00298">
        <ele>1971</ele>
        <time>2018-07-07T08:38:36.000Z</time>
      </trkpt>
      <trkpt lat="42.54843" lon="2.00298">
        <ele>1971</ele>
        <time>2018-07-07T08:38:37.000Z</time>
      </trkpt>
      <trkpt lat="42.5484" lon="2.003">
        <ele>1971</ele>
        <time>2018-07-07T08:38:38.000Z</time>
      </trkpt>
      <trkpt lat="42.54837" lon="2.00301">
        <ele>1971</ele>
        <time>2018-07-07T08:38:39.000Z</time>
      </trkpt>
      <trkpt lat="42.54835" lon="2.00301">
        <ele>1971</ele>
        <time>2018-07-07T08:38:40.000Z</time>
      </trkpt>
      <trkpt lat="42.54832" lon="2.00303">
        <ele>1968</ele>
        <time>2018-07-07T08:38:41.000Z</time>
      </trkpt>
      <trkpt lat="42.5483" lon="2.00304">
        <ele>1968</ele>
        <time>2018-07-07T08:38:42.000Z</time>
      </trkpt>
      <trkpt lat="42.54827" lon="2.00306">
        <ele>1968</ele>
        <time>2018-07-07T08:38:43.000Z</time>
      </trkpt>
      <trkpt lat="42.54825" lon="2.00307">
        <ele>1968</ele>
        <time>2018-07-07T08:38:44.000Z</time>
      </trkpt>
      <trkpt lat="42.54822" lon="2.00308">
        <ele>1968</ele>
        <time>2018-07-07T08:38:45.000Z</time>
      </trkpt>
      <trkpt lat="42.5482" lon="2.00309">
        <ele>1968</ele>
        <time>2018-07-07T08:38:46.000Z</time>
      </trkpt>
      <trkpt lat="42.54817" lon="2.00309">
        <ele>1968</ele>
        <time>2018-07-07T08:38:47.000Z</time>
      </trkpt>
      <trkpt lat="42.54814" lon="2.0031">
        <ele>1968</ele>
        <time>2018-07-07T08:38:48.000Z</time>
      </trkpt>
      <trkpt lat="42.54811" lon="2.00311">
        <ele>1968</ele>
        <time>2018-07-07T08:38:49.000Z</time>
      </trkpt>
      <trkpt lat="42.54808" lon="2.00311">
        <ele>1968</ele>
        <time>2018-07-07T08:38:50.000Z</time>
      </trkpt>
      <trkpt lat="42.54806" lon="2.00312">
        <ele>1968</ele>
        <time>2018-07-07T08:38:51.000Z</time>
      </trkpt>
      <trkpt lat="42.54803" lon="2.00314">
        <ele>1968</ele>
        <time>2018-07-07T08:38:52.000Z</time>
      </trkpt>
      <trkpt lat="42.54801" lon="2.00315">
        <ele>1967</ele>
        <time>2018-07-07T08:38:53.000Z</time>
      </trkpt>
      <trkpt lat="42.54798" lon="2.00316">
        <ele>1967</ele>
        <time>2018-07-07T08:38:54.000Z</time>
      </trkpt>
      <trkpt lat="42.54796" lon="2.00318">
        <ele>1967</ele>
        <time>2018-07-07T08:38:55.000Z</time>
      </trkpt>
      <trkpt lat="42.54793" lon="2.00319">
        <ele>1967</ele>
        <time>2018-07-07T08:38:56.000Z</time>
      </trkpt>
      <trkpt lat="42.54791" lon="2.0032">
        <ele>1967</ele>
        <time>2018-07-07T08:38:57.000Z</time>
      </trkpt>
      <trkpt lat="42.54788" lon="2.00321">
        <ele>1967</ele>
        <time>2018-07-07T08:38:58.000Z</time>
      </trkpt>
      <trkpt lat="42.54786" lon="2.00323">
        <ele>1967</ele>
        <time>2018-07-07T08:38:59.000Z</time>
      </trkpt>
      <trkpt lat="42.54784" lon="2.00324">
        <ele>1967</ele>
        <time>2018-07-07T08:39:00.000Z</time>
      </trkpt>
      <trkpt lat="42.54781" lon="2.00326">
        <ele>1966</ele>
        <time>2018-07-07T08:39:01.000Z</time>
      </trkpt>
      <trkpt lat="42.54778" lon="2.00327">
        <ele>1966</ele>
        <time>2018-07-07T08:39:02.000Z</time>
      </trkpt>
      <trkpt lat="42.54776" lon="2.00328">
        <ele>1966</ele>
        <time>2018-07-07T08:39:03.000Z</time>
      </trkpt>
      <trkpt lat="42.54773" lon="2.0033">
        <ele>1966</ele>
        <time>2018-07-07T08:39:04.000Z</time>
      </trkpt>
      <trkpt lat="42.54771" lon="2.00332">
        <ele>1966</ele>
        <time>2018-07-07T08:39:05.000Z</time>
      </trkpt>
      <trkpt lat="42.54768" lon="2.00334">
        <ele>1967</ele>
        <time>2018-07-07T08:39:06.000Z</time>
      </trkpt>
      <trkpt lat="42.54766" lon="2.00336">
        <ele>1966</ele>
        <time>2018-07-07T08:39:07.000Z</time>
      </trkpt>
      <trkpt lat="42.54763" lon="2.00337">
        <ele>1966</ele>
        <time>2018-07-07T08:39:08.000Z</time>
      </trkpt>
      <trkpt lat="42.5476" lon="2.00338">
        <ele>1966</ele>
        <time>2018-07-07T08:39:09.000Z</time>
      </trkpt>
      <trkpt lat="42.54758" lon="2.00339">
        <ele>1965</ele>
        <time>2018-07-07T08:39:10.000Z</time>
      </trkpt>
      <trkpt lat="42.54755" lon="2.00341">
        <ele>1965</ele>
        <time>2018-07-07T08:39:11.000Z</time>
      </trkpt>
      <trkpt lat="42.54752" lon="2.00342">
        <ele>1965</ele>
        <time>2018-07-07T08:39:12.000Z</time>
      </trkpt>
      <trkpt lat="42.5475" lon="2.00344">
        <ele>1963</ele>
        <time>2018-07-07T08:39:13.000Z</time>
      </trkpt>
      <trkpt lat="42.54747" lon="2.00345">
        <ele>1963</ele>
        <time>2018-07-07T08:39:14.000Z</time>
      </trkpt>
      <trkpt lat="42.54745" lon="2.00347">
        <ele>1963</ele>
        <time>2018-07-07T08:39:15.000Z</time>
      </trkpt>
      <trkpt lat="42.54742" lon="2.00349">
        <ele>1963</ele>
        <time>2018-07-07T08:39:16.000Z</time>
      </trkpt>
      <trkpt lat="42.5474" lon="2.0035">
        <ele>1963</ele>
        <time>2018-07-07T08:39:17.000Z</time>
      </trkpt>
      <trkpt lat="42.54737" lon="2.00352">
        <ele>1963</ele>
        <time>2018-07-07T08:39:18.000Z</time>
      </trkpt>
      <trkpt lat="42.54735" lon="2.00353">
        <ele>1963</ele>
        <time>2018-07-07T08:39:19.000Z</time>
      </trkpt>
      <trkpt lat="42.54732" lon="2.00355">
        <ele>1963</ele>
        <time>2018-07-07T08:39:20.000Z</time>
      </trkpt>
      <trkpt lat="42.5473" lon="2.00356">
        <ele>1963</ele>
        <time>2018-07-07T08:39:21.000Z</time>
      </trkpt>
      <trkpt lat="42.54728" lon="2.00357">
        <ele>1963</ele>
        <time>2018-07-07T08:39:22.000Z</time>
      </trkpt>
      <trkpt lat="42.54725" lon="2.00359">
        <ele>1963</ele>
        <time>2018-07-07T08:39:23.000Z</time>
      </trkpt>
      <trkpt lat="42.54723" lon="2.0036">
        <ele>1963</ele>
        <time>2018-07-07T08:39:24.000Z</time>
      </trkpt>
      <trkpt lat="42.5472" lon="2.00362">
        <ele>1962</ele>
        <time>2018-07-07T08:39:25.000Z</time>
      </trkpt>
      <trkpt lat="42.54718" lon="2.00363">
        <ele>1962</ele>
        <time>2018-07-07T08:39:26.000Z</time>
      </trkpt>
      <trkpt lat="42.54715" lon="2.00365">
        <ele>1962</ele>
        <time>2018-07-07T08:39:27.000Z</time>
      </trkpt>
      <trkpt lat="42.54712" lon="2.00366">
        <ele>1962</ele>
        <time>2018-07-07T08:39:28.000Z</time>
      </trkpt>
      <trkpt lat="42.54709" lon="2.00367">
        <ele>1962</ele>
        <time>2018-07-07T08:39:29.000Z</time>
      </trkpt>
      <trkpt lat="42.54707" lon="2.00368">
        <ele>1962</ele>
        <time>2018-07-07T08:39:30.000Z</time>
      </trkpt>
      <trkpt lat="42.54704" lon="2.00369">
        <ele>1962</ele>
        <time>2018-07-07T08:39:31.000Z</time>
      </trkpt>
      <trkpt lat="42.54702" lon="2.00371">
        <ele>1962</ele>
        <time>2018-07-07T08:39:32.000Z</time>
      </trkpt>
      <trkpt lat="42.547" lon="2.00372">
        <ele>1962</ele>
        <time>2018-07-07T08:39:33.000Z</time>
      </trkpt>
      <trkpt lat="42.54697" lon="2.00374">
        <ele>1962</ele>
        <time>2018-07-07T08:39:34.000Z</time>
      </trkpt>
      <trkpt lat="42.54695" lon="2.00375">
        <ele>1962</ele>
        <time>2018-07-07T08:39:35.000Z</time>
      </trkpt>
      <trkpt lat="42.54692" lon="2.00376">
        <ele>1962</ele>
        <time>2018-07-07T08:39:36.000Z</time>
      </trkpt>
      <trkpt lat="42.5469" lon="2.00377">
        <ele>1961</ele>
        <time>2018-07-07T08:39:37.000Z</time>
      </trkpt>
      <trkpt lat="42.54688" lon="2.00378">
        <ele>1961</ele>
        <time>2018-07-07T08:39:38.000Z</time>
      </trkpt>
      <trkpt lat="42.54685" lon="2.00379">
        <ele>1961</ele>
        <time>2018-07-07T08:39:39.000Z</time>
      </trkpt>
      <trkpt lat="42.54683" lon="2.00381">
        <ele>1961</ele>
        <time>2018-07-07T08:39:40.000Z</time>
      </trkpt>
      <trkpt lat="42.5468" lon="2.00382">
        <ele>1961</ele>
        <time>2018-07-07T08:39:41.000Z</time>
      </trkpt>
      <trkpt lat="42.54678" lon="2.00384">
        <ele>1961</ele>
        <time>2018-07-07T08:39:42.000Z</time>
      </trkpt>
      <trkpt lat="42.54676" lon="2.00385">
        <ele>1961</ele>
        <time>2018-07-07T08:39:43.000Z</time>
      </trkpt>
      <trkpt lat="42.54674" lon="2.00387">
        <ele>1961</ele>
        <time>2018-07-07T08:39:44.000Z</time>
      </trkpt>
      <trkpt lat="42.54672" lon="2.00389">
        <ele>1961</ele>
        <time>2018-07-07T08:39:45.000Z</time>
      </trkpt>
      <trkpt lat="42.5467" lon="2.00391">
        <ele>1961</ele>
        <time>2018-07-07T08:39:46.000Z</time>
      </trkpt>
      <trkpt lat="42.54668" lon="2.00393">
        <ele>1960</ele>
        <time>2018-07-07T08:39:47.000Z</time>
      </trkpt>
      <trkpt lat="42.54665" lon="2.00394">
        <ele>1957</ele>
        <time>2018-07-07T08:39:48.000Z</time>
      </trkpt>
      <trkpt lat="42.54663" lon="2.00396">
        <ele>1957</ele>
        <time>2018-07-07T08:39:49.000Z</time>
      </trkpt>
      <trkpt lat="42.54661" lon="2.00398">
        <ele>1957</ele>
        <time>2018-07-07T08:39:50.000Z</time>
      </trkpt>
      <trkpt lat="42.54658" lon="2.004">
        <ele>1957</ele>
        <time>2018-07-07T08:39:51.000Z</time>
      </trkpt>
      <trkpt lat="42.54656" lon="2.00402">
        <ele>1957</ele>
        <time>2018-07-07T08:39:52.000Z</time>
      </trkpt>
      <trkpt lat="42.54654" lon="2.00404">
        <ele>1957</ele>
        <time>2018-07-07T08:39:53.000Z</time>
      </trkpt>
      <trkpt lat="42.54651" lon="2.00406">
        <ele>1957</ele>
        <time>2018-07-07T08:39:54.000Z</time>
      </trkpt>
      <trkpt lat="42.54648" lon="2.00408">
        <ele>1957</ele>
        <time>2018-07-07T08:39:55.000Z</time>
      </trkpt>
      <trkpt lat="42.54646" lon="2.0041">
        <ele>1956</ele>
        <time>2018-07-07T08:39:56.000Z</time>
      </trkpt>
      <trkpt lat="42.54644" lon="2.00411">
        <ele>1956</ele>
        <time>2018-07-07T08:39:57.000Z</time>
      </trkpt>
      <trkpt lat="42.54642" lon="2.00413">
        <ele>1956</ele>
        <time>2018-07-07T08:39:58.000Z</time>
      </trkpt>
      <trkpt lat="42.5464" lon="2.00415">
        <ele>1956</ele>
        <time>2018-07-07T08:39:59.000Z</time>
      </trkpt>
      <trkpt lat="42.54638" lon="2.00417">
        <ele>1956</ele>
        <time>2018-07-07T08:40:00.000Z</time>
      </trkpt>
      <trkpt lat="42.54635" lon="2.00418">
        <ele>1958</ele>
        <time>2018-07-07T08:40:01.000Z</time>
      </trkpt>
      <trkpt lat="42.54633" lon="2.0042">
        <ele>1958</ele>
        <time>2018-07-07T08:40:02.000Z</time>
      </trkpt>
      <trkpt lat="42.54631" lon="2.00422">
        <ele>1958</ele>
        <time>2018-07-07T08:40:03.000Z</time>
      </trkpt>
      <trkpt lat="42.54628" lon="2.00424">
        <ele>1958</ele>
        <time>2018-07-07T08:40:04.000Z</time>
      </trkpt>
      <trkpt lat="42.54625" lon="2.00426">
        <ele>1957</ele>
        <time>2018-07-07T08:40:05.000Z</time>
      </trkpt>
      <trkpt lat="42.54622" lon="2.00427">
        <ele>1957</ele>
        <time>2018-07-07T08:40:06.000Z</time>
      </trkpt>
      <trkpt lat="42.5462" lon="2.00429">
        <ele>1957</ele>
        <time>2018-07-07T08:40:07.000Z</time>
      </trkpt>
      <trkpt lat="42.54618" lon="2.00431">
        <ele>1957</ele>
        <time>2018-07-07T08:40:08.000Z</time>
      </trkpt>
      <trkpt lat="42.54616" lon="2.00432">
        <ele>1957</ele>
        <time>2018-07-07T08:40:09.000Z</time>
      </trkpt>
      <trkpt lat="42.54614" lon="2.00434">
        <ele>1957</ele>
        <time>2018-07-07T08:40:10.000Z</time>
      </trkpt>
      <trkpt lat="42.54612" lon="2.00436">
        <ele>1957</ele>
        <time>2018-07-07T08:40:11.000Z</time>
      </trkpt>
      <trkpt lat="42.54609" lon="2.00437">
        <ele>1957</ele>
        <time>2018-07-07T08:40:12.000Z</time>
      </trkpt>
      <trkpt lat="42.54607" lon="2.00439">
        <ele>1956</ele>
        <time>2018-07-07T08:40:13.000Z</time>
      </trkpt>
      <trkpt lat="42.54605" lon="2.00441">
        <ele>1956</ele>
        <time>2018-07-07T08:40:14.000Z</time>
      </trkpt>
      <trkpt lat="42.54603" lon="2.00443">
        <ele>1956</ele>
        <time>2018-07-07T08:40:15.000Z</time>
      </trkpt>
      <trkpt lat="42.54601" lon="2.00445">
        <ele>1956</ele>
        <time>2018-07-07T08:40:16.000Z</time>
      </trkpt>
      <trkpt lat="42.54599" lon="2.00447">
        <ele>1957</ele>
        <time>2018-07-07T08:40:17.000Z</time>
      </trkpt>
      <trkpt lat="42.54597" lon="2.0045">
        <ele>1957</ele>
        <time>2018-07-07T08:40:18.000Z</time>
      </trkpt>
      <trkpt lat="42.54595" lon="2.00453">
        <ele>1957</ele>
        <time>2018-07-07T08:40:19.000Z</time>
      </trkpt>
      <trkpt lat="42.54593" lon="2.00456">
        <ele>1957</ele>
        <time>2018-07-07T08:40:20.000Z</time>
      </trkpt>
      <trkpt lat="42.54591" lon="2.00458">
        <ele>1957</ele>
        <time>2018-07-07T08:40:21.000Z</time>
      </trkpt>
      <trkpt lat="42.5459" lon="2.00461">
        <ele>1957</ele>
        <time>2018-07-07T08:40:22.000Z</time>
      </trkpt>
      <trkpt lat="42.54588" lon="2.00463">
        <ele>1957</ele>
        <time>2018-07-07T08:40:23.000Z</time>
      </trkpt>
      <trkpt lat="42.54586" lon="2.00466">
        <ele>1957</ele>
        <time>2018-07-07T08:40:24.000Z</time>
      </trkpt>
      <trkpt lat="42.54584" lon="2.00469">
        <ele>1957</ele>
        <time>2018-07-07T08:40:25.000Z</time>
      </trkpt>
      <trkpt lat="42.54583" lon="2.00472">
        <ele>1951</ele>
        <time>2018-07-07T08:40:26.000Z</time>
      </trkpt>
      <trkpt lat="42.54581" lon="2.00475">
        <ele>1952</ele>
        <time>2018-07-07T08:40:27.000Z</time>
      </trkpt>
      <trkpt lat="42.5458" lon="2.00478">
        <ele>1952</ele>
        <time>2018-07-07T08:40:28.000Z</time>
      </trkpt>
      <trkpt lat="42.54578" lon="2.00481">
        <ele>1952</ele>
        <time>2018-07-07T08:40:29.000Z</time>
      </trkpt>
      <trkpt lat="42.54576" lon="2.00484">
        <ele>1952</ele>
        <time>2018-07-07T08:40:30.000Z</time>
      </trkpt>
      <trkpt lat="42.54575" lon="2.00486">
        <ele>1953</ele>
        <time>2018-07-07T08:40:31.000Z</time>
      </trkpt>
      <trkpt lat="42.54573" lon="2.00489">
        <ele>1953</ele>
        <time>2018-07-07T08:40:32.000Z</time>
      </trkpt>
      <trkpt lat="42.54572" lon="2.00492">
        <ele>1953</ele>
        <time>2018-07-07T08:40:33.000Z</time>
      </trkpt>
      <trkpt lat="42.54571" lon="2.00495">
        <ele>1953</ele>
        <time>2018-07-07T08:40:34.000Z</time>
      </trkpt>
      <trkpt lat="42.54569" lon="2.00498">
        <ele>1953</ele>
        <time>2018-07-07T08:40:35.000Z</time>
      </trkpt>
      <trkpt lat="42.54568" lon="2.00501">
        <ele>1956</ele>
        <time>2018-07-07T08:40:36.000Z</time>
      </trkpt>
      <trkpt lat="42.54566" lon="2.00504">
        <ele>1956</ele>
        <time>2018-07-07T08:40:37.000Z</time>
      </trkpt>
      <trkpt lat="42.54565" lon="2.00507">
        <ele>1956</ele>
        <time>2018-07-07T08:40:38.000Z</time>
      </trkpt>
      <trkpt lat="42.54563" lon="2.00509">
        <ele>1956</ele>
        <time>2018-07-07T08:40:39.000Z</time>
      </trkpt>
      <trkpt lat="42.54561" lon="2.00512">
        <ele>1956</ele>
        <time>2018-07-07T08:40:40.000Z</time>
      </trkpt>
      <trkpt lat="42.5456" lon="2.00515">
        <ele>1956</ele>
        <time>2018-07-07T08:40:41.000Z</time>
      </trkpt>
      <trkpt lat="42.54559" lon="2.00517">
        <ele>1956</ele>
        <time>2018-07-07T08:40:42.000Z</time>
      </trkpt>
      <trkpt lat="42.54557" lon="2.0052">
        <ele>1956</ele>
        <time>2018-07-07T08:40:43.000Z</time>
      </trkpt>
      <trkpt lat="42.54556" lon="2.00522">
        <ele>1956</ele>
        <time>2018-07-07T08:40:44.000Z</time>
      </trkpt>
      <trkpt lat="42.54554" lon="2.00525">
        <ele>1956</ele>
        <time>2018-07-07T08:40:45.000Z</time>
      </trkpt>
      <trkpt lat="42.54552" lon="2.00528">
        <ele>1956</ele>
        <time>2018-07-07T08:40:46.000Z</time>
      </trkpt>
      <trkpt lat="42.54551" lon="2.00531">
        <ele>1956</ele>
        <time>2018-07-07T08:40:47.000Z</time>
      </trkpt>
      <trkpt lat="42.5455" lon="2.00534">
        <ele>1956</ele>
        <time>2018-07-07T08:40:48.000Z</time>
      </trkpt>
      <trkpt lat="42.54549" lon="2.00537">
        <ele>1956</ele>
        <time>2018-07-07T08:40:49.000Z</time>
      </trkpt>
      <trkpt lat="42.54547" lon="2.00539">
        <ele>1956</ele>
        <time>2018-07-07T08:40:50.000Z</time>
      </trkpt>
      <trkpt lat="42.54545" lon="2.00542">
        <ele>1956</ele>
        <time>2018-07-07T08:40:51.000Z</time>
      </trkpt>
      <trkpt lat="42.54544" lon="2.00545">
        <ele>1956</ele>
        <time>2018-07-07T08:40:52.000Z</time>
      </trkpt>
      <trkpt lat="42.54542" lon="2.00548">
        <ele>1956</ele>
        <time>2018-07-07T08:40:53.000Z</time>
      </trkpt>
      <trkpt lat="42.54541" lon="2.0055">
        <ele>1956</ele>
        <time>2018-07-07T08:40:54.000Z</time>
      </trkpt>
      <trkpt lat="42.5454" lon="2.00553">
        <ele>1956</ele>
        <time>2018-07-07T08:40:55.000Z</time>
      </trkpt>
      <trkpt lat="42.54539" lon="2.00556">
        <ele>1956</ele>
        <time>2018-07-07T08:40:56.000Z</time>
      </trkpt>
      <trkpt lat="42.54538" lon="2.00558">
        <ele>1956</ele>
        <time>2018-07-07T08:40:57.000Z</time>
      </trkpt>
      <trkpt lat="42.54536" lon="2.00561">
        <ele>1956</ele>
        <time>2018-07-07T08:40:58.000Z</time>
      </trkpt>
      <trkpt lat="42.54535" lon="2.00564">
        <ele>1956</ele>
        <time>2018-07-07T08:40:59.000Z</time>
      </trkpt>
      <trkpt lat="42.54534" lon="2.00566">
        <ele>1956</ele>
        <time>2018-07-07T08:41:00.000Z</time>
      </trkpt>
      <trkpt lat="42.54531" lon="2.00569">
        <ele>1956</ele>
        <time>2018-07-07T08:41:02.000Z</time>
      </trkpt>
      <trkpt lat="42.5453" lon="2.00572">
        <ele>1956</ele>
        <time>2018-07-07T08:41:04.000Z</time>
      </trkpt>
      <trkpt lat="42.54529" lon="2.00575">
        <ele>1956</ele>
        <time>2018-07-07T08:41:06.000Z</time>
      </trkpt>
      <trkpt lat="42.54528" lon="2.00578">
        <ele>1956</ele>
        <time>2018-07-07T08:41:08.000Z</time>
      </trkpt>
      <trkpt lat="42.54527" lon="2.00581">
        <ele>1956</ele>
        <time>2018-07-07T08:41:10.000Z</time>
      </trkpt>
      <trkpt lat="42.54525" lon="2.00584">
        <ele>1961</ele>
        <time>2018-07-07T08:41:12.000Z</time>
      </trkpt>
      <trkpt lat="42.54524" lon="2.00587">
        <ele>1961</ele>
        <time>2018-07-07T08:41:14.000Z</time>
      </trkpt>
      <trkpt lat="42.54522" lon="2.0059">
        <ele>1960</ele>
        <time>2018-07-07T08:41:16.000Z</time>
      </trkpt>
      <trkpt lat="42.5452" lon="2.00593">
        <ele>1960</ele>
        <time>2018-07-07T08:41:18.000Z</time>
      </trkpt>
      <trkpt lat="42.54518" lon="2.00597">
        <ele>1960</ele>
        <time>2018-07-07T08:41:20.000Z</time>
      </trkpt>
      <trkpt lat="42.54517" lon="2.00599">
        <ele>1960</ele>
        <time>2018-07-07T08:41:22.000Z</time>
      </trkpt>
      <trkpt lat="42.54515" lon="2.00602">
        <ele>1960</ele>
        <time>2018-07-07T08:41:24.000Z</time>
      </trkpt>
      <trkpt lat="42.54514" lon="2.00605">
        <ele>1961</ele>
        <time>2018-07-07T08:41:26.000Z</time>
      </trkpt>
      <trkpt lat="42.54512" lon="2.00608">
        <ele>1961</ele>
        <time>2018-07-07T08:41:28.000Z</time>
      </trkpt>
      <trkpt lat="42.5451" lon="2.00611">
        <ele>1961</ele>
        <time>2018-07-07T08:41:30.000Z</time>
      </trkpt>
      <trkpt lat="42.54507" lon="2.00613">
        <ele>1961</ele>
        <time>2018-07-07T08:41:32.000Z</time>
      </trkpt>
      <trkpt lat="42.54505" lon="2.00615">
        <ele>1961</ele>
        <time>2018-07-07T08:41:33.000Z</time>
      </trkpt>
      <trkpt lat="42.54503" lon="2.00617">
        <ele>1961</ele>
        <time>2018-07-07T08:41:34.000Z</time>
      </trkpt>
      <trkpt lat="42.545" lon="2.00618">
        <ele>1954</ele>
        <time>2018-07-07T08:41:35.000Z</time>
      </trkpt>
      <trkpt lat="42.54497" lon="2.0062">
        <ele>1954</ele>
        <time>2018-07-07T08:41:36.000Z</time>
      </trkpt>
      <trkpt lat="42.54494" lon="2.00622">
        <ele>1954</ele>
        <time>2018-07-07T08:41:37.000Z</time>
      </trkpt>
      <trkpt lat="42.54492" lon="2.00624">
        <ele>1954</ele>
        <time>2018-07-07T08:41:38.000Z</time>
      </trkpt>
      <trkpt lat="42.54489" lon="2.00625">
        <ele>1954</ele>
        <time>2018-07-07T08:41:39.000Z</time>
      </trkpt>
      <trkpt lat="42.54486" lon="2.00627">
        <ele>1954</ele>
        <time>2018-07-07T08:41:40.000Z</time>
      </trkpt>
      <trkpt lat="42.54484" lon="2.00629">
        <ele>1954</ele>
        <time>2018-07-07T08:41:41.000Z</time>
      </trkpt>
      <trkpt lat="42.54482" lon="2.00631">
        <ele>1955</ele>
        <time>2018-07-07T08:41:42.000Z</time>
      </trkpt>
      <trkpt lat="42.5448" lon="2.00633">
        <ele>1955</ele>
        <time>2018-07-07T08:41:43.000Z</time>
      </trkpt>
      <trkpt lat="42.54478" lon="2.00634">
        <ele>1955</ele>
        <time>2018-07-07T08:41:44.000Z</time>
      </trkpt>
      <trkpt lat="42.54475" lon="2.00634">
        <ele>1955</ele>
        <time>2018-07-07T08:41:45.000Z</time>
      </trkpt>
      <trkpt lat="42.54473" lon="2.00633">
        <ele>1954</ele>
        <time>2018-07-07T08:41:46.000Z</time>
      </trkpt>
      <trkpt lat="42.5447" lon="2.00631">
        <ele>1954</ele>
        <time>2018-07-07T08:41:47.000Z</time>
      </trkpt>
      <trkpt lat="42.54468" lon="2.00629">
        <ele>1954</ele>
        <time>2018-07-07T08:41:48.000Z</time>
      </trkpt>
      <trkpt lat="42.54466" lon="2.00627">
        <ele>1954</ele>
        <time>2018-07-07T08:41:49.000Z</time>
      </trkpt>
      <trkpt lat="42.54464" lon="2.00625">
        <ele>1954</ele>
        <time>2018-07-07T08:41:50.000Z</time>
      </trkpt>
      <trkpt lat="42.54461" lon="2.00624">
        <ele>1953</ele>
        <time>2018-07-07T08:41:51.000Z</time>
      </trkpt>
      <trkpt lat="42.54459" lon="2.00622">
        <ele>1953</ele>
        <time>2018-07-07T08:41:52.000Z</time>
      </trkpt>
      <trkpt lat="42.54456" lon="2.0062">
        <ele>1953</ele>
        <time>2018-07-07T08:41:53.000Z</time>
      </trkpt>
      <trkpt lat="42.54454" lon="2.00618">
        <ele>1953</ele>
        <time>2018-07-07T08:41:54.000Z</time>
      </trkpt>
      <trkpt lat="42.54451" lon="2.00617">
        <ele>1953</ele>
        <time>2018-07-07T08:41:55.000Z</time>
      </trkpt>
      <trkpt lat="42.54449" lon="2.00614">
        <ele>1952</ele>
        <time>2018-07-07T08:41:56.000Z</time>
      </trkpt>
      <trkpt lat="42.54447" lon="2.00612">
        <ele>1952</ele>
        <time>2018-07-07T08:41:57.000Z</time>
      </trkpt>
      <trkpt lat="42.54445" lon="2.00609">
        <ele>1952</ele>
        <time>2018-07-07T08:41:58.000Z</time>
      </trkpt>
      <trkpt lat="42.54444" lon="2.00605">
        <ele>1952</ele>
        <time>2018-07-07T08:41:59.000Z</time>
      </trkpt>
      <trkpt lat="42.54443" lon="2.00603">
        <ele>1951</ele>
        <time>2018-07-07T08:42:00.000Z</time>
      </trkpt>
      <trkpt lat="42.54441" lon="2.006">
        <ele>1951</ele>
        <time>2018-07-07T08:42:01.000Z</time>
      </trkpt>
      <trkpt lat="42.5444" lon="2.00597">
        <ele>1951</ele>
        <time>2018-07-07T08:42:02.000Z</time>
      </trkpt>
      <trkpt lat="42.54438" lon="2.00595">
        <ele>1950</ele>
        <time>2018-07-07T08:42:03.000Z</time>
      </trkpt>
      <trkpt lat="42.54437" lon="2.00592">
        <ele>1950</ele>
        <time>2018-07-07T08:42:04.000Z</time>
      </trkpt>
      <trkpt lat="42.54435" lon="2.0059">
        <ele>1950</ele>
        <time>2018-07-07T08:42:05.000Z</time>
      </trkpt>
      <trkpt lat="42.54433" lon="2.00589">
        <ele>1949</ele>
        <time>2018-07-07T08:42:06.000Z</time>
      </trkpt>
      <trkpt lat="42.54432" lon="2.00587">
        <ele>1949</ele>
        <time>2018-07-07T08:42:07.000Z</time>
      </trkpt>
      <trkpt lat="42.5443" lon="2.00586">
        <ele>1948</ele>
        <time>2018-07-07T08:42:08.000Z</time>
      </trkpt>
      <trkpt lat="42.54427" lon="2.00585">
        <ele>1948</ele>
        <time>2018-07-07T08:42:09.000Z</time>
      </trkpt>
      <trkpt lat="42.54425" lon="2.00584">
        <ele>1947</ele>
        <time>2018-07-07T08:42:10.000Z</time>
      </trkpt>
      <trkpt lat="42.54422" lon="2.00582">
        <ele>1945</ele>
        <time>2018-07-07T08:42:12.000Z</time>
      </trkpt>
      <trkpt lat="42.5442" lon="2.00583">
        <ele>1945</ele>
        <time>2018-07-07T08:42:13.000Z</time>
      </trkpt>
      <trkpt lat="42.54417" lon="2.00583">
        <ele>1945</ele>
        <time>2018-07-07T08:42:15.000Z</time>
      </trkpt>
      <trkpt lat="42.54413" lon="2.00583">
        <ele>1944</ele>
        <time>2018-07-07T08:42:17.000Z</time>
      </trkpt>
      <trkpt lat="42.5441" lon="2.00583">
        <ele>1943</ele>
        <time>2018-07-07T08:42:19.000Z</time>
      </trkpt>
      <trkpt lat="42.54407" lon="2.00583">
        <ele>1942</ele>
        <time>2018-07-07T08:42:20.000Z</time>
      </trkpt>
      <trkpt lat="42.54405" lon="2.00582">
        <ele>1942</ele>
        <time>2018-07-07T08:42:21.000Z</time>
      </trkpt>
      <trkpt lat="42.54403" lon="2.0058">
        <ele>1942</ele>
        <time>2018-07-07T08:42:22.000Z</time>
      </trkpt>
      <trkpt lat="42.54401" lon="2.0058">
        <ele>1941</ele>
        <time>2018-07-07T08:42:23.000Z</time>
      </trkpt>
      <trkpt lat="42.54399" lon="2.0058">
        <ele>1941</ele>
        <time>2018-07-07T08:42:24.000Z</time>
      </trkpt>
      <trkpt lat="42.54396" lon="2.00581">
        <ele>1941</ele>
        <time>2018-07-07T08:42:25.000Z</time>
      </trkpt>
      <trkpt lat="42.54394" lon="2.00582">
        <ele>1940</ele>
        <time>2018-07-07T08:42:26.000Z</time>
      </trkpt>
      <trkpt lat="42.54392" lon="2.00582">
        <ele>1940</ele>
        <time>2018-07-07T08:42:27.000Z</time>
      </trkpt>
      <trkpt lat="42.54389" lon="2.00582">
        <ele>1940</ele>
        <time>2018-07-07T08:42:28.000Z</time>
      </trkpt>
      <trkpt lat="42.54387" lon="2.00583">
        <ele>1940</ele>
        <time>2018-07-07T08:42:29.000Z</time>
      </trkpt>
      <trkpt lat="42.54383" lon="2.00584">
        <ele>1946</ele>
        <time>2018-07-07T08:42:31.000Z</time>
      </trkpt>
      <trkpt lat="42.54382" lon="2.00584">
        <ele>1945</ele>
        <time>2018-07-07T08:42:32.000Z</time>
      </trkpt>
      <trkpt lat="42.5438" lon="2.00584">
        <ele>1945</ele>
        <time>2018-07-07T08:42:34.000Z</time>
      </trkpt>
      <trkpt lat="42.54377" lon="2.00583">
        <ele>1939</ele>
        <time>2018-07-07T08:42:37.000Z</time>
      </trkpt>
      <trkpt lat="42.54375" lon="2.00584">
        <ele>1945</ele>
        <time>2018-07-07T08:42:46.000Z</time>
      </trkpt>
      <trkpt lat="42.54373" lon="2.00585">
        <ele>1945</ele>
        <time>2018-07-07T08:43:07.000Z</time>
      </trkpt>
      <trkpt lat="42.54372" lon="2.00587">
        <ele>1945</ele>
        <time>2018-07-07T08:43:18.000Z</time>
      </trkpt>
      <trkpt lat="42.54371" lon="2.0059">
        <ele>1945</ele>
        <time>2018-07-07T08:43:22.000Z</time>
      </trkpt>
      <trkpt lat="42.54369" lon="2.00592">
        <ele>1945</ele>
        <time>2018-07-07T08:43:24.000Z</time>
      </trkpt>
      <trkpt lat="42.54367" lon="2.00593">
        <ele>1945</ele>
        <time>2018-07-07T08:43:26.000Z</time>
      </trkpt>
      <trkpt lat="42.54365" lon="2.00594">
        <ele>1945</ele>
        <time>2018-07-07T08:43:28.000Z</time>
      </trkpt>
      <trkpt lat="42.54363" lon="2.00595">
        <ele>1944</ele>
        <time>2018-07-07T08:43:30.000Z</time>
      </trkpt>
      <trkpt lat="42.5436" lon="2.00596">
        <ele>1944</ele>
        <time>2018-07-07T08:43:32.000Z</time>
      </trkpt>
      <trkpt lat="42.54357" lon="2.00598">
        <ele>1944</ele>
        <time>2018-07-07T08:43:34.000Z</time>
      </trkpt>
      <trkpt lat="42.54355" lon="2.006">
        <ele>1944</ele>
        <time>2018-07-07T08:43:36.000Z</time>
      </trkpt>
      <trkpt lat="42.54353" lon="2.00601">
        <ele>1944</ele>
        <time>2018-07-07T08:43:38.000Z</time>
      </trkpt>
      <trkpt lat="42.54351" lon="2.00603">
        <ele>1944</ele>
        <time>2018-07-07T08:43:40.000Z</time>
      </trkpt>
      <trkpt lat="42.54349" lon="2.00604">
        <ele>1944</ele>
        <time>2018-07-07T08:43:42.000Z</time>
      </trkpt>
      <trkpt lat="42.54347" lon="2.00606">
        <ele>1944</ele>
        <time>2018-07-07T08:43:44.000Z</time>
      </trkpt>
      <trkpt lat="42.54345" lon="2.00608">
        <ele>1944</ele>
        <time>2018-07-07T08:43:46.000Z</time>
      </trkpt>
      <trkpt lat="42.54342" lon="2.00609">
        <ele>1944</ele>
        <time>2018-07-07T08:43:48.000Z</time>
      </trkpt>
      <trkpt lat="42.54339" lon="2.0061">
        <ele>1944</ele>
        <time>2018-07-07T08:43:50.000Z</time>
      </trkpt>
      <trkpt lat="42.54336" lon="2.0061">
        <ele>1944</ele>
        <time>2018-07-07T08:43:52.000Z</time>
      </trkpt>
      <trkpt lat="42.54333" lon="2.00609">
        <ele>1943</ele>
        <time>2018-07-07T08:43:54.000Z</time>
      </trkpt>
      <trkpt lat="42.5433" lon="2.00608">
        <ele>1943</ele>
        <time>2018-07-07T08:43:56.000Z</time>
      </trkpt>
      <trkpt lat="42.54327" lon="2.00606">
        <ele>1943</ele>
        <time>2018-07-07T08:43:58.000Z</time>
      </trkpt>
      <trkpt lat="42.54325" lon="2.00604">
        <ele>1942</ele>
        <time>2018-07-07T08:44:00.000Z</time>
      </trkpt>
      <trkpt lat="42.54324" lon="2.00602">
        <ele>1942</ele>
        <time>2018-07-07T08:44:02.000Z</time>
      </trkpt>
      <trkpt lat="42.54325" lon="2.006">
        <ele>1942</ele>
        <time>2018-07-07T08:44:12.000Z</time>
      </trkpt>
      <trkpt lat="42.54325" lon="2.00603">
        <ele>1942</ele>
        <time>2018-07-07T08:44:33.000Z</time>
      </trkpt>
      <trkpt lat="42.54326" lon="2.00607">
        <ele>1943</ele>
        <time>2018-07-07T08:44:35.000Z</time>
      </trkpt>
      <trkpt lat="42.54326" lon="2.00611">
        <ele>1943</ele>
        <time>2018-07-07T08:44:37.000Z</time>
      </trkpt>
      <trkpt lat="42.54326" lon="2.00613">
        <ele>1944</ele>
        <time>2018-07-07T08:44:39.000Z</time>
      </trkpt>
      <trkpt lat="42.54324" lon="2.00615">
        <ele>1944</ele>
        <time>2018-07-07T08:44:41.000Z</time>
      </trkpt>
      <trkpt lat="42.54322" lon="2.00617">
        <ele>1944</ele>
        <time>2018-07-07T08:44:43.000Z</time>
      </trkpt>
      <trkpt lat="42.54319" lon="2.00619">
        <ele>1945</ele>
        <time>2018-07-07T08:44:45.000Z</time>
      </trkpt>
      <trkpt lat="42.54317" lon="2.0062">
        <ele>1945</ele>
        <time>2018-07-07T08:44:47.000Z</time>
      </trkpt>
      <trkpt lat="42.54315" lon="2.00622">
        <ele>1945</ele>
        <time>2018-07-07T08:44:49.000Z</time>
      </trkpt>
      <trkpt lat="42.54313" lon="2.00623">
        <ele>1945</ele>
        <time>2018-07-07T08:44:51.000Z</time>
      </trkpt>
      <trkpt lat="42.54311" lon="2.00625">
        <ele>1946</ele>
        <time>2018-07-07T08:44:53.000Z</time>
      </trkpt>
      <trkpt lat="42.5431" lon="2.00628">
        <ele>1946</ele>
        <time>2018-07-07T08:44:55.000Z</time>
      </trkpt>
      <trkpt lat="42.54309" lon="2.0063">
        <ele>1946</ele>
        <time>2018-07-07T08:44:57.000Z</time>
      </trkpt>
      <trkpt lat="42.54308" lon="2.00632">
        <ele>1946</ele>
        <time>2018-07-07T08:44:59.000Z</time>
      </trkpt>
      <trkpt lat="42.54307" lon="2.00635">
        <ele>1947</ele>
        <time>2018-07-07T08:45:02.000Z</time>
      </trkpt>
      <trkpt lat="42.54306" lon="2.00638">
        <ele>1947</ele>
        <time>2018-07-07T08:45:05.000Z</time>
      </trkpt>
      <trkpt lat="42.54305" lon="2.0064">
        <ele>1947</ele>
        <time>2018-07-07T08:45:07.000Z</time>
      </trkpt>
      <trkpt lat="42.54305" lon="2.00643">
        <ele>1947</ele>
        <time>2018-07-07T08:45:09.000Z</time>
      </trkpt>
      <trkpt lat="42.54305" lon="2.00645">
        <ele>1948</ele>
        <time>2018-07-07T08:45:11.000Z</time>
      </trkpt>
      <trkpt lat="42.54307" lon="2.00648">
        <ele>1948</ele>
        <time>2018-07-07T08:45:13.000Z</time>
      </trkpt>
      <trkpt lat="42.54307" lon="2.0065">
        <ele>1948</ele>
        <time>2018-07-07T08:45:15.000Z</time>
      </trkpt>
      <trkpt lat="42.54308" lon="2.00653">
        <ele>1948</ele>
        <time>2018-07-07T08:45:17.000Z</time>
      </trkpt>
      <trkpt lat="42.54309" lon="2.00656">
        <ele>1948</ele>
        <time>2018-07-07T08:45:20.000Z</time>
      </trkpt>
      <trkpt lat="42.54309" lon="2.00659">
        <ele>1948</ele>
        <time>2018-07-07T08:45:22.000Z</time>
      </trkpt>
      <trkpt lat="42.54308" lon="2.00661">
        <ele>1949</ele>
        <time>2018-07-07T08:45:24.000Z</time>
      </trkpt>
      <trkpt lat="42.54308" lon="2.00664">
        <ele>1949</ele>
        <time>2018-07-07T08:45:26.000Z</time>
      </trkpt>
      <trkpt lat="42.54308" lon="2.00667">
        <ele>1960</ele>
        <time>2018-07-07T08:45:29.000Z</time>
      </trkpt>
      <trkpt lat="42.54307" lon="2.00671">
        <ele>1960</ele>
        <time>2018-07-07T08:45:33.000Z</time>
      </trkpt>
      <trkpt lat="42.54306" lon="2.00674">
        <ele>1960</ele>
        <time>2018-07-07T08:45:35.000Z</time>
      </trkpt>
      <trkpt lat="42.54307" lon="2.00677">
        <ele>1960</ele>
        <time>2018-07-07T08:45:37.000Z</time>
      </trkpt>
      <trkpt lat="42.54308" lon="2.00679">
        <ele>1961</ele>
        <time>2018-07-07T08:45:39.000Z</time>
      </trkpt>
      <trkpt lat="42.54307" lon="2.00682">
        <ele>1961</ele>
        <time>2018-07-07T08:45:41.000Z</time>
      </trkpt>
      <trkpt lat="42.54306" lon="2.00685">
        <ele>1962</ele>
        <time>2018-07-07T08:45:43.000Z</time>
      </trkpt>
      <trkpt lat="42.54304" lon="2.00687">
        <ele>1962</ele>
        <time>2018-07-07T08:45:45.000Z</time>
      </trkpt>
      <trkpt lat="42.54303" lon="2.00689">
        <ele>1962</ele>
        <time>2018-07-07T08:45:48.000Z</time>
      </trkpt>
      <trkpt lat="42.54301" lon="2.0069">
        <ele>1963</ele>
        <time>2018-07-07T08:45:50.000Z</time>
      </trkpt>
      <trkpt lat="42.54298" lon="2.00692">
        <ele>1963</ele>
        <time>2018-07-07T08:45:54.000Z</time>
      </trkpt>
      <trkpt lat="42.54296" lon="2.00694">
        <ele>1964</ele>
        <time>2018-07-07T08:45:57.000Z</time>
      </trkpt>
      <trkpt lat="42.54294" lon="2.00696">
        <ele>1964</ele>
        <time>2018-07-07T08:46:00.000Z</time>
      </trkpt>
      <trkpt lat="42.54292" lon="2.00698">
        <ele>1964</ele>
        <time>2018-07-07T08:46:03.000Z</time>
      </trkpt>
      <trkpt lat="42.5429" lon="2.007">
        <ele>1965</ele>
        <time>2018-07-07T08:46:06.000Z</time>
      </trkpt>
      <trkpt lat="42.54288" lon="2.00701">
        <ele>1965</ele>
        <time>2018-07-07T08:46:08.000Z</time>
      </trkpt>
      <trkpt lat="42.54287" lon="2.00703">
        <ele>1965</ele>
        <time>2018-07-07T08:46:10.000Z</time>
      </trkpt>
      <trkpt lat="42.54287" lon="2.00706">
        <ele>1966</ele>
        <time>2018-07-07T08:46:13.000Z</time>
      </trkpt>
      <trkpt lat="42.54287" lon="2.00709">
        <ele>1966</ele>
        <time>2018-07-07T08:46:16.000Z</time>
      </trkpt>
      <trkpt lat="42.54285" lon="2.00711">
        <ele>1966</ele>
        <time>2018-07-07T08:46:19.000Z</time>
      </trkpt>
      <trkpt lat="42.54284" lon="2.00713">
        <ele>1967</ele>
        <time>2018-07-07T08:46:22.000Z</time>
      </trkpt>
      <trkpt lat="42.54282" lon="2.00715">
        <ele>1967</ele>
        <time>2018-07-07T08:46:25.000Z</time>
      </trkpt>
      <trkpt lat="42.54282" lon="2.00718">
        <ele>1968</ele>
        <time>2018-07-07T08:46:29.000Z</time>
      </trkpt>
      <trkpt lat="42.5428" lon="2.0072">
        <ele>1968</ele>
        <time>2018-07-07T08:46:34.000Z</time>
      </trkpt>
      <trkpt lat="42.54278" lon="2.00721">
        <ele>1968</ele>
        <time>2018-07-07T08:46:38.000Z</time>
      </trkpt>
      <trkpt lat="42.54276" lon="2.00721">
        <ele>1968</ele>
        <time>2018-07-07T08:46:42.000Z</time>
      </trkpt>
      <trkpt lat="42.54274" lon="2.0072">
        <ele>1968</ele>
        <time>2018-07-07T08:46:46.000Z</time>
      </trkpt>
      <trkpt lat="42.54273" lon="2.00723">
        <ele>1969</ele>
        <time>2018-07-07T08:46:53.000Z</time>
      </trkpt>
      <trkpt lat="42.54272" lon="2.00725">
        <ele>1969</ele>
        <time>2018-07-07T08:46:59.000Z</time>
      </trkpt>
      <trkpt lat="42.54271" lon="2.00727">
        <ele>1970</ele>
        <time>2018-07-07T08:47:03.000Z</time>
      </trkpt>
      <trkpt lat="42.54269" lon="2.00727">
        <ele>1970</ele>
        <time>2018-07-07T08:47:06.000Z</time>
      </trkpt>
      <trkpt lat="42.54268" lon="2.0073">
        <ele>1971</ele>
        <time>2018-07-07T08:47:10.000Z</time>
      </trkpt>
      <trkpt lat="42.54267" lon="2.00733">
        <ele>1971</ele>
        <time>2018-07-07T08:47:15.000Z</time>
      </trkpt>
      <trkpt lat="42.54265" lon="2.00735">
        <ele>1972</ele>
        <time>2018-07-07T08:47:17.000Z</time>
      </trkpt>
      <trkpt lat="42.54264" lon="2.00737">
        <ele>1973</ele>
        <time>2018-07-07T08:47:26.000Z</time>
      </trkpt>
      <trkpt lat="42.54263" lon="2.00738">
        <ele>1973</ele>
        <time>2018-07-07T08:47:29.000Z</time>
      </trkpt>
      <trkpt lat="42.54263" lon="2.00741">
        <ele>1974</ele>
        <time>2018-07-07T08:47:34.000Z</time>
      </trkpt>
      <trkpt lat="42.54261" lon="2.00743">
        <ele>1975</ele>
        <time>2018-07-07T08:47:39.000Z</time>
      </trkpt>
      <trkpt lat="42.54261" lon="2.00746">
        <ele>1975</ele>
        <time>2018-07-07T08:47:42.000Z</time>
      </trkpt>
      <trkpt lat="42.5426" lon="2.00749">
        <ele>1976</ele>
        <time>2018-07-07T08:47:45.000Z</time>
      </trkpt>
      <trkpt lat="42.5426" lon="2.00751">
        <ele>1983</ele>
        <time>2018-07-07T08:47:49.000Z</time>
      </trkpt>
      <trkpt lat="42.54259" lon="2.00754">
        <ele>1983</ele>
        <time>2018-07-07T08:47:52.000Z</time>
      </trkpt>
      <trkpt lat="42.54258" lon="2.00756">
        <ele>1984</ele>
        <time>2018-07-07T08:47:55.000Z</time>
      </trkpt>
      <trkpt lat="42.54256" lon="2.00756">
        <ele>1983</ele>
        <time>2018-07-07T08:47:59.000Z</time>
      </trkpt>
      <trkpt lat="42.54255" lon="2.00759">
        <ele>1984</ele>
        <time>2018-07-07T08:48:07.000Z</time>
      </trkpt>
      <trkpt lat="42.54254" lon="2.00761">
        <ele>1984</ele>
        <time>2018-07-07T08:48:11.000Z</time>
      </trkpt>
      <trkpt lat="42.54253" lon="2.00763">
        <ele>1984</ele>
        <time>2018-07-07T08:48:15.000Z</time>
      </trkpt>
      <trkpt lat="42.5425" lon="2.00763">
        <ele>1985</ele>
        <time>2018-07-07T08:48:18.000Z</time>
      </trkpt>
      <trkpt lat="42.54249" lon="2.00764">
        <ele>1990</ele>
        <time>2018-07-07T08:48:20.000Z</time>
      </trkpt>
      <trkpt lat="42.54247" lon="2.00764">
        <ele>1990</ele>
        <time>2018-07-07T08:48:23.000Z</time>
      </trkpt>
      <trkpt lat="42.54245" lon="2.00767">
        <ele>1991</ele>
        <time>2018-07-07T08:48:31.000Z</time>
      </trkpt>
      <trkpt lat="42.54243" lon="2.00772">
        <ele>1994</ele>
        <time>2018-07-07T08:48:38.000Z</time>
      </trkpt>
      <trkpt lat="42.54241" lon="2.00774">
        <ele>1994</ele>
        <time>2018-07-07T08:48:43.000Z</time>
      </trkpt>
      <trkpt lat="42.54239" lon="2.00773">
        <ele>1994</ele>
        <time>2018-07-07T08:48:54.000Z</time>
      </trkpt>
      <trkpt lat="42.54238" lon="2.00774">
        <ele>1995</ele>
        <time>2018-07-07T08:48:56.000Z</time>
      </trkpt>
      <trkpt lat="42.54237" lon="2.00776">
        <ele>1996</ele>
        <time>2018-07-07T08:48:58.000Z</time>
      </trkpt>
      <trkpt lat="42.54236" lon="2.00779">
        <ele>1997</ele>
        <time>2018-07-07T08:49:04.000Z</time>
      </trkpt>
      <trkpt lat="42.54235" lon="2.00781">
        <ele>1997</ele>
        <time>2018-07-07T08:49:07.000Z</time>
      </trkpt>
      <trkpt lat="42.54233" lon="2.00783">
        <ele>1998</ele>
        <time>2018-07-07T08:49:10.000Z</time>
      </trkpt>
      <trkpt lat="42.5423" lon="2.00787">
        <ele>1999</ele>
        <time>2018-07-07T08:49:18.000Z</time>
      </trkpt>
      <trkpt lat="42.54223" lon="2.00792">
        <ele>2001</ele>
        <time>2018-07-07T08:49:26.000Z</time>
      </trkpt>
      <trkpt lat="42.5422" lon="2.00793">
        <ele>2001</ele>
        <time>2018-07-07T08:49:31.000Z</time>
      </trkpt>
      <trkpt lat="42.54218" lon="2.00793">
        <ele>2001</ele>
        <time>2018-07-07T08:49:37.000Z</time>
      </trkpt>
      <trkpt lat="42.54214" lon="2.00804">
        <ele>2003</ele>
        <time>2018-07-07T08:49:47.000Z</time>
      </trkpt>
      <trkpt lat="42.54214" lon="2.00806">
        <ele>2003</ele>
        <time>2018-07-07T08:49:52.000Z</time>
      </trkpt>
      <trkpt lat="42.5421" lon="2.00807">
        <ele>2004</ele>
        <time>2018-07-07T08:50:00.000Z</time>
      </trkpt>
      <trkpt lat="42.5421" lon="2.00809">
        <ele>2004</ele>
        <time>2018-07-07T08:50:04.000Z</time>
      </trkpt>
      <trkpt lat="42.5421" lon="2.00812">
        <ele>2005</ele>
        <time>2018-07-07T08:50:09.000Z</time>
      </trkpt>
      <trkpt lat="42.54209" lon="2.00814">
        <ele>2005</ele>
        <time>2018-07-07T08:50:13.000Z</time>
      </trkpt>
      <trkpt lat="42.542" lon="2.00822">
        <ele>2007</ele>
        <time>2018-07-07T08:50:28.000Z</time>
      </trkpt>
      <trkpt lat="42.54198" lon="2.00823">
        <ele>2008</ele>
        <time>2018-07-07T08:50:30.000Z</time>
      </trkpt>
      <trkpt lat="42.54196" lon="2.00824">
        <ele>2009</ele>
        <time>2018-07-07T08:50:35.000Z</time>
      </trkpt>
      <trkpt lat="42.54195" lon="2.00832">
        <ele>2010</ele>
        <time>2018-07-07T08:50:45.000Z</time>
      </trkpt>
      <trkpt lat="42.54192" lon="2.00834">
        <ele>2021</ele>
        <time>2018-07-07T08:50:48.000Z</time>
      </trkpt>
      <trkpt lat="42.5419" lon="2.00835">
        <ele>2022</ele>
        <time>2018-07-07T08:50:51.000Z</time>
      </trkpt>
      <trkpt lat="42.54188" lon="2.00837">
        <ele>2022</ele>
        <time>2018-07-07T08:50:55.000Z</time>
      </trkpt>
      <trkpt lat="42.54186" lon="2.00839">
        <ele>2022</ele>
        <time>2018-07-07T08:50:58.000Z</time>
      </trkpt>
      <trkpt lat="42.54184" lon="2.00842">
        <ele>2022</ele>
        <time>2018-07-07T08:51:01.000Z</time>
      </trkpt>
      <trkpt lat="42.54183" lon="2.00846">
        <ele>2023</ele>
        <time>2018-07-07T08:51:06.000Z</time>
      </trkpt>
      <trkpt lat="42.54182" lon="2.00849">
        <ele>2023</ele>
        <time>2018-07-07T08:51:11.000Z</time>
      </trkpt>
      <trkpt lat="42.54181" lon="2.00853">
        <ele>2023</ele>
        <time>2018-07-07T08:51:17.000Z</time>
      </trkpt>
      <trkpt lat="42.54179" lon="2.00855">
        <ele>2023</ele>
        <time>2018-07-07T08:51:21.000Z</time>
      </trkpt>
      <trkpt lat="42.54176" lon="2.00856">
        <ele>2023</ele>
        <time>2018-07-07T08:51:25.000Z</time>
      </trkpt>
      <trkpt lat="42.54174" lon="2.00857">
        <ele>2023</ele>
        <time>2018-07-07T08:51:29.000Z</time>
      </trkpt>
      <trkpt lat="42.54164" lon="2.00859">
        <ele>2034</ele>
        <time>2018-07-07T08:51:37.000Z</time>
      </trkpt>
      <trkpt lat="42.54163" lon="2.00864">
        <ele>2035</ele>
        <time>2018-07-07T08:51:41.000Z</time>
      </trkpt>
      <trkpt lat="42.54162" lon="2.00866">
        <ele>2035</ele>
        <time>2018-07-07T08:51:43.000Z</time>
      </trkpt>
      <trkpt lat="42.54161" lon="2.00869">
        <ele>2036</ele>
        <time>2018-07-07T08:51:45.000Z</time>
      </trkpt>
      <trkpt lat="42.54159" lon="2.0087">
        <ele>2036</ele>
        <time>2018-07-07T08:51:47.000Z</time>
      </trkpt>
      <trkpt lat="42.54157" lon="2.0087">
        <ele>2036</ele>
        <time>2018-07-07T08:51:49.000Z</time>
      </trkpt>
      <trkpt lat="42.54154" lon="2.0087">
        <ele>2036</ele>
        <time>2018-07-07T08:51:55.000Z</time>
      </trkpt>
      <trkpt lat="42.54153" lon="2.0087">
        <ele>2037</ele>
        <time>2018-07-07T08:51:57.000Z</time>
      </trkpt>
      <trkpt lat="42.5415" lon="2.00872">
        <ele>2037</ele>
        <time>2018-07-07T08:52:01.000Z</time>
      </trkpt>
      <trkpt lat="42.54148" lon="2.00872">
        <ele>2037</ele>
        <time>2018-07-07T08:52:03.000Z</time>
      </trkpt>
      <trkpt lat="42.54145" lon="2.00872">
        <ele>2037</ele>
        <time>2018-07-07T08:52:05.000Z</time>
      </trkpt>
      <trkpt lat="42.54142" lon="2.00871">
        <ele>2038</ele>
        <time>2018-07-07T08:52:07.000Z</time>
      </trkpt>
      <trkpt lat="42.5414" lon="2.00872">
        <ele>2038</ele>
        <time>2018-07-07T08:52:09.000Z</time>
      </trkpt>
      <trkpt lat="42.54138" lon="2.00874">
        <ele>2038</ele>
        <time>2018-07-07T08:52:11.000Z</time>
      </trkpt>
      <trkpt lat="42.54136" lon="2.00876">
        <ele>2039</ele>
        <time>2018-07-07T08:52:13.000Z</time>
      </trkpt>
      <trkpt lat="42.54134" lon="2.00876">
        <ele>2039</ele>
        <time>2018-07-07T08:52:16.000Z</time>
      </trkpt>
      <trkpt lat="42.54132" lon="2.00877">
        <ele>2039</ele>
        <time>2018-07-07T08:52:19.000Z</time>
      </trkpt>
      <trkpt lat="42.5413" lon="2.00878">
        <ele>2040</ele>
        <time>2018-07-07T08:52:21.000Z</time>
      </trkpt>
      <trkpt lat="42.54127" lon="2.00878">
        <ele>2040</ele>
        <time>2018-07-07T08:52:23.000Z</time>
      </trkpt>
      <trkpt lat="42.54125" lon="2.00878">
        <ele>2040</ele>
        <time>2018-07-07T08:52:25.000Z</time>
      </trkpt>
      <trkpt lat="42.54124" lon="2.00879">
        <ele>2040</ele>
        <time>2018-07-07T08:52:28.000Z</time>
      </trkpt>
      <trkpt lat="42.54122" lon="2.00881">
        <ele>2041</ele>
        <time>2018-07-07T08:52:31.000Z</time>
      </trkpt>
      <trkpt lat="42.5412" lon="2.0088">
        <ele>2041</ele>
        <time>2018-07-07T08:52:34.000Z</time>
      </trkpt>
      <trkpt lat="42.54118" lon="2.00885">
        <ele>2041</ele>
        <time>2018-07-07T08:52:41.000Z</time>
      </trkpt>
      <trkpt lat="42.54117" lon="2.00887">
        <ele>2042</ele>
        <time>2018-07-07T08:52:43.000Z</time>
      </trkpt>
      <trkpt lat="42.54114" lon="2.00889">
        <ele>2042</ele>
        <time>2018-07-07T08:52:47.000Z</time>
      </trkpt>
      <trkpt lat="42.54112" lon="2.00887">
        <ele>2042</ele>
        <time>2018-07-07T08:52:49.000Z</time>
      </trkpt>
      <trkpt lat="42.5411" lon="2.00887">
        <ele>2043</ele>
        <time>2018-07-07T08:52:51.000Z</time>
      </trkpt>
      <trkpt lat="42.54102" lon="2.00889">
        <ele>2044</ele>
        <time>2018-07-07T08:52:59.000Z</time>
      </trkpt>
      <trkpt lat="42.541" lon="2.0089">
        <ele>2044</ele>
        <time>2018-07-07T08:53:01.000Z</time>
      </trkpt>
      <trkpt lat="42.54098" lon="2.00891">
        <ele>2045</ele>
        <time>2018-07-07T08:53:03.000Z</time>
      </trkpt>
      <trkpt lat="42.54096" lon="2.00893">
        <ele>2045</ele>
        <time>2018-07-07T08:53:05.000Z</time>
      </trkpt>
      <trkpt lat="42.54094" lon="2.00895">
        <ele>2046</ele>
        <time>2018-07-07T08:53:08.000Z</time>
      </trkpt>
      <trkpt lat="42.54093" lon="2.00897">
        <ele>2047</ele>
        <time>2018-07-07T08:53:10.000Z</time>
      </trkpt>
      <trkpt lat="42.5409" lon="2.00899">
        <ele>2047</ele>
        <time>2018-07-07T08:53:12.000Z</time>
      </trkpt>
      <trkpt lat="42.54089" lon="2.00901">
        <ele>2048</ele>
        <time>2018-07-07T08:53:14.000Z</time>
      </trkpt>
      <trkpt lat="42.54088" lon="2.00904">
        <ele>2049</ele>
        <time>2018-07-07T08:53:16.000Z</time>
      </trkpt>
      <trkpt lat="42.54088" lon="2.00906">
        <ele>2050</ele>
        <time>2018-07-07T08:53:18.000Z</time>
      </trkpt>
      <trkpt lat="42.54087" lon="2.00909">
        <ele>2051</ele>
        <time>2018-07-07T08:53:20.000Z</time>
      </trkpt>
      <trkpt lat="42.54086" lon="2.00912">
        <ele>2053</ele>
        <time>2018-07-07T08:53:23.000Z</time>
      </trkpt>
      <trkpt lat="42.54085" lon="2.00914">
        <ele>2054</ele>
        <time>2018-07-07T08:53:25.000Z</time>
      </trkpt>
      <trkpt lat="42.54084" lon="2.00917">
        <ele>2056</ele>
        <time>2018-07-07T08:53:28.000Z</time>
      </trkpt>
      <trkpt lat="42.54084" lon="2.0092">
        <ele>2055</ele>
        <time>2018-07-07T08:53:30.000Z</time>
      </trkpt>
      <trkpt lat="42.54082" lon="2.00922">
        <ele>2059</ele>
        <time>2018-07-07T08:53:32.000Z</time>
      </trkpt>
      <trkpt lat="42.54082" lon="2.00925">
        <ele>2060</ele>
        <time>2018-07-07T08:53:34.000Z</time>
      </trkpt>
      <trkpt lat="42.54081" lon="2.00928">
        <ele>2061</ele>
        <time>2018-07-07T08:53:36.000Z</time>
      </trkpt>
      <trkpt lat="42.5408" lon="2.00931">
        <ele>2061</ele>
        <time>2018-07-07T08:53:38.000Z</time>
      </trkpt>
      <trkpt lat="42.54079" lon="2.00933">
        <ele>2062</ele>
        <time>2018-07-07T08:53:40.000Z</time>
      </trkpt>
      <trkpt lat="42.54078" lon="2.00935">
        <ele>2063</ele>
        <time>2018-07-07T08:53:42.000Z</time>
      </trkpt>
      <trkpt lat="42.54077" lon="2.00938">
        <ele>2063</ele>
        <time>2018-07-07T08:53:44.000Z</time>
      </trkpt>
      <trkpt lat="42.54076" lon="2.0094">
        <ele>2064</ele>
        <time>2018-07-07T08:53:46.000Z</time>
      </trkpt>
      <trkpt lat="42.54075" lon="2.00943">
        <ele>2064</ele>
        <time>2018-07-07T08:53:51.000Z</time>
      </trkpt>
      <trkpt lat="42.54074" lon="2.00945">
        <ele>2064</ele>
        <time>2018-07-07T08:53:53.000Z</time>
      </trkpt>
      <trkpt lat="42.54074" lon="2.00948">
        <ele>2065</ele>
        <time>2018-07-07T08:53:55.000Z</time>
      </trkpt>
      <trkpt lat="42.54073" lon="2.0095">
        <ele>2065</ele>
        <time>2018-07-07T08:53:57.000Z</time>
      </trkpt>
      <trkpt lat="42.54072" lon="2.00953">
        <ele>2065</ele>
        <time>2018-07-07T08:53:59.000Z</time>
      </trkpt>
      <trkpt lat="42.54071" lon="2.00956">
        <ele>2066</ele>
        <time>2018-07-07T08:54:01.000Z</time>
      </trkpt>
      <trkpt lat="42.5407" lon="2.00958">
        <ele>2066</ele>
        <time>2018-07-07T08:54:03.000Z</time>
      </trkpt>
      <trkpt lat="42.54068" lon="2.00961">
        <ele>2066</ele>
        <time>2018-07-07T08:54:05.000Z</time>
      </trkpt>
      <trkpt lat="42.54067" lon="2.00964">
        <ele>2066</ele>
        <time>2018-07-07T08:54:07.000Z</time>
      </trkpt>
      <trkpt lat="42.54065" lon="2.00967">
        <ele>2067</ele>
        <time>2018-07-07T08:54:09.000Z</time>
      </trkpt>
      <trkpt lat="42.54064" lon="2.00969">
        <ele>2067</ele>
        <time>2018-07-07T08:54:11.000Z</time>
      </trkpt>
      <trkpt lat="42.54062" lon="2.00972">
        <ele>2067</ele>
        <time>2018-07-07T08:54:13.000Z</time>
      </trkpt>
      <trkpt lat="42.54061" lon="2.00975">
        <ele>2067</ele>
        <time>2018-07-07T08:54:15.000Z</time>
      </trkpt>
      <trkpt lat="42.54059" lon="2.00978">
        <ele>2067</ele>
        <time>2018-07-07T08:54:17.000Z</time>
      </trkpt>
      <trkpt lat="42.54058" lon="2.00981">
        <ele>2067</ele>
        <time>2018-07-07T08:54:19.000Z</time>
      </trkpt>
      <trkpt lat="42.54057" lon="2.00984">
        <ele>2068</ele>
        <time>2018-07-07T08:54:21.000Z</time>
      </trkpt>
      <trkpt lat="42.54055" lon="2.00986">
        <ele>2068</ele>
        <time>2018-07-07T08:54:23.000Z</time>
      </trkpt>
      <trkpt lat="42.54054" lon="2.00989">
        <ele>2068</ele>
        <time>2018-07-07T08:54:26.000Z</time>
      </trkpt>
      <trkpt lat="42.54053" lon="2.00991">
        <ele>2068</ele>
        <time>2018-07-07T08:54:28.000Z</time>
      </trkpt>
      <trkpt lat="42.54052" lon="2.00994">
        <ele>2068</ele>
        <time>2018-07-07T08:54:30.000Z</time>
      </trkpt>
      <trkpt lat="42.5405" lon="2.00996">
        <ele>2069</ele>
        <time>2018-07-07T08:54:32.000Z</time>
      </trkpt>
      <trkpt lat="42.54049" lon="2.00999">
        <ele>2069</ele>
        <time>2018-07-07T08:54:34.000Z</time>
      </trkpt>
      <trkpt lat="42.54048" lon="2.01001">
        <ele>2073</ele>
        <time>2018-07-07T08:54:36.000Z</time>
      </trkpt>
      <trkpt lat="42.54047" lon="2.01003">
        <ele>2073</ele>
        <time>2018-07-07T08:54:38.000Z</time>
      </trkpt>
      <trkpt lat="42.54046" lon="2.01006">
        <ele>2073</ele>
        <time>2018-07-07T08:54:40.000Z</time>
      </trkpt>
      <trkpt lat="42.54046" lon="2.01009">
        <ele>2073</ele>
        <time>2018-07-07T08:54:42.000Z</time>
      </trkpt>
      <trkpt lat="42.54045" lon="2.01013">
        <ele>2073</ele>
        <time>2018-07-07T08:54:44.000Z</time>
      </trkpt>
      <trkpt lat="42.54044" lon="2.01015">
        <ele>2074</ele>
        <time>2018-07-07T08:54:46.000Z</time>
      </trkpt>
      <trkpt lat="42.54041" lon="2.01018">
        <ele>2074</ele>
        <time>2018-07-07T08:54:48.000Z</time>
      </trkpt>
      <trkpt lat="42.5404" lon="2.01019">
        <ele>2074</ele>
        <time>2018-07-07T08:54:50.000Z</time>
      </trkpt>
      <trkpt lat="42.54037" lon="2.01021">
        <ele>2075</ele>
        <time>2018-07-07T08:54:52.000Z</time>
      </trkpt>
      <trkpt lat="42.54036" lon="2.01023">
        <ele>2075</ele>
        <time>2018-07-07T08:54:54.000Z</time>
      </trkpt>
      <trkpt lat="42.54034" lon="2.01026">
        <ele>2075</ele>
        <time>2018-07-07T08:54:56.000Z</time>
      </trkpt>
      <trkpt lat="42.54032" lon="2.01028">
        <ele>2075</ele>
        <time>2018-07-07T08:54:58.000Z</time>
      </trkpt>
      <trkpt lat="42.54032" lon="2.01031">
        <ele>2076</ele>
        <time>2018-07-07T08:55:00.000Z</time>
      </trkpt>
      <trkpt lat="42.5403" lon="2.01034">
        <ele>2076</ele>
        <time>2018-07-07T08:55:02.000Z</time>
      </trkpt>
      <trkpt lat="42.54028" lon="2.01034">
        <ele>2076</ele>
        <time>2018-07-07T08:55:04.000Z</time>
      </trkpt>
      <trkpt lat="42.54026" lon="2.01035">
        <ele>2076</ele>
        <time>2018-07-07T08:55:06.000Z</time>
      </trkpt>
      <trkpt lat="42.54024" lon="2.01036">
        <ele>2076</ele>
        <time>2018-07-07T08:55:08.000Z</time>
      </trkpt>
      <trkpt lat="42.54023" lon="2.01039">
        <ele>2077</ele>
        <time>2018-07-07T08:55:11.000Z</time>
      </trkpt>
      <trkpt lat="42.54023" lon="2.01042">
        <ele>2077</ele>
        <time>2018-07-07T08:55:13.000Z</time>
      </trkpt>
      <trkpt lat="42.54021" lon="2.01043">
        <ele>2077</ele>
        <time>2018-07-07T08:55:15.000Z</time>
      </trkpt>
      <trkpt lat="42.54019" lon="2.01045">
        <ele>2077</ele>
        <time>2018-07-07T08:55:18.000Z</time>
      </trkpt>
      <trkpt lat="42.54018" lon="2.01047">
        <ele>2077</ele>
        <time>2018-07-07T08:55:20.000Z</time>
      </trkpt>
      <trkpt lat="42.54017" lon="2.01049">
        <ele>2078</ele>
        <time>2018-07-07T08:55:22.000Z</time>
      </trkpt>
      <trkpt lat="42.54015" lon="2.01052">
        <ele>2078</ele>
        <time>2018-07-07T08:55:25.000Z</time>
      </trkpt>
      <trkpt lat="42.54015" lon="2.01054">
        <ele>2078</ele>
        <time>2018-07-07T08:55:30.000Z</time>
      </trkpt>
      <trkpt lat="42.54013" lon="2.01056">
        <ele>2079</ele>
        <time>2018-07-07T08:55:35.000Z</time>
      </trkpt>
      <trkpt lat="42.54012" lon="2.01058">
        <ele>2079</ele>
        <time>2018-07-07T08:55:37.000Z</time>
      </trkpt>
      <trkpt lat="42.5401" lon="2.0106">
        <ele>2079</ele>
        <time>2018-07-07T08:55:40.000Z</time>
      </trkpt>
      <trkpt lat="42.54008" lon="2.01062">
        <ele>2080</ele>
        <time>2018-07-07T08:55:42.000Z</time>
      </trkpt>
      <trkpt lat="42.54007" lon="2.01064">
        <ele>2080</ele>
        <time>2018-07-07T08:55:44.000Z</time>
      </trkpt>
      <trkpt lat="42.54005" lon="2.01065">
        <ele>2081</ele>
        <time>2018-07-07T08:55:46.000Z</time>
      </trkpt>
      <trkpt lat="42.54003" lon="2.01066">
        <ele>2081</ele>
        <time>2018-07-07T08:55:49.000Z</time>
      </trkpt>
      <trkpt lat="42.54001" lon="2.01067">
        <ele>2081</ele>
        <time>2018-07-07T08:55:51.000Z</time>
      </trkpt>
      <trkpt lat="42.53999" lon="2.01069">
        <ele>2092</ele>
        <time>2018-07-07T08:55:54.000Z</time>
      </trkpt>
      <trkpt lat="42.53997" lon="2.01071">
        <ele>2092</ele>
        <time>2018-07-07T08:55:57.000Z</time>
      </trkpt>
      <trkpt lat="42.53996" lon="2.01073">
        <ele>2091</ele>
        <time>2018-07-07T08:56:01.000Z</time>
      </trkpt>
      <trkpt lat="42.53994" lon="2.01075">
        <ele>2091</ele>
        <time>2018-07-07T08:56:04.000Z</time>
      </trkpt>
      <trkpt lat="42.53993" lon="2.01078">
        <ele>2091</ele>
        <time>2018-07-07T08:56:08.000Z</time>
      </trkpt>
      <trkpt lat="42.53992" lon="2.0108">
        <ele>2091</ele>
        <time>2018-07-07T08:56:14.000Z</time>
      </trkpt>
      <trkpt lat="42.5399" lon="2.01083">
        <ele>2091</ele>
        <time>2018-07-07T08:56:18.000Z</time>
      </trkpt>
      <trkpt lat="42.53989" lon="2.01084">
        <ele>2094</ele>
        <time>2018-07-07T08:56:21.000Z</time>
      </trkpt>
      <trkpt lat="42.53987" lon="2.01087">
        <ele>2095</ele>
        <time>2018-07-07T08:56:26.000Z</time>
      </trkpt>
      <trkpt lat="42.53986" lon="2.01089">
        <ele>2096</ele>
        <time>2018-07-07T08:56:32.000Z</time>
      </trkpt>
      <trkpt lat="42.53984" lon="2.0109">
        <ele>2097</ele>
        <time>2018-07-07T08:56:36.000Z</time>
      </trkpt>
      <trkpt lat="42.53983" lon="2.01093">
        <ele>2097</ele>
        <time>2018-07-07T08:56:39.000Z</time>
      </trkpt>
      <trkpt lat="42.53982" lon="2.01096">
        <ele>2098</ele>
        <time>2018-07-07T08:56:42.000Z</time>
      </trkpt>
      <trkpt lat="42.53981" lon="2.01098">
        <ele>2099</ele>
        <time>2018-07-07T08:56:45.000Z</time>
      </trkpt>
      <trkpt lat="42.53979" lon="2.01099">
        <ele>2099</ele>
        <time>2018-07-07T08:56:48.000Z</time>
      </trkpt>
      <trkpt lat="42.53978" lon="2.01102">
        <ele>2100</ele>
        <time>2018-07-07T08:56:52.000Z</time>
      </trkpt>
      <trkpt lat="42.53976" lon="2.01104">
        <ele>2101</ele>
        <time>2018-07-07T08:56:55.000Z</time>
      </trkpt>
      <trkpt lat="42.53974" lon="2.01106">
        <ele>2101</ele>
        <time>2018-07-07T08:56:59.000Z</time>
      </trkpt>
      <trkpt lat="42.53973" lon="2.01108">
        <ele>2102</ele>
        <time>2018-07-07T08:57:02.000Z</time>
      </trkpt>
      <trkpt lat="42.53972" lon="2.01109">
        <ele>2102</ele>
        <time>2018-07-07T08:57:06.000Z</time>
      </trkpt>
      <trkpt lat="42.5397" lon="2.01112">
        <ele>2103</ele>
        <time>2018-07-07T08:57:10.000Z</time>
      </trkpt>
      <trkpt lat="42.53969" lon="2.01113">
        <ele>2103</ele>
        <time>2018-07-07T08:57:14.000Z</time>
      </trkpt>
      <trkpt lat="42.53967" lon="2.01116">
        <ele>2104</ele>
        <time>2018-07-07T08:57:17.000Z</time>
      </trkpt>
      <trkpt lat="42.53965" lon="2.01119">
        <ele>2104</ele>
        <time>2018-07-07T08:57:21.000Z</time>
      </trkpt>
      <trkpt lat="42.53963" lon="2.01121">
        <ele>2104</ele>
        <time>2018-07-07T08:57:23.000Z</time>
      </trkpt>
      <trkpt lat="42.53961" lon="2.01122">
        <ele>2105</ele>
        <time>2018-07-07T08:57:26.000Z</time>
      </trkpt>
      <trkpt lat="42.53959" lon="2.01124">
        <ele>2105</ele>
        <time>2018-07-07T08:57:29.000Z</time>
      </trkpt>
      <trkpt lat="42.53958" lon="2.01126">
        <ele>2106</ele>
        <time>2018-07-07T08:57:32.000Z</time>
      </trkpt>
      <trkpt lat="42.53957" lon="2.01128">
        <ele>2106</ele>
        <time>2018-07-07T08:57:36.000Z</time>
      </trkpt>
      <trkpt lat="42.53956" lon="2.0113">
        <ele>2106</ele>
        <time>2018-07-07T08:57:41.000Z</time>
      </trkpt>
      <trkpt lat="42.53955" lon="2.01132">
        <ele>2106</ele>
        <time>2018-07-07T08:57:44.000Z</time>
      </trkpt>
      <trkpt lat="42.53953" lon="2.01134">
        <ele>2107</ele>
        <time>2018-07-07T08:57:48.000Z</time>
      </trkpt>
      <trkpt lat="42.53951" lon="2.01135">
        <ele>2107</ele>
        <time>2018-07-07T08:57:51.000Z</time>
      </trkpt>
      <trkpt lat="42.53949" lon="2.01137">
        <ele>2108</ele>
        <time>2018-07-07T08:57:54.000Z</time>
      </trkpt>
      <trkpt lat="42.53947" lon="2.01138">
        <ele>2108</ele>
        <time>2018-07-07T08:57:58.000Z</time>
      </trkpt>
      <trkpt lat="42.53945" lon="2.01138">
        <ele>2109</ele>
        <time>2018-07-07T08:58:01.000Z</time>
      </trkpt>
      <trkpt lat="42.53943" lon="2.01138">
        <ele>2109</ele>
        <time>2018-07-07T08:58:04.000Z</time>
      </trkpt>
      <trkpt lat="42.53942" lon="2.01139">
        <ele>2109</ele>
        <time>2018-07-07T08:58:06.000Z</time>
      </trkpt>
      <trkpt lat="42.53939" lon="2.01141">
        <ele>2110</ele>
        <time>2018-07-07T08:58:09.000Z</time>
      </trkpt>
      <trkpt lat="42.53938" lon="2.01142">
        <ele>2111</ele>
        <time>2018-07-07T08:58:12.000Z</time>
      </trkpt>
      <trkpt lat="42.53935" lon="2.01142">
        <ele>2111</ele>
        <time>2018-07-07T08:58:15.000Z</time>
      </trkpt>
      <trkpt lat="42.53933" lon="2.01142">
        <ele>2111</ele>
        <time>2018-07-07T08:58:18.000Z</time>
      </trkpt>
      <trkpt lat="42.5393" lon="2.01142">
        <ele>2112</ele>
        <time>2018-07-07T08:58:21.000Z</time>
      </trkpt>
      <trkpt lat="42.53928" lon="2.01142">
        <ele>2112</ele>
        <time>2018-07-07T08:58:23.000Z</time>
      </trkpt>
      <trkpt lat="42.53926" lon="2.01142">
        <ele>2113</ele>
        <time>2018-07-07T08:58:26.000Z</time>
      </trkpt>
      <trkpt lat="42.53927" lon="2.01145">
        <ele>2113</ele>
        <time>2018-07-07T08:58:31.000Z</time>
      </trkpt>
      <trkpt lat="42.53925" lon="2.01147">
        <ele>2114</ele>
        <time>2018-07-07T08:58:41.000Z</time>
      </trkpt>
      <trkpt lat="42.53916" lon="2.01152">
        <ele>2127</ele>
        <time>2018-07-07T08:58:54.000Z</time>
      </trkpt>
      <trkpt lat="42.53907" lon="2.01152">
        <ele>2128</ele>
        <time>2018-07-07T08:58:59.000Z</time>
      </trkpt>
      <trkpt lat="42.53905" lon="2.01152">
        <ele>2128</ele>
        <time>2018-07-07T08:59:02.000Z</time>
      </trkpt>
      <trkpt lat="42.53902" lon="2.01151">
        <ele>2128</ele>
        <time>2018-07-07T08:59:04.000Z</time>
      </trkpt>
      <trkpt lat="42.53901" lon="2.0115">
        <ele>2129</ele>
        <time>2018-07-07T08:59:05.000Z</time>
      </trkpt>
      <trkpt lat="42.53898" lon="2.01149">
        <ele>2129</ele>
        <time>2018-07-07T08:59:07.000Z</time>
      </trkpt>
      <trkpt lat="42.53895" lon="2.0115">
        <ele>2129</ele>
        <time>2018-07-07T08:59:09.000Z</time>
      </trkpt>
      <trkpt lat="42.53893" lon="2.0115">
        <ele>2130</ele>
        <time>2018-07-07T08:59:11.000Z</time>
      </trkpt>
      <trkpt lat="42.53891" lon="2.01149">
        <ele>2130</ele>
        <time>2018-07-07T08:59:13.000Z</time>
      </trkpt>
      <trkpt lat="42.53889" lon="2.01149">
        <ele>2130</ele>
        <time>2018-07-07T08:59:15.000Z</time>
      </trkpt>
      <trkpt lat="42.53886" lon="2.01149">
        <ele>2130</ele>
        <time>2018-07-07T08:59:18.000Z</time>
      </trkpt>
      <trkpt lat="42.53884" lon="2.01148">
        <ele>2131</ele>
        <time>2018-07-07T08:59:21.000Z</time>
      </trkpt>
      <trkpt lat="42.53882" lon="2.01148">
        <ele>2131</ele>
        <time>2018-07-07T08:59:24.000Z</time>
      </trkpt>
      <trkpt lat="42.53879" lon="2.01149">
        <ele>2131</ele>
        <time>2018-07-07T08:59:27.000Z</time>
      </trkpt>
      <trkpt lat="42.53877" lon="2.0115">
        <ele>2132</ele>
        <time>2018-07-07T08:59:29.000Z</time>
      </trkpt>
      <trkpt lat="42.53875" lon="2.0115">
        <ele>2132</ele>
        <time>2018-07-07T08:59:31.000Z</time>
      </trkpt>
      <trkpt lat="42.53873" lon="2.0115">
        <ele>2132</ele>
        <time>2018-07-07T08:59:33.000Z</time>
      </trkpt>
      <trkpt lat="42.53871" lon="2.0115">
        <ele>2133</ele>
        <time>2018-07-07T08:59:36.000Z</time>
      </trkpt>
      <trkpt lat="42.53869" lon="2.0115">
        <ele>2133</ele>
        <time>2018-07-07T08:59:38.000Z</time>
      </trkpt>
      <trkpt lat="42.53867" lon="2.0115">
        <ele>2133</ele>
        <time>2018-07-07T08:59:41.000Z</time>
      </trkpt>
      <trkpt lat="42.53865" lon="2.01149">
        <ele>2134</ele>
        <time>2018-07-07T08:59:43.000Z</time>
      </trkpt>
      <trkpt lat="42.53863" lon="2.0115">
        <ele>2134</ele>
        <time>2018-07-07T08:59:45.000Z</time>
      </trkpt>
      <trkpt lat="42.53861" lon="2.01149">
        <ele>2134</ele>
        <time>2018-07-07T08:59:47.000Z</time>
      </trkpt>
      <trkpt lat="42.53858" lon="2.01149">
        <ele>2135</ele>
        <time>2018-07-07T08:59:49.000Z</time>
      </trkpt>
      <trkpt lat="42.53856" lon="2.0115">
        <ele>2135</ele>
        <time>2018-07-07T08:59:51.000Z</time>
      </trkpt>
      <trkpt lat="42.53853" lon="2.0115">
        <ele>2135</ele>
        <time>2018-07-07T08:59:53.000Z</time>
      </trkpt>
      <trkpt lat="42.53851" lon="2.0115">
        <ele>2136</ele>
        <time>2018-07-07T08:59:55.000Z</time>
      </trkpt>
      <trkpt lat="42.53849" lon="2.01149">
        <ele>2136</ele>
        <time>2018-07-07T08:59:58.000Z</time>
      </trkpt>
      <trkpt lat="42.53847" lon="2.01147">
        <ele>2136</ele>
        <time>2018-07-07T09:00:00.000Z</time>
      </trkpt>
      <trkpt lat="42.53845" lon="2.01146">
        <ele>2136</ele>
        <time>2018-07-07T09:00:02.000Z</time>
      </trkpt>
      <trkpt lat="42.53842" lon="2.01144">
        <ele>2136</ele>
        <time>2018-07-07T09:00:04.000Z</time>
      </trkpt>
      <trkpt lat="42.53839" lon="2.01144">
        <ele>2136</ele>
        <time>2018-07-07T09:00:06.000Z</time>
      </trkpt>
      <trkpt lat="42.53837" lon="2.01145">
        <ele>2137</ele>
        <time>2018-07-07T09:00:08.000Z</time>
      </trkpt>
      <trkpt lat="42.53834" lon="2.01155">
        <ele>2139</ele>
        <time>2018-07-07T09:00:18.000Z</time>
      </trkpt>
      <trkpt lat="42.53831" lon="2.01156">
        <ele>2145</ele>
        <time>2018-07-07T09:00:20.000Z</time>
      </trkpt>
      <trkpt lat="42.53829" lon="2.01156">
        <ele>2145</ele>
        <time>2018-07-07T09:00:22.000Z</time>
      </trkpt>
      <trkpt lat="42.53827" lon="2.01158">
        <ele>2145</ele>
        <time>2018-07-07T09:00:24.000Z</time>
      </trkpt>
      <trkpt lat="42.53824" lon="2.01159">
        <ele>2145</ele>
        <time>2018-07-07T09:00:26.000Z</time>
      </trkpt>
      <trkpt lat="42.53823" lon="2.0116">
        <ele>2146</ele>
        <time>2018-07-07T09:00:28.000Z</time>
      </trkpt>
      <trkpt lat="42.5382" lon="2.01161">
        <ele>2146</ele>
        <time>2018-07-07T09:00:31.000Z</time>
      </trkpt>
      <trkpt lat="42.53818" lon="2.01162">
        <ele>2146</ele>
        <time>2018-07-07T09:00:33.000Z</time>
      </trkpt>
      <trkpt lat="42.53816" lon="2.01164">
        <ele>2146</ele>
        <time>2018-07-07T09:00:36.000Z</time>
      </trkpt>
      <trkpt lat="42.53814" lon="2.01165">
        <ele>2147</ele>
        <time>2018-07-07T09:00:38.000Z</time>
      </trkpt>
      <trkpt lat="42.53806" lon="2.01168">
        <ele>2151</ele>
        <time>2018-07-07T09:00:48.000Z</time>
      </trkpt>
      <trkpt lat="42.53804" lon="2.01171">
        <ele>2151</ele>
        <time>2018-07-07T09:00:51.000Z</time>
      </trkpt>
      <trkpt lat="42.53803" lon="2.01174">
        <ele>2152</ele>
        <time>2018-07-07T09:00:54.000Z</time>
      </trkpt>
      <trkpt lat="42.53802" lon="2.01177">
        <ele>2152</ele>
        <time>2018-07-07T09:00:56.000Z</time>
      </trkpt>
      <trkpt lat="42.53801" lon="2.01179">
        <ele>2152</ele>
        <time>2018-07-07T09:00:58.000Z</time>
      </trkpt>
      <trkpt lat="42.538" lon="2.01181">
        <ele>2152</ele>
        <time>2018-07-07T09:01:00.000Z</time>
      </trkpt>
      <trkpt lat="42.53798" lon="2.01183">
        <ele>2153</ele>
        <time>2018-07-07T09:01:03.000Z</time>
      </trkpt>
      <trkpt lat="42.53795" lon="2.01185">
        <ele>2153</ele>
        <time>2018-07-07T09:01:06.000Z</time>
      </trkpt>
      <trkpt lat="42.53793" lon="2.01186">
        <ele>2153</ele>
        <time>2018-07-07T09:01:08.000Z</time>
      </trkpt>
      <trkpt lat="42.53791" lon="2.01187">
        <ele>2154</ele>
        <time>2018-07-07T09:01:10.000Z</time>
      </trkpt>
      <trkpt lat="42.53789" lon="2.01188">
        <ele>2154</ele>
        <time>2018-07-07T09:01:12.000Z</time>
      </trkpt>
      <trkpt lat="42.53787" lon="2.01189">
        <ele>2154</ele>
        <time>2018-07-07T09:01:15.000Z</time>
      </trkpt>
      <trkpt lat="42.53785" lon="2.01189">
        <ele>2155</ele>
        <time>2018-07-07T09:01:17.000Z</time>
      </trkpt>
      <trkpt lat="42.53782" lon="2.01189">
        <ele>2155</ele>
        <time>2018-07-07T09:01:19.000Z</time>
      </trkpt>
      <trkpt lat="42.5378" lon="2.0119">
        <ele>2155</ele>
        <time>2018-07-07T09:01:21.000Z</time>
      </trkpt>
      <trkpt lat="42.53778" lon="2.0119">
        <ele>2155</ele>
        <time>2018-07-07T09:01:23.000Z</time>
      </trkpt>
      <trkpt lat="42.53777" lon="2.01193">
        <ele>2155</ele>
        <time>2018-07-07T09:01:27.000Z</time>
      </trkpt>
      <trkpt lat="42.53776" lon="2.01195">
        <ele>2156</ele>
        <time>2018-07-07T09:01:30.000Z</time>
      </trkpt>
      <trkpt lat="42.53773" lon="2.01195">
        <ele>2156</ele>
        <time>2018-07-07T09:01:32.000Z</time>
      </trkpt>
      <trkpt lat="42.5377" lon="2.01196">
        <ele>2156</ele>
        <time>2018-07-07T09:01:34.000Z</time>
      </trkpt>
      <trkpt lat="42.53768" lon="2.01198">
        <ele>2156</ele>
        <time>2018-07-07T09:01:36.000Z</time>
      </trkpt>
      <trkpt lat="42.53766" lon="2.01199">
        <ele>2156</ele>
        <time>2018-07-07T09:01:38.000Z</time>
      </trkpt>
      <trkpt lat="42.53764" lon="2.012">
        <ele>2157</ele>
        <time>2018-07-07T09:01:40.000Z</time>
      </trkpt>
      <trkpt lat="42.53762" lon="2.01201">
        <ele>2157</ele>
        <time>2018-07-07T09:01:42.000Z</time>
      </trkpt>
      <trkpt lat="42.5376" lon="2.01203">
        <ele>2157</ele>
        <time>2018-07-07T09:01:44.000Z</time>
      </trkpt>
      <trkpt lat="42.53757" lon="2.01205">
        <ele>2157</ele>
        <time>2018-07-07T09:01:46.000Z</time>
      </trkpt>
      <trkpt lat="42.53756" lon="2.01206">
        <ele>2157</ele>
        <time>2018-07-07T09:01:48.000Z</time>
      </trkpt>
      <trkpt lat="42.53753" lon="2.01207">
        <ele>2157</ele>
        <time>2018-07-07T09:01:50.000Z</time>
      </trkpt>
      <trkpt lat="42.53751" lon="2.01208">
        <ele>2157</ele>
        <time>2018-07-07T09:01:52.000Z</time>
      </trkpt>
      <trkpt lat="42.5375" lon="2.01209">
        <ele>2169</ele>
        <time>2018-07-07T09:01:55.000Z</time>
      </trkpt>
      <trkpt lat="42.53748" lon="2.01211">
        <ele>2169</ele>
        <time>2018-07-07T09:01:58.000Z</time>
      </trkpt>
      <trkpt lat="42.53746" lon="2.01213">
        <ele>2169</ele>
        <time>2018-07-07T09:02:01.000Z</time>
      </trkpt>
      <trkpt lat="42.53744" lon="2.01214">
        <ele>2169</ele>
        <time>2018-07-07T09:02:03.000Z</time>
      </trkpt>
      <trkpt lat="42.53742" lon="2.01215">
        <ele>2169</ele>
        <time>2018-07-07T09:02:05.000Z</time>
      </trkpt>
      <trkpt lat="42.53737" lon="2.01218">
        <ele>2170</ele>
        <time>2018-07-07T09:02:10.000Z</time>
      </trkpt>
      <trkpt lat="42.53735" lon="2.0122">
        <ele>2170</ele>
        <time>2018-07-07T09:02:13.000Z</time>
      </trkpt>
      <trkpt lat="42.53732" lon="2.01221">
        <ele>2170</ele>
        <time>2018-07-07T09:02:15.000Z</time>
      </trkpt>
      <trkpt lat="42.5373" lon="2.01222">
        <ele>2170</ele>
        <time>2018-07-07T09:02:17.000Z</time>
      </trkpt>
      <trkpt lat="42.53728" lon="2.01224">
        <ele>2171</ele>
        <time>2018-07-07T09:02:19.000Z</time>
      </trkpt>
      <trkpt lat="42.53726" lon="2.01226">
        <ele>2171</ele>
        <time>2018-07-07T09:02:22.000Z</time>
      </trkpt>
      <trkpt lat="42.53724" lon="2.01227">
        <ele>2171</ele>
        <time>2018-07-07T09:02:25.000Z</time>
      </trkpt>
      <trkpt lat="42.53721" lon="2.01229">
        <ele>2171</ele>
        <time>2018-07-07T09:02:27.000Z</time>
      </trkpt>
      <trkpt lat="42.5372" lon="2.0123">
        <ele>2172</ele>
        <time>2018-07-07T09:02:29.000Z</time>
      </trkpt>
      <trkpt lat="42.53718" lon="2.01232">
        <ele>2172</ele>
        <time>2018-07-07T09:02:32.000Z</time>
      </trkpt>
      <trkpt lat="42.53715" lon="2.01232">
        <ele>2172</ele>
        <time>2018-07-07T09:02:36.000Z</time>
      </trkpt>
      <trkpt lat="42.53713" lon="2.01232">
        <ele>2173</ele>
        <time>2018-07-07T09:02:38.000Z</time>
      </trkpt>
      <trkpt lat="42.53711" lon="2.01234">
        <ele>2173</ele>
        <time>2018-07-07T09:02:41.000Z</time>
      </trkpt>
      <trkpt lat="42.53709" lon="2.01235">
        <ele>2173</ele>
        <time>2018-07-07T09:02:43.000Z</time>
      </trkpt>
      <trkpt lat="42.53707" lon="2.01236">
        <ele>2174</ele>
        <time>2018-07-07T09:02:45.000Z</time>
      </trkpt>
      <trkpt lat="42.53705" lon="2.01237">
        <ele>2174</ele>
        <time>2018-07-07T09:02:47.000Z</time>
      </trkpt>
      <trkpt lat="42.53703" lon="2.01238">
        <ele>2174</ele>
        <time>2018-07-07T09:02:50.000Z</time>
      </trkpt>
      <trkpt lat="42.53701" lon="2.01239">
        <ele>2175</ele>
        <time>2018-07-07T09:02:53.000Z</time>
      </trkpt>
      <trkpt lat="42.53699" lon="2.0124">
        <ele>2175</ele>
        <time>2018-07-07T09:02:55.000Z</time>
      </trkpt>
      <trkpt lat="42.53697" lon="2.01242">
        <ele>2176</ele>
        <time>2018-07-07T09:02:58.000Z</time>
      </trkpt>
      <trkpt lat="42.53694" lon="2.01242">
        <ele>2176</ele>
        <time>2018-07-07T09:03:01.000Z</time>
      </trkpt>
      <trkpt lat="42.53693" lon="2.01244">
        <ele>2176</ele>
        <time>2018-07-07T09:03:03.000Z</time>
      </trkpt>
      <trkpt lat="42.5369" lon="2.01244">
        <ele>2177</ele>
        <time>2018-07-07T09:03:05.000Z</time>
      </trkpt>
      <trkpt lat="42.53688" lon="2.01245">
        <ele>2178</ele>
        <time>2018-07-07T09:03:09.000Z</time>
      </trkpt>
      <trkpt lat="42.53686" lon="2.01244">
        <ele>2178</ele>
        <time>2018-07-07T09:03:11.000Z</time>
      </trkpt>
      <trkpt lat="42.53684" lon="2.01244">
        <ele>2178</ele>
        <time>2018-07-07T09:03:13.000Z</time>
      </trkpt>
      <trkpt lat="42.53683" lon="2.01245">
        <ele>2179</ele>
        <time>2018-07-07T09:03:15.000Z</time>
      </trkpt>
      <trkpt lat="42.5368" lon="2.01246">
        <ele>2180</ele>
        <time>2018-07-07T09:03:18.000Z</time>
      </trkpt>
      <trkpt lat="42.53678" lon="2.01247">
        <ele>2180</ele>
        <time>2018-07-07T09:03:20.000Z</time>
      </trkpt>
      <trkpt lat="42.53676" lon="2.01247">
        <ele>2181</ele>
        <time>2018-07-07T09:03:22.000Z</time>
      </trkpt>
      <trkpt lat="42.53674" lon="2.01248">
        <ele>2182</ele>
        <time>2018-07-07T09:03:25.000Z</time>
      </trkpt>
      <trkpt lat="42.5367" lon="2.01251">
        <ele>2184</ele>
        <time>2018-07-07T09:03:29.000Z</time>
      </trkpt>
      <trkpt lat="42.53668" lon="2.01252">
        <ele>2184</ele>
        <time>2018-07-07T09:03:31.000Z</time>
      </trkpt>
      <trkpt lat="42.53661" lon="2.01259">
        <ele>2188</ele>
        <time>2018-07-07T09:03:40.000Z</time>
      </trkpt>
      <trkpt lat="42.53656" lon="2.01263">
        <ele>2189</ele>
        <time>2018-07-07T09:03:44.000Z</time>
      </trkpt>
      <trkpt lat="42.53654" lon="2.01264">
        <ele>2189</ele>
        <time>2018-07-07T09:03:46.000Z</time>
      </trkpt>
      <trkpt lat="42.53653" lon="2.01266">
        <ele>2190</ele>
        <time>2018-07-07T09:03:49.000Z</time>
      </trkpt>
      <trkpt lat="42.53651" lon="2.01267">
        <ele>2190</ele>
        <time>2018-07-07T09:03:51.000Z</time>
      </trkpt>
      <trkpt lat="42.53649" lon="2.01269">
        <ele>2190</ele>
        <time>2018-07-07T09:03:54.000Z</time>
      </trkpt>
      <trkpt lat="42.53647" lon="2.01271">
        <ele>2191</ele>
        <time>2018-07-07T09:03:57.000Z</time>
      </trkpt>
      <trkpt lat="42.53646" lon="2.01272">
        <ele>2191</ele>
        <time>2018-07-07T09:03:59.000Z</time>
      </trkpt>
      <trkpt lat="42.53643" lon="2.01274">
        <ele>2191</ele>
        <time>2018-07-07T09:04:02.000Z</time>
      </trkpt>
      <trkpt lat="42.53642" lon="2.01275">
        <ele>2191</ele>
        <time>2018-07-07T09:04:04.000Z</time>
      </trkpt>
      <trkpt lat="42.5364" lon="2.01277">
        <ele>2192</ele>
        <time>2018-07-07T09:04:06.000Z</time>
      </trkpt>
      <trkpt lat="42.53637" lon="2.01278">
        <ele>2192</ele>
        <time>2018-07-07T09:04:08.000Z</time>
      </trkpt>
      <trkpt lat="42.53636" lon="2.0128">
        <ele>2192</ele>
        <time>2018-07-07T09:04:10.000Z</time>
      </trkpt>
      <trkpt lat="42.53634" lon="2.01281">
        <ele>2192</ele>
        <time>2018-07-07T09:04:12.000Z</time>
      </trkpt>
      <trkpt lat="42.53632" lon="2.01282">
        <ele>2192</ele>
        <time>2018-07-07T09:04:14.000Z</time>
      </trkpt>
      <trkpt lat="42.5363" lon="2.01283">
        <ele>2193</ele>
        <time>2018-07-07T09:04:16.000Z</time>
      </trkpt>
      <trkpt lat="42.53628" lon="2.01283">
        <ele>2193</ele>
        <time>2018-07-07T09:04:18.000Z</time>
      </trkpt>
      <trkpt lat="42.53626" lon="2.01284">
        <ele>2193</ele>
        <time>2018-07-07T09:04:20.000Z</time>
      </trkpt>
      <trkpt lat="42.53624" lon="2.01285">
        <ele>2193</ele>
        <time>2018-07-07T09:04:22.000Z</time>
      </trkpt>
      <trkpt lat="42.53622" lon="2.01286">
        <ele>2193</ele>
        <time>2018-07-07T09:04:24.000Z</time>
      </trkpt>
      <trkpt lat="42.5362" lon="2.01287">
        <ele>2193</ele>
        <time>2018-07-07T09:04:26.000Z</time>
      </trkpt>
      <trkpt lat="42.53618" lon="2.01288">
        <ele>2194</ele>
        <time>2018-07-07T09:04:28.000Z</time>
      </trkpt>
      <trkpt lat="42.53616" lon="2.0129">
        <ele>2194</ele>
        <time>2018-07-07T09:04:30.000Z</time>
      </trkpt>
      <trkpt lat="42.53614" lon="2.01292">
        <ele>2194</ele>
        <time>2018-07-07T09:04:32.000Z</time>
      </trkpt>
      <trkpt lat="42.53613" lon="2.01294">
        <ele>2194</ele>
        <time>2018-07-07T09:04:34.000Z</time>
      </trkpt>
      <trkpt lat="42.53612" lon="2.01297">
        <ele>2194</ele>
        <time>2018-07-07T09:04:36.000Z</time>
      </trkpt>
      <trkpt lat="42.5361" lon="2.01299">
        <ele>2194</ele>
        <time>2018-07-07T09:04:38.000Z</time>
      </trkpt>
      <trkpt lat="42.53609" lon="2.01301">
        <ele>2194</ele>
        <time>2018-07-07T09:04:40.000Z</time>
      </trkpt>
      <trkpt lat="42.53607" lon="2.01303">
        <ele>2194</ele>
        <time>2018-07-07T09:04:42.000Z</time>
      </trkpt>
      <trkpt lat="42.53605" lon="2.01305">
        <ele>2194</ele>
        <time>2018-07-07T09:04:44.000Z</time>
      </trkpt>
      <trkpt lat="42.53603" lon="2.01308">
        <ele>2195</ele>
        <time>2018-07-07T09:04:46.000Z</time>
      </trkpt>
      <trkpt lat="42.53601" lon="2.01311">
        <ele>2195</ele>
        <time>2018-07-07T09:04:48.000Z</time>
      </trkpt>
      <trkpt lat="42.536" lon="2.01313">
        <ele>2195</ele>
        <time>2018-07-07T09:04:50.000Z</time>
      </trkpt>
      <trkpt lat="42.53598" lon="2.01316">
        <ele>2195</ele>
        <time>2018-07-07T09:04:52.000Z</time>
      </trkpt>
      <trkpt lat="42.53596" lon="2.01319">
        <ele>2195</ele>
        <time>2018-07-07T09:04:54.000Z</time>
      </trkpt>
      <trkpt lat="42.53595" lon="2.01321">
        <ele>2196</ele>
        <time>2018-07-07T09:04:56.000Z</time>
      </trkpt>
      <trkpt lat="42.53594" lon="2.01324">
        <ele>2196</ele>
        <time>2018-07-07T09:04:58.000Z</time>
      </trkpt>
      <trkpt lat="42.53592" lon="2.01327">
        <ele>2196</ele>
        <time>2018-07-07T09:05:00.000Z</time>
      </trkpt>
      <trkpt lat="42.53591" lon="2.0133">
        <ele>2197</ele>
        <time>2018-07-07T09:05:02.000Z</time>
      </trkpt>
      <trkpt lat="42.5359" lon="2.01332">
        <ele>2197</ele>
        <time>2018-07-07T09:05:04.000Z</time>
      </trkpt>
      <trkpt lat="42.53589" lon="2.01335">
        <ele>2198</ele>
        <time>2018-07-07T09:05:06.000Z</time>
      </trkpt>
      <trkpt lat="42.53588" lon="2.01338">
        <ele>2198</ele>
        <time>2018-07-07T09:05:08.000Z</time>
      </trkpt>
      <trkpt lat="42.53587" lon="2.01341">
        <ele>2198</ele>
        <time>2018-07-07T09:05:10.000Z</time>
      </trkpt>
      <trkpt lat="42.53586" lon="2.01345">
        <ele>2197</ele>
        <time>2018-07-07T09:05:12.000Z</time>
      </trkpt>
      <trkpt lat="42.53586" lon="2.01348">
        <ele>2197</ele>
        <time>2018-07-07T09:05:14.000Z</time>
      </trkpt>
      <trkpt lat="42.53585" lon="2.01352">
        <ele>2197</ele>
        <time>2018-07-07T09:05:16.000Z</time>
      </trkpt>
      <trkpt lat="42.53584" lon="2.01356">
        <ele>2197</ele>
        <time>2018-07-07T09:05:18.000Z</time>
      </trkpt>
      <trkpt lat="42.53584" lon="2.01359">
        <ele>2197</ele>
        <time>2018-07-07T09:05:20.000Z</time>
      </trkpt>
      <trkpt lat="42.53583" lon="2.01362">
        <ele>2201</ele>
        <time>2018-07-07T09:05:22.000Z</time>
      </trkpt>
      <trkpt lat="42.53582" lon="2.01366">
        <ele>2201</ele>
        <time>2018-07-07T09:05:24.000Z</time>
      </trkpt>
      <trkpt lat="42.53581" lon="2.0137">
        <ele>2202</ele>
        <time>2018-07-07T09:05:26.000Z</time>
      </trkpt>
      <trkpt lat="42.53581" lon="2.01374">
        <ele>2202</ele>
        <time>2018-07-07T09:05:28.000Z</time>
      </trkpt>
      <trkpt lat="42.53579" lon="2.01377">
        <ele>2202</ele>
        <time>2018-07-07T09:05:30.000Z</time>
      </trkpt>
      <trkpt lat="42.53579" lon="2.01381">
        <ele>2202</ele>
        <time>2018-07-07T09:05:32.000Z</time>
      </trkpt>
      <trkpt lat="42.53578" lon="2.01384">
        <ele>2202</ele>
        <time>2018-07-07T09:05:34.000Z</time>
      </trkpt>
      <trkpt lat="42.53576" lon="2.01389">
        <ele>2202</ele>
        <time>2018-07-07T09:05:36.000Z</time>
      </trkpt>
      <trkpt lat="42.53576" lon="2.01392">
        <ele>2202</ele>
        <time>2018-07-07T09:05:38.000Z</time>
      </trkpt>
      <trkpt lat="42.53575" lon="2.01396">
        <ele>2202</ele>
        <time>2018-07-07T09:05:40.000Z</time>
      </trkpt>
      <trkpt lat="42.53574" lon="2.014">
        <ele>2203</ele>
        <time>2018-07-07T09:05:42.000Z</time>
      </trkpt>
      <trkpt lat="42.53574" lon="2.01404">
        <ele>2203</ele>
        <time>2018-07-07T09:05:44.000Z</time>
      </trkpt>
      <trkpt lat="42.53573" lon="2.01408">
        <ele>2203</ele>
        <time>2018-07-07T09:05:46.000Z</time>
      </trkpt>
      <trkpt lat="42.53573" lon="2.01412">
        <ele>2203</ele>
        <time>2018-07-07T09:05:48.000Z</time>
      </trkpt>
      <trkpt lat="42.53572" lon="2.01416">
        <ele>2203</ele>
        <time>2018-07-07T09:05:50.000Z</time>
      </trkpt>
      <trkpt lat="42.53571" lon="2.01419">
        <ele>2204</ele>
        <time>2018-07-07T09:05:52.000Z</time>
      </trkpt>
      <trkpt lat="42.5357" lon="2.01423">
        <ele>2204</ele>
        <time>2018-07-07T09:05:54.000Z</time>
      </trkpt>
      <trkpt lat="42.53569" lon="2.01427">
        <ele>2205</ele>
        <time>2018-07-07T09:05:56.000Z</time>
      </trkpt>
      <trkpt lat="42.53569" lon="2.01431">
        <ele>2205</ele>
        <time>2018-07-07T09:05:58.000Z</time>
      </trkpt>
      <trkpt lat="42.53569" lon="2.01435">
        <ele>2205</ele>
        <time>2018-07-07T09:06:00.000Z</time>
      </trkpt>
      <trkpt lat="42.53569" lon="2.01438">
        <ele>2205</ele>
        <time>2018-07-07T09:06:02.000Z</time>
      </trkpt>
      <trkpt lat="42.5357" lon="2.01441">
        <ele>2205</ele>
        <time>2018-07-07T09:06:04.000Z</time>
      </trkpt>
      <trkpt lat="42.5357" lon="2.01445">
        <ele>2206</ele>
        <time>2018-07-07T09:06:06.000Z</time>
      </trkpt>
      <trkpt lat="42.5357" lon="2.01448">
        <ele>2206</ele>
        <time>2018-07-07T09:06:08.000Z</time>
      </trkpt>
      <trkpt lat="42.53569" lon="2.01452">
        <ele>2206</ele>
        <time>2018-07-07T09:06:10.000Z</time>
      </trkpt>
      <trkpt lat="42.53569" lon="2.01455">
        <ele>2206</ele>
        <time>2018-07-07T09:06:12.000Z</time>
      </trkpt>
      <trkpt lat="42.53569" lon="2.01459">
        <ele>2206</ele>
        <time>2018-07-07T09:06:14.000Z</time>
      </trkpt>
      <trkpt lat="42.53568" lon="2.01462">
        <ele>2207</ele>
        <time>2018-07-07T09:06:16.000Z</time>
      </trkpt>
      <trkpt lat="42.53567" lon="2.01465">
        <ele>2207</ele>
        <time>2018-07-07T09:06:18.000Z</time>
      </trkpt>
      <trkpt lat="42.53567" lon="2.01468">
        <ele>2207</ele>
        <time>2018-07-07T09:06:20.000Z</time>
      </trkpt>
      <trkpt lat="42.53567" lon="2.01471">
        <ele>2207</ele>
        <time>2018-07-07T09:06:22.000Z</time>
      </trkpt>
      <trkpt lat="42.53566" lon="2.01474">
        <ele>2207</ele>
        <time>2018-07-07T09:06:24.000Z</time>
      </trkpt>
      <trkpt lat="42.53566" lon="2.01477">
        <ele>2208</ele>
        <time>2018-07-07T09:06:26.000Z</time>
      </trkpt>
      <trkpt lat="42.53566" lon="2.0148">
        <ele>2208</ele>
        <time>2018-07-07T09:06:28.000Z</time>
      </trkpt>
      <trkpt lat="42.53566" lon="2.01484">
        <ele>2208</ele>
        <time>2018-07-07T09:06:30.000Z</time>
      </trkpt>
      <trkpt lat="42.53566" lon="2.01486">
        <ele>2208</ele>
        <time>2018-07-07T09:06:32.000Z</time>
      </trkpt>
      <trkpt lat="42.53566" lon="2.0149">
        <ele>2208</ele>
        <time>2018-07-07T09:06:34.000Z</time>
      </trkpt>
      <trkpt lat="42.53567" lon="2.01493">
        <ele>2209</ele>
        <time>2018-07-07T09:06:36.000Z</time>
      </trkpt>
      <trkpt lat="42.53568" lon="2.01496">
        <ele>2209</ele>
        <time>2018-07-07T09:06:38.000Z</time>
      </trkpt>
      <trkpt lat="42.53568" lon="2.01499">
        <ele>2209</ele>
        <time>2018-07-07T09:06:40.000Z</time>
      </trkpt>
      <trkpt lat="42.53569" lon="2.01502">
        <ele>2210</ele>
        <time>2018-07-07T09:06:42.000Z</time>
      </trkpt>
      <trkpt lat="42.5357" lon="2.01505">
        <ele>2210</ele>
        <time>2018-07-07T09:06:44.000Z</time>
      </trkpt>
      <trkpt lat="42.53571" lon="2.01508">
        <ele>2210</ele>
        <time>2018-07-07T09:06:46.000Z</time>
      </trkpt>
      <trkpt lat="42.53571" lon="2.01511">
        <ele>2210</ele>
        <time>2018-07-07T09:06:48.000Z</time>
      </trkpt>
      <trkpt lat="42.53572" lon="2.01513">
        <ele>2210</ele>
        <time>2018-07-07T09:06:50.000Z</time>
      </trkpt>
      <trkpt lat="42.53573" lon="2.01516">
        <ele>2210</ele>
        <time>2018-07-07T09:06:52.000Z</time>
      </trkpt>
      <trkpt lat="42.53574" lon="2.01519">
        <ele>2210</ele>
        <time>2018-07-07T09:06:54.000Z</time>
      </trkpt>
      <trkpt lat="42.53575" lon="2.01522">
        <ele>2210</ele>
        <time>2018-07-07T09:06:56.000Z</time>
      </trkpt>
      <trkpt lat="42.53577" lon="2.01526">
        <ele>2210</ele>
        <time>2018-07-07T09:06:58.000Z</time>
      </trkpt>
      <trkpt lat="42.53578" lon="2.01529">
        <ele>2210</ele>
        <time>2018-07-07T09:07:00.000Z</time>
      </trkpt>
      <trkpt lat="42.53578" lon="2.01533">
        <ele>2210</ele>
        <time>2018-07-07T09:07:02.000Z</time>
      </trkpt>
      <trkpt lat="42.53578" lon="2.01536">
        <ele>2210</ele>
        <time>2018-07-07T09:07:04.000Z</time>
      </trkpt>
      <trkpt lat="42.53578" lon="2.0154">
        <ele>2210</ele>
        <time>2018-07-07T09:07:06.000Z</time>
      </trkpt>
      <trkpt lat="42.53578" lon="2.01543">
        <ele>2210</ele>
        <time>2018-07-07T09:07:08.000Z</time>
      </trkpt>
      <trkpt lat="42.53577" lon="2.01547">
        <ele>2210</ele>
        <time>2018-07-07T09:07:10.000Z</time>
      </trkpt>
      <trkpt lat="42.53576" lon="2.0155">
        <ele>2210</ele>
        <time>2018-07-07T09:07:12.000Z</time>
      </trkpt>
      <trkpt lat="42.53575" lon="2.01554">
        <ele>2210</ele>
        <time>2018-07-07T09:07:14.000Z</time>
      </trkpt>
      <trkpt lat="42.53574" lon="2.01558">
        <ele>2210</ele>
        <time>2018-07-07T09:07:16.000Z</time>
      </trkpt>
      <trkpt lat="42.53573" lon="2.0156">
        <ele>2210</ele>
        <time>2018-07-07T09:07:17.000Z</time>
      </trkpt>
      <trkpt lat="42.53572" lon="2.01562">
        <ele>2210</ele>
        <time>2018-07-07T09:07:18.000Z</time>
      </trkpt>
      <trkpt lat="42.5357" lon="2.01564">
        <ele>2210</ele>
        <time>2018-07-07T09:07:19.000Z</time>
      </trkpt>
      <trkpt lat="42.53569" lon="2.01566">
        <ele>2210</ele>
        <time>2018-07-07T09:07:20.000Z</time>
      </trkpt>
      <trkpt lat="42.53567" lon="2.01567">
        <ele>2210</ele>
        <time>2018-07-07T09:07:21.000Z</time>
      </trkpt>
      <trkpt lat="42.53565" lon="2.01568">
        <ele>2210</ele>
        <time>2018-07-07T09:07:22.000Z</time>
      </trkpt>
      <trkpt lat="42.53562" lon="2.01568">
        <ele>2210</ele>
        <time>2018-07-07T09:07:24.000Z</time>
      </trkpt>
      <trkpt lat="42.53559" lon="2.01569">
        <ele>2210</ele>
        <time>2018-07-07T09:07:26.000Z</time>
      </trkpt>
      <trkpt lat="42.53556" lon="2.0157">
        <ele>2210</ele>
        <time>2018-07-07T09:07:27.000Z</time>
      </trkpt>
      <trkpt lat="42.53554" lon="2.01571">
        <ele>2210</ele>
        <time>2018-07-07T09:07:28.000Z</time>
      </trkpt>
      <trkpt lat="42.53552" lon="2.01572">
        <ele>2210</ele>
        <time>2018-07-07T09:07:30.000Z</time>
      </trkpt>
      <trkpt lat="42.53549" lon="2.01575">
        <ele>2210</ele>
        <time>2018-07-07T09:07:32.000Z</time>
      </trkpt>
      <trkpt lat="42.53548" lon="2.01578">
        <ele>2210</ele>
        <time>2018-07-07T09:07:33.000Z</time>
      </trkpt>
      <trkpt lat="42.53546" lon="2.0158">
        <ele>2210</ele>
        <time>2018-07-07T09:07:34.000Z</time>
      </trkpt>
      <trkpt lat="42.53544" lon="2.01583">
        <ele>2210</ele>
        <time>2018-07-07T09:07:35.000Z</time>
      </trkpt>
      <trkpt lat="42.53543" lon="2.01585">
        <ele>2209</ele>
        <time>2018-07-07T09:07:36.000Z</time>
      </trkpt>
      <trkpt lat="42.53541" lon="2.01588">
        <ele>2209</ele>
        <time>2018-07-07T09:07:37.000Z</time>
      </trkpt>
      <trkpt lat="42.53539" lon="2.0159">
        <ele>2209</ele>
        <time>2018-07-07T09:07:38.000Z</time>
      </trkpt>
      <trkpt lat="42.53537" lon="2.01592">
        <ele>2209</ele>
        <time>2018-07-07T09:07:39.000Z</time>
      </trkpt>
      <trkpt lat="42.53535" lon="2.01594">
        <ele>2209</ele>
        <time>2018-07-07T09:07:40.000Z</time>
      </trkpt>
      <trkpt lat="42.53533" lon="2.01596">
        <ele>2209</ele>
        <time>2018-07-07T09:07:41.000Z</time>
      </trkpt>
      <trkpt lat="42.53531" lon="2.01598">
        <ele>2209</ele>
        <time>2018-07-07T09:07:42.000Z</time>
      </trkpt>
      <trkpt lat="42.53528" lon="2.016">
        <ele>2209</ele>
        <time>2018-07-07T09:07:43.000Z</time>
      </trkpt>
      <trkpt lat="42.53526" lon="2.01601">
        <ele>2209</ele>
        <time>2018-07-07T09:07:44.000Z</time>
      </trkpt>
      <trkpt lat="42.53524" lon="2.01603">
        <ele>2209</ele>
        <time>2018-07-07T09:07:45.000Z</time>
      </trkpt>
      <trkpt lat="42.53523" lon="2.01605">
        <ele>2209</ele>
        <time>2018-07-07T09:07:46.000Z</time>
      </trkpt>
      <trkpt lat="42.53521" lon="2.01607">
        <ele>2209</ele>
        <time>2018-07-07T09:07:47.000Z</time>
      </trkpt>
      <trkpt lat="42.53519" lon="2.01608">
        <ele>2209</ele>
        <time>2018-07-07T09:07:48.000Z</time>
      </trkpt>
      <trkpt lat="42.53517" lon="2.0161">
        <ele>2209</ele>
        <time>2018-07-07T09:07:49.000Z</time>
      </trkpt>
      <trkpt lat="42.53514" lon="2.01614">
        <ele>2209</ele>
        <time>2018-07-07T09:07:51.000Z</time>
      </trkpt>
      <trkpt lat="42.53512" lon="2.01615">
        <ele>2209</ele>
        <time>2018-07-07T09:07:52.000Z</time>
      </trkpt>
      <trkpt lat="42.5351" lon="2.01617">
        <ele>2208</ele>
        <time>2018-07-07T09:07:53.000Z</time>
      </trkpt>
      <trkpt lat="42.53508" lon="2.01618">
        <ele>2208</ele>
        <time>2018-07-07T09:07:54.000Z</time>
      </trkpt>
      <trkpt lat="42.53506" lon="2.01621">
        <ele>2208</ele>
        <time>2018-07-07T09:07:55.000Z</time>
      </trkpt>
      <trkpt lat="42.53505" lon="2.01623">
        <ele>2208</ele>
        <time>2018-07-07T09:07:56.000Z</time>
      </trkpt>
      <trkpt lat="42.53503" lon="2.01626">
        <ele>2208</ele>
        <time>2018-07-07T09:07:57.000Z</time>
      </trkpt>
      <trkpt lat="42.53502" lon="2.01628">
        <ele>2208</ele>
        <time>2018-07-07T09:07:58.000Z</time>
      </trkpt>
      <trkpt lat="42.53501" lon="2.01631">
        <ele>2208</ele>
        <time>2018-07-07T09:07:59.000Z</time>
      </trkpt>
      <trkpt lat="42.53499" lon="2.01632">
        <ele>2199</ele>
        <time>2018-07-07T09:08:00.000Z</time>
      </trkpt>
      <trkpt lat="42.53497" lon="2.01632">
        <ele>2199</ele>
        <time>2018-07-07T09:08:01.000Z</time>
      </trkpt>
      <trkpt lat="42.53495" lon="2.0163">
        <ele>2199</ele>
        <time>2018-07-07T09:08:02.000Z</time>
      </trkpt>
      <trkpt lat="42.53493" lon="2.01627">
        <ele>2199</ele>
        <time>2018-07-07T09:08:04.000Z</time>
      </trkpt>
      <trkpt lat="42.53491" lon="2.01626">
        <ele>2199</ele>
        <time>2018-07-07T09:08:05.000Z</time>
      </trkpt>
      <trkpt lat="42.53489" lon="2.01625">
        <ele>2199</ele>
        <time>2018-07-07T09:08:07.000Z</time>
      </trkpt>
      <trkpt lat="42.53488" lon="2.01628">
        <ele>2198</ele>
        <time>2018-07-07T09:08:09.000Z</time>
      </trkpt>
      <trkpt lat="42.53487" lon="2.0163">
        <ele>2198</ele>
        <time>2018-07-07T09:08:11.000Z</time>
      </trkpt>
      <trkpt lat="42.53485" lon="2.01632">
        <ele>2198</ele>
        <time>2018-07-07T09:08:13.000Z</time>
      </trkpt>
      <trkpt lat="42.53482" lon="2.01632">
        <ele>2198</ele>
        <time>2018-07-07T09:08:15.000Z</time>
      </trkpt>
      <trkpt lat="42.5348" lon="2.01635">
        <ele>2197</ele>
        <time>2018-07-07T09:08:17.000Z</time>
      </trkpt>
      <trkpt lat="42.53478" lon="2.01637">
        <ele>2197</ele>
        <time>2018-07-07T09:08:19.000Z</time>
      </trkpt>
      <trkpt lat="42.53474" lon="2.01637">
        <ele>2196</ele>
        <time>2018-07-07T09:08:21.000Z</time>
      </trkpt>
      <trkpt lat="42.53471" lon="2.01638">
        <ele>2196</ele>
        <time>2018-07-07T09:08:23.000Z</time>
      </trkpt>
      <trkpt lat="42.5347" lon="2.01639">
        <ele>2196</ele>
        <time>2018-07-07T09:08:24.000Z</time>
      </trkpt>
      <trkpt lat="42.53468" lon="2.01641">
        <ele>2195</ele>
        <time>2018-07-07T09:08:25.000Z</time>
      </trkpt>
      <trkpt lat="42.53467" lon="2.01645">
        <ele>2195</ele>
        <time>2018-07-07T09:08:27.000Z</time>
      </trkpt>
      <trkpt lat="42.53465" lon="2.01647">
        <ele>2195</ele>
        <time>2018-07-07T09:08:29.000Z</time>
      </trkpt>
      <trkpt lat="42.53463" lon="2.01648">
        <ele>2194</ele>
        <time>2018-07-07T09:08:31.000Z</time>
      </trkpt>
      <trkpt lat="42.53461" lon="2.01649">
        <ele>2194</ele>
        <time>2018-07-07T09:08:33.000Z</time>
      </trkpt>
      <trkpt lat="42.53458" lon="2.01648">
        <ele>2193</ele>
        <time>2018-07-07T09:08:35.000Z</time>
      </trkpt>
      <trkpt lat="42.53456" lon="2.01648">
        <ele>2193</ele>
        <time>2018-07-07T09:08:37.000Z</time>
      </trkpt>
      <trkpt lat="42.53455" lon="2.01649">
        <ele>2193</ele>
        <time>2018-07-07T09:08:39.000Z</time>
      </trkpt>
      <trkpt lat="42.53453" lon="2.0165">
        <ele>2192</ele>
        <time>2018-07-07T09:08:41.000Z</time>
      </trkpt>
      <trkpt lat="42.53451" lon="2.01651">
        <ele>2192</ele>
        <time>2018-07-07T09:08:43.000Z</time>
      </trkpt>
      <trkpt lat="42.53449" lon="2.01652">
        <ele>2191</ele>
        <time>2018-07-07T09:08:45.000Z</time>
      </trkpt>
      <trkpt lat="42.53447" lon="2.01653">
        <ele>2190</ele>
        <time>2018-07-07T09:08:47.000Z</time>
      </trkpt>
      <trkpt lat="42.53444" lon="2.01653">
        <ele>2190</ele>
        <time>2018-07-07T09:08:49.000Z</time>
      </trkpt>
      <trkpt lat="42.53442" lon="2.01655">
        <ele>2189</ele>
        <time>2018-07-07T09:08:52.000Z</time>
      </trkpt>
      <trkpt lat="42.5344" lon="2.01657">
        <ele>2188</ele>
        <time>2018-07-07T09:08:55.000Z</time>
      </trkpt>
      <trkpt lat="42.53439" lon="2.0166">
        <ele>2188</ele>
        <time>2018-07-07T09:08:58.000Z</time>
      </trkpt>
      <trkpt lat="42.53436" lon="2.01661">
        <ele>2187</ele>
        <time>2018-07-07T09:09:01.000Z</time>
      </trkpt>
      <trkpt lat="42.53434" lon="2.01663">
        <ele>2186</ele>
        <time>2018-07-07T09:09:05.000Z</time>
      </trkpt>
      <trkpt lat="42.53433" lon="2.01666">
        <ele>2185</ele>
        <time>2018-07-07T09:09:07.000Z</time>
      </trkpt>
      <trkpt lat="42.53433" lon="2.01669">
        <ele>2180</ele>
        <time>2018-07-07T09:09:09.000Z</time>
      </trkpt>
      <trkpt lat="42.53433" lon="2.01671">
        <ele>2180</ele>
        <time>2018-07-07T09:09:11.000Z</time>
      </trkpt>
      <trkpt lat="42.53432" lon="2.01673">
        <ele>2180</ele>
        <time>2018-07-07T09:09:13.000Z</time>
      </trkpt>
      <trkpt lat="42.5343" lon="2.01676">
        <ele>2180</ele>
        <time>2018-07-07T09:09:16.000Z</time>
      </trkpt>
      <trkpt lat="42.53429" lon="2.01678">
        <ele>2180</ele>
        <time>2018-07-07T09:09:19.000Z</time>
      </trkpt>
      <trkpt lat="42.53427" lon="2.0168">
        <ele>2180</ele>
        <time>2018-07-07T09:09:21.000Z</time>
      </trkpt>
      <trkpt lat="42.53425" lon="2.01682">
        <ele>2179</ele>
        <time>2018-07-07T09:09:23.000Z</time>
      </trkpt>
      <trkpt lat="42.53423" lon="2.01683">
        <ele>2179</ele>
        <time>2018-07-07T09:09:26.000Z</time>
      </trkpt>
      <trkpt lat="42.53422" lon="2.01685">
        <ele>2179</ele>
        <time>2018-07-07T09:09:29.000Z</time>
      </trkpt>
      <trkpt lat="42.5342" lon="2.01686">
        <ele>2179</ele>
        <time>2018-07-07T09:09:31.000Z</time>
      </trkpt>
      <trkpt lat="42.53417" lon="2.01686">
        <ele>2179</ele>
        <time>2018-07-07T09:09:33.000Z</time>
      </trkpt>
      <trkpt lat="42.53414" lon="2.01686">
        <ele>2162</ele>
        <time>2018-07-07T09:09:36.000Z</time>
      </trkpt>
      <trkpt lat="42.53412" lon="2.01687">
        <ele>2161</ele>
        <time>2018-07-07T09:09:38.000Z</time>
      </trkpt>
      <trkpt lat="42.53413" lon="2.0169">
        <ele>2161</ele>
        <time>2018-07-07T09:09:40.000Z</time>
      </trkpt>
      <trkpt lat="42.53412" lon="2.01693">
        <ele>2160</ele>
        <time>2018-07-07T09:09:43.000Z</time>
      </trkpt>
      <trkpt lat="42.53409" lon="2.01693">
        <ele>2159</ele>
        <time>2018-07-07T09:09:46.000Z</time>
      </trkpt>
      <trkpt lat="42.53408" lon="2.01695">
        <ele>2158</ele>
        <time>2018-07-07T09:09:50.000Z</time>
      </trkpt>
      <trkpt lat="42.53406" lon="2.01693">
        <ele>2158</ele>
        <time>2018-07-07T09:09:56.000Z</time>
      </trkpt>
      <trkpt lat="42.53407" lon="2.01691">
        <ele>2159</ele>
        <time>2018-07-07T09:10:07.000Z</time>
      </trkpt>
      <trkpt lat="42.53404" lon="2.01691">
        <ele>2159</ele>
        <time>2018-07-07T09:11:00.000Z</time>
      </trkpt>
      <trkpt lat="42.53403" lon="2.01692">
        <ele>2158</ele>
        <time>2018-07-07T09:11:02.000Z</time>
      </trkpt>
      <trkpt lat="42.534" lon="2.01692">
        <ele>2157</ele>
        <time>2018-07-07T09:11:05.000Z</time>
      </trkpt>
      <trkpt lat="42.53399" lon="2.01695">
        <ele>2156</ele>
        <time>2018-07-07T09:11:07.000Z</time>
      </trkpt>
      <trkpt lat="42.53398" lon="2.01697">
        <ele>2156</ele>
        <time>2018-07-07T09:11:09.000Z</time>
      </trkpt>
      <trkpt lat="42.53396" lon="2.01701">
        <ele>2155</ele>
        <time>2018-07-07T09:11:11.000Z</time>
      </trkpt>
      <trkpt lat="42.53395" lon="2.01705">
        <ele>2154</ele>
        <time>2018-07-07T09:11:13.000Z</time>
      </trkpt>
      <trkpt lat="42.53395" lon="2.01708">
        <ele>2154</ele>
        <time>2018-07-07T09:11:15.000Z</time>
      </trkpt>
      <trkpt lat="42.53393" lon="2.01709">
        <ele>2153</ele>
        <time>2018-07-07T09:11:17.000Z</time>
      </trkpt>
      <trkpt lat="42.53391" lon="2.01709">
        <ele>2153</ele>
        <time>2018-07-07T09:11:19.000Z</time>
      </trkpt>
      <trkpt lat="42.53389" lon="2.01711">
        <ele>2152</ele>
        <time>2018-07-07T09:11:21.000Z</time>
      </trkpt>
      <trkpt lat="42.53387" lon="2.01712">
        <ele>2152</ele>
        <time>2018-07-07T09:11:23.000Z</time>
      </trkpt>
      <trkpt lat="42.53385" lon="2.01713">
        <ele>2151</ele>
        <time>2018-07-07T09:11:25.000Z</time>
      </trkpt>
      <trkpt lat="42.53383" lon="2.01715">
        <ele>2151</ele>
        <time>2018-07-07T09:11:27.000Z</time>
      </trkpt>
      <trkpt lat="42.53381" lon="2.01716">
        <ele>2150</ele>
        <time>2018-07-07T09:11:29.000Z</time>
      </trkpt>
      <trkpt lat="42.5338" lon="2.01718">
        <ele>2150</ele>
        <time>2018-07-07T09:11:31.000Z</time>
      </trkpt>
      <trkpt lat="42.53378" lon="2.01721">
        <ele>2149</ele>
        <time>2018-07-07T09:11:34.000Z</time>
      </trkpt>
      <trkpt lat="42.53376" lon="2.01722">
        <ele>2148</ele>
        <time>2018-07-07T09:11:36.000Z</time>
      </trkpt>
      <trkpt lat="42.53374" lon="2.01721">
        <ele>2148</ele>
        <time>2018-07-07T09:11:38.000Z</time>
      </trkpt>
      <trkpt lat="42.53373" lon="2.01719">
        <ele>2148</ele>
        <time>2018-07-07T09:11:40.000Z</time>
      </trkpt>
      <trkpt lat="42.53371" lon="2.01722">
        <ele>2147</ele>
        <time>2018-07-07T09:11:43.000Z</time>
      </trkpt>
      <trkpt lat="42.53369" lon="2.01725">
        <ele>2146</ele>
        <time>2018-07-07T09:11:45.000Z</time>
      </trkpt>
      <trkpt lat="42.53366" lon="2.01728">
        <ele>2145</ele>
        <time>2018-07-07T09:11:47.000Z</time>
      </trkpt>
      <trkpt lat="42.53364" lon="2.0173">
        <ele>2144</ele>
        <time>2018-07-07T09:11:49.000Z</time>
      </trkpt>
      <trkpt lat="42.53362" lon="2.01732">
        <ele>2143</ele>
        <time>2018-07-07T09:11:51.000Z</time>
      </trkpt>
      <trkpt lat="42.53361" lon="2.01735">
        <ele>2142</ele>
        <time>2018-07-07T09:11:53.000Z</time>
      </trkpt>
      <trkpt lat="42.53359" lon="2.01737">
        <ele>2142</ele>
        <time>2018-07-07T09:11:55.000Z</time>
      </trkpt>
      <trkpt lat="42.53357" lon="2.01738">
        <ele>2141</ele>
        <time>2018-07-07T09:11:58.000Z</time>
      </trkpt>
      <trkpt lat="42.53355" lon="2.01739">
        <ele>2140</ele>
        <time>2018-07-07T09:12:00.000Z</time>
      </trkpt>
      <trkpt lat="42.53353" lon="2.01738">
        <ele>2139</ele>
        <time>2018-07-07T09:12:02.000Z</time>
      </trkpt>
      <trkpt lat="42.5335" lon="2.01739">
        <ele>2138</ele>
        <time>2018-07-07T09:12:05.000Z</time>
      </trkpt>
      <trkpt lat="42.53349" lon="2.01739">
        <ele>2137</ele>
        <time>2018-07-07T09:12:08.000Z</time>
      </trkpt>
      <trkpt lat="42.53347" lon="2.01739">
        <ele>2136</ele>
        <time>2018-07-07T09:12:11.000Z</time>
      </trkpt>
      <trkpt lat="42.53345" lon="2.01741">
        <ele>2135</ele>
        <time>2018-07-07T09:12:13.000Z</time>
      </trkpt>
      <trkpt lat="42.53344" lon="2.01743">
        <ele>2134</ele>
        <time>2018-07-07T09:12:15.000Z</time>
      </trkpt>
      <trkpt lat="42.53343" lon="2.01745">
        <ele>2132</ele>
        <time>2018-07-07T09:12:17.000Z</time>
      </trkpt>
      <trkpt lat="42.53342" lon="2.01748">
        <ele>2131</ele>
        <time>2018-07-07T09:12:20.000Z</time>
      </trkpt>
      <trkpt lat="42.5334" lon="2.0175">
        <ele>2129</ele>
        <time>2018-07-07T09:12:24.000Z</time>
      </trkpt>
      <trkpt lat="42.53338" lon="2.0175">
        <ele>2128</ele>
        <time>2018-07-07T09:12:26.000Z</time>
      </trkpt>
      <trkpt lat="42.53337" lon="2.01752">
        <ele>2125</ele>
        <time>2018-07-07T09:12:28.000Z</time>
      </trkpt>
      <trkpt lat="42.53336" lon="2.01754">
        <ele>2126</ele>
        <time>2018-07-07T09:12:30.000Z</time>
      </trkpt>
      <trkpt lat="42.53333" lon="2.01754">
        <ele>2125</ele>
        <time>2018-07-07T09:12:32.000Z</time>
      </trkpt>
      <trkpt lat="42.53331" lon="2.01755">
        <ele>2120</ele>
        <time>2018-07-07T09:12:36.000Z</time>
      </trkpt>
      <trkpt lat="42.5333" lon="2.01758">
        <ele>2118</ele>
        <time>2018-07-07T09:12:39.000Z</time>
      </trkpt>
      <trkpt lat="42.5333" lon="2.01761">
        <ele>2117</ele>
        <time>2018-07-07T09:12:41.000Z</time>
      </trkpt>
      <trkpt lat="42.53329" lon="2.01763">
        <ele>2116</ele>
        <time>2018-07-07T09:12:43.000Z</time>
      </trkpt>
      <trkpt lat="42.53327" lon="2.01765">
        <ele>2115</ele>
        <time>2018-07-07T09:12:45.000Z</time>
      </trkpt>
      <trkpt lat="42.53326" lon="2.01768">
        <ele>2114</ele>
        <time>2018-07-07T09:12:47.000Z</time>
      </trkpt>
      <trkpt lat="42.53324" lon="2.0177">
        <ele>2113</ele>
        <time>2018-07-07T09:12:49.000Z</time>
      </trkpt>
      <trkpt lat="42.53322" lon="2.01771">
        <ele>2113</ele>
        <time>2018-07-07T09:12:51.000Z</time>
      </trkpt>
      <trkpt lat="42.5332" lon="2.01772">
        <ele>2112</ele>
        <time>2018-07-07T09:12:53.000Z</time>
      </trkpt>
      <trkpt lat="42.53317" lon="2.01772">
        <ele>2112</ele>
        <time>2018-07-07T09:12:56.000Z</time>
      </trkpt>
      <trkpt lat="42.53315" lon="2.01771">
        <ele>2111</ele>
        <time>2018-07-07T09:12:58.000Z</time>
      </trkpt>
      <trkpt lat="42.53313" lon="2.01772">
        <ele>2111</ele>
        <time>2018-07-07T09:12:59.000Z</time>
      </trkpt>
      <trkpt lat="42.53312" lon="2.01774">
        <ele>2110</ele>
        <time>2018-07-07T09:13:01.000Z</time>
      </trkpt>
      <trkpt lat="42.5331" lon="2.01775">
        <ele>2110</ele>
        <time>2018-07-07T09:13:03.000Z</time>
      </trkpt>
      <trkpt lat="42.53308" lon="2.01775">
        <ele>2109</ele>
        <time>2018-07-07T09:13:05.000Z</time>
      </trkpt>
      <trkpt lat="42.53306" lon="2.01777">
        <ele>2109</ele>
        <time>2018-07-07T09:13:08.000Z</time>
      </trkpt>
      <trkpt lat="42.53306" lon="2.0178">
        <ele>2109</ele>
        <time>2018-07-07T09:13:09.000Z</time>
      </trkpt>
      <trkpt lat="42.53306" lon="2.01782">
        <ele>2108</ele>
        <time>2018-07-07T09:13:10.000Z</time>
      </trkpt>
      <trkpt lat="42.53305" lon="2.01786">
        <ele>2108</ele>
        <time>2018-07-07T09:13:11.000Z</time>
      </trkpt>
      <trkpt lat="42.53304" lon="2.01788">
        <ele>2108</ele>
        <time>2018-07-07T09:13:12.000Z</time>
      </trkpt>
      <trkpt lat="42.53304" lon="2.01791">
        <ele>2108</ele>
        <time>2018-07-07T09:13:13.000Z</time>
      </trkpt>
      <trkpt lat="42.53303" lon="2.01793">
        <ele>2107</ele>
        <time>2018-07-07T09:13:14.000Z</time>
      </trkpt>
      <trkpt lat="42.53302" lon="2.01795">
        <ele>2107</ele>
        <time>2018-07-07T09:13:15.000Z</time>
      </trkpt>
      <trkpt lat="42.53301" lon="2.01798">
        <ele>2107</ele>
        <time>2018-07-07T09:13:16.000Z</time>
      </trkpt>
      <trkpt lat="42.533" lon="2.01801">
        <ele>2107</ele>
        <time>2018-07-07T09:13:17.000Z</time>
      </trkpt>
      <trkpt lat="42.53298" lon="2.01803">
        <ele>2106</ele>
        <time>2018-07-07T09:13:18.000Z</time>
      </trkpt>
      <trkpt lat="42.53296" lon="2.01805">
        <ele>2106</ele>
        <time>2018-07-07T09:13:19.000Z</time>
      </trkpt>
      <trkpt lat="42.53294" lon="2.01807">
        <ele>2106</ele>
        <time>2018-07-07T09:13:20.000Z</time>
      </trkpt>
      <trkpt lat="42.53292" lon="2.01809">
        <ele>2105</ele>
        <time>2018-07-07T09:13:21.000Z</time>
      </trkpt>
      <trkpt lat="42.53289" lon="2.01811">
        <ele>2105</ele>
        <time>2018-07-07T09:13:22.000Z</time>
      </trkpt>
      <trkpt lat="42.53287" lon="2.01813">
        <ele>2104</ele>
        <time>2018-07-07T09:13:23.000Z</time>
      </trkpt>
      <trkpt lat="42.53284" lon="2.01815">
        <ele>2103</ele>
        <time>2018-07-07T09:13:24.000Z</time>
      </trkpt>
      <trkpt lat="42.53282" lon="2.01816">
        <ele>2103</ele>
        <time>2018-07-07T09:13:25.000Z</time>
      </trkpt>
      <trkpt lat="42.5328" lon="2.01818">
        <ele>2102</ele>
        <time>2018-07-07T09:13:26.000Z</time>
      </trkpt>
      <trkpt lat="42.53278" lon="2.0182">
        <ele>2102</ele>
        <time>2018-07-07T09:13:27.000Z</time>
      </trkpt>
      <trkpt lat="42.53276" lon="2.01822">
        <ele>2101</ele>
        <time>2018-07-07T09:13:28.000Z</time>
      </trkpt>
      <trkpt lat="42.53274" lon="2.01824">
        <ele>2100</ele>
        <time>2018-07-07T09:13:29.000Z</time>
      </trkpt>
      <trkpt lat="42.53272" lon="2.01826">
        <ele>2100</ele>
        <time>2018-07-07T09:13:30.000Z</time>
      </trkpt>
      <trkpt lat="42.5327" lon="2.01828">
        <ele>2099</ele>
        <time>2018-07-07T09:13:31.000Z</time>
      </trkpt>
      <trkpt lat="42.53268" lon="2.0183">
        <ele>2098</ele>
        <time>2018-07-07T09:13:32.000Z</time>
      </trkpt>
      <trkpt lat="42.53265" lon="2.01831">
        <ele>2097</ele>
        <time>2018-07-07T09:13:33.000Z</time>
      </trkpt>
      <trkpt lat="42.53263" lon="2.01832">
        <ele>2096</ele>
        <time>2018-07-07T09:13:34.000Z</time>
      </trkpt>
      <trkpt lat="42.5326" lon="2.01833">
        <ele>2095</ele>
        <time>2018-07-07T09:13:35.000Z</time>
      </trkpt>
      <trkpt lat="42.53258" lon="2.01833">
        <ele>2094</ele>
        <time>2018-07-07T09:13:36.000Z</time>
      </trkpt>
      <trkpt lat="42.53256" lon="2.01833">
        <ele>2093</ele>
        <time>2018-07-07T09:13:37.000Z</time>
      </trkpt>
      <trkpt lat="42.53254" lon="2.01834">
        <ele>2092</ele>
        <time>2018-07-07T09:13:38.000Z</time>
      </trkpt>
      <trkpt lat="42.53251" lon="2.01834">
        <ele>2091</ele>
        <time>2018-07-07T09:13:39.000Z</time>
      </trkpt>
      <trkpt lat="42.53249" lon="2.01833">
        <ele>2090</ele>
        <time>2018-07-07T09:13:40.000Z</time>
      </trkpt>
      <trkpt lat="42.53246" lon="2.01833">
        <ele>2089</ele>
        <time>2018-07-07T09:13:41.000Z</time>
      </trkpt>
      <trkpt lat="42.53243" lon="2.01833">
        <ele>2089</ele>
        <time>2018-07-07T09:13:42.000Z</time>
      </trkpt>
      <trkpt lat="42.53241" lon="2.01832">
        <ele>2089</ele>
        <time>2018-07-07T09:13:43.000Z</time>
      </trkpt>
      <trkpt lat="42.53238" lon="2.01832">
        <ele>2088</ele>
        <time>2018-07-07T09:13:44.000Z</time>
      </trkpt>
      <trkpt lat="42.53235" lon="2.01832">
        <ele>2088</ele>
        <time>2018-07-07T09:13:45.000Z</time>
      </trkpt>
      <trkpt lat="42.53232" lon="2.01831">
        <ele>2088</ele>
        <time>2018-07-07T09:13:46.000Z</time>
      </trkpt>
      <trkpt lat="42.53229" lon="2.01831">
        <ele>2088</ele>
        <time>2018-07-07T09:13:47.000Z</time>
      </trkpt>
      <trkpt lat="42.53226" lon="2.0183">
        <ele>2087</ele>
        <time>2018-07-07T09:13:48.000Z</time>
      </trkpt>
      <trkpt lat="42.53223" lon="2.0183">
        <ele>2087</ele>
        <time>2018-07-07T09:13:49.000Z</time>
      </trkpt>
      <trkpt lat="42.53219" lon="2.0183">
        <ele>2087</ele>
        <time>2018-07-07T09:13:50.000Z</time>
      </trkpt>
      <trkpt lat="42.53216" lon="2.01829">
        <ele>2086</ele>
        <time>2018-07-07T09:13:51.000Z</time>
      </trkpt>
      <trkpt lat="42.53212" lon="2.01829">
        <ele>2086</ele>
        <time>2018-07-07T09:13:52.000Z</time>
      </trkpt>
      <trkpt lat="42.53208" lon="2.01829">
        <ele>2085</ele>
        <time>2018-07-07T09:13:53.000Z</time>
      </trkpt>
      <trkpt lat="42.53204" lon="2.01828">
        <ele>2085</ele>
        <time>2018-07-07T09:13:54.000Z</time>
      </trkpt>
      <trkpt lat="42.532" lon="2.01828">
        <ele>2085</ele>
        <time>2018-07-07T09:13:55.000Z</time>
      </trkpt>
      <trkpt lat="42.53196" lon="2.01826">
        <ele>2084</ele>
        <time>2018-07-07T09:13:56.000Z</time>
      </trkpt>
      <trkpt lat="42.53192" lon="2.01825">
        <ele>2084</ele>
        <time>2018-07-07T09:13:57.000Z</time>
      </trkpt>
      <trkpt lat="42.53188" lon="2.01824">
        <ele>2083</ele>
        <time>2018-07-07T09:13:58.000Z</time>
      </trkpt>
      <trkpt lat="42.53184" lon="2.01824">
        <ele>2083</ele>
        <time>2018-07-07T09:13:59.000Z</time>
      </trkpt>
      <trkpt lat="42.5318" lon="2.01825">
        <ele>2082</ele>
        <time>2018-07-07T09:14:00.000Z</time>
      </trkpt>
      <trkpt lat="42.53177" lon="2.01825">
        <ele>2081</ele>
        <time>2018-07-07T09:14:01.000Z</time>
      </trkpt>
      <trkpt lat="42.53174" lon="2.01826">
        <ele>2081</ele>
        <time>2018-07-07T09:14:02.000Z</time>
      </trkpt>
      <trkpt lat="42.5317" lon="2.01827">
        <ele>2080</ele>
        <time>2018-07-07T09:14:03.000Z</time>
      </trkpt>
      <trkpt lat="42.53167" lon="2.01827">
        <ele>2077</ele>
        <time>2018-07-07T09:14:04.000Z</time>
      </trkpt>
      <trkpt lat="42.53163" lon="2.01826">
        <ele>2077</ele>
        <time>2018-07-07T09:14:05.000Z</time>
      </trkpt>
      <trkpt lat="42.53159" lon="2.01825">
        <ele>2077</ele>
        <time>2018-07-07T09:14:06.000Z</time>
      </trkpt>
      <trkpt lat="42.53156" lon="2.01824">
        <ele>2077</ele>
        <time>2018-07-07T09:14:07.000Z</time>
      </trkpt>
      <trkpt lat="42.53153" lon="2.01822">
        <ele>2076</ele>
        <time>2018-07-07T09:14:08.000Z</time>
      </trkpt>
      <trkpt lat="42.5315" lon="2.01821">
        <ele>2076</ele>
        <time>2018-07-07T09:14:09.000Z</time>
      </trkpt>
      <trkpt lat="42.53147" lon="2.0182">
        <ele>2076</ele>
        <time>2018-07-07T09:14:10.000Z</time>
      </trkpt>
      <trkpt lat="42.53144" lon="2.01819">
        <ele>2076</ele>
        <time>2018-07-07T09:14:11.000Z</time>
      </trkpt>
      <trkpt lat="42.53141" lon="2.01818">
        <ele>2076</ele>
        <time>2018-07-07T09:14:12.000Z</time>
      </trkpt>
      <trkpt lat="42.53138" lon="2.01816">
        <ele>2075</ele>
        <time>2018-07-07T09:14:13.000Z</time>
      </trkpt>
      <trkpt lat="42.53136" lon="2.01814">
        <ele>2075</ele>
        <time>2018-07-07T09:14:14.000Z</time>
      </trkpt>
      <trkpt lat="42.53133" lon="2.01814">
        <ele>2075</ele>
        <time>2018-07-07T09:14:15.000Z</time>
      </trkpt>
      <trkpt lat="42.53131" lon="2.01814">
        <ele>2075</ele>
        <time>2018-07-07T09:14:16.000Z</time>
      </trkpt>
      <trkpt lat="42.53128" lon="2.01813">
        <ele>2075</ele>
        <time>2018-07-07T09:14:17.000Z</time>
      </trkpt>
      <trkpt lat="42.53126" lon="2.01813">
        <ele>2075</ele>
        <time>2018-07-07T09:14:18.000Z</time>
      </trkpt>
      <trkpt lat="42.53123" lon="2.01813">
        <ele>2074</ele>
        <time>2018-07-07T09:14:19.000Z</time>
      </trkpt>
      <trkpt lat="42.5312" lon="2.01813">
        <ele>2074</ele>
        <time>2018-07-07T09:14:20.000Z</time>
      </trkpt>
      <trkpt lat="42.53117" lon="2.01813">
        <ele>2074</ele>
        <time>2018-07-07T09:14:21.000Z</time>
      </trkpt>
      <trkpt lat="42.53114" lon="2.01814">
        <ele>2074</ele>
        <time>2018-07-07T09:14:22.000Z</time>
      </trkpt>
      <trkpt lat="42.53111" lon="2.01815">
        <ele>2073</ele>
        <time>2018-07-07T09:14:23.000Z</time>
      </trkpt>
      <trkpt lat="42.53109" lon="2.01816">
        <ele>2073</ele>
        <time>2018-07-07T09:14:24.000Z</time>
      </trkpt>
      <trkpt lat="42.53107" lon="2.01818">
        <ele>2073</ele>
        <time>2018-07-07T09:14:25.000Z</time>
      </trkpt>
      <trkpt lat="42.53105" lon="2.0182">
        <ele>2073</ele>
        <time>2018-07-07T09:14:26.000Z</time>
      </trkpt>
      <trkpt lat="42.53103" lon="2.01822">
        <ele>2072</ele>
        <time>2018-07-07T09:14:27.000Z</time>
      </trkpt>
      <trkpt lat="42.53101" lon="2.01824">
        <ele>2072</ele>
        <time>2018-07-07T09:14:28.000Z</time>
      </trkpt>
      <trkpt lat="42.53098" lon="2.01826">
        <ele>2071</ele>
        <time>2018-07-07T09:14:29.000Z</time>
      </trkpt>
      <trkpt lat="42.53096" lon="2.01827">
        <ele>2071</ele>
        <time>2018-07-07T09:14:30.000Z</time>
      </trkpt>
      <trkpt lat="42.53093" lon="2.01828">
        <ele>2070</ele>
        <time>2018-07-07T09:14:31.000Z</time>
      </trkpt>
      <trkpt lat="42.53089" lon="2.01831">
        <ele>2069</ele>
        <time>2018-07-07T09:14:32.000Z</time>
      </trkpt>
      <trkpt lat="42.53084" lon="2.01833">
        <ele>2068</ele>
        <time>2018-07-07T09:14:33.000Z</time>
      </trkpt>
      <trkpt lat="42.53081" lon="2.01835">
        <ele>2067</ele>
        <time>2018-07-07T09:14:34.000Z</time>
      </trkpt>
      <trkpt lat="42.53078" lon="2.01837">
        <ele>2066</ele>
        <time>2018-07-07T09:14:35.000Z</time>
      </trkpt>
      <trkpt lat="42.53075" lon="2.0184">
        <ele>2065</ele>
        <time>2018-07-07T09:14:36.000Z</time>
      </trkpt>
      <trkpt lat="42.53073" lon="2.01842">
        <ele>2064</ele>
        <time>2018-07-07T09:14:37.000Z</time>
      </trkpt>
      <trkpt lat="42.5307" lon="2.01845">
        <ele>2064</ele>
        <time>2018-07-07T09:14:38.000Z</time>
      </trkpt>
      <trkpt lat="42.53067" lon="2.01847">
        <ele>2063</ele>
        <time>2018-07-07T09:14:39.000Z</time>
      </trkpt>
      <trkpt lat="42.53064" lon="2.01849">
        <ele>2063</ele>
        <time>2018-07-07T09:14:40.000Z</time>
      </trkpt>
      <trkpt lat="42.53061" lon="2.01851">
        <ele>2062</ele>
        <time>2018-07-07T09:14:41.000Z</time>
      </trkpt>
      <trkpt lat="42.53059" lon="2.01854">
        <ele>2062</ele>
        <time>2018-07-07T09:14:42.000Z</time>
      </trkpt>
      <trkpt lat="42.53057" lon="2.01856">
        <ele>2062</ele>
        <time>2018-07-07T09:14:43.000Z</time>
      </trkpt>
      <trkpt lat="42.53055" lon="2.01859">
        <ele>2061</ele>
        <time>2018-07-07T09:14:44.000Z</time>
      </trkpt>
      <trkpt lat="42.53053" lon="2.01862">
        <ele>2061</ele>
        <time>2018-07-07T09:14:45.000Z</time>
      </trkpt>
      <trkpt lat="42.5305" lon="2.01864">
        <ele>2061</ele>
        <time>2018-07-07T09:14:46.000Z</time>
      </trkpt>
      <trkpt lat="42.53048" lon="2.01867">
        <ele>2060</ele>
        <time>2018-07-07T09:14:47.000Z</time>
      </trkpt>
      <trkpt lat="42.53046" lon="2.0187">
        <ele>2060</ele>
        <time>2018-07-07T09:14:48.000Z</time>
      </trkpt>
      <trkpt lat="42.53044" lon="2.01872">
        <ele>2060</ele>
        <time>2018-07-07T09:14:49.000Z</time>
      </trkpt>
      <trkpt lat="42.53041" lon="2.01874">
        <ele>2060</ele>
        <time>2018-07-07T09:14:50.000Z</time>
      </trkpt>
      <trkpt lat="42.53039" lon="2.01876">
        <ele>2060</ele>
        <time>2018-07-07T09:14:51.000Z</time>
      </trkpt>
      <trkpt lat="42.53036" lon="2.01878">
        <ele>2059</ele>
        <time>2018-07-07T09:14:52.000Z</time>
      </trkpt>
      <trkpt lat="42.53034" lon="2.01879">
        <ele>2059</ele>
        <time>2018-07-07T09:14:53.000Z</time>
      </trkpt>
      <trkpt lat="42.53031" lon="2.01881">
        <ele>2059</ele>
        <time>2018-07-07T09:14:54.000Z</time>
      </trkpt>
      <trkpt lat="42.53028" lon="2.01882">
        <ele>2059</ele>
        <time>2018-07-07T09:14:55.000Z</time>
      </trkpt>
      <trkpt lat="42.53025" lon="2.01883">
        <ele>2058</ele>
        <time>2018-07-07T09:14:56.000Z</time>
      </trkpt>
      <trkpt lat="42.53022" lon="2.01884">
        <ele>2058</ele>
        <time>2018-07-07T09:14:57.000Z</time>
      </trkpt>
      <trkpt lat="42.53019" lon="2.01884">
        <ele>2058</ele>
        <time>2018-07-07T09:14:58.000Z</time>
      </trkpt>
      <trkpt lat="42.53016" lon="2.01885">
        <ele>2058</ele>
        <time>2018-07-07T09:14:59.000Z</time>
      </trkpt>
      <trkpt lat="42.53013" lon="2.01887">
        <ele>2058</ele>
        <time>2018-07-07T09:15:00.000Z</time>
      </trkpt>
      <trkpt lat="42.5301" lon="2.01889">
        <ele>2057</ele>
        <time>2018-07-07T09:15:01.000Z</time>
      </trkpt>
      <trkpt lat="42.53008" lon="2.01891">
        <ele>2057</ele>
        <time>2018-07-07T09:15:02.000Z</time>
      </trkpt>
      <trkpt lat="42.53005" lon="2.01893">
        <ele>2057</ele>
        <time>2018-07-07T09:15:03.000Z</time>
      </trkpt>
      <trkpt lat="42.53003" lon="2.01896">
        <ele>2057</ele>
        <time>2018-07-07T09:15:04.000Z</time>
      </trkpt>
      <trkpt lat="42.53001" lon="2.01899">
        <ele>2056</ele>
        <time>2018-07-07T09:15:05.000Z</time>
      </trkpt>
      <trkpt lat="42.52998" lon="2.01902">
        <ele>2052</ele>
        <time>2018-07-07T09:15:06.000Z</time>
      </trkpt>
      <trkpt lat="42.52996" lon="2.01905">
        <ele>2052</ele>
        <time>2018-07-07T09:15:07.000Z</time>
      </trkpt>
      <trkpt lat="42.52994" lon="2.01909">
        <ele>2053</ele>
        <time>2018-07-07T09:15:08.000Z</time>
      </trkpt>
      <trkpt lat="42.52992" lon="2.01912">
        <ele>2053</ele>
        <time>2018-07-07T09:15:09.000Z</time>
      </trkpt>
      <trkpt lat="42.5299" lon="2.01916">
        <ele>2053</ele>
        <time>2018-07-07T09:15:10.000Z</time>
      </trkpt>
      <trkpt lat="42.52988" lon="2.0192">
        <ele>2052</ele>
        <time>2018-07-07T09:15:11.000Z</time>
      </trkpt>
      <trkpt lat="42.52987" lon="2.01924">
        <ele>2052</ele>
        <time>2018-07-07T09:15:12.000Z</time>
      </trkpt>
      <trkpt lat="42.52985" lon="2.01927">
        <ele>2052</ele>
        <time>2018-07-07T09:15:13.000Z</time>
      </trkpt>
      <trkpt lat="42.52983" lon="2.0193">
        <ele>2052</ele>
        <time>2018-07-07T09:15:14.000Z</time>
      </trkpt>
      <trkpt lat="42.52981" lon="2.01934">
        <ele>2052</ele>
        <time>2018-07-07T09:15:15.000Z</time>
      </trkpt>
      <trkpt lat="42.52978" lon="2.01937">
        <ele>2052</ele>
        <time>2018-07-07T09:15:16.000Z</time>
      </trkpt>
      <trkpt lat="42.52975" lon="2.01941">
        <ele>2051</ele>
        <time>2018-07-07T09:15:17.000Z</time>
      </trkpt>
      <trkpt lat="42.52972" lon="2.01945">
        <ele>2051</ele>
        <time>2018-07-07T09:15:18.000Z</time>
      </trkpt>
      <trkpt lat="42.52969" lon="2.01948">
        <ele>2051</ele>
        <time>2018-07-07T09:15:19.000Z</time>
      </trkpt>
      <trkpt lat="42.52966" lon="2.01951">
        <ele>2051</ele>
        <time>2018-07-07T09:15:20.000Z</time>
      </trkpt>
      <trkpt lat="42.52962" lon="2.01954">
        <ele>2051</ele>
        <time>2018-07-07T09:15:21.000Z</time>
      </trkpt>
      <trkpt lat="42.52959" lon="2.01957">
        <ele>2051</ele>
        <time>2018-07-07T09:15:22.000Z</time>
      </trkpt>
      <trkpt lat="42.52956" lon="2.01959">
        <ele>2051</ele>
        <time>2018-07-07T09:15:23.000Z</time>
      </trkpt>
      <trkpt lat="42.52953" lon="2.01962">
        <ele>2051</ele>
        <time>2018-07-07T09:15:24.000Z</time>
      </trkpt>
      <trkpt lat="42.52951" lon="2.01965">
        <ele>2051</ele>
        <time>2018-07-07T09:15:25.000Z</time>
      </trkpt>
      <trkpt lat="42.52948" lon="2.01966">
        <ele>2051</ele>
        <time>2018-07-07T09:15:26.000Z</time>
      </trkpt>
      <trkpt lat="42.52946" lon="2.01965">
        <ele>2051</ele>
        <time>2018-07-07T09:15:27.000Z</time>
      </trkpt>
      <trkpt lat="42.52945" lon="2.01963">
        <ele>2051</ele>
        <time>2018-07-07T09:15:29.000Z</time>
      </trkpt>
      <trkpt lat="42.52942" lon="2.01964">
        <ele>2051</ele>
        <time>2018-07-07T09:15:33.000Z</time>
      </trkpt>
      <trkpt lat="42.52941" lon="2.01967">
        <ele>2051</ele>
        <time>2018-07-07T09:15:35.000Z</time>
      </trkpt>
      <trkpt lat="42.52939" lon="2.01968">
        <ele>2051</ele>
        <time>2018-07-07T09:15:37.000Z</time>
      </trkpt>
      <trkpt lat="42.52937" lon="2.0197">
        <ele>2050</ele>
        <time>2018-07-07T09:15:39.000Z</time>
      </trkpt>
      <trkpt lat="42.52935" lon="2.01972">
        <ele>2050</ele>
        <time>2018-07-07T09:15:41.000Z</time>
      </trkpt>
      <trkpt lat="42.52933" lon="2.01974">
        <ele>2050</ele>
        <time>2018-07-07T09:15:43.000Z</time>
      </trkpt>
      <trkpt lat="42.52931" lon="2.01975">
        <ele>2050</ele>
        <time>2018-07-07T09:15:45.000Z</time>
      </trkpt>
      <trkpt lat="42.5293" lon="2.01976">
        <ele>2050</ele>
        <time>2018-07-07T09:15:48.000Z</time>
      </trkpt>
      <trkpt lat="42.52927" lon="2.01977">
        <ele>2050</ele>
        <time>2018-07-07T09:15:50.000Z</time>
      </trkpt>
      <trkpt lat="42.52925" lon="2.01978">
        <ele>2050</ele>
        <time>2018-07-07T09:15:52.000Z</time>
      </trkpt>
      <trkpt lat="42.52923" lon="2.0198">
        <ele>2050</ele>
        <time>2018-07-07T09:15:54.000Z</time>
      </trkpt>
      <trkpt lat="42.5292" lon="2.01982">
        <ele>2050</ele>
        <time>2018-07-07T09:15:56.000Z</time>
      </trkpt>
      <trkpt lat="42.52917" lon="2.01983">
        <ele>2050</ele>
        <time>2018-07-07T09:15:58.000Z</time>
      </trkpt>
      <trkpt lat="42.52914" lon="2.01986">
        <ele>2049</ele>
        <time>2018-07-07T09:16:00.000Z</time>
      </trkpt>
      <trkpt lat="42.52912" lon="2.01988">
        <ele>2049</ele>
        <time>2018-07-07T09:16:01.000Z</time>
      </trkpt>
      <trkpt lat="42.52909" lon="2.0199">
        <ele>2049</ele>
        <time>2018-07-07T09:16:02.000Z</time>
      </trkpt>
      <trkpt lat="42.52907" lon="2.01993">
        <ele>2049</ele>
        <time>2018-07-07T09:16:03.000Z</time>
      </trkpt>
      <trkpt lat="42.52904" lon="2.01995">
        <ele>2049</ele>
        <time>2018-07-07T09:16:04.000Z</time>
      </trkpt>
      <trkpt lat="42.52901" lon="2.01997">
        <ele>2048</ele>
        <time>2018-07-07T09:16:05.000Z</time>
      </trkpt>
      <trkpt lat="42.52897" lon="2.02">
        <ele>2049</ele>
        <time>2018-07-07T09:16:06.000Z</time>
      </trkpt>
      <trkpt lat="42.52894" lon="2.02002">
        <ele>2048</ele>
        <time>2018-07-07T09:16:07.000Z</time>
      </trkpt>
      <trkpt lat="42.52891" lon="2.02005">
        <ele>2048</ele>
        <time>2018-07-07T09:16:08.000Z</time>
      </trkpt>
      <trkpt lat="42.52889" lon="2.02007">
        <ele>2048</ele>
        <time>2018-07-07T09:16:09.000Z</time>
      </trkpt>
      <trkpt lat="42.52886" lon="2.02009">
        <ele>2048</ele>
        <time>2018-07-07T09:16:10.000Z</time>
      </trkpt>
      <trkpt lat="42.52883" lon="2.0201">
        <ele>2048</ele>
        <time>2018-07-07T09:16:11.000Z</time>
      </trkpt>
      <trkpt lat="42.52881" lon="2.02012">
        <ele>2048</ele>
        <time>2018-07-07T09:16:12.000Z</time>
      </trkpt>
      <trkpt lat="42.52878" lon="2.02014">
        <ele>2048</ele>
        <time>2018-07-07T09:16:13.000Z</time>
      </trkpt>
      <trkpt lat="42.52876" lon="2.02016">
        <ele>2048</ele>
        <time>2018-07-07T09:16:14.000Z</time>
      </trkpt>
      <trkpt lat="42.52873" lon="2.02017">
        <ele>2048</ele>
        <time>2018-07-07T09:16:15.000Z</time>
      </trkpt>
      <trkpt lat="42.5287" lon="2.02019">
        <ele>2048</ele>
        <time>2018-07-07T09:16:16.000Z</time>
      </trkpt>
      <trkpt lat="42.52867" lon="2.0202">
        <ele>2048</ele>
        <time>2018-07-07T09:16:17.000Z</time>
      </trkpt>
      <trkpt lat="42.52864" lon="2.02022">
        <ele>2048</ele>
        <time>2018-07-07T09:16:18.000Z</time>
      </trkpt>
      <trkpt lat="42.52862" lon="2.02023">
        <ele>2048</ele>
        <time>2018-07-07T09:16:19.000Z</time>
      </trkpt>
      <trkpt lat="42.52857" lon="2.02027">
        <ele>2048</ele>
        <time>2018-07-07T09:16:21.000Z</time>
      </trkpt>
      <trkpt lat="42.52855" lon="2.02028">
        <ele>2048</ele>
        <time>2018-07-07T09:16:22.000Z</time>
      </trkpt>
      <trkpt lat="42.52853" lon="2.0203">
        <ele>2048</ele>
        <time>2018-07-07T09:16:23.000Z</time>
      </trkpt>
      <trkpt lat="42.52851" lon="2.02032">
        <ele>2048</ele>
        <time>2018-07-07T09:16:24.000Z</time>
      </trkpt>
      <trkpt lat="42.5285" lon="2.02034">
        <ele>2048</ele>
        <time>2018-07-07T09:16:25.000Z</time>
      </trkpt>
      <trkpt lat="42.52847" lon="2.02038">
        <ele>2048</ele>
        <time>2018-07-07T09:16:27.000Z</time>
      </trkpt>
      <trkpt lat="42.52846" lon="2.02041">
        <ele>2048</ele>
        <time>2018-07-07T09:16:29.000Z</time>
      </trkpt>
      <trkpt lat="42.52844" lon="2.02043">
        <ele>2048</ele>
        <time>2018-07-07T09:16:30.000Z</time>
      </trkpt>
      <trkpt lat="42.52842" lon="2.02046">
        <ele>2048</ele>
        <time>2018-07-07T09:16:31.000Z</time>
      </trkpt>
      <trkpt lat="42.5284" lon="2.02048">
        <ele>2048</ele>
        <time>2018-07-07T09:16:32.000Z</time>
      </trkpt>
      <trkpt lat="42.52838" lon="2.02051">
        <ele>2048</ele>
        <time>2018-07-07T09:16:33.000Z</time>
      </trkpt>
      <trkpt lat="42.52837" lon="2.02055">
        <ele>2048</ele>
        <time>2018-07-07T09:16:34.000Z</time>
      </trkpt>
      <trkpt lat="42.52835" lon="2.02057">
        <ele>2048</ele>
        <time>2018-07-07T09:16:35.000Z</time>
      </trkpt>
      <trkpt lat="42.52831" lon="2.02059">
        <ele>2047</ele>
        <time>2018-07-07T09:16:36.000Z</time>
      </trkpt>
      <trkpt lat="42.52828" lon="2.0206">
        <ele>2047</ele>
        <time>2018-07-07T09:16:37.000Z</time>
      </trkpt>
      <trkpt lat="42.52824" lon="2.0206">
        <ele>2047</ele>
        <time>2018-07-07T09:16:38.000Z</time>
      </trkpt>
      <trkpt lat="42.52821" lon="2.0206">
        <ele>2047</ele>
        <time>2018-07-07T09:16:39.000Z</time>
      </trkpt>
      <trkpt lat="42.52817" lon="2.02059">
        <ele>2047</ele>
        <time>2018-07-07T09:16:40.000Z</time>
      </trkpt>
      <trkpt lat="42.52815" lon="2.02058">
        <ele>2047</ele>
        <time>2018-07-07T09:16:41.000Z</time>
      </trkpt>
      <trkpt lat="42.52812" lon="2.02056">
        <ele>2047</ele>
        <time>2018-07-07T09:16:42.000Z</time>
      </trkpt>
      <trkpt lat="42.52809" lon="2.02055">
        <ele>2047</ele>
        <time>2018-07-07T09:16:43.000Z</time>
      </trkpt>
      <trkpt lat="42.52806" lon="2.02053">
        <ele>2047</ele>
        <time>2018-07-07T09:16:44.000Z</time>
      </trkpt>
      <trkpt lat="42.52804" lon="2.02051">
        <ele>2047</ele>
        <time>2018-07-07T09:16:45.000Z</time>
      </trkpt>
      <trkpt lat="42.52801" lon="2.0205">
        <ele>2047</ele>
        <time>2018-07-07T09:16:46.000Z</time>
      </trkpt>
      <trkpt lat="42.52799" lon="2.02048">
        <ele>2047</ele>
        <time>2018-07-07T09:16:47.000Z</time>
      </trkpt>
      <trkpt lat="42.52796" lon="2.02046">
        <ele>2047</ele>
        <time>2018-07-07T09:16:48.000Z</time>
      </trkpt>
      <trkpt lat="42.52794" lon="2.02044">
        <ele>2047</ele>
        <time>2018-07-07T09:16:49.000Z</time>
      </trkpt>
      <trkpt lat="42.52792" lon="2.02042">
        <ele>2047</ele>
        <time>2018-07-07T09:16:50.000Z</time>
      </trkpt>
      <trkpt lat="42.52789" lon="2.02041">
        <ele>2047</ele>
        <time>2018-07-07T09:16:51.000Z</time>
      </trkpt>
      <trkpt lat="42.52787" lon="2.02039">
        <ele>2047</ele>
        <time>2018-07-07T09:16:52.000Z</time>
      </trkpt>
      <trkpt lat="42.52784" lon="2.02038">
        <ele>2047</ele>
        <time>2018-07-07T09:16:53.000Z</time>
      </trkpt>
      <trkpt lat="42.52781" lon="2.02038">
        <ele>2047</ele>
        <time>2018-07-07T09:16:54.000Z</time>
      </trkpt>
      <trkpt lat="42.52778" lon="2.02038">
        <ele>2047</ele>
        <time>2018-07-07T09:16:55.000Z</time>
      </trkpt>
      <trkpt lat="42.52776" lon="2.02039">
        <ele>2047</ele>
        <time>2018-07-07T09:16:56.000Z</time>
      </trkpt>
      <trkpt lat="42.52773" lon="2.0204">
        <ele>2047</ele>
        <time>2018-07-07T09:16:57.000Z</time>
      </trkpt>
      <trkpt lat="42.5277" lon="2.0204">
        <ele>2047</ele>
        <time>2018-07-07T09:16:58.000Z</time>
      </trkpt>
      <trkpt lat="42.52767" lon="2.0204">
        <ele>2047</ele>
        <time>2018-07-07T09:16:59.000Z</time>
      </trkpt>
      <trkpt lat="42.52764" lon="2.02039">
        <ele>2047</ele>
        <time>2018-07-07T09:17:00.000Z</time>
      </trkpt>
      <trkpt lat="42.52762" lon="2.02039">
        <ele>2047</ele>
        <time>2018-07-07T09:17:01.000Z</time>
      </trkpt>
      <trkpt lat="42.52759" lon="2.02038">
        <ele>2047</ele>
        <time>2018-07-07T09:17:02.000Z</time>
      </trkpt>
      <trkpt lat="42.52756" lon="2.02038">
        <ele>2047</ele>
        <time>2018-07-07T09:17:03.000Z</time>
      </trkpt>
      <trkpt lat="42.52754" lon="2.02037">
        <ele>2047</ele>
        <time>2018-07-07T09:17:04.000Z</time>
      </trkpt>
      <trkpt lat="42.52751" lon="2.02036">
        <ele>2047</ele>
        <time>2018-07-07T09:17:05.000Z</time>
      </trkpt>
      <trkpt lat="42.52748" lon="2.02035">
        <ele>2045</ele>
        <time>2018-07-07T09:17:06.000Z</time>
      </trkpt>
      <trkpt lat="42.52746" lon="2.02034">
        <ele>2045</ele>
        <time>2018-07-07T09:17:07.000Z</time>
      </trkpt>
      <trkpt lat="42.52743" lon="2.02034">
        <ele>2045</ele>
        <time>2018-07-07T09:17:08.000Z</time>
      </trkpt>
      <trkpt lat="42.52741" lon="2.02033">
        <ele>2045</ele>
        <time>2018-07-07T09:17:09.000Z</time>
      </trkpt>
      <trkpt lat="42.52738" lon="2.02032">
        <ele>2045</ele>
        <time>2018-07-07T09:17:10.000Z</time>
      </trkpt>
      <trkpt lat="42.52735" lon="2.02031">
        <ele>2045</ele>
        <time>2018-07-07T09:17:11.000Z</time>
      </trkpt>
      <trkpt lat="42.52733" lon="2.0203">
        <ele>2045</ele>
        <time>2018-07-07T09:17:12.000Z</time>
      </trkpt>
      <trkpt lat="42.52731" lon="2.02029">
        <ele>2045</ele>
        <time>2018-07-07T09:17:13.000Z</time>
      </trkpt>
      <trkpt lat="42.52728" lon="2.02028">
        <ele>2045</ele>
        <time>2018-07-07T09:17:14.000Z</time>
      </trkpt>
      <trkpt lat="42.52725" lon="2.02027">
        <ele>2045</ele>
        <time>2018-07-07T09:17:15.000Z</time>
      </trkpt>
      <trkpt lat="42.52723" lon="2.02026">
        <ele>2045</ele>
        <time>2018-07-07T09:17:16.000Z</time>
      </trkpt>
      <trkpt lat="42.52721" lon="2.02025">
        <ele>2045</ele>
        <time>2018-07-07T09:17:17.000Z</time>
      </trkpt>
      <trkpt lat="42.52718" lon="2.02023">
        <ele>2045</ele>
        <time>2018-07-07T09:17:18.000Z</time>
      </trkpt>
      <trkpt lat="42.52716" lon="2.02021">
        <ele>2045</ele>
        <time>2018-07-07T09:17:19.000Z</time>
      </trkpt>
      <trkpt lat="42.52714" lon="2.02019">
        <ele>2045</ele>
        <time>2018-07-07T09:17:20.000Z</time>
      </trkpt>
      <trkpt lat="42.52712" lon="2.02016">
        <ele>2045</ele>
        <time>2018-07-07T09:17:21.000Z</time>
      </trkpt>
      <trkpt lat="42.5271" lon="2.02014">
        <ele>2045</ele>
        <time>2018-07-07T09:17:22.000Z</time>
      </trkpt>
      <trkpt lat="42.52708" lon="2.02012">
        <ele>2045</ele>
        <time>2018-07-07T09:17:23.000Z</time>
      </trkpt>
      <trkpt lat="42.52706" lon="2.02011">
        <ele>2045</ele>
        <time>2018-07-07T09:17:24.000Z</time>
      </trkpt>
      <trkpt lat="42.52703" lon="2.0201">
        <ele>2045</ele>
        <time>2018-07-07T09:17:25.000Z</time>
      </trkpt>
      <trkpt lat="42.52701" lon="2.02009">
        <ele>2045</ele>
        <time>2018-07-07T09:17:26.000Z</time>
      </trkpt>
      <trkpt lat="42.52698" lon="2.02008">
        <ele>2044</ele>
        <time>2018-07-07T09:17:27.000Z</time>
      </trkpt>
      <trkpt lat="42.52696" lon="2.02008">
        <ele>2044</ele>
        <time>2018-07-07T09:17:28.000Z</time>
      </trkpt>
      <trkpt lat="42.52694" lon="2.02008">
        <ele>2044</ele>
        <time>2018-07-07T09:17:29.000Z</time>
      </trkpt>
      <trkpt lat="42.52691" lon="2.02009">
        <ele>2044</ele>
        <time>2018-07-07T09:17:30.000Z</time>
      </trkpt>
      <trkpt lat="42.52688" lon="2.0201">
        <ele>2044</ele>
        <time>2018-07-07T09:17:31.000Z</time>
      </trkpt>
      <trkpt lat="42.52686" lon="2.02012">
        <ele>2044</ele>
        <time>2018-07-07T09:17:32.000Z</time>
      </trkpt>
      <trkpt lat="42.52684" lon="2.02013">
        <ele>2044</ele>
        <time>2018-07-07T09:17:33.000Z</time>
      </trkpt>
      <trkpt lat="42.52681" lon="2.02015">
        <ele>2044</ele>
        <time>2018-07-07T09:17:34.000Z</time>
      </trkpt>
      <trkpt lat="42.52679" lon="2.02016">
        <ele>2044</ele>
        <time>2018-07-07T09:17:35.000Z</time>
      </trkpt>
      <trkpt lat="42.52677" lon="2.02018">
        <ele>2044</ele>
        <time>2018-07-07T09:17:36.000Z</time>
      </trkpt>
      <trkpt lat="42.52675" lon="2.02019">
        <ele>2044</ele>
        <time>2018-07-07T09:17:37.000Z</time>
      </trkpt>
      <trkpt lat="42.52673" lon="2.02021">
        <ele>2044</ele>
        <time>2018-07-07T09:17:38.000Z</time>
      </trkpt>
      <trkpt lat="42.52672" lon="2.02023">
        <ele>2044</ele>
        <time>2018-07-07T09:17:39.000Z</time>
      </trkpt>
      <trkpt lat="42.5267" lon="2.02026">
        <ele>2044</ele>
        <time>2018-07-07T09:17:40.000Z</time>
      </trkpt>
      <trkpt lat="42.52668" lon="2.02028">
        <ele>2044</ele>
        <time>2018-07-07T09:17:41.000Z</time>
      </trkpt>
      <trkpt lat="42.52667" lon="2.0203">
        <ele>2044</ele>
        <time>2018-07-07T09:17:42.000Z</time>
      </trkpt>
      <trkpt lat="42.52665" lon="2.02032">
        <ele>2044</ele>
        <time>2018-07-07T09:17:43.000Z</time>
      </trkpt>
      <trkpt lat="42.52663" lon="2.02034">
        <ele>2044</ele>
        <time>2018-07-07T09:17:44.000Z</time>
      </trkpt>
      <trkpt lat="42.52662" lon="2.02036">
        <ele>2044</ele>
        <time>2018-07-07T09:17:45.000Z</time>
      </trkpt>
      <trkpt lat="42.5266" lon="2.02038">
        <ele>2044</ele>
        <time>2018-07-07T09:17:46.000Z</time>
      </trkpt>
      <trkpt lat="42.52659" lon="2.02041">
        <ele>2044</ele>
        <time>2018-07-07T09:17:47.000Z</time>
      </trkpt>
      <trkpt lat="42.52657" lon="2.02044">
        <ele>2043</ele>
        <time>2018-07-07T09:17:48.000Z</time>
      </trkpt>
      <trkpt lat="42.52656" lon="2.02046">
        <ele>2043</ele>
        <time>2018-07-07T09:17:49.000Z</time>
      </trkpt>
      <trkpt lat="42.52654" lon="2.02049">
        <ele>2043</ele>
        <time>2018-07-07T09:17:50.000Z</time>
      </trkpt>
      <trkpt lat="42.52652" lon="2.02052">
        <ele>2043</ele>
        <time>2018-07-07T09:17:51.000Z</time>
      </trkpt>
      <trkpt lat="42.52651" lon="2.02055">
        <ele>2043</ele>
        <time>2018-07-07T09:17:52.000Z</time>
      </trkpt>
      <trkpt lat="42.52649" lon="2.02058">
        <ele>2043</ele>
        <time>2018-07-07T09:17:53.000Z</time>
      </trkpt>
      <trkpt lat="42.52648" lon="2.0206">
        <ele>2043</ele>
        <time>2018-07-07T09:17:54.000Z</time>
      </trkpt>
      <trkpt lat="42.52647" lon="2.02062">
        <ele>2043</ele>
        <time>2018-07-07T09:17:55.000Z</time>
      </trkpt>
      <trkpt lat="42.52645" lon="2.02065">
        <ele>2043</ele>
        <time>2018-07-07T09:17:56.000Z</time>
      </trkpt>
      <trkpt lat="42.52644" lon="2.02067">
        <ele>2043</ele>
        <time>2018-07-07T09:17:57.000Z</time>
      </trkpt>
      <trkpt lat="42.52642" lon="2.0207">
        <ele>2043</ele>
        <time>2018-07-07T09:17:58.000Z</time>
      </trkpt>
      <trkpt lat="42.52641" lon="2.02072">
        <ele>2043</ele>
        <time>2018-07-07T09:17:59.000Z</time>
      </trkpt>
      <trkpt lat="42.52639" lon="2.02074">
        <ele>2043</ele>
        <time>2018-07-07T09:18:00.000Z</time>
      </trkpt>
      <trkpt lat="42.52637" lon="2.02077">
        <ele>2043</ele>
        <time>2018-07-07T09:18:01.000Z</time>
      </trkpt>
      <trkpt lat="42.52635" lon="2.02079">
        <ele>2043</ele>
        <time>2018-07-07T09:18:02.000Z</time>
      </trkpt>
      <trkpt lat="42.52633" lon="2.02082">
        <ele>2043</ele>
        <time>2018-07-07T09:18:03.000Z</time>
      </trkpt>
      <trkpt lat="42.52631" lon="2.02085">
        <ele>2040</ele>
        <time>2018-07-07T09:18:04.000Z</time>
      </trkpt>
      <trkpt lat="42.52629" lon="2.02088">
        <ele>2040</ele>
        <time>2018-07-07T09:18:05.000Z</time>
      </trkpt>
      <trkpt lat="42.52628" lon="2.0209">
        <ele>2040</ele>
        <time>2018-07-07T09:18:06.000Z</time>
      </trkpt>
      <trkpt lat="42.52626" lon="2.02093">
        <ele>2040</ele>
        <time>2018-07-07T09:18:07.000Z</time>
      </trkpt>
      <trkpt lat="42.52624" lon="2.02096">
        <ele>2040</ele>
        <time>2018-07-07T09:18:08.000Z</time>
      </trkpt>
      <trkpt lat="42.52622" lon="2.02098">
        <ele>2040</ele>
        <time>2018-07-07T09:18:09.000Z</time>
      </trkpt>
      <trkpt lat="42.5262" lon="2.02101">
        <ele>2040</ele>
        <time>2018-07-07T09:18:10.000Z</time>
      </trkpt>
      <trkpt lat="42.52617" lon="2.02103">
        <ele>2040</ele>
        <time>2018-07-07T09:18:11.000Z</time>
      </trkpt>
      <trkpt lat="42.52615" lon="2.02105">
        <ele>2040</ele>
        <time>2018-07-07T09:18:12.000Z</time>
      </trkpt>
      <trkpt lat="42.52613" lon="2.02108">
        <ele>2040</ele>
        <time>2018-07-07T09:18:13.000Z</time>
      </trkpt>
      <trkpt lat="42.52611" lon="2.0211">
        <ele>2039</ele>
        <time>2018-07-07T09:18:14.000Z</time>
      </trkpt>
      <trkpt lat="42.52607" lon="2.02115">
        <ele>2039</ele>
        <time>2018-07-07T09:18:16.000Z</time>
      </trkpt>
      <trkpt lat="42.52605" lon="2.02117">
        <ele>2039</ele>
        <time>2018-07-07T09:18:17.000Z</time>
      </trkpt>
      <trkpt lat="42.52603" lon="2.0212">
        <ele>2039</ele>
        <time>2018-07-07T09:18:18.000Z</time>
      </trkpt>
      <trkpt lat="42.52601" lon="2.02122">
        <ele>2039</ele>
        <time>2018-07-07T09:18:19.000Z</time>
      </trkpt>
      <trkpt lat="42.52599" lon="2.02125">
        <ele>2039</ele>
        <time>2018-07-07T09:18:20.000Z</time>
      </trkpt>
      <trkpt lat="42.52597" lon="2.02127">
        <ele>2039</ele>
        <time>2018-07-07T09:18:21.000Z</time>
      </trkpt>
      <trkpt lat="42.52595" lon="2.0213">
        <ele>2039</ele>
        <time>2018-07-07T09:18:22.000Z</time>
      </trkpt>
      <trkpt lat="42.52592" lon="2.02132">
        <ele>2038</ele>
        <time>2018-07-07T09:18:23.000Z</time>
      </trkpt>
      <trkpt lat="42.5259" lon="2.02135">
        <ele>2038</ele>
        <time>2018-07-07T09:18:24.000Z</time>
      </trkpt>
      <trkpt lat="42.52588" lon="2.02137">
        <ele>2038</ele>
        <time>2018-07-07T09:18:25.000Z</time>
      </trkpt>
      <trkpt lat="42.52585" lon="2.02141">
        <ele>2038</ele>
        <time>2018-07-07T09:18:27.000Z</time>
      </trkpt>
      <trkpt lat="42.52583" lon="2.02143">
        <ele>2038</ele>
        <time>2018-07-07T09:18:28.000Z</time>
      </trkpt>
      <trkpt lat="42.52581" lon="2.02145">
        <ele>2038</ele>
        <time>2018-07-07T09:18:29.000Z</time>
      </trkpt>
      <trkpt lat="42.5258" lon="2.02147">
        <ele>2037</ele>
        <time>2018-07-07T09:18:30.000Z</time>
      </trkpt>
      <trkpt lat="42.52578" lon="2.02148">
        <ele>2037</ele>
        <time>2018-07-07T09:18:31.000Z</time>
      </trkpt>
      <trkpt lat="42.52575" lon="2.02151">
        <ele>2037</ele>
        <time>2018-07-07T09:18:33.000Z</time>
      </trkpt>
      <trkpt lat="42.52573" lon="2.02152">
        <ele>2037</ele>
        <time>2018-07-07T09:18:34.000Z</time>
      </trkpt>
      <trkpt lat="42.52571" lon="2.02154">
        <ele>2037</ele>
        <time>2018-07-07T09:18:35.000Z</time>
      </trkpt>
      <trkpt lat="42.52568" lon="2.02156">
        <ele>2037</ele>
        <time>2018-07-07T09:18:36.000Z</time>
      </trkpt>
      <trkpt lat="42.52565" lon="2.02159">
        <ele>2037</ele>
        <time>2018-07-07T09:18:37.000Z</time>
      </trkpt>
      <trkpt lat="42.52563" lon="2.02161">
        <ele>2037</ele>
        <time>2018-07-07T09:18:38.000Z</time>
      </trkpt>
      <trkpt lat="42.5256" lon="2.02163">
        <ele>2037</ele>
        <time>2018-07-07T09:18:39.000Z</time>
      </trkpt>
      <trkpt lat="42.52558" lon="2.02166">
        <ele>2037</ele>
        <time>2018-07-07T09:18:40.000Z</time>
      </trkpt>
      <trkpt lat="42.52557" lon="2.02169">
        <ele>2034</ele>
        <time>2018-07-07T09:18:41.000Z</time>
      </trkpt>
      <trkpt lat="42.52554" lon="2.02171">
        <ele>2034</ele>
        <time>2018-07-07T09:18:42.000Z</time>
      </trkpt>
      <trkpt lat="42.52552" lon="2.02174">
        <ele>2034</ele>
        <time>2018-07-07T09:18:43.000Z</time>
      </trkpt>
      <trkpt lat="42.5255" lon="2.02176">
        <ele>2034</ele>
        <time>2018-07-07T09:18:44.000Z</time>
      </trkpt>
      <trkpt lat="42.52548" lon="2.02179">
        <ele>2034</ele>
        <time>2018-07-07T09:18:45.000Z</time>
      </trkpt>
      <trkpt lat="42.52545" lon="2.0218">
        <ele>2034</ele>
        <time>2018-07-07T09:18:46.000Z</time>
      </trkpt>
      <trkpt lat="42.52541" lon="2.02183">
        <ele>2034</ele>
        <time>2018-07-07T09:18:47.000Z</time>
      </trkpt>
      <trkpt lat="42.52537" lon="2.02185">
        <ele>2034</ele>
        <time>2018-07-07T09:18:48.000Z</time>
      </trkpt>
      <trkpt lat="42.52533" lon="2.02187">
        <ele>2034</ele>
        <time>2018-07-07T09:18:49.000Z</time>
      </trkpt>
      <trkpt lat="42.5253" lon="2.02188">
        <ele>2034</ele>
        <time>2018-07-07T09:18:50.000Z</time>
      </trkpt>
      <trkpt lat="42.52527" lon="2.02189">
        <ele>2034</ele>
        <time>2018-07-07T09:18:51.000Z</time>
      </trkpt>
      <trkpt lat="42.52524" lon="2.0219">
        <ele>2034</ele>
        <time>2018-07-07T09:18:52.000Z</time>
      </trkpt>
      <trkpt lat="42.52522" lon="2.02192">
        <ele>2034</ele>
        <time>2018-07-07T09:18:53.000Z</time>
      </trkpt>
      <trkpt lat="42.52518" lon="2.02193">
        <ele>2034</ele>
        <time>2018-07-07T09:18:54.000Z</time>
      </trkpt>
      <trkpt lat="42.52515" lon="2.02195">
        <ele>2034</ele>
        <time>2018-07-07T09:18:55.000Z</time>
      </trkpt>
      <trkpt lat="42.52512" lon="2.02196">
        <ele>2034</ele>
        <time>2018-07-07T09:18:56.000Z</time>
      </trkpt>
      <trkpt lat="42.52509" lon="2.02198">
        <ele>2034</ele>
        <time>2018-07-07T09:18:57.000Z</time>
      </trkpt>
      <trkpt lat="42.52506" lon="2.02199">
        <ele>2034</ele>
        <time>2018-07-07T09:18:58.000Z</time>
      </trkpt>
      <trkpt lat="42.52504" lon="2.02199">
        <ele>2034</ele>
        <time>2018-07-07T09:18:59.000Z</time>
      </trkpt>
      <trkpt lat="42.52501" lon="2.02199">
        <ele>2034</ele>
        <time>2018-07-07T09:19:00.000Z</time>
      </trkpt>
      <trkpt lat="42.525" lon="2.022">
        <ele>2032</ele>
        <time>2018-07-07T09:19:01.000Z</time>
      </trkpt>
      <trkpt lat="42.52499" lon="2.02202">
        <ele>2032</ele>
        <time>2018-07-07T09:19:03.000Z</time>
      </trkpt>
      <trkpt lat="42.52497" lon="2.02205">
        <ele>2032</ele>
        <time>2018-07-07T09:19:04.000Z</time>
      </trkpt>
      <trkpt lat="42.52496" lon="2.02207">
        <ele>2032</ele>
        <time>2018-07-07T09:19:05.000Z</time>
      </trkpt>
      <trkpt lat="42.52495" lon="2.02209">
        <ele>2032</ele>
        <time>2018-07-07T09:19:06.000Z</time>
      </trkpt>
      <trkpt lat="42.52493" lon="2.02212">
        <ele>2032</ele>
        <time>2018-07-07T09:19:07.000Z</time>
      </trkpt>
      <trkpt lat="42.52491" lon="2.02214">
        <ele>2031</ele>
        <time>2018-07-07T09:19:08.000Z</time>
      </trkpt>
      <trkpt lat="42.52489" lon="2.02217">
        <ele>2031</ele>
        <time>2018-07-07T09:19:09.000Z</time>
      </trkpt>
      <trkpt lat="42.52488" lon="2.0222">
        <ele>2031</ele>
        <time>2018-07-07T09:19:10.000Z</time>
      </trkpt>
      <trkpt lat="42.52486" lon="2.02222">
        <ele>2031</ele>
        <time>2018-07-07T09:19:11.000Z</time>
      </trkpt>
      <trkpt lat="42.52484" lon="2.02225">
        <ele>2031</ele>
        <time>2018-07-07T09:19:12.000Z</time>
      </trkpt>
      <trkpt lat="42.52483" lon="2.02227">
        <ele>2031</ele>
        <time>2018-07-07T09:19:13.000Z</time>
      </trkpt>
      <trkpt lat="42.52482" lon="2.02229">
        <ele>2031</ele>
        <time>2018-07-07T09:19:14.000Z</time>
      </trkpt>
      <trkpt lat="42.5248" lon="2.02232">
        <ele>2031</ele>
        <time>2018-07-07T09:19:15.000Z</time>
      </trkpt>
      <trkpt lat="42.52478" lon="2.02235">
        <ele>2031</ele>
        <time>2018-07-07T09:19:16.000Z</time>
      </trkpt>
      <trkpt lat="42.52476" lon="2.02237">
        <ele>2030</ele>
        <time>2018-07-07T09:19:17.000Z</time>
      </trkpt>
      <trkpt lat="42.52473" lon="2.0224">
        <ele>2030</ele>
        <time>2018-07-07T09:19:18.000Z</time>
      </trkpt>
      <trkpt lat="42.52471" lon="2.02242">
        <ele>2030</ele>
        <time>2018-07-07T09:19:19.000Z</time>
      </trkpt>
      <trkpt lat="42.52469" lon="2.02244">
        <ele>2030</ele>
        <time>2018-07-07T09:19:20.000Z</time>
      </trkpt>
      <trkpt lat="42.52466" lon="2.02246">
        <ele>2030</ele>
        <time>2018-07-07T09:19:21.000Z</time>
      </trkpt>
      <trkpt lat="42.52464" lon="2.02249">
        <ele>2030</ele>
        <time>2018-07-07T09:19:22.000Z</time>
      </trkpt>
      <trkpt lat="42.52462" lon="2.02251">
        <ele>2028</ele>
        <time>2018-07-07T09:19:23.000Z</time>
      </trkpt>
      <trkpt lat="42.5246" lon="2.02253">
        <ele>2028</ele>
        <time>2018-07-07T09:19:24.000Z</time>
      </trkpt>
      <trkpt lat="42.52458" lon="2.02255">
        <ele>2028</ele>
        <time>2018-07-07T09:19:25.000Z</time>
      </trkpt>
      <trkpt lat="42.52455" lon="2.02258">
        <ele>2028</ele>
        <time>2018-07-07T09:19:26.000Z</time>
      </trkpt>
      <trkpt lat="42.52453" lon="2.0226">
        <ele>2028</ele>
        <time>2018-07-07T09:19:27.000Z</time>
      </trkpt>
      <trkpt lat="42.5245" lon="2.02261">
        <ele>2028</ele>
        <time>2018-07-07T09:19:28.000Z</time>
      </trkpt>
      <trkpt lat="42.52447" lon="2.02262">
        <ele>2028</ele>
        <time>2018-07-07T09:19:29.000Z</time>
      </trkpt>
      <trkpt lat="42.52444" lon="2.02263">
        <ele>2028</ele>
        <time>2018-07-07T09:19:30.000Z</time>
      </trkpt>
      <trkpt lat="42.52441" lon="2.02264">
        <ele>2027</ele>
        <time>2018-07-07T09:19:31.000Z</time>
      </trkpt>
      <trkpt lat="42.52439" lon="2.02264">
        <ele>2027</ele>
        <time>2018-07-07T09:19:32.000Z</time>
      </trkpt>
      <trkpt lat="42.52437" lon="2.02265">
        <ele>2027</ele>
        <time>2018-07-07T09:19:33.000Z</time>
      </trkpt>
      <trkpt lat="42.52434" lon="2.02266">
        <ele>2027</ele>
        <time>2018-07-07T09:19:34.000Z</time>
      </trkpt>
      <trkpt lat="42.52433" lon="2.02267">
        <ele>2027</ele>
        <time>2018-07-07T09:19:35.000Z</time>
      </trkpt>
      <trkpt lat="42.5243" lon="2.02269">
        <ele>2027</ele>
        <time>2018-07-07T09:19:37.000Z</time>
      </trkpt>
      <trkpt lat="42.52427" lon="2.02271">
        <ele>2027</ele>
        <time>2018-07-07T09:19:39.000Z</time>
      </trkpt>
      <trkpt lat="42.52426" lon="2.02273">
        <ele>2027</ele>
        <time>2018-07-07T09:19:40.000Z</time>
      </trkpt>
      <trkpt lat="42.52423" lon="2.02275">
        <ele>2027</ele>
        <time>2018-07-07T09:19:41.000Z</time>
      </trkpt>
      <trkpt lat="42.52422" lon="2.02277">
        <ele>2027</ele>
        <time>2018-07-07T09:19:42.000Z</time>
      </trkpt>
      <trkpt lat="42.52419" lon="2.02281">
        <ele>2027</ele>
        <time>2018-07-07T09:19:44.000Z</time>
      </trkpt>
      <trkpt lat="42.52417" lon="2.02283">
        <ele>2027</ele>
        <time>2018-07-07T09:19:45.000Z</time>
      </trkpt>
      <trkpt lat="42.52416" lon="2.02285">
        <ele>2022</ele>
        <time>2018-07-07T09:19:46.000Z</time>
      </trkpt>
      <trkpt lat="42.52415" lon="2.02288">
        <ele>2022</ele>
        <time>2018-07-07T09:19:48.000Z</time>
      </trkpt>
      <trkpt lat="42.52413" lon="2.02291">
        <ele>2022</ele>
        <time>2018-07-07T09:19:50.000Z</time>
      </trkpt>
      <trkpt lat="42.5241" lon="2.02294">
        <ele>2022</ele>
        <time>2018-07-07T09:19:52.000Z</time>
      </trkpt>
      <trkpt lat="42.52409" lon="2.02296">
        <ele>2022</ele>
        <time>2018-07-07T09:19:53.000Z</time>
      </trkpt>
      <trkpt lat="42.52402" lon="2.02302">
        <ele>2022</ele>
        <time>2018-07-07T09:19:57.000Z</time>
      </trkpt>
      <trkpt lat="42.524" lon="2.02304">
        <ele>2022</ele>
        <time>2018-07-07T09:19:58.000Z</time>
      </trkpt>
      <trkpt lat="42.52397" lon="2.02307">
        <ele>2022</ele>
        <time>2018-07-07T09:19:59.000Z</time>
      </trkpt>
      <trkpt lat="42.52394" lon="2.02308">
        <ele>2022</ele>
        <time>2018-07-07T09:20:00.000Z</time>
      </trkpt>
      <trkpt lat="42.52391" lon="2.02309">
        <ele>2021</ele>
        <time>2018-07-07T09:20:01.000Z</time>
      </trkpt>
      <trkpt lat="42.52389" lon="2.02309">
        <ele>2021</ele>
        <time>2018-07-07T09:20:02.000Z</time>
      </trkpt>
      <trkpt lat="42.52385" lon="2.0231">
        <ele>2021</ele>
        <time>2018-07-07T09:20:03.000Z</time>
      </trkpt>
      <trkpt lat="42.52382" lon="2.0231">
        <ele>2021</ele>
        <time>2018-07-07T09:20:04.000Z</time>
      </trkpt>
      <trkpt lat="42.5238" lon="2.02311">
        <ele>2021</ele>
        <time>2018-07-07T09:20:05.000Z</time>
      </trkpt>
      <trkpt lat="42.52377" lon="2.02312">
        <ele>2021</ele>
        <time>2018-07-07T09:20:06.000Z</time>
      </trkpt>
      <trkpt lat="42.52376" lon="2.02313">
        <ele>2021</ele>
        <time>2018-07-07T09:20:07.000Z</time>
      </trkpt>
      <trkpt lat="42.52374" lon="2.02314">
        <ele>2020</ele>
        <time>2018-07-07T09:20:08.000Z</time>
      </trkpt>
      <trkpt lat="42.52372" lon="2.02315">
        <ele>2020</ele>
        <time>2018-07-07T09:20:09.000Z</time>
      </trkpt>
      <trkpt lat="42.5237" lon="2.02316">
        <ele>2020</ele>
        <time>2018-07-07T09:20:10.000Z</time>
      </trkpt>
      <trkpt lat="42.52368" lon="2.02316">
        <ele>2020</ele>
        <time>2018-07-07T09:20:11.000Z</time>
      </trkpt>
      <trkpt lat="42.52366" lon="2.02316">
        <ele>2020</ele>
        <time>2018-07-07T09:20:12.000Z</time>
      </trkpt>
      <trkpt lat="42.52364" lon="2.02316">
        <ele>2020</ele>
        <time>2018-07-07T09:20:13.000Z</time>
      </trkpt>
      <trkpt lat="42.5236" lon="2.02318">
        <ele>2019</ele>
        <time>2018-07-07T09:20:15.000Z</time>
      </trkpt>
      <trkpt lat="42.52359" lon="2.02319">
        <ele>2019</ele>
        <time>2018-07-07T09:20:16.000Z</time>
      </trkpt>
      <trkpt lat="42.52357" lon="2.02322">
        <ele>2019</ele>
        <time>2018-07-07T09:20:18.000Z</time>
      </trkpt>
      <trkpt lat="42.52355" lon="2.02326">
        <ele>2019</ele>
        <time>2018-07-07T09:20:20.000Z</time>
      </trkpt>
      <trkpt lat="42.52354" lon="2.02329">
        <ele>2019</ele>
        <time>2018-07-07T09:20:22.000Z</time>
      </trkpt>
      <trkpt lat="42.52353" lon="2.02333">
        <ele>2019</ele>
        <time>2018-07-07T09:20:24.000Z</time>
      </trkpt>
      <trkpt lat="42.52351" lon="2.02338">
        <ele>2019</ele>
        <time>2018-07-07T09:20:26.000Z</time>
      </trkpt>
      <trkpt lat="42.52348" lon="2.0234">
        <ele>2019</ele>
        <time>2018-07-07T09:20:27.000Z</time>
      </trkpt>
      <trkpt lat="42.52346" lon="2.02342">
        <ele>2019</ele>
        <time>2018-07-07T09:20:28.000Z</time>
      </trkpt>
      <trkpt lat="42.52343" lon="2.02343">
        <ele>2019</ele>
        <time>2018-07-07T09:20:29.000Z</time>
      </trkpt>
      <trkpt lat="42.5234" lon="2.02344">
        <ele>2018</ele>
        <time>2018-07-07T09:20:30.000Z</time>
      </trkpt>
      <trkpt lat="42.52337" lon="2.02344">
        <ele>2018</ele>
        <time>2018-07-07T09:20:31.000Z</time>
      </trkpt>
      <trkpt lat="42.52334" lon="2.02343">
        <ele>2018</ele>
        <time>2018-07-07T09:20:32.000Z</time>
      </trkpt>
      <trkpt lat="42.52332" lon="2.02342">
        <ele>2016</ele>
        <time>2018-07-07T09:20:33.000Z</time>
      </trkpt>
      <trkpt lat="42.52329" lon="2.02341">
        <ele>2015</ele>
        <time>2018-07-07T09:20:34.000Z</time>
      </trkpt>
      <trkpt lat="42.52327" lon="2.02341">
        <ele>2015</ele>
        <time>2018-07-07T09:20:35.000Z</time>
      </trkpt>
      <trkpt lat="42.52325" lon="2.02342">
        <ele>2015</ele>
        <time>2018-07-07T09:20:36.000Z</time>
      </trkpt>
      <trkpt lat="42.52324" lon="2.02342">
        <ele>2015</ele>
        <time>2018-07-07T09:20:37.000Z</time>
      </trkpt>
      <trkpt lat="42.52322" lon="2.02343">
        <ele>2015</ele>
        <time>2018-07-07T09:20:38.000Z</time>
      </trkpt>
      <trkpt lat="42.52319" lon="2.02345">
        <ele>2015</ele>
        <time>2018-07-07T09:20:40.000Z</time>
      </trkpt>
      <trkpt lat="42.52317" lon="2.02344">
        <ele>2015</ele>
        <time>2018-07-07T09:20:41.000Z</time>
      </trkpt>
      <trkpt lat="42.52315" lon="2.02343">
        <ele>2015</ele>
        <time>2018-07-07T09:20:42.000Z</time>
      </trkpt>
      <trkpt lat="42.52313" lon="2.02343">
        <ele>2015</ele>
        <time>2018-07-07T09:20:43.000Z</time>
      </trkpt>
      <trkpt lat="42.52311" lon="2.02342">
        <ele>2015</ele>
        <time>2018-07-07T09:20:44.000Z</time>
      </trkpt>
      <trkpt lat="42.52309" lon="2.02341">
        <ele>2014</ele>
        <time>2018-07-07T09:20:45.000Z</time>
      </trkpt>
      <trkpt lat="42.52305" lon="2.02341">
        <ele>2014</ele>
        <time>2018-07-07T09:20:47.000Z</time>
      </trkpt>
      <trkpt lat="42.52303" lon="2.0234">
        <ele>2014</ele>
        <time>2018-07-07T09:20:48.000Z</time>
      </trkpt>
      <trkpt lat="42.523" lon="2.0234">
        <ele>2014</ele>
        <time>2018-07-07T09:20:50.000Z</time>
      </trkpt>
      <trkpt lat="42.52297" lon="2.02341">
        <ele>2014</ele>
        <time>2018-07-07T09:20:52.000Z</time>
      </trkpt>
      <trkpt lat="42.52295" lon="2.02342">
        <ele>2014</ele>
        <time>2018-07-07T09:20:54.000Z</time>
      </trkpt>
      <trkpt lat="42.52292" lon="2.0234">
        <ele>2014</ele>
        <time>2018-07-07T09:20:55.000Z</time>
      </trkpt>
      <trkpt lat="42.5229" lon="2.02339">
        <ele>2013</ele>
        <time>2018-07-07T09:20:56.000Z</time>
      </trkpt>
      <trkpt lat="42.52287" lon="2.02339">
        <ele>2013</ele>
        <time>2018-07-07T09:20:57.000Z</time>
      </trkpt>
      <trkpt lat="42.52285" lon="2.02339">
        <ele>2013</ele>
        <time>2018-07-07T09:20:58.000Z</time>
      </trkpt>
      <trkpt lat="42.52282" lon="2.02339">
        <ele>2013</ele>
        <time>2018-07-07T09:20:59.000Z</time>
      </trkpt>
      <trkpt lat="42.5228" lon="2.02338">
        <ele>2013</ele>
        <time>2018-07-07T09:21:00.000Z</time>
      </trkpt>
      <trkpt lat="42.52277" lon="2.02338">
        <ele>2012</ele>
        <time>2018-07-07T09:21:01.000Z</time>
      </trkpt>
      <trkpt lat="42.52274" lon="2.02336">
        <ele>2012</ele>
        <time>2018-07-07T09:21:02.000Z</time>
      </trkpt>
      <trkpt lat="42.52272" lon="2.02334">
        <ele>2012</ele>
        <time>2018-07-07T09:21:03.000Z</time>
      </trkpt>
      <trkpt lat="42.5227" lon="2.02331">
        <ele>2010</ele>
        <time>2018-07-07T09:21:04.000Z</time>
      </trkpt>
      <trkpt lat="42.52268" lon="2.02329">
        <ele>2010</ele>
        <time>2018-07-07T09:21:05.000Z</time>
      </trkpt>
      <trkpt lat="42.52267" lon="2.02327">
        <ele>2010</ele>
        <time>2018-07-07T09:21:06.000Z</time>
      </trkpt>
      <trkpt lat="42.52265" lon="2.02325">
        <ele>2009</ele>
        <time>2018-07-07T09:21:07.000Z</time>
      </trkpt>
      <trkpt lat="42.52263" lon="2.02322">
        <ele>2009</ele>
        <time>2018-07-07T09:21:08.000Z</time>
      </trkpt>
      <trkpt lat="42.52261" lon="2.0232">
        <ele>2009</ele>
        <time>2018-07-07T09:21:09.000Z</time>
      </trkpt>
      <trkpt lat="42.5226" lon="2.02317">
        <ele>2009</ele>
        <time>2018-07-07T09:21:10.000Z</time>
      </trkpt>
      <trkpt lat="42.52259" lon="2.02314">
        <ele>2009</ele>
        <time>2018-07-07T09:21:11.000Z</time>
      </trkpt>
      <trkpt lat="42.52258" lon="2.0231">
        <ele>2009</ele>
        <time>2018-07-07T09:21:12.000Z</time>
      </trkpt>
      <trkpt lat="42.52257" lon="2.02306">
        <ele>2009</ele>
        <time>2018-07-07T09:21:13.000Z</time>
      </trkpt>
      <trkpt lat="42.52257" lon="2.02302">
        <ele>2009</ele>
        <time>2018-07-07T09:21:14.000Z</time>
      </trkpt>
      <trkpt lat="42.52257" lon="2.02298">
        <ele>2009</ele>
        <time>2018-07-07T09:21:15.000Z</time>
      </trkpt>
      <trkpt lat="42.52256" lon="2.02295">
        <ele>2009</ele>
        <time>2018-07-07T09:21:16.000Z</time>
      </trkpt>
      <trkpt lat="42.52256" lon="2.02292">
        <ele>2009</ele>
        <time>2018-07-07T09:21:17.000Z</time>
      </trkpt>
      <trkpt lat="42.52255" lon="2.02289">
        <ele>2009</ele>
        <time>2018-07-07T09:21:18.000Z</time>
      </trkpt>
      <trkpt lat="42.52254" lon="2.02287">
        <ele>2009</ele>
        <time>2018-07-07T09:21:19.000Z</time>
      </trkpt>
      <trkpt lat="42.52252" lon="2.02285">
        <ele>2009</ele>
        <time>2018-07-07T09:21:20.000Z</time>
      </trkpt>
      <trkpt lat="42.52251" lon="2.02282">
        <ele>2009</ele>
        <time>2018-07-07T09:21:21.000Z</time>
      </trkpt>
      <trkpt lat="42.5225" lon="2.0228">
        <ele>2008</ele>
        <time>2018-07-07T09:21:22.000Z</time>
      </trkpt>
      <trkpt lat="42.5225" lon="2.02277">
        <ele>2008</ele>
        <time>2018-07-07T09:21:23.000Z</time>
      </trkpt>
      <trkpt lat="42.52249" lon="2.02274">
        <ele>2008</ele>
        <time>2018-07-07T09:21:24.000Z</time>
      </trkpt>
      <trkpt lat="42.52249" lon="2.0227">
        <ele>2007</ele>
        <time>2018-07-07T09:21:26.000Z</time>
      </trkpt>
      <trkpt lat="42.52248" lon="2.02268">
        <ele>2007</ele>
        <time>2018-07-07T09:21:27.000Z</time>
      </trkpt>
      <trkpt lat="42.52247" lon="2.02265">
        <ele>2007</ele>
        <time>2018-07-07T09:21:28.000Z</time>
      </trkpt>
      <trkpt lat="42.52247" lon="2.02263">
        <ele>2006</ele>
        <time>2018-07-07T09:21:29.000Z</time>
      </trkpt>
      <trkpt lat="42.52247" lon="2.0226">
        <ele>2006</ele>
        <time>2018-07-07T09:21:30.000Z</time>
      </trkpt>
      <trkpt lat="42.5225" lon="2.02257">
        <ele>2006</ele>
        <time>2018-07-07T09:21:32.000Z</time>
      </trkpt>
      <trkpt lat="42.52252" lon="2.02256">
        <ele>2006</ele>
        <time>2018-07-07T09:21:34.000Z</time>
      </trkpt>
      <trkpt lat="42.52253" lon="2.02252">
        <ele>2005</ele>
        <time>2018-07-07T09:21:36.000Z</time>
      </trkpt>
      <trkpt lat="42.52253" lon="2.02249">
        <ele>2005</ele>
        <time>2018-07-07T09:21:37.000Z</time>
      </trkpt>
      <trkpt lat="42.52252" lon="2.02246">
        <ele>2005</ele>
        <time>2018-07-07T09:21:38.000Z</time>
      </trkpt>
      <trkpt lat="42.52253" lon="2.02243">
        <ele>2006</ele>
        <time>2018-07-07T09:21:39.000Z</time>
      </trkpt>
      <trkpt lat="42.52253" lon="2.0224">
        <ele>2006</ele>
        <time>2018-07-07T09:21:40.000Z</time>
      </trkpt>
      <trkpt lat="42.52255" lon="2.02236">
        <ele>2007</ele>
        <time>2018-07-07T09:21:42.000Z</time>
      </trkpt>
      <trkpt lat="42.52254" lon="2.02231">
        <ele>2007</ele>
        <time>2018-07-07T09:21:44.000Z</time>
      </trkpt>
      <trkpt lat="42.52253" lon="2.02228">
        <ele>2007</ele>
        <time>2018-07-07T09:21:46.000Z</time>
      </trkpt>
      <trkpt lat="42.52253" lon="2.02225">
        <ele>2007</ele>
        <time>2018-07-07T09:21:48.000Z</time>
      </trkpt>
      <trkpt lat="42.52253" lon="2.02221">
        <ele>2007</ele>
        <time>2018-07-07T09:21:50.000Z</time>
      </trkpt>
      <trkpt lat="42.52253" lon="2.02217">
        <ele>2008</ele>
        <time>2018-07-07T09:21:52.000Z</time>
      </trkpt>
      <trkpt lat="42.52253" lon="2.02214">
        <ele>2008</ele>
        <time>2018-07-07T09:21:53.000Z</time>
      </trkpt>
      <trkpt lat="42.52252" lon="2.02212">
        <ele>2008</ele>
        <time>2018-07-07T09:21:54.000Z</time>
      </trkpt>
      <trkpt lat="42.52252" lon="2.02209">
        <ele>2008</ele>
        <time>2018-07-07T09:21:55.000Z</time>
      </trkpt>
      <trkpt lat="42.52252" lon="2.02206">
        <ele>2007</ele>
        <time>2018-07-07T09:21:56.000Z</time>
      </trkpt>
      <trkpt lat="42.52252" lon="2.02203">
        <ele>2007</ele>
        <time>2018-07-07T09:21:57.000Z</time>
      </trkpt>
      <trkpt lat="42.52252" lon="2.022">
        <ele>2007</ele>
        <time>2018-07-07T09:21:58.000Z</time>
      </trkpt>
      <trkpt lat="42.52251" lon="2.02198">
        <ele>2007</ele>
        <time>2018-07-07T09:21:59.000Z</time>
      </trkpt>
      <trkpt lat="42.52249" lon="2.02194">
        <ele>2004</ele>
        <time>2018-07-07T09:22:01.000Z</time>
      </trkpt>
      <trkpt lat="42.52248" lon="2.02192">
        <ele>2004</ele>
        <time>2018-07-07T09:22:02.000Z</time>
      </trkpt>
      <trkpt lat="42.52248" lon="2.02189">
        <ele>2004</ele>
        <time>2018-07-07T09:22:03.000Z</time>
      </trkpt>
      <trkpt lat="42.52247" lon="2.02186">
        <ele>2004</ele>
        <time>2018-07-07T09:22:04.000Z</time>
      </trkpt>
      <trkpt lat="42.52246" lon="2.02184">
        <ele>2004</ele>
        <time>2018-07-07T09:22:05.000Z</time>
      </trkpt>
      <trkpt lat="42.52245" lon="2.02182">
        <ele>2003</ele>
        <time>2018-07-07T09:22:06.000Z</time>
      </trkpt>
      <trkpt lat="42.52244" lon="2.02179">
        <ele>2003</ele>
        <time>2018-07-07T09:22:07.000Z</time>
      </trkpt>
      <trkpt lat="42.52243" lon="2.02176">
        <ele>2003</ele>
        <time>2018-07-07T09:22:09.000Z</time>
      </trkpt>
      <trkpt lat="42.52241" lon="2.02172">
        <ele>2003</ele>
        <time>2018-07-07T09:22:11.000Z</time>
      </trkpt>
      <trkpt lat="42.52239" lon="2.0217">
        <ele>2003</ele>
        <time>2018-07-07T09:22:12.000Z</time>
      </trkpt>
      <trkpt lat="42.52239" lon="2.02167">
        <ele>2003</ele>
        <time>2018-07-07T09:22:13.000Z</time>
      </trkpt>
      <trkpt lat="42.52236" lon="2.02164">
        <ele>2001</ele>
        <time>2018-07-07T09:22:15.000Z</time>
      </trkpt>
      <trkpt lat="42.52236" lon="2.02161">
        <ele>2001</ele>
        <time>2018-07-07T09:22:17.000Z</time>
      </trkpt>
      <trkpt lat="42.52237" lon="2.02159">
        <ele>2001</ele>
        <time>2018-07-07T09:22:19.000Z</time>
      </trkpt>
      <trkpt lat="42.52235" lon="2.02155">
        <ele>2001</ele>
        <time>2018-07-07T09:22:22.000Z</time>
      </trkpt>
      <trkpt lat="42.52235" lon="2.02152">
        <ele>2001</ele>
        <time>2018-07-07T09:22:24.000Z</time>
      </trkpt>
      <trkpt lat="42.52234" lon="2.0215">
        <ele>2001</ele>
        <time>2018-07-07T09:22:27.000Z</time>
      </trkpt>
      <trkpt lat="42.52231" lon="2.02149">
        <ele>2001</ele>
        <time>2018-07-07T09:22:32.000Z</time>
      </trkpt>
      <trkpt lat="42.52228" lon="2.02146">
        <ele>2001</ele>
        <time>2018-07-07T09:22:36.000Z</time>
      </trkpt>
      <trkpt lat="42.52226" lon="2.02145">
        <ele>2001</ele>
        <time>2018-07-07T09:22:38.000Z</time>
      </trkpt>
      <trkpt lat="42.52224" lon="2.02144">
        <ele>2001</ele>
        <time>2018-07-07T09:22:41.000Z</time>
      </trkpt>
      <trkpt lat="42.52222" lon="2.02143">
        <ele>2001</ele>
        <time>2018-07-07T09:22:43.000Z</time>
      </trkpt>
      <trkpt lat="42.5222" lon="2.02141">
        <ele>2001</ele>
        <time>2018-07-07T09:22:45.000Z</time>
      </trkpt>
      <trkpt lat="42.52218" lon="2.02139">
        <ele>2001</ele>
        <time>2018-07-07T09:22:47.000Z</time>
      </trkpt>
      <trkpt lat="42.52216" lon="2.02137">
        <ele>2001</ele>
        <time>2018-07-07T09:22:49.000Z</time>
      </trkpt>
      <trkpt lat="42.52213" lon="2.02135">
        <ele>2000</ele>
        <time>2018-07-07T09:22:51.000Z</time>
      </trkpt>
      <trkpt lat="42.52208" lon="2.02131">
        <ele>2000</ele>
        <time>2018-07-07T09:22:55.000Z</time>
      </trkpt>
      <trkpt lat="42.52207" lon="2.0213">
        <ele>2000</ele>
        <time>2018-07-07T09:22:57.000Z</time>
      </trkpt>
      <trkpt lat="42.52205" lon="2.02126">
        <ele>2000</ele>
        <time>2018-07-07T09:22:59.000Z</time>
      </trkpt>
      <trkpt lat="42.52199" lon="2.02124">
        <ele>2000</ele>
        <time>2018-07-07T09:23:01.000Z</time>
      </trkpt>
      <trkpt lat="42.52197" lon="2.02123">
        <ele>2000</ele>
        <time>2018-07-07T09:23:02.000Z</time>
      </trkpt>
      <trkpt lat="42.52195" lon="2.02121">
        <ele>1999</ele>
        <time>2018-07-07T09:23:03.000Z</time>
      </trkpt>
      <trkpt lat="42.52193" lon="2.02119">
        <ele>1999</ele>
        <time>2018-07-07T09:23:04.000Z</time>
      </trkpt>
      <trkpt lat="42.52191" lon="2.02118">
        <ele>1999</ele>
        <time>2018-07-07T09:23:05.000Z</time>
      </trkpt>
      <trkpt lat="42.5219" lon="2.02116">
        <ele>1999</ele>
        <time>2018-07-07T09:23:06.000Z</time>
      </trkpt>
      <trkpt lat="42.52188" lon="2.02111">
        <ele>1999</ele>
        <time>2018-07-07T09:23:08.000Z</time>
      </trkpt>
      <trkpt lat="42.52187" lon="2.02109">
        <ele>1998</ele>
        <time>2018-07-07T09:23:09.000Z</time>
      </trkpt>
      <trkpt lat="42.52185" lon="2.02103">
        <ele>1998</ele>
        <time>2018-07-07T09:23:12.000Z</time>
      </trkpt>
      <trkpt lat="42.52184" lon="2.02101">
        <ele>1997</ele>
        <time>2018-07-07T09:23:13.000Z</time>
      </trkpt>
      <trkpt lat="42.52177" lon="2.02093">
        <ele>1996</ele>
        <time>2018-07-07T09:23:18.000Z</time>
      </trkpt>
      <trkpt lat="42.52169" lon="2.02085">
        <ele>1993</ele>
        <time>2018-07-07T09:23:25.000Z</time>
      </trkpt>
      <trkpt lat="42.52166" lon="2.0208">
        <ele>1991</ele>
        <time>2018-07-07T09:23:27.000Z</time>
      </trkpt>
      <trkpt lat="42.52158" lon="2.02071">
        <ele>1990</ele>
        <time>2018-07-07T09:23:31.000Z</time>
      </trkpt>
      <trkpt lat="42.52149" lon="2.02062">
        <ele>1988</ele>
        <time>2018-07-07T09:23:35.000Z</time>
      </trkpt>
      <trkpt lat="42.52141" lon="2.02058">
        <ele>1988</ele>
        <time>2018-07-07T09:23:40.000Z</time>
      </trkpt>
      <trkpt lat="42.52133" lon="2.02049">
        <ele>1987</ele>
        <time>2018-07-07T09:23:45.000Z</time>
      </trkpt>
      <trkpt lat="42.52127" lon="2.02039">
        <ele>1986</ele>
        <time>2018-07-07T09:23:49.000Z</time>
      </trkpt>
      <trkpt lat="42.52119" lon="2.02033">
        <ele>1985</ele>
        <time>2018-07-07T09:23:53.000Z</time>
      </trkpt>
      <trkpt lat="42.5211" lon="2.02027">
        <ele>1984</ele>
        <time>2018-07-07T09:23:58.000Z</time>
      </trkpt>
      <trkpt lat="42.52102" lon="2.02022">
        <ele>1983</ele>
        <time>2018-07-07T09:24:02.000Z</time>
      </trkpt>
      <trkpt lat="42.52092" lon="2.02021">
        <ele>1982</ele>
        <time>2018-07-07T09:24:06.000Z</time>
      </trkpt>
      <trkpt lat="42.52084" lon="2.02013">
        <ele>1979</ele>
        <time>2018-07-07T09:24:11.000Z</time>
      </trkpt>
      <trkpt lat="42.52075" lon="2.02007">
        <ele>1976</ele>
        <time>2018-07-07T09:24:16.000Z</time>
      </trkpt>
      <trkpt lat="42.52064" lon="2.02003">
        <ele>1976</ele>
        <time>2018-07-07T09:24:22.000Z</time>
      </trkpt>
      <trkpt lat="42.5206" lon="2.02001">
        <ele>1976</ele>
        <time>2018-07-07T09:24:23.000Z</time>
      </trkpt>
      <trkpt lat="42.52058" lon="2.02">
        <ele>1976</ele>
        <time>2018-07-07T09:24:24.000Z</time>
      </trkpt>
      <trkpt lat="42.52056" lon="2.01998">
        <ele>1968</ele>
        <time>2018-07-07T09:24:25.000Z</time>
      </trkpt>
      <trkpt lat="42.52055" lon="2.01996">
        <ele>1968</ele>
        <time>2018-07-07T09:24:26.000Z</time>
      </trkpt>
      <trkpt lat="42.52053" lon="2.01994">
        <ele>1968</ele>
        <time>2018-07-07T09:24:27.000Z</time>
      </trkpt>
      <trkpt lat="42.52052" lon="2.01992">
        <ele>1968</ele>
        <time>2018-07-07T09:24:28.000Z</time>
      </trkpt>
      <trkpt lat="42.5205" lon="2.01989">
        <ele>1968</ele>
        <time>2018-07-07T09:24:29.000Z</time>
      </trkpt>
      <trkpt lat="42.52049" lon="2.01987">
        <ele>1967</ele>
        <time>2018-07-07T09:24:30.000Z</time>
      </trkpt>
      <trkpt lat="42.52047" lon="2.01984">
        <ele>1967</ele>
        <time>2018-07-07T09:24:31.000Z</time>
      </trkpt>
      <trkpt lat="42.52046" lon="2.01982">
        <ele>1967</ele>
        <time>2018-07-07T09:24:32.000Z</time>
      </trkpt>
      <trkpt lat="42.52044" lon="2.0198">
        <ele>1967</ele>
        <time>2018-07-07T09:24:33.000Z</time>
      </trkpt>
      <trkpt lat="42.52042" lon="2.01977">
        <ele>1966</ele>
        <time>2018-07-07T09:24:34.000Z</time>
      </trkpt>
      <trkpt lat="42.52041" lon="2.01975">
        <ele>1966</ele>
        <time>2018-07-07T09:24:36.000Z</time>
      </trkpt>
      <trkpt lat="42.52039" lon="2.01974">
        <ele>1966</ele>
        <time>2018-07-07T09:24:37.000Z</time>
      </trkpt>
      <trkpt lat="42.52036" lon="2.01974">
        <ele>1966</ele>
        <time>2018-07-07T09:24:38.000Z</time>
      </trkpt>
      <trkpt lat="42.52033" lon="2.01974">
        <ele>1966</ele>
        <time>2018-07-07T09:24:39.000Z</time>
      </trkpt>
      <trkpt lat="42.5203" lon="2.01973">
        <ele>1965</ele>
        <time>2018-07-07T09:24:40.000Z</time>
      </trkpt>
      <trkpt lat="42.52027" lon="2.01973">
        <ele>1965</ele>
        <time>2018-07-07T09:24:41.000Z</time>
      </trkpt>
      <trkpt lat="42.52025" lon="2.01973">
        <ele>1965</ele>
        <time>2018-07-07T09:24:42.000Z</time>
      </trkpt>
      <trkpt lat="42.52022" lon="2.01972">
        <ele>1965</ele>
        <time>2018-07-07T09:24:43.000Z</time>
      </trkpt>
      <trkpt lat="42.52019" lon="2.01972">
        <ele>1965</ele>
        <time>2018-07-07T09:24:44.000Z</time>
      </trkpt>
      <trkpt lat="42.52017" lon="2.01972">
        <ele>1965</ele>
        <time>2018-07-07T09:24:45.000Z</time>
      </trkpt>
      <trkpt lat="42.52015" lon="2.01972">
        <ele>1964</ele>
        <time>2018-07-07T09:24:46.000Z</time>
      </trkpt>
      <trkpt lat="42.52012" lon="2.01971">
        <ele>1964</ele>
        <time>2018-07-07T09:24:47.000Z</time>
      </trkpt>
      <trkpt lat="42.5201" lon="2.01971">
        <ele>1964</ele>
        <time>2018-07-07T09:24:48.000Z</time>
      </trkpt>
      <trkpt lat="42.52006" lon="2.01969">
        <ele>1964</ele>
        <time>2018-07-07T09:24:50.000Z</time>
      </trkpt>
      <trkpt lat="42.52005" lon="2.01968">
        <ele>1964</ele>
        <time>2018-07-07T09:24:51.000Z</time>
      </trkpt>
      <trkpt lat="42.52003" lon="2.01967">
        <ele>1964</ele>
        <time>2018-07-07T09:24:52.000Z</time>
      </trkpt>
      <trkpt lat="42.52001" lon="2.01966">
        <ele>1964</ele>
        <time>2018-07-07T09:24:53.000Z</time>
      </trkpt>
      <trkpt lat="42.51998" lon="2.01965">
        <ele>1957</ele>
        <time>2018-07-07T09:24:54.000Z</time>
      </trkpt>
      <trkpt lat="42.51994" lon="2.01965">
        <ele>1957</ele>
        <time>2018-07-07T09:24:55.000Z</time>
      </trkpt>
      <trkpt lat="42.51991" lon="2.01965">
        <ele>1956</ele>
        <time>2018-07-07T09:24:56.000Z</time>
      </trkpt>
      <trkpt lat="42.51988" lon="2.01964">
        <ele>1956</ele>
        <time>2018-07-07T09:24:57.000Z</time>
      </trkpt>
      <trkpt lat="42.51984" lon="2.01964">
        <ele>1956</ele>
        <time>2018-07-07T09:24:58.000Z</time>
      </trkpt>
      <trkpt lat="42.51981" lon="2.01964">
        <ele>1956</ele>
        <time>2018-07-07T09:24:59.000Z</time>
      </trkpt>
      <trkpt lat="42.51978" lon="2.01964">
        <ele>1956</ele>
        <time>2018-07-07T09:25:00.000Z</time>
      </trkpt>
      <trkpt lat="42.51976" lon="2.01965">
        <ele>1956</ele>
        <time>2018-07-07T09:25:01.000Z</time>
      </trkpt>
      <trkpt lat="42.51974" lon="2.01965">
        <ele>1956</ele>
        <time>2018-07-07T09:25:02.000Z</time>
      </trkpt>
      <trkpt lat="42.51973" lon="2.01964">
        <ele>1955</ele>
        <time>2018-07-07T09:25:03.000Z</time>
      </trkpt>
      <trkpt lat="42.5197" lon="2.01964">
        <ele>1955</ele>
        <time>2018-07-07T09:25:05.000Z</time>
      </trkpt>
      <trkpt lat="42.51967" lon="2.01964">
        <ele>1955</ele>
        <time>2018-07-07T09:25:07.000Z</time>
      </trkpt>
      <trkpt lat="42.51964" lon="2.01966">
        <ele>1955</ele>
        <time>2018-07-07T09:25:10.000Z</time>
      </trkpt>
      <trkpt lat="42.51962" lon="2.01969">
        <ele>1955</ele>
        <time>2018-07-07T09:25:12.000Z</time>
      </trkpt>
      <trkpt lat="42.5196" lon="2.01971">
        <ele>1955</ele>
        <time>2018-07-07T09:25:14.000Z</time>
      </trkpt>
      <trkpt lat="42.51959" lon="2.01974">
        <ele>1955</ele>
        <time>2018-07-07T09:25:16.000Z</time>
      </trkpt>
      <trkpt lat="42.51956" lon="2.01976">
        <ele>1955</ele>
        <time>2018-07-07T09:25:18.000Z</time>
      </trkpt>
      <trkpt lat="42.51954" lon="2.01978">
        <ele>1955</ele>
        <time>2018-07-07T09:25:19.000Z</time>
      </trkpt>
      <trkpt lat="42.51953" lon="2.01981">
        <ele>1956</ele>
        <time>2018-07-07T09:25:21.000Z</time>
      </trkpt>
      <trkpt lat="42.51952" lon="2.01984">
        <ele>1956</ele>
        <time>2018-07-07T09:25:23.000Z</time>
      </trkpt>
      <trkpt lat="42.51952" lon="2.01988">
        <ele>1956</ele>
        <time>2018-07-07T09:25:25.000Z</time>
      </trkpt>
      <trkpt lat="42.51951" lon="2.0199">
        <ele>1956</ele>
        <time>2018-07-07T09:25:27.000Z</time>
      </trkpt>
      <trkpt lat="42.51949" lon="2.01993">
        <ele>1956</ele>
        <time>2018-07-07T09:25:29.000Z</time>
      </trkpt>
      <trkpt lat="42.51947" lon="2.01995">
        <ele>1956</ele>
        <time>2018-07-07T09:25:30.000Z</time>
      </trkpt>
      <trkpt lat="42.51946" lon="2.01997">
        <ele>1956</ele>
        <time>2018-07-07T09:25:31.000Z</time>
      </trkpt>
      <trkpt lat="42.51945" lon="2.02">
        <ele>1956</ele>
        <time>2018-07-07T09:25:33.000Z</time>
      </trkpt>
      <trkpt lat="42.51943" lon="2.02001">
        <ele>1964</ele>
        <time>2018-07-07T09:25:34.000Z</time>
      </trkpt>
      <trkpt lat="42.51941" lon="2.02003">
        <ele>1964</ele>
        <time>2018-07-07T09:25:35.000Z</time>
      </trkpt>
      <trkpt lat="42.5194" lon="2.02005">
        <ele>1964</ele>
        <time>2018-07-07T09:25:36.000Z</time>
      </trkpt>
      <trkpt lat="42.51938" lon="2.02008">
        <ele>1964</ele>
        <time>2018-07-07T09:25:38.000Z</time>
      </trkpt>
      <trkpt lat="42.51937" lon="2.02011">
        <ele>1964</ele>
        <time>2018-07-07T09:25:40.000Z</time>
      </trkpt>
      <trkpt lat="42.51937" lon="2.02014">
        <ele>1964</ele>
        <time>2018-07-07T09:25:42.000Z</time>
      </trkpt>
      <trkpt lat="42.51935" lon="2.02017">
        <ele>1964</ele>
        <time>2018-07-07T09:25:44.000Z</time>
      </trkpt>
      <trkpt lat="42.51933" lon="2.0202">
        <ele>1964</ele>
        <time>2018-07-07T09:25:46.000Z</time>
      </trkpt>
      <trkpt lat="42.51933" lon="2.02024">
        <ele>1965</ele>
        <time>2018-07-07T09:25:48.000Z</time>
      </trkpt>
      <trkpt lat="42.51932" lon="2.02026">
        <ele>1965</ele>
        <time>2018-07-07T09:25:50.000Z</time>
      </trkpt>
      <trkpt lat="42.51932" lon="2.0203">
        <ele>1966</ele>
        <time>2018-07-07T09:25:52.000Z</time>
      </trkpt>
      <trkpt lat="42.51931" lon="2.02034">
        <ele>1966</ele>
        <time>2018-07-07T09:25:54.000Z</time>
      </trkpt>
      <trkpt lat="42.5193" lon="2.02038">
        <ele>1966</ele>
        <time>2018-07-07T09:25:56.000Z</time>
      </trkpt>
      <trkpt lat="42.51929" lon="2.0204">
        <ele>1967</ele>
        <time>2018-07-07T09:25:57.000Z</time>
      </trkpt>
      <trkpt lat="42.51928" lon="2.02043">
        <ele>1967</ele>
        <time>2018-07-07T09:25:59.000Z</time>
      </trkpt>
      <trkpt lat="42.51927" lon="2.02047">
        <ele>1967</ele>
        <time>2018-07-07T09:26:01.000Z</time>
      </trkpt>
      <trkpt lat="42.51926" lon="2.0205">
        <ele>1967</ele>
        <time>2018-07-07T09:26:03.000Z</time>
      </trkpt>
      <trkpt lat="42.51925" lon="2.02052">
        <ele>1968</ele>
        <time>2018-07-07T09:26:05.000Z</time>
      </trkpt>
      <trkpt lat="42.51924" lon="2.02055">
        <ele>1968</ele>
        <time>2018-07-07T09:26:07.000Z</time>
      </trkpt>
      <trkpt lat="42.51923" lon="2.02057">
        <ele>1968</ele>
        <time>2018-07-07T09:26:09.000Z</time>
      </trkpt>
      <trkpt lat="42.5192" lon="2.02061">
        <ele>1968</ele>
        <time>2018-07-07T09:26:11.000Z</time>
      </trkpt>
      <trkpt lat="42.51919" lon="2.02063">
        <ele>1968</ele>
        <time>2018-07-07T09:26:12.000Z</time>
      </trkpt>
      <trkpt lat="42.51918" lon="2.02066">
        <ele>1968</ele>
        <time>2018-07-07T09:26:13.000Z</time>
      </trkpt>
      <trkpt lat="42.51912" lon="2.02075">
        <ele>1963</ele>
        <time>2018-07-07T09:26:17.000Z</time>
      </trkpt>
      <trkpt lat="42.51904" lon="2.0208">
        <ele>1961</ele>
        <time>2018-07-07T09:26:20.000Z</time>
      </trkpt>
      <trkpt lat="42.51899" lon="2.02084">
        <ele>1964</ele>
        <time>2018-07-07T09:26:22.000Z</time>
      </trkpt>
      <trkpt lat="42.51894" lon="2.02086">
        <ele>1963</ele>
        <time>2018-07-07T09:26:24.000Z</time>
      </trkpt>
      <trkpt lat="42.5189" lon="2.02094">
        <ele>1962</ele>
        <time>2018-07-07T09:26:27.000Z</time>
      </trkpt>
      <trkpt lat="42.51889" lon="2.02098">
        <ele>1962</ele>
        <time>2018-07-07T09:26:28.000Z</time>
      </trkpt>
      <trkpt lat="42.51887" lon="2.02101">
        <ele>1962</ele>
        <time>2018-07-07T09:26:29.000Z</time>
      </trkpt>
      <trkpt lat="42.51886" lon="2.02104">
        <ele>1962</ele>
        <time>2018-07-07T09:26:30.000Z</time>
      </trkpt>
      <trkpt lat="42.51884" lon="2.02107">
        <ele>1962</ele>
        <time>2018-07-07T09:26:31.000Z</time>
      </trkpt>
      <trkpt lat="42.51882" lon="2.0211">
        <ele>1961</ele>
        <time>2018-07-07T09:26:32.000Z</time>
      </trkpt>
      <trkpt lat="42.51879" lon="2.02114">
        <ele>1961</ele>
        <time>2018-07-07T09:26:33.000Z</time>
      </trkpt>
      <trkpt lat="42.51878" lon="2.02118">
        <ele>1961</ele>
        <time>2018-07-07T09:26:34.000Z</time>
      </trkpt>
      <trkpt lat="42.51877" lon="2.02122">
        <ele>1961</ele>
        <time>2018-07-07T09:26:35.000Z</time>
      </trkpt>
      <trkpt lat="42.51876" lon="2.02125">
        <ele>1961</ele>
        <time>2018-07-07T09:26:36.000Z</time>
      </trkpt>
      <trkpt lat="42.51874" lon="2.02129">
        <ele>1961</ele>
        <time>2018-07-07T09:26:37.000Z</time>
      </trkpt>
      <trkpt lat="42.51873" lon="2.02133">
        <ele>1961</ele>
        <time>2018-07-07T09:26:38.000Z</time>
      </trkpt>
      <trkpt lat="42.51873" lon="2.02136">
        <ele>1961</ele>
        <time>2018-07-07T09:26:39.000Z</time>
      </trkpt>
      <trkpt lat="42.51872" lon="2.02139">
        <ele>1961</ele>
        <time>2018-07-07T09:26:40.000Z</time>
      </trkpt>
      <trkpt lat="42.5187" lon="2.02142">
        <ele>1961</ele>
        <time>2018-07-07T09:26:41.000Z</time>
      </trkpt>
      <trkpt lat="42.51869" lon="2.02146">
        <ele>1961</ele>
        <time>2018-07-07T09:26:42.000Z</time>
      </trkpt>
      <trkpt lat="42.51867" lon="2.02149">
        <ele>1961</ele>
        <time>2018-07-07T09:26:43.000Z</time>
      </trkpt>
      <trkpt lat="42.51866" lon="2.02152">
        <ele>1961</ele>
        <time>2018-07-07T09:26:44.000Z</time>
      </trkpt>
      <trkpt lat="42.51864" lon="2.02156">
        <ele>1961</ele>
        <time>2018-07-07T09:26:45.000Z</time>
      </trkpt>
      <trkpt lat="42.51862" lon="2.0216">
        <ele>1960</ele>
        <time>2018-07-07T09:26:46.000Z</time>
      </trkpt>
      <trkpt lat="42.5186" lon="2.02164">
        <ele>1960</ele>
        <time>2018-07-07T09:26:47.000Z</time>
      </trkpt>
      <trkpt lat="42.51859" lon="2.02168">
        <ele>1964</ele>
        <time>2018-07-07T09:26:48.000Z</time>
      </trkpt>
      <trkpt lat="42.51857" lon="2.02172">
        <ele>1964</ele>
        <time>2018-07-07T09:26:49.000Z</time>
      </trkpt>
      <trkpt lat="42.51857" lon="2.02176">
        <ele>1964</ele>
        <time>2018-07-07T09:26:50.000Z</time>
      </trkpt>
      <trkpt lat="42.51856" lon="2.02179">
        <ele>1964</ele>
        <time>2018-07-07T09:26:51.000Z</time>
      </trkpt>
      <trkpt lat="42.51855" lon="2.02183">
        <ele>1965</ele>
        <time>2018-07-07T09:26:52.000Z</time>
      </trkpt>
      <trkpt lat="42.51854" lon="2.02187">
        <ele>1965</ele>
        <time>2018-07-07T09:26:53.000Z</time>
      </trkpt>
      <trkpt lat="42.51854" lon="2.02191">
        <ele>1965</ele>
        <time>2018-07-07T09:26:54.000Z</time>
      </trkpt>
      <trkpt lat="42.51855" lon="2.02194">
        <ele>1966</ele>
        <time>2018-07-07T09:26:55.000Z</time>
      </trkpt>
      <trkpt lat="42.51855" lon="2.02198">
        <ele>1966</ele>
        <time>2018-07-07T09:26:56.000Z</time>
      </trkpt>
      <trkpt lat="42.51855" lon="2.02201">
        <ele>1966</ele>
        <time>2018-07-07T09:26:57.000Z</time>
      </trkpt>
      <trkpt lat="42.51854" lon="2.02204">
        <ele>1966</ele>
        <time>2018-07-07T09:26:58.000Z</time>
      </trkpt>
      <trkpt lat="42.51854" lon="2.02208">
        <ele>1967</ele>
        <time>2018-07-07T09:26:59.000Z</time>
      </trkpt>
      <trkpt lat="42.51853" lon="2.02212">
        <ele>1967</ele>
        <time>2018-07-07T09:27:00.000Z</time>
      </trkpt>
      <trkpt lat="42.51853" lon="2.02215">
        <ele>1967</ele>
        <time>2018-07-07T09:27:01.000Z</time>
      </trkpt>
      <trkpt lat="42.51853" lon="2.02219">
        <ele>1967</ele>
        <time>2018-07-07T09:27:02.000Z</time>
      </trkpt>
      <trkpt lat="42.51853" lon="2.02223">
        <ele>1967</ele>
        <time>2018-07-07T09:27:03.000Z</time>
      </trkpt>
      <trkpt lat="42.51853" lon="2.02226">
        <ele>1967</ele>
        <time>2018-07-07T09:27:04.000Z</time>
      </trkpt>
      <trkpt lat="42.51852" lon="2.02229">
        <ele>1967</ele>
        <time>2018-07-07T09:27:05.000Z</time>
      </trkpt>
      <trkpt lat="42.51851" lon="2.02232">
        <ele>1966</ele>
        <time>2018-07-07T09:27:06.000Z</time>
      </trkpt>
      <trkpt lat="42.5185" lon="2.02235">
        <ele>1966</ele>
        <time>2018-07-07T09:27:07.000Z</time>
      </trkpt>
      <trkpt lat="42.51848" lon="2.02238">
        <ele>1966</ele>
        <time>2018-07-07T09:27:08.000Z</time>
      </trkpt>
      <trkpt lat="42.51847" lon="2.02242">
        <ele>1965</ele>
        <time>2018-07-07T09:27:09.000Z</time>
      </trkpt>
      <trkpt lat="42.51845" lon="2.02245">
        <ele>1965</ele>
        <time>2018-07-07T09:27:10.000Z</time>
      </trkpt>
      <trkpt lat="42.51844" lon="2.02249">
        <ele>1964</ele>
        <time>2018-07-07T09:27:11.000Z</time>
      </trkpt>
      <trkpt lat="42.51843" lon="2.02252">
        <ele>1965</ele>
        <time>2018-07-07T09:27:12.000Z</time>
      </trkpt>
      <trkpt lat="42.51842" lon="2.02256">
        <ele>1966</ele>
        <time>2018-07-07T09:27:13.000Z</time>
      </trkpt>
      <trkpt lat="42.51842" lon="2.0226">
        <ele>1966</ele>
        <time>2018-07-07T09:27:14.000Z</time>
      </trkpt>
      <trkpt lat="42.51841" lon="2.02264">
        <ele>1967</ele>
        <time>2018-07-07T09:27:15.000Z</time>
      </trkpt>
      <trkpt lat="42.5184" lon="2.02268">
        <ele>1968</ele>
        <time>2018-07-07T09:27:16.000Z</time>
      </trkpt>
      <trkpt lat="42.51839" lon="2.02272">
        <ele>1968</ele>
        <time>2018-07-07T09:27:17.000Z</time>
      </trkpt>
      <trkpt lat="42.51838" lon="2.02276">
        <ele>1969</ele>
        <time>2018-07-07T09:27:18.000Z</time>
      </trkpt>
      <trkpt lat="42.51837" lon="2.0228">
        <ele>1969</ele>
        <time>2018-07-07T09:27:19.000Z</time>
      </trkpt>
      <trkpt lat="42.51836" lon="2.02284">
        <ele>1969</ele>
        <time>2018-07-07T09:27:20.000Z</time>
      </trkpt>
      <trkpt lat="42.51836" lon="2.02288">
        <ele>1969</ele>
        <time>2018-07-07T09:27:21.000Z</time>
      </trkpt>
      <trkpt lat="42.51835" lon="2.02291">
        <ele>1969</ele>
        <time>2018-07-07T09:27:22.000Z</time>
      </trkpt>
      <trkpt lat="42.51834" lon="2.02294">
        <ele>1969</ele>
        <time>2018-07-07T09:27:23.000Z</time>
      </trkpt>
      <trkpt lat="42.51835" lon="2.02297">
        <ele>1969</ele>
        <time>2018-07-07T09:27:24.000Z</time>
      </trkpt>
      <trkpt lat="42.51835" lon="2.023">
        <ele>1969</ele>
        <time>2018-07-07T09:27:25.000Z</time>
      </trkpt>
      <trkpt lat="42.51834" lon="2.02303">
        <ele>1969</ele>
        <time>2018-07-07T09:27:26.000Z</time>
      </trkpt>
      <trkpt lat="42.51834" lon="2.02307">
        <ele>1969</ele>
        <time>2018-07-07T09:27:27.000Z</time>
      </trkpt>
      <trkpt lat="42.51833" lon="2.02311">
        <ele>1957</ele>
        <time>2018-07-07T09:27:28.000Z</time>
      </trkpt>
      <trkpt lat="42.51832" lon="2.02314">
        <ele>1957</ele>
        <time>2018-07-07T09:27:29.000Z</time>
      </trkpt>
      <trkpt lat="42.51831" lon="2.02318">
        <ele>1958</ele>
        <time>2018-07-07T09:27:30.000Z</time>
      </trkpt>
      <trkpt lat="42.5183" lon="2.02321">
        <ele>1959</ele>
        <time>2018-07-07T09:27:31.000Z</time>
      </trkpt>
      <trkpt lat="42.51829" lon="2.02325">
        <ele>1960</ele>
        <time>2018-07-07T09:27:32.000Z</time>
      </trkpt>
      <trkpt lat="42.51829" lon="2.02329">
        <ele>1961</ele>
        <time>2018-07-07T09:27:33.000Z</time>
      </trkpt>
      <trkpt lat="42.51829" lon="2.02333">
        <ele>1962</ele>
        <time>2018-07-07T09:27:34.000Z</time>
      </trkpt>
      <trkpt lat="42.51829" lon="2.02338">
        <ele>1961</ele>
        <time>2018-07-07T09:27:35.000Z</time>
      </trkpt>
      <trkpt lat="42.5183" lon="2.02342">
        <ele>1960</ele>
        <time>2018-07-07T09:27:36.000Z</time>
      </trkpt>
      <trkpt lat="42.5183" lon="2.02346">
        <ele>1960</ele>
        <time>2018-07-07T09:27:37.000Z</time>
      </trkpt>
      <trkpt lat="42.5183" lon="2.0235">
        <ele>1959</ele>
        <time>2018-07-07T09:27:38.000Z</time>
      </trkpt>
      <trkpt lat="42.5183" lon="2.02354">
        <ele>1959</ele>
        <time>2018-07-07T09:27:39.000Z</time>
      </trkpt>
      <trkpt lat="42.51831" lon="2.02358">
        <ele>1958</ele>
        <time>2018-07-07T09:27:40.000Z</time>
      </trkpt>
      <trkpt lat="42.51831" lon="2.02362">
        <ele>1958</ele>
        <time>2018-07-07T09:27:41.000Z</time>
      </trkpt>
      <trkpt lat="42.5183" lon="2.02366">
        <ele>1958</ele>
        <time>2018-07-07T09:27:42.000Z</time>
      </trkpt>
      <trkpt lat="42.5183" lon="2.0237">
        <ele>1958</ele>
        <time>2018-07-07T09:27:43.000Z</time>
      </trkpt>
      <trkpt lat="42.5183" lon="2.02374">
        <ele>1958</ele>
        <time>2018-07-07T09:27:44.000Z</time>
      </trkpt>
      <trkpt lat="42.5183" lon="2.02378">
        <ele>1958</ele>
        <time>2018-07-07T09:27:45.000Z</time>
      </trkpt>
      <trkpt lat="42.51829" lon="2.02381">
        <ele>1958</ele>
        <time>2018-07-07T09:27:46.000Z</time>
      </trkpt>
      <trkpt lat="42.51828" lon="2.02385">
        <ele>1958</ele>
        <time>2018-07-07T09:27:47.000Z</time>
      </trkpt>
      <trkpt lat="42.51827" lon="2.02389">
        <ele>1958</ele>
        <time>2018-07-07T09:27:48.000Z</time>
      </trkpt>
      <trkpt lat="42.51826" lon="2.02393">
        <ele>1958</ele>
        <time>2018-07-07T09:27:49.000Z</time>
      </trkpt>
      <trkpt lat="42.51826" lon="2.02397">
        <ele>1959</ele>
        <time>2018-07-07T09:27:50.000Z</time>
      </trkpt>
      <trkpt lat="42.51825" lon="2.024">
        <ele>1959</ele>
        <time>2018-07-07T09:27:51.000Z</time>
      </trkpt>
      <trkpt lat="42.51824" lon="2.02403">
        <ele>1960</ele>
        <time>2018-07-07T09:27:52.000Z</time>
      </trkpt>
      <trkpt lat="42.51824" lon="2.02407">
        <ele>1960</ele>
        <time>2018-07-07T09:27:53.000Z</time>
      </trkpt>
      <trkpt lat="42.51823" lon="2.0241">
        <ele>1960</ele>
        <time>2018-07-07T09:27:54.000Z</time>
      </trkpt>
      <trkpt lat="42.51822" lon="2.02413">
        <ele>1960</ele>
        <time>2018-07-07T09:27:55.000Z</time>
      </trkpt>
      <trkpt lat="42.51822" lon="2.02416">
        <ele>1960</ele>
        <time>2018-07-07T09:27:56.000Z</time>
      </trkpt>
      <trkpt lat="42.51821" lon="2.02419">
        <ele>1960</ele>
        <time>2018-07-07T09:27:57.000Z</time>
      </trkpt>
      <trkpt lat="42.51821" lon="2.02422">
        <ele>1960</ele>
        <time>2018-07-07T09:27:58.000Z</time>
      </trkpt>
      <trkpt lat="42.51821" lon="2.02425">
        <ele>1960</ele>
        <time>2018-07-07T09:27:59.000Z</time>
      </trkpt>
      <trkpt lat="42.51821" lon="2.02428">
        <ele>1959</ele>
        <time>2018-07-07T09:28:00.000Z</time>
      </trkpt>
      <trkpt lat="42.51821" lon="2.02431">
        <ele>1959</ele>
        <time>2018-07-07T09:28:01.000Z</time>
      </trkpt>
      <trkpt lat="42.5182" lon="2.02434">
        <ele>1959</ele>
        <time>2018-07-07T09:28:02.000Z</time>
      </trkpt>
      <trkpt lat="42.5182" lon="2.02437">
        <ele>1958</ele>
        <time>2018-07-07T09:28:03.000Z</time>
      </trkpt>
      <trkpt lat="42.5182" lon="2.0244">
        <ele>1958</ele>
        <time>2018-07-07T09:28:04.000Z</time>
      </trkpt>
      <trkpt lat="42.51821" lon="2.02443">
        <ele>1958</ele>
        <time>2018-07-07T09:28:05.000Z</time>
      </trkpt>
      <trkpt lat="42.51821" lon="2.02445">
        <ele>1958</ele>
        <time>2018-07-07T09:28:06.000Z</time>
      </trkpt>
      <trkpt lat="42.51821" lon="2.02448">
        <ele>1958</ele>
        <time>2018-07-07T09:28:07.000Z</time>
      </trkpt>
      <trkpt lat="42.51822" lon="2.02451">
        <ele>1957</ele>
        <time>2018-07-07T09:28:08.000Z</time>
      </trkpt>
      <trkpt lat="42.51823" lon="2.02454">
        <ele>1957</ele>
        <time>2018-07-07T09:28:09.000Z</time>
      </trkpt>
      <trkpt lat="42.51824" lon="2.02456">
        <ele>1957</ele>
        <time>2018-07-07T09:28:10.000Z</time>
      </trkpt>
      <trkpt lat="42.51825" lon="2.02459">
        <ele>1957</ele>
        <time>2018-07-07T09:28:11.000Z</time>
      </trkpt>
      <trkpt lat="42.51826" lon="2.02461">
        <ele>1957</ele>
        <time>2018-07-07T09:28:12.000Z</time>
      </trkpt>
      <trkpt lat="42.51828" lon="2.02464">
        <ele>1957</ele>
        <time>2018-07-07T09:28:13.000Z</time>
      </trkpt>
      <trkpt lat="42.51829" lon="2.02466">
        <ele>1957</ele>
        <time>2018-07-07T09:28:14.000Z</time>
      </trkpt>
      <trkpt lat="42.5183" lon="2.02469">
        <ele>1957</ele>
        <time>2018-07-07T09:28:15.000Z</time>
      </trkpt>
      <trkpt lat="42.51831" lon="2.02471">
        <ele>1958</ele>
        <time>2018-07-07T09:28:16.000Z</time>
      </trkpt>
      <trkpt lat="42.51831" lon="2.02475">
        <ele>1958</ele>
        <time>2018-07-07T09:28:17.000Z</time>
      </trkpt>
      <trkpt lat="42.51832" lon="2.02478">
        <ele>1958</ele>
        <time>2018-07-07T09:28:18.000Z</time>
      </trkpt>
      <trkpt lat="42.51832" lon="2.02481">
        <ele>1958</ele>
        <time>2018-07-07T09:28:19.000Z</time>
      </trkpt>
      <trkpt lat="42.51832" lon="2.02484">
        <ele>1958</ele>
        <time>2018-07-07T09:28:20.000Z</time>
      </trkpt>
      <trkpt lat="42.51832" lon="2.02487">
        <ele>1958</ele>
        <time>2018-07-07T09:28:21.000Z</time>
      </trkpt>
      <trkpt lat="42.5183" lon="2.02489">
        <ele>1958</ele>
        <time>2018-07-07T09:28:22.000Z</time>
      </trkpt>
      <trkpt lat="42.51828" lon="2.02492">
        <ele>1958</ele>
        <time>2018-07-07T09:28:23.000Z</time>
      </trkpt>
      <trkpt lat="42.51825" lon="2.02493">
        <ele>1958</ele>
        <time>2018-07-07T09:28:24.000Z</time>
      </trkpt>
      <trkpt lat="42.51823" lon="2.02494">
        <ele>1958</ele>
        <time>2018-07-07T09:28:25.000Z</time>
      </trkpt>
      <trkpt lat="42.51821" lon="2.02496">
        <ele>1958</ele>
        <time>2018-07-07T09:28:26.000Z</time>
      </trkpt>
      <trkpt lat="42.51818" lon="2.025">
        <ele>1958</ele>
        <time>2018-07-07T09:28:27.000Z</time>
      </trkpt>
      <trkpt lat="42.51815" lon="2.02502">
        <ele>1957</ele>
        <time>2018-07-07T09:28:28.000Z</time>
      </trkpt>
      <trkpt lat="42.51813" lon="2.02505">
        <ele>1956</ele>
        <time>2018-07-07T09:28:29.000Z</time>
      </trkpt>
      <trkpt lat="42.5181" lon="2.02507">
        <ele>1956</ele>
        <time>2018-07-07T09:28:30.000Z</time>
      </trkpt>
      <trkpt lat="42.51807" lon="2.02509">
        <ele>1956</ele>
        <time>2018-07-07T09:28:31.000Z</time>
      </trkpt>
      <trkpt lat="42.51803" lon="2.02512">
        <ele>1955</ele>
        <time>2018-07-07T09:28:33.000Z</time>
      </trkpt>
      <trkpt lat="42.518" lon="2.02514">
        <ele>1955</ele>
        <time>2018-07-07T09:28:34.000Z</time>
      </trkpt>
      <trkpt lat="42.5179" lon="2.0252">
        <ele>1954</ele>
        <time>2018-07-07T09:28:38.000Z</time>
      </trkpt>
      <trkpt lat="42.51787" lon="2.02522">
        <ele>1954</ele>
        <time>2018-07-07T09:28:39.000Z</time>
      </trkpt>
      <trkpt lat="42.51784" lon="2.02523">
        <ele>1954</ele>
        <time>2018-07-07T09:28:40.000Z</time>
      </trkpt>
      <trkpt lat="42.51774" lon="2.02527">
        <ele>1953</ele>
        <time>2018-07-07T09:28:43.000Z</time>
      </trkpt>
      <trkpt lat="42.51762" lon="2.02531">
        <ele>1953</ele>
        <time>2018-07-07T09:28:46.000Z</time>
      </trkpt>
      <trkpt lat="42.51758" lon="2.02533">
        <ele>1953</ele>
        <time>2018-07-07T09:28:47.000Z</time>
      </trkpt>
      <trkpt lat="42.51754" lon="2.02534">
        <ele>1952</ele>
        <time>2018-07-07T09:28:48.000Z</time>
      </trkpt>
      <trkpt lat="42.5175" lon="2.02535">
        <ele>1952</ele>
        <time>2018-07-07T09:28:49.000Z</time>
      </trkpt>
      <trkpt lat="42.51747" lon="2.02536">
        <ele>1947</ele>
        <time>2018-07-07T09:28:50.000Z</time>
      </trkpt>
      <trkpt lat="42.51744" lon="2.02537">
        <ele>1947</ele>
        <time>2018-07-07T09:28:51.000Z</time>
      </trkpt>
      <trkpt lat="42.51741" lon="2.02537">
        <ele>1947</ele>
        <time>2018-07-07T09:28:52.000Z</time>
      </trkpt>
      <trkpt lat="42.51738" lon="2.02537">
        <ele>1947</ele>
        <time>2018-07-07T09:28:53.000Z</time>
      </trkpt>
      <trkpt lat="42.51735" lon="2.02537">
        <ele>1947</ele>
        <time>2018-07-07T09:28:54.000Z</time>
      </trkpt>
      <trkpt lat="42.51732" lon="2.02537">
        <ele>1946</ele>
        <time>2018-07-07T09:28:55.000Z</time>
      </trkpt>
      <trkpt lat="42.51728" lon="2.02537">
        <ele>1946</ele>
        <time>2018-07-07T09:28:56.000Z</time>
      </trkpt>
      <trkpt lat="42.51726" lon="2.02537">
        <ele>1946</ele>
        <time>2018-07-07T09:28:57.000Z</time>
      </trkpt>
      <trkpt lat="42.51724" lon="2.02537">
        <ele>1946</ele>
        <time>2018-07-07T09:28:58.000Z</time>
      </trkpt>
      <trkpt lat="42.51722" lon="2.02538">
        <ele>1946</ele>
        <time>2018-07-07T09:28:59.000Z</time>
      </trkpt>
      <trkpt lat="42.51719" lon="2.0254">
        <ele>1946</ele>
        <time>2018-07-07T09:29:01.000Z</time>
      </trkpt>
      <trkpt lat="42.51715" lon="2.02542">
        <ele>1945</ele>
        <time>2018-07-07T09:29:03.000Z</time>
      </trkpt>
      <trkpt lat="42.51714" lon="2.02544">
        <ele>1945</ele>
        <time>2018-07-07T09:29:04.000Z</time>
      </trkpt>
      <trkpt lat="42.51711" lon="2.02545">
        <ele>1945</ele>
        <time>2018-07-07T09:29:05.000Z</time>
      </trkpt>
      <trkpt lat="42.5171" lon="2.02547">
        <ele>1945</ele>
        <time>2018-07-07T09:29:06.000Z</time>
      </trkpt>
      <trkpt lat="42.51708" lon="2.02548">
        <ele>1945</ele>
        <time>2018-07-07T09:29:07.000Z</time>
      </trkpt>
      <trkpt lat="42.51706" lon="2.02549">
        <ele>1945</ele>
        <time>2018-07-07T09:29:08.000Z</time>
      </trkpt>
      <trkpt lat="42.51704" lon="2.02551">
        <ele>1945</ele>
        <time>2018-07-07T09:29:09.000Z</time>
      </trkpt>
      <trkpt lat="42.51702" lon="2.02552">
        <ele>1945</ele>
        <time>2018-07-07T09:29:10.000Z</time>
      </trkpt>
      <trkpt lat="42.517" lon="2.02554">
        <ele>1945</ele>
        <time>2018-07-07T09:29:11.000Z</time>
      </trkpt>
      <trkpt lat="42.51698" lon="2.02556">
        <ele>1945</ele>
        <time>2018-07-07T09:29:12.000Z</time>
      </trkpt>
      <trkpt lat="42.51697" lon="2.02558">
        <ele>1945</ele>
        <time>2018-07-07T09:29:13.000Z</time>
      </trkpt>
      <trkpt lat="42.5169" lon="2.02568">
        <ele>1944</ele>
        <time>2018-07-07T09:29:17.000Z</time>
      </trkpt>
      <trkpt lat="42.51687" lon="2.02573">
        <ele>1944</ele>
        <time>2018-07-07T09:29:19.000Z</time>
      </trkpt>
      <trkpt lat="42.51686" lon="2.02576">
        <ele>1944</ele>
        <time>2018-07-07T09:29:20.000Z</time>
      </trkpt>
      <trkpt lat="42.51683" lon="2.02584">
        <ele>1945</ele>
        <time>2018-07-07T09:29:24.000Z</time>
      </trkpt>
      <trkpt lat="42.51681" lon="2.02587">
        <ele>1945</ele>
        <time>2018-07-07T09:29:25.000Z</time>
      </trkpt>
      <trkpt lat="42.51677" lon="2.02592">
        <ele>1945</ele>
        <time>2018-07-07T09:29:27.000Z</time>
      </trkpt>
      <trkpt lat="42.51675" lon="2.02595">
        <ele>1945</ele>
        <time>2018-07-07T09:29:28.000Z</time>
      </trkpt>
      <trkpt lat="42.51673" lon="2.02598">
        <ele>1945</ele>
        <time>2018-07-07T09:29:29.000Z</time>
      </trkpt>
      <trkpt lat="42.51671" lon="2.02601">
        <ele>1945</ele>
        <time>2018-07-07T09:29:30.000Z</time>
      </trkpt>
      <trkpt lat="42.51662" lon="2.0261">
        <ele>1940</ele>
        <time>2018-07-07T09:29:34.000Z</time>
      </trkpt>
      <trkpt lat="42.5166" lon="2.02612">
        <ele>1940</ele>
        <time>2018-07-07T09:29:35.000Z</time>
      </trkpt>
      <trkpt lat="42.51657" lon="2.02616">
        <ele>1940</ele>
        <time>2018-07-07T09:29:36.000Z</time>
      </trkpt>
      <trkpt lat="42.51655" lon="2.0262">
        <ele>1940</ele>
        <time>2018-07-07T09:29:37.000Z</time>
      </trkpt>
      <trkpt lat="42.51653" lon="2.02623">
        <ele>1940</ele>
        <time>2018-07-07T09:29:38.000Z</time>
      </trkpt>
      <trkpt lat="42.51651" lon="2.02627">
        <ele>1940</ele>
        <time>2018-07-07T09:29:39.000Z</time>
      </trkpt>
      <trkpt lat="42.5165" lon="2.0263">
        <ele>1940</ele>
        <time>2018-07-07T09:29:40.000Z</time>
      </trkpt>
      <trkpt lat="42.51648" lon="2.02633">
        <ele>1940</ele>
        <time>2018-07-07T09:29:41.000Z</time>
      </trkpt>
      <trkpt lat="42.51646" lon="2.02636">
        <ele>1940</ele>
        <time>2018-07-07T09:29:42.000Z</time>
      </trkpt>
      <trkpt lat="42.51645" lon="2.02639">
        <ele>1940</ele>
        <time>2018-07-07T09:29:43.000Z</time>
      </trkpt>
      <trkpt lat="42.51643" lon="2.02641">
        <ele>1939</ele>
        <time>2018-07-07T09:29:44.000Z</time>
      </trkpt>
      <trkpt lat="42.51642" lon="2.02643">
        <ele>1939</ele>
        <time>2018-07-07T09:29:45.000Z</time>
      </trkpt>
      <trkpt lat="42.51641" lon="2.02645">
        <ele>1939</ele>
        <time>2018-07-07T09:29:46.000Z</time>
      </trkpt>
      <trkpt lat="42.5164" lon="2.02648">
        <ele>1939</ele>
        <time>2018-07-07T09:29:47.000Z</time>
      </trkpt>
      <trkpt lat="42.51638" lon="2.02651">
        <ele>1939</ele>
        <time>2018-07-07T09:29:48.000Z</time>
      </trkpt>
      <trkpt lat="42.51637" lon="2.02653">
        <ele>1939</ele>
        <time>2018-07-07T09:29:49.000Z</time>
      </trkpt>
      <trkpt lat="42.51636" lon="2.02656">
        <ele>1939</ele>
        <time>2018-07-07T09:29:50.000Z</time>
      </trkpt>
      <trkpt lat="42.51635" lon="2.02658">
        <ele>1939</ele>
        <time>2018-07-07T09:29:51.000Z</time>
      </trkpt>
      <trkpt lat="42.51633" lon="2.02661">
        <ele>1939</ele>
        <time>2018-07-07T09:29:52.000Z</time>
      </trkpt>
      <trkpt lat="42.5163" lon="2.02664">
        <ele>1939</ele>
        <time>2018-07-07T09:29:53.000Z</time>
      </trkpt>
      <trkpt lat="42.51628" lon="2.02666">
        <ele>1938</ele>
        <time>2018-07-07T09:29:54.000Z</time>
      </trkpt>
      <trkpt lat="42.51626" lon="2.02668">
        <ele>1939</ele>
        <time>2018-07-07T09:29:55.000Z</time>
      </trkpt>
      <trkpt lat="42.51624" lon="2.02671">
        <ele>1939</ele>
        <time>2018-07-07T09:29:56.000Z</time>
      </trkpt>
      <trkpt lat="42.51622" lon="2.02673">
        <ele>1938</ele>
        <time>2018-07-07T09:29:57.000Z</time>
      </trkpt>
      <trkpt lat="42.51616" lon="2.0268">
        <ele>1938</ele>
        <time>2018-07-07T09:29:59.000Z</time>
      </trkpt>
      <trkpt lat="42.51615" lon="2.02684">
        <ele>1938</ele>
        <time>2018-07-07T09:30:00.000Z</time>
      </trkpt>
      <trkpt lat="42.51612" lon="2.02688">
        <ele>1937</ele>
        <time>2018-07-07T09:30:01.000Z</time>
      </trkpt>
      <trkpt lat="42.51611" lon="2.02691">
        <ele>1937</ele>
        <time>2018-07-07T09:30:02.000Z</time>
      </trkpt>
      <trkpt lat="42.51609" lon="2.02695">
        <ele>1937</ele>
        <time>2018-07-07T09:30:03.000Z</time>
      </trkpt>
      <trkpt lat="42.51607" lon="2.027">
        <ele>1937</ele>
        <time>2018-07-07T09:30:04.000Z</time>
      </trkpt>
      <trkpt lat="42.51604" lon="2.02709">
        <ele>1937</ele>
        <time>2018-07-07T09:30:06.000Z</time>
      </trkpt>
      <trkpt lat="42.51603" lon="2.02712">
        <ele>1937</ele>
        <time>2018-07-07T09:30:07.000Z</time>
      </trkpt>
      <trkpt lat="42.51602" lon="2.02716">
        <ele>1937</ele>
        <time>2018-07-07T09:30:08.000Z</time>
      </trkpt>
      <trkpt lat="42.51601" lon="2.0272">
        <ele>1937</ele>
        <time>2018-07-07T09:30:09.000Z</time>
      </trkpt>
      <trkpt lat="42.51601" lon="2.02723">
        <ele>1937</ele>
        <time>2018-07-07T09:30:10.000Z</time>
      </trkpt>
      <trkpt lat="42.51601" lon="2.02727">
        <ele>1937</ele>
        <time>2018-07-07T09:30:11.000Z</time>
      </trkpt>
      <trkpt lat="42.51601" lon="2.02731">
        <ele>1937</ele>
        <time>2018-07-07T09:30:12.000Z</time>
      </trkpt>
      <trkpt lat="42.51601" lon="2.02734">
        <ele>1937</ele>
        <time>2018-07-07T09:30:13.000Z</time>
      </trkpt>
      <trkpt lat="42.51602" lon="2.02737">
        <ele>1937</ele>
        <time>2018-07-07T09:30:14.000Z</time>
      </trkpt>
      <trkpt lat="42.51603" lon="2.0274">
        <ele>1937</ele>
        <time>2018-07-07T09:30:15.000Z</time>
      </trkpt>
      <trkpt lat="42.51603" lon="2.02743">
        <ele>1936</ele>
        <time>2018-07-07T09:30:16.000Z</time>
      </trkpt>
      <trkpt lat="42.51604" lon="2.02745">
        <ele>1936</ele>
        <time>2018-07-07T09:30:17.000Z</time>
      </trkpt>
      <trkpt lat="42.51604" lon="2.02748">
        <ele>1936</ele>
        <time>2018-07-07T09:30:18.000Z</time>
      </trkpt>
      <trkpt lat="42.51604" lon="2.02751">
        <ele>1936</ele>
        <time>2018-07-07T09:30:19.000Z</time>
      </trkpt>
      <trkpt lat="42.51604" lon="2.02753">
        <ele>1936</ele>
        <time>2018-07-07T09:30:20.000Z</time>
      </trkpt>
      <trkpt lat="42.51604" lon="2.02756">
        <ele>1936</ele>
        <time>2018-07-07T09:30:21.000Z</time>
      </trkpt>
      <trkpt lat="42.51604" lon="2.02759">
        <ele>1936</ele>
        <time>2018-07-07T09:30:22.000Z</time>
      </trkpt>
      <trkpt lat="42.51605" lon="2.02762">
        <ele>1936</ele>
        <time>2018-07-07T09:30:23.000Z</time>
      </trkpt>
      <trkpt lat="42.51606" lon="2.02765">
        <ele>1936</ele>
        <time>2018-07-07T09:30:24.000Z</time>
      </trkpt>
      <trkpt lat="42.51607" lon="2.02768">
        <ele>1937</ele>
        <time>2018-07-07T09:30:25.000Z</time>
      </trkpt>
      <trkpt lat="42.51608" lon="2.02771">
        <ele>1937</ele>
        <time>2018-07-07T09:30:26.000Z</time>
      </trkpt>
      <trkpt lat="42.51609" lon="2.02773">
        <ele>1937</ele>
        <time>2018-07-07T09:30:27.000Z</time>
      </trkpt>
      <trkpt lat="42.5161" lon="2.02776">
        <ele>1937</ele>
        <time>2018-07-07T09:30:28.000Z</time>
      </trkpt>
      <trkpt lat="42.51612" lon="2.02779">
        <ele>1937</ele>
        <time>2018-07-07T09:30:29.000Z</time>
      </trkpt>
      <trkpt lat="42.51613" lon="2.02782">
        <ele>1937</ele>
        <time>2018-07-07T09:30:30.000Z</time>
      </trkpt>
      <trkpt lat="42.51614" lon="2.02784">
        <ele>1937</ele>
        <time>2018-07-07T09:30:31.000Z</time>
      </trkpt>
      <trkpt lat="42.51615" lon="2.02787">
        <ele>1937</ele>
        <time>2018-07-07T09:30:32.000Z</time>
      </trkpt>
      <trkpt lat="42.51617" lon="2.0279">
        <ele>1937</ele>
        <time>2018-07-07T09:30:33.000Z</time>
      </trkpt>
      <trkpt lat="42.51617" lon="2.02793">
        <ele>1937</ele>
        <time>2018-07-07T09:30:34.000Z</time>
      </trkpt>
      <trkpt lat="42.51618" lon="2.02796">
        <ele>1937</ele>
        <time>2018-07-07T09:30:35.000Z</time>
      </trkpt>
      <trkpt lat="42.51619" lon="2.02798">
        <ele>1937</ele>
        <time>2018-07-07T09:30:36.000Z</time>
      </trkpt>
      <trkpt lat="42.51621" lon="2.02801">
        <ele>1937</ele>
        <time>2018-07-07T09:30:37.000Z</time>
      </trkpt>
      <trkpt lat="42.51622" lon="2.02804">
        <ele>1937</ele>
        <time>2018-07-07T09:30:38.000Z</time>
      </trkpt>
      <trkpt lat="42.51623" lon="2.02806">
        <ele>1937</ele>
        <time>2018-07-07T09:30:39.000Z</time>
      </trkpt>
      <trkpt lat="42.51625" lon="2.02809">
        <ele>1937</ele>
        <time>2018-07-07T09:30:40.000Z</time>
      </trkpt>
      <trkpt lat="42.51627" lon="2.02811">
        <ele>1938</ele>
        <time>2018-07-07T09:30:41.000Z</time>
      </trkpt>
      <trkpt lat="42.51629" lon="2.02814">
        <ele>1938</ele>
        <time>2018-07-07T09:30:42.000Z</time>
      </trkpt>
      <trkpt lat="42.5163" lon="2.02816">
        <ele>1938</ele>
        <time>2018-07-07T09:30:43.000Z</time>
      </trkpt>
      <trkpt lat="42.51631" lon="2.02819">
        <ele>1938</ele>
        <time>2018-07-07T09:30:44.000Z</time>
      </trkpt>
      <trkpt lat="42.51632" lon="2.02821">
        <ele>1938</ele>
        <time>2018-07-07T09:30:45.000Z</time>
      </trkpt>
      <trkpt lat="42.51633" lon="2.02824">
        <ele>1938</ele>
        <time>2018-07-07T09:30:46.000Z</time>
      </trkpt>
      <trkpt lat="42.51634" lon="2.02827">
        <ele>1938</ele>
        <time>2018-07-07T09:30:47.000Z</time>
      </trkpt>
      <trkpt lat="42.51635" lon="2.0283">
        <ele>1938</ele>
        <time>2018-07-07T09:30:48.000Z</time>
      </trkpt>
      <trkpt lat="42.51635" lon="2.02834">
        <ele>1935</ele>
        <time>2018-07-07T09:30:49.000Z</time>
      </trkpt>
      <trkpt lat="42.51634" lon="2.02837">
        <ele>1935</ele>
        <time>2018-07-07T09:30:50.000Z</time>
      </trkpt>
      <trkpt lat="42.51635" lon="2.0284">
        <ele>1935</ele>
        <time>2018-07-07T09:30:51.000Z</time>
      </trkpt>
      <trkpt lat="42.51636" lon="2.02844">
        <ele>1935</ele>
        <time>2018-07-07T09:30:52.000Z</time>
      </trkpt>
      <trkpt lat="42.51637" lon="2.02847">
        <ele>1935</ele>
        <time>2018-07-07T09:30:53.000Z</time>
      </trkpt>
      <trkpt lat="42.51639" lon="2.02851">
        <ele>1935</ele>
        <time>2018-07-07T09:30:54.000Z</time>
      </trkpt>
      <trkpt lat="42.51641" lon="2.02854">
        <ele>1935</ele>
        <time>2018-07-07T09:30:55.000Z</time>
      </trkpt>
      <trkpt lat="42.51646" lon="2.02859">
        <ele>1935</ele>
        <time>2018-07-07T09:30:57.000Z</time>
      </trkpt>
      <trkpt lat="42.5165" lon="2.02861">
        <ele>1935</ele>
        <time>2018-07-07T09:30:58.000Z</time>
      </trkpt>
      <trkpt lat="42.51653" lon="2.02862">
        <ele>1935</ele>
        <time>2018-07-07T09:30:59.000Z</time>
      </trkpt>
      <trkpt lat="42.51655" lon="2.02864">
        <ele>1934</ele>
        <time>2018-07-07T09:31:00.000Z</time>
      </trkpt>
      <trkpt lat="42.51657" lon="2.02865">
        <ele>1934</ele>
        <time>2018-07-07T09:31:01.000Z</time>
      </trkpt>
      <trkpt lat="42.51659" lon="2.02866">
        <ele>1934</ele>
        <time>2018-07-07T09:31:02.000Z</time>
      </trkpt>
      <trkpt lat="42.51662" lon="2.02866">
        <ele>1934</ele>
        <time>2018-07-07T09:31:03.000Z</time>
      </trkpt>
      <trkpt lat="42.51664" lon="2.02867">
        <ele>1934</ele>
        <time>2018-07-07T09:31:04.000Z</time>
      </trkpt>
      <trkpt lat="42.51668" lon="2.02867">
        <ele>1934</ele>
        <time>2018-07-07T09:31:06.000Z</time>
      </trkpt>
      <trkpt lat="42.51671" lon="2.02867">
        <ele>1934</ele>
        <time>2018-07-07T09:31:07.000Z</time>
      </trkpt>
      <trkpt lat="42.51673" lon="2.02868">
        <ele>1934</ele>
        <time>2018-07-07T09:31:08.000Z</time>
      </trkpt>
      <trkpt lat="42.51677" lon="2.02869">
        <ele>1934</ele>
        <time>2018-07-07T09:31:09.000Z</time>
      </trkpt>
      <trkpt lat="42.5168" lon="2.0287">
        <ele>1934</ele>
        <time>2018-07-07T09:31:10.000Z</time>
      </trkpt>
      <trkpt lat="42.51682" lon="2.02871">
        <ele>1934</ele>
        <time>2018-07-07T09:31:11.000Z</time>
      </trkpt>
      <trkpt lat="42.51685" lon="2.02874">
        <ele>1933</ele>
        <time>2018-07-07T09:31:13.000Z</time>
      </trkpt>
      <trkpt lat="42.51688" lon="2.02875">
        <ele>1933</ele>
        <time>2018-07-07T09:31:14.000Z</time>
      </trkpt>
      <trkpt lat="42.5169" lon="2.02876">
        <ele>1933</ele>
        <time>2018-07-07T09:31:15.000Z</time>
      </trkpt>
      <trkpt lat="42.51692" lon="2.02878">
        <ele>1933</ele>
        <time>2018-07-07T09:31:16.000Z</time>
      </trkpt>
      <trkpt lat="42.51695" lon="2.02879">
        <ele>1933</ele>
        <time>2018-07-07T09:31:17.000Z</time>
      </trkpt>
      <trkpt lat="42.51697" lon="2.0288">
        <ele>1933</ele>
        <time>2018-07-07T09:31:18.000Z</time>
      </trkpt>
      <trkpt lat="42.517" lon="2.02881">
        <ele>1933</ele>
        <time>2018-07-07T09:31:19.000Z</time>
      </trkpt>
      <trkpt lat="42.51703" lon="2.02883">
        <ele>1933</ele>
        <time>2018-07-07T09:31:20.000Z</time>
      </trkpt>
      <trkpt lat="42.51705" lon="2.02884">
        <ele>1933</ele>
        <time>2018-07-07T09:31:21.000Z</time>
      </trkpt>
      <trkpt lat="42.51707" lon="2.02886">
        <ele>1933</ele>
        <time>2018-07-07T09:31:22.000Z</time>
      </trkpt>
      <trkpt lat="42.51709" lon="2.02886">
        <ele>1933</ele>
        <time>2018-07-07T09:31:23.000Z</time>
      </trkpt>
      <trkpt lat="42.51713" lon="2.02889">
        <ele>1932</ele>
        <time>2018-07-07T09:31:25.000Z</time>
      </trkpt>
      <trkpt lat="42.51716" lon="2.0289">
        <ele>1932</ele>
        <time>2018-07-07T09:31:26.000Z</time>
      </trkpt>
      <trkpt lat="42.51718" lon="2.02892">
        <ele>1932</ele>
        <time>2018-07-07T09:31:27.000Z</time>
      </trkpt>
      <trkpt lat="42.5172" lon="2.02896">
        <ele>1932</ele>
        <time>2018-07-07T09:31:28.000Z</time>
      </trkpt>
      <trkpt lat="42.51723" lon="2.02899">
        <ele>1932</ele>
        <time>2018-07-07T09:31:29.000Z</time>
      </trkpt>
      <trkpt lat="42.51725" lon="2.02901">
        <ele>1932</ele>
        <time>2018-07-07T09:31:30.000Z</time>
      </trkpt>
      <trkpt lat="42.51727" lon="2.02904">
        <ele>1932</ele>
        <time>2018-07-07T09:31:31.000Z</time>
      </trkpt>
      <trkpt lat="42.51729" lon="2.02906">
        <ele>1932</ele>
        <time>2018-07-07T09:31:32.000Z</time>
      </trkpt>
      <trkpt lat="42.51732" lon="2.02909">
        <ele>1931</ele>
        <time>2018-07-07T09:31:33.000Z</time>
      </trkpt>
      <trkpt lat="42.51735" lon="2.02911">
        <ele>1931</ele>
        <time>2018-07-07T09:31:34.000Z</time>
      </trkpt>
      <trkpt lat="42.51737" lon="2.02914">
        <ele>1931</ele>
        <time>2018-07-07T09:31:35.000Z</time>
      </trkpt>
      <trkpt lat="42.51739" lon="2.02917">
        <ele>1929</ele>
        <time>2018-07-07T09:31:36.000Z</time>
      </trkpt>
      <trkpt lat="42.51741" lon="2.0292">
        <ele>1929</ele>
        <time>2018-07-07T09:31:37.000Z</time>
      </trkpt>
      <trkpt lat="42.51743" lon="2.02922">
        <ele>1930</ele>
        <time>2018-07-07T09:31:38.000Z</time>
      </trkpt>
      <trkpt lat="42.51745" lon="2.02924">
        <ele>1930</ele>
        <time>2018-07-07T09:31:39.000Z</time>
      </trkpt>
      <trkpt lat="42.51748" lon="2.02926">
        <ele>1929</ele>
        <time>2018-07-07T09:31:40.000Z</time>
      </trkpt>
      <trkpt lat="42.5175" lon="2.02928">
        <ele>1929</ele>
        <time>2018-07-07T09:31:41.000Z</time>
      </trkpt>
      <trkpt lat="42.51752" lon="2.0293">
        <ele>1931</ele>
        <time>2018-07-07T09:31:42.000Z</time>
      </trkpt>
      <trkpt lat="42.51754" lon="2.02933">
        <ele>1931</ele>
        <time>2018-07-07T09:31:43.000Z</time>
      </trkpt>
      <trkpt lat="42.51756" lon="2.02935">
        <ele>1931</ele>
        <time>2018-07-07T09:31:44.000Z</time>
      </trkpt>
      <trkpt lat="42.51758" lon="2.02938">
        <ele>1931</ele>
        <time>2018-07-07T09:31:45.000Z</time>
      </trkpt>
      <trkpt lat="42.5176" lon="2.0294">
        <ele>1931</ele>
        <time>2018-07-07T09:31:46.000Z</time>
      </trkpt>
      <trkpt lat="42.51761" lon="2.02943">
        <ele>1932</ele>
        <time>2018-07-07T09:31:47.000Z</time>
      </trkpt>
      <trkpt lat="42.51763" lon="2.02947">
        <ele>1932</ele>
        <time>2018-07-07T09:31:48.000Z</time>
      </trkpt>
      <trkpt lat="42.51764" lon="2.0295">
        <ele>1932</ele>
        <time>2018-07-07T09:31:49.000Z</time>
      </trkpt>
      <trkpt lat="42.51764" lon="2.02953">
        <ele>1932</ele>
        <time>2018-07-07T09:31:50.000Z</time>
      </trkpt>
      <trkpt lat="42.51765" lon="2.02956">
        <ele>1932</ele>
        <time>2018-07-07T09:31:51.000Z</time>
      </trkpt>
      <trkpt lat="42.51765" lon="2.02959">
        <ele>1932</ele>
        <time>2018-07-07T09:31:52.000Z</time>
      </trkpt>
      <trkpt lat="42.51765" lon="2.02963">
        <ele>1932</ele>
        <time>2018-07-07T09:31:53.000Z</time>
      </trkpt>
      <trkpt lat="42.51766" lon="2.02966">
        <ele>1932</ele>
        <time>2018-07-07T09:31:54.000Z</time>
      </trkpt>
      <trkpt lat="42.51766" lon="2.02969">
        <ele>1932</ele>
        <time>2018-07-07T09:31:55.000Z</time>
      </trkpt>
      <trkpt lat="42.51766" lon="2.02972">
        <ele>1932</ele>
        <time>2018-07-07T09:31:56.000Z</time>
      </trkpt>
      <trkpt lat="42.51767" lon="2.02975">
        <ele>1932</ele>
        <time>2018-07-07T09:31:57.000Z</time>
      </trkpt>
      <trkpt lat="42.51768" lon="2.02978">
        <ele>1932</ele>
        <time>2018-07-07T09:31:58.000Z</time>
      </trkpt>
      <trkpt lat="42.51769" lon="2.0298">
        <ele>1932</ele>
        <time>2018-07-07T09:31:59.000Z</time>
      </trkpt>
      <trkpt lat="42.51771" lon="2.02983">
        <ele>1932</ele>
        <time>2018-07-07T09:32:00.000Z</time>
      </trkpt>
      <trkpt lat="42.51773" lon="2.02986">
        <ele>1932</ele>
        <time>2018-07-07T09:32:01.000Z</time>
      </trkpt>
      <trkpt lat="42.51774" lon="2.02989">
        <ele>1932</ele>
        <time>2018-07-07T09:32:02.000Z</time>
      </trkpt>
      <trkpt lat="42.51775" lon="2.02992">
        <ele>1932</ele>
        <time>2018-07-07T09:32:03.000Z</time>
      </trkpt>
      <trkpt lat="42.51776" lon="2.02995">
        <ele>1932</ele>
        <time>2018-07-07T09:32:04.000Z</time>
      </trkpt>
      <trkpt lat="42.51777" lon="2.02997">
        <ele>1932</ele>
        <time>2018-07-07T09:32:05.000Z</time>
      </trkpt>
      <trkpt lat="42.51778" lon="2.02999">
        <ele>1932</ele>
        <time>2018-07-07T09:32:06.000Z</time>
      </trkpt>
      <trkpt lat="42.51779" lon="2.03003">
        <ele>1933</ele>
        <time>2018-07-07T09:32:08.000Z</time>
      </trkpt>
      <trkpt lat="42.5178" lon="2.03006">
        <ele>1933</ele>
        <time>2018-07-07T09:32:10.000Z</time>
      </trkpt>
      <trkpt lat="42.51782" lon="2.0301">
        <ele>1933</ele>
        <time>2018-07-07T09:32:12.000Z</time>
      </trkpt>
      <trkpt lat="42.51782" lon="2.03013">
        <ele>1933</ele>
        <time>2018-07-07T09:32:14.000Z</time>
      </trkpt>
      <trkpt lat="42.51783" lon="2.03016">
        <ele>1933</ele>
        <time>2018-07-07T09:32:16.000Z</time>
      </trkpt>
      <trkpt lat="42.51783" lon="2.0302">
        <ele>1933</ele>
        <time>2018-07-07T09:32:18.000Z</time>
      </trkpt>
      <trkpt lat="42.51785" lon="2.03023">
        <ele>1933</ele>
        <time>2018-07-07T09:32:20.000Z</time>
      </trkpt>
      <trkpt lat="42.5179" lon="2.03027">
        <ele>1934</ele>
        <time>2018-07-07T09:32:23.000Z</time>
      </trkpt>
      <trkpt lat="42.51792" lon="2.03029">
        <ele>1934</ele>
        <time>2018-07-07T09:32:25.000Z</time>
      </trkpt>
      <trkpt lat="42.51794" lon="2.03032">
        <ele>1934</ele>
        <time>2018-07-07T09:32:27.000Z</time>
      </trkpt>
      <trkpt lat="42.51794" lon="2.03035">
        <ele>1934</ele>
        <time>2018-07-07T09:32:29.000Z</time>
      </trkpt>
      <trkpt lat="42.51795" lon="2.03038">
        <ele>1934</ele>
        <time>2018-07-07T09:32:31.000Z</time>
      </trkpt>
      <trkpt lat="42.51795" lon="2.03042">
        <ele>1934</ele>
        <time>2018-07-07T09:32:33.000Z</time>
      </trkpt>
      <trkpt lat="42.51796" lon="2.03046">
        <ele>1934</ele>
        <time>2018-07-07T09:32:35.000Z</time>
      </trkpt>
      <trkpt lat="42.51796" lon="2.03048">
        <ele>1934</ele>
        <time>2018-07-07T09:32:37.000Z</time>
      </trkpt>
      <trkpt lat="42.51798" lon="2.0305">
        <ele>1934</ele>
        <time>2018-07-07T09:32:40.000Z</time>
      </trkpt>
      <trkpt lat="42.518" lon="2.0305">
        <ele>1934</ele>
        <time>2018-07-07T09:32:42.000Z</time>
      </trkpt>
      <trkpt lat="42.51803" lon="2.0305">
        <ele>1934</ele>
        <time>2018-07-07T09:32:44.000Z</time>
      </trkpt>
      <trkpt lat="42.51806" lon="2.03051">
        <ele>1935</ele>
        <time>2018-07-07T09:32:46.000Z</time>
      </trkpt>
      <trkpt lat="42.51807" lon="2.03051">
        <ele>1935</ele>
        <time>2018-07-07T09:32:47.000Z</time>
      </trkpt>
      <trkpt lat="42.51809" lon="2.03053">
        <ele>1935</ele>
        <time>2018-07-07T09:32:48.000Z</time>
      </trkpt>
      <trkpt lat="42.51812" lon="2.03054">
        <ele>1935</ele>
        <time>2018-07-07T09:32:50.000Z</time>
      </trkpt>
      <trkpt lat="42.51814" lon="2.03055">
        <ele>1935</ele>
        <time>2018-07-07T09:32:51.000Z</time>
      </trkpt>
      <trkpt lat="42.51818" lon="2.03054">
        <ele>1935</ele>
        <time>2018-07-07T09:32:53.000Z</time>
      </trkpt>
      <trkpt lat="42.51821" lon="2.03055">
        <ele>1935</ele>
        <time>2018-07-07T09:32:54.000Z</time>
      </trkpt>
      <trkpt lat="42.51824" lon="2.03055">
        <ele>1935</ele>
        <time>2018-07-07T09:32:55.000Z</time>
      </trkpt>
      <trkpt lat="42.51826" lon="2.03057">
        <ele>1935</ele>
        <time>2018-07-07T09:32:56.000Z</time>
      </trkpt>
      <trkpt lat="42.51829" lon="2.03058">
        <ele>1936</ele>
        <time>2018-07-07T09:32:57.000Z</time>
      </trkpt>
      <trkpt lat="42.51831" lon="2.0306">
        <ele>1936</ele>
        <time>2018-07-07T09:32:58.000Z</time>
      </trkpt>
      <trkpt lat="42.51834" lon="2.03062">
        <ele>1939</ele>
        <time>2018-07-07T09:32:59.000Z</time>
      </trkpt>
      <trkpt lat="42.51836" lon="2.03064">
        <ele>1939</ele>
        <time>2018-07-07T09:33:00.000Z</time>
      </trkpt>
      <trkpt lat="42.51838" lon="2.03065">
        <ele>1939</ele>
        <time>2018-07-07T09:33:01.000Z</time>
      </trkpt>
      <trkpt lat="42.5184" lon="2.03067">
        <ele>1939</ele>
        <time>2018-07-07T09:33:02.000Z</time>
      </trkpt>
      <trkpt lat="42.51843" lon="2.03068">
        <ele>1939</ele>
        <time>2018-07-07T09:33:03.000Z</time>
      </trkpt>
      <trkpt lat="42.51845" lon="2.0307">
        <ele>1939</ele>
        <time>2018-07-07T09:33:04.000Z</time>
      </trkpt>
      <trkpt lat="42.51847" lon="2.03071">
        <ele>1939</ele>
        <time>2018-07-07T09:33:05.000Z</time>
      </trkpt>
      <trkpt lat="42.51849" lon="2.03073">
        <ele>1939</ele>
        <time>2018-07-07T09:33:06.000Z</time>
      </trkpt>
      <trkpt lat="42.51851" lon="2.03076">
        <ele>1939</ele>
        <time>2018-07-07T09:33:07.000Z</time>
      </trkpt>
      <trkpt lat="42.51853" lon="2.03078">
        <ele>1939</ele>
        <time>2018-07-07T09:33:08.000Z</time>
      </trkpt>
      <trkpt lat="42.51855" lon="2.03081">
        <ele>1939</ele>
        <time>2018-07-07T09:33:09.000Z</time>
      </trkpt>
      <trkpt lat="42.51857" lon="2.03083">
        <ele>1939</ele>
        <time>2018-07-07T09:33:10.000Z</time>
      </trkpt>
      <trkpt lat="42.51859" lon="2.03085">
        <ele>1939</ele>
        <time>2018-07-07T09:33:11.000Z</time>
      </trkpt>
      <trkpt lat="42.51861" lon="2.03088">
        <ele>1939</ele>
        <time>2018-07-07T09:33:12.000Z</time>
      </trkpt>
      <trkpt lat="42.51862" lon="2.03092">
        <ele>1939</ele>
        <time>2018-07-07T09:33:13.000Z</time>
      </trkpt>
      <trkpt lat="42.51863" lon="2.03096">
        <ele>1939</ele>
        <time>2018-07-07T09:33:14.000Z</time>
      </trkpt>
      <trkpt lat="42.51863" lon="2.031">
        <ele>1939</ele>
        <time>2018-07-07T09:33:15.000Z</time>
      </trkpt>
      <trkpt lat="42.51864" lon="2.03104">
        <ele>1939</ele>
        <time>2018-07-07T09:33:16.000Z</time>
      </trkpt>
      <trkpt lat="42.51863" lon="2.03108">
        <ele>1939</ele>
        <time>2018-07-07T09:33:17.000Z</time>
      </trkpt>
      <trkpt lat="42.51863" lon="2.03113">
        <ele>1939</ele>
        <time>2018-07-07T09:33:18.000Z</time>
      </trkpt>
      <trkpt lat="42.51863" lon="2.03117">
        <ele>1939</ele>
        <time>2018-07-07T09:33:19.000Z</time>
      </trkpt>
      <trkpt lat="42.51862" lon="2.03121">
        <ele>1939</ele>
        <time>2018-07-07T09:33:20.000Z</time>
      </trkpt>
      <trkpt lat="42.51862" lon="2.03124">
        <ele>1939</ele>
        <time>2018-07-07T09:33:21.000Z</time>
      </trkpt>
      <trkpt lat="42.51862" lon="2.03128">
        <ele>1939</ele>
        <time>2018-07-07T09:33:22.000Z</time>
      </trkpt>
      <trkpt lat="42.51862" lon="2.03132">
        <ele>1939</ele>
        <time>2018-07-07T09:33:23.000Z</time>
      </trkpt>
      <trkpt lat="42.51862" lon="2.03136">
        <ele>1939</ele>
        <time>2018-07-07T09:33:24.000Z</time>
      </trkpt>
      <trkpt lat="42.51862" lon="2.0314">
        <ele>1939</ele>
        <time>2018-07-07T09:33:25.000Z</time>
      </trkpt>
      <trkpt lat="42.51861" lon="2.03143">
        <ele>1939</ele>
        <time>2018-07-07T09:33:26.000Z</time>
      </trkpt>
      <trkpt lat="42.5186" lon="2.03146">
        <ele>1938</ele>
        <time>2018-07-07T09:33:27.000Z</time>
      </trkpt>
      <trkpt lat="42.51859" lon="2.0315">
        <ele>1938</ele>
        <time>2018-07-07T09:33:28.000Z</time>
      </trkpt>
      <trkpt lat="42.51858" lon="2.03153">
        <ele>1938</ele>
        <time>2018-07-07T09:33:29.000Z</time>
      </trkpt>
      <trkpt lat="42.51857" lon="2.03157">
        <ele>1938</ele>
        <time>2018-07-07T09:33:30.000Z</time>
      </trkpt>
      <trkpt lat="42.51856" lon="2.0316">
        <ele>1938</ele>
        <time>2018-07-07T09:33:31.000Z</time>
      </trkpt>
      <trkpt lat="42.51854" lon="2.03162">
        <ele>1938</ele>
        <time>2018-07-07T09:33:32.000Z</time>
      </trkpt>
      <trkpt lat="42.51852" lon="2.03165">
        <ele>1938</ele>
        <time>2018-07-07T09:33:33.000Z</time>
      </trkpt>
      <trkpt lat="42.5185" lon="2.03167">
        <ele>1936</ele>
        <time>2018-07-07T09:33:34.000Z</time>
      </trkpt>
      <trkpt lat="42.51849" lon="2.03169">
        <ele>1936</ele>
        <time>2018-07-07T09:33:35.000Z</time>
      </trkpt>
      <trkpt lat="42.51847" lon="2.03172">
        <ele>1936</ele>
        <time>2018-07-07T09:33:36.000Z</time>
      </trkpt>
      <trkpt lat="42.51846" lon="2.03175">
        <ele>1936</ele>
        <time>2018-07-07T09:33:37.000Z</time>
      </trkpt>
      <trkpt lat="42.51844" lon="2.03178">
        <ele>1936</ele>
        <time>2018-07-07T09:33:38.000Z</time>
      </trkpt>
      <trkpt lat="42.51844" lon="2.03182">
        <ele>1936</ele>
        <time>2018-07-07T09:33:39.000Z</time>
      </trkpt>
      <trkpt lat="42.51843" lon="2.03185">
        <ele>1936</ele>
        <time>2018-07-07T09:33:40.000Z</time>
      </trkpt>
      <trkpt lat="42.51842" lon="2.03188">
        <ele>1936</ele>
        <time>2018-07-07T09:33:41.000Z</time>
      </trkpt>
      <trkpt lat="42.51841" lon="2.03191">
        <ele>1936</ele>
        <time>2018-07-07T09:33:42.000Z</time>
      </trkpt>
      <trkpt lat="42.51839" lon="2.03194">
        <ele>1936</ele>
        <time>2018-07-07T09:33:43.000Z</time>
      </trkpt>
      <trkpt lat="42.51837" lon="2.03197">
        <ele>1935</ele>
        <time>2018-07-07T09:33:44.000Z</time>
      </trkpt>
      <trkpt lat="42.51835" lon="2.03199">
        <ele>1935</ele>
        <time>2018-07-07T09:33:45.000Z</time>
      </trkpt>
      <trkpt lat="42.51833" lon="2.03201">
        <ele>1931</ele>
        <time>2018-07-07T09:33:46.000Z</time>
      </trkpt>
      <trkpt lat="42.51832" lon="2.03202">
        <ele>1931</ele>
        <time>2018-07-07T09:33:47.000Z</time>
      </trkpt>
      <trkpt lat="42.5183" lon="2.03205">
        <ele>1931</ele>
        <time>2018-07-07T09:33:48.000Z</time>
      </trkpt>
      <trkpt lat="42.51828" lon="2.03207">
        <ele>1931</ele>
        <time>2018-07-07T09:33:49.000Z</time>
      </trkpt>
      <trkpt lat="42.51826" lon="2.0321">
        <ele>1930</ele>
        <time>2018-07-07T09:33:50.000Z</time>
      </trkpt>
      <trkpt lat="42.51824" lon="2.03213">
        <ele>1930</ele>
        <time>2018-07-07T09:33:51.000Z</time>
      </trkpt>
      <trkpt lat="42.51822" lon="2.03216">
        <ele>1930</ele>
        <time>2018-07-07T09:33:52.000Z</time>
      </trkpt>
      <trkpt lat="42.51821" lon="2.03218">
        <ele>1930</ele>
        <time>2018-07-07T09:33:53.000Z</time>
      </trkpt>
      <trkpt lat="42.51819" lon="2.03221">
        <ele>1930</ele>
        <time>2018-07-07T09:33:54.000Z</time>
      </trkpt>
      <trkpt lat="42.51818" lon="2.03224">
        <ele>1930</ele>
        <time>2018-07-07T09:33:55.000Z</time>
      </trkpt>
      <trkpt lat="42.51817" lon="2.03227">
        <ele>1930</ele>
        <time>2018-07-07T09:33:56.000Z</time>
      </trkpt>
      <trkpt lat="42.51817" lon="2.03231">
        <ele>1930</ele>
        <time>2018-07-07T09:33:57.000Z</time>
      </trkpt>
      <trkpt lat="42.51816" lon="2.03234">
        <ele>1929</ele>
        <time>2018-07-07T09:33:58.000Z</time>
      </trkpt>
      <trkpt lat="42.51815" lon="2.03238">
        <ele>1929</ele>
        <time>2018-07-07T09:33:59.000Z</time>
      </trkpt>
      <trkpt lat="42.51815" lon="2.03241">
        <ele>1929</ele>
        <time>2018-07-07T09:34:00.000Z</time>
      </trkpt>
      <trkpt lat="42.51814" lon="2.03244">
        <ele>1929</ele>
        <time>2018-07-07T09:34:01.000Z</time>
      </trkpt>
      <trkpt lat="42.51812" lon="2.03247">
        <ele>1929</ele>
        <time>2018-07-07T09:34:02.000Z</time>
      </trkpt>
      <trkpt lat="42.51811" lon="2.0325">
        <ele>1927</ele>
        <time>2018-07-07T09:34:03.000Z</time>
      </trkpt>
      <trkpt lat="42.51809" lon="2.03253">
        <ele>1927</ele>
        <time>2018-07-07T09:34:04.000Z</time>
      </trkpt>
      <trkpt lat="42.51807" lon="2.03255">
        <ele>1927</ele>
        <time>2018-07-07T09:34:05.000Z</time>
      </trkpt>
      <trkpt lat="42.51804" lon="2.03258">
        <ele>1927</ele>
        <time>2018-07-07T09:34:06.000Z</time>
      </trkpt>
      <trkpt lat="42.51802" lon="2.03261">
        <ele>1926</ele>
        <time>2018-07-07T09:34:07.000Z</time>
      </trkpt>
      <trkpt lat="42.518" lon="2.03263">
        <ele>1926</ele>
        <time>2018-07-07T09:34:08.000Z</time>
      </trkpt>
      <trkpt lat="42.51798" lon="2.03265">
        <ele>1926</ele>
        <time>2018-07-07T09:34:09.000Z</time>
      </trkpt>
      <trkpt lat="42.51796" lon="2.03268">
        <ele>1926</ele>
        <time>2018-07-07T09:34:10.000Z</time>
      </trkpt>
      <trkpt lat="42.51794" lon="2.03271">
        <ele>1926</ele>
        <time>2018-07-07T09:34:11.000Z</time>
      </trkpt>
      <trkpt lat="42.51792" lon="2.03274">
        <ele>1926</ele>
        <time>2018-07-07T09:34:12.000Z</time>
      </trkpt>
      <trkpt lat="42.51791" lon="2.03277">
        <ele>1925</ele>
        <time>2018-07-07T09:34:13.000Z</time>
      </trkpt>
      <trkpt lat="42.51791" lon="2.0328">
        <ele>1925</ele>
        <time>2018-07-07T09:34:14.000Z</time>
      </trkpt>
      <trkpt lat="42.51791" lon="2.03283">
        <ele>1925</ele>
        <time>2018-07-07T09:34:15.000Z</time>
      </trkpt>
      <trkpt lat="42.51791" lon="2.03286">
        <ele>1925</ele>
        <time>2018-07-07T09:34:16.000Z</time>
      </trkpt>
      <trkpt lat="42.51791" lon="2.03289">
        <ele>1925</ele>
        <time>2018-07-07T09:34:17.000Z</time>
      </trkpt>
      <trkpt lat="42.51791" lon="2.03292">
        <ele>1925</ele>
        <time>2018-07-07T09:34:18.000Z</time>
      </trkpt>
      <trkpt lat="42.51791" lon="2.03295">
        <ele>1925</ele>
        <time>2018-07-07T09:34:19.000Z</time>
      </trkpt>
      <trkpt lat="42.51791" lon="2.03298">
        <ele>1925</ele>
        <time>2018-07-07T09:34:20.000Z</time>
      </trkpt>
      <trkpt lat="42.51789" lon="2.033">
        <ele>1925</ele>
        <time>2018-07-07T09:34:21.000Z</time>
      </trkpt>
      <trkpt lat="42.51786" lon="2.03302">
        <ele>1925</ele>
        <time>2018-07-07T09:34:22.000Z</time>
      </trkpt>
      <trkpt lat="42.51784" lon="2.03303">
        <ele>1925</ele>
        <time>2018-07-07T09:34:23.000Z</time>
      </trkpt>
      <trkpt lat="42.5178" lon="2.03303">
        <ele>1925</ele>
        <time>2018-07-07T09:34:24.000Z</time>
      </trkpt>
      <trkpt lat="42.51777" lon="2.03304">
        <ele>1925</ele>
        <time>2018-07-07T09:34:25.000Z</time>
      </trkpt>
      <trkpt lat="42.51774" lon="2.03304">
        <ele>1924</ele>
        <time>2018-07-07T09:34:26.000Z</time>
      </trkpt>
      <trkpt lat="42.5177" lon="2.03304">
        <ele>1924</ele>
        <time>2018-07-07T09:34:27.000Z</time>
      </trkpt>
      <trkpt lat="42.51768" lon="2.03305">
        <ele>1924</ele>
        <time>2018-07-07T09:34:28.000Z</time>
      </trkpt>
      <trkpt lat="42.51766" lon="2.03306">
        <ele>1924</ele>
        <time>2018-07-07T09:34:29.000Z</time>
      </trkpt>
      <trkpt lat="42.51763" lon="2.0331">
        <ele>1923</ele>
        <time>2018-07-07T09:34:31.000Z</time>
      </trkpt>
      <trkpt lat="42.51761" lon="2.03313">
        <ele>1923</ele>
        <time>2018-07-07T09:34:32.000Z</time>
      </trkpt>
      <trkpt lat="42.5176" lon="2.03314">
        <ele>1923</ele>
        <time>2018-07-07T09:34:33.000Z</time>
      </trkpt>
      <trkpt lat="42.51758" lon="2.03316">
        <ele>1923</ele>
        <time>2018-07-07T09:34:34.000Z</time>
      </trkpt>
      <trkpt lat="42.51757" lon="2.03318">
        <ele>1923</ele>
        <time>2018-07-07T09:34:35.000Z</time>
      </trkpt>
      <trkpt lat="42.51755" lon="2.03321">
        <ele>1922</ele>
        <time>2018-07-07T09:34:36.000Z</time>
      </trkpt>
      <trkpt lat="42.51754" lon="2.03324">
        <ele>1922</ele>
        <time>2018-07-07T09:34:37.000Z</time>
      </trkpt>
      <trkpt lat="42.51753" lon="2.03326">
        <ele>1921</ele>
        <time>2018-07-07T09:34:38.000Z</time>
      </trkpt>
      <trkpt lat="42.51752" lon="2.03328">
        <ele>1921</ele>
        <time>2018-07-07T09:34:39.000Z</time>
      </trkpt>
      <trkpt lat="42.5175" lon="2.0333">
        <ele>1919</ele>
        <time>2018-07-07T09:34:40.000Z</time>
      </trkpt>
      <trkpt lat="42.51747" lon="2.03332">
        <ele>1919</ele>
        <time>2018-07-07T09:34:41.000Z</time>
      </trkpt>
      <trkpt lat="42.51743" lon="2.03334">
        <ele>1918</ele>
        <time>2018-07-07T09:34:42.000Z</time>
      </trkpt>
      <trkpt lat="42.5174" lon="2.03336">
        <ele>1917</ele>
        <time>2018-07-07T09:34:43.000Z</time>
      </trkpt>
      <trkpt lat="42.51737" lon="2.03338">
        <ele>1916</ele>
        <time>2018-07-07T09:34:44.000Z</time>
      </trkpt>
      <trkpt lat="42.51734" lon="2.0334">
        <ele>1916</ele>
        <time>2018-07-07T09:34:45.000Z</time>
      </trkpt>
      <trkpt lat="42.51732" lon="2.03342">
        <ele>1915</ele>
        <time>2018-07-07T09:34:46.000Z</time>
      </trkpt>
      <trkpt lat="42.5173" lon="2.03345">
        <ele>1914</ele>
        <time>2018-07-07T09:34:47.000Z</time>
      </trkpt>
      <trkpt lat="42.51728" lon="2.03348">
        <ele>1914</ele>
        <time>2018-07-07T09:34:48.000Z</time>
      </trkpt>
      <trkpt lat="42.51726" lon="2.03351">
        <ele>1914</ele>
        <time>2018-07-07T09:34:49.000Z</time>
      </trkpt>
      <trkpt lat="42.51723" lon="2.03354">
        <ele>1913</ele>
        <time>2018-07-07T09:34:50.000Z</time>
      </trkpt>
      <trkpt lat="42.51722" lon="2.03357">
        <ele>1913</ele>
        <time>2018-07-07T09:34:51.000Z</time>
      </trkpt>
      <trkpt lat="42.5172" lon="2.0336">
        <ele>1913</ele>
        <time>2018-07-07T09:34:52.000Z</time>
      </trkpt>
      <trkpt lat="42.51718" lon="2.03362">
        <ele>1912</ele>
        <time>2018-07-07T09:34:53.000Z</time>
      </trkpt>
      <trkpt lat="42.51716" lon="2.03364">
        <ele>1912</ele>
        <time>2018-07-07T09:34:54.000Z</time>
      </trkpt>
      <trkpt lat="42.51715" lon="2.03367">
        <ele>1912</ele>
        <time>2018-07-07T09:34:55.000Z</time>
      </trkpt>
      <trkpt lat="42.51713" lon="2.03371">
        <ele>1912</ele>
        <time>2018-07-07T09:34:57.000Z</time>
      </trkpt>
      <trkpt lat="42.51712" lon="2.03376">
        <ele>1912</ele>
        <time>2018-07-07T09:34:59.000Z</time>
      </trkpt>
      <trkpt lat="42.5171" lon="2.0338">
        <ele>1911</ele>
        <time>2018-07-07T09:35:01.000Z</time>
      </trkpt>
      <trkpt lat="42.5171" lon="2.03383">
        <ele>1911</ele>
        <time>2018-07-07T09:35:02.000Z</time>
      </trkpt>
      <trkpt lat="42.51709" lon="2.03386">
        <ele>1911</ele>
        <time>2018-07-07T09:35:03.000Z</time>
      </trkpt>
      <trkpt lat="42.51708" lon="2.0339">
        <ele>1911</ele>
        <time>2018-07-07T09:35:04.000Z</time>
      </trkpt>
      <trkpt lat="42.51704" lon="2.03396">
        <ele>1911</ele>
        <time>2018-07-07T09:35:06.000Z</time>
      </trkpt>
      <trkpt lat="42.51703" lon="2.03399">
        <ele>1911</ele>
        <time>2018-07-07T09:35:07.000Z</time>
      </trkpt>
      <trkpt lat="42.51699" lon="2.03405">
        <ele>1910</ele>
        <time>2018-07-07T09:35:09.000Z</time>
      </trkpt>
      <trkpt lat="42.51697" lon="2.03407">
        <ele>1910</ele>
        <time>2018-07-07T09:35:10.000Z</time>
      </trkpt>
      <trkpt lat="42.51696" lon="2.0341">
        <ele>1909</ele>
        <time>2018-07-07T09:35:11.000Z</time>
      </trkpt>
      <trkpt lat="42.51694" lon="2.03414">
        <ele>1909</ele>
        <time>2018-07-07T09:35:12.000Z</time>
      </trkpt>
      <trkpt lat="42.51693" lon="2.03421">
        <ele>1910</ele>
        <time>2018-07-07T09:35:14.000Z</time>
      </trkpt>
      <trkpt lat="42.5169" lon="2.03431">
        <ele>1910</ele>
        <time>2018-07-07T09:35:17.000Z</time>
      </trkpt>
      <trkpt lat="42.51689" lon="2.03434">
        <ele>1910</ele>
        <time>2018-07-07T09:35:18.000Z</time>
      </trkpt>
      <trkpt lat="42.51689" lon="2.03437">
        <ele>1910</ele>
        <time>2018-07-07T09:35:19.000Z</time>
      </trkpt>
      <trkpt lat="42.51688" lon="2.03441">
        <ele>1911</ele>
        <time>2018-07-07T09:35:20.000Z</time>
      </trkpt>
      <trkpt lat="42.51687" lon="2.03444">
        <ele>1911</ele>
        <time>2018-07-07T09:35:21.000Z</time>
      </trkpt>
      <trkpt lat="42.51687" lon="2.03448">
        <ele>1911</ele>
        <time>2018-07-07T09:35:22.000Z</time>
      </trkpt>
      <trkpt lat="42.51687" lon="2.03451">
        <ele>1911</ele>
        <time>2018-07-07T09:35:23.000Z</time>
      </trkpt>
      <trkpt lat="42.51686" lon="2.03454">
        <ele>1911</ele>
        <time>2018-07-07T09:35:24.000Z</time>
      </trkpt>
      <trkpt lat="42.51685" lon="2.03457">
        <ele>1911</ele>
        <time>2018-07-07T09:35:25.000Z</time>
      </trkpt>
      <trkpt lat="42.51684" lon="2.0346">
        <ele>1911</ele>
        <time>2018-07-07T09:35:26.000Z</time>
      </trkpt>
      <trkpt lat="42.51683" lon="2.03462">
        <ele>1911</ele>
        <time>2018-07-07T09:35:27.000Z</time>
      </trkpt>
      <trkpt lat="42.51682" lon="2.03465">
        <ele>1911</ele>
        <time>2018-07-07T09:35:28.000Z</time>
      </trkpt>
      <trkpt lat="42.5168" lon="2.03467">
        <ele>1911</ele>
        <time>2018-07-07T09:35:29.000Z</time>
      </trkpt>
      <trkpt lat="42.51676" lon="2.03471">
        <ele>1911</ele>
        <time>2018-07-07T09:35:31.000Z</time>
      </trkpt>
      <trkpt lat="42.51671" lon="2.03473">
        <ele>1911</ele>
        <time>2018-07-07T09:35:32.000Z</time>
      </trkpt>
      <trkpt lat="42.51668" lon="2.03474">
        <ele>1911</ele>
        <time>2018-07-07T09:35:33.000Z</time>
      </trkpt>
      <trkpt lat="42.51658" lon="2.03479">
        <ele>1900</ele>
        <time>2018-07-07T09:35:36.000Z</time>
      </trkpt>
      <trkpt lat="42.51653" lon="2.03487">
        <ele>1901</ele>
        <time>2018-07-07T09:35:39.000Z</time>
      </trkpt>
      <trkpt lat="42.51651" lon="2.03491">
        <ele>1901</ele>
        <time>2018-07-07T09:35:40.000Z</time>
      </trkpt>
      <trkpt lat="42.51648" lon="2.03494">
        <ele>1901</ele>
        <time>2018-07-07T09:35:41.000Z</time>
      </trkpt>
      <trkpt lat="42.51646" lon="2.03497">
        <ele>1900</ele>
        <time>2018-07-07T09:35:42.000Z</time>
      </trkpt>
      <trkpt lat="42.51643" lon="2.035">
        <ele>1902</ele>
        <time>2018-07-07T09:35:44.000Z</time>
      </trkpt>
      <trkpt lat="42.51643" lon="2.03503">
        <ele>1902</ele>
        <time>2018-07-07T09:35:45.000Z</time>
      </trkpt>
      <trkpt lat="42.51643" lon="2.03506">
        <ele>1902</ele>
        <time>2018-07-07T09:35:46.000Z</time>
      </trkpt>
      <trkpt lat="42.51641" lon="2.03509">
        <ele>1901</ele>
        <time>2018-07-07T09:35:47.000Z</time>
      </trkpt>
      <trkpt lat="42.5164" lon="2.03512">
        <ele>1901</ele>
        <time>2018-07-07T09:35:48.000Z</time>
      </trkpt>
      <trkpt lat="42.51638" lon="2.03515">
        <ele>1901</ele>
        <time>2018-07-07T09:35:49.000Z</time>
      </trkpt>
      <trkpt lat="42.51636" lon="2.03519">
        <ele>1900</ele>
        <time>2018-07-07T09:35:50.000Z</time>
      </trkpt>
      <trkpt lat="42.51634" lon="2.03522">
        <ele>1900</ele>
        <time>2018-07-07T09:35:51.000Z</time>
      </trkpt>
      <trkpt lat="42.51632" lon="2.03526">
        <ele>1900</ele>
        <time>2018-07-07T09:35:52.000Z</time>
      </trkpt>
      <trkpt lat="42.5163" lon="2.0353">
        <ele>1900</ele>
        <time>2018-07-07T09:35:53.000Z</time>
      </trkpt>
      <trkpt lat="42.51628" lon="2.03535">
        <ele>1899</ele>
        <time>2018-07-07T09:35:54.000Z</time>
      </trkpt>
      <trkpt lat="42.51627" lon="2.03538">
        <ele>1899</ele>
        <time>2018-07-07T09:35:55.000Z</time>
      </trkpt>
      <trkpt lat="42.51626" lon="2.03542">
        <ele>1899</ele>
        <time>2018-07-07T09:35:56.000Z</time>
      </trkpt>
      <trkpt lat="42.51624" lon="2.03545">
        <ele>1899</ele>
        <time>2018-07-07T09:35:57.000Z</time>
      </trkpt>
      <trkpt lat="42.51623" lon="2.03549">
        <ele>1899</ele>
        <time>2018-07-07T09:35:58.000Z</time>
      </trkpt>
      <trkpt lat="42.51622" lon="2.03553">
        <ele>1899</ele>
        <time>2018-07-07T09:35:59.000Z</time>
      </trkpt>
      <trkpt lat="42.51621" lon="2.03556">
        <ele>1899</ele>
        <time>2018-07-07T09:36:00.000Z</time>
      </trkpt>
      <trkpt lat="42.5162" lon="2.03559">
        <ele>1899</ele>
        <time>2018-07-07T09:36:01.000Z</time>
      </trkpt>
      <trkpt lat="42.51619" lon="2.03563">
        <ele>1899</ele>
        <time>2018-07-07T09:36:02.000Z</time>
      </trkpt>
      <trkpt lat="42.51614" lon="2.03573">
        <ele>1898</ele>
        <time>2018-07-07T09:36:05.000Z</time>
      </trkpt>
      <trkpt lat="42.51612" lon="2.03576">
        <ele>1898</ele>
        <time>2018-07-07T09:36:06.000Z</time>
      </trkpt>
      <trkpt lat="42.5161" lon="2.03579">
        <ele>1897</ele>
        <time>2018-07-07T09:36:07.000Z</time>
      </trkpt>
      <trkpt lat="42.51608" lon="2.03583">
        <ele>1897</ele>
        <time>2018-07-07T09:36:08.000Z</time>
      </trkpt>
      <trkpt lat="42.51602" lon="2.03593">
        <ele>1897</ele>
        <time>2018-07-07T09:36:11.000Z</time>
      </trkpt>
      <trkpt lat="42.51594" lon="2.03603">
        <ele>1896</ele>
        <time>2018-07-07T09:36:15.000Z</time>
      </trkpt>
      <trkpt lat="42.51583" lon="2.0361">
        <ele>1883</ele>
        <time>2018-07-07T09:36:18.000Z</time>
      </trkpt>
      <trkpt lat="42.51579" lon="2.03612">
        <ele>1883</ele>
        <time>2018-07-07T09:36:19.000Z</time>
      </trkpt>
      <trkpt lat="42.51574" lon="2.03611">
        <ele>1883</ele>
        <time>2018-07-07T09:36:20.000Z</time>
      </trkpt>
      <trkpt lat="42.5157" lon="2.03608">
        <ele>1882</ele>
        <time>2018-07-07T09:36:21.000Z</time>
      </trkpt>
      <trkpt lat="42.51567" lon="2.03606">
        <ele>1882</ele>
        <time>2018-07-07T09:36:22.000Z</time>
      </trkpt>
      <trkpt lat="42.51564" lon="2.03603">
        <ele>1882</ele>
        <time>2018-07-07T09:36:23.000Z</time>
      </trkpt>
      <trkpt lat="42.51563" lon="2.03601">
        <ele>1882</ele>
        <time>2018-07-07T09:36:24.000Z</time>
      </trkpt>
      <trkpt lat="42.51561" lon="2.03599">
        <ele>1882</ele>
        <time>2018-07-07T09:36:25.000Z</time>
      </trkpt>
      <trkpt lat="42.51558" lon="2.03597">
        <ele>1881</ele>
        <time>2018-07-07T09:36:27.000Z</time>
      </trkpt>
      <trkpt lat="42.51555" lon="2.03597">
        <ele>1881</ele>
        <time>2018-07-07T09:36:29.000Z</time>
      </trkpt>
      <trkpt lat="42.51553" lon="2.03597">
        <ele>1880</ele>
        <time>2018-07-07T09:36:30.000Z</time>
      </trkpt>
      <trkpt lat="42.51551" lon="2.03598">
        <ele>1880</ele>
        <time>2018-07-07T09:36:31.000Z</time>
      </trkpt>
      <trkpt lat="42.51549" lon="2.03598">
        <ele>1879</ele>
        <time>2018-07-07T09:36:32.000Z</time>
      </trkpt>
      <trkpt lat="42.51547" lon="2.036">
        <ele>1879</ele>
        <time>2018-07-07T09:36:33.000Z</time>
      </trkpt>
      <trkpt lat="42.51545" lon="2.03603">
        <ele>1879</ele>
        <time>2018-07-07T09:36:34.000Z</time>
      </trkpt>
      <trkpt lat="42.51544" lon="2.03606">
        <ele>1878</ele>
        <time>2018-07-07T09:36:35.000Z</time>
      </trkpt>
      <trkpt lat="42.51543" lon="2.03609">
        <ele>1878</ele>
        <time>2018-07-07T09:36:36.000Z</time>
      </trkpt>
      <trkpt lat="42.51542" lon="2.03612">
        <ele>1878</ele>
        <time>2018-07-07T09:36:37.000Z</time>
      </trkpt>
      <trkpt lat="42.51542" lon="2.03615">
        <ele>1878</ele>
        <time>2018-07-07T09:36:38.000Z</time>
      </trkpt>
      <trkpt lat="42.51541" lon="2.03617">
        <ele>1878</ele>
        <time>2018-07-07T09:36:39.000Z</time>
      </trkpt>
      <trkpt lat="42.5154" lon="2.0362">
        <ele>1878</ele>
        <time>2018-07-07T09:36:40.000Z</time>
      </trkpt>
      <trkpt lat="42.51539" lon="2.03623">
        <ele>1878</ele>
        <time>2018-07-07T09:36:41.000Z</time>
      </trkpt>
      <trkpt lat="42.51537" lon="2.03625">
        <ele>1877</ele>
        <time>2018-07-07T09:36:42.000Z</time>
      </trkpt>
      <trkpt lat="42.51536" lon="2.03627">
        <ele>1877</ele>
        <time>2018-07-07T09:36:44.000Z</time>
      </trkpt>
      <trkpt lat="42.51535" lon="2.03632">
        <ele>1877</ele>
        <time>2018-07-07T09:36:46.000Z</time>
      </trkpt>
      <trkpt lat="42.51535" lon="2.03635">
        <ele>1877</ele>
        <time>2018-07-07T09:36:47.000Z</time>
      </trkpt>
      <trkpt lat="42.51534" lon="2.03637">
        <ele>1877</ele>
        <time>2018-07-07T09:36:48.000Z</time>
      </trkpt>
      <trkpt lat="42.51533" lon="2.0364">
        <ele>1877</ele>
        <time>2018-07-07T09:36:49.000Z</time>
      </trkpt>
      <trkpt lat="42.51533" lon="2.03643">
        <ele>1876</ele>
        <time>2018-07-07T09:36:50.000Z</time>
      </trkpt>
      <trkpt lat="42.51531" lon="2.03646">
        <ele>1876</ele>
        <time>2018-07-07T09:36:51.000Z</time>
      </trkpt>
      <trkpt lat="42.5153" lon="2.03649">
        <ele>1876</ele>
        <time>2018-07-07T09:36:52.000Z</time>
      </trkpt>
      <trkpt lat="42.51529" lon="2.03652">
        <ele>1876</ele>
        <time>2018-07-07T09:36:53.000Z</time>
      </trkpt>
      <trkpt lat="42.51528" lon="2.03655">
        <ele>1875</ele>
        <time>2018-07-07T09:36:54.000Z</time>
      </trkpt>
      <trkpt lat="42.51527" lon="2.03659">
        <ele>1875</ele>
        <time>2018-07-07T09:36:55.000Z</time>
      </trkpt>
      <trkpt lat="42.51526" lon="2.03662">
        <ele>1874</ele>
        <time>2018-07-07T09:36:56.000Z</time>
      </trkpt>
      <trkpt lat="42.51524" lon="2.03666">
        <ele>1874</ele>
        <time>2018-07-07T09:36:57.000Z</time>
      </trkpt>
      <trkpt lat="42.51521" lon="2.0367">
        <ele>1874</ele>
        <time>2018-07-07T09:36:58.000Z</time>
      </trkpt>
      <trkpt lat="42.51519" lon="2.03674">
        <ele>1873</ele>
        <time>2018-07-07T09:36:59.000Z</time>
      </trkpt>
      <trkpt lat="42.51517" lon="2.03679">
        <ele>1873</ele>
        <time>2018-07-07T09:37:00.000Z</time>
      </trkpt>
      <trkpt lat="42.51516" lon="2.03683">
        <ele>1873</ele>
        <time>2018-07-07T09:37:01.000Z</time>
      </trkpt>
      <trkpt lat="42.51515" lon="2.03687">
        <ele>1874</ele>
        <time>2018-07-07T09:37:02.000Z</time>
      </trkpt>
      <trkpt lat="42.51515" lon="2.0369">
        <ele>1874</ele>
        <time>2018-07-07T09:37:03.000Z</time>
      </trkpt>
      <trkpt lat="42.51515" lon="2.03693">
        <ele>1874</ele>
        <time>2018-07-07T09:37:04.000Z</time>
      </trkpt>
      <trkpt lat="42.51515" lon="2.03696">
        <ele>1874</ele>
        <time>2018-07-07T09:37:05.000Z</time>
      </trkpt>
      <trkpt lat="42.51515" lon="2.03699">
        <ele>1875</ele>
        <time>2018-07-07T09:37:06.000Z</time>
      </trkpt>
      <trkpt lat="42.51514" lon="2.03703">
        <ele>1875</ele>
        <time>2018-07-07T09:37:07.000Z</time>
      </trkpt>
      <trkpt lat="42.51514" lon="2.03706">
        <ele>1875</ele>
        <time>2018-07-07T09:37:08.000Z</time>
      </trkpt>
      <trkpt lat="42.51513" lon="2.03711">
        <ele>1875</ele>
        <time>2018-07-07T09:37:09.000Z</time>
      </trkpt>
      <trkpt lat="42.51512" lon="2.03714">
        <ele>1875</ele>
        <time>2018-07-07T09:37:10.000Z</time>
      </trkpt>
      <trkpt lat="42.51512" lon="2.03718">
        <ele>1875</ele>
        <time>2018-07-07T09:37:11.000Z</time>
      </trkpt>
      <trkpt lat="42.51511" lon="2.03721">
        <ele>1874</ele>
        <time>2018-07-07T09:37:12.000Z</time>
      </trkpt>
      <trkpt lat="42.51511" lon="2.03725">
        <ele>1874</ele>
        <time>2018-07-07T09:37:13.000Z</time>
      </trkpt>
      <trkpt lat="42.51511" lon="2.03728">
        <ele>1874</ele>
        <time>2018-07-07T09:37:14.000Z</time>
      </trkpt>
      <trkpt lat="42.5151" lon="2.03732">
        <ele>1874</ele>
        <time>2018-07-07T09:37:15.000Z</time>
      </trkpt>
      <trkpt lat="42.5151" lon="2.03735">
        <ele>1873</ele>
        <time>2018-07-07T09:37:16.000Z</time>
      </trkpt>
      <trkpt lat="42.5151" lon="2.03738">
        <ele>1873</ele>
        <time>2018-07-07T09:37:17.000Z</time>
      </trkpt>
      <trkpt lat="42.51509" lon="2.03742">
        <ele>1872</ele>
        <time>2018-07-07T09:37:18.000Z</time>
      </trkpt>
      <trkpt lat="42.51509" lon="2.03745">
        <ele>1871</ele>
        <time>2018-07-07T09:37:19.000Z</time>
      </trkpt>
      <trkpt lat="42.51508" lon="2.03749">
        <ele>1871</ele>
        <time>2018-07-07T09:37:20.000Z</time>
      </trkpt>
      <trkpt lat="42.51508" lon="2.03752">
        <ele>1871</ele>
        <time>2018-07-07T09:37:21.000Z</time>
      </trkpt>
      <trkpt lat="42.51507" lon="2.03756">
        <ele>1871</ele>
        <time>2018-07-07T09:37:22.000Z</time>
      </trkpt>
      <trkpt lat="42.51506" lon="2.03759">
        <ele>1871</ele>
        <time>2018-07-07T09:37:23.000Z</time>
      </trkpt>
      <trkpt lat="42.51505" lon="2.03763">
        <ele>1872</ele>
        <time>2018-07-07T09:37:24.000Z</time>
      </trkpt>
      <trkpt lat="42.51504" lon="2.03767">
        <ele>1872</ele>
        <time>2018-07-07T09:37:25.000Z</time>
      </trkpt>
      <trkpt lat="42.51503" lon="2.0377">
        <ele>1873</ele>
        <time>2018-07-07T09:37:26.000Z</time>
      </trkpt>
      <trkpt lat="42.51502" lon="2.03773">
        <ele>1873</ele>
        <time>2018-07-07T09:37:27.000Z</time>
      </trkpt>
      <trkpt lat="42.515" lon="2.03776">
        <ele>1873</ele>
        <time>2018-07-07T09:37:28.000Z</time>
      </trkpt>
      <trkpt lat="42.51499" lon="2.03779">
        <ele>1864</ele>
        <time>2018-07-07T09:37:29.000Z</time>
      </trkpt>
      <trkpt lat="42.51498" lon="2.03782">
        <ele>1864</ele>
        <time>2018-07-07T09:37:30.000Z</time>
      </trkpt>
      <trkpt lat="42.51497" lon="2.03786">
        <ele>1864</ele>
        <time>2018-07-07T09:37:31.000Z</time>
      </trkpt>
      <trkpt lat="42.51495" lon="2.03789">
        <ele>1864</ele>
        <time>2018-07-07T09:37:32.000Z</time>
      </trkpt>
      <trkpt lat="42.51494" lon="2.03793">
        <ele>1864</ele>
        <time>2018-07-07T09:37:33.000Z</time>
      </trkpt>
      <trkpt lat="42.51493" lon="2.03796">
        <ele>1864</ele>
        <time>2018-07-07T09:37:34.000Z</time>
      </trkpt>
      <trkpt lat="42.51491" lon="2.03799">
        <ele>1864</ele>
        <time>2018-07-07T09:37:35.000Z</time>
      </trkpt>
      <trkpt lat="42.51489" lon="2.03802">
        <ele>1863</ele>
        <time>2018-07-07T09:37:36.000Z</time>
      </trkpt>
      <trkpt lat="42.51486" lon="2.03805">
        <ele>1863</ele>
        <time>2018-07-07T09:37:37.000Z</time>
      </trkpt>
      <trkpt lat="42.51484" lon="2.03807">
        <ele>1863</ele>
        <time>2018-07-07T09:37:38.000Z</time>
      </trkpt>
      <trkpt lat="42.51484" lon="2.03809">
        <ele>1863</ele>
        <time>2018-07-07T09:37:39.000Z</time>
      </trkpt>
      <trkpt lat="42.51481" lon="2.0381">
        <ele>1863</ele>
        <time>2018-07-07T09:37:40.000Z</time>
      </trkpt>
      <trkpt lat="42.51479" lon="2.03811">
        <ele>1863</ele>
        <time>2018-07-07T09:37:41.000Z</time>
      </trkpt>
      <trkpt lat="42.51476" lon="2.03812">
        <ele>1863</ele>
        <time>2018-07-07T09:37:42.000Z</time>
      </trkpt>
      <trkpt lat="42.51473" lon="2.03813">
        <ele>1863</ele>
        <time>2018-07-07T09:37:43.000Z</time>
      </trkpt>
      <trkpt lat="42.51471" lon="2.03814">
        <ele>1863</ele>
        <time>2018-07-07T09:37:44.000Z</time>
      </trkpt>
      <trkpt lat="42.51468" lon="2.03815">
        <ele>1862</ele>
        <time>2018-07-07T09:37:45.000Z</time>
      </trkpt>
      <trkpt lat="42.51465" lon="2.03816">
        <ele>1862</ele>
        <time>2018-07-07T09:37:46.000Z</time>
      </trkpt>
      <trkpt lat="42.51462" lon="2.03817">
        <ele>1862</ele>
        <time>2018-07-07T09:37:47.000Z</time>
      </trkpt>
      <trkpt lat="42.51459" lon="2.03818">
        <ele>1862</ele>
        <time>2018-07-07T09:37:48.000Z</time>
      </trkpt>
      <trkpt lat="42.51456" lon="2.0382">
        <ele>1861</ele>
        <time>2018-07-07T09:37:49.000Z</time>
      </trkpt>
      <trkpt lat="42.51454" lon="2.03821">
        <ele>1861</ele>
        <time>2018-07-07T09:37:50.000Z</time>
      </trkpt>
      <trkpt lat="42.51452" lon="2.03823">
        <ele>1861</ele>
        <time>2018-07-07T09:37:51.000Z</time>
      </trkpt>
      <trkpt lat="42.5145" lon="2.03825">
        <ele>1861</ele>
        <time>2018-07-07T09:37:52.000Z</time>
      </trkpt>
      <trkpt lat="42.51448" lon="2.03827">
        <ele>1860</ele>
        <time>2018-07-07T09:37:53.000Z</time>
      </trkpt>
      <trkpt lat="42.51445" lon="2.03829">
        <ele>1860</ele>
        <time>2018-07-07T09:37:54.000Z</time>
      </trkpt>
      <trkpt lat="42.51442" lon="2.0383">
        <ele>1860</ele>
        <time>2018-07-07T09:37:55.000Z</time>
      </trkpt>
      <trkpt lat="42.51439" lon="2.03831">
        <ele>1859</ele>
        <time>2018-07-07T09:37:56.000Z</time>
      </trkpt>
      <trkpt lat="42.51436" lon="2.03832">
        <ele>1859</ele>
        <time>2018-07-07T09:37:57.000Z</time>
      </trkpt>
      <trkpt lat="42.51433" lon="2.03833">
        <ele>1858</ele>
        <time>2018-07-07T09:37:58.000Z</time>
      </trkpt>
      <trkpt lat="42.5143" lon="2.03834">
        <ele>1858</ele>
        <time>2018-07-07T09:37:59.000Z</time>
      </trkpt>
      <trkpt lat="42.51427" lon="2.03835">
        <ele>1858</ele>
        <time>2018-07-07T09:38:00.000Z</time>
      </trkpt>
      <trkpt lat="42.51424" lon="2.03836">
        <ele>1857</ele>
        <time>2018-07-07T09:38:01.000Z</time>
      </trkpt>
      <trkpt lat="42.51421" lon="2.03837">
        <ele>1857</ele>
        <time>2018-07-07T09:38:02.000Z</time>
      </trkpt>
      <trkpt lat="42.51419" lon="2.03838">
        <ele>1857</ele>
        <time>2018-07-07T09:38:03.000Z</time>
      </trkpt>
      <trkpt lat="42.51417" lon="2.03841">
        <ele>1857</ele>
        <time>2018-07-07T09:38:05.000Z</time>
      </trkpt>
      <trkpt lat="42.51414" lon="2.03845">
        <ele>1855</ele>
        <time>2018-07-07T09:38:07.000Z</time>
      </trkpt>
      <trkpt lat="42.51411" lon="2.03846">
        <ele>1855</ele>
        <time>2018-07-07T09:38:08.000Z</time>
      </trkpt>
      <trkpt lat="42.51407" lon="2.03847">
        <ele>1854</ele>
        <time>2018-07-07T09:38:09.000Z</time>
      </trkpt>
      <trkpt lat="42.51404" lon="2.03848">
        <ele>1854</ele>
        <time>2018-07-07T09:38:10.000Z</time>
      </trkpt>
      <trkpt lat="42.514" lon="2.03848">
        <ele>1854</ele>
        <time>2018-07-07T09:38:11.000Z</time>
      </trkpt>
      <trkpt lat="42.51397" lon="2.03849">
        <ele>1854</ele>
        <time>2018-07-07T09:38:12.000Z</time>
      </trkpt>
      <trkpt lat="42.51393" lon="2.03849">
        <ele>1854</ele>
        <time>2018-07-07T09:38:13.000Z</time>
      </trkpt>
      <trkpt lat="42.5139" lon="2.0385">
        <ele>1853</ele>
        <time>2018-07-07T09:38:14.000Z</time>
      </trkpt>
      <trkpt lat="42.51386" lon="2.03851">
        <ele>1853</ele>
        <time>2018-07-07T09:38:15.000Z</time>
      </trkpt>
      <trkpt lat="42.51383" lon="2.03852">
        <ele>1853</ele>
        <time>2018-07-07T09:38:16.000Z</time>
      </trkpt>
      <trkpt lat="42.5138" lon="2.03853">
        <ele>1853</ele>
        <time>2018-07-07T09:38:17.000Z</time>
      </trkpt>
      <trkpt lat="42.51377" lon="2.03855">
        <ele>1853</ele>
        <time>2018-07-07T09:38:18.000Z</time>
      </trkpt>
      <trkpt lat="42.51375" lon="2.03856">
        <ele>1853</ele>
        <time>2018-07-07T09:38:19.000Z</time>
      </trkpt>
      <trkpt lat="42.51373" lon="2.03858">
        <ele>1852</ele>
        <time>2018-07-07T09:38:20.000Z</time>
      </trkpt>
      <trkpt lat="42.51371" lon="2.03859">
        <ele>1852</ele>
        <time>2018-07-07T09:38:21.000Z</time>
      </trkpt>
      <trkpt lat="42.51368" lon="2.0386">
        <ele>1852</ele>
        <time>2018-07-07T09:38:22.000Z</time>
      </trkpt>
      <trkpt lat="42.51366" lon="2.03862">
        <ele>1852</ele>
        <time>2018-07-07T09:38:23.000Z</time>
      </trkpt>
      <trkpt lat="42.51364" lon="2.03864">
        <ele>1852</ele>
        <time>2018-07-07T09:38:24.000Z</time>
      </trkpt>
      <trkpt lat="42.51362" lon="2.03866">
        <ele>1852</ele>
        <time>2018-07-07T09:38:25.000Z</time>
      </trkpt>
      <trkpt lat="42.5136" lon="2.03868">
        <ele>1852</ele>
        <time>2018-07-07T09:38:26.000Z</time>
      </trkpt>
      <trkpt lat="42.51358" lon="2.0387">
        <ele>1852</ele>
        <time>2018-07-07T09:38:27.000Z</time>
      </trkpt>
      <trkpt lat="42.51357" lon="2.03872">
        <ele>1852</ele>
        <time>2018-07-07T09:38:28.000Z</time>
      </trkpt>
      <trkpt lat="42.51355" lon="2.03875">
        <ele>1852</ele>
        <time>2018-07-07T09:38:29.000Z</time>
      </trkpt>
      <trkpt lat="42.51353" lon="2.03877">
        <ele>1852</ele>
        <time>2018-07-07T09:38:30.000Z</time>
      </trkpt>
      <trkpt lat="42.5135" lon="2.0388">
        <ele>1852</ele>
        <time>2018-07-07T09:38:31.000Z</time>
      </trkpt>
      <trkpt lat="42.51348" lon="2.03882">
        <ele>1851</ele>
        <time>2018-07-07T09:38:32.000Z</time>
      </trkpt>
      <trkpt lat="42.51346" lon="2.03884">
        <ele>1851</ele>
        <time>2018-07-07T09:38:33.000Z</time>
      </trkpt>
      <trkpt lat="42.51344" lon="2.03887">
        <ele>1851</ele>
        <time>2018-07-07T09:38:34.000Z</time>
      </trkpt>
      <trkpt lat="42.51342" lon="2.03889">
        <ele>1851</ele>
        <time>2018-07-07T09:38:35.000Z</time>
      </trkpt>
      <trkpt lat="42.5134" lon="2.03891">
        <ele>1851</ele>
        <time>2018-07-07T09:38:36.000Z</time>
      </trkpt>
      <trkpt lat="42.51338" lon="2.03892">
        <ele>1851</ele>
        <time>2018-07-07T09:38:37.000Z</time>
      </trkpt>
      <trkpt lat="42.51336" lon="2.03894">
        <ele>1851</ele>
        <time>2018-07-07T09:38:38.000Z</time>
      </trkpt>
      <trkpt lat="42.51334" lon="2.03896">
        <ele>1851</ele>
        <time>2018-07-07T09:38:39.000Z</time>
      </trkpt>
      <trkpt lat="42.51332" lon="2.03898">
        <ele>1847</ele>
        <time>2018-07-07T09:38:40.000Z</time>
      </trkpt>
      <trkpt lat="42.51329" lon="2.03899">
        <ele>1847</ele>
        <time>2018-07-07T09:38:41.000Z</time>
      </trkpt>
      <trkpt lat="42.51327" lon="2.03901">
        <ele>1847</ele>
        <time>2018-07-07T09:38:42.000Z</time>
      </trkpt>
      <trkpt lat="42.51325" lon="2.03902">
        <ele>1847</ele>
        <time>2018-07-07T09:38:43.000Z</time>
      </trkpt>
      <trkpt lat="42.51323" lon="2.03903">
        <ele>1847</ele>
        <time>2018-07-07T09:38:44.000Z</time>
      </trkpt>
      <trkpt lat="42.51321" lon="2.03905">
        <ele>1847</ele>
        <time>2018-07-07T09:38:45.000Z</time>
      </trkpt>
      <trkpt lat="42.51319" lon="2.03906">
        <ele>1847</ele>
        <time>2018-07-07T09:38:46.000Z</time>
      </trkpt>
      <trkpt lat="42.51317" lon="2.03907">
        <ele>1847</ele>
        <time>2018-07-07T09:38:47.000Z</time>
      </trkpt>
      <trkpt lat="42.51315" lon="2.03909">
        <ele>1846</ele>
        <time>2018-07-07T09:38:48.000Z</time>
      </trkpt>
      <trkpt lat="42.51312" lon="2.03911">
        <ele>1846</ele>
        <time>2018-07-07T09:38:49.000Z</time>
      </trkpt>
      <trkpt lat="42.51311" lon="2.03912">
        <ele>1846</ele>
        <time>2018-07-07T09:38:50.000Z</time>
      </trkpt>
      <trkpt lat="42.51308" lon="2.03914">
        <ele>1846</ele>
        <time>2018-07-07T09:38:51.000Z</time>
      </trkpt>
      <trkpt lat="42.51306" lon="2.03916">
        <ele>1846</ele>
        <time>2018-07-07T09:38:52.000Z</time>
      </trkpt>
      <trkpt lat="42.51305" lon="2.03918">
        <ele>1846</ele>
        <time>2018-07-07T09:38:53.000Z</time>
      </trkpt>
      <trkpt lat="42.51303" lon="2.0392">
        <ele>1846</ele>
        <time>2018-07-07T09:38:54.000Z</time>
      </trkpt>
      <trkpt lat="42.51301" lon="2.03921">
        <ele>1846</ele>
        <time>2018-07-07T09:38:55.000Z</time>
      </trkpt>
      <trkpt lat="42.51299" lon="2.03923">
        <ele>1846</ele>
        <time>2018-07-07T09:38:56.000Z</time>
      </trkpt>
      <trkpt lat="42.51297" lon="2.03926">
        <ele>1845</ele>
        <time>2018-07-07T09:38:57.000Z</time>
      </trkpt>
      <trkpt lat="42.51295" lon="2.03928">
        <ele>1845</ele>
        <time>2018-07-07T09:38:58.000Z</time>
      </trkpt>
      <trkpt lat="42.51293" lon="2.0393">
        <ele>1845</ele>
        <time>2018-07-07T09:38:59.000Z</time>
      </trkpt>
      <trkpt lat="42.51291" lon="2.03933">
        <ele>1845</ele>
        <time>2018-07-07T09:39:00.000Z</time>
      </trkpt>
      <trkpt lat="42.5129" lon="2.03936">
        <ele>1845</ele>
        <time>2018-07-07T09:39:01.000Z</time>
      </trkpt>
      <trkpt lat="42.51289" lon="2.03938">
        <ele>1845</ele>
        <time>2018-07-07T09:39:02.000Z</time>
      </trkpt>
      <trkpt lat="42.51287" lon="2.03941">
        <ele>1845</ele>
        <time>2018-07-07T09:39:03.000Z</time>
      </trkpt>
      <trkpt lat="42.51286" lon="2.03944">
        <ele>1845</ele>
        <time>2018-07-07T09:39:04.000Z</time>
      </trkpt>
      <trkpt lat="42.51285" lon="2.03947">
        <ele>1845</ele>
        <time>2018-07-07T09:39:05.000Z</time>
      </trkpt>
      <trkpt lat="42.51283" lon="2.0395">
        <ele>1845</ele>
        <time>2018-07-07T09:39:06.000Z</time>
      </trkpt>
      <trkpt lat="42.51281" lon="2.03953">
        <ele>1845</ele>
        <time>2018-07-07T09:39:07.000Z</time>
      </trkpt>
      <trkpt lat="42.51279" lon="2.03956">
        <ele>1845</ele>
        <time>2018-07-07T09:39:08.000Z</time>
      </trkpt>
      <trkpt lat="42.51278" lon="2.03959">
        <ele>1844</ele>
        <time>2018-07-07T09:39:09.000Z</time>
      </trkpt>
      <trkpt lat="42.51277" lon="2.03962">
        <ele>1844</ele>
        <time>2018-07-07T09:39:10.000Z</time>
      </trkpt>
      <trkpt lat="42.51277" lon="2.03966">
        <ele>1844</ele>
        <time>2018-07-07T09:39:11.000Z</time>
      </trkpt>
      <trkpt lat="42.51276" lon="2.03969">
        <ele>1844</ele>
        <time>2018-07-07T09:39:12.000Z</time>
      </trkpt>
      <trkpt lat="42.51275" lon="2.03973">
        <ele>1844</ele>
        <time>2018-07-07T09:39:13.000Z</time>
      </trkpt>
      <trkpt lat="42.51274" lon="2.03976">
        <ele>1844</ele>
        <time>2018-07-07T09:39:14.000Z</time>
      </trkpt>
      <trkpt lat="42.51273" lon="2.0398">
        <ele>1844</ele>
        <time>2018-07-07T09:39:15.000Z</time>
      </trkpt>
      <trkpt lat="42.51273" lon="2.03983">
        <ele>1844</ele>
        <time>2018-07-07T09:39:16.000Z</time>
      </trkpt>
      <trkpt lat="42.51272" lon="2.03987">
        <ele>1844</ele>
        <time>2018-07-07T09:39:17.000Z</time>
      </trkpt>
      <trkpt lat="42.51271" lon="2.0399">
        <ele>1844</ele>
        <time>2018-07-07T09:39:18.000Z</time>
      </trkpt>
      <trkpt lat="42.51271" lon="2.03993">
        <ele>1844</ele>
        <time>2018-07-07T09:39:19.000Z</time>
      </trkpt>
      <trkpt lat="42.5127" lon="2.03996">
        <ele>1844</ele>
        <time>2018-07-07T09:39:20.000Z</time>
      </trkpt>
      <trkpt lat="42.51269" lon="2.04">
        <ele>1843</ele>
        <time>2018-07-07T09:39:21.000Z</time>
      </trkpt>
      <trkpt lat="42.51269" lon="2.04003">
        <ele>1844</ele>
        <time>2018-07-07T09:39:22.000Z</time>
      </trkpt>
      <trkpt lat="42.51269" lon="2.04006">
        <ele>1844</ele>
        <time>2018-07-07T09:39:23.000Z</time>
      </trkpt>
      <trkpt lat="42.51269" lon="2.0401">
        <ele>1844</ele>
        <time>2018-07-07T09:39:24.000Z</time>
      </trkpt>
      <trkpt lat="42.51269" lon="2.04013">
        <ele>1844</ele>
        <time>2018-07-07T09:39:25.000Z</time>
      </trkpt>
      <trkpt lat="42.51269" lon="2.04016">
        <ele>1844</ele>
        <time>2018-07-07T09:39:26.000Z</time>
      </trkpt>
      <trkpt lat="42.51269" lon="2.04019">
        <ele>1844</ele>
        <time>2018-07-07T09:39:27.000Z</time>
      </trkpt>
      <trkpt lat="42.51269" lon="2.04023">
        <ele>1844</ele>
        <time>2018-07-07T09:39:28.000Z</time>
      </trkpt>
      <trkpt lat="42.51269" lon="2.04026">
        <ele>1844</ele>
        <time>2018-07-07T09:39:29.000Z</time>
      </trkpt>
      <trkpt lat="42.51268" lon="2.04029">
        <ele>1844</ele>
        <time>2018-07-07T09:39:30.000Z</time>
      </trkpt>
      <trkpt lat="42.51266" lon="2.04032">
        <ele>1844</ele>
        <time>2018-07-07T09:39:31.000Z</time>
      </trkpt>
      <trkpt lat="42.51264" lon="2.04034">
        <ele>1844</ele>
        <time>2018-07-07T09:39:32.000Z</time>
      </trkpt>
      <trkpt lat="42.51262" lon="2.04036">
        <ele>1844</ele>
        <time>2018-07-07T09:39:33.000Z</time>
      </trkpt>
      <trkpt lat="42.51259" lon="2.04038">
        <ele>1844</ele>
        <time>2018-07-07T09:39:34.000Z</time>
      </trkpt>
      <trkpt lat="42.51257" lon="2.04039">
        <ele>1844</ele>
        <time>2018-07-07T09:39:35.000Z</time>
      </trkpt>
      <trkpt lat="42.51254" lon="2.0404">
        <ele>1844</ele>
        <time>2018-07-07T09:39:36.000Z</time>
      </trkpt>
      <trkpt lat="42.51251" lon="2.04041">
        <ele>1844</ele>
        <time>2018-07-07T09:39:37.000Z</time>
      </trkpt>
      <trkpt lat="42.51249" lon="2.04042">
        <ele>1842</ele>
        <time>2018-07-07T09:39:38.000Z</time>
      </trkpt>
      <trkpt lat="42.51246" lon="2.04042">
        <ele>1842</ele>
        <time>2018-07-07T09:39:39.000Z</time>
      </trkpt>
      <trkpt lat="42.51244" lon="2.04043">
        <ele>1843</ele>
        <time>2018-07-07T09:39:40.000Z</time>
      </trkpt>
      <trkpt lat="42.51241" lon="2.04043">
        <ele>1843</ele>
        <time>2018-07-07T09:39:41.000Z</time>
      </trkpt>
      <trkpt lat="42.51239" lon="2.04043">
        <ele>1843</ele>
        <time>2018-07-07T09:39:42.000Z</time>
      </trkpt>
      <trkpt lat="42.51236" lon="2.04043">
        <ele>1843</ele>
        <time>2018-07-07T09:39:43.000Z</time>
      </trkpt>
      <trkpt lat="42.51233" lon="2.04044">
        <ele>1843</ele>
        <time>2018-07-07T09:39:44.000Z</time>
      </trkpt>
      <trkpt lat="42.5123" lon="2.04044">
        <ele>1843</ele>
        <time>2018-07-07T09:39:45.000Z</time>
      </trkpt>
      <trkpt lat="42.51228" lon="2.04045">
        <ele>1843</ele>
        <time>2018-07-07T09:39:46.000Z</time>
      </trkpt>
      <trkpt lat="42.51225" lon="2.04045">
        <ele>1843</ele>
        <time>2018-07-07T09:39:47.000Z</time>
      </trkpt>
      <trkpt lat="42.51223" lon="2.04045">
        <ele>1843</ele>
        <time>2018-07-07T09:39:48.000Z</time>
      </trkpt>
      <trkpt lat="42.5122" lon="2.04045">
        <ele>1843</ele>
        <time>2018-07-07T09:39:49.000Z</time>
      </trkpt>
      <trkpt lat="42.51218" lon="2.04046">
        <ele>1843</ele>
        <time>2018-07-07T09:39:50.000Z</time>
      </trkpt>
      <trkpt lat="42.51216" lon="2.04047">
        <ele>1843</ele>
        <time>2018-07-07T09:39:51.000Z</time>
      </trkpt>
      <trkpt lat="42.51213" lon="2.04047">
        <ele>1843</ele>
        <time>2018-07-07T09:39:52.000Z</time>
      </trkpt>
      <trkpt lat="42.51211" lon="2.04048">
        <ele>1843</ele>
        <time>2018-07-07T09:39:53.000Z</time>
      </trkpt>
      <trkpt lat="42.51208" lon="2.04049">
        <ele>1843</ele>
        <time>2018-07-07T09:39:54.000Z</time>
      </trkpt>
      <trkpt lat="42.51205" lon="2.04049">
        <ele>1843</ele>
        <time>2018-07-07T09:39:55.000Z</time>
      </trkpt>
      <trkpt lat="42.51203" lon="2.0405">
        <ele>1843</ele>
        <time>2018-07-07T09:39:56.000Z</time>
      </trkpt>
      <trkpt lat="42.512" lon="2.0405">
        <ele>1843</ele>
        <time>2018-07-07T09:39:57.000Z</time>
      </trkpt>
      <trkpt lat="42.51198" lon="2.04051">
        <ele>1843</ele>
        <time>2018-07-07T09:39:58.000Z</time>
      </trkpt>
      <trkpt lat="42.51195" lon="2.04052">
        <ele>1843</ele>
        <time>2018-07-07T09:39:59.000Z</time>
      </trkpt>
      <trkpt lat="42.51193" lon="2.04053">
        <ele>1843</ele>
        <time>2018-07-07T09:40:00.000Z</time>
      </trkpt>
      <trkpt lat="42.5119" lon="2.04054">
        <ele>1843</ele>
        <time>2018-07-07T09:40:01.000Z</time>
      </trkpt>
      <trkpt lat="42.51188" lon="2.04056">
        <ele>1843</ele>
        <time>2018-07-07T09:40:02.000Z</time>
      </trkpt>
      <trkpt lat="42.51187" lon="2.04058">
        <ele>1843</ele>
        <time>2018-07-07T09:40:03.000Z</time>
      </trkpt>
      <trkpt lat="42.51185" lon="2.04061">
        <ele>1843</ele>
        <time>2018-07-07T09:40:04.000Z</time>
      </trkpt>
      <trkpt lat="42.51184" lon="2.04063">
        <ele>1843</ele>
        <time>2018-07-07T09:40:05.000Z</time>
      </trkpt>
      <trkpt lat="42.51183" lon="2.04066">
        <ele>1843</ele>
        <time>2018-07-07T09:40:06.000Z</time>
      </trkpt>
      <trkpt lat="42.51182" lon="2.04069">
        <ele>1843</ele>
        <time>2018-07-07T09:40:07.000Z</time>
      </trkpt>
      <trkpt lat="42.51181" lon="2.04072">
        <ele>1843</ele>
        <time>2018-07-07T09:40:08.000Z</time>
      </trkpt>
      <trkpt lat="42.5118" lon="2.04075">
        <ele>1843</ele>
        <time>2018-07-07T09:40:09.000Z</time>
      </trkpt>
      <trkpt lat="42.5118" lon="2.04079">
        <ele>1843</ele>
        <time>2018-07-07T09:40:10.000Z</time>
      </trkpt>
      <trkpt lat="42.51179" lon="2.04082">
        <ele>1844</ele>
        <time>2018-07-07T09:40:11.000Z</time>
      </trkpt>
      <trkpt lat="42.51179" lon="2.04085">
        <ele>1844</ele>
        <time>2018-07-07T09:40:12.000Z</time>
      </trkpt>
      <trkpt lat="42.51178" lon="2.04089">
        <ele>1844</ele>
        <time>2018-07-07T09:40:13.000Z</time>
      </trkpt>
      <trkpt lat="42.51178" lon="2.04092">
        <ele>1844</ele>
        <time>2018-07-07T09:40:14.000Z</time>
      </trkpt>
      <trkpt lat="42.51178" lon="2.04096">
        <ele>1844</ele>
        <time>2018-07-07T09:40:15.000Z</time>
      </trkpt>
      <trkpt lat="42.51178" lon="2.041">
        <ele>1844</ele>
        <time>2018-07-07T09:40:16.000Z</time>
      </trkpt>
      <trkpt lat="42.51178" lon="2.04105">
        <ele>1844</ele>
        <time>2018-07-07T09:40:18.000Z</time>
      </trkpt>
      <trkpt lat="42.51178" lon="2.04108">
        <ele>1844</ele>
        <time>2018-07-07T09:40:20.000Z</time>
      </trkpt>
      <trkpt lat="42.51177" lon="2.04111">
        <ele>1844</ele>
        <time>2018-07-07T09:40:22.000Z</time>
      </trkpt>
      <trkpt lat="42.51177" lon="2.04115">
        <ele>1844</ele>
        <time>2018-07-07T09:40:24.000Z</time>
      </trkpt>
      <trkpt lat="42.51175" lon="2.04118">
        <ele>1844</ele>
        <time>2018-07-07T09:40:26.000Z</time>
      </trkpt>
      <trkpt lat="42.51174" lon="2.04121">
        <ele>1844</ele>
        <time>2018-07-07T09:40:28.000Z</time>
      </trkpt>
      <trkpt lat="42.51174" lon="2.04125">
        <ele>1844</ele>
        <time>2018-07-07T09:40:30.000Z</time>
      </trkpt>
      <trkpt lat="42.51173" lon="2.04129">
        <ele>1844</ele>
        <time>2018-07-07T09:40:32.000Z</time>
      </trkpt>
      <trkpt lat="42.51172" lon="2.04133">
        <ele>1844</ele>
        <time>2018-07-07T09:40:34.000Z</time>
      </trkpt>
      <trkpt lat="42.51171" lon="2.04137">
        <ele>1844</ele>
        <time>2018-07-07T09:40:36.000Z</time>
      </trkpt>
      <trkpt lat="42.5117" lon="2.04141">
        <ele>1844</ele>
        <time>2018-07-07T09:40:38.000Z</time>
      </trkpt>
      <trkpt lat="42.5117" lon="2.04144">
        <ele>1844</ele>
        <time>2018-07-07T09:40:40.000Z</time>
      </trkpt>
      <trkpt lat="42.51169" lon="2.04147">
        <ele>1845</ele>
        <time>2018-07-07T09:40:42.000Z</time>
      </trkpt>
      <trkpt lat="42.51169" lon="2.04151">
        <ele>1845</ele>
        <time>2018-07-07T09:40:44.000Z</time>
      </trkpt>
      <trkpt lat="42.51168" lon="2.04155">
        <ele>1845</ele>
        <time>2018-07-07T09:40:46.000Z</time>
      </trkpt>
      <trkpt lat="42.51168" lon="2.04158">
        <ele>1846</ele>
        <time>2018-07-07T09:40:47.000Z</time>
      </trkpt>
      <trkpt lat="42.51169" lon="2.04161">
        <ele>1846</ele>
        <time>2018-07-07T09:40:48.000Z</time>
      </trkpt>
      <trkpt lat="42.51169" lon="2.04164">
        <ele>1846</ele>
        <time>2018-07-07T09:40:49.000Z</time>
      </trkpt>
      <trkpt lat="42.5117" lon="2.04168">
        <ele>1846</ele>
        <time>2018-07-07T09:40:50.000Z</time>
      </trkpt>
      <trkpt lat="42.51171" lon="2.04171">
        <ele>1846</ele>
        <time>2018-07-07T09:40:51.000Z</time>
      </trkpt>
      <trkpt lat="42.51172" lon="2.04174">
        <ele>1846</ele>
        <time>2018-07-07T09:40:52.000Z</time>
      </trkpt>
      <trkpt lat="42.51174" lon="2.04178">
        <ele>1845</ele>
        <time>2018-07-07T09:40:53.000Z</time>
      </trkpt>
      <trkpt lat="42.51175" lon="2.04181">
        <ele>1845</ele>
        <time>2018-07-07T09:40:54.000Z</time>
      </trkpt>
      <trkpt lat="42.51177" lon="2.04184">
        <ele>1845</ele>
        <time>2018-07-07T09:40:55.000Z</time>
      </trkpt>
      <trkpt lat="42.51178" lon="2.04187">
        <ele>1844</ele>
        <time>2018-07-07T09:40:56.000Z</time>
      </trkpt>
      <trkpt lat="42.5118" lon="2.04189">
        <ele>1844</ele>
        <time>2018-07-07T09:40:57.000Z</time>
      </trkpt>
      <trkpt lat="42.51182" lon="2.04192">
        <ele>1844</ele>
        <time>2018-07-07T09:40:58.000Z</time>
      </trkpt>
      <trkpt lat="42.51184" lon="2.04195">
        <ele>1844</ele>
        <time>2018-07-07T09:40:59.000Z</time>
      </trkpt>
      <trkpt lat="42.51186" lon="2.04197">
        <ele>1844</ele>
        <time>2018-07-07T09:41:00.000Z</time>
      </trkpt>
      <trkpt lat="42.51188" lon="2.04199">
        <ele>1844</ele>
        <time>2018-07-07T09:41:01.000Z</time>
      </trkpt>
      <trkpt lat="42.5119" lon="2.04202">
        <ele>1843</ele>
        <time>2018-07-07T09:41:02.000Z</time>
      </trkpt>
      <trkpt lat="42.51192" lon="2.04204">
        <ele>1843</ele>
        <time>2018-07-07T09:41:03.000Z</time>
      </trkpt>
      <trkpt lat="42.51194" lon="2.04207">
        <ele>1843</ele>
        <time>2018-07-07T09:41:04.000Z</time>
      </trkpt>
      <trkpt lat="42.51196" lon="2.04211">
        <ele>1843</ele>
        <time>2018-07-07T09:41:05.000Z</time>
      </trkpt>
      <trkpt lat="42.51198" lon="2.04214">
        <ele>1843</ele>
        <time>2018-07-07T09:41:06.000Z</time>
      </trkpt>
      <trkpt lat="42.51199" lon="2.04217">
        <ele>1843</ele>
        <time>2018-07-07T09:41:07.000Z</time>
      </trkpt>
      <trkpt lat="42.51201" lon="2.0422">
        <ele>1843</ele>
        <time>2018-07-07T09:41:08.000Z</time>
      </trkpt>
      <trkpt lat="42.51201" lon="2.04224">
        <ele>1843</ele>
        <time>2018-07-07T09:41:09.000Z</time>
      </trkpt>
      <trkpt lat="42.51202" lon="2.04228">
        <ele>1843</ele>
        <time>2018-07-07T09:41:10.000Z</time>
      </trkpt>
      <trkpt lat="42.51203" lon="2.0423">
        <ele>1843</ele>
        <time>2018-07-07T09:41:11.000Z</time>
      </trkpt>
      <trkpt lat="42.51204" lon="2.04233">
        <ele>1843</ele>
        <time>2018-07-07T09:41:12.000Z</time>
      </trkpt>
      <trkpt lat="42.51205" lon="2.04237">
        <ele>1843</ele>
        <time>2018-07-07T09:41:13.000Z</time>
      </trkpt>
      <trkpt lat="42.51205" lon="2.04241">
        <ele>1843</ele>
        <time>2018-07-07T09:41:14.000Z</time>
      </trkpt>
      <trkpt lat="42.51205" lon="2.04245">
        <ele>1843</ele>
        <time>2018-07-07T09:41:15.000Z</time>
      </trkpt>
      <trkpt lat="42.51204" lon="2.04249">
        <ele>1843</ele>
        <time>2018-07-07T09:41:16.000Z</time>
      </trkpt>
      <trkpt lat="42.51203" lon="2.04253">
        <ele>1843</ele>
        <time>2018-07-07T09:41:17.000Z</time>
      </trkpt>
      <trkpt lat="42.51203" lon="2.04257">
        <ele>1843</ele>
        <time>2018-07-07T09:41:18.000Z</time>
      </trkpt>
      <trkpt lat="42.51202" lon="2.0426">
        <ele>1843</ele>
        <time>2018-07-07T09:41:19.000Z</time>
      </trkpt>
      <trkpt lat="42.51202" lon="2.04264">
        <ele>1843</ele>
        <time>2018-07-07T09:41:20.000Z</time>
      </trkpt>
      <trkpt lat="42.51201" lon="2.04267">
        <ele>1843</ele>
        <time>2018-07-07T09:41:21.000Z</time>
      </trkpt>
      <trkpt lat="42.51199" lon="2.04271">
        <ele>1843</ele>
        <time>2018-07-07T09:41:22.000Z</time>
      </trkpt>
      <trkpt lat="42.51198" lon="2.04275">
        <ele>1843</ele>
        <time>2018-07-07T09:41:23.000Z</time>
      </trkpt>
      <trkpt lat="42.51197" lon="2.04278">
        <ele>1843</ele>
        <time>2018-07-07T09:41:24.000Z</time>
      </trkpt>
      <trkpt lat="42.51196" lon="2.04282">
        <ele>1843</ele>
        <time>2018-07-07T09:41:25.000Z</time>
      </trkpt>
      <trkpt lat="42.51196" lon="2.04286">
        <ele>1843</ele>
        <time>2018-07-07T09:41:26.000Z</time>
      </trkpt>
      <trkpt lat="42.51195" lon="2.04289">
        <ele>1843</ele>
        <time>2018-07-07T09:41:27.000Z</time>
      </trkpt>
      <trkpt lat="42.51194" lon="2.04293">
        <ele>1843</ele>
        <time>2018-07-07T09:41:28.000Z</time>
      </trkpt>
      <trkpt lat="42.51194" lon="2.04296">
        <ele>1843</ele>
        <time>2018-07-07T09:41:29.000Z</time>
      </trkpt>
      <trkpt lat="42.51194" lon="2.043">
        <ele>1843</ele>
        <time>2018-07-07T09:41:30.000Z</time>
      </trkpt>
      <trkpt lat="42.51193" lon="2.04303">
        <ele>1843</ele>
        <time>2018-07-07T09:41:31.000Z</time>
      </trkpt>
      <trkpt lat="42.51193" lon="2.04307">
        <ele>1843</ele>
        <time>2018-07-07T09:41:32.000Z</time>
      </trkpt>
      <trkpt lat="42.51192" lon="2.04311">
        <ele>1843</ele>
        <time>2018-07-07T09:41:33.000Z</time>
      </trkpt>
      <trkpt lat="42.51192" lon="2.04314">
        <ele>1843</ele>
        <time>2018-07-07T09:41:34.000Z</time>
      </trkpt>
      <trkpt lat="42.51191" lon="2.04318">
        <ele>1843</ele>
        <time>2018-07-07T09:41:35.000Z</time>
      </trkpt>
      <trkpt lat="42.51191" lon="2.04322">
        <ele>1844</ele>
        <time>2018-07-07T09:41:36.000Z</time>
      </trkpt>
      <trkpt lat="42.51191" lon="2.04326">
        <ele>1844</ele>
        <time>2018-07-07T09:41:37.000Z</time>
      </trkpt>
      <trkpt lat="42.5119" lon="2.04329">
        <ele>1844</ele>
        <time>2018-07-07T09:41:38.000Z</time>
      </trkpt>
      <trkpt lat="42.5119" lon="2.04333">
        <ele>1844</ele>
        <time>2018-07-07T09:41:39.000Z</time>
      </trkpt>
      <trkpt lat="42.5119" lon="2.04336">
        <ele>1844</ele>
        <time>2018-07-07T09:41:40.000Z</time>
      </trkpt>
      <trkpt lat="42.5119" lon="2.0434">
        <ele>1844</ele>
        <time>2018-07-07T09:41:41.000Z</time>
      </trkpt>
      <trkpt lat="42.51191" lon="2.04343">
        <ele>1844</ele>
        <time>2018-07-07T09:41:42.000Z</time>
      </trkpt>
      <trkpt lat="42.51192" lon="2.04347">
        <ele>1844</ele>
        <time>2018-07-07T09:41:43.000Z</time>
      </trkpt>
      <trkpt lat="42.51193" lon="2.0435">
        <ele>1844</ele>
        <time>2018-07-07T09:41:44.000Z</time>
      </trkpt>
      <trkpt lat="42.51194" lon="2.04353">
        <ele>1843</ele>
        <time>2018-07-07T09:41:45.000Z</time>
      </trkpt>
      <trkpt lat="42.51196" lon="2.04356">
        <ele>1843</ele>
        <time>2018-07-07T09:41:46.000Z</time>
      </trkpt>
      <trkpt lat="42.51197" lon="2.0436">
        <ele>1843</ele>
        <time>2018-07-07T09:41:47.000Z</time>
      </trkpt>
      <trkpt lat="42.51199" lon="2.04363">
        <ele>1843</ele>
        <time>2018-07-07T09:41:48.000Z</time>
      </trkpt>
      <trkpt lat="42.512" lon="2.04366">
        <ele>1843</ele>
        <time>2018-07-07T09:41:49.000Z</time>
      </trkpt>
      <trkpt lat="42.51201" lon="2.0437">
        <ele>1843</ele>
        <time>2018-07-07T09:41:50.000Z</time>
      </trkpt>
      <trkpt lat="42.51202" lon="2.04373">
        <ele>1843</ele>
        <time>2018-07-07T09:41:51.000Z</time>
      </trkpt>
      <trkpt lat="42.51201" lon="2.04376">
        <ele>1843</ele>
        <time>2018-07-07T09:41:52.000Z</time>
      </trkpt>
      <trkpt lat="42.512" lon="2.0438">
        <ele>1843</ele>
        <time>2018-07-07T09:41:54.000Z</time>
      </trkpt>
      <trkpt lat="42.51197" lon="2.0438">
        <ele>1843</ele>
        <time>2018-07-07T09:41:55.000Z</time>
      </trkpt>
      <trkpt lat="42.51196" lon="2.04381">
        <ele>1843</ele>
        <time>2018-07-07T09:41:56.000Z</time>
      </trkpt>
      <trkpt lat="42.51193" lon="2.04381">
        <ele>1844</ele>
        <time>2018-07-07T09:41:58.000Z</time>
      </trkpt>
      <trkpt lat="42.51189" lon="2.04381">
        <ele>1844</ele>
        <time>2018-07-07T09:42:00.000Z</time>
      </trkpt>
      <trkpt lat="42.51187" lon="2.04382">
        <ele>1844</ele>
        <time>2018-07-07T09:42:02.000Z</time>
      </trkpt>
      <trkpt lat="42.51185" lon="2.04384">
        <ele>1844</ele>
        <time>2018-07-07T09:42:04.000Z</time>
      </trkpt>
      <trkpt lat="42.51183" lon="2.04385">
        <ele>1844</ele>
        <time>2018-07-07T09:42:06.000Z</time>
      </trkpt>
      <trkpt lat="42.51181" lon="2.04386">
        <ele>1844</ele>
        <time>2018-07-07T09:42:08.000Z</time>
      </trkpt>
      <trkpt lat="42.51178" lon="2.04388">
        <ele>1845</ele>
        <time>2018-07-07T09:42:10.000Z</time>
      </trkpt>
      <trkpt lat="42.51176" lon="2.0439">
        <ele>1845</ele>
        <time>2018-07-07T09:42:12.000Z</time>
      </trkpt>
      <trkpt lat="42.51174" lon="2.04392">
        <ele>1845</ele>
        <time>2018-07-07T09:42:14.000Z</time>
      </trkpt>
      <trkpt lat="42.51173" lon="2.04394">
        <ele>1845</ele>
        <time>2018-07-07T09:42:16.000Z</time>
      </trkpt>
      <trkpt lat="42.51172" lon="2.04397">
        <ele>1845</ele>
        <time>2018-07-07T09:42:18.000Z</time>
      </trkpt>
      <trkpt lat="42.51171" lon="2.04401">
        <ele>1846</ele>
        <time>2018-07-07T09:42:20.000Z</time>
      </trkpt>
      <trkpt lat="42.5117" lon="2.04404">
        <ele>1846</ele>
        <time>2018-07-07T09:42:22.000Z</time>
      </trkpt>
      <trkpt lat="42.5117" lon="2.04408">
        <ele>1846</ele>
        <time>2018-07-07T09:42:24.000Z</time>
      </trkpt>
      <trkpt lat="42.51169" lon="2.04411">
        <ele>1847</ele>
        <time>2018-07-07T09:42:26.000Z</time>
      </trkpt>
      <trkpt lat="42.51168" lon="2.04414">
        <ele>1847</ele>
        <time>2018-07-07T09:42:28.000Z</time>
      </trkpt>
      <trkpt lat="42.51167" lon="2.04417">
        <ele>1848</ele>
        <time>2018-07-07T09:42:30.000Z</time>
      </trkpt>
      <trkpt lat="42.51165" lon="2.04419">
        <ele>1848</ele>
        <time>2018-07-07T09:42:32.000Z</time>
      </trkpt>
      <trkpt lat="42.51163" lon="2.0442">
        <ele>1848</ele>
        <time>2018-07-07T09:42:34.000Z</time>
      </trkpt>
      <trkpt lat="42.5116" lon="2.04421">
        <ele>1848</ele>
        <time>2018-07-07T09:42:36.000Z</time>
      </trkpt>
      <trkpt lat="42.51158" lon="2.04423">
        <ele>1848</ele>
        <time>2018-07-07T09:42:38.000Z</time>
      </trkpt>
      <trkpt lat="42.51156" lon="2.04424">
        <ele>1848</ele>
        <time>2018-07-07T09:42:40.000Z</time>
      </trkpt>
      <trkpt lat="42.51152" lon="2.04426">
        <ele>1847</ele>
        <time>2018-07-07T09:42:42.000Z</time>
      </trkpt>
      <trkpt lat="42.51151" lon="2.04426">
        <ele>1847</ele>
        <time>2018-07-07T09:42:43.000Z</time>
      </trkpt>
      <trkpt lat="42.51149" lon="2.04428">
        <ele>1847</ele>
        <time>2018-07-07T09:42:44.000Z</time>
      </trkpt>
      <trkpt lat="42.51147" lon="2.04429">
        <ele>1847</ele>
        <time>2018-07-07T09:42:46.000Z</time>
      </trkpt>
      <trkpt lat="42.51144" lon="2.04432">
        <ele>1847</ele>
        <time>2018-07-07T09:42:48.000Z</time>
      </trkpt>
      <trkpt lat="42.51142" lon="2.04435">
        <ele>1847</ele>
        <time>2018-07-07T09:42:50.000Z</time>
      </trkpt>
      <trkpt lat="42.51141" lon="2.04437">
        <ele>1847</ele>
        <time>2018-07-07T09:42:51.000Z</time>
      </trkpt>
      <trkpt lat="42.51139" lon="2.04439">
        <ele>1847</ele>
        <time>2018-07-07T09:42:52.000Z</time>
      </trkpt>
      <trkpt lat="42.51138" lon="2.04442">
        <ele>1847</ele>
        <time>2018-07-07T09:42:53.000Z</time>
      </trkpt>
      <trkpt lat="42.51137" lon="2.04444">
        <ele>1847</ele>
        <time>2018-07-07T09:42:54.000Z</time>
      </trkpt>
      <trkpt lat="42.51135" lon="2.04446">
        <ele>1847</ele>
        <time>2018-07-07T09:42:55.000Z</time>
      </trkpt>
      <trkpt lat="42.51134" lon="2.04449">
        <ele>1847</ele>
        <time>2018-07-07T09:42:56.000Z</time>
      </trkpt>
      <trkpt lat="42.51133" lon="2.04452">
        <ele>1847</ele>
        <time>2018-07-07T09:42:57.000Z</time>
      </trkpt>
      <trkpt lat="42.51131" lon="2.04454">
        <ele>1847</ele>
        <time>2018-07-07T09:42:58.000Z</time>
      </trkpt>
      <trkpt lat="42.5113" lon="2.04457">
        <ele>1847</ele>
        <time>2018-07-07T09:42:59.000Z</time>
      </trkpt>
      <trkpt lat="42.51128" lon="2.04459">
        <ele>1847</ele>
        <time>2018-07-07T09:43:00.000Z</time>
      </trkpt>
      <trkpt lat="42.51127" lon="2.04462">
        <ele>1847</ele>
        <time>2018-07-07T09:43:01.000Z</time>
      </trkpt>
      <trkpt lat="42.51126" lon="2.04466">
        <ele>1847</ele>
        <time>2018-07-07T09:43:02.000Z</time>
      </trkpt>
      <trkpt lat="42.51125" lon="2.04469">
        <ele>1846</ele>
        <time>2018-07-07T09:43:03.000Z</time>
      </trkpt>
      <trkpt lat="42.51124" lon="2.04472">
        <ele>1846</ele>
        <time>2018-07-07T09:43:04.000Z</time>
      </trkpt>
      <trkpt lat="42.51123" lon="2.04475">
        <ele>1846</ele>
        <time>2018-07-07T09:43:05.000Z</time>
      </trkpt>
      <trkpt lat="42.51122" lon="2.04478">
        <ele>1846</ele>
        <time>2018-07-07T09:43:06.000Z</time>
      </trkpt>
      <trkpt lat="42.51121" lon="2.04481">
        <ele>1846</ele>
        <time>2018-07-07T09:43:07.000Z</time>
      </trkpt>
      <trkpt lat="42.51121" lon="2.04484">
        <ele>1846</ele>
        <time>2018-07-07T09:43:08.000Z</time>
      </trkpt>
      <trkpt lat="42.5112" lon="2.04487">
        <ele>1846</ele>
        <time>2018-07-07T09:43:09.000Z</time>
      </trkpt>
      <trkpt lat="42.51119" lon="2.04489">
        <ele>1846</ele>
        <time>2018-07-07T09:43:10.000Z</time>
      </trkpt>
      <trkpt lat="42.51117" lon="2.04492">
        <ele>1846</ele>
        <time>2018-07-07T09:43:11.000Z</time>
      </trkpt>
      <trkpt lat="42.51116" lon="2.04494">
        <ele>1846</ele>
        <time>2018-07-07T09:43:12.000Z</time>
      </trkpt>
      <trkpt lat="42.51113" lon="2.04495">
        <ele>1846</ele>
        <time>2018-07-07T09:43:13.000Z</time>
      </trkpt>
      <trkpt lat="42.51111" lon="2.04497">
        <ele>1846</ele>
        <time>2018-07-07T09:43:14.000Z</time>
      </trkpt>
      <trkpt lat="42.51108" lon="2.04499">
        <ele>1846</ele>
        <time>2018-07-07T09:43:15.000Z</time>
      </trkpt>
      <trkpt lat="42.51105" lon="2.04501">
        <ele>1841</ele>
        <time>2018-07-07T09:43:16.000Z</time>
      </trkpt>
      <trkpt lat="42.51103" lon="2.04504">
        <ele>1841</ele>
        <time>2018-07-07T09:43:17.000Z</time>
      </trkpt>
      <trkpt lat="42.51101" lon="2.04506">
        <ele>1841</ele>
        <time>2018-07-07T09:43:18.000Z</time>
      </trkpt>
      <trkpt lat="42.51099" lon="2.04507">
        <ele>1841</ele>
        <time>2018-07-07T09:43:19.000Z</time>
      </trkpt>
      <trkpt lat="42.51096" lon="2.04508">
        <ele>1841</ele>
        <time>2018-07-07T09:43:20.000Z</time>
      </trkpt>
      <trkpt lat="42.51094" lon="2.04509">
        <ele>1841</ele>
        <time>2018-07-07T09:43:21.000Z</time>
      </trkpt>
      <trkpt lat="42.51091" lon="2.0451">
        <ele>1842</ele>
        <time>2018-07-07T09:43:22.000Z</time>
      </trkpt>
      <trkpt lat="42.51089" lon="2.0451">
        <ele>1842</ele>
        <time>2018-07-07T09:43:23.000Z</time>
      </trkpt>
      <trkpt lat="42.51086" lon="2.04511">
        <ele>1842</ele>
        <time>2018-07-07T09:43:24.000Z</time>
      </trkpt>
      <trkpt lat="42.51084" lon="2.04512">
        <ele>1842</ele>
        <time>2018-07-07T09:43:25.000Z</time>
      </trkpt>
      <trkpt lat="42.51081" lon="2.04513">
        <ele>1840</ele>
        <time>2018-07-07T09:43:26.000Z</time>
      </trkpt>
      <trkpt lat="42.51078" lon="2.04514">
        <ele>1840</ele>
        <time>2018-07-07T09:43:27.000Z</time>
      </trkpt>
      <trkpt lat="42.51076" lon="2.04516">
        <ele>1839</ele>
        <time>2018-07-07T09:43:28.000Z</time>
      </trkpt>
      <trkpt lat="42.51075" lon="2.04518">
        <ele>1839</ele>
        <time>2018-07-07T09:43:29.000Z</time>
      </trkpt>
      <trkpt lat="42.51073" lon="2.0452">
        <ele>1838</ele>
        <time>2018-07-07T09:43:30.000Z</time>
      </trkpt>
      <trkpt lat="42.51071" lon="2.04523">
        <ele>1838</ele>
        <time>2018-07-07T09:43:31.000Z</time>
      </trkpt>
      <trkpt lat="42.51069" lon="2.04525">
        <ele>1837</ele>
        <time>2018-07-07T09:43:32.000Z</time>
      </trkpt>
      <trkpt lat="42.51067" lon="2.04528">
        <ele>1837</ele>
        <time>2018-07-07T09:43:33.000Z</time>
      </trkpt>
      <trkpt lat="42.51065" lon="2.04529">
        <ele>1837</ele>
        <time>2018-07-07T09:43:34.000Z</time>
      </trkpt>
      <trkpt lat="42.51064" lon="2.04531">
        <ele>1836</ele>
        <time>2018-07-07T09:43:35.000Z</time>
      </trkpt>
      <trkpt lat="42.51062" lon="2.04535">
        <ele>1836</ele>
        <time>2018-07-07T09:43:36.000Z</time>
      </trkpt>
      <trkpt lat="42.5106" lon="2.04539">
        <ele>1836</ele>
        <time>2018-07-07T09:43:37.000Z</time>
      </trkpt>
      <trkpt lat="42.51057" lon="2.04542">
        <ele>1835</ele>
        <time>2018-07-07T09:43:38.000Z</time>
      </trkpt>
      <trkpt lat="42.51055" lon="2.04546">
        <ele>1835</ele>
        <time>2018-07-07T09:43:39.000Z</time>
      </trkpt>
      <trkpt lat="42.51053" lon="2.04549">
        <ele>1835</ele>
        <time>2018-07-07T09:43:40.000Z</time>
      </trkpt>
      <trkpt lat="42.5105" lon="2.04552">
        <ele>1834</ele>
        <time>2018-07-07T09:43:41.000Z</time>
      </trkpt>
      <trkpt lat="42.51047" lon="2.04554">
        <ele>1834</ele>
        <time>2018-07-07T09:43:42.000Z</time>
      </trkpt>
      <trkpt lat="42.51045" lon="2.04556">
        <ele>1834</ele>
        <time>2018-07-07T09:43:43.000Z</time>
      </trkpt>
      <trkpt lat="42.51042" lon="2.04557">
        <ele>1834</ele>
        <time>2018-07-07T09:43:44.000Z</time>
      </trkpt>
      <trkpt lat="42.5104" lon="2.04559">
        <ele>1834</ele>
        <time>2018-07-07T09:43:45.000Z</time>
      </trkpt>
      <trkpt lat="42.51037" lon="2.04561">
        <ele>1833</ele>
        <time>2018-07-07T09:43:46.000Z</time>
      </trkpt>
      <trkpt lat="42.51033" lon="2.04563">
        <ele>1833</ele>
        <time>2018-07-07T09:43:47.000Z</time>
      </trkpt>
      <trkpt lat="42.51031" lon="2.04565">
        <ele>1833</ele>
        <time>2018-07-07T09:43:48.000Z</time>
      </trkpt>
      <trkpt lat="42.51028" lon="2.04566">
        <ele>1833</ele>
        <time>2018-07-07T09:43:49.000Z</time>
      </trkpt>
      <trkpt lat="42.51026" lon="2.04567">
        <ele>1833</ele>
        <time>2018-07-07T09:43:50.000Z</time>
      </trkpt>
      <trkpt lat="42.51024" lon="2.04569">
        <ele>1833</ele>
        <time>2018-07-07T09:43:51.000Z</time>
      </trkpt>
      <trkpt lat="42.51021" lon="2.0457">
        <ele>1832</ele>
        <time>2018-07-07T09:43:52.000Z</time>
      </trkpt>
      <trkpt lat="42.51018" lon="2.0457">
        <ele>1832</ele>
        <time>2018-07-07T09:43:53.000Z</time>
      </trkpt>
      <trkpt lat="42.51015" lon="2.04571">
        <ele>1832</ele>
        <time>2018-07-07T09:43:54.000Z</time>
      </trkpt>
      <trkpt lat="42.51011" lon="2.04571">
        <ele>1832</ele>
        <time>2018-07-07T09:43:55.000Z</time>
      </trkpt>
      <trkpt lat="42.51007" lon="2.04571">
        <ele>1831</ele>
        <time>2018-07-07T09:43:56.000Z</time>
      </trkpt>
      <trkpt lat="42.51004" lon="2.0457">
        <ele>1831</ele>
        <time>2018-07-07T09:43:57.000Z</time>
      </trkpt>
      <trkpt lat="42.51" lon="2.0457">
        <ele>1827</ele>
        <time>2018-07-07T09:43:58.000Z</time>
      </trkpt>
      <trkpt lat="42.50996" lon="2.0457">
        <ele>1827</ele>
        <time>2018-07-07T09:43:59.000Z</time>
      </trkpt>
      <trkpt lat="42.50992" lon="2.0457">
        <ele>1827</ele>
        <time>2018-07-07T09:44:00.000Z</time>
      </trkpt>
      <trkpt lat="42.50989" lon="2.0457">
        <ele>1826</ele>
        <time>2018-07-07T09:44:01.000Z</time>
      </trkpt>
      <trkpt lat="42.50986" lon="2.04569">
        <ele>1826</ele>
        <time>2018-07-07T09:44:02.000Z</time>
      </trkpt>
      <trkpt lat="42.50983" lon="2.04567">
        <ele>1826</ele>
        <time>2018-07-07T09:44:03.000Z</time>
      </trkpt>
      <trkpt lat="42.50979" lon="2.04566">
        <ele>1825</ele>
        <time>2018-07-07T09:44:04.000Z</time>
      </trkpt>
      <trkpt lat="42.50976" lon="2.04563">
        <ele>1825</ele>
        <time>2018-07-07T09:44:05.000Z</time>
      </trkpt>
      <trkpt lat="42.50974" lon="2.04561">
        <ele>1825</ele>
        <time>2018-07-07T09:44:06.000Z</time>
      </trkpt>
      <trkpt lat="42.50972" lon="2.04558">
        <ele>1824</ele>
        <time>2018-07-07T09:44:07.000Z</time>
      </trkpt>
      <trkpt lat="42.50971" lon="2.04555">
        <ele>1824</ele>
        <time>2018-07-07T09:44:08.000Z</time>
      </trkpt>
      <trkpt lat="42.50969" lon="2.04551">
        <ele>1824</ele>
        <time>2018-07-07T09:44:09.000Z</time>
      </trkpt>
      <trkpt lat="42.50968" lon="2.04547">
        <ele>1824</ele>
        <time>2018-07-07T09:44:10.000Z</time>
      </trkpt>
      <trkpt lat="42.50967" lon="2.04544">
        <ele>1824</ele>
        <time>2018-07-07T09:44:11.000Z</time>
      </trkpt>
      <trkpt lat="42.50966" lon="2.04539">
        <ele>1824</ele>
        <time>2018-07-07T09:44:12.000Z</time>
      </trkpt>
      <trkpt lat="42.50966" lon="2.04536">
        <ele>1824</ele>
        <time>2018-07-07T09:44:13.000Z</time>
      </trkpt>
      <trkpt lat="42.50965" lon="2.04532">
        <ele>1824</ele>
        <time>2018-07-07T09:44:14.000Z</time>
      </trkpt>
      <trkpt lat="42.50965" lon="2.04529">
        <ele>1824</ele>
        <time>2018-07-07T09:44:15.000Z</time>
      </trkpt>
      <trkpt lat="42.50964" lon="2.04527">
        <ele>1824</ele>
        <time>2018-07-07T09:44:16.000Z</time>
      </trkpt>
      <trkpt lat="42.50963" lon="2.04524">
        <ele>1824</ele>
        <time>2018-07-07T09:44:17.000Z</time>
      </trkpt>
      <trkpt lat="42.50963" lon="2.0452">
        <ele>1824</ele>
        <time>2018-07-07T09:44:18.000Z</time>
      </trkpt>
      <trkpt lat="42.50962" lon="2.04516">
        <ele>1824</ele>
        <time>2018-07-07T09:44:19.000Z</time>
      </trkpt>
      <trkpt lat="42.50961" lon="2.04512">
        <ele>1824</ele>
        <time>2018-07-07T09:44:20.000Z</time>
      </trkpt>
      <trkpt lat="42.50961" lon="2.04507">
        <ele>1825</ele>
        <time>2018-07-07T09:44:21.000Z</time>
      </trkpt>
      <trkpt lat="42.50959" lon="2.04491">
        <ele>1829</ele>
        <time>2018-07-07T09:44:24.000Z</time>
      </trkpt>
      <trkpt lat="42.50957" lon="2.04482">
        <ele>1829</ele>
        <time>2018-07-07T09:44:26.000Z</time>
      </trkpt>
      <trkpt lat="42.50956" lon="2.04478">
        <ele>1829</ele>
        <time>2018-07-07T09:44:27.000Z</time>
      </trkpt>
      <trkpt lat="42.50955" lon="2.04475">
        <ele>1829</ele>
        <time>2018-07-07T09:44:28.000Z</time>
      </trkpt>
      <trkpt lat="42.50954" lon="2.04471">
        <ele>1829</ele>
        <time>2018-07-07T09:44:29.000Z</time>
      </trkpt>
      <trkpt lat="42.50953" lon="2.04469">
        <ele>1829</ele>
        <time>2018-07-07T09:44:30.000Z</time>
      </trkpt>
      <trkpt lat="42.50951" lon="2.04466">
        <ele>1829</ele>
        <time>2018-07-07T09:44:31.000Z</time>
      </trkpt>
      <trkpt lat="42.5095" lon="2.04463">
        <ele>1829</ele>
        <time>2018-07-07T09:44:32.000Z</time>
      </trkpt>
      <trkpt lat="42.50947" lon="2.04461">
        <ele>1829</ele>
        <time>2018-07-07T09:44:33.000Z</time>
      </trkpt>
      <trkpt lat="42.50945" lon="2.04459">
        <ele>1829</ele>
        <time>2018-07-07T09:44:34.000Z</time>
      </trkpt>
      <trkpt lat="42.50944" lon="2.04458">
        <ele>1829</ele>
        <time>2018-07-07T09:44:35.000Z</time>
      </trkpt>
      <trkpt lat="42.50941" lon="2.04457">
        <ele>1829</ele>
        <time>2018-07-07T09:44:36.000Z</time>
      </trkpt>
      <trkpt lat="42.50939" lon="2.04454">
        <ele>1829</ele>
        <time>2018-07-07T09:44:37.000Z</time>
      </trkpt>
      <trkpt lat="42.50936" lon="2.04453">
        <ele>1829</ele>
        <time>2018-07-07T09:44:38.000Z</time>
      </trkpt>
      <trkpt lat="42.50934" lon="2.04452">
        <ele>1829</ele>
        <time>2018-07-07T09:44:39.000Z</time>
      </trkpt>
      <trkpt lat="42.50931" lon="2.04451">
        <ele>1829</ele>
        <time>2018-07-07T09:44:40.000Z</time>
      </trkpt>
      <trkpt lat="42.50928" lon="2.04451">
        <ele>1829</ele>
        <time>2018-07-07T09:44:42.000Z</time>
      </trkpt>
      <trkpt lat="42.50925" lon="2.04451">
        <ele>1829</ele>
        <time>2018-07-07T09:44:43.000Z</time>
      </trkpt>
      <trkpt lat="42.50924" lon="2.04452">
        <ele>1829</ele>
        <time>2018-07-07T09:44:44.000Z</time>
      </trkpt>
      <trkpt lat="42.50921" lon="2.04452">
        <ele>1829</ele>
        <time>2018-07-07T09:44:45.000Z</time>
      </trkpt>
      <trkpt lat="42.50918" lon="2.04451">
        <ele>1829</ele>
        <time>2018-07-07T09:44:46.000Z</time>
      </trkpt>
      <trkpt lat="42.50915" lon="2.04451">
        <ele>1822</ele>
        <time>2018-07-07T09:44:47.000Z</time>
      </trkpt>
      <trkpt lat="42.50911" lon="2.0445">
        <ele>1822</ele>
        <time>2018-07-07T09:44:48.000Z</time>
      </trkpt>
      <trkpt lat="42.50907" lon="2.0445">
        <ele>1822</ele>
        <time>2018-07-07T09:44:49.000Z</time>
      </trkpt>
      <trkpt lat="42.50904" lon="2.0445">
        <ele>1822</ele>
        <time>2018-07-07T09:44:50.000Z</time>
      </trkpt>
      <trkpt lat="42.50902" lon="2.0445">
        <ele>1821</ele>
        <time>2018-07-07T09:44:51.000Z</time>
      </trkpt>
      <trkpt lat="42.50899" lon="2.0445">
        <ele>1821</ele>
        <time>2018-07-07T09:44:52.000Z</time>
      </trkpt>
      <trkpt lat="42.50896" lon="2.04451">
        <ele>1821</ele>
        <time>2018-07-07T09:44:53.000Z</time>
      </trkpt>
      <trkpt lat="42.50893" lon="2.04452">
        <ele>1821</ele>
        <time>2018-07-07T09:44:54.000Z</time>
      </trkpt>
      <trkpt lat="42.50891" lon="2.04453">
        <ele>1820</ele>
        <time>2018-07-07T09:44:55.000Z</time>
      </trkpt>
      <trkpt lat="42.50888" lon="2.04454">
        <ele>1820</ele>
        <time>2018-07-07T09:44:57.000Z</time>
      </trkpt>
      <trkpt lat="42.50886" lon="2.04457">
        <ele>1820</ele>
        <time>2018-07-07T09:44:59.000Z</time>
      </trkpt>
      <trkpt lat="42.50884" lon="2.04458">
        <ele>1820</ele>
        <time>2018-07-07T09:45:00.000Z</time>
      </trkpt>
      <trkpt lat="42.50882" lon="2.04459">
        <ele>1819</ele>
        <time>2018-07-07T09:45:01.000Z</time>
      </trkpt>
      <trkpt lat="42.50879" lon="2.04461">
        <ele>1819</ele>
        <time>2018-07-07T09:45:02.000Z</time>
      </trkpt>
      <trkpt lat="42.50876" lon="2.04463">
        <ele>1819</ele>
        <time>2018-07-07T09:45:03.000Z</time>
      </trkpt>
      <trkpt lat="42.50872" lon="2.04464">
        <ele>1819</ele>
        <time>2018-07-07T09:45:04.000Z</time>
      </trkpt>
      <trkpt lat="42.50869" lon="2.04464">
        <ele>1818</ele>
        <time>2018-07-07T09:45:05.000Z</time>
      </trkpt>
      <trkpt lat="42.50866" lon="2.04465">
        <ele>1818</ele>
        <time>2018-07-07T09:45:06.000Z</time>
      </trkpt>
      <trkpt lat="42.50863" lon="2.04465">
        <ele>1818</ele>
        <time>2018-07-07T09:45:07.000Z</time>
      </trkpt>
      <trkpt lat="42.5086" lon="2.04466">
        <ele>1818</ele>
        <time>2018-07-07T09:45:08.000Z</time>
      </trkpt>
      <trkpt lat="42.50858" lon="2.04466">
        <ele>1817</ele>
        <time>2018-07-07T09:45:09.000Z</time>
      </trkpt>
      <trkpt lat="42.50855" lon="2.04466">
        <ele>1817</ele>
        <time>2018-07-07T09:45:10.000Z</time>
      </trkpt>
      <trkpt lat="42.50853" lon="2.04466">
        <ele>1817</ele>
        <time>2018-07-07T09:45:11.000Z</time>
      </trkpt>
      <trkpt lat="42.5085" lon="2.04466">
        <ele>1817</ele>
        <time>2018-07-07T09:45:12.000Z</time>
      </trkpt>
      <trkpt lat="42.50847" lon="2.04467">
        <ele>1817</ele>
        <time>2018-07-07T09:45:13.000Z</time>
      </trkpt>
      <trkpt lat="42.50843" lon="2.04467">
        <ele>1816</ele>
        <time>2018-07-07T09:45:14.000Z</time>
      </trkpt>
      <trkpt lat="42.50841" lon="2.04467">
        <ele>1816</ele>
        <time>2018-07-07T09:45:15.000Z</time>
      </trkpt>
      <trkpt lat="42.50838" lon="2.04467">
        <ele>1816</ele>
        <time>2018-07-07T09:45:16.000Z</time>
      </trkpt>
      <trkpt lat="42.50835" lon="2.04468">
        <ele>1816</ele>
        <time>2018-07-07T09:45:17.000Z</time>
      </trkpt>
      <trkpt lat="42.50832" lon="2.04468">
        <ele>1810</ele>
        <time>2018-07-07T09:45:18.000Z</time>
      </trkpt>
      <trkpt lat="42.50829" lon="2.04467">
        <ele>1810</ele>
        <time>2018-07-07T09:45:19.000Z</time>
      </trkpt>
      <trkpt lat="42.50826" lon="2.04466">
        <ele>1810</ele>
        <time>2018-07-07T09:45:20.000Z</time>
      </trkpt>
      <trkpt lat="42.50824" lon="2.04465">
        <ele>1810</ele>
        <time>2018-07-07T09:45:21.000Z</time>
      </trkpt>
      <trkpt lat="42.50823" lon="2.04464">
        <ele>1810</ele>
        <time>2018-07-07T09:45:22.000Z</time>
      </trkpt>
      <trkpt lat="42.50821" lon="2.04463">
        <ele>1810</ele>
        <time>2018-07-07T09:45:23.000Z</time>
      </trkpt>
      <trkpt lat="42.50818" lon="2.04462">
        <ele>1810</ele>
        <time>2018-07-07T09:45:24.000Z</time>
      </trkpt>
      <trkpt lat="42.50816" lon="2.0446">
        <ele>1810</ele>
        <time>2018-07-07T09:45:25.000Z</time>
      </trkpt>
      <trkpt lat="42.50813" lon="2.04459">
        <ele>1810</ele>
        <time>2018-07-07T09:45:26.000Z</time>
      </trkpt>
      <trkpt lat="42.5081" lon="2.04456">
        <ele>1810</ele>
        <time>2018-07-07T09:45:27.000Z</time>
      </trkpt>
      <trkpt lat="42.50807" lon="2.04453">
        <ele>1810</ele>
        <time>2018-07-07T09:45:28.000Z</time>
      </trkpt>
      <trkpt lat="42.50804" lon="2.0445">
        <ele>1810</ele>
        <time>2018-07-07T09:45:29.000Z</time>
      </trkpt>
      <trkpt lat="42.50801" lon="2.04447">
        <ele>1810</ele>
        <time>2018-07-07T09:45:30.000Z</time>
      </trkpt>
      <trkpt lat="42.50799" lon="2.04444">
        <ele>1810</ele>
        <time>2018-07-07T09:45:31.000Z</time>
      </trkpt>
      <trkpt lat="42.50798" lon="2.0444">
        <ele>1810</ele>
        <time>2018-07-07T09:45:32.000Z</time>
      </trkpt>
      <trkpt lat="42.50797" lon="2.04436">
        <ele>1810</ele>
        <time>2018-07-07T09:45:33.000Z</time>
      </trkpt>
      <trkpt lat="42.50796" lon="2.04433">
        <ele>1810</ele>
        <time>2018-07-07T09:45:34.000Z</time>
      </trkpt>
      <trkpt lat="42.50795" lon="2.0443">
        <ele>1810</ele>
        <time>2018-07-07T09:45:35.000Z</time>
      </trkpt>
      <trkpt lat="42.50795" lon="2.04426">
        <ele>1810</ele>
        <time>2018-07-07T09:45:36.000Z</time>
      </trkpt>
      <trkpt lat="42.50795" lon="2.04422">
        <ele>1810</ele>
        <time>2018-07-07T09:45:37.000Z</time>
      </trkpt>
      <trkpt lat="42.50796" lon="2.04416">
        <ele>1813</ele>
        <time>2018-07-07T09:45:38.000Z</time>
      </trkpt>
      <trkpt lat="42.50796" lon="2.04412">
        <ele>1813</ele>
        <time>2018-07-07T09:45:39.000Z</time>
      </trkpt>
      <trkpt lat="42.50796" lon="2.04407">
        <ele>1813</ele>
        <time>2018-07-07T09:45:40.000Z</time>
      </trkpt>
      <trkpt lat="42.50795" lon="2.04404">
        <ele>1813</ele>
        <time>2018-07-07T09:45:41.000Z</time>
      </trkpt>
      <trkpt lat="42.50795" lon="2.04401">
        <ele>1813</ele>
        <time>2018-07-07T09:45:42.000Z</time>
      </trkpt>
      <trkpt lat="42.50794" lon="2.04397">
        <ele>1813</ele>
        <time>2018-07-07T09:45:43.000Z</time>
      </trkpt>
      <trkpt lat="42.50793" lon="2.04394">
        <ele>1813</ele>
        <time>2018-07-07T09:45:44.000Z</time>
      </trkpt>
      <trkpt lat="42.50792" lon="2.0439">
        <ele>1813</ele>
        <time>2018-07-07T09:45:45.000Z</time>
      </trkpt>
      <trkpt lat="42.50791" lon="2.04387">
        <ele>1813</ele>
        <time>2018-07-07T09:45:46.000Z</time>
      </trkpt>
      <trkpt lat="42.5079" lon="2.04384">
        <ele>1813</ele>
        <time>2018-07-07T09:45:47.000Z</time>
      </trkpt>
      <trkpt lat="42.50789" lon="2.0438">
        <ele>1813</ele>
        <time>2018-07-07T09:45:48.000Z</time>
      </trkpt>
      <trkpt lat="42.50787" lon="2.04377">
        <ele>1813</ele>
        <time>2018-07-07T09:45:49.000Z</time>
      </trkpt>
      <trkpt lat="42.50787" lon="2.04374">
        <ele>1813</ele>
        <time>2018-07-07T09:45:50.000Z</time>
      </trkpt>
      <trkpt lat="42.50786" lon="2.04372">
        <ele>1813</ele>
        <time>2018-07-07T09:45:51.000Z</time>
      </trkpt>
      <trkpt lat="42.50785" lon="2.04368">
        <ele>1813</ele>
        <time>2018-07-07T09:45:52.000Z</time>
      </trkpt>
      <trkpt lat="42.50784" lon="2.04366">
        <ele>1813</ele>
        <time>2018-07-07T09:45:53.000Z</time>
      </trkpt>
      <trkpt lat="42.50784" lon="2.04362">
        <ele>1813</ele>
        <time>2018-07-07T09:45:54.000Z</time>
      </trkpt>
      <trkpt lat="42.50782" lon="2.04359">
        <ele>1813</ele>
        <time>2018-07-07T09:45:55.000Z</time>
      </trkpt>
      <trkpt lat="42.50781" lon="2.04356">
        <ele>1813</ele>
        <time>2018-07-07T09:45:56.000Z</time>
      </trkpt>
      <trkpt lat="42.50779" lon="2.04353">
        <ele>1813</ele>
        <time>2018-07-07T09:45:57.000Z</time>
      </trkpt>
      <trkpt lat="42.50779" lon="2.0435">
        <ele>1813</ele>
        <time>2018-07-07T09:45:58.000Z</time>
      </trkpt>
      <trkpt lat="42.50779" lon="2.04347">
        <ele>1813</ele>
        <time>2018-07-07T09:45:59.000Z</time>
      </trkpt>
      <trkpt lat="42.5078" lon="2.04343">
        <ele>1813</ele>
        <time>2018-07-07T09:46:00.000Z</time>
      </trkpt>
      <trkpt lat="42.5078" lon="2.04339">
        <ele>1813</ele>
        <time>2018-07-07T09:46:01.000Z</time>
      </trkpt>
      <trkpt lat="42.50779" lon="2.04335">
        <ele>1813</ele>
        <time>2018-07-07T09:46:02.000Z</time>
      </trkpt>
      <trkpt lat="42.50777" lon="2.04331">
        <ele>1815</ele>
        <time>2018-07-07T09:46:03.000Z</time>
      </trkpt>
      <trkpt lat="42.50776" lon="2.04328">
        <ele>1814</ele>
        <time>2018-07-07T09:46:04.000Z</time>
      </trkpt>
      <trkpt lat="42.50774" lon="2.04324">
        <ele>1814</ele>
        <time>2018-07-07T09:46:05.000Z</time>
      </trkpt>
      <trkpt lat="42.50773" lon="2.0432">
        <ele>1814</ele>
        <time>2018-07-07T09:46:06.000Z</time>
      </trkpt>
      <trkpt lat="42.50771" lon="2.04316">
        <ele>1814</ele>
        <time>2018-07-07T09:46:07.000Z</time>
      </trkpt>
      <trkpt lat="42.5077" lon="2.04312">
        <ele>1814</ele>
        <time>2018-07-07T09:46:08.000Z</time>
      </trkpt>
      <trkpt lat="42.50769" lon="2.04308">
        <ele>1815</ele>
        <time>2018-07-07T09:46:09.000Z</time>
      </trkpt>
      <trkpt lat="42.50769" lon="2.04305">
        <ele>1815</ele>
        <time>2018-07-07T09:46:10.000Z</time>
      </trkpt>
      <trkpt lat="42.50768" lon="2.04301">
        <ele>1815</ele>
        <time>2018-07-07T09:46:11.000Z</time>
      </trkpt>
      <trkpt lat="42.50768" lon="2.04297">
        <ele>1815</ele>
        <time>2018-07-07T09:46:12.000Z</time>
      </trkpt>
      <trkpt lat="42.50768" lon="2.04293">
        <ele>1815</ele>
        <time>2018-07-07T09:46:13.000Z</time>
      </trkpt>
      <trkpt lat="42.50768" lon="2.04289">
        <ele>1815</ele>
        <time>2018-07-07T09:46:14.000Z</time>
      </trkpt>
      <trkpt lat="42.50768" lon="2.04286">
        <ele>1815</ele>
        <time>2018-07-07T09:46:15.000Z</time>
      </trkpt>
      <trkpt lat="42.50767" lon="2.04282">
        <ele>1815</ele>
        <time>2018-07-07T09:46:16.000Z</time>
      </trkpt>
      <trkpt lat="42.50766" lon="2.04279">
        <ele>1815</ele>
        <time>2018-07-07T09:46:17.000Z</time>
      </trkpt>
      <trkpt lat="42.50765" lon="2.04275">
        <ele>1815</ele>
        <time>2018-07-07T09:46:18.000Z</time>
      </trkpt>
      <trkpt lat="42.50764" lon="2.04272">
        <ele>1815</ele>
        <time>2018-07-07T09:46:19.000Z</time>
      </trkpt>
      <trkpt lat="42.50762" lon="2.04269">
        <ele>1814</ele>
        <time>2018-07-07T09:46:20.000Z</time>
      </trkpt>
      <trkpt lat="42.50761" lon="2.04265">
        <ele>1814</ele>
        <time>2018-07-07T09:46:21.000Z</time>
      </trkpt>
      <trkpt lat="42.5076" lon="2.04262">
        <ele>1814</ele>
        <time>2018-07-07T09:46:22.000Z</time>
      </trkpt>
      <trkpt lat="42.50758" lon="2.04259">
        <ele>1813</ele>
        <time>2018-07-07T09:46:23.000Z</time>
      </trkpt>
      <trkpt lat="42.50756" lon="2.04256">
        <ele>1813</ele>
        <time>2018-07-07T09:46:24.000Z</time>
      </trkpt>
      <trkpt lat="42.50754" lon="2.04254">
        <ele>1812</ele>
        <time>2018-07-07T09:46:25.000Z</time>
      </trkpt>
      <trkpt lat="42.50753" lon="2.04251">
        <ele>1812</ele>
        <time>2018-07-07T09:46:26.000Z</time>
      </trkpt>
      <trkpt lat="42.50751" lon="2.04249">
        <ele>1811</ele>
        <time>2018-07-07T09:46:27.000Z</time>
      </trkpt>
      <trkpt lat="42.50749" lon="2.04247">
        <ele>1810</ele>
        <time>2018-07-07T09:46:28.000Z</time>
      </trkpt>
      <trkpt lat="42.50747" lon="2.04245">
        <ele>1810</ele>
        <time>2018-07-07T09:46:29.000Z</time>
      </trkpt>
      <trkpt lat="42.50746" lon="2.04243">
        <ele>1809</ele>
        <time>2018-07-07T09:46:30.000Z</time>
      </trkpt>
      <trkpt lat="42.50744" lon="2.04241">
        <ele>1809</ele>
        <time>2018-07-07T09:46:31.000Z</time>
      </trkpt>
      <trkpt lat="42.50743" lon="2.04239">
        <ele>1808</ele>
        <time>2018-07-07T09:46:32.000Z</time>
      </trkpt>
      <trkpt lat="42.50741" lon="2.04238">
        <ele>1808</ele>
        <time>2018-07-07T09:46:33.000Z</time>
      </trkpt>
      <trkpt lat="42.50738" lon="2.04235">
        <ele>1807</ele>
        <time>2018-07-07T09:46:35.000Z</time>
      </trkpt>
      <trkpt lat="42.50736" lon="2.04234">
        <ele>1807</ele>
        <time>2018-07-07T09:46:36.000Z</time>
      </trkpt>
      <trkpt lat="42.50734" lon="2.04234">
        <ele>1807</ele>
        <time>2018-07-07T09:46:37.000Z</time>
      </trkpt>
      <trkpt lat="42.50732" lon="2.04232">
        <ele>1807</ele>
        <time>2018-07-07T09:46:38.000Z</time>
      </trkpt>
      <trkpt lat="42.5073" lon="2.04231">
        <ele>1806</ele>
        <time>2018-07-07T09:46:39.000Z</time>
      </trkpt>
      <trkpt lat="42.50728" lon="2.0423">
        <ele>1806</ele>
        <time>2018-07-07T09:46:40.000Z</time>
      </trkpt>
      <trkpt lat="42.50725" lon="2.04229">
        <ele>1806</ele>
        <time>2018-07-07T09:46:41.000Z</time>
      </trkpt>
      <trkpt lat="42.50722" lon="2.04228">
        <ele>1806</ele>
        <time>2018-07-07T09:46:42.000Z</time>
      </trkpt>
      <trkpt lat="42.5072" lon="2.04227">
        <ele>1805</ele>
        <time>2018-07-07T09:46:43.000Z</time>
      </trkpt>
      <trkpt lat="42.50717" lon="2.04226">
        <ele>1805</ele>
        <time>2018-07-07T09:46:44.000Z</time>
      </trkpt>
      <trkpt lat="42.50715" lon="2.04225">
        <ele>1805</ele>
        <time>2018-07-07T09:46:45.000Z</time>
      </trkpt>
      <trkpt lat="42.50713" lon="2.04225">
        <ele>1805</ele>
        <time>2018-07-07T09:46:46.000Z</time>
      </trkpt>
      <trkpt lat="42.5071" lon="2.04225">
        <ele>1805</ele>
        <time>2018-07-07T09:46:47.000Z</time>
      </trkpt>
      <trkpt lat="42.50707" lon="2.04225">
        <ele>1804</ele>
        <time>2018-07-07T09:46:48.000Z</time>
      </trkpt>
      <trkpt lat="42.50705" lon="2.04225">
        <ele>1804</ele>
        <time>2018-07-07T09:46:49.000Z</time>
      </trkpt>
      <trkpt lat="42.50702" lon="2.04225">
        <ele>1804</ele>
        <time>2018-07-07T09:46:50.000Z</time>
      </trkpt>
      <trkpt lat="42.507" lon="2.04225">
        <ele>1804</ele>
        <time>2018-07-07T09:46:51.000Z</time>
      </trkpt>
      <trkpt lat="42.50698" lon="2.04225">
        <ele>1803</ele>
        <time>2018-07-07T09:46:52.000Z</time>
      </trkpt>
      <trkpt lat="42.50695" lon="2.04225">
        <ele>1803</ele>
        <time>2018-07-07T09:46:53.000Z</time>
      </trkpt>
      <trkpt lat="42.50693" lon="2.04225">
        <ele>1803</ele>
        <time>2018-07-07T09:46:54.000Z</time>
      </trkpt>
      <trkpt lat="42.5069" lon="2.04225">
        <ele>1803</ele>
        <time>2018-07-07T09:46:55.000Z</time>
      </trkpt>
      <trkpt lat="42.50688" lon="2.04225">
        <ele>1803</ele>
        <time>2018-07-07T09:46:56.000Z</time>
      </trkpt>
      <trkpt lat="42.50686" lon="2.04225">
        <ele>1803</ele>
        <time>2018-07-07T09:46:57.000Z</time>
      </trkpt>
      <trkpt lat="42.50683" lon="2.04225">
        <ele>1802</ele>
        <time>2018-07-07T09:46:58.000Z</time>
      </trkpt>
      <trkpt lat="42.50681" lon="2.04225">
        <ele>1802</ele>
        <time>2018-07-07T09:46:59.000Z</time>
      </trkpt>
      <trkpt lat="42.50679" lon="2.04225">
        <ele>1802</ele>
        <time>2018-07-07T09:47:00.000Z</time>
      </trkpt>
      <trkpt lat="42.50677" lon="2.04224">
        <ele>1802</ele>
        <time>2018-07-07T09:47:01.000Z</time>
      </trkpt>
      <trkpt lat="42.50674" lon="2.04222">
        <ele>1802</ele>
        <time>2018-07-07T09:47:02.000Z</time>
      </trkpt>
      <trkpt lat="42.50672" lon="2.04222">
        <ele>1802</ele>
        <time>2018-07-07T09:47:03.000Z</time>
      </trkpt>
      <trkpt lat="42.50669" lon="2.04221">
        <ele>1802</ele>
        <time>2018-07-07T09:47:04.000Z</time>
      </trkpt>
      <trkpt lat="42.50666" lon="2.04221">
        <ele>1792</ele>
        <time>2018-07-07T09:47:05.000Z</time>
      </trkpt>
      <trkpt lat="42.50664" lon="2.04221">
        <ele>1792</ele>
        <time>2018-07-07T09:47:06.000Z</time>
      </trkpt>
      <trkpt lat="42.50661" lon="2.0422">
        <ele>1791</ele>
        <time>2018-07-07T09:47:07.000Z</time>
      </trkpt>
      <trkpt lat="42.50658" lon="2.04219">
        <ele>1791</ele>
        <time>2018-07-07T09:47:08.000Z</time>
      </trkpt>
      <trkpt lat="42.50655" lon="2.04217">
        <ele>1791</ele>
        <time>2018-07-07T09:47:09.000Z</time>
      </trkpt>
      <trkpt lat="42.50653" lon="2.04213">
        <ele>1790</ele>
        <time>2018-07-07T09:47:10.000Z</time>
      </trkpt>
      <trkpt lat="42.50652" lon="2.0421">
        <ele>1790</ele>
        <time>2018-07-07T09:47:11.000Z</time>
      </trkpt>
      <trkpt lat="42.50652" lon="2.04205">
        <ele>1790</ele>
        <time>2018-07-07T09:47:12.000Z</time>
      </trkpt>
      <trkpt lat="42.50653" lon="2.042">
        <ele>1790</ele>
        <time>2018-07-07T09:47:13.000Z</time>
      </trkpt>
      <trkpt lat="42.50653" lon="2.04196">
        <ele>1790</ele>
        <time>2018-07-07T09:47:14.000Z</time>
      </trkpt>
      <trkpt lat="42.50653" lon="2.04192">
        <ele>1791</ele>
        <time>2018-07-07T09:47:15.000Z</time>
      </trkpt>
      <trkpt lat="42.50654" lon="2.04182">
        <ele>1792</ele>
        <time>2018-07-07T09:47:17.000Z</time>
      </trkpt>
      <trkpt lat="42.50653" lon="2.04178">
        <ele>1792</ele>
        <time>2018-07-07T09:47:18.000Z</time>
      </trkpt>
      <trkpt lat="42.50654" lon="2.04175">
        <ele>1792</ele>
        <time>2018-07-07T09:47:19.000Z</time>
      </trkpt>
      <trkpt lat="42.50655" lon="2.04171">
        <ele>1793</ele>
        <time>2018-07-07T09:47:20.000Z</time>
      </trkpt>
      <trkpt lat="42.50656" lon="2.04168">
        <ele>1793</ele>
        <time>2018-07-07T09:47:21.000Z</time>
      </trkpt>
      <trkpt lat="42.50656" lon="2.04164">
        <ele>1792</ele>
        <time>2018-07-07T09:47:22.000Z</time>
      </trkpt>
      <trkpt lat="42.50657" lon="2.0416">
        <ele>1792</ele>
        <time>2018-07-07T09:47:23.000Z</time>
      </trkpt>
      <trkpt lat="42.50659" lon="2.04157">
        <ele>1792</ele>
        <time>2018-07-07T09:47:24.000Z</time>
      </trkpt>
      <trkpt lat="42.50659" lon="2.04154">
        <ele>1791</ele>
        <time>2018-07-07T09:47:25.000Z</time>
      </trkpt>
      <trkpt lat="42.5066" lon="2.04151">
        <ele>1790</ele>
        <time>2018-07-07T09:47:26.000Z</time>
      </trkpt>
      <trkpt lat="42.5066" lon="2.04149">
        <ele>1790</ele>
        <time>2018-07-07T09:47:27.000Z</time>
      </trkpt>
      <trkpt lat="42.5066" lon="2.04146">
        <ele>1789</ele>
        <time>2018-07-07T09:47:28.000Z</time>
      </trkpt>
      <trkpt lat="42.5066" lon="2.04142">
        <ele>1789</ele>
        <time>2018-07-07T09:47:29.000Z</time>
      </trkpt>
      <trkpt lat="42.50661" lon="2.04139">
        <ele>1788</ele>
        <time>2018-07-07T09:47:30.000Z</time>
      </trkpt>
      <trkpt lat="42.50663" lon="2.04136">
        <ele>1788</ele>
        <time>2018-07-07T09:47:31.000Z</time>
      </trkpt>
      <trkpt lat="42.50664" lon="2.04134">
        <ele>1788</ele>
        <time>2018-07-07T09:47:32.000Z</time>
      </trkpt>
      <trkpt lat="42.50666" lon="2.04131">
        <ele>1787</ele>
        <time>2018-07-07T09:47:33.000Z</time>
      </trkpt>
      <trkpt lat="42.50668" lon="2.04128">
        <ele>1796</ele>
        <time>2018-07-07T09:47:34.000Z</time>
      </trkpt>
      <trkpt lat="42.5067" lon="2.04126">
        <ele>1796</ele>
        <time>2018-07-07T09:47:35.000Z</time>
      </trkpt>
      <trkpt lat="42.50671" lon="2.04123">
        <ele>1795</ele>
        <time>2018-07-07T09:47:36.000Z</time>
      </trkpt>
      <trkpt lat="42.50673" lon="2.0412">
        <ele>1795</ele>
        <time>2018-07-07T09:47:37.000Z</time>
      </trkpt>
      <trkpt lat="42.50674" lon="2.04117">
        <ele>1795</ele>
        <time>2018-07-07T09:47:38.000Z</time>
      </trkpt>
      <trkpt lat="42.50675" lon="2.04114">
        <ele>1795</ele>
        <time>2018-07-07T09:47:39.000Z</time>
      </trkpt>
      <trkpt lat="42.50676" lon="2.04111">
        <ele>1794</ele>
        <time>2018-07-07T09:47:40.000Z</time>
      </trkpt>
      <trkpt lat="42.50676" lon="2.04109">
        <ele>1794</ele>
        <time>2018-07-07T09:47:41.000Z</time>
      </trkpt>
      <trkpt lat="42.50677" lon="2.04106">
        <ele>1794</ele>
        <time>2018-07-07T09:47:42.000Z</time>
      </trkpt>
      <trkpt lat="42.50678" lon="2.04104">
        <ele>1793</ele>
        <time>2018-07-07T09:47:43.000Z</time>
      </trkpt>
      <trkpt lat="42.50678" lon="2.04101">
        <ele>1793</ele>
        <time>2018-07-07T09:47:44.000Z</time>
      </trkpt>
      <trkpt lat="42.50679" lon="2.04099">
        <ele>1793</ele>
        <time>2018-07-07T09:47:46.000Z</time>
      </trkpt>
      <trkpt lat="42.50677" lon="2.04101">
        <ele>1793</ele>
        <time>2018-07-07T09:47:53.000Z</time>
      </trkpt>
      <trkpt lat="42.50675" lon="2.04104">
        <ele>1793</ele>
        <time>2018-07-07T09:47:55.000Z</time>
      </trkpt>
      <trkpt lat="42.50673" lon="2.04106">
        <ele>1793</ele>
        <time>2018-07-07T09:47:56.000Z</time>
      </trkpt>
      <trkpt lat="42.50672" lon="2.04108">
        <ele>1794</ele>
        <time>2018-07-07T09:47:57.000Z</time>
      </trkpt>
      <trkpt lat="42.5067" lon="2.0411">
        <ele>1794</ele>
        <time>2018-07-07T09:47:58.000Z</time>
      </trkpt>
      <trkpt lat="42.50668" lon="2.04112">
        <ele>1794</ele>
        <time>2018-07-07T09:47:59.000Z</time>
      </trkpt>
      <trkpt lat="42.50665" lon="2.04114">
        <ele>1786</ele>
        <time>2018-07-07T09:48:00.000Z</time>
      </trkpt>
      <trkpt lat="42.50663" lon="2.04117">
        <ele>1786</ele>
        <time>2018-07-07T09:48:01.000Z</time>
      </trkpt>
      <trkpt lat="42.5066" lon="2.04118">
        <ele>1786</ele>
        <time>2018-07-07T09:48:02.000Z</time>
      </trkpt>
      <trkpt lat="42.50657" lon="2.04119">
        <ele>1786</ele>
        <time>2018-07-07T09:48:03.000Z</time>
      </trkpt>
      <trkpt lat="42.50654" lon="2.04119">
        <ele>1786</ele>
        <time>2018-07-07T09:48:04.000Z</time>
      </trkpt>
      <trkpt lat="42.50652" lon="2.04119">
        <ele>1786</ele>
        <time>2018-07-07T09:48:05.000Z</time>
      </trkpt>
      <trkpt lat="42.5065" lon="2.04118">
        <ele>1785</ele>
        <time>2018-07-07T09:48:06.000Z</time>
      </trkpt>
      <trkpt lat="42.50647" lon="2.04118">
        <ele>1785</ele>
        <time>2018-07-07T09:48:07.000Z</time>
      </trkpt>
      <trkpt lat="42.50645" lon="2.04118">
        <ele>1785</ele>
        <time>2018-07-07T09:48:08.000Z</time>
      </trkpt>
      <trkpt lat="42.50643" lon="2.04118">
        <ele>1785</ele>
        <time>2018-07-07T09:48:09.000Z</time>
      </trkpt>
      <trkpt lat="42.50641" lon="2.04117">
        <ele>1785</ele>
        <time>2018-07-07T09:48:10.000Z</time>
      </trkpt>
      <trkpt lat="42.50638" lon="2.04117">
        <ele>1785</ele>
        <time>2018-07-07T09:48:11.000Z</time>
      </trkpt>
      <trkpt lat="42.50636" lon="2.04117">
        <ele>1784</ele>
        <time>2018-07-07T09:48:12.000Z</time>
      </trkpt>
      <trkpt lat="42.50634" lon="2.04118">
        <ele>1784</ele>
        <time>2018-07-07T09:48:13.000Z</time>
      </trkpt>
      <trkpt lat="42.50632" lon="2.04118">
        <ele>1784</ele>
        <time>2018-07-07T09:48:14.000Z</time>
      </trkpt>
      <trkpt lat="42.5063" lon="2.0412">
        <ele>1784</ele>
        <time>2018-07-07T09:48:15.000Z</time>
      </trkpt>
      <trkpt lat="42.50628" lon="2.0412">
        <ele>1784</ele>
        <time>2018-07-07T09:48:16.000Z</time>
      </trkpt>
      <trkpt lat="42.50625" lon="2.04119">
        <ele>1783</ele>
        <time>2018-07-07T09:48:17.000Z</time>
      </trkpt>
      <trkpt lat="42.50623" lon="2.04118">
        <ele>1783</ele>
        <time>2018-07-07T09:48:18.000Z</time>
      </trkpt>
      <trkpt lat="42.50621" lon="2.04116">
        <ele>1783</ele>
        <time>2018-07-07T09:48:19.000Z</time>
      </trkpt>
      <trkpt lat="42.5062" lon="2.04114">
        <ele>1783</ele>
        <time>2018-07-07T09:48:20.000Z</time>
      </trkpt>
      <trkpt lat="42.50618" lon="2.04111">
        <ele>1782</ele>
        <time>2018-07-07T09:48:21.000Z</time>
      </trkpt>
      <trkpt lat="42.50617" lon="2.04107">
        <ele>1782</ele>
        <time>2018-07-07T09:48:22.000Z</time>
      </trkpt>
      <trkpt lat="42.50616" lon="2.04104">
        <ele>1782</ele>
        <time>2018-07-07T09:48:23.000Z</time>
      </trkpt>
      <trkpt lat="42.50614" lon="2.04101">
        <ele>1782</ele>
        <time>2018-07-07T09:48:24.000Z</time>
      </trkpt>
      <trkpt lat="42.50613" lon="2.04099">
        <ele>1781</ele>
        <time>2018-07-07T09:48:25.000Z</time>
      </trkpt>
      <trkpt lat="42.50611" lon="2.04097">
        <ele>1781</ele>
        <time>2018-07-07T09:48:26.000Z</time>
      </trkpt>
      <trkpt lat="42.50609" lon="2.04095">
        <ele>1781</ele>
        <time>2018-07-07T09:48:27.000Z</time>
      </trkpt>
      <trkpt lat="42.50606" lon="2.04093">
        <ele>1780</ele>
        <time>2018-07-07T09:48:28.000Z</time>
      </trkpt>
      <trkpt lat="42.50604" lon="2.04091">
        <ele>1780</ele>
        <time>2018-07-07T09:48:29.000Z</time>
      </trkpt>
      <trkpt lat="42.50602" lon="2.04089">
        <ele>1780</ele>
        <time>2018-07-07T09:48:30.000Z</time>
      </trkpt>
      <trkpt lat="42.506" lon="2.04086">
        <ele>1779</ele>
        <time>2018-07-07T09:48:31.000Z</time>
      </trkpt>
      <trkpt lat="42.50598" lon="2.04083">
        <ele>1778</ele>
        <time>2018-07-07T09:48:32.000Z</time>
      </trkpt>
      <trkpt lat="42.50597" lon="2.0408">
        <ele>1778</ele>
        <time>2018-07-07T09:48:33.000Z</time>
      </trkpt>
      <trkpt lat="42.50595" lon="2.04076">
        <ele>1778</ele>
        <time>2018-07-07T09:48:34.000Z</time>
      </trkpt>
      <trkpt lat="42.50592" lon="2.04073">
        <ele>1778</ele>
        <time>2018-07-07T09:48:35.000Z</time>
      </trkpt>
      <trkpt lat="42.5059" lon="2.04069">
        <ele>1778</ele>
        <time>2018-07-07T09:48:36.000Z</time>
      </trkpt>
      <trkpt lat="42.50588" lon="2.04066">
        <ele>1778</ele>
        <time>2018-07-07T09:48:37.000Z</time>
      </trkpt>
      <trkpt lat="42.50586" lon="2.04063">
        <ele>1778</ele>
        <time>2018-07-07T09:48:38.000Z</time>
      </trkpt>
      <trkpt lat="42.50584" lon="2.04059">
        <ele>1779</ele>
        <time>2018-07-07T09:48:39.000Z</time>
      </trkpt>
      <trkpt lat="42.50581" lon="2.04056">
        <ele>1771</ele>
        <time>2018-07-07T09:48:40.000Z</time>
      </trkpt>
      <trkpt lat="42.50579" lon="2.04054">
        <ele>1770</ele>
        <time>2018-07-07T09:48:41.000Z</time>
      </trkpt>
      <trkpt lat="42.50577" lon="2.04052">
        <ele>1770</ele>
        <time>2018-07-07T09:48:42.000Z</time>
      </trkpt>
      <trkpt lat="42.50576" lon="2.0405">
        <ele>1770</ele>
        <time>2018-07-07T09:48:43.000Z</time>
      </trkpt>
      <trkpt lat="42.50574" lon="2.04047">
        <ele>1770</ele>
        <time>2018-07-07T09:48:44.000Z</time>
      </trkpt>
      <trkpt lat="42.50572" lon="2.04045">
        <ele>1770</ele>
        <time>2018-07-07T09:48:45.000Z</time>
      </trkpt>
      <trkpt lat="42.50571" lon="2.04042">
        <ele>1770</ele>
        <time>2018-07-07T09:48:46.000Z</time>
      </trkpt>
      <trkpt lat="42.5057" lon="2.04039">
        <ele>1770</ele>
        <time>2018-07-07T09:48:47.000Z</time>
      </trkpt>
      <trkpt lat="42.50569" lon="2.04037">
        <ele>1770</ele>
        <time>2018-07-07T09:48:48.000Z</time>
      </trkpt>
      <trkpt lat="42.50568" lon="2.04034">
        <ele>1770</ele>
        <time>2018-07-07T09:48:49.000Z</time>
      </trkpt>
      <trkpt lat="42.50566" lon="2.04032">
        <ele>1770</ele>
        <time>2018-07-07T09:48:50.000Z</time>
      </trkpt>
      <trkpt lat="42.50565" lon="2.0403">
        <ele>1770</ele>
        <time>2018-07-07T09:48:51.000Z</time>
      </trkpt>
      <trkpt lat="42.50564" lon="2.04027">
        <ele>1770</ele>
        <time>2018-07-07T09:48:52.000Z</time>
      </trkpt>
      <trkpt lat="42.50562" lon="2.04025">
        <ele>1770</ele>
        <time>2018-07-07T09:48:53.000Z</time>
      </trkpt>
      <trkpt lat="42.50561" lon="2.04024">
        <ele>1770</ele>
        <time>2018-07-07T09:48:54.000Z</time>
      </trkpt>
      <trkpt lat="42.50559" lon="2.04022">
        <ele>1769</ele>
        <time>2018-07-07T09:48:55.000Z</time>
      </trkpt>
      <trkpt lat="42.50557" lon="2.04021">
        <ele>1769</ele>
        <time>2018-07-07T09:48:56.000Z</time>
      </trkpt>
      <trkpt lat="42.50555" lon="2.04022">
        <ele>1769</ele>
        <time>2018-07-07T09:48:57.000Z</time>
      </trkpt>
      <trkpt lat="42.50553" lon="2.04025">
        <ele>1769</ele>
        <time>2018-07-07T09:48:59.000Z</time>
      </trkpt>
      <trkpt lat="42.50553" lon="2.04029">
        <ele>1769</ele>
        <time>2018-07-07T09:49:01.000Z</time>
      </trkpt>
      <trkpt lat="42.50553" lon="2.04032">
        <ele>1769</ele>
        <time>2018-07-07T09:49:02.000Z</time>
      </trkpt>
      <trkpt lat="42.50553" lon="2.04036">
        <ele>1768</ele>
        <time>2018-07-07T09:49:04.000Z</time>
      </trkpt>
      <trkpt lat="42.50553" lon="2.04039">
        <ele>1768</ele>
        <time>2018-07-07T09:49:05.000Z</time>
      </trkpt>
      <trkpt lat="42.50553" lon="2.04042">
        <ele>1768</ele>
        <time>2018-07-07T09:49:06.000Z</time>
      </trkpt>
      <trkpt lat="42.50553" lon="2.04045">
        <ele>1768</ele>
        <time>2018-07-07T09:49:07.000Z</time>
      </trkpt>
      <trkpt lat="42.50553" lon="2.04049">
        <ele>1768</ele>
        <time>2018-07-07T09:49:08.000Z</time>
      </trkpt>
      <trkpt lat="42.50553" lon="2.04052">
        <ele>1768</ele>
        <time>2018-07-07T09:49:09.000Z</time>
      </trkpt>
      <trkpt lat="42.50552" lon="2.04056">
        <ele>1768</ele>
        <time>2018-07-07T09:49:10.000Z</time>
      </trkpt>
      <trkpt lat="42.50552" lon="2.04059">
        <ele>1768</ele>
        <time>2018-07-07T09:49:11.000Z</time>
      </trkpt>
      <trkpt lat="42.50552" lon="2.04062">
        <ele>1768</ele>
        <time>2018-07-07T09:49:12.000Z</time>
      </trkpt>
      <trkpt lat="42.50549" lon="2.04064">
        <ele>1768</ele>
        <time>2018-07-07T09:49:13.000Z</time>
      </trkpt>
      <trkpt lat="42.50547" lon="2.04066">
        <ele>1768</ele>
        <time>2018-07-07T09:49:14.000Z</time>
      </trkpt>
      <trkpt lat="42.50545" lon="2.04067">
        <ele>1767</ele>
        <time>2018-07-07T09:49:15.000Z</time>
      </trkpt>
      <trkpt lat="42.50542" lon="2.04068">
        <ele>1767</ele>
        <time>2018-07-07T09:49:16.000Z</time>
      </trkpt>
      <trkpt lat="42.5054" lon="2.04068">
        <ele>1767</ele>
        <time>2018-07-07T09:49:17.000Z</time>
      </trkpt>
      <trkpt lat="42.50538" lon="2.04069">
        <ele>1767</ele>
        <time>2018-07-07T09:49:18.000Z</time>
      </trkpt>
      <trkpt lat="42.50536" lon="2.0407">
        <ele>1766</ele>
        <time>2018-07-07T09:49:19.000Z</time>
      </trkpt>
      <trkpt lat="42.50534" lon="2.0407">
        <ele>1766</ele>
        <time>2018-07-07T09:49:20.000Z</time>
      </trkpt>
      <trkpt lat="42.50536" lon="2.04067">
        <ele>1766</ele>
        <time>2018-07-07T09:49:23.000Z</time>
      </trkpt>
      <trkpt lat="42.50537" lon="2.04064">
        <ele>1766</ele>
        <time>2018-07-07T09:49:24.000Z</time>
      </trkpt>
      <trkpt lat="42.50539" lon="2.04061">
        <ele>1767</ele>
        <time>2018-07-07T09:49:25.000Z</time>
      </trkpt>
      <trkpt lat="42.50527" lon="2.04052">
        <ele>1766</ele>
        <time>2018-07-07T09:49:30.000Z</time>
      </trkpt>
      <trkpt lat="42.50518" lon="2.04052">
        <ele>1765</ele>
        <time>2018-07-07T09:49:32.000Z</time>
      </trkpt>
      <trkpt lat="42.50507" lon="2.04052">
        <ele>1764</ele>
        <time>2018-07-07T09:49:34.000Z</time>
      </trkpt>
      <trkpt lat="42.50501" lon="2.04055">
        <ele>1764</ele>
        <time>2018-07-07T09:49:36.000Z</time>
      </trkpt>
      <trkpt lat="42.505" lon="2.04058">
        <ele>1754</ele>
        <time>2018-07-07T09:49:37.000Z</time>
      </trkpt>
      <trkpt lat="42.505" lon="2.0406">
        <ele>1754</ele>
        <time>2018-07-07T09:49:38.000Z</time>
      </trkpt>
      <trkpt lat="42.505" lon="2.04063">
        <ele>1763</ele>
        <time>2018-07-07T09:49:39.000Z</time>
      </trkpt>
      <trkpt lat="42.50501" lon="2.04066">
        <ele>1762</ele>
        <time>2018-07-07T09:49:40.000Z</time>
      </trkpt>
      <trkpt lat="42.50501" lon="2.04069">
        <ele>1762</ele>
        <time>2018-07-07T09:49:41.000Z</time>
      </trkpt>
      <trkpt lat="42.50501" lon="2.04072">
        <ele>1761</ele>
        <time>2018-07-07T09:49:42.000Z</time>
      </trkpt>
      <trkpt lat="42.50501" lon="2.04075">
        <ele>1761</ele>
        <time>2018-07-07T09:49:43.000Z</time>
      </trkpt>
      <trkpt lat="42.50501" lon="2.04078">
        <ele>1760</ele>
        <time>2018-07-07T09:49:44.000Z</time>
      </trkpt>
      <trkpt lat="42.50502" lon="2.04082">
        <ele>1759</ele>
        <time>2018-07-07T09:49:45.000Z</time>
      </trkpt>
      <trkpt lat="42.50502" lon="2.04085">
        <ele>1759</ele>
        <time>2018-07-07T09:49:46.000Z</time>
      </trkpt>
      <trkpt lat="42.50502" lon="2.04089">
        <ele>1760</ele>
        <time>2018-07-07T09:49:47.000Z</time>
      </trkpt>
      <trkpt lat="42.50502" lon="2.04093">
        <ele>1760</ele>
        <time>2018-07-07T09:49:48.000Z</time>
      </trkpt>
      <trkpt lat="42.50502" lon="2.04097">
        <ele>1761</ele>
        <time>2018-07-07T09:49:49.000Z</time>
      </trkpt>
      <trkpt lat="42.50502" lon="2.04101">
        <ele>1762</ele>
        <time>2018-07-07T09:49:50.000Z</time>
      </trkpt>
      <trkpt lat="42.50502" lon="2.04104">
        <ele>1762</ele>
        <time>2018-07-07T09:49:51.000Z</time>
      </trkpt>
      <trkpt lat="42.50501" lon="2.04108">
        <ele>1762</ele>
        <time>2018-07-07T09:49:52.000Z</time>
      </trkpt>
      <trkpt lat="42.50501" lon="2.04112">
        <ele>1762</ele>
        <time>2018-07-07T09:49:53.000Z</time>
      </trkpt>
      <trkpt lat="42.50501" lon="2.04116">
        <ele>1763</ele>
        <time>2018-07-07T09:49:54.000Z</time>
      </trkpt>
      <trkpt lat="42.505" lon="2.04119">
        <ele>1763</ele>
        <time>2018-07-07T09:49:55.000Z</time>
      </trkpt>
      <trkpt lat="42.50502" lon="2.04123">
        <ele>1763</ele>
        <time>2018-07-07T09:49:56.000Z</time>
      </trkpt>
      <trkpt lat="42.50503" lon="2.04126">
        <ele>1763</ele>
        <time>2018-07-07T09:49:57.000Z</time>
      </trkpt>
      <trkpt lat="42.50504" lon="2.0413">
        <ele>1763</ele>
        <time>2018-07-07T09:49:58.000Z</time>
      </trkpt>
      <trkpt lat="42.50505" lon="2.04134">
        <ele>1762</ele>
        <time>2018-07-07T09:49:59.000Z</time>
      </trkpt>
      <trkpt lat="42.50506" lon="2.04142">
        <ele>1762</ele>
        <time>2018-07-07T09:50:01.000Z</time>
      </trkpt>
      <trkpt lat="42.50507" lon="2.04147">
        <ele>1761</ele>
        <time>2018-07-07T09:50:02.000Z</time>
      </trkpt>
      <trkpt lat="42.50508" lon="2.0415">
        <ele>1761</ele>
        <time>2018-07-07T09:50:03.000Z</time>
      </trkpt>
      <trkpt lat="42.50511" lon="2.04163">
        <ele>1760</ele>
        <time>2018-07-07T09:50:08.000Z</time>
      </trkpt>
      <trkpt lat="42.50511" lon="2.04166">
        <ele>1760</ele>
        <time>2018-07-07T09:50:09.000Z</time>
      </trkpt>
      <trkpt lat="42.50511" lon="2.0417">
        <ele>1760</ele>
        <time>2018-07-07T09:50:10.000Z</time>
      </trkpt>
      <trkpt lat="42.50512" lon="2.04172">
        <ele>1760</ele>
        <time>2018-07-07T09:50:11.000Z</time>
      </trkpt>
      <trkpt lat="42.50513" lon="2.04175">
        <ele>1761</ele>
        <time>2018-07-07T09:50:12.000Z</time>
      </trkpt>
      <trkpt lat="42.50513" lon="2.04178">
        <ele>1761</ele>
        <time>2018-07-07T09:50:13.000Z</time>
      </trkpt>
      <trkpt lat="42.50513" lon="2.04181">
        <ele>1761</ele>
        <time>2018-07-07T09:50:14.000Z</time>
      </trkpt>
      <trkpt lat="42.50513" lon="2.04185">
        <ele>1762</ele>
        <time>2018-07-07T09:50:15.000Z</time>
      </trkpt>
      <trkpt lat="42.50513" lon="2.04188">
        <ele>1762</ele>
        <time>2018-07-07T09:50:16.000Z</time>
      </trkpt>
      <trkpt lat="42.50513" lon="2.04192">
        <ele>1762</ele>
        <time>2018-07-07T09:50:17.000Z</time>
      </trkpt>
      <trkpt lat="42.50513" lon="2.04195">
        <ele>1763</ele>
        <time>2018-07-07T09:50:18.000Z</time>
      </trkpt>
      <trkpt lat="42.50513" lon="2.04198">
        <ele>1763</ele>
        <time>2018-07-07T09:50:19.000Z</time>
      </trkpt>
      <trkpt lat="42.50513" lon="2.04202">
        <ele>1763</ele>
        <time>2018-07-07T09:50:21.000Z</time>
      </trkpt>
    </trkseg>
  </trk>
</gpx>